<?xml version="1.0" encoding="UTF-8" standalone="no" ?>
<gpx xmlns="http://www.topografix.com/GPX/1/1" xmlns:xsi="http://www.w3.org/2001/XMLSchema-instance" xsi:schemaLocation="http://www.topografix.com/GPX/1/1 http://www.topografix.com/GPX/1/1/gpx.xsd" version="1.1" creator="VisuGPX - https://www.visugpx.com">
  <metadata>
    <name>Balade en garrigue 15/04/2021</name>
  </metadata>
  <trk>
    <name><![CDATA[Balade en garrigue 15/04/2021_1]]></name>
    <trkseg>
      <trkpt lat="43.56166" lon="3.70887">
        <ele>75</ele>
        <time>2021-04-15T12:43:13Z</time>
      </trkpt>
      <trkpt lat="43.56166" lon="3.70887">
        <ele>75</ele>
        <time>2021-04-15T12:43:13Z</time>
      </trkpt>
      <trkpt lat="43.56168" lon="3.70887">
        <ele>75</ele>
        <time>2021-04-15T12:43:14Z</time>
      </trkpt>
      <trkpt lat="43.56168" lon="3.70887">
        <ele>75</ele>
        <time>2021-04-15T12:43:14Z</time>
      </trkpt>
      <trkpt lat="43.56169" lon="3.70886">
        <ele>75</ele>
        <time>2021-04-15T12:43:15Z</time>
      </trkpt>
      <trkpt lat="43.56169" lon="3.70886">
        <ele>75</ele>
        <time>2021-04-15T12:43:15Z</time>
      </trkpt>
      <trkpt lat="43.56169" lon="3.70887">
        <ele>75</ele>
        <time>2021-04-15T12:43:17Z</time>
      </trkpt>
      <trkpt lat="43.56169" lon="3.70887">
        <ele>75</ele>
        <time>2021-04-15T12:43:17Z</time>
      </trkpt>
      <trkpt lat="43.56169" lon="3.70888">
        <ele>75</ele>
        <time>2021-04-15T12:43:18Z</time>
      </trkpt>
      <trkpt lat="43.56169" lon="3.70888">
        <ele>75</ele>
        <time>2021-04-15T12:43:18Z</time>
      </trkpt>
      <trkpt lat="43.56165" lon="3.70878">
        <ele>74.9</ele>
        <time>2021-04-15T12:44:45Z</time>
      </trkpt>
      <trkpt lat="43.56165" lon="3.70878">
        <ele>69</ele>
        <time>2021-04-15T12:44:45Z</time>
      </trkpt>
      <trkpt lat="43.56165" lon="3.70878">
        <ele>74.9</ele>
        <time>2021-04-15T12:44:46Z</time>
      </trkpt>
      <trkpt lat="43.56165" lon="3.70878">
        <ele>69</ele>
        <time>2021-04-15T12:44:46Z</time>
      </trkpt>
      <trkpt lat="43.56166" lon="3.70877">
        <ele>74.9</ele>
        <time>2021-04-15T12:44:48Z</time>
      </trkpt>
      <trkpt lat="43.56166" lon="3.70877">
        <ele>69</ele>
        <time>2021-04-15T12:44:48Z</time>
      </trkpt>
      <trkpt lat="43.56166" lon="3.70876">
        <ele>75</ele>
        <time>2021-04-15T12:44:50Z</time>
      </trkpt>
      <trkpt lat="43.56166" lon="3.70876">
        <ele>69</ele>
        <time>2021-04-15T12:44:50Z</time>
      </trkpt>
      <trkpt lat="43.56167" lon="3.70874">
        <ele>75</ele>
        <time>2021-04-15T12:44:51Z</time>
      </trkpt>
      <trkpt lat="43.56167" lon="3.70874">
        <ele>69</ele>
        <time>2021-04-15T12:44:51Z</time>
      </trkpt>
      <trkpt lat="43.56168" lon="3.70872">
        <ele>75</ele>
        <time>2021-04-15T12:44:53Z</time>
      </trkpt>
      <trkpt lat="43.56168" lon="3.70872">
        <ele>69</ele>
        <time>2021-04-15T12:44:53Z</time>
      </trkpt>
      <trkpt lat="43.56169" lon="3.7087">
        <ele>75</ele>
        <time>2021-04-15T12:44:55Z</time>
      </trkpt>
      <trkpt lat="43.56169" lon="3.7087">
        <ele>69</ele>
        <time>2021-04-15T12:44:55Z</time>
      </trkpt>
      <trkpt lat="43.5617" lon="3.70867">
        <ele>75.1</ele>
        <time>2021-04-15T12:44:56Z</time>
      </trkpt>
      <trkpt lat="43.5617" lon="3.70867">
        <ele>69</ele>
        <time>2021-04-15T12:44:56Z</time>
      </trkpt>
      <trkpt lat="43.56171" lon="3.70865">
        <ele>75.1</ele>
        <time>2021-04-15T12:44:58Z</time>
      </trkpt>
      <trkpt lat="43.56171" lon="3.70865">
        <ele>69</ele>
        <time>2021-04-15T12:44:58Z</time>
      </trkpt>
      <trkpt lat="43.56173" lon="3.70863">
        <ele>75.2</ele>
        <time>2021-04-15T12:44:59Z</time>
      </trkpt>
      <trkpt lat="43.56173" lon="3.70863">
        <ele>69</ele>
        <time>2021-04-15T12:44:59Z</time>
      </trkpt>
      <trkpt lat="43.56174" lon="3.70861">
        <ele>75.2</ele>
        <time>2021-04-15T12:45:00Z</time>
      </trkpt>
      <trkpt lat="43.56174" lon="3.70861">
        <ele>69</ele>
        <time>2021-04-15T12:45:00Z</time>
      </trkpt>
      <trkpt lat="43.56175" lon="3.70858">
        <ele>75.2</ele>
        <time>2021-04-15T12:45:02Z</time>
      </trkpt>
      <trkpt lat="43.56175" lon="3.70858">
        <ele>69</ele>
        <time>2021-04-15T12:45:02Z</time>
      </trkpt>
      <trkpt lat="43.56177" lon="3.70856">
        <ele>75.2</ele>
        <time>2021-04-15T12:45:03Z</time>
      </trkpt>
      <trkpt lat="43.56177" lon="3.70856">
        <ele>69</ele>
        <time>2021-04-15T12:45:03Z</time>
      </trkpt>
      <trkpt lat="43.56178" lon="3.70854">
        <ele>75.3</ele>
        <time>2021-04-15T12:45:05Z</time>
      </trkpt>
      <trkpt lat="43.56178" lon="3.70854">
        <ele>69</ele>
        <time>2021-04-15T12:45:05Z</time>
      </trkpt>
      <trkpt lat="43.5618" lon="3.70851">
        <ele>75.3</ele>
        <time>2021-04-15T12:45:07Z</time>
      </trkpt>
      <trkpt lat="43.5618" lon="3.70851">
        <ele>69</ele>
        <time>2021-04-15T12:45:07Z</time>
      </trkpt>
      <trkpt lat="43.56181" lon="3.70849">
        <ele>75.3</ele>
        <time>2021-04-15T12:45:09Z</time>
      </trkpt>
      <trkpt lat="43.56181" lon="3.70849">
        <ele>69</ele>
        <time>2021-04-15T12:45:09Z</time>
      </trkpt>
      <trkpt lat="43.56185" lon="3.70843">
        <ele>75.4</ele>
        <time>2021-04-15T12:45:13Z</time>
      </trkpt>
      <trkpt lat="43.56185" lon="3.70843">
        <ele>69</ele>
        <time>2021-04-15T12:45:13Z</time>
      </trkpt>
      <trkpt lat="43.56185" lon="3.70842">
        <ele>75.4</ele>
        <time>2021-04-15T12:45:15Z</time>
      </trkpt>
      <trkpt lat="43.56185" lon="3.70842">
        <ele>69</ele>
        <time>2021-04-15T12:45:15Z</time>
      </trkpt>
      <trkpt lat="43.56186" lon="3.70842">
        <ele>75.5</ele>
        <time>2021-04-15T12:45:16Z</time>
      </trkpt>
      <trkpt lat="43.56186" lon="3.70842">
        <ele>69</ele>
        <time>2021-04-15T12:45:16Z</time>
      </trkpt>
      <trkpt lat="43.56186" lon="3.70841">
        <ele>75.5</ele>
        <time>2021-04-15T12:45:17Z</time>
      </trkpt>
      <trkpt lat="43.56186" lon="3.70841">
        <ele>69</ele>
        <time>2021-04-15T12:45:17Z</time>
      </trkpt>
      <trkpt lat="43.56187" lon="3.7084">
        <ele>75.5</ele>
        <time>2021-04-15T12:45:19Z</time>
      </trkpt>
      <trkpt lat="43.56187" lon="3.7084">
        <ele>69</ele>
        <time>2021-04-15T12:45:19Z</time>
      </trkpt>
      <trkpt lat="43.56189" lon="3.70838">
        <ele>75.6</ele>
        <time>2021-04-15T12:45:21Z</time>
      </trkpt>
      <trkpt lat="43.56189" lon="3.70838">
        <ele>71</ele>
        <time>2021-04-15T12:45:21Z</time>
      </trkpt>
      <trkpt lat="43.56191" lon="3.70836">
        <ele>75.7</ele>
        <time>2021-04-15T12:45:22Z</time>
      </trkpt>
      <trkpt lat="43.56191" lon="3.70836">
        <ele>71</ele>
        <time>2021-04-15T12:45:22Z</time>
      </trkpt>
      <trkpt lat="43.56193" lon="3.70834">
        <ele>75.9</ele>
        <time>2021-04-15T12:45:24Z</time>
      </trkpt>
      <trkpt lat="43.56193" lon="3.70834">
        <ele>71</ele>
        <time>2021-04-15T12:45:24Z</time>
      </trkpt>
      <trkpt lat="43.56194" lon="3.70832">
        <ele>76</ele>
        <time>2021-04-15T12:45:25Z</time>
      </trkpt>
      <trkpt lat="43.56194" lon="3.70832">
        <ele>71</ele>
        <time>2021-04-15T12:45:25Z</time>
      </trkpt>
      <trkpt lat="43.56196" lon="3.7083">
        <ele>76.1</ele>
        <time>2021-04-15T12:45:27Z</time>
      </trkpt>
      <trkpt lat="43.56196" lon="3.7083">
        <ele>71</ele>
        <time>2021-04-15T12:45:27Z</time>
      </trkpt>
      <trkpt lat="43.56198" lon="3.70829">
        <ele>76.2</ele>
        <time>2021-04-15T12:45:29Z</time>
      </trkpt>
      <trkpt lat="43.56198" lon="3.70829">
        <ele>71</ele>
        <time>2021-04-15T12:45:29Z</time>
      </trkpt>
      <trkpt lat="43.562" lon="3.70827">
        <ele>76.2</ele>
        <time>2021-04-15T12:45:31Z</time>
      </trkpt>
      <trkpt lat="43.562" lon="3.70827">
        <ele>71</ele>
        <time>2021-04-15T12:45:31Z</time>
      </trkpt>
      <trkpt lat="43.56202" lon="3.70826">
        <ele>76.3</ele>
        <time>2021-04-15T12:45:32Z</time>
      </trkpt>
      <trkpt lat="43.56202" lon="3.70826">
        <ele>71</ele>
        <time>2021-04-15T12:45:32Z</time>
      </trkpt>
      <trkpt lat="43.56204" lon="3.70825">
        <ele>76.3</ele>
        <time>2021-04-15T12:45:34Z</time>
      </trkpt>
      <trkpt lat="43.56204" lon="3.70825">
        <ele>71</ele>
        <time>2021-04-15T12:45:34Z</time>
      </trkpt>
      <trkpt lat="43.56205" lon="3.70824">
        <ele>76.4</ele>
        <time>2021-04-15T12:45:36Z</time>
      </trkpt>
      <trkpt lat="43.56205" lon="3.70824">
        <ele>71</ele>
        <time>2021-04-15T12:45:36Z</time>
      </trkpt>
      <trkpt lat="43.56207" lon="3.70823">
        <ele>76.4</ele>
        <time>2021-04-15T12:45:37Z</time>
      </trkpt>
      <trkpt lat="43.56207" lon="3.70823">
        <ele>71</ele>
        <time>2021-04-15T12:45:37Z</time>
      </trkpt>
      <trkpt lat="43.56208" lon="3.70822">
        <ele>76.4</ele>
        <time>2021-04-15T12:45:38Z</time>
      </trkpt>
      <trkpt lat="43.56208" lon="3.70822">
        <ele>71</ele>
        <time>2021-04-15T12:45:38Z</time>
      </trkpt>
      <trkpt lat="43.56209" lon="3.70822">
        <ele>76.4</ele>
        <time>2021-04-15T12:45:39Z</time>
      </trkpt>
      <trkpt lat="43.56209" lon="3.70822">
        <ele>71</ele>
        <time>2021-04-15T12:45:39Z</time>
      </trkpt>
      <trkpt lat="43.56211" lon="3.70821">
        <ele>76.5</ele>
        <time>2021-04-15T12:45:40Z</time>
      </trkpt>
      <trkpt lat="43.56211" lon="3.70821">
        <ele>71</ele>
        <time>2021-04-15T12:45:40Z</time>
      </trkpt>
      <trkpt lat="43.56212" lon="3.7082">
        <ele>76.5</ele>
        <time>2021-04-15T12:45:42Z</time>
      </trkpt>
      <trkpt lat="43.56212" lon="3.7082">
        <ele>71</ele>
        <time>2021-04-15T12:45:42Z</time>
      </trkpt>
      <trkpt lat="43.56214" lon="3.70819">
        <ele>76.5</ele>
        <time>2021-04-15T12:45:43Z</time>
      </trkpt>
      <trkpt lat="43.56214" lon="3.70819">
        <ele>71</ele>
        <time>2021-04-15T12:45:43Z</time>
      </trkpt>
      <trkpt lat="43.56216" lon="3.70819">
        <ele>76.5</ele>
        <time>2021-04-15T12:45:45Z</time>
      </trkpt>
      <trkpt lat="43.56216" lon="3.70819">
        <ele>71</ele>
        <time>2021-04-15T12:45:45Z</time>
      </trkpt>
      <trkpt lat="43.56218" lon="3.70818">
        <ele>76.5</ele>
        <time>2021-04-15T12:45:46Z</time>
      </trkpt>
      <trkpt lat="43.56218" lon="3.70818">
        <ele>71</ele>
        <time>2021-04-15T12:45:46Z</time>
      </trkpt>
      <trkpt lat="43.5622" lon="3.70818">
        <ele>76.6</ele>
        <time>2021-04-15T12:45:48Z</time>
      </trkpt>
      <trkpt lat="43.5622" lon="3.70818">
        <ele>71</ele>
        <time>2021-04-15T12:45:48Z</time>
      </trkpt>
      <trkpt lat="43.56222" lon="3.70817">
        <ele>76.6</ele>
        <time>2021-04-15T12:45:50Z</time>
      </trkpt>
      <trkpt lat="43.56222" lon="3.70817">
        <ele>71</ele>
        <time>2021-04-15T12:45:50Z</time>
      </trkpt>
      <trkpt lat="43.56224" lon="3.70818">
        <ele>76.6</ele>
        <time>2021-04-15T12:45:51Z</time>
      </trkpt>
      <trkpt lat="43.56224" lon="3.70818">
        <ele>71</ele>
        <time>2021-04-15T12:45:51Z</time>
      </trkpt>
      <trkpt lat="43.56226" lon="3.70818">
        <ele>76.6</ele>
        <time>2021-04-15T12:45:52Z</time>
      </trkpt>
      <trkpt lat="43.56226" lon="3.70818">
        <ele>71</ele>
        <time>2021-04-15T12:45:52Z</time>
      </trkpt>
      <trkpt lat="43.56227" lon="3.70818">
        <ele>76.6</ele>
        <time>2021-04-15T12:45:53Z</time>
      </trkpt>
      <trkpt lat="43.56227" lon="3.70818">
        <ele>71</ele>
        <time>2021-04-15T12:45:53Z</time>
      </trkpt>
      <trkpt lat="43.56229" lon="3.70818">
        <ele>76.7</ele>
        <time>2021-04-15T12:45:55Z</time>
      </trkpt>
      <trkpt lat="43.56229" lon="3.70818">
        <ele>71</ele>
        <time>2021-04-15T12:45:55Z</time>
      </trkpt>
      <trkpt lat="43.56231" lon="3.70818">
        <ele>76.7</ele>
        <time>2021-04-15T12:45:57Z</time>
      </trkpt>
      <trkpt lat="43.56231" lon="3.70818">
        <ele>71</ele>
        <time>2021-04-15T12:45:57Z</time>
      </trkpt>
      <trkpt lat="43.56233" lon="3.70818">
        <ele>76.7</ele>
        <time>2021-04-15T12:45:58Z</time>
      </trkpt>
      <trkpt lat="43.56233" lon="3.70818">
        <ele>71</ele>
        <time>2021-04-15T12:45:58Z</time>
      </trkpt>
      <trkpt lat="43.56238" lon="3.70818">
        <ele>76.8</ele>
        <time>2021-04-15T12:46:00Z</time>
      </trkpt>
      <trkpt lat="43.56238" lon="3.70818">
        <ele>71</ele>
        <time>2021-04-15T12:46:00Z</time>
      </trkpt>
      <trkpt lat="43.56238" lon="3.70818">
        <ele>76.8</ele>
        <time>2021-04-15T12:46:02Z</time>
      </trkpt>
      <trkpt lat="43.56238" lon="3.70818">
        <ele>71</ele>
        <time>2021-04-15T12:46:02Z</time>
      </trkpt>
      <trkpt lat="43.56239" lon="3.70818">
        <ele>76.8</ele>
        <time>2021-04-15T12:46:03Z</time>
      </trkpt>
      <trkpt lat="43.56239" lon="3.70818">
        <ele>71</ele>
        <time>2021-04-15T12:46:03Z</time>
      </trkpt>
      <trkpt lat="43.56241" lon="3.70818">
        <ele>76.9</ele>
        <time>2021-04-15T12:46:05Z</time>
      </trkpt>
      <trkpt lat="43.56241" lon="3.70818">
        <ele>71</ele>
        <time>2021-04-15T12:46:05Z</time>
      </trkpt>
      <trkpt lat="43.56243" lon="3.70818">
        <ele>76.9</ele>
        <time>2021-04-15T12:46:07Z</time>
      </trkpt>
      <trkpt lat="43.56243" lon="3.70818">
        <ele>71</ele>
        <time>2021-04-15T12:46:07Z</time>
      </trkpt>
      <trkpt lat="43.56245" lon="3.70818">
        <ele>76.9</ele>
        <time>2021-04-15T12:46:09Z</time>
      </trkpt>
      <trkpt lat="43.56245" lon="3.70818">
        <ele>71</ele>
        <time>2021-04-15T12:46:09Z</time>
      </trkpt>
      <trkpt lat="43.56247" lon="3.70818">
        <ele>76.9</ele>
        <time>2021-04-15T12:46:10Z</time>
      </trkpt>
      <trkpt lat="43.56247" lon="3.70818">
        <ele>71</ele>
        <time>2021-04-15T12:46:10Z</time>
      </trkpt>
      <trkpt lat="43.56248" lon="3.70818">
        <ele>77</ele>
        <time>2021-04-15T12:46:11Z</time>
      </trkpt>
      <trkpt lat="43.56248" lon="3.70818">
        <ele>71</ele>
        <time>2021-04-15T12:46:11Z</time>
      </trkpt>
      <trkpt lat="43.5625" lon="3.70818">
        <ele>77</ele>
        <time>2021-04-15T12:46:13Z</time>
      </trkpt>
      <trkpt lat="43.5625" lon="3.70818">
        <ele>71</ele>
        <time>2021-04-15T12:46:13Z</time>
      </trkpt>
      <trkpt lat="43.56252" lon="3.70817">
        <ele>77</ele>
        <time>2021-04-15T12:46:15Z</time>
      </trkpt>
      <trkpt lat="43.56252" lon="3.70817">
        <ele>71</ele>
        <time>2021-04-15T12:46:15Z</time>
      </trkpt>
      <trkpt lat="43.56253" lon="3.70817">
        <ele>77</ele>
        <time>2021-04-15T12:46:16Z</time>
      </trkpt>
      <trkpt lat="43.56253" lon="3.70817">
        <ele>71</ele>
        <time>2021-04-15T12:46:16Z</time>
      </trkpt>
      <trkpt lat="43.56255" lon="3.70817">
        <ele>77</ele>
        <time>2021-04-15T12:46:18Z</time>
      </trkpt>
      <trkpt lat="43.56255" lon="3.70817">
        <ele>71</ele>
        <time>2021-04-15T12:46:18Z</time>
      </trkpt>
      <trkpt lat="43.56256" lon="3.70816">
        <ele>77</ele>
        <time>2021-04-15T12:46:19Z</time>
      </trkpt>
      <trkpt lat="43.56256" lon="3.70816">
        <ele>71</ele>
        <time>2021-04-15T12:46:19Z</time>
      </trkpt>
      <trkpt lat="43.56258" lon="3.70816">
        <ele>77</ele>
        <time>2021-04-15T12:46:20Z</time>
      </trkpt>
      <trkpt lat="43.56258" lon="3.70816">
        <ele>71</ele>
        <time>2021-04-15T12:46:20Z</time>
      </trkpt>
      <trkpt lat="43.56259" lon="3.70816">
        <ele>77</ele>
        <time>2021-04-15T12:46:21Z</time>
      </trkpt>
      <trkpt lat="43.56259" lon="3.70816">
        <ele>71</ele>
        <time>2021-04-15T12:46:21Z</time>
      </trkpt>
      <trkpt lat="43.5626" lon="3.70815">
        <ele>77</ele>
        <time>2021-04-15T12:46:23Z</time>
      </trkpt>
      <trkpt lat="43.5626" lon="3.70815">
        <ele>71</ele>
        <time>2021-04-15T12:46:23Z</time>
      </trkpt>
      <trkpt lat="43.56262" lon="3.70813">
        <ele>77</ele>
        <time>2021-04-15T12:46:25Z</time>
      </trkpt>
      <trkpt lat="43.56262" lon="3.70813">
        <ele>71</ele>
        <time>2021-04-15T12:46:25Z</time>
      </trkpt>
      <trkpt lat="43.56264" lon="3.70812">
        <ele>77</ele>
        <time>2021-04-15T12:46:27Z</time>
      </trkpt>
      <trkpt lat="43.56264" lon="3.70812">
        <ele>71</ele>
        <time>2021-04-15T12:46:27Z</time>
      </trkpt>
      <trkpt lat="43.56265" lon="3.70811">
        <ele>77</ele>
        <time>2021-04-15T12:46:28Z</time>
      </trkpt>
      <trkpt lat="43.56265" lon="3.70811">
        <ele>71</ele>
        <time>2021-04-15T12:46:28Z</time>
      </trkpt>
      <trkpt lat="43.56267" lon="3.70809">
        <ele>77</ele>
        <time>2021-04-15T12:46:30Z</time>
      </trkpt>
      <trkpt lat="43.56267" lon="3.70809">
        <ele>71</ele>
        <time>2021-04-15T12:46:30Z</time>
      </trkpt>
      <trkpt lat="43.56269" lon="3.70808">
        <ele>77</ele>
        <time>2021-04-15T12:46:32Z</time>
      </trkpt>
      <trkpt lat="43.56269" lon="3.70808">
        <ele>71</ele>
        <time>2021-04-15T12:46:32Z</time>
      </trkpt>
      <trkpt lat="43.56271" lon="3.70806">
        <ele>77</ele>
        <time>2021-04-15T12:46:33Z</time>
      </trkpt>
      <trkpt lat="43.56271" lon="3.70806">
        <ele>71</ele>
        <time>2021-04-15T12:46:33Z</time>
      </trkpt>
      <trkpt lat="43.56273" lon="3.70805">
        <ele>77</ele>
        <time>2021-04-15T12:46:34Z</time>
      </trkpt>
      <trkpt lat="43.56273" lon="3.70805">
        <ele>71</ele>
        <time>2021-04-15T12:46:34Z</time>
      </trkpt>
      <trkpt lat="43.56274" lon="3.70804">
        <ele>77.1</ele>
        <time>2021-04-15T12:46:35Z</time>
      </trkpt>
      <trkpt lat="43.56274" lon="3.70804">
        <ele>71</ele>
        <time>2021-04-15T12:46:35Z</time>
      </trkpt>
      <trkpt lat="43.56276" lon="3.70802">
        <ele>77.1</ele>
        <time>2021-04-15T12:46:37Z</time>
      </trkpt>
      <trkpt lat="43.56276" lon="3.70802">
        <ele>71</ele>
        <time>2021-04-15T12:46:37Z</time>
      </trkpt>
      <trkpt lat="43.56278" lon="3.708">
        <ele>77.2</ele>
        <time>2021-04-15T12:46:39Z</time>
      </trkpt>
      <trkpt lat="43.56278" lon="3.708">
        <ele>71</ele>
        <time>2021-04-15T12:46:39Z</time>
      </trkpt>
      <trkpt lat="43.56279" lon="3.70799">
        <ele>77.3</ele>
        <time>2021-04-15T12:46:40Z</time>
      </trkpt>
      <trkpt lat="43.56279" lon="3.70799">
        <ele>71</ele>
        <time>2021-04-15T12:46:40Z</time>
      </trkpt>
      <trkpt lat="43.56281" lon="3.70798">
        <ele>77.3</ele>
        <time>2021-04-15T12:46:41Z</time>
      </trkpt>
      <trkpt lat="43.56281" lon="3.70798">
        <ele>71</ele>
        <time>2021-04-15T12:46:41Z</time>
      </trkpt>
      <trkpt lat="43.56282" lon="3.70798">
        <ele>77.4</ele>
        <time>2021-04-15T12:46:43Z</time>
      </trkpt>
      <trkpt lat="43.56282" lon="3.70798">
        <ele>71</ele>
        <time>2021-04-15T12:46:43Z</time>
      </trkpt>
      <trkpt lat="43.56286" lon="3.70797">
        <ele>77.5</ele>
        <time>2021-04-15T12:46:46Z</time>
      </trkpt>
      <trkpt lat="43.56286" lon="3.70797">
        <ele>71</ele>
        <time>2021-04-15T12:46:46Z</time>
      </trkpt>
      <trkpt lat="43.56287" lon="3.70796">
        <ele>77.5</ele>
        <time>2021-04-15T12:46:48Z</time>
      </trkpt>
      <trkpt lat="43.56287" lon="3.70796">
        <ele>71</ele>
        <time>2021-04-15T12:46:48Z</time>
      </trkpt>
      <trkpt lat="43.56287" lon="3.70796">
        <ele>77.6</ele>
        <time>2021-04-15T12:46:49Z</time>
      </trkpt>
      <trkpt lat="43.56287" lon="3.70796">
        <ele>71</ele>
        <time>2021-04-15T12:46:49Z</time>
      </trkpt>
      <trkpt lat="43.56288" lon="3.70795">
        <ele>77.6</ele>
        <time>2021-04-15T12:46:51Z</time>
      </trkpt>
      <trkpt lat="43.56288" lon="3.70795">
        <ele>71</ele>
        <time>2021-04-15T12:46:51Z</time>
      </trkpt>
      <trkpt lat="43.5629" lon="3.70794">
        <ele>77.7</ele>
        <time>2021-04-15T12:46:53Z</time>
      </trkpt>
      <trkpt lat="43.5629" lon="3.70794">
        <ele>71</ele>
        <time>2021-04-15T12:46:53Z</time>
      </trkpt>
      <trkpt lat="43.56292" lon="3.70792">
        <ele>77.7</ele>
        <time>2021-04-15T12:46:55Z</time>
      </trkpt>
      <trkpt lat="43.56292" lon="3.70792">
        <ele>71</ele>
        <time>2021-04-15T12:46:55Z</time>
      </trkpt>
      <trkpt lat="43.56294" lon="3.70791">
        <ele>77.8</ele>
        <time>2021-04-15T12:46:57Z</time>
      </trkpt>
      <trkpt lat="43.56294" lon="3.70791">
        <ele>73</ele>
        <time>2021-04-15T12:46:57Z</time>
      </trkpt>
      <trkpt lat="43.56296" lon="3.70789">
        <ele>77.9</ele>
        <time>2021-04-15T12:46:58Z</time>
      </trkpt>
      <trkpt lat="43.56296" lon="3.70789">
        <ele>73</ele>
        <time>2021-04-15T12:46:58Z</time>
      </trkpt>
      <trkpt lat="43.56297" lon="3.70788">
        <ele>77.9</ele>
        <time>2021-04-15T12:47:00Z</time>
      </trkpt>
      <trkpt lat="43.56297" lon="3.70788">
        <ele>73</ele>
        <time>2021-04-15T12:47:00Z</time>
      </trkpt>
      <trkpt lat="43.56298" lon="3.70788">
        <ele>77.9</ele>
        <time>2021-04-15T12:47:01Z</time>
      </trkpt>
      <trkpt lat="43.56298" lon="3.70788">
        <ele>73</ele>
        <time>2021-04-15T12:47:01Z</time>
      </trkpt>
      <trkpt lat="43.56299" lon="3.70787">
        <ele>77.9</ele>
        <time>2021-04-15T12:47:03Z</time>
      </trkpt>
      <trkpt lat="43.56299" lon="3.70787">
        <ele>73</ele>
        <time>2021-04-15T12:47:03Z</time>
      </trkpt>
      <trkpt lat="43.563" lon="3.70786">
        <ele>77.9</ele>
        <time>2021-04-15T12:47:04Z</time>
      </trkpt>
      <trkpt lat="43.563" lon="3.70786">
        <ele>73</ele>
        <time>2021-04-15T12:47:04Z</time>
      </trkpt>
      <trkpt lat="43.56301" lon="3.70785">
        <ele>78</ele>
        <time>2021-04-15T12:47:06Z</time>
      </trkpt>
      <trkpt lat="43.56301" lon="3.70785">
        <ele>73</ele>
        <time>2021-04-15T12:47:06Z</time>
      </trkpt>
      <trkpt lat="43.56302" lon="3.70784">
        <ele>78</ele>
        <time>2021-04-15T12:47:07Z</time>
      </trkpt>
      <trkpt lat="43.56302" lon="3.70784">
        <ele>73</ele>
        <time>2021-04-15T12:47:07Z</time>
      </trkpt>
      <trkpt lat="43.56303" lon="3.70783">
        <ele>78</ele>
        <time>2021-04-15T12:47:09Z</time>
      </trkpt>
      <trkpt lat="43.56303" lon="3.70783">
        <ele>73</ele>
        <time>2021-04-15T12:47:09Z</time>
      </trkpt>
      <trkpt lat="43.56304" lon="3.70782">
        <ele>78</ele>
        <time>2021-04-15T12:47:10Z</time>
      </trkpt>
      <trkpt lat="43.56304" lon="3.70782">
        <ele>73</ele>
        <time>2021-04-15T12:47:10Z</time>
      </trkpt>
      <trkpt lat="43.56305" lon="3.70779">
        <ele>78</ele>
        <time>2021-04-15T12:47:12Z</time>
      </trkpt>
      <trkpt lat="43.56305" lon="3.70779">
        <ele>73</ele>
        <time>2021-04-15T12:47:12Z</time>
      </trkpt>
      <trkpt lat="43.56307" lon="3.70778">
        <ele>78</ele>
        <time>2021-04-15T12:47:13Z</time>
      </trkpt>
      <trkpt lat="43.56307" lon="3.70778">
        <ele>73</ele>
        <time>2021-04-15T12:47:13Z</time>
      </trkpt>
      <trkpt lat="43.56308" lon="3.70777">
        <ele>78.1</ele>
        <time>2021-04-15T12:47:14Z</time>
      </trkpt>
      <trkpt lat="43.56308" lon="3.70777">
        <ele>73</ele>
        <time>2021-04-15T12:47:14Z</time>
      </trkpt>
      <trkpt lat="43.56309" lon="3.70776">
        <ele>78.2</ele>
        <time>2021-04-15T12:47:16Z</time>
      </trkpt>
      <trkpt lat="43.56309" lon="3.70776">
        <ele>73</ele>
        <time>2021-04-15T12:47:16Z</time>
      </trkpt>
      <trkpt lat="43.56311" lon="3.70775">
        <ele>78.3</ele>
        <time>2021-04-15T12:47:17Z</time>
      </trkpt>
      <trkpt lat="43.56311" lon="3.70775">
        <ele>73</ele>
        <time>2021-04-15T12:47:17Z</time>
      </trkpt>
      <trkpt lat="43.56313" lon="3.70775">
        <ele>78.4</ele>
        <time>2021-04-15T12:47:19Z</time>
      </trkpt>
      <trkpt lat="43.56313" lon="3.70775">
        <ele>73</ele>
        <time>2021-04-15T12:47:19Z</time>
      </trkpt>
      <trkpt lat="43.56315" lon="3.70775">
        <ele>78.5</ele>
        <time>2021-04-15T12:47:21Z</time>
      </trkpt>
      <trkpt lat="43.56315" lon="3.70775">
        <ele>73</ele>
        <time>2021-04-15T12:47:21Z</time>
      </trkpt>
      <trkpt lat="43.56317" lon="3.70775">
        <ele>78.5</ele>
        <time>2021-04-15T12:47:23Z</time>
      </trkpt>
      <trkpt lat="43.56317" lon="3.70775">
        <ele>73</ele>
        <time>2021-04-15T12:47:23Z</time>
      </trkpt>
      <trkpt lat="43.56319" lon="3.70775">
        <ele>78.6</ele>
        <time>2021-04-15T12:47:25Z</time>
      </trkpt>
      <trkpt lat="43.56319" lon="3.70775">
        <ele>73</ele>
        <time>2021-04-15T12:47:25Z</time>
      </trkpt>
      <trkpt lat="43.56321" lon="3.70775">
        <ele>78.7</ele>
        <time>2021-04-15T12:47:26Z</time>
      </trkpt>
      <trkpt lat="43.56321" lon="3.70775">
        <ele>73</ele>
        <time>2021-04-15T12:47:26Z</time>
      </trkpt>
      <trkpt lat="43.56322" lon="3.70774">
        <ele>78.7</ele>
        <time>2021-04-15T12:47:28Z</time>
      </trkpt>
      <trkpt lat="43.56322" lon="3.70774">
        <ele>73</ele>
        <time>2021-04-15T12:47:28Z</time>
      </trkpt>
      <trkpt lat="43.56323" lon="3.70774">
        <ele>78.8</ele>
        <time>2021-04-15T12:47:29Z</time>
      </trkpt>
      <trkpt lat="43.56323" lon="3.70774">
        <ele>73</ele>
        <time>2021-04-15T12:47:29Z</time>
      </trkpt>
      <trkpt lat="43.56334" lon="3.70774">
        <ele>79.2</ele>
        <time>2021-04-15T12:47:48Z</time>
      </trkpt>
      <trkpt lat="43.56334" lon="3.70774">
        <ele>73</ele>
        <time>2021-04-15T12:47:48Z</time>
      </trkpt>
      <trkpt lat="43.56335" lon="3.70774">
        <ele>79.1</ele>
        <time>2021-04-15T12:47:50Z</time>
      </trkpt>
      <trkpt lat="43.56335" lon="3.70774">
        <ele>73</ele>
        <time>2021-04-15T12:47:50Z</time>
      </trkpt>
      <trkpt lat="43.56336" lon="3.70775">
        <ele>79.1</ele>
        <time>2021-04-15T12:47:52Z</time>
      </trkpt>
      <trkpt lat="43.56336" lon="3.70775">
        <ele>73</ele>
        <time>2021-04-15T12:47:52Z</time>
      </trkpt>
      <trkpt lat="43.56338" lon="3.70775">
        <ele>79.1</ele>
        <time>2021-04-15T12:47:54Z</time>
      </trkpt>
      <trkpt lat="43.56338" lon="3.70775">
        <ele>73</ele>
        <time>2021-04-15T12:47:54Z</time>
      </trkpt>
      <trkpt lat="43.56339" lon="3.70775">
        <ele>79.1</ele>
        <time>2021-04-15T12:47:56Z</time>
      </trkpt>
      <trkpt lat="43.56339" lon="3.70775">
        <ele>74</ele>
        <time>2021-04-15T12:47:56Z</time>
      </trkpt>
      <trkpt lat="43.56341" lon="3.70775">
        <ele>79.1</ele>
        <time>2021-04-15T12:47:58Z</time>
      </trkpt>
      <trkpt lat="43.56341" lon="3.70775">
        <ele>74</ele>
        <time>2021-04-15T12:47:58Z</time>
      </trkpt>
      <trkpt lat="43.56343" lon="3.70774">
        <ele>79.1</ele>
        <time>2021-04-15T12:47:59Z</time>
      </trkpt>
      <trkpt lat="43.56343" lon="3.70774">
        <ele>74</ele>
        <time>2021-04-15T12:47:59Z</time>
      </trkpt>
      <trkpt lat="43.56345" lon="3.70774">
        <ele>79.2</ele>
        <time>2021-04-15T12:48:00Z</time>
      </trkpt>
      <trkpt lat="43.56345" lon="3.70774">
        <ele>74</ele>
        <time>2021-04-15T12:48:00Z</time>
      </trkpt>
      <trkpt lat="43.56348" lon="3.70774">
        <ele>79.2</ele>
        <time>2021-04-15T12:48:02Z</time>
      </trkpt>
      <trkpt lat="43.56348" lon="3.70774">
        <ele>74</ele>
        <time>2021-04-15T12:48:02Z</time>
      </trkpt>
      <trkpt lat="43.56351" lon="3.70774">
        <ele>79.2</ele>
        <time>2021-04-15T12:48:04Z</time>
      </trkpt>
      <trkpt lat="43.56351" lon="3.70774">
        <ele>74</ele>
        <time>2021-04-15T12:48:04Z</time>
      </trkpt>
      <trkpt lat="43.56354" lon="3.70773">
        <ele>79.2</ele>
        <time>2021-04-15T12:48:05Z</time>
      </trkpt>
      <trkpt lat="43.56354" lon="3.70773">
        <ele>74</ele>
        <time>2021-04-15T12:48:05Z</time>
      </trkpt>
      <trkpt lat="43.56356" lon="3.70772">
        <ele>79.2</ele>
        <time>2021-04-15T12:48:07Z</time>
      </trkpt>
      <trkpt lat="43.56356" lon="3.70772">
        <ele>74</ele>
        <time>2021-04-15T12:48:07Z</time>
      </trkpt>
      <trkpt lat="43.56359" lon="3.70772">
        <ele>79.2</ele>
        <time>2021-04-15T12:48:08Z</time>
      </trkpt>
      <trkpt lat="43.56359" lon="3.70772">
        <ele>74</ele>
        <time>2021-04-15T12:48:08Z</time>
      </trkpt>
      <trkpt lat="43.56361" lon="3.70771">
        <ele>79.2</ele>
        <time>2021-04-15T12:48:10Z</time>
      </trkpt>
      <trkpt lat="43.56361" lon="3.70771">
        <ele>74</ele>
        <time>2021-04-15T12:48:10Z</time>
      </trkpt>
      <trkpt lat="43.56363" lon="3.7077">
        <ele>79.2</ele>
        <time>2021-04-15T12:48:12Z</time>
      </trkpt>
      <trkpt lat="43.56363" lon="3.7077">
        <ele>74</ele>
        <time>2021-04-15T12:48:12Z</time>
      </trkpt>
      <trkpt lat="43.56364" lon="3.7077">
        <ele>79.2</ele>
        <time>2021-04-15T12:48:13Z</time>
      </trkpt>
      <trkpt lat="43.56364" lon="3.7077">
        <ele>74</ele>
        <time>2021-04-15T12:48:13Z</time>
      </trkpt>
      <trkpt lat="43.56366" lon="3.7077">
        <ele>79.2</ele>
        <time>2021-04-15T12:48:14Z</time>
      </trkpt>
      <trkpt lat="43.56366" lon="3.7077">
        <ele>74</ele>
        <time>2021-04-15T12:48:14Z</time>
      </trkpt>
      <trkpt lat="43.56367" lon="3.70769">
        <ele>79.1</ele>
        <time>2021-04-15T12:48:16Z</time>
      </trkpt>
      <trkpt lat="43.56367" lon="3.70769">
        <ele>74</ele>
        <time>2021-04-15T12:48:16Z</time>
      </trkpt>
      <trkpt lat="43.56369" lon="3.70769">
        <ele>79.1</ele>
        <time>2021-04-15T12:48:17Z</time>
      </trkpt>
      <trkpt lat="43.56369" lon="3.70769">
        <ele>74</ele>
        <time>2021-04-15T12:48:17Z</time>
      </trkpt>
      <trkpt lat="43.5637" lon="3.70769">
        <ele>79.1</ele>
        <time>2021-04-15T12:48:18Z</time>
      </trkpt>
      <trkpt lat="43.5637" lon="3.70769">
        <ele>74</ele>
        <time>2021-04-15T12:48:18Z</time>
      </trkpt>
      <trkpt lat="43.56371" lon="3.70769">
        <ele>79.1</ele>
        <time>2021-04-15T12:48:20Z</time>
      </trkpt>
      <trkpt lat="43.56371" lon="3.70769">
        <ele>74</ele>
        <time>2021-04-15T12:48:20Z</time>
      </trkpt>
      <trkpt lat="43.56372" lon="3.70769">
        <ele>79.1</ele>
        <time>2021-04-15T12:48:21Z</time>
      </trkpt>
      <trkpt lat="43.56372" lon="3.70769">
        <ele>74</ele>
        <time>2021-04-15T12:48:21Z</time>
      </trkpt>
      <trkpt lat="43.56373" lon="3.70768">
        <ele>79.1</ele>
        <time>2021-04-15T12:48:23Z</time>
      </trkpt>
      <trkpt lat="43.56373" lon="3.70768">
        <ele>74</ele>
        <time>2021-04-15T12:48:23Z</time>
      </trkpt>
      <trkpt lat="43.56375" lon="3.70768">
        <ele>79</ele>
        <time>2021-04-15T12:48:25Z</time>
      </trkpt>
      <trkpt lat="43.56375" lon="3.70768">
        <ele>74</ele>
        <time>2021-04-15T12:48:25Z</time>
      </trkpt>
      <trkpt lat="43.56376" lon="3.70767">
        <ele>79</ele>
        <time>2021-04-15T12:48:27Z</time>
      </trkpt>
      <trkpt lat="43.56376" lon="3.70767">
        <ele>74</ele>
        <time>2021-04-15T12:48:27Z</time>
      </trkpt>
      <trkpt lat="43.56377" lon="3.70767">
        <ele>79</ele>
        <time>2021-04-15T12:48:29Z</time>
      </trkpt>
      <trkpt lat="43.56377" lon="3.70767">
        <ele>74</ele>
        <time>2021-04-15T12:48:29Z</time>
      </trkpt>
      <trkpt lat="43.56384" lon="3.70765">
        <ele>79</ele>
        <time>2021-04-15T12:48:39Z</time>
      </trkpt>
      <trkpt lat="43.56384" lon="3.70765">
        <ele>74</ele>
        <time>2021-04-15T12:48:39Z</time>
      </trkpt>
      <trkpt lat="43.56384" lon="3.70765">
        <ele>79</ele>
        <time>2021-04-15T12:48:40Z</time>
      </trkpt>
      <trkpt lat="43.56384" lon="3.70765">
        <ele>74</ele>
        <time>2021-04-15T12:48:40Z</time>
      </trkpt>
      <trkpt lat="43.56384" lon="3.70765">
        <ele>79</ele>
        <time>2021-04-15T12:48:42Z</time>
      </trkpt>
      <trkpt lat="43.56384" lon="3.70765">
        <ele>74</ele>
        <time>2021-04-15T12:48:42Z</time>
      </trkpt>
      <trkpt lat="43.56384" lon="3.70764">
        <ele>79</ele>
        <time>2021-04-15T12:48:44Z</time>
      </trkpt>
      <trkpt lat="43.56384" lon="3.70764">
        <ele>74</ele>
        <time>2021-04-15T12:48:44Z</time>
      </trkpt>
      <trkpt lat="43.56386" lon="3.70764">
        <ele>79.1</ele>
        <time>2021-04-15T12:48:46Z</time>
      </trkpt>
      <trkpt lat="43.56386" lon="3.70764">
        <ele>74</ele>
        <time>2021-04-15T12:48:46Z</time>
      </trkpt>
      <trkpt lat="43.56387" lon="3.70763">
        <ele>79.1</ele>
        <time>2021-04-15T12:48:47Z</time>
      </trkpt>
      <trkpt lat="43.56387" lon="3.70763">
        <ele>74</ele>
        <time>2021-04-15T12:48:47Z</time>
      </trkpt>
      <trkpt lat="43.56389" lon="3.70762">
        <ele>79.1</ele>
        <time>2021-04-15T12:48:49Z</time>
      </trkpt>
      <trkpt lat="43.56389" lon="3.70762">
        <ele>74</ele>
        <time>2021-04-15T12:48:49Z</time>
      </trkpt>
      <trkpt lat="43.5639" lon="3.70762">
        <ele>79.2</ele>
        <time>2021-04-15T12:48:50Z</time>
      </trkpt>
      <trkpt lat="43.5639" lon="3.70762">
        <ele>74</ele>
        <time>2021-04-15T12:48:50Z</time>
      </trkpt>
      <trkpt lat="43.56392" lon="3.70761">
        <ele>79.2</ele>
        <time>2021-04-15T12:48:51Z</time>
      </trkpt>
      <trkpt lat="43.56392" lon="3.70761">
        <ele>75</ele>
        <time>2021-04-15T12:48:51Z</time>
      </trkpt>
      <trkpt lat="43.56393" lon="3.70761">
        <ele>79.2</ele>
        <time>2021-04-15T12:48:52Z</time>
      </trkpt>
      <trkpt lat="43.56393" lon="3.70761">
        <ele>75</ele>
        <time>2021-04-15T12:48:52Z</time>
      </trkpt>
      <trkpt lat="43.56394" lon="3.70761">
        <ele>79.2</ele>
        <time>2021-04-15T12:48:53Z</time>
      </trkpt>
      <trkpt lat="43.56394" lon="3.70761">
        <ele>75</ele>
        <time>2021-04-15T12:48:53Z</time>
      </trkpt>
      <trkpt lat="43.56396" lon="3.70761">
        <ele>79.2</ele>
        <time>2021-04-15T12:48:55Z</time>
      </trkpt>
      <trkpt lat="43.56396" lon="3.70761">
        <ele>75</ele>
        <time>2021-04-15T12:48:55Z</time>
      </trkpt>
      <trkpt lat="43.56398" lon="3.7076">
        <ele>79.3</ele>
        <time>2021-04-15T12:48:57Z</time>
      </trkpt>
      <trkpt lat="43.56398" lon="3.7076">
        <ele>75</ele>
        <time>2021-04-15T12:48:57Z</time>
      </trkpt>
      <trkpt lat="43.56401" lon="3.7076">
        <ele>79.3</ele>
        <time>2021-04-15T12:48:59Z</time>
      </trkpt>
      <trkpt lat="43.56401" lon="3.7076">
        <ele>75</ele>
        <time>2021-04-15T12:48:59Z</time>
      </trkpt>
      <trkpt lat="43.56403" lon="3.7076">
        <ele>79.3</ele>
        <time>2021-04-15T12:49:00Z</time>
      </trkpt>
      <trkpt lat="43.56403" lon="3.7076">
        <ele>75</ele>
        <time>2021-04-15T12:49:00Z</time>
      </trkpt>
      <trkpt lat="43.56404" lon="3.70759">
        <ele>79.3</ele>
        <time>2021-04-15T12:49:02Z</time>
      </trkpt>
      <trkpt lat="43.56404" lon="3.70759">
        <ele>75</ele>
        <time>2021-04-15T12:49:02Z</time>
      </trkpt>
      <trkpt lat="43.56406" lon="3.70759">
        <ele>79.4</ele>
        <time>2021-04-15T12:49:03Z</time>
      </trkpt>
      <trkpt lat="43.56406" lon="3.70759">
        <ele>75</ele>
        <time>2021-04-15T12:49:03Z</time>
      </trkpt>
      <trkpt lat="43.56408" lon="3.70758">
        <ele>79.4</ele>
        <time>2021-04-15T12:49:05Z</time>
      </trkpt>
      <trkpt lat="43.56408" lon="3.70758">
        <ele>75</ele>
        <time>2021-04-15T12:49:05Z</time>
      </trkpt>
      <trkpt lat="43.56411" lon="3.70758">
        <ele>79.5</ele>
        <time>2021-04-15T12:49:07Z</time>
      </trkpt>
      <trkpt lat="43.56411" lon="3.70758">
        <ele>75</ele>
        <time>2021-04-15T12:49:07Z</time>
      </trkpt>
      <trkpt lat="43.56413" lon="3.70757">
        <ele>79.5</ele>
        <time>2021-04-15T12:49:08Z</time>
      </trkpt>
      <trkpt lat="43.56413" lon="3.70757">
        <ele>75</ele>
        <time>2021-04-15T12:49:08Z</time>
      </trkpt>
      <trkpt lat="43.56415" lon="3.70757">
        <ele>79.5</ele>
        <time>2021-04-15T12:49:10Z</time>
      </trkpt>
      <trkpt lat="43.56415" lon="3.70757">
        <ele>75</ele>
        <time>2021-04-15T12:49:10Z</time>
      </trkpt>
      <trkpt lat="43.56417" lon="3.70756">
        <ele>79.6</ele>
        <time>2021-04-15T12:49:11Z</time>
      </trkpt>
      <trkpt lat="43.56417" lon="3.70756">
        <ele>75</ele>
        <time>2021-04-15T12:49:11Z</time>
      </trkpt>
      <trkpt lat="43.56419" lon="3.70755">
        <ele>79.6</ele>
        <time>2021-04-15T12:49:13Z</time>
      </trkpt>
      <trkpt lat="43.56419" lon="3.70755">
        <ele>75</ele>
        <time>2021-04-15T12:49:13Z</time>
      </trkpt>
      <trkpt lat="43.56421" lon="3.70755">
        <ele>79.7</ele>
        <time>2021-04-15T12:49:15Z</time>
      </trkpt>
      <trkpt lat="43.56421" lon="3.70755">
        <ele>75</ele>
        <time>2021-04-15T12:49:15Z</time>
      </trkpt>
      <trkpt lat="43.56423" lon="3.70753">
        <ele>79.8</ele>
        <time>2021-04-15T12:49:17Z</time>
      </trkpt>
      <trkpt lat="43.56423" lon="3.70753">
        <ele>75</ele>
        <time>2021-04-15T12:49:17Z</time>
      </trkpt>
      <trkpt lat="43.56426" lon="3.70753">
        <ele>79.8</ele>
        <time>2021-04-15T12:49:18Z</time>
      </trkpt>
      <trkpt lat="43.56426" lon="3.70753">
        <ele>75</ele>
        <time>2021-04-15T12:49:18Z</time>
      </trkpt>
      <trkpt lat="43.56428" lon="3.70752">
        <ele>79.9</ele>
        <time>2021-04-15T12:49:20Z</time>
      </trkpt>
      <trkpt lat="43.56428" lon="3.70752">
        <ele>75</ele>
        <time>2021-04-15T12:49:20Z</time>
      </trkpt>
      <trkpt lat="43.56434" lon="3.70751">
        <ele>80</ele>
        <time>2021-04-15T12:49:23Z</time>
      </trkpt>
      <trkpt lat="43.56434" lon="3.70751">
        <ele>75</ele>
        <time>2021-04-15T12:49:23Z</time>
      </trkpt>
      <trkpt lat="43.56434" lon="3.7075">
        <ele>80</ele>
        <time>2021-04-15T12:49:25Z</time>
      </trkpt>
      <trkpt lat="43.56434" lon="3.7075">
        <ele>75</ele>
        <time>2021-04-15T12:49:25Z</time>
      </trkpt>
      <trkpt lat="43.56435" lon="3.7075">
        <ele>80</ele>
        <time>2021-04-15T12:49:27Z</time>
      </trkpt>
      <trkpt lat="43.56435" lon="3.7075">
        <ele>75</ele>
        <time>2021-04-15T12:49:27Z</time>
      </trkpt>
      <trkpt lat="43.56437" lon="3.70749">
        <ele>80</ele>
        <time>2021-04-15T12:49:29Z</time>
      </trkpt>
      <trkpt lat="43.56437" lon="3.70749">
        <ele>75</ele>
        <time>2021-04-15T12:49:29Z</time>
      </trkpt>
      <trkpt lat="43.56439" lon="3.70749">
        <ele>80</ele>
        <time>2021-04-15T12:49:31Z</time>
      </trkpt>
      <trkpt lat="43.56439" lon="3.70749">
        <ele>76</ele>
        <time>2021-04-15T12:49:31Z</time>
      </trkpt>
      <trkpt lat="43.56442" lon="3.70749">
        <ele>80.1</ele>
        <time>2021-04-15T12:49:33Z</time>
      </trkpt>
      <trkpt lat="43.56442" lon="3.70749">
        <ele>76</ele>
        <time>2021-04-15T12:49:33Z</time>
      </trkpt>
      <trkpt lat="43.56444" lon="3.70748">
        <ele>80.1</ele>
        <time>2021-04-15T12:49:34Z</time>
      </trkpt>
      <trkpt lat="43.56444" lon="3.70748">
        <ele>76</ele>
        <time>2021-04-15T12:49:34Z</time>
      </trkpt>
      <trkpt lat="43.56446" lon="3.70748">
        <ele>80.1</ele>
        <time>2021-04-15T12:49:36Z</time>
      </trkpt>
      <trkpt lat="43.56446" lon="3.70748">
        <ele>76</ele>
        <time>2021-04-15T12:49:36Z</time>
      </trkpt>
      <trkpt lat="43.56448" lon="3.70748">
        <ele>80.1</ele>
        <time>2021-04-15T12:49:38Z</time>
      </trkpt>
      <trkpt lat="43.56448" lon="3.70748">
        <ele>76</ele>
        <time>2021-04-15T12:49:38Z</time>
      </trkpt>
      <trkpt lat="43.5645" lon="3.70747">
        <ele>80.1</ele>
        <time>2021-04-15T12:49:40Z</time>
      </trkpt>
      <trkpt lat="43.5645" lon="3.70747">
        <ele>76</ele>
        <time>2021-04-15T12:49:40Z</time>
      </trkpt>
      <trkpt lat="43.56452" lon="3.70747">
        <ele>80.1</ele>
        <time>2021-04-15T12:49:42Z</time>
      </trkpt>
      <trkpt lat="43.56452" lon="3.70747">
        <ele>76</ele>
        <time>2021-04-15T12:49:42Z</time>
      </trkpt>
      <trkpt lat="43.56454" lon="3.70747">
        <ele>80.1</ele>
        <time>2021-04-15T12:49:43Z</time>
      </trkpt>
      <trkpt lat="43.56454" lon="3.70747">
        <ele>76</ele>
        <time>2021-04-15T12:49:43Z</time>
      </trkpt>
      <trkpt lat="43.56456" lon="3.70747">
        <ele>80.2</ele>
        <time>2021-04-15T12:49:44Z</time>
      </trkpt>
      <trkpt lat="43.56456" lon="3.70747">
        <ele>76</ele>
        <time>2021-04-15T12:49:44Z</time>
      </trkpt>
      <trkpt lat="43.56457" lon="3.70745">
        <ele>80.2</ele>
        <time>2021-04-15T12:49:46Z</time>
      </trkpt>
      <trkpt lat="43.56457" lon="3.70745">
        <ele>76</ele>
        <time>2021-04-15T12:49:46Z</time>
      </trkpt>
      <trkpt lat="43.56459" lon="3.70744">
        <ele>80.3</ele>
        <time>2021-04-15T12:49:47Z</time>
      </trkpt>
      <trkpt lat="43.56459" lon="3.70744">
        <ele>76</ele>
        <time>2021-04-15T12:49:47Z</time>
      </trkpt>
      <trkpt lat="43.5646" lon="3.70744">
        <ele>80.4</ele>
        <time>2021-04-15T12:49:48Z</time>
      </trkpt>
      <trkpt lat="43.5646" lon="3.70744">
        <ele>76</ele>
        <time>2021-04-15T12:49:48Z</time>
      </trkpt>
      <trkpt lat="43.56462" lon="3.70743">
        <ele>80.4</ele>
        <time>2021-04-15T12:49:50Z</time>
      </trkpt>
      <trkpt lat="43.56462" lon="3.70743">
        <ele>76</ele>
        <time>2021-04-15T12:49:50Z</time>
      </trkpt>
      <trkpt lat="43.56464" lon="3.70742">
        <ele>80.5</ele>
        <time>2021-04-15T12:49:52Z</time>
      </trkpt>
      <trkpt lat="43.56464" lon="3.70742">
        <ele>76</ele>
        <time>2021-04-15T12:49:52Z</time>
      </trkpt>
      <trkpt lat="43.56466" lon="3.70741">
        <ele>80.6</ele>
        <time>2021-04-15T12:49:54Z</time>
      </trkpt>
      <trkpt lat="43.56466" lon="3.70741">
        <ele>76</ele>
        <time>2021-04-15T12:49:54Z</time>
      </trkpt>
      <trkpt lat="43.56469" lon="3.7074">
        <ele>80.7</ele>
        <time>2021-04-15T12:49:55Z</time>
      </trkpt>
      <trkpt lat="43.56469" lon="3.7074">
        <ele>76</ele>
        <time>2021-04-15T12:49:55Z</time>
      </trkpt>
      <trkpt lat="43.56471" lon="3.7074">
        <ele>80.7</ele>
        <time>2021-04-15T12:49:56Z</time>
      </trkpt>
      <trkpt lat="43.56471" lon="3.7074">
        <ele>76</ele>
        <time>2021-04-15T12:49:56Z</time>
      </trkpt>
      <trkpt lat="43.56472" lon="3.70739">
        <ele>80.8</ele>
        <time>2021-04-15T12:49:57Z</time>
      </trkpt>
      <trkpt lat="43.56472" lon="3.70739">
        <ele>76</ele>
        <time>2021-04-15T12:49:57Z</time>
      </trkpt>
      <trkpt lat="43.56474" lon="3.70739">
        <ele>80.8</ele>
        <time>2021-04-15T12:49:58Z</time>
      </trkpt>
      <trkpt lat="43.56474" lon="3.70739">
        <ele>76</ele>
        <time>2021-04-15T12:49:58Z</time>
      </trkpt>
      <trkpt lat="43.56475" lon="3.70738">
        <ele>80.8</ele>
        <time>2021-04-15T12:50:00Z</time>
      </trkpt>
      <trkpt lat="43.56475" lon="3.70738">
        <ele>76</ele>
        <time>2021-04-15T12:50:00Z</time>
      </trkpt>
      <trkpt lat="43.56477" lon="3.70738">
        <ele>80.8</ele>
        <time>2021-04-15T12:50:01Z</time>
      </trkpt>
      <trkpt lat="43.56477" lon="3.70738">
        <ele>76</ele>
        <time>2021-04-15T12:50:01Z</time>
      </trkpt>
      <trkpt lat="43.56479" lon="3.70737">
        <ele>80.8</ele>
        <time>2021-04-15T12:50:03Z</time>
      </trkpt>
      <trkpt lat="43.56479" lon="3.70737">
        <ele>76</ele>
        <time>2021-04-15T12:50:03Z</time>
      </trkpt>
      <trkpt lat="43.5648" lon="3.70737">
        <ele>80.8</ele>
        <time>2021-04-15T12:50:04Z</time>
      </trkpt>
      <trkpt lat="43.5648" lon="3.70737">
        <ele>76</ele>
        <time>2021-04-15T12:50:04Z</time>
      </trkpt>
      <trkpt lat="43.56482" lon="3.70737">
        <ele>80.8</ele>
        <time>2021-04-15T12:50:06Z</time>
      </trkpt>
      <trkpt lat="43.56482" lon="3.70737">
        <ele>76</ele>
        <time>2021-04-15T12:50:06Z</time>
      </trkpt>
      <trkpt lat="43.56484" lon="3.70737">
        <ele>80.7</ele>
        <time>2021-04-15T12:50:08Z</time>
      </trkpt>
      <trkpt lat="43.56484" lon="3.70737">
        <ele>76</ele>
        <time>2021-04-15T12:50:08Z</time>
      </trkpt>
      <trkpt lat="43.56489" lon="3.70737">
        <ele>80.7</ele>
        <time>2021-04-15T12:50:11Z</time>
      </trkpt>
      <trkpt lat="43.56489" lon="3.70737">
        <ele>76</ele>
        <time>2021-04-15T12:50:11Z</time>
      </trkpt>
      <trkpt lat="43.56489" lon="3.70737">
        <ele>80.7</ele>
        <time>2021-04-15T12:50:12Z</time>
      </trkpt>
      <trkpt lat="43.56489" lon="3.70737">
        <ele>77</ele>
        <time>2021-04-15T12:50:12Z</time>
      </trkpt>
      <trkpt lat="43.56489" lon="3.70737">
        <ele>80.7</ele>
        <time>2021-04-15T12:50:14Z</time>
      </trkpt>
      <trkpt lat="43.56489" lon="3.70737">
        <ele>77</ele>
        <time>2021-04-15T12:50:14Z</time>
      </trkpt>
      <trkpt lat="43.5649" lon="3.70737">
        <ele>80.7</ele>
        <time>2021-04-15T12:50:15Z</time>
      </trkpt>
      <trkpt lat="43.5649" lon="3.70737">
        <ele>77</ele>
        <time>2021-04-15T12:50:15Z</time>
      </trkpt>
      <trkpt lat="43.5649" lon="3.70737">
        <ele>80.6</ele>
        <time>2021-04-15T12:50:16Z</time>
      </trkpt>
      <trkpt lat="43.5649" lon="3.70737">
        <ele>77</ele>
        <time>2021-04-15T12:50:16Z</time>
      </trkpt>
      <trkpt lat="43.56491" lon="3.70737">
        <ele>80.6</ele>
        <time>2021-04-15T12:50:18Z</time>
      </trkpt>
      <trkpt lat="43.56491" lon="3.70737">
        <ele>77</ele>
        <time>2021-04-15T12:50:18Z</time>
      </trkpt>
      <trkpt lat="43.56493" lon="3.70738">
        <ele>80.5</ele>
        <time>2021-04-15T12:50:20Z</time>
      </trkpt>
      <trkpt lat="43.56493" lon="3.70738">
        <ele>77</ele>
        <time>2021-04-15T12:50:20Z</time>
      </trkpt>
      <trkpt lat="43.56494" lon="3.70739">
        <ele>80.5</ele>
        <time>2021-04-15T12:50:21Z</time>
      </trkpt>
      <trkpt lat="43.56494" lon="3.70739">
        <ele>77</ele>
        <time>2021-04-15T12:50:21Z</time>
      </trkpt>
      <trkpt lat="43.56494" lon="3.70739">
        <ele>80.5</ele>
        <time>2021-04-15T12:50:22Z</time>
      </trkpt>
      <trkpt lat="43.56494" lon="3.70739">
        <ele>77</ele>
        <time>2021-04-15T12:50:22Z</time>
      </trkpt>
      <trkpt lat="43.56496" lon="3.7074">
        <ele>80.4</ele>
        <time>2021-04-15T12:50:24Z</time>
      </trkpt>
      <trkpt lat="43.56496" lon="3.7074">
        <ele>77</ele>
        <time>2021-04-15T12:50:24Z</time>
      </trkpt>
      <trkpt lat="43.56497" lon="3.7074">
        <ele>80.4</ele>
        <time>2021-04-15T12:50:25Z</time>
      </trkpt>
      <trkpt lat="43.56497" lon="3.7074">
        <ele>77</ele>
        <time>2021-04-15T12:50:25Z</time>
      </trkpt>
      <trkpt lat="43.56499" lon="3.70741">
        <ele>80.3</ele>
        <time>2021-04-15T12:50:27Z</time>
      </trkpt>
      <trkpt lat="43.56499" lon="3.70741">
        <ele>77</ele>
        <time>2021-04-15T12:50:27Z</time>
      </trkpt>
      <trkpt lat="43.56501" lon="3.70741">
        <ele>80.3</ele>
        <time>2021-04-15T12:50:29Z</time>
      </trkpt>
      <trkpt lat="43.56501" lon="3.70741">
        <ele>77</ele>
        <time>2021-04-15T12:50:29Z</time>
      </trkpt>
      <trkpt lat="43.56503" lon="3.70742">
        <ele>80.2</ele>
        <time>2021-04-15T12:50:30Z</time>
      </trkpt>
      <trkpt lat="43.56503" lon="3.70742">
        <ele>77</ele>
        <time>2021-04-15T12:50:30Z</time>
      </trkpt>
      <trkpt lat="43.56504" lon="3.70741">
        <ele>80.2</ele>
        <time>2021-04-15T12:50:31Z</time>
      </trkpt>
      <trkpt lat="43.56504" lon="3.70741">
        <ele>77</ele>
        <time>2021-04-15T12:50:31Z</time>
      </trkpt>
      <trkpt lat="43.56506" lon="3.70741">
        <ele>80.1</ele>
        <time>2021-04-15T12:50:33Z</time>
      </trkpt>
      <trkpt lat="43.56506" lon="3.70741">
        <ele>77</ele>
        <time>2021-04-15T12:50:33Z</time>
      </trkpt>
      <trkpt lat="43.56509" lon="3.70741">
        <ele>80</ele>
        <time>2021-04-15T12:50:35Z</time>
      </trkpt>
      <trkpt lat="43.56509" lon="3.70741">
        <ele>77</ele>
        <time>2021-04-15T12:50:35Z</time>
      </trkpt>
      <trkpt lat="43.56511" lon="3.70741">
        <ele>79.9</ele>
        <time>2021-04-15T12:50:36Z</time>
      </trkpt>
      <trkpt lat="43.56511" lon="3.70741">
        <ele>77</ele>
        <time>2021-04-15T12:50:36Z</time>
      </trkpt>
      <trkpt lat="43.56512" lon="3.70741">
        <ele>79.9</ele>
        <time>2021-04-15T12:50:37Z</time>
      </trkpt>
      <trkpt lat="43.56512" lon="3.70741">
        <ele>77</ele>
        <time>2021-04-15T12:50:37Z</time>
      </trkpt>
      <trkpt lat="43.56514" lon="3.7074">
        <ele>79.9</ele>
        <time>2021-04-15T12:50:39Z</time>
      </trkpt>
      <trkpt lat="43.56514" lon="3.7074">
        <ele>77</ele>
        <time>2021-04-15T12:50:39Z</time>
      </trkpt>
      <trkpt lat="43.56515" lon="3.70739">
        <ele>79.8</ele>
        <time>2021-04-15T12:50:40Z</time>
      </trkpt>
      <trkpt lat="43.56515" lon="3.70739">
        <ele>77</ele>
        <time>2021-04-15T12:50:40Z</time>
      </trkpt>
      <trkpt lat="43.56517" lon="3.70738">
        <ele>79.8</ele>
        <time>2021-04-15T12:50:41Z</time>
      </trkpt>
      <trkpt lat="43.56517" lon="3.70738">
        <ele>77</ele>
        <time>2021-04-15T12:50:41Z</time>
      </trkpt>
      <trkpt lat="43.56518" lon="3.70737">
        <ele>79.8</ele>
        <time>2021-04-15T12:50:43Z</time>
      </trkpt>
      <trkpt lat="43.56518" lon="3.70737">
        <ele>77</ele>
        <time>2021-04-15T12:50:43Z</time>
      </trkpt>
      <trkpt lat="43.56519" lon="3.70736">
        <ele>79.8</ele>
        <time>2021-04-15T12:50:45Z</time>
      </trkpt>
      <trkpt lat="43.56519" lon="3.70736">
        <ele>77</ele>
        <time>2021-04-15T12:50:45Z</time>
      </trkpt>
      <trkpt lat="43.56521" lon="3.70734">
        <ele>79.8</ele>
        <time>2021-04-15T12:50:47Z</time>
      </trkpt>
      <trkpt lat="43.56521" lon="3.70734">
        <ele>77</ele>
        <time>2021-04-15T12:50:47Z</time>
      </trkpt>
      <trkpt lat="43.56523" lon="3.70732">
        <ele>79.8</ele>
        <time>2021-04-15T12:50:48Z</time>
      </trkpt>
      <trkpt lat="43.56523" lon="3.70732">
        <ele>77</ele>
        <time>2021-04-15T12:50:48Z</time>
      </trkpt>
      <trkpt lat="43.56524" lon="3.7073">
        <ele>79.9</ele>
        <time>2021-04-15T12:50:50Z</time>
      </trkpt>
      <trkpt lat="43.56524" lon="3.7073">
        <ele>77</ele>
        <time>2021-04-15T12:50:50Z</time>
      </trkpt>
      <trkpt lat="43.56525" lon="3.70728">
        <ele>79.9</ele>
        <time>2021-04-15T12:50:51Z</time>
      </trkpt>
      <trkpt lat="43.56525" lon="3.70728">
        <ele>77</ele>
        <time>2021-04-15T12:50:51Z</time>
      </trkpt>
      <trkpt lat="43.56526" lon="3.70725">
        <ele>80</ele>
        <time>2021-04-15T12:50:53Z</time>
      </trkpt>
      <trkpt lat="43.56526" lon="3.70725">
        <ele>77</ele>
        <time>2021-04-15T12:50:53Z</time>
      </trkpt>
      <trkpt lat="43.56528" lon="3.70722">
        <ele>80</ele>
        <time>2021-04-15T12:50:55Z</time>
      </trkpt>
      <trkpt lat="43.56528" lon="3.70722">
        <ele>77</ele>
        <time>2021-04-15T12:50:55Z</time>
      </trkpt>
      <trkpt lat="43.56529" lon="3.70719">
        <ele>79.9</ele>
        <time>2021-04-15T12:50:57Z</time>
      </trkpt>
      <trkpt lat="43.56529" lon="3.70719">
        <ele>76</ele>
        <time>2021-04-15T12:50:57Z</time>
      </trkpt>
      <trkpt lat="43.5653" lon="3.70717">
        <ele>79.8</ele>
        <time>2021-04-15T12:50:58Z</time>
      </trkpt>
      <trkpt lat="43.5653" lon="3.70717">
        <ele>76</ele>
        <time>2021-04-15T12:50:58Z</time>
      </trkpt>
      <trkpt lat="43.56531" lon="3.70714">
        <ele>79.7</ele>
        <time>2021-04-15T12:51:00Z</time>
      </trkpt>
      <trkpt lat="43.56531" lon="3.70714">
        <ele>76</ele>
        <time>2021-04-15T12:51:00Z</time>
      </trkpt>
      <trkpt lat="43.56531" lon="3.70713">
        <ele>79.6</ele>
        <time>2021-04-15T12:51:01Z</time>
      </trkpt>
      <trkpt lat="43.56531" lon="3.70713">
        <ele>76</ele>
        <time>2021-04-15T12:51:01Z</time>
      </trkpt>
      <trkpt lat="43.56532" lon="3.70711">
        <ele>79.5</ele>
        <time>2021-04-15T12:51:03Z</time>
      </trkpt>
      <trkpt lat="43.56532" lon="3.70711">
        <ele>76</ele>
        <time>2021-04-15T12:51:03Z</time>
      </trkpt>
      <trkpt lat="43.56533" lon="3.70709">
        <ele>79.4</ele>
        <time>2021-04-15T12:51:05Z</time>
      </trkpt>
      <trkpt lat="43.56533" lon="3.70709">
        <ele>76</ele>
        <time>2021-04-15T12:51:05Z</time>
      </trkpt>
      <trkpt lat="43.56533" lon="3.70707">
        <ele>79.4</ele>
        <time>2021-04-15T12:51:06Z</time>
      </trkpt>
      <trkpt lat="43.56533" lon="3.70707">
        <ele>76</ele>
        <time>2021-04-15T12:51:06Z</time>
      </trkpt>
      <trkpt lat="43.56534" lon="3.70706">
        <ele>79.3</ele>
        <time>2021-04-15T12:51:08Z</time>
      </trkpt>
      <trkpt lat="43.56534" lon="3.70706">
        <ele>76</ele>
        <time>2021-04-15T12:51:08Z</time>
      </trkpt>
      <trkpt lat="43.56534" lon="3.70705">
        <ele>79.2</ele>
        <time>2021-04-15T12:51:10Z</time>
      </trkpt>
      <trkpt lat="43.56534" lon="3.70705">
        <ele>76</ele>
        <time>2021-04-15T12:51:10Z</time>
      </trkpt>
      <trkpt lat="43.56541" lon="3.70695">
        <ele>78.2</ele>
        <time>2021-04-15T12:51:24Z</time>
      </trkpt>
      <trkpt lat="43.56541" lon="3.70695">
        <ele>76</ele>
        <time>2021-04-15T12:51:24Z</time>
      </trkpt>
      <trkpt lat="43.56541" lon="3.70695">
        <ele>78.2</ele>
        <time>2021-04-15T12:51:26Z</time>
      </trkpt>
      <trkpt lat="43.56541" lon="3.70695">
        <ele>74</ele>
        <time>2021-04-15T12:51:26Z</time>
      </trkpt>
      <trkpt lat="43.56541" lon="3.70694">
        <ele>78.2</ele>
        <time>2021-04-15T12:51:27Z</time>
      </trkpt>
      <trkpt lat="43.56541" lon="3.70694">
        <ele>74</ele>
        <time>2021-04-15T12:51:27Z</time>
      </trkpt>
      <trkpt lat="43.56542" lon="3.70692">
        <ele>78.1</ele>
        <time>2021-04-15T12:51:29Z</time>
      </trkpt>
      <trkpt lat="43.56542" lon="3.70692">
        <ele>74</ele>
        <time>2021-04-15T12:51:29Z</time>
      </trkpt>
      <trkpt lat="43.56542" lon="3.7069">
        <ele>78.1</ele>
        <time>2021-04-15T12:51:30Z</time>
      </trkpt>
      <trkpt lat="43.56542" lon="3.7069">
        <ele>74</ele>
        <time>2021-04-15T12:51:30Z</time>
      </trkpt>
      <trkpt lat="43.56543" lon="3.70688">
        <ele>78</ele>
        <time>2021-04-15T12:51:32Z</time>
      </trkpt>
      <trkpt lat="43.56543" lon="3.70688">
        <ele>74</ele>
        <time>2021-04-15T12:51:32Z</time>
      </trkpt>
      <trkpt lat="43.56544" lon="3.70686">
        <ele>77.9</ele>
        <time>2021-04-15T12:51:33Z</time>
      </trkpt>
      <trkpt lat="43.56544" lon="3.70686">
        <ele>74</ele>
        <time>2021-04-15T12:51:33Z</time>
      </trkpt>
      <trkpt lat="43.56545" lon="3.70684">
        <ele>77.9</ele>
        <time>2021-04-15T12:51:35Z</time>
      </trkpt>
      <trkpt lat="43.56545" lon="3.70684">
        <ele>74</ele>
        <time>2021-04-15T12:51:35Z</time>
      </trkpt>
      <trkpt lat="43.56546" lon="3.70682">
        <ele>77.8</ele>
        <time>2021-04-15T12:51:36Z</time>
      </trkpt>
      <trkpt lat="43.56546" lon="3.70682">
        <ele>74</ele>
        <time>2021-04-15T12:51:36Z</time>
      </trkpt>
      <trkpt lat="43.56547" lon="3.7068">
        <ele>77.8</ele>
        <time>2021-04-15T12:51:38Z</time>
      </trkpt>
      <trkpt lat="43.56547" lon="3.7068">
        <ele>74</ele>
        <time>2021-04-15T12:51:38Z</time>
      </trkpt>
      <trkpt lat="43.56548" lon="3.70678">
        <ele>77.7</ele>
        <time>2021-04-15T12:51:40Z</time>
      </trkpt>
      <trkpt lat="43.56548" lon="3.70678">
        <ele>74</ele>
        <time>2021-04-15T12:51:40Z</time>
      </trkpt>
      <trkpt lat="43.56549" lon="3.70676">
        <ele>77.7</ele>
        <time>2021-04-15T12:51:41Z</time>
      </trkpt>
      <trkpt lat="43.56549" lon="3.70676">
        <ele>74</ele>
        <time>2021-04-15T12:51:41Z</time>
      </trkpt>
      <trkpt lat="43.5655" lon="3.70674">
        <ele>77.6</ele>
        <time>2021-04-15T12:51:43Z</time>
      </trkpt>
      <trkpt lat="43.5655" lon="3.70674">
        <ele>74</ele>
        <time>2021-04-15T12:51:43Z</time>
      </trkpt>
      <trkpt lat="43.56551" lon="3.70672">
        <ele>77.5</ele>
        <time>2021-04-15T12:51:45Z</time>
      </trkpt>
      <trkpt lat="43.56551" lon="3.70672">
        <ele>74</ele>
        <time>2021-04-15T12:51:45Z</time>
      </trkpt>
      <trkpt lat="43.56552" lon="3.7067">
        <ele>77.4</ele>
        <time>2021-04-15T12:51:47Z</time>
      </trkpt>
      <trkpt lat="43.56552" lon="3.7067">
        <ele>74</ele>
        <time>2021-04-15T12:51:47Z</time>
      </trkpt>
      <trkpt lat="43.56554" lon="3.70668">
        <ele>77.2</ele>
        <time>2021-04-15T12:51:49Z</time>
      </trkpt>
      <trkpt lat="43.56554" lon="3.70668">
        <ele>72</ele>
        <time>2021-04-15T12:51:49Z</time>
      </trkpt>
      <trkpt lat="43.56556" lon="3.70667">
        <ele>77</ele>
        <time>2021-04-15T12:51:51Z</time>
      </trkpt>
      <trkpt lat="43.56556" lon="3.70667">
        <ele>72</ele>
        <time>2021-04-15T12:51:51Z</time>
      </trkpt>
      <trkpt lat="43.56558" lon="3.70665">
        <ele>76.9</ele>
        <time>2021-04-15T12:51:53Z</time>
      </trkpt>
      <trkpt lat="43.56558" lon="3.70665">
        <ele>72</ele>
        <time>2021-04-15T12:51:53Z</time>
      </trkpt>
      <trkpt lat="43.56559" lon="3.70663">
        <ele>76.8</ele>
        <time>2021-04-15T12:51:55Z</time>
      </trkpt>
      <trkpt lat="43.56559" lon="3.70663">
        <ele>72</ele>
        <time>2021-04-15T12:51:55Z</time>
      </trkpt>
      <trkpt lat="43.56561" lon="3.70662">
        <ele>76.7</ele>
        <time>2021-04-15T12:51:57Z</time>
      </trkpt>
      <trkpt lat="43.56561" lon="3.70662">
        <ele>72</ele>
        <time>2021-04-15T12:51:57Z</time>
      </trkpt>
      <trkpt lat="43.56563" lon="3.7066">
        <ele>76.6</ele>
        <time>2021-04-15T12:51:58Z</time>
      </trkpt>
      <trkpt lat="43.56563" lon="3.7066">
        <ele>72</ele>
        <time>2021-04-15T12:51:58Z</time>
      </trkpt>
      <trkpt lat="43.56565" lon="3.70659">
        <ele>76.4</ele>
        <time>2021-04-15T12:52:00Z</time>
      </trkpt>
      <trkpt lat="43.56565" lon="3.70659">
        <ele>72</ele>
        <time>2021-04-15T12:52:00Z</time>
      </trkpt>
      <trkpt lat="43.56567" lon="3.70658">
        <ele>76.2</ele>
        <time>2021-04-15T12:52:01Z</time>
      </trkpt>
      <trkpt lat="43.56567" lon="3.70658">
        <ele>72</ele>
        <time>2021-04-15T12:52:01Z</time>
      </trkpt>
      <trkpt lat="43.56569" lon="3.70657">
        <ele>76</ele>
        <time>2021-04-15T12:52:02Z</time>
      </trkpt>
      <trkpt lat="43.56569" lon="3.70657">
        <ele>72</ele>
        <time>2021-04-15T12:52:02Z</time>
      </trkpt>
      <trkpt lat="43.56571" lon="3.70655">
        <ele>75.8</ele>
        <time>2021-04-15T12:52:04Z</time>
      </trkpt>
      <trkpt lat="43.56571" lon="3.70655">
        <ele>72</ele>
        <time>2021-04-15T12:52:04Z</time>
      </trkpt>
      <trkpt lat="43.56573" lon="3.70654">
        <ele>75.6</ele>
        <time>2021-04-15T12:52:05Z</time>
      </trkpt>
      <trkpt lat="43.56573" lon="3.70654">
        <ele>71</ele>
        <time>2021-04-15T12:52:05Z</time>
      </trkpt>
      <trkpt lat="43.56574" lon="3.70653">
        <ele>75.4</ele>
        <time>2021-04-15T12:52:06Z</time>
      </trkpt>
      <trkpt lat="43.56574" lon="3.70653">
        <ele>71</ele>
        <time>2021-04-15T12:52:06Z</time>
      </trkpt>
      <trkpt lat="43.56576" lon="3.70653">
        <ele>75.2</ele>
        <time>2021-04-15T12:52:08Z</time>
      </trkpt>
      <trkpt lat="43.56576" lon="3.70653">
        <ele>71</ele>
        <time>2021-04-15T12:52:08Z</time>
      </trkpt>
      <trkpt lat="43.56577" lon="3.70652">
        <ele>75</ele>
        <time>2021-04-15T12:52:09Z</time>
      </trkpt>
      <trkpt lat="43.56577" lon="3.70652">
        <ele>71</ele>
        <time>2021-04-15T12:52:09Z</time>
      </trkpt>
      <trkpt lat="43.56579" lon="3.70651">
        <ele>74.9</ele>
        <time>2021-04-15T12:52:10Z</time>
      </trkpt>
      <trkpt lat="43.56579" lon="3.70651">
        <ele>71</ele>
        <time>2021-04-15T12:52:10Z</time>
      </trkpt>
      <trkpt lat="43.5658" lon="3.7065">
        <ele>74.7</ele>
        <time>2021-04-15T12:52:12Z</time>
      </trkpt>
      <trkpt lat="43.5658" lon="3.7065">
        <ele>71</ele>
        <time>2021-04-15T12:52:12Z</time>
      </trkpt>
      <trkpt lat="43.56582" lon="3.70649">
        <ele>74.5</ele>
        <time>2021-04-15T12:52:14Z</time>
      </trkpt>
      <trkpt lat="43.56582" lon="3.70649">
        <ele>71</ele>
        <time>2021-04-15T12:52:14Z</time>
      </trkpt>
      <trkpt lat="43.56583" lon="3.70648">
        <ele>74.3</ele>
        <time>2021-04-15T12:52:15Z</time>
      </trkpt>
      <trkpt lat="43.56583" lon="3.70648">
        <ele>71</ele>
        <time>2021-04-15T12:52:15Z</time>
      </trkpt>
      <trkpt lat="43.56585" lon="3.70647">
        <ele>74.4</ele>
        <time>2021-04-15T12:52:17Z</time>
      </trkpt>
      <trkpt lat="43.56585" lon="3.70647">
        <ele>71</ele>
        <time>2021-04-15T12:52:17Z</time>
      </trkpt>
      <trkpt lat="43.56587" lon="3.70647">
        <ele>74.4</ele>
        <time>2021-04-15T12:52:19Z</time>
      </trkpt>
      <trkpt lat="43.56587" lon="3.70647">
        <ele>71</ele>
        <time>2021-04-15T12:52:19Z</time>
      </trkpt>
      <trkpt lat="43.56589" lon="3.70646">
        <ele>74.4</ele>
        <time>2021-04-15T12:52:21Z</time>
      </trkpt>
      <trkpt lat="43.56589" lon="3.70646">
        <ele>71</ele>
        <time>2021-04-15T12:52:21Z</time>
      </trkpt>
      <trkpt lat="43.56591" lon="3.70645">
        <ele>74.4</ele>
        <time>2021-04-15T12:52:22Z</time>
      </trkpt>
      <trkpt lat="43.56591" lon="3.70645">
        <ele>71</ele>
        <time>2021-04-15T12:52:22Z</time>
      </trkpt>
      <trkpt lat="43.56593" lon="3.70644">
        <ele>74.4</ele>
        <time>2021-04-15T12:52:23Z</time>
      </trkpt>
      <trkpt lat="43.56593" lon="3.70644">
        <ele>69</ele>
        <time>2021-04-15T12:52:23Z</time>
      </trkpt>
      <trkpt lat="43.56594" lon="3.70644">
        <ele>74.4</ele>
        <time>2021-04-15T12:52:25Z</time>
      </trkpt>
      <trkpt lat="43.56594" lon="3.70644">
        <ele>69</ele>
        <time>2021-04-15T12:52:25Z</time>
      </trkpt>
      <trkpt lat="43.56596" lon="3.70643">
        <ele>74.4</ele>
        <time>2021-04-15T12:52:27Z</time>
      </trkpt>
      <trkpt lat="43.56596" lon="3.70643">
        <ele>69</ele>
        <time>2021-04-15T12:52:27Z</time>
      </trkpt>
      <trkpt lat="43.56598" lon="3.70643">
        <ele>74.4</ele>
        <time>2021-04-15T12:52:28Z</time>
      </trkpt>
      <trkpt lat="43.56598" lon="3.70643">
        <ele>69</ele>
        <time>2021-04-15T12:52:28Z</time>
      </trkpt>
      <trkpt lat="43.566" lon="3.70642">
        <ele>74.3</ele>
        <time>2021-04-15T12:52:30Z</time>
      </trkpt>
      <trkpt lat="43.566" lon="3.70642">
        <ele>69</ele>
        <time>2021-04-15T12:52:30Z</time>
      </trkpt>
      <trkpt lat="43.56601" lon="3.70641">
        <ele>74.3</ele>
        <time>2021-04-15T12:52:31Z</time>
      </trkpt>
      <trkpt lat="43.56601" lon="3.70641">
        <ele>69</ele>
        <time>2021-04-15T12:52:31Z</time>
      </trkpt>
      <trkpt lat="43.56603" lon="3.70641">
        <ele>74.3</ele>
        <time>2021-04-15T12:52:33Z</time>
      </trkpt>
      <trkpt lat="43.56603" lon="3.70641">
        <ele>69</ele>
        <time>2021-04-15T12:52:33Z</time>
      </trkpt>
      <trkpt lat="43.56605" lon="3.7064">
        <ele>74.2</ele>
        <time>2021-04-15T12:52:35Z</time>
      </trkpt>
      <trkpt lat="43.56605" lon="3.7064">
        <ele>69</ele>
        <time>2021-04-15T12:52:35Z</time>
      </trkpt>
      <trkpt lat="43.56607" lon="3.70639">
        <ele>74.2</ele>
        <time>2021-04-15T12:52:37Z</time>
      </trkpt>
      <trkpt lat="43.56607" lon="3.70639">
        <ele>69</ele>
        <time>2021-04-15T12:52:37Z</time>
      </trkpt>
      <trkpt lat="43.56608" lon="3.70638">
        <ele>74.1</ele>
        <time>2021-04-15T12:52:38Z</time>
      </trkpt>
      <trkpt lat="43.56608" lon="3.70638">
        <ele>69</ele>
        <time>2021-04-15T12:52:38Z</time>
      </trkpt>
      <trkpt lat="43.5661" lon="3.70638">
        <ele>74.1</ele>
        <time>2021-04-15T12:52:40Z</time>
      </trkpt>
      <trkpt lat="43.5661" lon="3.70638">
        <ele>69</ele>
        <time>2021-04-15T12:52:40Z</time>
      </trkpt>
      <trkpt lat="43.56612" lon="3.70636">
        <ele>74.1</ele>
        <time>2021-04-15T12:52:42Z</time>
      </trkpt>
      <trkpt lat="43.56612" lon="3.70636">
        <ele>69</ele>
        <time>2021-04-15T12:52:42Z</time>
      </trkpt>
      <trkpt lat="43.56614" lon="3.70635">
        <ele>74.1</ele>
        <time>2021-04-15T12:52:43Z</time>
      </trkpt>
      <trkpt lat="43.56614" lon="3.70635">
        <ele>69</ele>
        <time>2021-04-15T12:52:43Z</time>
      </trkpt>
      <trkpt lat="43.56615" lon="3.70635">
        <ele>74.2</ele>
        <time>2021-04-15T12:52:44Z</time>
      </trkpt>
      <trkpt lat="43.56615" lon="3.70635">
        <ele>69</ele>
        <time>2021-04-15T12:52:44Z</time>
      </trkpt>
      <trkpt lat="43.56617" lon="3.70634">
        <ele>74.2</ele>
        <time>2021-04-15T12:52:45Z</time>
      </trkpt>
      <trkpt lat="43.56617" lon="3.70634">
        <ele>69</ele>
        <time>2021-04-15T12:52:45Z</time>
      </trkpt>
      <trkpt lat="43.56618" lon="3.70633">
        <ele>74.3</ele>
        <time>2021-04-15T12:52:47Z</time>
      </trkpt>
      <trkpt lat="43.56618" lon="3.70633">
        <ele>69</ele>
        <time>2021-04-15T12:52:47Z</time>
      </trkpt>
      <trkpt lat="43.5662" lon="3.70632">
        <ele>74.3</ele>
        <time>2021-04-15T12:52:48Z</time>
      </trkpt>
      <trkpt lat="43.5662" lon="3.70632">
        <ele>69</ele>
        <time>2021-04-15T12:52:48Z</time>
      </trkpt>
      <trkpt lat="43.56621" lon="3.70632">
        <ele>74.4</ele>
        <time>2021-04-15T12:52:49Z</time>
      </trkpt>
      <trkpt lat="43.56621" lon="3.70632">
        <ele>69</ele>
        <time>2021-04-15T12:52:49Z</time>
      </trkpt>
      <trkpt lat="43.56623" lon="3.70631">
        <ele>74.4</ele>
        <time>2021-04-15T12:52:51Z</time>
      </trkpt>
      <trkpt lat="43.56623" lon="3.70631">
        <ele>69</ele>
        <time>2021-04-15T12:52:51Z</time>
      </trkpt>
      <trkpt lat="43.56625" lon="3.7063">
        <ele>74.5</ele>
        <time>2021-04-15T12:52:53Z</time>
      </trkpt>
      <trkpt lat="43.56625" lon="3.7063">
        <ele>69</ele>
        <time>2021-04-15T12:52:53Z</time>
      </trkpt>
      <trkpt lat="43.56627" lon="3.70628">
        <ele>74.6</ele>
        <time>2021-04-15T12:52:55Z</time>
      </trkpt>
      <trkpt lat="43.56627" lon="3.70628">
        <ele>69</ele>
        <time>2021-04-15T12:52:55Z</time>
      </trkpt>
      <trkpt lat="43.56629" lon="3.70627">
        <ele>74.7</ele>
        <time>2021-04-15T12:52:57Z</time>
      </trkpt>
      <trkpt lat="43.56629" lon="3.70627">
        <ele>70</ele>
        <time>2021-04-15T12:52:57Z</time>
      </trkpt>
      <trkpt lat="43.56631" lon="3.70626">
        <ele>74.8</ele>
        <time>2021-04-15T12:52:59Z</time>
      </trkpt>
      <trkpt lat="43.56631" lon="3.70626">
        <ele>70</ele>
        <time>2021-04-15T12:52:59Z</time>
      </trkpt>
      <trkpt lat="43.56633" lon="3.70624">
        <ele>75</ele>
        <time>2021-04-15T12:53:01Z</time>
      </trkpt>
      <trkpt lat="43.56633" lon="3.70624">
        <ele>70</ele>
        <time>2021-04-15T12:53:01Z</time>
      </trkpt>
      <trkpt lat="43.56635" lon="3.70623">
        <ele>75.1</ele>
        <time>2021-04-15T12:53:02Z</time>
      </trkpt>
      <trkpt lat="43.56635" lon="3.70623">
        <ele>70</ele>
        <time>2021-04-15T12:53:02Z</time>
      </trkpt>
      <trkpt lat="43.56638" lon="3.70621">
        <ele>75.3</ele>
        <time>2021-04-15T12:53:04Z</time>
      </trkpt>
      <trkpt lat="43.56638" lon="3.70621">
        <ele>70</ele>
        <time>2021-04-15T12:53:04Z</time>
      </trkpt>
      <trkpt lat="43.5664" lon="3.7062">
        <ele>75.4</ele>
        <time>2021-04-15T12:53:05Z</time>
      </trkpt>
      <trkpt lat="43.5664" lon="3.7062">
        <ele>70</ele>
        <time>2021-04-15T12:53:05Z</time>
      </trkpt>
      <trkpt lat="43.56641" lon="3.70619">
        <ele>75.4</ele>
        <time>2021-04-15T12:53:06Z</time>
      </trkpt>
      <trkpt lat="43.56641" lon="3.70619">
        <ele>70</ele>
        <time>2021-04-15T12:53:06Z</time>
      </trkpt>
      <trkpt lat="43.56643" lon="3.70618">
        <ele>75.5</ele>
        <time>2021-04-15T12:53:07Z</time>
      </trkpt>
      <trkpt lat="43.56643" lon="3.70618">
        <ele>70</ele>
        <time>2021-04-15T12:53:07Z</time>
      </trkpt>
      <trkpt lat="43.56645" lon="3.70618">
        <ele>75.5</ele>
        <time>2021-04-15T12:53:09Z</time>
      </trkpt>
      <trkpt lat="43.56645" lon="3.70618">
        <ele>70</ele>
        <time>2021-04-15T12:53:09Z</time>
      </trkpt>
      <trkpt lat="43.56647" lon="3.70616">
        <ele>75.5</ele>
        <time>2021-04-15T12:53:11Z</time>
      </trkpt>
      <trkpt lat="43.56647" lon="3.70616">
        <ele>70</ele>
        <time>2021-04-15T12:53:11Z</time>
      </trkpt>
      <trkpt lat="43.56649" lon="3.70616">
        <ele>75.5</ele>
        <time>2021-04-15T12:53:12Z</time>
      </trkpt>
      <trkpt lat="43.56649" lon="3.70616">
        <ele>70</ele>
        <time>2021-04-15T12:53:12Z</time>
      </trkpt>
      <trkpt lat="43.56651" lon="3.70615">
        <ele>75.5</ele>
        <time>2021-04-15T12:53:14Z</time>
      </trkpt>
      <trkpt lat="43.56651" lon="3.70615">
        <ele>70</ele>
        <time>2021-04-15T12:53:14Z</time>
      </trkpt>
      <trkpt lat="43.56653" lon="3.70615">
        <ele>75.4</ele>
        <time>2021-04-15T12:53:15Z</time>
      </trkpt>
      <trkpt lat="43.56653" lon="3.70615">
        <ele>71</ele>
        <time>2021-04-15T12:53:15Z</time>
      </trkpt>
      <trkpt lat="43.56655" lon="3.70615">
        <ele>75.4</ele>
        <time>2021-04-15T12:53:16Z</time>
      </trkpt>
      <trkpt lat="43.56655" lon="3.70615">
        <ele>71</ele>
        <time>2021-04-15T12:53:16Z</time>
      </trkpt>
      <trkpt lat="43.56658" lon="3.70614">
        <ele>75.3</ele>
        <time>2021-04-15T12:53:18Z</time>
      </trkpt>
      <trkpt lat="43.56658" lon="3.70614">
        <ele>71</ele>
        <time>2021-04-15T12:53:18Z</time>
      </trkpt>
      <trkpt lat="43.5666" lon="3.70613">
        <ele>75.3</ele>
        <time>2021-04-15T12:53:20Z</time>
      </trkpt>
      <trkpt lat="43.5666" lon="3.70613">
        <ele>71</ele>
        <time>2021-04-15T12:53:20Z</time>
      </trkpt>
      <trkpt lat="43.56662" lon="3.70612">
        <ele>75.2</ele>
        <time>2021-04-15T12:53:21Z</time>
      </trkpt>
      <trkpt lat="43.56662" lon="3.70612">
        <ele>71</ele>
        <time>2021-04-15T12:53:21Z</time>
      </trkpt>
      <trkpt lat="43.56664" lon="3.70611">
        <ele>75.1</ele>
        <time>2021-04-15T12:53:22Z</time>
      </trkpt>
      <trkpt lat="43.56664" lon="3.70611">
        <ele>71</ele>
        <time>2021-04-15T12:53:22Z</time>
      </trkpt>
      <trkpt lat="43.56666" lon="3.70611">
        <ele>75.1</ele>
        <time>2021-04-15T12:53:23Z</time>
      </trkpt>
      <trkpt lat="43.56666" lon="3.70611">
        <ele>71</ele>
        <time>2021-04-15T12:53:23Z</time>
      </trkpt>
      <trkpt lat="43.56667" lon="3.7061">
        <ele>75.1</ele>
        <time>2021-04-15T12:53:25Z</time>
      </trkpt>
      <trkpt lat="43.56667" lon="3.7061">
        <ele>71</ele>
        <time>2021-04-15T12:53:25Z</time>
      </trkpt>
      <trkpt lat="43.56669" lon="3.70609">
        <ele>75.2</ele>
        <time>2021-04-15T12:53:26Z</time>
      </trkpt>
      <trkpt lat="43.56669" lon="3.70609">
        <ele>71</ele>
        <time>2021-04-15T12:53:26Z</time>
      </trkpt>
      <trkpt lat="43.5667" lon="3.70608">
        <ele>75.3</ele>
        <time>2021-04-15T12:53:27Z</time>
      </trkpt>
      <trkpt lat="43.5667" lon="3.70608">
        <ele>71</ele>
        <time>2021-04-15T12:53:27Z</time>
      </trkpt>
      <trkpt lat="43.56672" lon="3.70607">
        <ele>75.4</ele>
        <time>2021-04-15T12:53:29Z</time>
      </trkpt>
      <trkpt lat="43.56672" lon="3.70607">
        <ele>71</ele>
        <time>2021-04-15T12:53:29Z</time>
      </trkpt>
      <trkpt lat="43.56674" lon="3.70606">
        <ele>75.4</ele>
        <time>2021-04-15T12:53:30Z</time>
      </trkpt>
      <trkpt lat="43.56674" lon="3.70606">
        <ele>71</ele>
        <time>2021-04-15T12:53:30Z</time>
      </trkpt>
      <trkpt lat="43.56674" lon="3.70605">
        <ele>75.5</ele>
        <time>2021-04-15T12:53:31Z</time>
      </trkpt>
      <trkpt lat="43.56674" lon="3.70605">
        <ele>71</ele>
        <time>2021-04-15T12:53:31Z</time>
      </trkpt>
      <trkpt lat="43.56675" lon="3.70604">
        <ele>75.5</ele>
        <time>2021-04-15T12:53:33Z</time>
      </trkpt>
      <trkpt lat="43.56675" lon="3.70604">
        <ele>71</ele>
        <time>2021-04-15T12:53:33Z</time>
      </trkpt>
      <trkpt lat="43.56676" lon="3.70604">
        <ele>75.6</ele>
        <time>2021-04-15T12:53:34Z</time>
      </trkpt>
      <trkpt lat="43.56676" lon="3.70604">
        <ele>71</ele>
        <time>2021-04-15T12:53:34Z</time>
      </trkpt>
      <trkpt lat="43.56681" lon="3.70599">
        <ele>75.6</ele>
        <time>2021-04-15T12:53:38Z</time>
      </trkpt>
      <trkpt lat="43.56681" lon="3.70599">
        <ele>71</ele>
        <time>2021-04-15T12:53:38Z</time>
      </trkpt>
      <trkpt lat="43.56681" lon="3.70598">
        <ele>75.7</ele>
        <time>2021-04-15T12:53:40Z</time>
      </trkpt>
      <trkpt lat="43.56681" lon="3.70598">
        <ele>71</ele>
        <time>2021-04-15T12:53:40Z</time>
      </trkpt>
      <trkpt lat="43.56682" lon="3.70597">
        <ele>75.7</ele>
        <time>2021-04-15T12:53:41Z</time>
      </trkpt>
      <trkpt lat="43.56682" lon="3.70597">
        <ele>71</ele>
        <time>2021-04-15T12:53:41Z</time>
      </trkpt>
      <trkpt lat="43.56683" lon="3.70596">
        <ele>75.7</ele>
        <time>2021-04-15T12:53:43Z</time>
      </trkpt>
      <trkpt lat="43.56683" lon="3.70596">
        <ele>71</ele>
        <time>2021-04-15T12:53:43Z</time>
      </trkpt>
      <trkpt lat="43.56685" lon="3.70595">
        <ele>75.6</ele>
        <time>2021-04-15T12:53:45Z</time>
      </trkpt>
      <trkpt lat="43.56685" lon="3.70595">
        <ele>71</ele>
        <time>2021-04-15T12:53:45Z</time>
      </trkpt>
      <trkpt lat="43.56686" lon="3.70593">
        <ele>75.6</ele>
        <time>2021-04-15T12:53:46Z</time>
      </trkpt>
      <trkpt lat="43.56686" lon="3.70593">
        <ele>71</ele>
        <time>2021-04-15T12:53:46Z</time>
      </trkpt>
      <trkpt lat="43.56687" lon="3.70592">
        <ele>75.5</ele>
        <time>2021-04-15T12:53:48Z</time>
      </trkpt>
      <trkpt lat="43.56687" lon="3.70592">
        <ele>71</ele>
        <time>2021-04-15T12:53:48Z</time>
      </trkpt>
      <trkpt lat="43.56689" lon="3.70591">
        <ele>75.5</ele>
        <time>2021-04-15T12:53:49Z</time>
      </trkpt>
      <trkpt lat="43.56689" lon="3.70591">
        <ele>71</ele>
        <time>2021-04-15T12:53:49Z</time>
      </trkpt>
      <trkpt lat="43.5669" lon="3.7059">
        <ele>75.4</ele>
        <time>2021-04-15T12:53:51Z</time>
      </trkpt>
      <trkpt lat="43.5669" lon="3.7059">
        <ele>71</ele>
        <time>2021-04-15T12:53:51Z</time>
      </trkpt>
      <trkpt lat="43.56691" lon="3.70588">
        <ele>75.3</ele>
        <time>2021-04-15T12:53:53Z</time>
      </trkpt>
      <trkpt lat="43.56691" lon="3.70588">
        <ele>71</ele>
        <time>2021-04-15T12:53:53Z</time>
      </trkpt>
      <trkpt lat="43.56692" lon="3.70587">
        <ele>75.2</ele>
        <time>2021-04-15T12:53:54Z</time>
      </trkpt>
      <trkpt lat="43.56692" lon="3.70587">
        <ele>71</ele>
        <time>2021-04-15T12:53:54Z</time>
      </trkpt>
      <trkpt lat="43.56694" lon="3.70586">
        <ele>75.1</ele>
        <time>2021-04-15T12:53:56Z</time>
      </trkpt>
      <trkpt lat="43.56694" lon="3.70586">
        <ele>71</ele>
        <time>2021-04-15T12:53:56Z</time>
      </trkpt>
      <trkpt lat="43.56695" lon="3.70585">
        <ele>75.1</ele>
        <time>2021-04-15T12:53:57Z</time>
      </trkpt>
      <trkpt lat="43.56695" lon="3.70585">
        <ele>71</ele>
        <time>2021-04-15T12:53:57Z</time>
      </trkpt>
      <trkpt lat="43.56697" lon="3.70584">
        <ele>75.2</ele>
        <time>2021-04-15T12:53:59Z</time>
      </trkpt>
      <trkpt lat="43.56697" lon="3.70584">
        <ele>71</ele>
        <time>2021-04-15T12:53:59Z</time>
      </trkpt>
      <trkpt lat="43.56699" lon="3.70583">
        <ele>75.3</ele>
        <time>2021-04-15T12:54:01Z</time>
      </trkpt>
      <trkpt lat="43.56699" lon="3.70583">
        <ele>71</ele>
        <time>2021-04-15T12:54:01Z</time>
      </trkpt>
      <trkpt lat="43.56701" lon="3.70582">
        <ele>75.5</ele>
        <time>2021-04-15T12:54:03Z</time>
      </trkpt>
      <trkpt lat="43.56701" lon="3.70582">
        <ele>71</ele>
        <time>2021-04-15T12:54:03Z</time>
      </trkpt>
      <trkpt lat="43.56703" lon="3.70581">
        <ele>75.7</ele>
        <time>2021-04-15T12:54:05Z</time>
      </trkpt>
      <trkpt lat="43.56703" lon="3.70581">
        <ele>71</ele>
        <time>2021-04-15T12:54:05Z</time>
      </trkpt>
      <trkpt lat="43.56706" lon="3.7058">
        <ele>75.9</ele>
        <time>2021-04-15T12:54:07Z</time>
      </trkpt>
      <trkpt lat="43.56706" lon="3.7058">
        <ele>72</ele>
        <time>2021-04-15T12:54:07Z</time>
      </trkpt>
      <trkpt lat="43.56708" lon="3.70579">
        <ele>76</ele>
        <time>2021-04-15T12:54:09Z</time>
      </trkpt>
      <trkpt lat="43.56708" lon="3.70579">
        <ele>72</ele>
        <time>2021-04-15T12:54:09Z</time>
      </trkpt>
      <trkpt lat="43.5671" lon="3.70577">
        <ele>76.2</ele>
        <time>2021-04-15T12:54:11Z</time>
      </trkpt>
      <trkpt lat="43.5671" lon="3.70577">
        <ele>72</ele>
        <time>2021-04-15T12:54:11Z</time>
      </trkpt>
      <trkpt lat="43.56712" lon="3.70576">
        <ele>76.3</ele>
        <time>2021-04-15T12:54:13Z</time>
      </trkpt>
      <trkpt lat="43.56712" lon="3.70576">
        <ele>72</ele>
        <time>2021-04-15T12:54:13Z</time>
      </trkpt>
      <trkpt lat="43.56714" lon="3.70574">
        <ele>76.4</ele>
        <time>2021-04-15T12:54:15Z</time>
      </trkpt>
      <trkpt lat="43.56714" lon="3.70574">
        <ele>72</ele>
        <time>2021-04-15T12:54:15Z</time>
      </trkpt>
      <trkpt lat="43.56715" lon="3.70573">
        <ele>76.4</ele>
        <time>2021-04-15T12:54:16Z</time>
      </trkpt>
      <trkpt lat="43.56715" lon="3.70573">
        <ele>72</ele>
        <time>2021-04-15T12:54:16Z</time>
      </trkpt>
      <trkpt lat="43.56717" lon="3.70572">
        <ele>76.4</ele>
        <time>2021-04-15T12:54:17Z</time>
      </trkpt>
      <trkpt lat="43.56717" lon="3.70572">
        <ele>72</ele>
        <time>2021-04-15T12:54:17Z</time>
      </trkpt>
      <trkpt lat="43.56718" lon="3.70571">
        <ele>76.4</ele>
        <time>2021-04-15T12:54:18Z</time>
      </trkpt>
      <trkpt lat="43.56718" lon="3.70571">
        <ele>72</ele>
        <time>2021-04-15T12:54:18Z</time>
      </trkpt>
      <trkpt lat="43.56719" lon="3.7057">
        <ele>76.4</ele>
        <time>2021-04-15T12:54:20Z</time>
      </trkpt>
      <trkpt lat="43.56719" lon="3.7057">
        <ele>72</ele>
        <time>2021-04-15T12:54:20Z</time>
      </trkpt>
      <trkpt lat="43.5672" lon="3.70569">
        <ele>76.4</ele>
        <time>2021-04-15T12:54:21Z</time>
      </trkpt>
      <trkpt lat="43.5672" lon="3.70569">
        <ele>72</ele>
        <time>2021-04-15T12:54:21Z</time>
      </trkpt>
      <trkpt lat="43.56721" lon="3.70568">
        <ele>76.4</ele>
        <time>2021-04-15T12:54:22Z</time>
      </trkpt>
      <trkpt lat="43.56721" lon="3.70568">
        <ele>72</ele>
        <time>2021-04-15T12:54:22Z</time>
      </trkpt>
      <trkpt lat="43.56722" lon="3.70567">
        <ele>76.4</ele>
        <time>2021-04-15T12:54:23Z</time>
      </trkpt>
      <trkpt lat="43.56722" lon="3.70567">
        <ele>72</ele>
        <time>2021-04-15T12:54:23Z</time>
      </trkpt>
      <trkpt lat="43.56723" lon="3.70566">
        <ele>76.6</ele>
        <time>2021-04-15T12:54:25Z</time>
      </trkpt>
      <trkpt lat="43.56723" lon="3.70566">
        <ele>72</ele>
        <time>2021-04-15T12:54:25Z</time>
      </trkpt>
      <trkpt lat="43.56725" lon="3.70565">
        <ele>76.8</ele>
        <time>2021-04-15T12:54:27Z</time>
      </trkpt>
      <trkpt lat="43.56725" lon="3.70565">
        <ele>72</ele>
        <time>2021-04-15T12:54:27Z</time>
      </trkpt>
      <trkpt lat="43.56726" lon="3.70564">
        <ele>76.9</ele>
        <time>2021-04-15T12:54:29Z</time>
      </trkpt>
      <trkpt lat="43.56726" lon="3.70564">
        <ele>72</ele>
        <time>2021-04-15T12:54:29Z</time>
      </trkpt>
      <trkpt lat="43.56727" lon="3.70562">
        <ele>77.1</ele>
        <time>2021-04-15T12:54:30Z</time>
      </trkpt>
      <trkpt lat="43.56727" lon="3.70562">
        <ele>72</ele>
        <time>2021-04-15T12:54:30Z</time>
      </trkpt>
      <trkpt lat="43.56729" lon="3.70561">
        <ele>77.2</ele>
        <time>2021-04-15T12:54:32Z</time>
      </trkpt>
      <trkpt lat="43.56729" lon="3.70561">
        <ele>72</ele>
        <time>2021-04-15T12:54:32Z</time>
      </trkpt>
      <trkpt lat="43.56729" lon="3.7056">
        <ele>77.3</ele>
        <time>2021-04-15T12:54:34Z</time>
      </trkpt>
      <trkpt lat="43.56729" lon="3.7056">
        <ele>72</ele>
        <time>2021-04-15T12:54:34Z</time>
      </trkpt>
      <trkpt lat="43.56737" lon="3.70555">
        <ele>78.1</ele>
        <time>2021-04-15T12:54:45Z</time>
      </trkpt>
      <trkpt lat="43.56737" lon="3.70555">
        <ele>72</ele>
        <time>2021-04-15T12:54:45Z</time>
      </trkpt>
      <trkpt lat="43.56737" lon="3.70555">
        <ele>78.1</ele>
        <time>2021-04-15T12:54:46Z</time>
      </trkpt>
      <trkpt lat="43.56737" lon="3.70555">
        <ele>72</ele>
        <time>2021-04-15T12:54:46Z</time>
      </trkpt>
      <trkpt lat="43.56738" lon="3.70554">
        <ele>78.3</ele>
        <time>2021-04-15T12:54:48Z</time>
      </trkpt>
      <trkpt lat="43.56738" lon="3.70554">
        <ele>72</ele>
        <time>2021-04-15T12:54:48Z</time>
      </trkpt>
      <trkpt lat="43.56739" lon="3.70553">
        <ele>78.4</ele>
        <time>2021-04-15T12:54:49Z</time>
      </trkpt>
      <trkpt lat="43.56739" lon="3.70553">
        <ele>72</ele>
        <time>2021-04-15T12:54:49Z</time>
      </trkpt>
      <trkpt lat="43.56741" lon="3.70553">
        <ele>78.5</ele>
        <time>2021-04-15T12:54:50Z</time>
      </trkpt>
      <trkpt lat="43.56741" lon="3.70553">
        <ele>72</ele>
        <time>2021-04-15T12:54:50Z</time>
      </trkpt>
      <trkpt lat="43.56742" lon="3.70552">
        <ele>78.5</ele>
        <time>2021-04-15T12:54:51Z</time>
      </trkpt>
      <trkpt lat="43.56742" lon="3.70552">
        <ele>72</ele>
        <time>2021-04-15T12:54:51Z</time>
      </trkpt>
      <trkpt lat="43.56743" lon="3.70551">
        <ele>78.6</ele>
        <time>2021-04-15T12:54:53Z</time>
      </trkpt>
      <trkpt lat="43.56743" lon="3.70551">
        <ele>72</ele>
        <time>2021-04-15T12:54:53Z</time>
      </trkpt>
      <trkpt lat="43.56744" lon="3.70549">
        <ele>78.6</ele>
        <time>2021-04-15T12:54:55Z</time>
      </trkpt>
      <trkpt lat="43.56744" lon="3.70549">
        <ele>72</ele>
        <time>2021-04-15T12:54:55Z</time>
      </trkpt>
      <trkpt lat="43.56744" lon="3.70549">
        <ele>78.6</ele>
        <time>2021-04-15T12:54:56Z</time>
      </trkpt>
      <trkpt lat="43.56744" lon="3.70549">
        <ele>72</ele>
        <time>2021-04-15T12:54:56Z</time>
      </trkpt>
      <trkpt lat="43.56749" lon="3.70544">
        <ele>78.7</ele>
        <time>2021-04-15T12:55:15Z</time>
      </trkpt>
      <trkpt lat="43.56749" lon="3.70544">
        <ele>72</ele>
        <time>2021-04-15T12:55:15Z</time>
      </trkpt>
      <trkpt lat="43.5675" lon="3.70544">
        <ele>78.7</ele>
        <time>2021-04-15T12:55:16Z</time>
      </trkpt>
      <trkpt lat="43.5675" lon="3.70544">
        <ele>74</ele>
        <time>2021-04-15T12:55:16Z</time>
      </trkpt>
      <trkpt lat="43.5675" lon="3.70544">
        <ele>78.7</ele>
        <time>2021-04-15T12:55:18Z</time>
      </trkpt>
      <trkpt lat="43.5675" lon="3.70544">
        <ele>74</ele>
        <time>2021-04-15T12:55:18Z</time>
      </trkpt>
      <trkpt lat="43.56752" lon="3.70543">
        <ele>78.8</ele>
        <time>2021-04-15T12:55:20Z</time>
      </trkpt>
      <trkpt lat="43.56752" lon="3.70543">
        <ele>74</ele>
        <time>2021-04-15T12:55:20Z</time>
      </trkpt>
      <trkpt lat="43.56753" lon="3.70542">
        <ele>78.8</ele>
        <time>2021-04-15T12:55:21Z</time>
      </trkpt>
      <trkpt lat="43.56753" lon="3.70542">
        <ele>74</ele>
        <time>2021-04-15T12:55:21Z</time>
      </trkpt>
      <trkpt lat="43.56754" lon="3.70541">
        <ele>78.9</ele>
        <time>2021-04-15T12:55:22Z</time>
      </trkpt>
      <trkpt lat="43.56754" lon="3.70541">
        <ele>74</ele>
        <time>2021-04-15T12:55:22Z</time>
      </trkpt>
      <trkpt lat="43.56755" lon="3.7054">
        <ele>78.9</ele>
        <time>2021-04-15T12:55:23Z</time>
      </trkpt>
      <trkpt lat="43.56755" lon="3.7054">
        <ele>74</ele>
        <time>2021-04-15T12:55:23Z</time>
      </trkpt>
      <trkpt lat="43.56756" lon="3.70539">
        <ele>78.8</ele>
        <time>2021-04-15T12:55:25Z</time>
      </trkpt>
      <trkpt lat="43.56756" lon="3.70539">
        <ele>74</ele>
        <time>2021-04-15T12:55:25Z</time>
      </trkpt>
      <trkpt lat="43.56757" lon="3.70537">
        <ele>78.7</ele>
        <time>2021-04-15T12:55:27Z</time>
      </trkpt>
      <trkpt lat="43.56757" lon="3.70537">
        <ele>74</ele>
        <time>2021-04-15T12:55:27Z</time>
      </trkpt>
      <trkpt lat="43.56759" lon="3.70536">
        <ele>78.7</ele>
        <time>2021-04-15T12:55:28Z</time>
      </trkpt>
      <trkpt lat="43.56759" lon="3.70536">
        <ele>74</ele>
        <time>2021-04-15T12:55:28Z</time>
      </trkpt>
      <trkpt lat="43.5676" lon="3.70535">
        <ele>78.7</ele>
        <time>2021-04-15T12:55:30Z</time>
      </trkpt>
      <trkpt lat="43.5676" lon="3.70535">
        <ele>74</ele>
        <time>2021-04-15T12:55:30Z</time>
      </trkpt>
      <trkpt lat="43.56761" lon="3.70533">
        <ele>78.6</ele>
        <time>2021-04-15T12:55:32Z</time>
      </trkpt>
      <trkpt lat="43.56761" lon="3.70533">
        <ele>74</ele>
        <time>2021-04-15T12:55:32Z</time>
      </trkpt>
      <trkpt lat="43.56763" lon="3.70532">
        <ele>78.5</ele>
        <time>2021-04-15T12:55:34Z</time>
      </trkpt>
      <trkpt lat="43.56763" lon="3.70532">
        <ele>75</ele>
        <time>2021-04-15T12:55:34Z</time>
      </trkpt>
      <trkpt lat="43.56764" lon="3.7053">
        <ele>78.4</ele>
        <time>2021-04-15T12:55:35Z</time>
      </trkpt>
      <trkpt lat="43.56764" lon="3.7053">
        <ele>75</ele>
        <time>2021-04-15T12:55:35Z</time>
      </trkpt>
      <trkpt lat="43.56767" lon="3.70528">
        <ele>78.2</ele>
        <time>2021-04-15T12:55:37Z</time>
      </trkpt>
      <trkpt lat="43.56767" lon="3.70528">
        <ele>75</ele>
        <time>2021-04-15T12:55:37Z</time>
      </trkpt>
      <trkpt lat="43.56768" lon="3.70528">
        <ele>78.3</ele>
        <time>2021-04-15T12:55:40Z</time>
      </trkpt>
      <trkpt lat="43.56768" lon="3.70528">
        <ele>75</ele>
        <time>2021-04-15T12:55:40Z</time>
      </trkpt>
      <trkpt lat="43.56768" lon="3.70528">
        <ele>78.3</ele>
        <time>2021-04-15T12:55:41Z</time>
      </trkpt>
      <trkpt lat="43.56768" lon="3.70528">
        <ele>75</ele>
        <time>2021-04-15T12:55:41Z</time>
      </trkpt>
      <trkpt lat="43.56769" lon="3.70527">
        <ele>78.3</ele>
        <time>2021-04-15T12:55:42Z</time>
      </trkpt>
      <trkpt lat="43.56769" lon="3.70527">
        <ele>75</ele>
        <time>2021-04-15T12:55:42Z</time>
      </trkpt>
      <trkpt lat="43.56769" lon="3.70527">
        <ele>78.4</ele>
        <time>2021-04-15T12:55:44Z</time>
      </trkpt>
      <trkpt lat="43.56769" lon="3.70527">
        <ele>75</ele>
        <time>2021-04-15T12:55:44Z</time>
      </trkpt>
      <trkpt lat="43.56775" lon="3.70524">
        <ele>78.7</ele>
        <time>2021-04-15T12:55:48Z</time>
      </trkpt>
      <trkpt lat="43.56775" lon="3.70524">
        <ele>75</ele>
        <time>2021-04-15T12:55:48Z</time>
      </trkpt>
      <trkpt lat="43.56775" lon="3.70524">
        <ele>78.7</ele>
        <time>2021-04-15T12:55:49Z</time>
      </trkpt>
      <trkpt lat="43.56775" lon="3.70524">
        <ele>75</ele>
        <time>2021-04-15T12:55:49Z</time>
      </trkpt>
      <trkpt lat="43.56775" lon="3.70523">
        <ele>78.7</ele>
        <time>2021-04-15T12:55:51Z</time>
      </trkpt>
      <trkpt lat="43.56775" lon="3.70523">
        <ele>75</ele>
        <time>2021-04-15T12:55:51Z</time>
      </trkpt>
      <trkpt lat="43.56776" lon="3.70522">
        <ele>78.7</ele>
        <time>2021-04-15T12:55:53Z</time>
      </trkpt>
      <trkpt lat="43.56776" lon="3.70522">
        <ele>75</ele>
        <time>2021-04-15T12:55:53Z</time>
      </trkpt>
      <trkpt lat="43.56777" lon="3.70522">
        <ele>78.8</ele>
        <time>2021-04-15T12:55:55Z</time>
      </trkpt>
      <trkpt lat="43.56777" lon="3.70522">
        <ele>75</ele>
        <time>2021-04-15T12:55:55Z</time>
      </trkpt>
      <trkpt lat="43.56779" lon="3.70521">
        <ele>78.8</ele>
        <time>2021-04-15T12:55:56Z</time>
      </trkpt>
      <trkpt lat="43.56779" lon="3.70521">
        <ele>75</ele>
        <time>2021-04-15T12:55:56Z</time>
      </trkpt>
      <trkpt lat="43.56782" lon="3.7052">
        <ele>78.9</ele>
        <time>2021-04-15T12:56:00Z</time>
      </trkpt>
      <trkpt lat="43.56782" lon="3.7052">
        <ele>75</ele>
        <time>2021-04-15T12:56:00Z</time>
      </trkpt>
      <trkpt lat="43.56783" lon="3.7052">
        <ele>79</ele>
        <time>2021-04-15T12:56:02Z</time>
      </trkpt>
      <trkpt lat="43.56783" lon="3.7052">
        <ele>75</ele>
        <time>2021-04-15T12:56:02Z</time>
      </trkpt>
      <trkpt lat="43.56784" lon="3.7052">
        <ele>79</ele>
        <time>2021-04-15T12:56:03Z</time>
      </trkpt>
      <trkpt lat="43.56784" lon="3.7052">
        <ele>76</ele>
        <time>2021-04-15T12:56:03Z</time>
      </trkpt>
      <trkpt lat="43.56785" lon="3.7052">
        <ele>79.1</ele>
        <time>2021-04-15T12:56:05Z</time>
      </trkpt>
      <trkpt lat="43.56785" lon="3.7052">
        <ele>76</ele>
        <time>2021-04-15T12:56:05Z</time>
      </trkpt>
      <trkpt lat="43.56786" lon="3.7052">
        <ele>79.2</ele>
        <time>2021-04-15T12:56:07Z</time>
      </trkpt>
      <trkpt lat="43.56786" lon="3.7052">
        <ele>76</ele>
        <time>2021-04-15T12:56:07Z</time>
      </trkpt>
      <trkpt lat="43.56788" lon="3.70521">
        <ele>79.3</ele>
        <time>2021-04-15T12:56:08Z</time>
      </trkpt>
      <trkpt lat="43.56788" lon="3.70521">
        <ele>76</ele>
        <time>2021-04-15T12:56:08Z</time>
      </trkpt>
      <trkpt lat="43.56789" lon="3.70521">
        <ele>79.4</ele>
        <time>2021-04-15T12:56:10Z</time>
      </trkpt>
      <trkpt lat="43.56789" lon="3.70521">
        <ele>76</ele>
        <time>2021-04-15T12:56:10Z</time>
      </trkpt>
      <trkpt lat="43.56791" lon="3.70521">
        <ele>79.4</ele>
        <time>2021-04-15T12:56:11Z</time>
      </trkpt>
      <trkpt lat="43.56791" lon="3.70521">
        <ele>76</ele>
        <time>2021-04-15T12:56:11Z</time>
      </trkpt>
      <trkpt lat="43.56792" lon="3.70521">
        <ele>79.5</ele>
        <time>2021-04-15T12:56:13Z</time>
      </trkpt>
      <trkpt lat="43.56792" lon="3.70521">
        <ele>76</ele>
        <time>2021-04-15T12:56:13Z</time>
      </trkpt>
      <trkpt lat="43.56793" lon="3.70522">
        <ele>79.7</ele>
        <time>2021-04-15T12:56:15Z</time>
      </trkpt>
      <trkpt lat="43.56793" lon="3.70522">
        <ele>76</ele>
        <time>2021-04-15T12:56:15Z</time>
      </trkpt>
      <trkpt lat="43.56795" lon="3.70522">
        <ele>79.8</ele>
        <time>2021-04-15T12:56:17Z</time>
      </trkpt>
      <trkpt lat="43.56795" lon="3.70522">
        <ele>76</ele>
        <time>2021-04-15T12:56:17Z</time>
      </trkpt>
      <trkpt lat="43.56798" lon="3.70522">
        <ele>79.9</ele>
        <time>2021-04-15T12:56:19Z</time>
      </trkpt>
      <trkpt lat="43.56798" lon="3.70522">
        <ele>77</ele>
        <time>2021-04-15T12:56:19Z</time>
      </trkpt>
      <trkpt lat="43.568" lon="3.70522">
        <ele>80.1</ele>
        <time>2021-04-15T12:56:21Z</time>
      </trkpt>
      <trkpt lat="43.568" lon="3.70522">
        <ele>77</ele>
        <time>2021-04-15T12:56:21Z</time>
      </trkpt>
      <trkpt lat="43.56803" lon="3.70523">
        <ele>80.3</ele>
        <time>2021-04-15T12:56:23Z</time>
      </trkpt>
      <trkpt lat="43.56803" lon="3.70523">
        <ele>77</ele>
        <time>2021-04-15T12:56:23Z</time>
      </trkpt>
      <trkpt lat="43.56806" lon="3.70523">
        <ele>80.5</ele>
        <time>2021-04-15T12:56:25Z</time>
      </trkpt>
      <trkpt lat="43.56806" lon="3.70523">
        <ele>77</ele>
        <time>2021-04-15T12:56:25Z</time>
      </trkpt>
      <trkpt lat="43.56809" lon="3.70523">
        <ele>80.7</ele>
        <time>2021-04-15T12:56:27Z</time>
      </trkpt>
      <trkpt lat="43.56809" lon="3.70523">
        <ele>79</ele>
        <time>2021-04-15T12:56:27Z</time>
      </trkpt>
      <trkpt lat="43.56811" lon="3.70523">
        <ele>80.8</ele>
        <time>2021-04-15T12:56:28Z</time>
      </trkpt>
      <trkpt lat="43.56811" lon="3.70523">
        <ele>79</ele>
        <time>2021-04-15T12:56:28Z</time>
      </trkpt>
      <trkpt lat="43.56813" lon="3.70524">
        <ele>81</ele>
        <time>2021-04-15T12:56:29Z</time>
      </trkpt>
      <trkpt lat="43.56813" lon="3.70524">
        <ele>79</ele>
        <time>2021-04-15T12:56:29Z</time>
      </trkpt>
      <trkpt lat="43.56814" lon="3.70524">
        <ele>81.2</ele>
        <time>2021-04-15T12:56:31Z</time>
      </trkpt>
      <trkpt lat="43.56814" lon="3.70524">
        <ele>79</ele>
        <time>2021-04-15T12:56:31Z</time>
      </trkpt>
      <trkpt lat="43.56816" lon="3.70524">
        <ele>81.3</ele>
        <time>2021-04-15T12:56:33Z</time>
      </trkpt>
      <trkpt lat="43.56816" lon="3.70524">
        <ele>79</ele>
        <time>2021-04-15T12:56:33Z</time>
      </trkpt>
      <trkpt lat="43.56818" lon="3.70525">
        <ele>81.5</ele>
        <time>2021-04-15T12:56:35Z</time>
      </trkpt>
      <trkpt lat="43.56818" lon="3.70525">
        <ele>79</ele>
        <time>2021-04-15T12:56:35Z</time>
      </trkpt>
      <trkpt lat="43.5682" lon="3.70525">
        <ele>81.7</ele>
        <time>2021-04-15T12:56:36Z</time>
      </trkpt>
      <trkpt lat="43.5682" lon="3.70525">
        <ele>79</ele>
        <time>2021-04-15T12:56:36Z</time>
      </trkpt>
      <trkpt lat="43.56822" lon="3.70526">
        <ele>81.9</ele>
        <time>2021-04-15T12:56:37Z</time>
      </trkpt>
      <trkpt lat="43.56822" lon="3.70526">
        <ele>79</ele>
        <time>2021-04-15T12:56:37Z</time>
      </trkpt>
      <trkpt lat="43.56824" lon="3.70526">
        <ele>82</ele>
        <time>2021-04-15T12:56:39Z</time>
      </trkpt>
      <trkpt lat="43.56824" lon="3.70526">
        <ele>79</ele>
        <time>2021-04-15T12:56:39Z</time>
      </trkpt>
      <trkpt lat="43.56826" lon="3.70526">
        <ele>82.2</ele>
        <time>2021-04-15T12:56:41Z</time>
      </trkpt>
      <trkpt lat="43.56826" lon="3.70526">
        <ele>79</ele>
        <time>2021-04-15T12:56:41Z</time>
      </trkpt>
      <trkpt lat="43.56828" lon="3.70527">
        <ele>82.4</ele>
        <time>2021-04-15T12:56:43Z</time>
      </trkpt>
      <trkpt lat="43.56828" lon="3.70527">
        <ele>79</ele>
        <time>2021-04-15T12:56:43Z</time>
      </trkpt>
      <trkpt lat="43.5683" lon="3.70527">
        <ele>82.6</ele>
        <time>2021-04-15T12:56:45Z</time>
      </trkpt>
      <trkpt lat="43.5683" lon="3.70527">
        <ele>81</ele>
        <time>2021-04-15T12:56:45Z</time>
      </trkpt>
      <trkpt lat="43.56832" lon="3.70527">
        <ele>82.8</ele>
        <time>2021-04-15T12:56:47Z</time>
      </trkpt>
      <trkpt lat="43.56832" lon="3.70527">
        <ele>81</ele>
        <time>2021-04-15T12:56:47Z</time>
      </trkpt>
      <trkpt lat="43.56834" lon="3.70527">
        <ele>83</ele>
        <time>2021-04-15T12:56:48Z</time>
      </trkpt>
      <trkpt lat="43.56834" lon="3.70527">
        <ele>81</ele>
        <time>2021-04-15T12:56:48Z</time>
      </trkpt>
      <trkpt lat="43.56836" lon="3.70527">
        <ele>83.2</ele>
        <time>2021-04-15T12:56:50Z</time>
      </trkpt>
      <trkpt lat="43.56836" lon="3.70527">
        <ele>81</ele>
        <time>2021-04-15T12:56:50Z</time>
      </trkpt>
      <trkpt lat="43.56838" lon="3.70528">
        <ele>83.5</ele>
        <time>2021-04-15T12:56:51Z</time>
      </trkpt>
      <trkpt lat="43.56838" lon="3.70528">
        <ele>81</ele>
        <time>2021-04-15T12:56:51Z</time>
      </trkpt>
      <trkpt lat="43.5684" lon="3.70528">
        <ele>83.8</ele>
        <time>2021-04-15T12:56:53Z</time>
      </trkpt>
      <trkpt lat="43.5684" lon="3.70528">
        <ele>81</ele>
        <time>2021-04-15T12:56:53Z</time>
      </trkpt>
      <trkpt lat="43.56841" lon="3.70529">
        <ele>84</ele>
        <time>2021-04-15T12:56:54Z</time>
      </trkpt>
      <trkpt lat="43.56841" lon="3.70529">
        <ele>81</ele>
        <time>2021-04-15T12:56:54Z</time>
      </trkpt>
      <trkpt lat="43.56843" lon="3.70529">
        <ele>84.2</ele>
        <time>2021-04-15T12:56:55Z</time>
      </trkpt>
      <trkpt lat="43.56843" lon="3.70529">
        <ele>81</ele>
        <time>2021-04-15T12:56:55Z</time>
      </trkpt>
      <trkpt lat="43.56845" lon="3.70529">
        <ele>84.5</ele>
        <time>2021-04-15T12:56:57Z</time>
      </trkpt>
      <trkpt lat="43.56845" lon="3.70529">
        <ele>81</ele>
        <time>2021-04-15T12:56:57Z</time>
      </trkpt>
      <trkpt lat="43.56847" lon="3.70529">
        <ele>84.7</ele>
        <time>2021-04-15T12:56:58Z</time>
      </trkpt>
      <trkpt lat="43.56847" lon="3.70529">
        <ele>81</ele>
        <time>2021-04-15T12:56:58Z</time>
      </trkpt>
      <trkpt lat="43.56848" lon="3.70529">
        <ele>84.9</ele>
        <time>2021-04-15T12:56:59Z</time>
      </trkpt>
      <trkpt lat="43.56848" lon="3.70529">
        <ele>81</ele>
        <time>2021-04-15T12:56:59Z</time>
      </trkpt>
      <trkpt lat="43.56851" lon="3.7053">
        <ele>85.3</ele>
        <time>2021-04-15T12:57:01Z</time>
      </trkpt>
      <trkpt lat="43.56851" lon="3.7053">
        <ele>83</ele>
        <time>2021-04-15T12:57:01Z</time>
      </trkpt>
      <trkpt lat="43.56853" lon="3.70531">
        <ele>85.7</ele>
        <time>2021-04-15T12:57:02Z</time>
      </trkpt>
      <trkpt lat="43.56853" lon="3.70531">
        <ele>83</ele>
        <time>2021-04-15T12:57:02Z</time>
      </trkpt>
      <trkpt lat="43.56855" lon="3.70531">
        <ele>86.1</ele>
        <time>2021-04-15T12:57:04Z</time>
      </trkpt>
      <trkpt lat="43.56855" lon="3.70531">
        <ele>83</ele>
        <time>2021-04-15T12:57:04Z</time>
      </trkpt>
      <trkpt lat="43.56858" lon="3.70531">
        <ele>86.4</ele>
        <time>2021-04-15T12:57:06Z</time>
      </trkpt>
      <trkpt lat="43.56858" lon="3.70531">
        <ele>83</ele>
        <time>2021-04-15T12:57:06Z</time>
      </trkpt>
      <trkpt lat="43.5686" lon="3.70531">
        <ele>86.6</ele>
        <time>2021-04-15T12:57:07Z</time>
      </trkpt>
      <trkpt lat="43.5686" lon="3.70531">
        <ele>83</ele>
        <time>2021-04-15T12:57:07Z</time>
      </trkpt>
      <trkpt lat="43.56861" lon="3.70532">
        <ele>86.8</ele>
        <time>2021-04-15T12:57:09Z</time>
      </trkpt>
      <trkpt lat="43.56861" lon="3.70532">
        <ele>83</ele>
        <time>2021-04-15T12:57:09Z</time>
      </trkpt>
      <trkpt lat="43.56863" lon="3.70532">
        <ele>87.1</ele>
        <time>2021-04-15T12:57:10Z</time>
      </trkpt>
      <trkpt lat="43.56863" lon="3.70532">
        <ele>83</ele>
        <time>2021-04-15T12:57:10Z</time>
      </trkpt>
      <trkpt lat="43.56864" lon="3.70532">
        <ele>87.3</ele>
        <time>2021-04-15T12:57:12Z</time>
      </trkpt>
      <trkpt lat="43.56864" lon="3.70532">
        <ele>83</ele>
        <time>2021-04-15T12:57:12Z</time>
      </trkpt>
      <trkpt lat="43.56866" lon="3.70532">
        <ele>87.4</ele>
        <time>2021-04-15T12:57:13Z</time>
      </trkpt>
      <trkpt lat="43.56866" lon="3.70532">
        <ele>83</ele>
        <time>2021-04-15T12:57:13Z</time>
      </trkpt>
      <trkpt lat="43.56868" lon="3.70532">
        <ele>87.6</ele>
        <time>2021-04-15T12:57:15Z</time>
      </trkpt>
      <trkpt lat="43.56868" lon="3.70532">
        <ele>83</ele>
        <time>2021-04-15T12:57:15Z</time>
      </trkpt>
      <trkpt lat="43.5687" lon="3.70532">
        <ele>87.8</ele>
        <time>2021-04-15T12:57:17Z</time>
      </trkpt>
      <trkpt lat="43.5687" lon="3.70532">
        <ele>83</ele>
        <time>2021-04-15T12:57:17Z</time>
      </trkpt>
      <trkpt lat="43.56872" lon="3.70532">
        <ele>88</ele>
        <time>2021-04-15T12:57:19Z</time>
      </trkpt>
      <trkpt lat="43.56872" lon="3.70532">
        <ele>86</ele>
        <time>2021-04-15T12:57:19Z</time>
      </trkpt>
      <trkpt lat="43.56874" lon="3.70533">
        <ele>88.3</ele>
        <time>2021-04-15T12:57:21Z</time>
      </trkpt>
      <trkpt lat="43.56874" lon="3.70533">
        <ele>86</ele>
        <time>2021-04-15T12:57:21Z</time>
      </trkpt>
      <trkpt lat="43.56876" lon="3.70533">
        <ele>88.6</ele>
        <time>2021-04-15T12:57:22Z</time>
      </trkpt>
      <trkpt lat="43.56876" lon="3.70533">
        <ele>86</ele>
        <time>2021-04-15T12:57:22Z</time>
      </trkpt>
      <trkpt lat="43.56878" lon="3.70533">
        <ele>88.8</ele>
        <time>2021-04-15T12:57:24Z</time>
      </trkpt>
      <trkpt lat="43.56878" lon="3.70533">
        <ele>86</ele>
        <time>2021-04-15T12:57:24Z</time>
      </trkpt>
      <trkpt lat="43.5688" lon="3.70533">
        <ele>89.1</ele>
        <time>2021-04-15T12:57:26Z</time>
      </trkpt>
      <trkpt lat="43.5688" lon="3.70533">
        <ele>86</ele>
        <time>2021-04-15T12:57:26Z</time>
      </trkpt>
      <trkpt lat="43.56883" lon="3.70533">
        <ele>89.4</ele>
        <time>2021-04-15T12:57:28Z</time>
      </trkpt>
      <trkpt lat="43.56883" lon="3.70533">
        <ele>86</ele>
        <time>2021-04-15T12:57:28Z</time>
      </trkpt>
      <trkpt lat="43.56885" lon="3.70533">
        <ele>89.6</ele>
        <time>2021-04-15T12:57:29Z</time>
      </trkpt>
      <trkpt lat="43.56885" lon="3.70533">
        <ele>86</ele>
        <time>2021-04-15T12:57:29Z</time>
      </trkpt>
      <trkpt lat="43.56887" lon="3.70533">
        <ele>89.7</ele>
        <time>2021-04-15T12:57:31Z</time>
      </trkpt>
      <trkpt lat="43.56887" lon="3.70533">
        <ele>86</ele>
        <time>2021-04-15T12:57:31Z</time>
      </trkpt>
      <trkpt lat="43.56889" lon="3.70533">
        <ele>89.9</ele>
        <time>2021-04-15T12:57:33Z</time>
      </trkpt>
      <trkpt lat="43.56889" lon="3.70533">
        <ele>86</ele>
        <time>2021-04-15T12:57:33Z</time>
      </trkpt>
      <trkpt lat="43.5689" lon="3.70533">
        <ele>90</ele>
        <time>2021-04-15T12:57:34Z</time>
      </trkpt>
      <trkpt lat="43.5689" lon="3.70533">
        <ele>86</ele>
        <time>2021-04-15T12:57:34Z</time>
      </trkpt>
      <trkpt lat="43.56892" lon="3.70533">
        <ele>90.2</ele>
        <time>2021-04-15T12:57:35Z</time>
      </trkpt>
      <trkpt lat="43.56892" lon="3.70533">
        <ele>86</ele>
        <time>2021-04-15T12:57:35Z</time>
      </trkpt>
      <trkpt lat="43.56893" lon="3.70533">
        <ele>90.3</ele>
        <time>2021-04-15T12:57:37Z</time>
      </trkpt>
      <trkpt lat="43.56893" lon="3.70533">
        <ele>88</ele>
        <time>2021-04-15T12:57:37Z</time>
      </trkpt>
      <trkpt lat="43.56895" lon="3.70533">
        <ele>90.5</ele>
        <time>2021-04-15T12:57:39Z</time>
      </trkpt>
      <trkpt lat="43.56895" lon="3.70533">
        <ele>88</ele>
        <time>2021-04-15T12:57:39Z</time>
      </trkpt>
      <trkpt lat="43.56897" lon="3.70533">
        <ele>90.8</ele>
        <time>2021-04-15T12:57:41Z</time>
      </trkpt>
      <trkpt lat="43.56897" lon="3.70533">
        <ele>88</ele>
        <time>2021-04-15T12:57:41Z</time>
      </trkpt>
      <trkpt lat="43.56899" lon="3.70533">
        <ele>91</ele>
        <time>2021-04-15T12:57:43Z</time>
      </trkpt>
      <trkpt lat="43.56899" lon="3.70533">
        <ele>88</ele>
        <time>2021-04-15T12:57:43Z</time>
      </trkpt>
      <trkpt lat="43.56901" lon="3.70533">
        <ele>91.3</ele>
        <time>2021-04-15T12:57:45Z</time>
      </trkpt>
      <trkpt lat="43.56901" lon="3.70533">
        <ele>88</ele>
        <time>2021-04-15T12:57:45Z</time>
      </trkpt>
      <trkpt lat="43.56903" lon="3.70533">
        <ele>91.5</ele>
        <time>2021-04-15T12:57:46Z</time>
      </trkpt>
      <trkpt lat="43.56903" lon="3.70533">
        <ele>88</ele>
        <time>2021-04-15T12:57:46Z</time>
      </trkpt>
      <trkpt lat="43.56904" lon="3.70533">
        <ele>91.6</ele>
        <time>2021-04-15T12:57:47Z</time>
      </trkpt>
      <trkpt lat="43.56904" lon="3.70533">
        <ele>88</ele>
        <time>2021-04-15T12:57:47Z</time>
      </trkpt>
      <trkpt lat="43.56905" lon="3.70534">
        <ele>91.8</ele>
        <time>2021-04-15T12:57:49Z</time>
      </trkpt>
      <trkpt lat="43.56905" lon="3.70534">
        <ele>88</ele>
        <time>2021-04-15T12:57:49Z</time>
      </trkpt>
      <trkpt lat="43.56907" lon="3.70534">
        <ele>91.9</ele>
        <time>2021-04-15T12:57:50Z</time>
      </trkpt>
      <trkpt lat="43.56907" lon="3.70534">
        <ele>88</ele>
        <time>2021-04-15T12:57:50Z</time>
      </trkpt>
      <trkpt lat="43.56908" lon="3.70533">
        <ele>92</ele>
        <time>2021-04-15T12:57:52Z</time>
      </trkpt>
      <trkpt lat="43.56908" lon="3.70533">
        <ele>88</ele>
        <time>2021-04-15T12:57:52Z</time>
      </trkpt>
      <trkpt lat="43.5691" lon="3.70533">
        <ele>92.2</ele>
        <time>2021-04-15T12:57:54Z</time>
      </trkpt>
      <trkpt lat="43.5691" lon="3.70533">
        <ele>90</ele>
        <time>2021-04-15T12:57:54Z</time>
      </trkpt>
      <trkpt lat="43.56911" lon="3.70533">
        <ele>92.3</ele>
        <time>2021-04-15T12:57:55Z</time>
      </trkpt>
      <trkpt lat="43.56911" lon="3.70533">
        <ele>90</ele>
        <time>2021-04-15T12:57:55Z</time>
      </trkpt>
      <trkpt lat="43.56912" lon="3.70533">
        <ele>92.4</ele>
        <time>2021-04-15T12:57:57Z</time>
      </trkpt>
      <trkpt lat="43.56912" lon="3.70533">
        <ele>90</ele>
        <time>2021-04-15T12:57:57Z</time>
      </trkpt>
      <trkpt lat="43.56914" lon="3.70532">
        <ele>92.4</ele>
        <time>2021-04-15T12:57:59Z</time>
      </trkpt>
      <trkpt lat="43.56914" lon="3.70532">
        <ele>90</ele>
        <time>2021-04-15T12:57:59Z</time>
      </trkpt>
      <trkpt lat="43.56915" lon="3.70532">
        <ele>92.5</ele>
        <time>2021-04-15T12:58:00Z</time>
      </trkpt>
      <trkpt lat="43.56915" lon="3.70532">
        <ele>90</ele>
        <time>2021-04-15T12:58:00Z</time>
      </trkpt>
      <trkpt lat="43.56916" lon="3.70531">
        <ele>92.6</ele>
        <time>2021-04-15T12:58:02Z</time>
      </trkpt>
      <trkpt lat="43.56916" lon="3.70531">
        <ele>90</ele>
        <time>2021-04-15T12:58:02Z</time>
      </trkpt>
      <trkpt lat="43.56918" lon="3.70531">
        <ele>92.7</ele>
        <time>2021-04-15T12:58:03Z</time>
      </trkpt>
      <trkpt lat="43.56918" lon="3.70531">
        <ele>90</ele>
        <time>2021-04-15T12:58:03Z</time>
      </trkpt>
      <trkpt lat="43.5692" lon="3.7053">
        <ele>92.8</ele>
        <time>2021-04-15T12:58:05Z</time>
      </trkpt>
      <trkpt lat="43.5692" lon="3.7053">
        <ele>90</ele>
        <time>2021-04-15T12:58:05Z</time>
      </trkpt>
      <trkpt lat="43.56922" lon="3.70529">
        <ele>92.9</ele>
        <time>2021-04-15T12:58:06Z</time>
      </trkpt>
      <trkpt lat="43.56922" lon="3.70529">
        <ele>90</ele>
        <time>2021-04-15T12:58:06Z</time>
      </trkpt>
      <trkpt lat="43.56924" lon="3.70528">
        <ele>93.1</ele>
        <time>2021-04-15T12:58:08Z</time>
      </trkpt>
      <trkpt lat="43.56924" lon="3.70528">
        <ele>90</ele>
        <time>2021-04-15T12:58:08Z</time>
      </trkpt>
      <trkpt lat="43.56925" lon="3.70528">
        <ele>93.3</ele>
        <time>2021-04-15T12:58:09Z</time>
      </trkpt>
      <trkpt lat="43.56925" lon="3.70528">
        <ele>90</ele>
        <time>2021-04-15T12:58:09Z</time>
      </trkpt>
      <trkpt lat="43.56927" lon="3.70528">
        <ele>93.5</ele>
        <time>2021-04-15T12:58:11Z</time>
      </trkpt>
      <trkpt lat="43.56927" lon="3.70528">
        <ele>92</ele>
        <time>2021-04-15T12:58:11Z</time>
      </trkpt>
      <trkpt lat="43.56928" lon="3.70528">
        <ele>93.7</ele>
        <time>2021-04-15T12:58:13Z</time>
      </trkpt>
      <trkpt lat="43.56928" lon="3.70528">
        <ele>92</ele>
        <time>2021-04-15T12:58:13Z</time>
      </trkpt>
      <trkpt lat="43.5693" lon="3.70528">
        <ele>94</ele>
        <time>2021-04-15T12:58:15Z</time>
      </trkpt>
      <trkpt lat="43.5693" lon="3.70528">
        <ele>92</ele>
        <time>2021-04-15T12:58:15Z</time>
      </trkpt>
      <trkpt lat="43.56932" lon="3.70527">
        <ele>94.2</ele>
        <time>2021-04-15T12:58:17Z</time>
      </trkpt>
      <trkpt lat="43.56932" lon="3.70527">
        <ele>92</ele>
        <time>2021-04-15T12:58:17Z</time>
      </trkpt>
      <trkpt lat="43.56935" lon="3.70527">
        <ele>94.5</ele>
        <time>2021-04-15T12:58:19Z</time>
      </trkpt>
      <trkpt lat="43.56935" lon="3.70527">
        <ele>92</ele>
        <time>2021-04-15T12:58:19Z</time>
      </trkpt>
      <trkpt lat="43.56938" lon="3.70527">
        <ele>94.8</ele>
        <time>2021-04-15T12:58:21Z</time>
      </trkpt>
      <trkpt lat="43.56938" lon="3.70527">
        <ele>92</ele>
        <time>2021-04-15T12:58:21Z</time>
      </trkpt>
      <trkpt lat="43.5694" lon="3.70527">
        <ele>95.2</ele>
        <time>2021-04-15T12:58:23Z</time>
      </trkpt>
      <trkpt lat="43.5694" lon="3.70527">
        <ele>92</ele>
        <time>2021-04-15T12:58:23Z</time>
      </trkpt>
      <trkpt lat="43.56942" lon="3.70527">
        <ele>95.5</ele>
        <time>2021-04-15T12:58:24Z</time>
      </trkpt>
      <trkpt lat="43.56942" lon="3.70527">
        <ele>92</ele>
        <time>2021-04-15T12:58:24Z</time>
      </trkpt>
      <trkpt lat="43.56944" lon="3.70527">
        <ele>95.6</ele>
        <time>2021-04-15T12:58:25Z</time>
      </trkpt>
      <trkpt lat="43.56944" lon="3.70527">
        <ele>92</ele>
        <time>2021-04-15T12:58:25Z</time>
      </trkpt>
      <trkpt lat="43.56945" lon="3.70526">
        <ele>95.7</ele>
        <time>2021-04-15T12:58:27Z</time>
      </trkpt>
      <trkpt lat="43.56945" lon="3.70526">
        <ele>92</ele>
        <time>2021-04-15T12:58:27Z</time>
      </trkpt>
      <trkpt lat="43.56947" lon="3.70526">
        <ele>95.8</ele>
        <time>2021-04-15T12:58:29Z</time>
      </trkpt>
      <trkpt lat="43.56947" lon="3.70526">
        <ele>94</ele>
        <time>2021-04-15T12:58:29Z</time>
      </trkpt>
      <trkpt lat="43.56949" lon="3.70525">
        <ele>95.8</ele>
        <time>2021-04-15T12:58:31Z</time>
      </trkpt>
      <trkpt lat="43.56949" lon="3.70525">
        <ele>94</ele>
        <time>2021-04-15T12:58:31Z</time>
      </trkpt>
      <trkpt lat="43.56951" lon="3.70525">
        <ele>95.9</ele>
        <time>2021-04-15T12:58:33Z</time>
      </trkpt>
      <trkpt lat="43.56951" lon="3.70525">
        <ele>94</ele>
        <time>2021-04-15T12:58:33Z</time>
      </trkpt>
      <trkpt lat="43.56952" lon="3.70525">
        <ele>95.9</ele>
        <time>2021-04-15T12:58:35Z</time>
      </trkpt>
      <trkpt lat="43.56952" lon="3.70525">
        <ele>94</ele>
        <time>2021-04-15T12:58:35Z</time>
      </trkpt>
      <trkpt lat="43.56959" lon="3.70526">
        <ele>96.8</ele>
        <time>2021-04-15T12:58:48Z</time>
      </trkpt>
      <trkpt lat="43.56959" lon="3.70526">
        <ele>95</ele>
        <time>2021-04-15T12:58:48Z</time>
      </trkpt>
      <trkpt lat="43.56959" lon="3.70527">
        <ele>96.9</ele>
        <time>2021-04-15T12:58:50Z</time>
      </trkpt>
      <trkpt lat="43.56959" lon="3.70527">
        <ele>95</ele>
        <time>2021-04-15T12:58:50Z</time>
      </trkpt>
      <trkpt lat="43.56961" lon="3.70527">
        <ele>97</ele>
        <time>2021-04-15T12:58:52Z</time>
      </trkpt>
      <trkpt lat="43.56961" lon="3.70527">
        <ele>95</ele>
        <time>2021-04-15T12:58:52Z</time>
      </trkpt>
      <trkpt lat="43.56962" lon="3.70527">
        <ele>97.2</ele>
        <time>2021-04-15T12:58:53Z</time>
      </trkpt>
      <trkpt lat="43.56962" lon="3.70527">
        <ele>95</ele>
        <time>2021-04-15T12:58:53Z</time>
      </trkpt>
      <trkpt lat="43.56964" lon="3.70527">
        <ele>97.2</ele>
        <time>2021-04-15T12:58:55Z</time>
      </trkpt>
      <trkpt lat="43.56964" lon="3.70527">
        <ele>95</ele>
        <time>2021-04-15T12:58:55Z</time>
      </trkpt>
      <trkpt lat="43.56966" lon="3.70526">
        <ele>97.3</ele>
        <time>2021-04-15T12:58:57Z</time>
      </trkpt>
      <trkpt lat="43.56966" lon="3.70526">
        <ele>95</ele>
        <time>2021-04-15T12:58:57Z</time>
      </trkpt>
      <trkpt lat="43.56968" lon="3.70526">
        <ele>97.4</ele>
        <time>2021-04-15T12:58:59Z</time>
      </trkpt>
      <trkpt lat="43.56968" lon="3.70526">
        <ele>95</ele>
        <time>2021-04-15T12:58:59Z</time>
      </trkpt>
      <trkpt lat="43.56969" lon="3.70525">
        <ele>97.4</ele>
        <time>2021-04-15T12:59:01Z</time>
      </trkpt>
      <trkpt lat="43.56969" lon="3.70525">
        <ele>95</ele>
        <time>2021-04-15T12:59:01Z</time>
      </trkpt>
      <trkpt lat="43.56971" lon="3.70525">
        <ele>97.5</ele>
        <time>2021-04-15T12:59:03Z</time>
      </trkpt>
      <trkpt lat="43.56971" lon="3.70525">
        <ele>95</ele>
        <time>2021-04-15T12:59:03Z</time>
      </trkpt>
      <trkpt lat="43.56973" lon="3.70524">
        <ele>97.6</ele>
        <time>2021-04-15T12:59:05Z</time>
      </trkpt>
      <trkpt lat="43.56973" lon="3.70524">
        <ele>97</ele>
        <time>2021-04-15T12:59:05Z</time>
      </trkpt>
      <trkpt lat="43.56975" lon="3.70524">
        <ele>97.8</ele>
        <time>2021-04-15T12:59:06Z</time>
      </trkpt>
      <trkpt lat="43.56975" lon="3.70524">
        <ele>97</ele>
        <time>2021-04-15T12:59:06Z</time>
      </trkpt>
      <trkpt lat="43.56977" lon="3.70523">
        <ele>97.9</ele>
        <time>2021-04-15T12:59:08Z</time>
      </trkpt>
      <trkpt lat="43.56977" lon="3.70523">
        <ele>97</ele>
        <time>2021-04-15T12:59:08Z</time>
      </trkpt>
      <trkpt lat="43.56978" lon="3.70522">
        <ele>98</ele>
        <time>2021-04-15T12:59:09Z</time>
      </trkpt>
      <trkpt lat="43.56978" lon="3.70522">
        <ele>97</ele>
        <time>2021-04-15T12:59:09Z</time>
      </trkpt>
      <trkpt lat="43.5698" lon="3.70522">
        <ele>98.1</ele>
        <time>2021-04-15T12:59:11Z</time>
      </trkpt>
      <trkpt lat="43.5698" lon="3.70522">
        <ele>97</ele>
        <time>2021-04-15T12:59:11Z</time>
      </trkpt>
      <trkpt lat="43.56981" lon="3.70521">
        <ele>98.1</ele>
        <time>2021-04-15T12:59:13Z</time>
      </trkpt>
      <trkpt lat="43.56981" lon="3.70521">
        <ele>97</ele>
        <time>2021-04-15T12:59:13Z</time>
      </trkpt>
      <trkpt lat="43.56982" lon="3.7052">
        <ele>98.2</ele>
        <time>2021-04-15T12:59:15Z</time>
      </trkpt>
      <trkpt lat="43.56982" lon="3.7052">
        <ele>97</ele>
        <time>2021-04-15T12:59:15Z</time>
      </trkpt>
      <trkpt lat="43.56984" lon="3.70519">
        <ele>98.2</ele>
        <time>2021-04-15T12:59:17Z</time>
      </trkpt>
      <trkpt lat="43.56984" lon="3.70519">
        <ele>97</ele>
        <time>2021-04-15T12:59:17Z</time>
      </trkpt>
      <trkpt lat="43.56985" lon="3.70518">
        <ele>98.4</ele>
        <time>2021-04-15T12:59:19Z</time>
      </trkpt>
      <trkpt lat="43.56985" lon="3.70518">
        <ele>97</ele>
        <time>2021-04-15T12:59:19Z</time>
      </trkpt>
      <trkpt lat="43.56987" lon="3.70517">
        <ele>98.4</ele>
        <time>2021-04-15T12:59:20Z</time>
      </trkpt>
      <trkpt lat="43.56987" lon="3.70517">
        <ele>97</ele>
        <time>2021-04-15T12:59:20Z</time>
      </trkpt>
      <trkpt lat="43.56988" lon="3.70516">
        <ele>98.5</ele>
        <time>2021-04-15T12:59:22Z</time>
      </trkpt>
      <trkpt lat="43.56988" lon="3.70516">
        <ele>98</ele>
        <time>2021-04-15T12:59:22Z</time>
      </trkpt>
      <trkpt lat="43.56995" lon="3.70513">
        <ele>99.3</ele>
        <time>2021-04-15T12:59:43Z</time>
      </trkpt>
      <trkpt lat="43.56995" lon="3.70513">
        <ele>98</ele>
        <time>2021-04-15T12:59:43Z</time>
      </trkpt>
      <trkpt lat="43.56996" lon="3.70513">
        <ele>99.3</ele>
        <time>2021-04-15T12:59:45Z</time>
      </trkpt>
      <trkpt lat="43.56996" lon="3.70513">
        <ele>98</ele>
        <time>2021-04-15T12:59:45Z</time>
      </trkpt>
      <trkpt lat="43.56997" lon="3.70514">
        <ele>99.5</ele>
        <time>2021-04-15T12:59:47Z</time>
      </trkpt>
      <trkpt lat="43.56997" lon="3.70514">
        <ele>98</ele>
        <time>2021-04-15T12:59:47Z</time>
      </trkpt>
      <trkpt lat="43.56998" lon="3.70514">
        <ele>99.7</ele>
        <time>2021-04-15T12:59:49Z</time>
      </trkpt>
      <trkpt lat="43.56998" lon="3.70514">
        <ele>99</ele>
        <time>2021-04-15T12:59:49Z</time>
      </trkpt>
      <trkpt lat="43.56999" lon="3.70514">
        <ele>99.8</ele>
        <time>2021-04-15T12:59:50Z</time>
      </trkpt>
      <trkpt lat="43.56999" lon="3.70514">
        <ele>99</ele>
        <time>2021-04-15T12:59:50Z</time>
      </trkpt>
      <trkpt lat="43.57" lon="3.70514">
        <ele>100</ele>
        <time>2021-04-15T12:59:52Z</time>
      </trkpt>
      <trkpt lat="43.57" lon="3.70514">
        <ele>99</ele>
        <time>2021-04-15T12:59:52Z</time>
      </trkpt>
      <trkpt lat="43.57002" lon="3.70513">
        <ele>100.1</ele>
        <time>2021-04-15T12:59:54Z</time>
      </trkpt>
      <trkpt lat="43.57002" lon="3.70513">
        <ele>99</ele>
        <time>2021-04-15T12:59:54Z</time>
      </trkpt>
      <trkpt lat="43.57003" lon="3.70512">
        <ele>100.1</ele>
        <time>2021-04-15T12:59:55Z</time>
      </trkpt>
      <trkpt lat="43.57003" lon="3.70512">
        <ele>99</ele>
        <time>2021-04-15T12:59:55Z</time>
      </trkpt>
      <trkpt lat="43.57005" lon="3.70511">
        <ele>100.2</ele>
        <time>2021-04-15T12:59:57Z</time>
      </trkpt>
      <trkpt lat="43.57005" lon="3.70511">
        <ele>100</ele>
        <time>2021-04-15T12:59:57Z</time>
      </trkpt>
      <trkpt lat="43.57007" lon="3.70509">
        <ele>100.3</ele>
        <time>2021-04-15T12:59:59Z</time>
      </trkpt>
      <trkpt lat="43.57007" lon="3.70509">
        <ele>100</ele>
        <time>2021-04-15T12:59:59Z</time>
      </trkpt>
      <trkpt lat="43.57009" lon="3.70507">
        <ele>100.3</ele>
        <time>2021-04-15T13:00:01Z</time>
      </trkpt>
      <trkpt lat="43.57009" lon="3.70507">
        <ele>100</ele>
        <time>2021-04-15T13:00:01Z</time>
      </trkpt>
      <trkpt lat="43.57012" lon="3.70505">
        <ele>100.4</ele>
        <time>2021-04-15T13:00:03Z</time>
      </trkpt>
      <trkpt lat="43.57012" lon="3.70505">
        <ele>100</ele>
        <time>2021-04-15T13:00:03Z</time>
      </trkpt>
      <trkpt lat="43.57014" lon="3.70503">
        <ele>100.6</ele>
        <time>2021-04-15T13:00:04Z</time>
      </trkpt>
      <trkpt lat="43.57014" lon="3.70503">
        <ele>100</ele>
        <time>2021-04-15T13:00:04Z</time>
      </trkpt>
      <trkpt lat="43.57015" lon="3.70502">
        <ele>100.7</ele>
        <time>2021-04-15T13:00:05Z</time>
      </trkpt>
      <trkpt lat="43.57015" lon="3.70502">
        <ele>100</ele>
        <time>2021-04-15T13:00:05Z</time>
      </trkpt>
      <trkpt lat="43.57018" lon="3.705">
        <ele>100.9</ele>
        <time>2021-04-15T13:00:07Z</time>
      </trkpt>
      <trkpt lat="43.57018" lon="3.705">
        <ele>100</ele>
        <time>2021-04-15T13:00:07Z</time>
      </trkpt>
      <trkpt lat="43.5702" lon="3.70499">
        <ele>101</ele>
        <time>2021-04-15T13:00:09Z</time>
      </trkpt>
      <trkpt lat="43.5702" lon="3.70499">
        <ele>100</ele>
        <time>2021-04-15T13:00:09Z</time>
      </trkpt>
      <trkpt lat="43.57022" lon="3.70497">
        <ele>101.1</ele>
        <time>2021-04-15T13:00:11Z</time>
      </trkpt>
      <trkpt lat="43.57022" lon="3.70497">
        <ele>100</ele>
        <time>2021-04-15T13:00:11Z</time>
      </trkpt>
      <trkpt lat="43.57024" lon="3.70495">
        <ele>101.2</ele>
        <time>2021-04-15T13:00:13Z</time>
      </trkpt>
      <trkpt lat="43.57024" lon="3.70495">
        <ele>100</ele>
        <time>2021-04-15T13:00:13Z</time>
      </trkpt>
      <trkpt lat="43.57026" lon="3.70494">
        <ele>101.4</ele>
        <time>2021-04-15T13:00:15Z</time>
      </trkpt>
      <trkpt lat="43.57026" lon="3.70494">
        <ele>100</ele>
        <time>2021-04-15T13:00:15Z</time>
      </trkpt>
      <trkpt lat="43.57029" lon="3.70492">
        <ele>101.4</ele>
        <time>2021-04-15T13:00:17Z</time>
      </trkpt>
      <trkpt lat="43.57029" lon="3.70492">
        <ele>100</ele>
        <time>2021-04-15T13:00:17Z</time>
      </trkpt>
      <trkpt lat="43.57031" lon="3.70489">
        <ele>101.4</ele>
        <time>2021-04-15T13:00:19Z</time>
      </trkpt>
      <trkpt lat="43.57031" lon="3.70489">
        <ele>100</ele>
        <time>2021-04-15T13:00:19Z</time>
      </trkpt>
      <trkpt lat="43.57033" lon="3.70487">
        <ele>101.3</ele>
        <time>2021-04-15T13:00:21Z</time>
      </trkpt>
      <trkpt lat="43.57033" lon="3.70487">
        <ele>100</ele>
        <time>2021-04-15T13:00:21Z</time>
      </trkpt>
      <trkpt lat="43.57035" lon="3.70484">
        <ele>101.3</ele>
        <time>2021-04-15T13:00:23Z</time>
      </trkpt>
      <trkpt lat="43.57035" lon="3.70484">
        <ele>100</ele>
        <time>2021-04-15T13:00:23Z</time>
      </trkpt>
      <trkpt lat="43.57037" lon="3.70483">
        <ele>101.3</ele>
        <time>2021-04-15T13:00:24Z</time>
      </trkpt>
      <trkpt lat="43.57037" lon="3.70483">
        <ele>100</ele>
        <time>2021-04-15T13:00:24Z</time>
      </trkpt>
      <trkpt lat="43.57039" lon="3.70481">
        <ele>101.3</ele>
        <time>2021-04-15T13:00:25Z</time>
      </trkpt>
      <trkpt lat="43.57039" lon="3.70481">
        <ele>100</ele>
        <time>2021-04-15T13:00:25Z</time>
      </trkpt>
      <trkpt lat="43.5704" lon="3.7048">
        <ele>101.3</ele>
        <time>2021-04-15T13:00:27Z</time>
      </trkpt>
      <trkpt lat="43.5704" lon="3.7048">
        <ele>100</ele>
        <time>2021-04-15T13:00:27Z</time>
      </trkpt>
      <trkpt lat="43.57042" lon="3.70478">
        <ele>101.3</ele>
        <time>2021-04-15T13:00:29Z</time>
      </trkpt>
      <trkpt lat="43.57042" lon="3.70478">
        <ele>100</ele>
        <time>2021-04-15T13:00:29Z</time>
      </trkpt>
      <trkpt lat="43.57043" lon="3.70476">
        <ele>101.3</ele>
        <time>2021-04-15T13:00:31Z</time>
      </trkpt>
      <trkpt lat="43.57043" lon="3.70476">
        <ele>100</ele>
        <time>2021-04-15T13:00:31Z</time>
      </trkpt>
      <trkpt lat="43.57045" lon="3.70475">
        <ele>101.4</ele>
        <time>2021-04-15T13:00:33Z</time>
      </trkpt>
      <trkpt lat="43.57045" lon="3.70475">
        <ele>100</ele>
        <time>2021-04-15T13:00:33Z</time>
      </trkpt>
      <trkpt lat="43.57047" lon="3.70473">
        <ele>101.4</ele>
        <time>2021-04-15T13:00:35Z</time>
      </trkpt>
      <trkpt lat="43.57047" lon="3.70473">
        <ele>100</ele>
        <time>2021-04-15T13:00:35Z</time>
      </trkpt>
      <trkpt lat="43.57049" lon="3.70471">
        <ele>101.5</ele>
        <time>2021-04-15T13:00:37Z</time>
      </trkpt>
      <trkpt lat="43.57049" lon="3.70471">
        <ele>100</ele>
        <time>2021-04-15T13:00:37Z</time>
      </trkpt>
      <trkpt lat="43.57051" lon="3.7047">
        <ele>101.4</ele>
        <time>2021-04-15T13:00:38Z</time>
      </trkpt>
      <trkpt lat="43.57051" lon="3.7047">
        <ele>100</ele>
        <time>2021-04-15T13:00:38Z</time>
      </trkpt>
      <trkpt lat="43.57053" lon="3.70469">
        <ele>101.5</ele>
        <time>2021-04-15T13:00:40Z</time>
      </trkpt>
      <trkpt lat="43.57053" lon="3.70469">
        <ele>100</ele>
        <time>2021-04-15T13:00:40Z</time>
      </trkpt>
      <trkpt lat="43.57054" lon="3.70467">
        <ele>101.5</ele>
        <time>2021-04-15T13:00:41Z</time>
      </trkpt>
      <trkpt lat="43.57054" lon="3.70467">
        <ele>100</ele>
        <time>2021-04-15T13:00:41Z</time>
      </trkpt>
      <trkpt lat="43.57056" lon="3.70466">
        <ele>101.6</ele>
        <time>2021-04-15T13:00:43Z</time>
      </trkpt>
      <trkpt lat="43.57056" lon="3.70466">
        <ele>100</ele>
        <time>2021-04-15T13:00:43Z</time>
      </trkpt>
      <trkpt lat="43.57058" lon="3.70464">
        <ele>101.5</ele>
        <time>2021-04-15T13:00:45Z</time>
      </trkpt>
      <trkpt lat="43.57058" lon="3.70464">
        <ele>100</ele>
        <time>2021-04-15T13:00:45Z</time>
      </trkpt>
      <trkpt lat="43.5706" lon="3.70463">
        <ele>101.4</ele>
        <time>2021-04-15T13:00:46Z</time>
      </trkpt>
      <trkpt lat="43.5706" lon="3.70463">
        <ele>100</ele>
        <time>2021-04-15T13:00:46Z</time>
      </trkpt>
      <trkpt lat="43.57061" lon="3.70461">
        <ele>101.4</ele>
        <time>2021-04-15T13:00:47Z</time>
      </trkpt>
      <trkpt lat="43.57061" lon="3.70461">
        <ele>100</ele>
        <time>2021-04-15T13:00:47Z</time>
      </trkpt>
      <trkpt lat="43.57063" lon="3.7046">
        <ele>101.3</ele>
        <time>2021-04-15T13:00:49Z</time>
      </trkpt>
      <trkpt lat="43.57063" lon="3.7046">
        <ele>100</ele>
        <time>2021-04-15T13:00:49Z</time>
      </trkpt>
      <trkpt lat="43.57064" lon="3.70459">
        <ele>101.3</ele>
        <time>2021-04-15T13:00:50Z</time>
      </trkpt>
      <trkpt lat="43.57064" lon="3.70459">
        <ele>100</ele>
        <time>2021-04-15T13:00:50Z</time>
      </trkpt>
      <trkpt lat="43.57065" lon="3.70458">
        <ele>101.3</ele>
        <time>2021-04-15T13:00:51Z</time>
      </trkpt>
      <trkpt lat="43.57065" lon="3.70458">
        <ele>101</ele>
        <time>2021-04-15T13:00:51Z</time>
      </trkpt>
      <trkpt lat="43.57067" lon="3.70457">
        <ele>101.3</ele>
        <time>2021-04-15T13:00:53Z</time>
      </trkpt>
      <trkpt lat="43.57067" lon="3.70457">
        <ele>101</ele>
        <time>2021-04-15T13:00:53Z</time>
      </trkpt>
      <trkpt lat="43.57068" lon="3.70456">
        <ele>101.3</ele>
        <time>2021-04-15T13:00:54Z</time>
      </trkpt>
      <trkpt lat="43.57068" lon="3.70456">
        <ele>101</ele>
        <time>2021-04-15T13:00:54Z</time>
      </trkpt>
      <trkpt lat="43.57069" lon="3.70455">
        <ele>101.4</ele>
        <time>2021-04-15T13:00:56Z</time>
      </trkpt>
      <trkpt lat="43.57069" lon="3.70455">
        <ele>101</ele>
        <time>2021-04-15T13:00:56Z</time>
      </trkpt>
      <trkpt lat="43.57071" lon="3.70454">
        <ele>101.4</ele>
        <time>2021-04-15T13:00:57Z</time>
      </trkpt>
      <trkpt lat="43.57071" lon="3.70454">
        <ele>101</ele>
        <time>2021-04-15T13:00:57Z</time>
      </trkpt>
      <trkpt lat="43.57072" lon="3.70453">
        <ele>101.5</ele>
        <time>2021-04-15T13:00:59Z</time>
      </trkpt>
      <trkpt lat="43.57072" lon="3.70453">
        <ele>101</ele>
        <time>2021-04-15T13:00:59Z</time>
      </trkpt>
      <trkpt lat="43.57074" lon="3.70452">
        <ele>101.5</ele>
        <time>2021-04-15T13:01:01Z</time>
      </trkpt>
      <trkpt lat="43.57074" lon="3.70452">
        <ele>101</ele>
        <time>2021-04-15T13:01:01Z</time>
      </trkpt>
      <trkpt lat="43.57076" lon="3.70451">
        <ele>101.6</ele>
        <time>2021-04-15T13:01:02Z</time>
      </trkpt>
      <trkpt lat="43.57076" lon="3.70451">
        <ele>101</ele>
        <time>2021-04-15T13:01:02Z</time>
      </trkpt>
      <trkpt lat="43.57078" lon="3.7045">
        <ele>101.7</ele>
        <time>2021-04-15T13:01:04Z</time>
      </trkpt>
      <trkpt lat="43.57078" lon="3.7045">
        <ele>101</ele>
        <time>2021-04-15T13:01:04Z</time>
      </trkpt>
      <trkpt lat="43.5708" lon="3.70449">
        <ele>101.8</ele>
        <time>2021-04-15T13:01:06Z</time>
      </trkpt>
      <trkpt lat="43.5708" lon="3.70449">
        <ele>101</ele>
        <time>2021-04-15T13:01:06Z</time>
      </trkpt>
      <trkpt lat="43.57081" lon="3.70448">
        <ele>101.9</ele>
        <time>2021-04-15T13:01:07Z</time>
      </trkpt>
      <trkpt lat="43.57081" lon="3.70448">
        <ele>101</ele>
        <time>2021-04-15T13:01:07Z</time>
      </trkpt>
      <trkpt lat="43.57083" lon="3.70448">
        <ele>102</ele>
        <time>2021-04-15T13:01:09Z</time>
      </trkpt>
      <trkpt lat="43.57083" lon="3.70448">
        <ele>102</ele>
        <time>2021-04-15T13:01:09Z</time>
      </trkpt>
      <trkpt lat="43.57085" lon="3.70447">
        <ele>101.9</ele>
        <time>2021-04-15T13:01:11Z</time>
      </trkpt>
      <trkpt lat="43.57085" lon="3.70447">
        <ele>102</ele>
        <time>2021-04-15T13:01:11Z</time>
      </trkpt>
      <trkpt lat="43.57087" lon="3.70446">
        <ele>101.8</ele>
        <time>2021-04-15T13:01:12Z</time>
      </trkpt>
      <trkpt lat="43.57087" lon="3.70446">
        <ele>102</ele>
        <time>2021-04-15T13:01:12Z</time>
      </trkpt>
      <trkpt lat="43.57089" lon="3.70446">
        <ele>101.8</ele>
        <time>2021-04-15T13:01:13Z</time>
      </trkpt>
      <trkpt lat="43.57089" lon="3.70446">
        <ele>102</ele>
        <time>2021-04-15T13:01:13Z</time>
      </trkpt>
      <trkpt lat="43.57091" lon="3.70445">
        <ele>101.7</ele>
        <time>2021-04-15T13:01:15Z</time>
      </trkpt>
      <trkpt lat="43.57091" lon="3.70445">
        <ele>102</ele>
        <time>2021-04-15T13:01:15Z</time>
      </trkpt>
      <trkpt lat="43.57092" lon="3.70444">
        <ele>101.7</ele>
        <time>2021-04-15T13:01:16Z</time>
      </trkpt>
      <trkpt lat="43.57092" lon="3.70444">
        <ele>102</ele>
        <time>2021-04-15T13:01:16Z</time>
      </trkpt>
      <trkpt lat="43.57094" lon="3.70443">
        <ele>101.6</ele>
        <time>2021-04-15T13:01:17Z</time>
      </trkpt>
      <trkpt lat="43.57094" lon="3.70443">
        <ele>102</ele>
        <time>2021-04-15T13:01:17Z</time>
      </trkpt>
      <trkpt lat="43.57096" lon="3.70442">
        <ele>101.6</ele>
        <time>2021-04-15T13:01:19Z</time>
      </trkpt>
      <trkpt lat="43.57096" lon="3.70442">
        <ele>102</ele>
        <time>2021-04-15T13:01:19Z</time>
      </trkpt>
      <trkpt lat="43.57097" lon="3.70441">
        <ele>101.5</ele>
        <time>2021-04-15T13:01:20Z</time>
      </trkpt>
      <trkpt lat="43.57097" lon="3.70441">
        <ele>102</ele>
        <time>2021-04-15T13:01:20Z</time>
      </trkpt>
      <trkpt lat="43.57099" lon="3.7044">
        <ele>101.4</ele>
        <time>2021-04-15T13:01:22Z</time>
      </trkpt>
      <trkpt lat="43.57099" lon="3.7044">
        <ele>102</ele>
        <time>2021-04-15T13:01:22Z</time>
      </trkpt>
      <trkpt lat="43.57101" lon="3.70439">
        <ele>101.4</ele>
        <time>2021-04-15T13:01:23Z</time>
      </trkpt>
      <trkpt lat="43.57101" lon="3.70439">
        <ele>102</ele>
        <time>2021-04-15T13:01:23Z</time>
      </trkpt>
      <trkpt lat="43.57103" lon="3.70438">
        <ele>101.3</ele>
        <time>2021-04-15T13:01:25Z</time>
      </trkpt>
      <trkpt lat="43.57103" lon="3.70438">
        <ele>102</ele>
        <time>2021-04-15T13:01:25Z</time>
      </trkpt>
      <trkpt lat="43.57105" lon="3.70437">
        <ele>101.2</ele>
        <time>2021-04-15T13:01:27Z</time>
      </trkpt>
      <trkpt lat="43.57105" lon="3.70437">
        <ele>101</ele>
        <time>2021-04-15T13:01:27Z</time>
      </trkpt>
      <trkpt lat="43.57106" lon="3.70435">
        <ele>101.2</ele>
        <time>2021-04-15T13:01:28Z</time>
      </trkpt>
      <trkpt lat="43.57106" lon="3.70435">
        <ele>101</ele>
        <time>2021-04-15T13:01:28Z</time>
      </trkpt>
      <trkpt lat="43.57108" lon="3.70433">
        <ele>101.1</ele>
        <time>2021-04-15T13:01:30Z</time>
      </trkpt>
      <trkpt lat="43.57108" lon="3.70433">
        <ele>101</ele>
        <time>2021-04-15T13:01:30Z</time>
      </trkpt>
      <trkpt lat="43.5711" lon="3.70431">
        <ele>101</ele>
        <time>2021-04-15T13:01:32Z</time>
      </trkpt>
      <trkpt lat="43.5711" lon="3.70431">
        <ele>101</ele>
        <time>2021-04-15T13:01:32Z</time>
      </trkpt>
      <trkpt lat="43.57111" lon="3.7043">
        <ele>101</ele>
        <time>2021-04-15T13:01:33Z</time>
      </trkpt>
      <trkpt lat="43.57111" lon="3.7043">
        <ele>101</ele>
        <time>2021-04-15T13:01:33Z</time>
      </trkpt>
      <trkpt lat="43.57113" lon="3.70428">
        <ele>101</ele>
        <time>2021-04-15T13:01:35Z</time>
      </trkpt>
      <trkpt lat="43.57113" lon="3.70428">
        <ele>101</ele>
        <time>2021-04-15T13:01:35Z</time>
      </trkpt>
      <trkpt lat="43.57114" lon="3.70426">
        <ele>100.9</ele>
        <time>2021-04-15T13:01:37Z</time>
      </trkpt>
      <trkpt lat="43.57114" lon="3.70426">
        <ele>101</ele>
        <time>2021-04-15T13:01:37Z</time>
      </trkpt>
      <trkpt lat="43.57116" lon="3.70425">
        <ele>100.9</ele>
        <time>2021-04-15T13:01:38Z</time>
      </trkpt>
      <trkpt lat="43.57116" lon="3.70425">
        <ele>101</ele>
        <time>2021-04-15T13:01:38Z</time>
      </trkpt>
      <trkpt lat="43.57118" lon="3.70423">
        <ele>100.9</ele>
        <time>2021-04-15T13:01:40Z</time>
      </trkpt>
      <trkpt lat="43.57118" lon="3.70423">
        <ele>101</ele>
        <time>2021-04-15T13:01:40Z</time>
      </trkpt>
      <trkpt lat="43.57119" lon="3.70422">
        <ele>100.9</ele>
        <time>2021-04-15T13:01:41Z</time>
      </trkpt>
      <trkpt lat="43.57119" lon="3.70422">
        <ele>101</ele>
        <time>2021-04-15T13:01:41Z</time>
      </trkpt>
      <trkpt lat="43.57121" lon="3.7042">
        <ele>100.9</ele>
        <time>2021-04-15T13:01:43Z</time>
      </trkpt>
      <trkpt lat="43.57121" lon="3.7042">
        <ele>101</ele>
        <time>2021-04-15T13:01:43Z</time>
      </trkpt>
      <trkpt lat="43.57123" lon="3.70419">
        <ele>100.9</ele>
        <time>2021-04-15T13:01:45Z</time>
      </trkpt>
      <trkpt lat="43.57123" lon="3.70419">
        <ele>100</ele>
        <time>2021-04-15T13:01:45Z</time>
      </trkpt>
      <trkpt lat="43.57125" lon="3.70417">
        <ele>101</ele>
        <time>2021-04-15T13:01:46Z</time>
      </trkpt>
      <trkpt lat="43.57125" lon="3.70417">
        <ele>100</ele>
        <time>2021-04-15T13:01:46Z</time>
      </trkpt>
      <trkpt lat="43.57126" lon="3.70416">
        <ele>101</ele>
        <time>2021-04-15T13:01:48Z</time>
      </trkpt>
      <trkpt lat="43.57126" lon="3.70416">
        <ele>100</ele>
        <time>2021-04-15T13:01:48Z</time>
      </trkpt>
      <trkpt lat="43.57127" lon="3.70416">
        <ele>101</ele>
        <time>2021-04-15T13:01:49Z</time>
      </trkpt>
      <trkpt lat="43.57127" lon="3.70416">
        <ele>100</ele>
        <time>2021-04-15T13:01:49Z</time>
      </trkpt>
      <trkpt lat="43.58327" lon="3.68307">
        <ele>192.2</ele>
        <time>2021-04-15T13:43:15Z</time>
      </trkpt>
      <trkpt lat="43.58327" lon="3.68307">
        <ele>192.2</ele>
        <time>2021-04-15T13:43:15Z</time>
      </trkpt>
      <trkpt lat="43.58327" lon="3.68307">
        <ele>192.2</ele>
        <time>2021-04-15T13:43:17Z</time>
      </trkpt>
      <trkpt lat="43.58327" lon="3.68307">
        <ele>192.2</ele>
        <time>2021-04-15T13:43:17Z</time>
      </trkpt>
      <trkpt lat="43.58327" lon="3.68306">
        <ele>192.2</ele>
        <time>2021-04-15T13:43:18Z</time>
      </trkpt>
      <trkpt lat="43.58327" lon="3.68306">
        <ele>192.2</ele>
        <time>2021-04-15T13:43:18Z</time>
      </trkpt>
      <trkpt lat="43.58327" lon="3.68305">
        <ele>192.2</ele>
        <time>2021-04-15T13:43:19Z</time>
      </trkpt>
      <trkpt lat="43.58327" lon="3.68305">
        <ele>192.2</ele>
        <time>2021-04-15T13:43:19Z</time>
      </trkpt>
      <trkpt lat="43.58327" lon="3.68304">
        <ele>192.2</ele>
        <time>2021-04-15T13:43:21Z</time>
      </trkpt>
      <trkpt lat="43.58327" lon="3.68304">
        <ele>192.2</ele>
        <time>2021-04-15T13:43:21Z</time>
      </trkpt>
      <trkpt lat="43.58327" lon="3.68301">
        <ele>192.1</ele>
        <time>2021-04-15T13:43:23Z</time>
      </trkpt>
      <trkpt lat="43.58327" lon="3.68301">
        <ele>192.1</ele>
        <time>2021-04-15T13:43:23Z</time>
      </trkpt>
      <trkpt lat="43.58327" lon="3.68299">
        <ele>192.1</ele>
        <time>2021-04-15T13:43:25Z</time>
      </trkpt>
      <trkpt lat="43.58327" lon="3.68299">
        <ele>192.1</ele>
        <time>2021-04-15T13:43:25Z</time>
      </trkpt>
      <trkpt lat="43.58326" lon="3.68296">
        <ele>192</ele>
        <time>2021-04-15T13:43:27Z</time>
      </trkpt>
      <trkpt lat="43.58326" lon="3.68296">
        <ele>192</ele>
        <time>2021-04-15T13:43:27Z</time>
      </trkpt>
      <trkpt lat="43.58326" lon="3.68293">
        <ele>191.9</ele>
        <time>2021-04-15T13:43:29Z</time>
      </trkpt>
      <trkpt lat="43.58326" lon="3.68293">
        <ele>191</ele>
        <time>2021-04-15T13:43:29Z</time>
      </trkpt>
      <trkpt lat="43.58326" lon="3.68291">
        <ele>191.9</ele>
        <time>2021-04-15T13:43:30Z</time>
      </trkpt>
      <trkpt lat="43.58326" lon="3.68291">
        <ele>191</ele>
        <time>2021-04-15T13:43:30Z</time>
      </trkpt>
      <trkpt lat="43.58326" lon="3.68289">
        <ele>191.8</ele>
        <time>2021-04-15T13:43:31Z</time>
      </trkpt>
      <trkpt lat="43.58326" lon="3.68289">
        <ele>191</ele>
        <time>2021-04-15T13:43:31Z</time>
      </trkpt>
      <trkpt lat="43.58326" lon="3.68287">
        <ele>191.8</ele>
        <time>2021-04-15T13:43:33Z</time>
      </trkpt>
      <trkpt lat="43.58326" lon="3.68287">
        <ele>191</ele>
        <time>2021-04-15T13:43:33Z</time>
      </trkpt>
      <trkpt lat="43.58326" lon="3.68284">
        <ele>191.7</ele>
        <time>2021-04-15T13:43:35Z</time>
      </trkpt>
      <trkpt lat="43.58326" lon="3.68284">
        <ele>191</ele>
        <time>2021-04-15T13:43:35Z</time>
      </trkpt>
      <trkpt lat="43.58325" lon="3.68281">
        <ele>191.7</ele>
        <time>2021-04-15T13:43:36Z</time>
      </trkpt>
      <trkpt lat="43.58325" lon="3.68281">
        <ele>191</ele>
        <time>2021-04-15T13:43:36Z</time>
      </trkpt>
      <trkpt lat="43.58325" lon="3.68279">
        <ele>191.6</ele>
        <time>2021-04-15T13:43:37Z</time>
      </trkpt>
      <trkpt lat="43.58325" lon="3.68279">
        <ele>191</ele>
        <time>2021-04-15T13:43:37Z</time>
      </trkpt>
      <trkpt lat="43.58325" lon="3.68277">
        <ele>191.6</ele>
        <time>2021-04-15T13:43:39Z</time>
      </trkpt>
      <trkpt lat="43.58325" lon="3.68277">
        <ele>191</ele>
        <time>2021-04-15T13:43:39Z</time>
      </trkpt>
      <trkpt lat="43.58324" lon="3.68276">
        <ele>191.6</ele>
        <time>2021-04-15T13:43:40Z</time>
      </trkpt>
      <trkpt lat="43.58324" lon="3.68276">
        <ele>191</ele>
        <time>2021-04-15T13:43:40Z</time>
      </trkpt>
      <trkpt lat="43.58324" lon="3.68274">
        <ele>191.6</ele>
        <time>2021-04-15T13:43:41Z</time>
      </trkpt>
      <trkpt lat="43.58324" lon="3.68274">
        <ele>191</ele>
        <time>2021-04-15T13:43:41Z</time>
      </trkpt>
      <trkpt lat="43.58324" lon="3.68273">
        <ele>191.6</ele>
        <time>2021-04-15T13:43:43Z</time>
      </trkpt>
      <trkpt lat="43.58324" lon="3.68273">
        <ele>191</ele>
        <time>2021-04-15T13:43:43Z</time>
      </trkpt>
      <trkpt lat="43.58323" lon="3.68271">
        <ele>191.6</ele>
        <time>2021-04-15T13:43:44Z</time>
      </trkpt>
      <trkpt lat="43.58323" lon="3.68271">
        <ele>191</ele>
        <time>2021-04-15T13:43:44Z</time>
      </trkpt>
      <trkpt lat="43.58322" lon="3.6827">
        <ele>191.6</ele>
        <time>2021-04-15T13:43:46Z</time>
      </trkpt>
      <trkpt lat="43.58322" lon="3.6827">
        <ele>191</ele>
        <time>2021-04-15T13:43:46Z</time>
      </trkpt>
      <trkpt lat="43.58322" lon="3.68268">
        <ele>191.6</ele>
        <time>2021-04-15T13:43:47Z</time>
      </trkpt>
      <trkpt lat="43.58322" lon="3.68268">
        <ele>191</ele>
        <time>2021-04-15T13:43:47Z</time>
      </trkpt>
      <trkpt lat="43.58321" lon="3.68266">
        <ele>191.7</ele>
        <time>2021-04-15T13:43:48Z</time>
      </trkpt>
      <trkpt lat="43.58321" lon="3.68266">
        <ele>191</ele>
        <time>2021-04-15T13:43:48Z</time>
      </trkpt>
      <trkpt lat="43.5832" lon="3.68264">
        <ele>191.7</ele>
        <time>2021-04-15T13:43:49Z</time>
      </trkpt>
      <trkpt lat="43.5832" lon="3.68264">
        <ele>191</ele>
        <time>2021-04-15T13:43:49Z</time>
      </trkpt>
      <trkpt lat="43.5832" lon="3.68262">
        <ele>191.7</ele>
        <time>2021-04-15T13:43:51Z</time>
      </trkpt>
      <trkpt lat="43.5832" lon="3.68262">
        <ele>191</ele>
        <time>2021-04-15T13:43:51Z</time>
      </trkpt>
      <trkpt lat="43.5832" lon="3.68259">
        <ele>191.6</ele>
        <time>2021-04-15T13:43:53Z</time>
      </trkpt>
      <trkpt lat="43.5832" lon="3.68259">
        <ele>191</ele>
        <time>2021-04-15T13:43:53Z</time>
      </trkpt>
      <trkpt lat="43.5832" lon="3.68257">
        <ele>191.6</ele>
        <time>2021-04-15T13:43:55Z</time>
      </trkpt>
      <trkpt lat="43.5832" lon="3.68257">
        <ele>191</ele>
        <time>2021-04-15T13:43:55Z</time>
      </trkpt>
      <trkpt lat="43.58319" lon="3.68254">
        <ele>191.6</ele>
        <time>2021-04-15T13:43:57Z</time>
      </trkpt>
      <trkpt lat="43.58319" lon="3.68254">
        <ele>191</ele>
        <time>2021-04-15T13:43:57Z</time>
      </trkpt>
      <trkpt lat="43.58319" lon="3.68252">
        <ele>191.6</ele>
        <time>2021-04-15T13:43:59Z</time>
      </trkpt>
      <trkpt lat="43.58319" lon="3.68252">
        <ele>191</ele>
        <time>2021-04-15T13:43:59Z</time>
      </trkpt>
      <trkpt lat="43.58318" lon="3.68249">
        <ele>191.6</ele>
        <time>2021-04-15T13:44:01Z</time>
      </trkpt>
      <trkpt lat="43.58318" lon="3.68249">
        <ele>191</ele>
        <time>2021-04-15T13:44:01Z</time>
      </trkpt>
      <trkpt lat="43.58318" lon="3.68247">
        <ele>191.5</ele>
        <time>2021-04-15T13:44:02Z</time>
      </trkpt>
      <trkpt lat="43.58318" lon="3.68247">
        <ele>191</ele>
        <time>2021-04-15T13:44:02Z</time>
      </trkpt>
      <trkpt lat="43.58318" lon="3.68244">
        <ele>191.5</ele>
        <time>2021-04-15T13:44:04Z</time>
      </trkpt>
      <trkpt lat="43.58318" lon="3.68244">
        <ele>191</ele>
        <time>2021-04-15T13:44:04Z</time>
      </trkpt>
      <trkpt lat="43.58317" lon="3.68242">
        <ele>191.4</ele>
        <time>2021-04-15T13:44:05Z</time>
      </trkpt>
      <trkpt lat="43.58317" lon="3.68242">
        <ele>191</ele>
        <time>2021-04-15T13:44:05Z</time>
      </trkpt>
      <trkpt lat="43.58317" lon="3.6824">
        <ele>191.4</ele>
        <time>2021-04-15T13:44:06Z</time>
      </trkpt>
      <trkpt lat="43.58317" lon="3.6824">
        <ele>191</ele>
        <time>2021-04-15T13:44:06Z</time>
      </trkpt>
      <trkpt lat="43.58317" lon="3.68237">
        <ele>191.3</ele>
        <time>2021-04-15T13:44:08Z</time>
      </trkpt>
      <trkpt lat="43.58317" lon="3.68237">
        <ele>191</ele>
        <time>2021-04-15T13:44:08Z</time>
      </trkpt>
      <trkpt lat="43.58317" lon="3.68235">
        <ele>191.3</ele>
        <time>2021-04-15T13:44:09Z</time>
      </trkpt>
      <trkpt lat="43.58317" lon="3.68235">
        <ele>191</ele>
        <time>2021-04-15T13:44:09Z</time>
      </trkpt>
      <trkpt lat="43.58316" lon="3.68232">
        <ele>191.2</ele>
        <time>2021-04-15T13:44:11Z</time>
      </trkpt>
      <trkpt lat="43.58316" lon="3.68232">
        <ele>191</ele>
        <time>2021-04-15T13:44:11Z</time>
      </trkpt>
      <trkpt lat="43.58317" lon="3.6823">
        <ele>191.1</ele>
        <time>2021-04-15T13:44:13Z</time>
      </trkpt>
      <trkpt lat="43.58317" lon="3.6823">
        <ele>191</ele>
        <time>2021-04-15T13:44:13Z</time>
      </trkpt>
      <trkpt lat="43.58317" lon="3.68228">
        <ele>191</ele>
        <time>2021-04-15T13:44:14Z</time>
      </trkpt>
      <trkpt lat="43.58317" lon="3.68228">
        <ele>191</ele>
        <time>2021-04-15T13:44:14Z</time>
      </trkpt>
      <trkpt lat="43.58318" lon="3.68224">
        <ele>190.7</ele>
        <time>2021-04-15T13:44:22Z</time>
      </trkpt>
      <trkpt lat="43.58318" lon="3.68224">
        <ele>191</ele>
        <time>2021-04-15T13:44:22Z</time>
      </trkpt>
      <trkpt lat="43.58318" lon="3.68224">
        <ele>190.7</ele>
        <time>2021-04-15T13:44:23Z</time>
      </trkpt>
      <trkpt lat="43.58318" lon="3.68224">
        <ele>191</ele>
        <time>2021-04-15T13:44:23Z</time>
      </trkpt>
      <trkpt lat="43.58318" lon="3.68223">
        <ele>190.7</ele>
        <time>2021-04-15T13:44:24Z</time>
      </trkpt>
      <trkpt lat="43.58318" lon="3.68223">
        <ele>191</ele>
        <time>2021-04-15T13:44:24Z</time>
      </trkpt>
      <trkpt lat="43.58318" lon="3.68222">
        <ele>190.7</ele>
        <time>2021-04-15T13:44:25Z</time>
      </trkpt>
      <trkpt lat="43.58318" lon="3.68222">
        <ele>191</ele>
        <time>2021-04-15T13:44:25Z</time>
      </trkpt>
      <trkpt lat="43.58318" lon="3.68221">
        <ele>190.7</ele>
        <time>2021-04-15T13:44:27Z</time>
      </trkpt>
      <trkpt lat="43.58318" lon="3.68221">
        <ele>191</ele>
        <time>2021-04-15T13:44:27Z</time>
      </trkpt>
      <trkpt lat="43.58317" lon="3.68218">
        <ele>190.6</ele>
        <time>2021-04-15T13:44:29Z</time>
      </trkpt>
      <trkpt lat="43.58317" lon="3.68218">
        <ele>191</ele>
        <time>2021-04-15T13:44:29Z</time>
      </trkpt>
      <trkpt lat="43.58317" lon="3.68216">
        <ele>190.6</ele>
        <time>2021-04-15T13:44:31Z</time>
      </trkpt>
      <trkpt lat="43.58317" lon="3.68216">
        <ele>191</ele>
        <time>2021-04-15T13:44:31Z</time>
      </trkpt>
      <trkpt lat="43.58317" lon="3.68213">
        <ele>190.6</ele>
        <time>2021-04-15T13:44:33Z</time>
      </trkpt>
      <trkpt lat="43.58317" lon="3.68213">
        <ele>191</ele>
        <time>2021-04-15T13:44:33Z</time>
      </trkpt>
      <trkpt lat="43.58316" lon="3.68211">
        <ele>190.5</ele>
        <time>2021-04-15T13:44:35Z</time>
      </trkpt>
      <trkpt lat="43.58316" lon="3.68211">
        <ele>191</ele>
        <time>2021-04-15T13:44:35Z</time>
      </trkpt>
      <trkpt lat="43.58316" lon="3.68209">
        <ele>190.5</ele>
        <time>2021-04-15T13:44:37Z</time>
      </trkpt>
      <trkpt lat="43.58316" lon="3.68209">
        <ele>191</ele>
        <time>2021-04-15T13:44:37Z</time>
      </trkpt>
      <trkpt lat="43.58316" lon="3.68206">
        <ele>190.5</ele>
        <time>2021-04-15T13:44:39Z</time>
      </trkpt>
      <trkpt lat="43.58316" lon="3.68206">
        <ele>191</ele>
        <time>2021-04-15T13:44:39Z</time>
      </trkpt>
      <trkpt lat="43.58315" lon="3.68204">
        <ele>190.5</ele>
        <time>2021-04-15T13:44:40Z</time>
      </trkpt>
      <trkpt lat="43.58315" lon="3.68204">
        <ele>189</ele>
        <time>2021-04-15T13:44:40Z</time>
      </trkpt>
      <trkpt lat="43.58315" lon="3.68202">
        <ele>190.5</ele>
        <time>2021-04-15T13:44:42Z</time>
      </trkpt>
      <trkpt lat="43.58315" lon="3.68202">
        <ele>189</ele>
        <time>2021-04-15T13:44:42Z</time>
      </trkpt>
      <trkpt lat="43.58314" lon="3.682">
        <ele>190.5</ele>
        <time>2021-04-15T13:44:43Z</time>
      </trkpt>
      <trkpt lat="43.58314" lon="3.682">
        <ele>189</ele>
        <time>2021-04-15T13:44:43Z</time>
      </trkpt>
      <trkpt lat="43.58314" lon="3.68197">
        <ele>190.6</ele>
        <time>2021-04-15T13:44:45Z</time>
      </trkpt>
      <trkpt lat="43.58314" lon="3.68197">
        <ele>189</ele>
        <time>2021-04-15T13:44:45Z</time>
      </trkpt>
      <trkpt lat="43.58314" lon="3.68195">
        <ele>190.5</ele>
        <time>2021-04-15T13:44:46Z</time>
      </trkpt>
      <trkpt lat="43.58314" lon="3.68195">
        <ele>189</ele>
        <time>2021-04-15T13:44:46Z</time>
      </trkpt>
      <trkpt lat="43.58313" lon="3.68192">
        <ele>190.7</ele>
        <time>2021-04-15T13:44:48Z</time>
      </trkpt>
      <trkpt lat="43.58313" lon="3.68192">
        <ele>189</ele>
        <time>2021-04-15T13:44:48Z</time>
      </trkpt>
      <trkpt lat="43.58314" lon="3.6819">
        <ele>190.7</ele>
        <time>2021-04-15T13:44:50Z</time>
      </trkpt>
      <trkpt lat="43.58314" lon="3.6819">
        <ele>189</ele>
        <time>2021-04-15T13:44:50Z</time>
      </trkpt>
      <trkpt lat="43.58314" lon="3.68188">
        <ele>190.8</ele>
        <time>2021-04-15T13:44:51Z</time>
      </trkpt>
      <trkpt lat="43.58314" lon="3.68188">
        <ele>189</ele>
        <time>2021-04-15T13:44:51Z</time>
      </trkpt>
      <trkpt lat="43.58314" lon="3.68186">
        <ele>190.8</ele>
        <time>2021-04-15T13:44:53Z</time>
      </trkpt>
      <trkpt lat="43.58314" lon="3.68186">
        <ele>189</ele>
        <time>2021-04-15T13:44:53Z</time>
      </trkpt>
      <trkpt lat="43.58314" lon="3.68184">
        <ele>190.9</ele>
        <time>2021-04-15T13:44:54Z</time>
      </trkpt>
      <trkpt lat="43.58314" lon="3.68184">
        <ele>189</ele>
        <time>2021-04-15T13:44:54Z</time>
      </trkpt>
      <trkpt lat="43.58314" lon="3.68181">
        <ele>191</ele>
        <time>2021-04-15T13:44:56Z</time>
      </trkpt>
      <trkpt lat="43.58314" lon="3.68181">
        <ele>189</ele>
        <time>2021-04-15T13:44:56Z</time>
      </trkpt>
      <trkpt lat="43.58314" lon="3.68179">
        <ele>191.1</ele>
        <time>2021-04-15T13:44:57Z</time>
      </trkpt>
      <trkpt lat="43.58314" lon="3.68179">
        <ele>189</ele>
        <time>2021-04-15T13:44:57Z</time>
      </trkpt>
      <trkpt lat="43.58313" lon="3.68178">
        <ele>191.2</ele>
        <time>2021-04-15T13:44:58Z</time>
      </trkpt>
      <trkpt lat="43.58313" lon="3.68178">
        <ele>189</ele>
        <time>2021-04-15T13:44:58Z</time>
      </trkpt>
      <trkpt lat="43.58313" lon="3.68175">
        <ele>191.3</ele>
        <time>2021-04-15T13:45:00Z</time>
      </trkpt>
      <trkpt lat="43.58313" lon="3.68175">
        <ele>189</ele>
        <time>2021-04-15T13:45:00Z</time>
      </trkpt>
      <trkpt lat="43.58313" lon="3.68173">
        <ele>191.5</ele>
        <time>2021-04-15T13:45:02Z</time>
      </trkpt>
      <trkpt lat="43.58313" lon="3.68173">
        <ele>189</ele>
        <time>2021-04-15T13:45:02Z</time>
      </trkpt>
      <trkpt lat="43.58313" lon="3.68171">
        <ele>191.5</ele>
        <time>2021-04-15T13:45:03Z</time>
      </trkpt>
      <trkpt lat="43.58313" lon="3.68171">
        <ele>189</ele>
        <time>2021-04-15T13:45:03Z</time>
      </trkpt>
      <trkpt lat="43.58313" lon="3.68169">
        <ele>191.6</ele>
        <time>2021-04-15T13:45:04Z</time>
      </trkpt>
      <trkpt lat="43.58313" lon="3.68169">
        <ele>189</ele>
        <time>2021-04-15T13:45:04Z</time>
      </trkpt>
      <trkpt lat="43.58313" lon="3.68167">
        <ele>191.7</ele>
        <time>2021-04-15T13:45:06Z</time>
      </trkpt>
      <trkpt lat="43.58313" lon="3.68167">
        <ele>191</ele>
        <time>2021-04-15T13:45:06Z</time>
      </trkpt>
      <trkpt lat="43.58313" lon="3.68164">
        <ele>191.8</ele>
        <time>2021-04-15T13:45:08Z</time>
      </trkpt>
      <trkpt lat="43.58313" lon="3.68164">
        <ele>191</ele>
        <time>2021-04-15T13:45:08Z</time>
      </trkpt>
      <trkpt lat="43.58313" lon="3.68161">
        <ele>191.9</ele>
        <time>2021-04-15T13:45:10Z</time>
      </trkpt>
      <trkpt lat="43.58313" lon="3.68161">
        <ele>191</ele>
        <time>2021-04-15T13:45:10Z</time>
      </trkpt>
      <trkpt lat="43.58313" lon="3.68146">
        <ele>192.5</ele>
        <time>2021-04-15T13:47:29Z</time>
      </trkpt>
      <trkpt lat="43.58313" lon="3.68146">
        <ele>191</ele>
        <time>2021-04-15T13:47:29Z</time>
      </trkpt>
      <trkpt lat="43.58314" lon="3.68146">
        <ele>192.5</ele>
        <time>2021-04-15T13:47:30Z</time>
      </trkpt>
      <trkpt lat="43.58314" lon="3.68146">
        <ele>191</ele>
        <time>2021-04-15T13:47:30Z</time>
      </trkpt>
      <trkpt lat="43.58314" lon="3.68147">
        <ele>192.4</ele>
        <time>2021-04-15T13:47:31Z</time>
      </trkpt>
      <trkpt lat="43.58314" lon="3.68147">
        <ele>191</ele>
        <time>2021-04-15T13:47:31Z</time>
      </trkpt>
      <trkpt lat="43.58314" lon="3.68147">
        <ele>192.3</ele>
        <time>2021-04-15T13:47:35Z</time>
      </trkpt>
      <trkpt lat="43.58314" lon="3.68147">
        <ele>191</ele>
        <time>2021-04-15T13:47:35Z</time>
      </trkpt>
      <trkpt lat="43.58314" lon="3.68147">
        <ele>192.4</ele>
        <time>2021-04-15T13:47:36Z</time>
      </trkpt>
      <trkpt lat="43.58314" lon="3.68147">
        <ele>191</ele>
        <time>2021-04-15T13:47:36Z</time>
      </trkpt>
      <trkpt lat="43.58314" lon="3.68146">
        <ele>192.4</ele>
        <time>2021-04-15T13:47:38Z</time>
      </trkpt>
      <trkpt lat="43.58314" lon="3.68146">
        <ele>191</ele>
        <time>2021-04-15T13:47:38Z</time>
      </trkpt>
      <trkpt lat="43.58314" lon="3.68144">
        <ele>192.5</ele>
        <time>2021-04-15T13:47:39Z</time>
      </trkpt>
      <trkpt lat="43.58314" lon="3.68144">
        <ele>191</ele>
        <time>2021-04-15T13:47:39Z</time>
      </trkpt>
      <trkpt lat="43.58314" lon="3.68143">
        <ele>192.6</ele>
        <time>2021-04-15T13:47:41Z</time>
      </trkpt>
      <trkpt lat="43.58314" lon="3.68143">
        <ele>191</ele>
        <time>2021-04-15T13:47:41Z</time>
      </trkpt>
      <trkpt lat="43.58314" lon="3.68141">
        <ele>192.8</ele>
        <time>2021-04-15T13:47:43Z</time>
      </trkpt>
      <trkpt lat="43.58314" lon="3.68141">
        <ele>191</ele>
        <time>2021-04-15T13:47:43Z</time>
      </trkpt>
      <trkpt lat="43.58313" lon="3.6814">
        <ele>192.9</ele>
        <time>2021-04-15T13:47:44Z</time>
      </trkpt>
      <trkpt lat="43.58313" lon="3.6814">
        <ele>191</ele>
        <time>2021-04-15T13:47:44Z</time>
      </trkpt>
      <trkpt lat="43.58313" lon="3.68139">
        <ele>193</ele>
        <time>2021-04-15T13:47:45Z</time>
      </trkpt>
      <trkpt lat="43.58313" lon="3.68139">
        <ele>191</ele>
        <time>2021-04-15T13:47:45Z</time>
      </trkpt>
      <trkpt lat="43.58313" lon="3.68137">
        <ele>193.1</ele>
        <time>2021-04-15T13:47:47Z</time>
      </trkpt>
      <trkpt lat="43.58313" lon="3.68137">
        <ele>191</ele>
        <time>2021-04-15T13:47:47Z</time>
      </trkpt>
      <trkpt lat="43.58313" lon="3.68135">
        <ele>193.2</ele>
        <time>2021-04-15T13:47:48Z</time>
      </trkpt>
      <trkpt lat="43.58313" lon="3.68135">
        <ele>191</ele>
        <time>2021-04-15T13:47:48Z</time>
      </trkpt>
      <trkpt lat="43.58313" lon="3.68134">
        <ele>193.3</ele>
        <time>2021-04-15T13:47:49Z</time>
      </trkpt>
      <trkpt lat="43.58313" lon="3.68134">
        <ele>191</ele>
        <time>2021-04-15T13:47:49Z</time>
      </trkpt>
      <trkpt lat="43.58313" lon="3.6813">
        <ele>193.4</ele>
        <time>2021-04-15T13:47:51Z</time>
      </trkpt>
      <trkpt lat="43.58313" lon="3.6813">
        <ele>191</ele>
        <time>2021-04-15T13:47:51Z</time>
      </trkpt>
      <trkpt lat="43.58312" lon="3.68127">
        <ele>193.7</ele>
        <time>2021-04-15T13:47:53Z</time>
      </trkpt>
      <trkpt lat="43.58312" lon="3.68127">
        <ele>191</ele>
        <time>2021-04-15T13:47:53Z</time>
      </trkpt>
      <trkpt lat="43.58312" lon="3.68123">
        <ele>193.9</ele>
        <time>2021-04-15T13:47:54Z</time>
      </trkpt>
      <trkpt lat="43.58312" lon="3.68123">
        <ele>191</ele>
        <time>2021-04-15T13:47:54Z</time>
      </trkpt>
      <trkpt lat="43.58313" lon="3.6812">
        <ele>194</ele>
        <time>2021-04-15T13:47:56Z</time>
      </trkpt>
      <trkpt lat="43.58313" lon="3.6812">
        <ele>191</ele>
        <time>2021-04-15T13:47:56Z</time>
      </trkpt>
      <trkpt lat="43.58313" lon="3.68117">
        <ele>194.2</ele>
        <time>2021-04-15T13:47:57Z</time>
      </trkpt>
      <trkpt lat="43.58313" lon="3.68117">
        <ele>191</ele>
        <time>2021-04-15T13:47:57Z</time>
      </trkpt>
      <trkpt lat="43.58313" lon="3.68114">
        <ele>194.3</ele>
        <time>2021-04-15T13:47:58Z</time>
      </trkpt>
      <trkpt lat="43.58313" lon="3.68114">
        <ele>191</ele>
        <time>2021-04-15T13:47:58Z</time>
      </trkpt>
      <trkpt lat="43.58314" lon="3.68111">
        <ele>194.4</ele>
        <time>2021-04-15T13:48:00Z</time>
      </trkpt>
      <trkpt lat="43.58314" lon="3.68111">
        <ele>191</ele>
        <time>2021-04-15T13:48:00Z</time>
      </trkpt>
      <trkpt lat="43.58314" lon="3.68108">
        <ele>194.6</ele>
        <time>2021-04-15T13:48:01Z</time>
      </trkpt>
      <trkpt lat="43.58314" lon="3.68108">
        <ele>191</ele>
        <time>2021-04-15T13:48:01Z</time>
      </trkpt>
      <trkpt lat="43.58316" lon="3.68105">
        <ele>194.8</ele>
        <time>2021-04-15T13:48:03Z</time>
      </trkpt>
      <trkpt lat="43.58316" lon="3.68105">
        <ele>194</ele>
        <time>2021-04-15T13:48:03Z</time>
      </trkpt>
      <trkpt lat="43.58317" lon="3.68101">
        <ele>194.9</ele>
        <time>2021-04-15T13:48:05Z</time>
      </trkpt>
      <trkpt lat="43.58317" lon="3.68101">
        <ele>194</ele>
        <time>2021-04-15T13:48:05Z</time>
      </trkpt>
      <trkpt lat="43.58318" lon="3.68097">
        <ele>195.1</ele>
        <time>2021-04-15T13:48:06Z</time>
      </trkpt>
      <trkpt lat="43.58318" lon="3.68097">
        <ele>194</ele>
        <time>2021-04-15T13:48:06Z</time>
      </trkpt>
      <trkpt lat="43.5832" lon="3.68094">
        <ele>195.2</ele>
        <time>2021-04-15T13:48:08Z</time>
      </trkpt>
      <trkpt lat="43.5832" lon="3.68094">
        <ele>194</ele>
        <time>2021-04-15T13:48:08Z</time>
      </trkpt>
      <trkpt lat="43.58322" lon="3.68091">
        <ele>195.3</ele>
        <time>2021-04-15T13:48:10Z</time>
      </trkpt>
      <trkpt lat="43.58322" lon="3.68091">
        <ele>194</ele>
        <time>2021-04-15T13:48:10Z</time>
      </trkpt>
      <trkpt lat="43.58323" lon="3.68088">
        <ele>195.4</ele>
        <time>2021-04-15T13:48:11Z</time>
      </trkpt>
      <trkpt lat="43.58323" lon="3.68088">
        <ele>194</ele>
        <time>2021-04-15T13:48:11Z</time>
      </trkpt>
      <trkpt lat="43.58324" lon="3.68085">
        <ele>195.5</ele>
        <time>2021-04-15T13:48:12Z</time>
      </trkpt>
      <trkpt lat="43.58324" lon="3.68085">
        <ele>195</ele>
        <time>2021-04-15T13:48:12Z</time>
      </trkpt>
      <trkpt lat="43.58326" lon="3.68084">
        <ele>195.5</ele>
        <time>2021-04-15T13:48:13Z</time>
      </trkpt>
      <trkpt lat="43.58326" lon="3.68084">
        <ele>195</ele>
        <time>2021-04-15T13:48:13Z</time>
      </trkpt>
      <trkpt lat="43.58327" lon="3.68082">
        <ele>195.6</ele>
        <time>2021-04-15T13:48:15Z</time>
      </trkpt>
      <trkpt lat="43.58327" lon="3.68082">
        <ele>195</ele>
        <time>2021-04-15T13:48:15Z</time>
      </trkpt>
      <trkpt lat="43.58328" lon="3.6808">
        <ele>195.6</ele>
        <time>2021-04-15T13:48:16Z</time>
      </trkpt>
      <trkpt lat="43.58328" lon="3.6808">
        <ele>195</ele>
        <time>2021-04-15T13:48:16Z</time>
      </trkpt>
      <trkpt lat="43.58329" lon="3.68079">
        <ele>195.6</ele>
        <time>2021-04-15T13:48:18Z</time>
      </trkpt>
      <trkpt lat="43.58329" lon="3.68079">
        <ele>195</ele>
        <time>2021-04-15T13:48:18Z</time>
      </trkpt>
      <trkpt lat="43.58331" lon="3.68077">
        <ele>195.6</ele>
        <time>2021-04-15T13:48:20Z</time>
      </trkpt>
      <trkpt lat="43.58331" lon="3.68077">
        <ele>195</ele>
        <time>2021-04-15T13:48:20Z</time>
      </trkpt>
      <trkpt lat="43.58332" lon="3.68075">
        <ele>195.7</ele>
        <time>2021-04-15T13:48:21Z</time>
      </trkpt>
      <trkpt lat="43.58332" lon="3.68075">
        <ele>195</ele>
        <time>2021-04-15T13:48:21Z</time>
      </trkpt>
      <trkpt lat="43.58333" lon="3.68074">
        <ele>195.7</ele>
        <time>2021-04-15T13:48:23Z</time>
      </trkpt>
      <trkpt lat="43.58333" lon="3.68074">
        <ele>195</ele>
        <time>2021-04-15T13:48:23Z</time>
      </trkpt>
      <trkpt lat="43.58334" lon="3.68072">
        <ele>195.8</ele>
        <time>2021-04-15T13:48:25Z</time>
      </trkpt>
      <trkpt lat="43.58334" lon="3.68072">
        <ele>195</ele>
        <time>2021-04-15T13:48:25Z</time>
      </trkpt>
      <trkpt lat="43.58335" lon="3.6807">
        <ele>195.8</ele>
        <time>2021-04-15T13:48:27Z</time>
      </trkpt>
      <trkpt lat="43.58335" lon="3.6807">
        <ele>195</ele>
        <time>2021-04-15T13:48:27Z</time>
      </trkpt>
      <trkpt lat="43.58336" lon="3.68068">
        <ele>195.9</ele>
        <time>2021-04-15T13:48:28Z</time>
      </trkpt>
      <trkpt lat="43.58336" lon="3.68068">
        <ele>195</ele>
        <time>2021-04-15T13:48:28Z</time>
      </trkpt>
      <trkpt lat="43.58337" lon="3.68067">
        <ele>195.9</ele>
        <time>2021-04-15T13:48:29Z</time>
      </trkpt>
      <trkpt lat="43.58337" lon="3.68067">
        <ele>195</ele>
        <time>2021-04-15T13:48:29Z</time>
      </trkpt>
      <trkpt lat="43.58339" lon="3.68065">
        <ele>195.9</ele>
        <time>2021-04-15T13:48:31Z</time>
      </trkpt>
      <trkpt lat="43.58339" lon="3.68065">
        <ele>195</ele>
        <time>2021-04-15T13:48:31Z</time>
      </trkpt>
      <trkpt lat="43.5834" lon="3.68064">
        <ele>195.9</ele>
        <time>2021-04-15T13:48:32Z</time>
      </trkpt>
      <trkpt lat="43.5834" lon="3.68064">
        <ele>195</ele>
        <time>2021-04-15T13:48:32Z</time>
      </trkpt>
      <trkpt lat="43.58342" lon="3.68062">
        <ele>195.9</ele>
        <time>2021-04-15T13:48:34Z</time>
      </trkpt>
      <trkpt lat="43.58342" lon="3.68062">
        <ele>195</ele>
        <time>2021-04-15T13:48:34Z</time>
      </trkpt>
      <trkpt lat="43.58344" lon="3.68061">
        <ele>195.8</ele>
        <time>2021-04-15T13:48:36Z</time>
      </trkpt>
      <trkpt lat="43.58344" lon="3.68061">
        <ele>195</ele>
        <time>2021-04-15T13:48:36Z</time>
      </trkpt>
      <trkpt lat="43.58345" lon="3.68059">
        <ele>195.8</ele>
        <time>2021-04-15T13:48:37Z</time>
      </trkpt>
      <trkpt lat="43.58345" lon="3.68059">
        <ele>195</ele>
        <time>2021-04-15T13:48:37Z</time>
      </trkpt>
      <trkpt lat="43.58347" lon="3.68058">
        <ele>195.8</ele>
        <time>2021-04-15T13:48:39Z</time>
      </trkpt>
      <trkpt lat="43.58347" lon="3.68058">
        <ele>195</ele>
        <time>2021-04-15T13:48:39Z</time>
      </trkpt>
      <trkpt lat="43.58349" lon="3.68056">
        <ele>195.8</ele>
        <time>2021-04-15T13:48:41Z</time>
      </trkpt>
      <trkpt lat="43.58349" lon="3.68056">
        <ele>195</ele>
        <time>2021-04-15T13:48:41Z</time>
      </trkpt>
      <trkpt lat="43.58351" lon="3.68056">
        <ele>195.7</ele>
        <time>2021-04-15T13:48:43Z</time>
      </trkpt>
      <trkpt lat="43.58351" lon="3.68056">
        <ele>195</ele>
        <time>2021-04-15T13:48:43Z</time>
      </trkpt>
      <trkpt lat="43.58353" lon="3.68055">
        <ele>195.7</ele>
        <time>2021-04-15T13:48:44Z</time>
      </trkpt>
      <trkpt lat="43.58353" lon="3.68055">
        <ele>195</ele>
        <time>2021-04-15T13:48:44Z</time>
      </trkpt>
      <trkpt lat="43.58355" lon="3.68054">
        <ele>195.7</ele>
        <time>2021-04-15T13:48:46Z</time>
      </trkpt>
      <trkpt lat="43.58355" lon="3.68054">
        <ele>195</ele>
        <time>2021-04-15T13:48:46Z</time>
      </trkpt>
      <trkpt lat="43.58356" lon="3.68053">
        <ele>195.6</ele>
        <time>2021-04-15T13:48:47Z</time>
      </trkpt>
      <trkpt lat="43.58356" lon="3.68053">
        <ele>195</ele>
        <time>2021-04-15T13:48:47Z</time>
      </trkpt>
      <trkpt lat="43.58358" lon="3.68052">
        <ele>195.5</ele>
        <time>2021-04-15T13:48:49Z</time>
      </trkpt>
      <trkpt lat="43.58358" lon="3.68052">
        <ele>195</ele>
        <time>2021-04-15T13:48:49Z</time>
      </trkpt>
      <trkpt lat="43.5836" lon="3.68052">
        <ele>195.5</ele>
        <time>2021-04-15T13:48:51Z</time>
      </trkpt>
      <trkpt lat="43.5836" lon="3.68052">
        <ele>195</ele>
        <time>2021-04-15T13:48:51Z</time>
      </trkpt>
      <trkpt lat="43.58362" lon="3.68051">
        <ele>195.5</ele>
        <time>2021-04-15T13:48:53Z</time>
      </trkpt>
      <trkpt lat="43.58362" lon="3.68051">
        <ele>195</ele>
        <time>2021-04-15T13:48:53Z</time>
      </trkpt>
      <trkpt lat="43.58364" lon="3.68049">
        <ele>195.5</ele>
        <time>2021-04-15T13:48:55Z</time>
      </trkpt>
      <trkpt lat="43.58364" lon="3.68049">
        <ele>195</ele>
        <time>2021-04-15T13:48:55Z</time>
      </trkpt>
      <trkpt lat="43.58365" lon="3.68048">
        <ele>195.6</ele>
        <time>2021-04-15T13:48:56Z</time>
      </trkpt>
      <trkpt lat="43.58365" lon="3.68048">
        <ele>195</ele>
        <time>2021-04-15T13:48:56Z</time>
      </trkpt>
      <trkpt lat="43.58367" lon="3.68047">
        <ele>195.6</ele>
        <time>2021-04-15T13:48:58Z</time>
      </trkpt>
      <trkpt lat="43.58367" lon="3.68047">
        <ele>195</ele>
        <time>2021-04-15T13:48:58Z</time>
      </trkpt>
      <trkpt lat="43.58368" lon="3.68046">
        <ele>195.6</ele>
        <time>2021-04-15T13:48:59Z</time>
      </trkpt>
      <trkpt lat="43.58368" lon="3.68046">
        <ele>195</ele>
        <time>2021-04-15T13:48:59Z</time>
      </trkpt>
      <trkpt lat="43.5837" lon="3.68045">
        <ele>195.6</ele>
        <time>2021-04-15T13:49:01Z</time>
      </trkpt>
      <trkpt lat="43.5837" lon="3.68045">
        <ele>195</ele>
        <time>2021-04-15T13:49:01Z</time>
      </trkpt>
      <trkpt lat="43.58372" lon="3.68043">
        <ele>195.6</ele>
        <time>2021-04-15T13:49:03Z</time>
      </trkpt>
      <trkpt lat="43.58372" lon="3.68043">
        <ele>195</ele>
        <time>2021-04-15T13:49:03Z</time>
      </trkpt>
      <trkpt lat="43.58373" lon="3.68042">
        <ele>195.6</ele>
        <time>2021-04-15T13:49:04Z</time>
      </trkpt>
      <trkpt lat="43.58373" lon="3.68042">
        <ele>195</ele>
        <time>2021-04-15T13:49:04Z</time>
      </trkpt>
      <trkpt lat="43.58375" lon="3.68041">
        <ele>195.6</ele>
        <time>2021-04-15T13:49:06Z</time>
      </trkpt>
      <trkpt lat="43.58375" lon="3.68041">
        <ele>195</ele>
        <time>2021-04-15T13:49:06Z</time>
      </trkpt>
      <trkpt lat="43.58376" lon="3.6804">
        <ele>195.6</ele>
        <time>2021-04-15T13:49:07Z</time>
      </trkpt>
      <trkpt lat="43.58376" lon="3.6804">
        <ele>195</ele>
        <time>2021-04-15T13:49:07Z</time>
      </trkpt>
      <trkpt lat="43.58379" lon="3.68039">
        <ele>195.5</ele>
        <time>2021-04-15T13:49:09Z</time>
      </trkpt>
      <trkpt lat="43.58379" lon="3.68039">
        <ele>195</ele>
        <time>2021-04-15T13:49:09Z</time>
      </trkpt>
      <trkpt lat="43.5838" lon="3.68039">
        <ele>195.4</ele>
        <time>2021-04-15T13:49:10Z</time>
      </trkpt>
      <trkpt lat="43.5838" lon="3.68039">
        <ele>195</ele>
        <time>2021-04-15T13:49:10Z</time>
      </trkpt>
      <trkpt lat="43.58382" lon="3.68038">
        <ele>195.3</ele>
        <time>2021-04-15T13:49:12Z</time>
      </trkpt>
      <trkpt lat="43.58382" lon="3.68038">
        <ele>195</ele>
        <time>2021-04-15T13:49:12Z</time>
      </trkpt>
      <trkpt lat="43.58384" lon="3.68037">
        <ele>195.3</ele>
        <time>2021-04-15T13:49:13Z</time>
      </trkpt>
      <trkpt lat="43.58384" lon="3.68037">
        <ele>195</ele>
        <time>2021-04-15T13:49:13Z</time>
      </trkpt>
      <trkpt lat="43.58385" lon="3.68037">
        <ele>195.3</ele>
        <time>2021-04-15T13:49:14Z</time>
      </trkpt>
      <trkpt lat="43.58385" lon="3.68037">
        <ele>195</ele>
        <time>2021-04-15T13:49:14Z</time>
      </trkpt>
      <trkpt lat="43.58387" lon="3.68036">
        <ele>195.3</ele>
        <time>2021-04-15T13:49:16Z</time>
      </trkpt>
      <trkpt lat="43.58387" lon="3.68036">
        <ele>195</ele>
        <time>2021-04-15T13:49:16Z</time>
      </trkpt>
      <trkpt lat="43.58389" lon="3.68035">
        <ele>195.3</ele>
        <time>2021-04-15T13:49:17Z</time>
      </trkpt>
      <trkpt lat="43.58389" lon="3.68035">
        <ele>195</ele>
        <time>2021-04-15T13:49:17Z</time>
      </trkpt>
      <trkpt lat="43.5839" lon="3.68034">
        <ele>195.2</ele>
        <time>2021-04-15T13:49:19Z</time>
      </trkpt>
      <trkpt lat="43.5839" lon="3.68034">
        <ele>195</ele>
        <time>2021-04-15T13:49:19Z</time>
      </trkpt>
      <trkpt lat="43.58392" lon="3.68033">
        <ele>195.2</ele>
        <time>2021-04-15T13:49:21Z</time>
      </trkpt>
      <trkpt lat="43.58392" lon="3.68033">
        <ele>195</ele>
        <time>2021-04-15T13:49:21Z</time>
      </trkpt>
      <trkpt lat="43.58395" lon="3.68032">
        <ele>195.2</ele>
        <time>2021-04-15T13:49:23Z</time>
      </trkpt>
      <trkpt lat="43.58395" lon="3.68032">
        <ele>195</ele>
        <time>2021-04-15T13:49:23Z</time>
      </trkpt>
      <trkpt lat="43.58397" lon="3.68031">
        <ele>195.1</ele>
        <time>2021-04-15T13:49:25Z</time>
      </trkpt>
      <trkpt lat="43.58397" lon="3.68031">
        <ele>195</ele>
        <time>2021-04-15T13:49:25Z</time>
      </trkpt>
      <trkpt lat="43.584" lon="3.68029">
        <ele>195.1</ele>
        <time>2021-04-15T13:49:27Z</time>
      </trkpt>
      <trkpt lat="43.584" lon="3.68029">
        <ele>195</ele>
        <time>2021-04-15T13:49:27Z</time>
      </trkpt>
      <trkpt lat="43.58402" lon="3.68028">
        <ele>195.1</ele>
        <time>2021-04-15T13:49:29Z</time>
      </trkpt>
      <trkpt lat="43.58402" lon="3.68028">
        <ele>195</ele>
        <time>2021-04-15T13:49:29Z</time>
      </trkpt>
      <trkpt lat="43.58404" lon="3.68026">
        <ele>195</ele>
        <time>2021-04-15T13:49:30Z</time>
      </trkpt>
      <trkpt lat="43.58404" lon="3.68026">
        <ele>195</ele>
        <time>2021-04-15T13:49:30Z</time>
      </trkpt>
      <trkpt lat="43.58406" lon="3.68025">
        <ele>194.9</ele>
        <time>2021-04-15T13:49:32Z</time>
      </trkpt>
      <trkpt lat="43.58406" lon="3.68025">
        <ele>195</ele>
        <time>2021-04-15T13:49:32Z</time>
      </trkpt>
      <trkpt lat="43.58408" lon="3.68025">
        <ele>194.8</ele>
        <time>2021-04-15T13:49:33Z</time>
      </trkpt>
      <trkpt lat="43.58408" lon="3.68025">
        <ele>195</ele>
        <time>2021-04-15T13:49:33Z</time>
      </trkpt>
      <trkpt lat="43.58409" lon="3.68024">
        <ele>194.7</ele>
        <time>2021-04-15T13:49:34Z</time>
      </trkpt>
      <trkpt lat="43.58409" lon="3.68024">
        <ele>195</ele>
        <time>2021-04-15T13:49:34Z</time>
      </trkpt>
      <trkpt lat="43.58411" lon="3.68023">
        <ele>194.6</ele>
        <time>2021-04-15T13:49:36Z</time>
      </trkpt>
      <trkpt lat="43.58411" lon="3.68023">
        <ele>195</ele>
        <time>2021-04-15T13:49:36Z</time>
      </trkpt>
      <trkpt lat="43.58413" lon="3.68022">
        <ele>194.5</ele>
        <time>2021-04-15T13:49:37Z</time>
      </trkpt>
      <trkpt lat="43.58413" lon="3.68022">
        <ele>195</ele>
        <time>2021-04-15T13:49:37Z</time>
      </trkpt>
      <trkpt lat="43.58416" lon="3.68022">
        <ele>194.3</ele>
        <time>2021-04-15T13:49:39Z</time>
      </trkpt>
      <trkpt lat="43.58416" lon="3.68022">
        <ele>195</ele>
        <time>2021-04-15T13:49:39Z</time>
      </trkpt>
      <trkpt lat="43.58418" lon="3.68021">
        <ele>194.2</ele>
        <time>2021-04-15T13:49:41Z</time>
      </trkpt>
      <trkpt lat="43.58418" lon="3.68021">
        <ele>195</ele>
        <time>2021-04-15T13:49:41Z</time>
      </trkpt>
      <trkpt lat="43.5842" lon="3.68021">
        <ele>194.2</ele>
        <time>2021-04-15T13:49:43Z</time>
      </trkpt>
      <trkpt lat="43.5842" lon="3.68021">
        <ele>195</ele>
        <time>2021-04-15T13:49:43Z</time>
      </trkpt>
      <trkpt lat="43.58422" lon="3.6802">
        <ele>194.2</ele>
        <time>2021-04-15T13:49:45Z</time>
      </trkpt>
      <trkpt lat="43.58422" lon="3.6802">
        <ele>194</ele>
        <time>2021-04-15T13:49:45Z</time>
      </trkpt>
      <trkpt lat="43.58424" lon="3.6802">
        <ele>194.1</ele>
        <time>2021-04-15T13:49:46Z</time>
      </trkpt>
      <trkpt lat="43.58424" lon="3.6802">
        <ele>194</ele>
        <time>2021-04-15T13:49:46Z</time>
      </trkpt>
      <trkpt lat="43.58425" lon="3.6802">
        <ele>194.1</ele>
        <time>2021-04-15T13:49:48Z</time>
      </trkpt>
      <trkpt lat="43.58425" lon="3.6802">
        <ele>194</ele>
        <time>2021-04-15T13:49:48Z</time>
      </trkpt>
      <trkpt lat="43.58427" lon="3.68019">
        <ele>194.1</ele>
        <time>2021-04-15T13:49:49Z</time>
      </trkpt>
      <trkpt lat="43.58427" lon="3.68019">
        <ele>194</ele>
        <time>2021-04-15T13:49:49Z</time>
      </trkpt>
      <trkpt lat="43.58429" lon="3.68019">
        <ele>194</ele>
        <time>2021-04-15T13:49:51Z</time>
      </trkpt>
      <trkpt lat="43.58429" lon="3.68019">
        <ele>194</ele>
        <time>2021-04-15T13:49:51Z</time>
      </trkpt>
      <trkpt lat="43.5843" lon="3.68019">
        <ele>194</ele>
        <time>2021-04-15T13:49:52Z</time>
      </trkpt>
      <trkpt lat="43.5843" lon="3.68019">
        <ele>194</ele>
        <time>2021-04-15T13:49:52Z</time>
      </trkpt>
      <trkpt lat="43.58431" lon="3.68018">
        <ele>194</ele>
        <time>2021-04-15T13:49:53Z</time>
      </trkpt>
      <trkpt lat="43.58431" lon="3.68018">
        <ele>194</ele>
        <time>2021-04-15T13:49:53Z</time>
      </trkpt>
      <trkpt lat="43.58432" lon="3.68018">
        <ele>194</ele>
        <time>2021-04-15T13:49:54Z</time>
      </trkpt>
      <trkpt lat="43.58432" lon="3.68018">
        <ele>194</ele>
        <time>2021-04-15T13:49:54Z</time>
      </trkpt>
      <trkpt lat="43.58434" lon="3.68017">
        <ele>193.9</ele>
        <time>2021-04-15T13:49:56Z</time>
      </trkpt>
      <trkpt lat="43.58434" lon="3.68017">
        <ele>194</ele>
        <time>2021-04-15T13:49:56Z</time>
      </trkpt>
      <trkpt lat="43.58435" lon="3.68016">
        <ele>193.9</ele>
        <time>2021-04-15T13:49:58Z</time>
      </trkpt>
      <trkpt lat="43.58435" lon="3.68016">
        <ele>194</ele>
        <time>2021-04-15T13:49:58Z</time>
      </trkpt>
      <trkpt lat="43.58437" lon="3.68015">
        <ele>193.8</ele>
        <time>2021-04-15T13:50:00Z</time>
      </trkpt>
      <trkpt lat="43.58437" lon="3.68015">
        <ele>194</ele>
        <time>2021-04-15T13:50:00Z</time>
      </trkpt>
      <trkpt lat="43.58438" lon="3.68013">
        <ele>193.7</ele>
        <time>2021-04-15T13:50:02Z</time>
      </trkpt>
      <trkpt lat="43.58438" lon="3.68013">
        <ele>194</ele>
        <time>2021-04-15T13:50:02Z</time>
      </trkpt>
      <trkpt lat="43.58439" lon="3.68012">
        <ele>193.6</ele>
        <time>2021-04-15T13:50:03Z</time>
      </trkpt>
      <trkpt lat="43.58439" lon="3.68012">
        <ele>194</ele>
        <time>2021-04-15T13:50:03Z</time>
      </trkpt>
      <trkpt lat="43.5844" lon="3.6801">
        <ele>193.6</ele>
        <time>2021-04-15T13:50:05Z</time>
      </trkpt>
      <trkpt lat="43.5844" lon="3.6801">
        <ele>193</ele>
        <time>2021-04-15T13:50:05Z</time>
      </trkpt>
      <trkpt lat="43.58441" lon="3.68009">
        <ele>193.5</ele>
        <time>2021-04-15T13:50:06Z</time>
      </trkpt>
      <trkpt lat="43.58441" lon="3.68009">
        <ele>193</ele>
        <time>2021-04-15T13:50:06Z</time>
      </trkpt>
      <trkpt lat="43.58442" lon="3.68007">
        <ele>193.4</ele>
        <time>2021-04-15T13:50:07Z</time>
      </trkpt>
      <trkpt lat="43.58442" lon="3.68007">
        <ele>193</ele>
        <time>2021-04-15T13:50:07Z</time>
      </trkpt>
      <trkpt lat="43.58442" lon="3.68005">
        <ele>193.3</ele>
        <time>2021-04-15T13:50:08Z</time>
      </trkpt>
      <trkpt lat="43.58442" lon="3.68005">
        <ele>193</ele>
        <time>2021-04-15T13:50:08Z</time>
      </trkpt>
      <trkpt lat="43.58443" lon="3.68003">
        <ele>193.2</ele>
        <time>2021-04-15T13:50:10Z</time>
      </trkpt>
      <trkpt lat="43.58443" lon="3.68003">
        <ele>193</ele>
        <time>2021-04-15T13:50:10Z</time>
      </trkpt>
      <trkpt lat="43.58443" lon="3.68001">
        <ele>193.1</ele>
        <time>2021-04-15T13:50:11Z</time>
      </trkpt>
      <trkpt lat="43.58443" lon="3.68001">
        <ele>193</ele>
        <time>2021-04-15T13:50:11Z</time>
      </trkpt>
      <trkpt lat="43.58443" lon="3.67998">
        <ele>193</ele>
        <time>2021-04-15T13:50:13Z</time>
      </trkpt>
      <trkpt lat="43.58443" lon="3.67998">
        <ele>193</ele>
        <time>2021-04-15T13:50:13Z</time>
      </trkpt>
      <trkpt lat="43.58442" lon="3.67996">
        <ele>192.9</ele>
        <time>2021-04-15T13:50:15Z</time>
      </trkpt>
      <trkpt lat="43.58442" lon="3.67996">
        <ele>193</ele>
        <time>2021-04-15T13:50:15Z</time>
      </trkpt>
      <trkpt lat="43.58442" lon="3.67994">
        <ele>192.8</ele>
        <time>2021-04-15T13:50:16Z</time>
      </trkpt>
      <trkpt lat="43.58442" lon="3.67994">
        <ele>193</ele>
        <time>2021-04-15T13:50:16Z</time>
      </trkpt>
      <trkpt lat="43.58442" lon="3.67993">
        <ele>192.7</ele>
        <time>2021-04-15T13:50:17Z</time>
      </trkpt>
      <trkpt lat="43.58442" lon="3.67993">
        <ele>193</ele>
        <time>2021-04-15T13:50:17Z</time>
      </trkpt>
      <trkpt lat="43.58441" lon="3.67991">
        <ele>192.6</ele>
        <time>2021-04-15T13:50:18Z</time>
      </trkpt>
      <trkpt lat="43.58441" lon="3.67991">
        <ele>193</ele>
        <time>2021-04-15T13:50:18Z</time>
      </trkpt>
      <trkpt lat="43.58441" lon="3.67989">
        <ele>192.5</ele>
        <time>2021-04-15T13:50:20Z</time>
      </trkpt>
      <trkpt lat="43.58441" lon="3.67989">
        <ele>193</ele>
        <time>2021-04-15T13:50:20Z</time>
      </trkpt>
      <trkpt lat="43.58441" lon="3.67987">
        <ele>192.4</ele>
        <time>2021-04-15T13:50:21Z</time>
      </trkpt>
      <trkpt lat="43.58441" lon="3.67987">
        <ele>193</ele>
        <time>2021-04-15T13:50:21Z</time>
      </trkpt>
      <trkpt lat="43.5844" lon="3.67984">
        <ele>192.3</ele>
        <time>2021-04-15T13:50:23Z</time>
      </trkpt>
      <trkpt lat="43.5844" lon="3.67984">
        <ele>192</ele>
        <time>2021-04-15T13:50:23Z</time>
      </trkpt>
      <trkpt lat="43.5844" lon="3.67982">
        <ele>192.3</ele>
        <time>2021-04-15T13:50:24Z</time>
      </trkpt>
      <trkpt lat="43.5844" lon="3.67982">
        <ele>192</ele>
        <time>2021-04-15T13:50:24Z</time>
      </trkpt>
      <trkpt lat="43.58439" lon="3.67979">
        <ele>192.1</ele>
        <time>2021-04-15T13:50:26Z</time>
      </trkpt>
      <trkpt lat="43.58439" lon="3.67979">
        <ele>192</ele>
        <time>2021-04-15T13:50:26Z</time>
      </trkpt>
      <trkpt lat="43.58439" lon="3.67976">
        <ele>192</ele>
        <time>2021-04-15T13:50:28Z</time>
      </trkpt>
      <trkpt lat="43.58439" lon="3.67976">
        <ele>192</ele>
        <time>2021-04-15T13:50:28Z</time>
      </trkpt>
      <trkpt lat="43.58439" lon="3.67974">
        <ele>191.9</ele>
        <time>2021-04-15T13:50:29Z</time>
      </trkpt>
      <trkpt lat="43.58439" lon="3.67974">
        <ele>192</ele>
        <time>2021-04-15T13:50:29Z</time>
      </trkpt>
      <trkpt lat="43.58438" lon="3.67971">
        <ele>191.8</ele>
        <time>2021-04-15T13:50:31Z</time>
      </trkpt>
      <trkpt lat="43.58438" lon="3.67971">
        <ele>192</ele>
        <time>2021-04-15T13:50:31Z</time>
      </trkpt>
      <trkpt lat="43.58437" lon="3.67968">
        <ele>191.6</ele>
        <time>2021-04-15T13:50:33Z</time>
      </trkpt>
      <trkpt lat="43.58437" lon="3.67968">
        <ele>192</ele>
        <time>2021-04-15T13:50:33Z</time>
      </trkpt>
      <trkpt lat="43.58437" lon="3.67966">
        <ele>191.5</ele>
        <time>2021-04-15T13:50:34Z</time>
      </trkpt>
      <trkpt lat="43.58437" lon="3.67966">
        <ele>192</ele>
        <time>2021-04-15T13:50:34Z</time>
      </trkpt>
      <trkpt lat="43.58436" lon="3.67963">
        <ele>191.4</ele>
        <time>2021-04-15T13:50:35Z</time>
      </trkpt>
      <trkpt lat="43.58436" lon="3.67963">
        <ele>192</ele>
        <time>2021-04-15T13:50:35Z</time>
      </trkpt>
      <trkpt lat="43.58435" lon="3.6796">
        <ele>191.3</ele>
        <time>2021-04-15T13:50:37Z</time>
      </trkpt>
      <trkpt lat="43.58435" lon="3.6796">
        <ele>192</ele>
        <time>2021-04-15T13:50:37Z</time>
      </trkpt>
      <trkpt lat="43.58435" lon="3.67957">
        <ele>191.2</ele>
        <time>2021-04-15T13:50:39Z</time>
      </trkpt>
      <trkpt lat="43.58435" lon="3.67957">
        <ele>192</ele>
        <time>2021-04-15T13:50:39Z</time>
      </trkpt>
      <trkpt lat="43.58434" lon="3.67954">
        <ele>191</ele>
        <time>2021-04-15T13:50:41Z</time>
      </trkpt>
      <trkpt lat="43.58434" lon="3.67954">
        <ele>190</ele>
        <time>2021-04-15T13:50:41Z</time>
      </trkpt>
      <trkpt lat="43.58433" lon="3.67951">
        <ele>190.9</ele>
        <time>2021-04-15T13:50:43Z</time>
      </trkpt>
      <trkpt lat="43.58433" lon="3.67951">
        <ele>190</ele>
        <time>2021-04-15T13:50:43Z</time>
      </trkpt>
      <trkpt lat="43.58433" lon="3.67948">
        <ele>190.8</ele>
        <time>2021-04-15T13:50:45Z</time>
      </trkpt>
      <trkpt lat="43.58433" lon="3.67948">
        <ele>190</ele>
        <time>2021-04-15T13:50:45Z</time>
      </trkpt>
      <trkpt lat="43.58432" lon="3.67945">
        <ele>190.8</ele>
        <time>2021-04-15T13:50:47Z</time>
      </trkpt>
      <trkpt lat="43.58432" lon="3.67945">
        <ele>190</ele>
        <time>2021-04-15T13:50:47Z</time>
      </trkpt>
      <trkpt lat="43.58431" lon="3.67943">
        <ele>190.6</ele>
        <time>2021-04-15T13:50:48Z</time>
      </trkpt>
      <trkpt lat="43.58431" lon="3.67943">
        <ele>190</ele>
        <time>2021-04-15T13:50:48Z</time>
      </trkpt>
      <trkpt lat="43.58431" lon="3.6794">
        <ele>190.5</ele>
        <time>2021-04-15T13:50:49Z</time>
      </trkpt>
      <trkpt lat="43.58431" lon="3.6794">
        <ele>190</ele>
        <time>2021-04-15T13:50:49Z</time>
      </trkpt>
      <trkpt lat="43.58431" lon="3.67938">
        <ele>190.2</ele>
        <time>2021-04-15T13:50:51Z</time>
      </trkpt>
      <trkpt lat="43.58431" lon="3.67938">
        <ele>190</ele>
        <time>2021-04-15T13:50:51Z</time>
      </trkpt>
      <trkpt lat="43.58431" lon="3.67934">
        <ele>189.8</ele>
        <time>2021-04-15T13:50:53Z</time>
      </trkpt>
      <trkpt lat="43.58431" lon="3.67934">
        <ele>190</ele>
        <time>2021-04-15T13:50:53Z</time>
      </trkpt>
      <trkpt lat="43.58431" lon="3.67931">
        <ele>189.6</ele>
        <time>2021-04-15T13:50:55Z</time>
      </trkpt>
      <trkpt lat="43.58431" lon="3.67931">
        <ele>190</ele>
        <time>2021-04-15T13:50:55Z</time>
      </trkpt>
      <trkpt lat="43.5843" lon="3.67929">
        <ele>189.4</ele>
        <time>2021-04-15T13:50:56Z</time>
      </trkpt>
      <trkpt lat="43.5843" lon="3.67929">
        <ele>190</ele>
        <time>2021-04-15T13:50:56Z</time>
      </trkpt>
      <trkpt lat="43.5843" lon="3.67926">
        <ele>189.2</ele>
        <time>2021-04-15T13:50:58Z</time>
      </trkpt>
      <trkpt lat="43.5843" lon="3.67926">
        <ele>190</ele>
        <time>2021-04-15T13:50:58Z</time>
      </trkpt>
      <trkpt lat="43.5843" lon="3.67924">
        <ele>189</ele>
        <time>2021-04-15T13:50:59Z</time>
      </trkpt>
      <trkpt lat="43.5843" lon="3.67924">
        <ele>190</ele>
        <time>2021-04-15T13:50:59Z</time>
      </trkpt>
      <trkpt lat="43.58429" lon="3.67921">
        <ele>188.8</ele>
        <time>2021-04-15T13:51:01Z</time>
      </trkpt>
      <trkpt lat="43.58429" lon="3.67921">
        <ele>188</ele>
        <time>2021-04-15T13:51:01Z</time>
      </trkpt>
      <trkpt lat="43.58429" lon="3.67918">
        <ele>188.6</ele>
        <time>2021-04-15T13:51:03Z</time>
      </trkpt>
      <trkpt lat="43.58429" lon="3.67918">
        <ele>188</ele>
        <time>2021-04-15T13:51:03Z</time>
      </trkpt>
      <trkpt lat="43.58428" lon="3.67915">
        <ele>188.4</ele>
        <time>2021-04-15T13:51:04Z</time>
      </trkpt>
      <trkpt lat="43.58428" lon="3.67915">
        <ele>188</ele>
        <time>2021-04-15T13:51:04Z</time>
      </trkpt>
      <trkpt lat="43.58428" lon="3.67913">
        <ele>188.2</ele>
        <time>2021-04-15T13:51:05Z</time>
      </trkpt>
      <trkpt lat="43.58428" lon="3.67913">
        <ele>188</ele>
        <time>2021-04-15T13:51:05Z</time>
      </trkpt>
      <trkpt lat="43.58427" lon="3.67911">
        <ele>188</ele>
        <time>2021-04-15T13:51:07Z</time>
      </trkpt>
      <trkpt lat="43.58427" lon="3.67911">
        <ele>188</ele>
        <time>2021-04-15T13:51:07Z</time>
      </trkpt>
      <trkpt lat="43.58427" lon="3.67909">
        <ele>187.9</ele>
        <time>2021-04-15T13:51:08Z</time>
      </trkpt>
      <trkpt lat="43.58427" lon="3.67909">
        <ele>188</ele>
        <time>2021-04-15T13:51:08Z</time>
      </trkpt>
      <trkpt lat="43.58427" lon="3.67907">
        <ele>187.8</ele>
        <time>2021-04-15T13:51:09Z</time>
      </trkpt>
      <trkpt lat="43.58427" lon="3.67907">
        <ele>188</ele>
        <time>2021-04-15T13:51:09Z</time>
      </trkpt>
      <trkpt lat="43.58426" lon="3.67905">
        <ele>187.6</ele>
        <time>2021-04-15T13:51:11Z</time>
      </trkpt>
      <trkpt lat="43.58426" lon="3.67905">
        <ele>188</ele>
        <time>2021-04-15T13:51:11Z</time>
      </trkpt>
      <trkpt lat="43.58425" lon="3.67902">
        <ele>187.4</ele>
        <time>2021-04-15T13:51:13Z</time>
      </trkpt>
      <trkpt lat="43.58425" lon="3.67902">
        <ele>188</ele>
        <time>2021-04-15T13:51:13Z</time>
      </trkpt>
      <trkpt lat="43.58424" lon="3.67899">
        <ele>187.3</ele>
        <time>2021-04-15T13:51:15Z</time>
      </trkpt>
      <trkpt lat="43.58424" lon="3.67899">
        <ele>188</ele>
        <time>2021-04-15T13:51:15Z</time>
      </trkpt>
      <trkpt lat="43.58424" lon="3.67897">
        <ele>187.1</ele>
        <time>2021-04-15T13:51:16Z</time>
      </trkpt>
      <trkpt lat="43.58424" lon="3.67897">
        <ele>188</ele>
        <time>2021-04-15T13:51:16Z</time>
      </trkpt>
      <trkpt lat="43.58423" lon="3.67894">
        <ele>187</ele>
        <time>2021-04-15T13:51:17Z</time>
      </trkpt>
      <trkpt lat="43.58423" lon="3.67894">
        <ele>188</ele>
        <time>2021-04-15T13:51:17Z</time>
      </trkpt>
      <trkpt lat="43.58423" lon="3.67893">
        <ele>186.8</ele>
        <time>2021-04-15T13:51:19Z</time>
      </trkpt>
      <trkpt lat="43.58423" lon="3.67893">
        <ele>186</ele>
        <time>2021-04-15T13:51:19Z</time>
      </trkpt>
      <trkpt lat="43.58421" lon="3.67885">
        <ele>186.3</ele>
        <time>2021-04-15T13:51:54Z</time>
      </trkpt>
      <trkpt lat="43.58421" lon="3.67885">
        <ele>186</ele>
        <time>2021-04-15T13:51:54Z</time>
      </trkpt>
      <trkpt lat="43.5842" lon="3.67884">
        <ele>186.4</ele>
        <time>2021-04-15T13:51:56Z</time>
      </trkpt>
      <trkpt lat="43.5842" lon="3.67884">
        <ele>186</ele>
        <time>2021-04-15T13:51:56Z</time>
      </trkpt>
      <trkpt lat="43.5842" lon="3.67883">
        <ele>186.3</ele>
        <time>2021-04-15T13:51:58Z</time>
      </trkpt>
      <trkpt lat="43.5842" lon="3.67883">
        <ele>186</ele>
        <time>2021-04-15T13:51:58Z</time>
      </trkpt>
      <trkpt lat="43.58419" lon="3.6788">
        <ele>186.3</ele>
        <time>2021-04-15T13:52:00Z</time>
      </trkpt>
      <trkpt lat="43.58419" lon="3.6788">
        <ele>186</ele>
        <time>2021-04-15T13:52:00Z</time>
      </trkpt>
      <trkpt lat="43.58419" lon="3.67878">
        <ele>186.3</ele>
        <time>2021-04-15T13:52:01Z</time>
      </trkpt>
      <trkpt lat="43.58419" lon="3.67878">
        <ele>186</ele>
        <time>2021-04-15T13:52:01Z</time>
      </trkpt>
      <trkpt lat="43.58418" lon="3.67876">
        <ele>186.2</ele>
        <time>2021-04-15T13:52:03Z</time>
      </trkpt>
      <trkpt lat="43.58418" lon="3.67876">
        <ele>186</ele>
        <time>2021-04-15T13:52:03Z</time>
      </trkpt>
      <trkpt lat="43.58417" lon="3.67873">
        <ele>186.1</ele>
        <time>2021-04-15T13:52:05Z</time>
      </trkpt>
      <trkpt lat="43.58417" lon="3.67873">
        <ele>186</ele>
        <time>2021-04-15T13:52:05Z</time>
      </trkpt>
      <trkpt lat="43.58417" lon="3.6787">
        <ele>186</ele>
        <time>2021-04-15T13:52:07Z</time>
      </trkpt>
      <trkpt lat="43.58417" lon="3.6787">
        <ele>186</ele>
        <time>2021-04-15T13:52:07Z</time>
      </trkpt>
      <trkpt lat="43.58416" lon="3.67868">
        <ele>185.9</ele>
        <time>2021-04-15T13:52:09Z</time>
      </trkpt>
      <trkpt lat="43.58416" lon="3.67868">
        <ele>186</ele>
        <time>2021-04-15T13:52:09Z</time>
      </trkpt>
      <trkpt lat="43.58416" lon="3.67865">
        <ele>185.7</ele>
        <time>2021-04-15T13:52:10Z</time>
      </trkpt>
      <trkpt lat="43.58416" lon="3.67865">
        <ele>186</ele>
        <time>2021-04-15T13:52:10Z</time>
      </trkpt>
      <trkpt lat="43.58415" lon="3.67862">
        <ele>185.5</ele>
        <time>2021-04-15T13:52:12Z</time>
      </trkpt>
      <trkpt lat="43.58415" lon="3.67862">
        <ele>186</ele>
        <time>2021-04-15T13:52:12Z</time>
      </trkpt>
      <trkpt lat="43.58415" lon="3.67859">
        <ele>185.6</ele>
        <time>2021-04-15T13:52:14Z</time>
      </trkpt>
      <trkpt lat="43.58415" lon="3.67859">
        <ele>184</ele>
        <time>2021-04-15T13:52:14Z</time>
      </trkpt>
      <trkpt lat="43.58415" lon="3.67857">
        <ele>185.7</ele>
        <time>2021-04-15T13:52:16Z</time>
      </trkpt>
      <trkpt lat="43.58415" lon="3.67857">
        <ele>184</ele>
        <time>2021-04-15T13:52:16Z</time>
      </trkpt>
      <trkpt lat="43.58415" lon="3.67854">
        <ele>185.7</ele>
        <time>2021-04-15T13:52:18Z</time>
      </trkpt>
      <trkpt lat="43.58415" lon="3.67854">
        <ele>184</ele>
        <time>2021-04-15T13:52:18Z</time>
      </trkpt>
      <trkpt lat="43.58415" lon="3.67851">
        <ele>185.5</ele>
        <time>2021-04-15T13:52:20Z</time>
      </trkpt>
      <trkpt lat="43.58415" lon="3.67851">
        <ele>184</ele>
        <time>2021-04-15T13:52:20Z</time>
      </trkpt>
      <trkpt lat="43.58416" lon="3.67847">
        <ele>185.3</ele>
        <time>2021-04-15T13:52:22Z</time>
      </trkpt>
      <trkpt lat="43.58416" lon="3.67847">
        <ele>184</ele>
        <time>2021-04-15T13:52:22Z</time>
      </trkpt>
      <trkpt lat="43.58416" lon="3.67845">
        <ele>185.2</ele>
        <time>2021-04-15T13:52:23Z</time>
      </trkpt>
      <trkpt lat="43.58416" lon="3.67845">
        <ele>184</ele>
        <time>2021-04-15T13:52:23Z</time>
      </trkpt>
      <trkpt lat="43.58417" lon="3.67842">
        <ele>185</ele>
        <time>2021-04-15T13:52:25Z</time>
      </trkpt>
      <trkpt lat="43.58417" lon="3.67842">
        <ele>184</ele>
        <time>2021-04-15T13:52:25Z</time>
      </trkpt>
      <trkpt lat="43.58418" lon="3.67839">
        <ele>184.8</ele>
        <time>2021-04-15T13:52:27Z</time>
      </trkpt>
      <trkpt lat="43.58418" lon="3.67839">
        <ele>184</ele>
        <time>2021-04-15T13:52:27Z</time>
      </trkpt>
      <trkpt lat="43.58419" lon="3.67837">
        <ele>184.5</ele>
        <time>2021-04-15T13:52:28Z</time>
      </trkpt>
      <trkpt lat="43.58419" lon="3.67837">
        <ele>184</ele>
        <time>2021-04-15T13:52:28Z</time>
      </trkpt>
      <trkpt lat="43.5842" lon="3.67835">
        <ele>184.2</ele>
        <time>2021-04-15T13:52:30Z</time>
      </trkpt>
      <trkpt lat="43.5842" lon="3.67835">
        <ele>184</ele>
        <time>2021-04-15T13:52:30Z</time>
      </trkpt>
      <trkpt lat="43.58421" lon="3.67833">
        <ele>183.9</ele>
        <time>2021-04-15T13:52:32Z</time>
      </trkpt>
      <trkpt lat="43.58421" lon="3.67833">
        <ele>184</ele>
        <time>2021-04-15T13:52:32Z</time>
      </trkpt>
      <trkpt lat="43.58422" lon="3.67831">
        <ele>183.9</ele>
        <time>2021-04-15T13:52:33Z</time>
      </trkpt>
      <trkpt lat="43.58422" lon="3.67831">
        <ele>182</ele>
        <time>2021-04-15T13:52:33Z</time>
      </trkpt>
      <trkpt lat="43.58424" lon="3.67829">
        <ele>183.9</ele>
        <time>2021-04-15T13:52:34Z</time>
      </trkpt>
      <trkpt lat="43.58424" lon="3.67829">
        <ele>182</ele>
        <time>2021-04-15T13:52:34Z</time>
      </trkpt>
      <trkpt lat="43.58425" lon="3.67827">
        <ele>183.9</ele>
        <time>2021-04-15T13:52:36Z</time>
      </trkpt>
      <trkpt lat="43.58425" lon="3.67827">
        <ele>182</ele>
        <time>2021-04-15T13:52:36Z</time>
      </trkpt>
      <trkpt lat="43.58427" lon="3.67825">
        <ele>183.7</ele>
        <time>2021-04-15T13:52:38Z</time>
      </trkpt>
      <trkpt lat="43.58427" lon="3.67825">
        <ele>182</ele>
        <time>2021-04-15T13:52:38Z</time>
      </trkpt>
      <trkpt lat="43.58429" lon="3.67824">
        <ele>183.5</ele>
        <time>2021-04-15T13:52:40Z</time>
      </trkpt>
      <trkpt lat="43.58429" lon="3.67824">
        <ele>182</ele>
        <time>2021-04-15T13:52:40Z</time>
      </trkpt>
      <trkpt lat="43.5843" lon="3.67822">
        <ele>183.4</ele>
        <time>2021-04-15T13:52:41Z</time>
      </trkpt>
      <trkpt lat="43.5843" lon="3.67822">
        <ele>182</ele>
        <time>2021-04-15T13:52:41Z</time>
      </trkpt>
      <trkpt lat="43.58432" lon="3.67821">
        <ele>183.2</ele>
        <time>2021-04-15T13:52:43Z</time>
      </trkpt>
      <trkpt lat="43.58432" lon="3.67821">
        <ele>182</ele>
        <time>2021-04-15T13:52:43Z</time>
      </trkpt>
      <trkpt lat="43.58433" lon="3.67819">
        <ele>183.1</ele>
        <time>2021-04-15T13:52:44Z</time>
      </trkpt>
      <trkpt lat="43.58433" lon="3.67819">
        <ele>182</ele>
        <time>2021-04-15T13:52:44Z</time>
      </trkpt>
      <trkpt lat="43.58435" lon="3.67818">
        <ele>183</ele>
        <time>2021-04-15T13:52:45Z</time>
      </trkpt>
      <trkpt lat="43.58435" lon="3.67818">
        <ele>182</ele>
        <time>2021-04-15T13:52:45Z</time>
      </trkpt>
      <trkpt lat="43.58436" lon="3.67817">
        <ele>182.9</ele>
        <time>2021-04-15T13:52:47Z</time>
      </trkpt>
      <trkpt lat="43.58436" lon="3.67817">
        <ele>182</ele>
        <time>2021-04-15T13:52:47Z</time>
      </trkpt>
      <trkpt lat="43.58438" lon="3.67816">
        <ele>182.8</ele>
        <time>2021-04-15T13:52:49Z</time>
      </trkpt>
      <trkpt lat="43.58438" lon="3.67816">
        <ele>182</ele>
        <time>2021-04-15T13:52:49Z</time>
      </trkpt>
      <trkpt lat="43.58439" lon="3.67814">
        <ele>182.6</ele>
        <time>2021-04-15T13:52:51Z</time>
      </trkpt>
      <trkpt lat="43.58439" lon="3.67814">
        <ele>181</ele>
        <time>2021-04-15T13:52:51Z</time>
      </trkpt>
      <trkpt lat="43.58441" lon="3.67813">
        <ele>182.4</ele>
        <time>2021-04-15T13:52:53Z</time>
      </trkpt>
      <trkpt lat="43.58441" lon="3.67813">
        <ele>181</ele>
        <time>2021-04-15T13:52:53Z</time>
      </trkpt>
      <trkpt lat="43.58443" lon="3.67812">
        <ele>182.2</ele>
        <time>2021-04-15T13:52:54Z</time>
      </trkpt>
      <trkpt lat="43.58443" lon="3.67812">
        <ele>181</ele>
        <time>2021-04-15T13:52:54Z</time>
      </trkpt>
      <trkpt lat="43.58445" lon="3.6781">
        <ele>182.1</ele>
        <time>2021-04-15T13:52:56Z</time>
      </trkpt>
      <trkpt lat="43.58445" lon="3.6781">
        <ele>181</ele>
        <time>2021-04-15T13:52:56Z</time>
      </trkpt>
      <trkpt lat="43.58447" lon="3.67809">
        <ele>182.1</ele>
        <time>2021-04-15T13:52:58Z</time>
      </trkpt>
      <trkpt lat="43.58447" lon="3.67809">
        <ele>181</ele>
        <time>2021-04-15T13:52:58Z</time>
      </trkpt>
      <trkpt lat="43.58449" lon="3.67808">
        <ele>182</ele>
        <time>2021-04-15T13:53:00Z</time>
      </trkpt>
      <trkpt lat="43.58449" lon="3.67808">
        <ele>181</ele>
        <time>2021-04-15T13:53:00Z</time>
      </trkpt>
      <trkpt lat="43.58451" lon="3.67807">
        <ele>182</ele>
        <time>2021-04-15T13:53:02Z</time>
      </trkpt>
      <trkpt lat="43.58451" lon="3.67807">
        <ele>181</ele>
        <time>2021-04-15T13:53:02Z</time>
      </trkpt>
      <trkpt lat="43.58453" lon="3.67806">
        <ele>182</ele>
        <time>2021-04-15T13:53:03Z</time>
      </trkpt>
      <trkpt lat="43.58453" lon="3.67806">
        <ele>181</ele>
        <time>2021-04-15T13:53:03Z</time>
      </trkpt>
      <trkpt lat="43.58454" lon="3.67806">
        <ele>181.9</ele>
        <time>2021-04-15T13:53:04Z</time>
      </trkpt>
      <trkpt lat="43.58454" lon="3.67806">
        <ele>181</ele>
        <time>2021-04-15T13:53:04Z</time>
      </trkpt>
      <trkpt lat="43.58457" lon="3.67805">
        <ele>181.8</ele>
        <time>2021-04-15T13:53:06Z</time>
      </trkpt>
      <trkpt lat="43.58457" lon="3.67805">
        <ele>181</ele>
        <time>2021-04-15T13:53:06Z</time>
      </trkpt>
      <trkpt lat="43.58458" lon="3.67805">
        <ele>181.6</ele>
        <time>2021-04-15T13:53:08Z</time>
      </trkpt>
      <trkpt lat="43.58458" lon="3.67805">
        <ele>181</ele>
        <time>2021-04-15T13:53:08Z</time>
      </trkpt>
      <trkpt lat="43.5846" lon="3.67804">
        <ele>181.6</ele>
        <time>2021-04-15T13:53:09Z</time>
      </trkpt>
      <trkpt lat="43.5846" lon="3.67804">
        <ele>181</ele>
        <time>2021-04-15T13:53:09Z</time>
      </trkpt>
      <trkpt lat="43.58462" lon="3.67803">
        <ele>181.5</ele>
        <time>2021-04-15T13:53:11Z</time>
      </trkpt>
      <trkpt lat="43.58462" lon="3.67803">
        <ele>180</ele>
        <time>2021-04-15T13:53:11Z</time>
      </trkpt>
      <trkpt lat="43.58464" lon="3.67803">
        <ele>181.4</ele>
        <time>2021-04-15T13:53:13Z</time>
      </trkpt>
      <trkpt lat="43.58464" lon="3.67803">
        <ele>180</ele>
        <time>2021-04-15T13:53:13Z</time>
      </trkpt>
      <trkpt lat="43.58466" lon="3.67802">
        <ele>181.4</ele>
        <time>2021-04-15T13:53:15Z</time>
      </trkpt>
      <trkpt lat="43.58466" lon="3.67802">
        <ele>180</ele>
        <time>2021-04-15T13:53:15Z</time>
      </trkpt>
      <trkpt lat="43.58467" lon="3.67801">
        <ele>181.4</ele>
        <time>2021-04-15T13:53:16Z</time>
      </trkpt>
      <trkpt lat="43.58467" lon="3.67801">
        <ele>180</ele>
        <time>2021-04-15T13:53:16Z</time>
      </trkpt>
      <trkpt lat="43.58469" lon="3.678">
        <ele>181.4</ele>
        <time>2021-04-15T13:53:17Z</time>
      </trkpt>
      <trkpt lat="43.58469" lon="3.678">
        <ele>180</ele>
        <time>2021-04-15T13:53:17Z</time>
      </trkpt>
      <trkpt lat="43.5847" lon="3.67799">
        <ele>181.4</ele>
        <time>2021-04-15T13:53:18Z</time>
      </trkpt>
      <trkpt lat="43.5847" lon="3.67799">
        <ele>180</ele>
        <time>2021-04-15T13:53:18Z</time>
      </trkpt>
      <trkpt lat="43.58472" lon="3.67799">
        <ele>181.3</ele>
        <time>2021-04-15T13:53:20Z</time>
      </trkpt>
      <trkpt lat="43.58472" lon="3.67799">
        <ele>180</ele>
        <time>2021-04-15T13:53:20Z</time>
      </trkpt>
      <trkpt lat="43.58474" lon="3.67798">
        <ele>181.2</ele>
        <time>2021-04-15T13:53:21Z</time>
      </trkpt>
      <trkpt lat="43.58474" lon="3.67798">
        <ele>180</ele>
        <time>2021-04-15T13:53:21Z</time>
      </trkpt>
      <trkpt lat="43.58475" lon="3.67798">
        <ele>181.1</ele>
        <time>2021-04-15T13:53:23Z</time>
      </trkpt>
      <trkpt lat="43.58475" lon="3.67798">
        <ele>180</ele>
        <time>2021-04-15T13:53:23Z</time>
      </trkpt>
      <trkpt lat="43.58477" lon="3.67797">
        <ele>181</ele>
        <time>2021-04-15T13:53:24Z</time>
      </trkpt>
      <trkpt lat="43.58477" lon="3.67797">
        <ele>180</ele>
        <time>2021-04-15T13:53:24Z</time>
      </trkpt>
      <trkpt lat="43.58479" lon="3.67796">
        <ele>181</ele>
        <time>2021-04-15T13:53:26Z</time>
      </trkpt>
      <trkpt lat="43.58479" lon="3.67796">
        <ele>180</ele>
        <time>2021-04-15T13:53:26Z</time>
      </trkpt>
      <trkpt lat="43.58481" lon="3.67796">
        <ele>181</ele>
        <time>2021-04-15T13:53:27Z</time>
      </trkpt>
      <trkpt lat="43.58481" lon="3.67796">
        <ele>180</ele>
        <time>2021-04-15T13:53:27Z</time>
      </trkpt>
      <trkpt lat="43.58483" lon="3.67795">
        <ele>180.9</ele>
        <time>2021-04-15T13:53:29Z</time>
      </trkpt>
      <trkpt lat="43.58483" lon="3.67795">
        <ele>179</ele>
        <time>2021-04-15T13:53:29Z</time>
      </trkpt>
      <trkpt lat="43.58485" lon="3.67795">
        <ele>180.8</ele>
        <time>2021-04-15T13:53:30Z</time>
      </trkpt>
      <trkpt lat="43.58485" lon="3.67795">
        <ele>179</ele>
        <time>2021-04-15T13:53:30Z</time>
      </trkpt>
      <trkpt lat="43.58487" lon="3.67794">
        <ele>180.7</ele>
        <time>2021-04-15T13:53:31Z</time>
      </trkpt>
      <trkpt lat="43.58487" lon="3.67794">
        <ele>179</ele>
        <time>2021-04-15T13:53:31Z</time>
      </trkpt>
      <trkpt lat="43.58489" lon="3.67794">
        <ele>180.5</ele>
        <time>2021-04-15T13:53:33Z</time>
      </trkpt>
      <trkpt lat="43.58489" lon="3.67794">
        <ele>179</ele>
        <time>2021-04-15T13:53:33Z</time>
      </trkpt>
      <trkpt lat="43.5849" lon="3.67794">
        <ele>180.5</ele>
        <time>2021-04-15T13:53:34Z</time>
      </trkpt>
      <trkpt lat="43.5849" lon="3.67794">
        <ele>179</ele>
        <time>2021-04-15T13:53:34Z</time>
      </trkpt>
      <trkpt lat="43.58493" lon="3.67793">
        <ele>180.4</ele>
        <time>2021-04-15T13:53:36Z</time>
      </trkpt>
      <trkpt lat="43.58493" lon="3.67793">
        <ele>179</ele>
        <time>2021-04-15T13:53:36Z</time>
      </trkpt>
      <trkpt lat="43.58495" lon="3.67792">
        <ele>180.3</ele>
        <time>2021-04-15T13:53:37Z</time>
      </trkpt>
      <trkpt lat="43.58495" lon="3.67792">
        <ele>179</ele>
        <time>2021-04-15T13:53:37Z</time>
      </trkpt>
      <trkpt lat="43.58497" lon="3.67792">
        <ele>180.2</ele>
        <time>2021-04-15T13:53:39Z</time>
      </trkpt>
      <trkpt lat="43.58497" lon="3.67792">
        <ele>179</ele>
        <time>2021-04-15T13:53:39Z</time>
      </trkpt>
      <trkpt lat="43.58499" lon="3.67792">
        <ele>180</ele>
        <time>2021-04-15T13:53:41Z</time>
      </trkpt>
      <trkpt lat="43.58499" lon="3.67792">
        <ele>179</ele>
        <time>2021-04-15T13:53:41Z</time>
      </trkpt>
      <trkpt lat="43.58501" lon="3.67793">
        <ele>179.8</ele>
        <time>2021-04-15T13:53:43Z</time>
      </trkpt>
      <trkpt lat="43.58501" lon="3.67793">
        <ele>179</ele>
        <time>2021-04-15T13:53:43Z</time>
      </trkpt>
      <trkpt lat="43.58503" lon="3.67794">
        <ele>179.6</ele>
        <time>2021-04-15T13:53:45Z</time>
      </trkpt>
      <trkpt lat="43.58503" lon="3.67794">
        <ele>179</ele>
        <time>2021-04-15T13:53:45Z</time>
      </trkpt>
      <trkpt lat="43.58505" lon="3.67794">
        <ele>179.4</ele>
        <time>2021-04-15T13:53:46Z</time>
      </trkpt>
      <trkpt lat="43.58505" lon="3.67794">
        <ele>179</ele>
        <time>2021-04-15T13:53:46Z</time>
      </trkpt>
      <trkpt lat="43.58507" lon="3.67795">
        <ele>179.3</ele>
        <time>2021-04-15T13:53:47Z</time>
      </trkpt>
      <trkpt lat="43.58507" lon="3.67795">
        <ele>178</ele>
        <time>2021-04-15T13:53:47Z</time>
      </trkpt>
      <trkpt lat="43.58509" lon="3.67795">
        <ele>179.3</ele>
        <time>2021-04-15T13:53:49Z</time>
      </trkpt>
      <trkpt lat="43.58509" lon="3.67795">
        <ele>178</ele>
        <time>2021-04-15T13:53:49Z</time>
      </trkpt>
      <trkpt lat="43.5851" lon="3.67795">
        <ele>179.3</ele>
        <time>2021-04-15T13:53:50Z</time>
      </trkpt>
      <trkpt lat="43.5851" lon="3.67795">
        <ele>178</ele>
        <time>2021-04-15T13:53:50Z</time>
      </trkpt>
      <trkpt lat="43.58512" lon="3.67795">
        <ele>179.2</ele>
        <time>2021-04-15T13:53:51Z</time>
      </trkpt>
      <trkpt lat="43.58512" lon="3.67795">
        <ele>178</ele>
        <time>2021-04-15T13:53:51Z</time>
      </trkpt>
      <trkpt lat="43.58513" lon="3.67796">
        <ele>179.2</ele>
        <time>2021-04-15T13:53:53Z</time>
      </trkpt>
      <trkpt lat="43.58513" lon="3.67796">
        <ele>178</ele>
        <time>2021-04-15T13:53:53Z</time>
      </trkpt>
      <trkpt lat="43.58515" lon="3.67796">
        <ele>179.1</ele>
        <time>2021-04-15T13:53:55Z</time>
      </trkpt>
      <trkpt lat="43.58515" lon="3.67796">
        <ele>178</ele>
        <time>2021-04-15T13:53:55Z</time>
      </trkpt>
      <trkpt lat="43.58517" lon="3.67797">
        <ele>179</ele>
        <time>2021-04-15T13:53:57Z</time>
      </trkpt>
      <trkpt lat="43.58517" lon="3.67797">
        <ele>178</ele>
        <time>2021-04-15T13:53:57Z</time>
      </trkpt>
      <trkpt lat="43.58519" lon="3.67797">
        <ele>178.9</ele>
        <time>2021-04-15T13:53:59Z</time>
      </trkpt>
      <trkpt lat="43.58519" lon="3.67797">
        <ele>178</ele>
        <time>2021-04-15T13:53:59Z</time>
      </trkpt>
      <trkpt lat="43.58521" lon="3.67797">
        <ele>178.8</ele>
        <time>2021-04-15T13:54:00Z</time>
      </trkpt>
      <trkpt lat="43.58521" lon="3.67797">
        <ele>178</ele>
        <time>2021-04-15T13:54:00Z</time>
      </trkpt>
      <trkpt lat="43.58523" lon="3.67798">
        <ele>178.7</ele>
        <time>2021-04-15T13:54:01Z</time>
      </trkpt>
      <trkpt lat="43.58523" lon="3.67798">
        <ele>178</ele>
        <time>2021-04-15T13:54:01Z</time>
      </trkpt>
      <trkpt lat="43.58525" lon="3.67798">
        <ele>178.6</ele>
        <time>2021-04-15T13:54:03Z</time>
      </trkpt>
      <trkpt lat="43.58525" lon="3.67798">
        <ele>178</ele>
        <time>2021-04-15T13:54:03Z</time>
      </trkpt>
      <trkpt lat="43.58527" lon="3.67799">
        <ele>178.5</ele>
        <time>2021-04-15T13:54:05Z</time>
      </trkpt>
      <trkpt lat="43.58527" lon="3.67799">
        <ele>178</ele>
        <time>2021-04-15T13:54:05Z</time>
      </trkpt>
      <trkpt lat="43.58529" lon="3.67799">
        <ele>178.2</ele>
        <time>2021-04-15T13:54:07Z</time>
      </trkpt>
      <trkpt lat="43.58529" lon="3.67799">
        <ele>177</ele>
        <time>2021-04-15T13:54:07Z</time>
      </trkpt>
      <trkpt lat="43.58532" lon="3.678">
        <ele>177.9</ele>
        <time>2021-04-15T13:54:09Z</time>
      </trkpt>
      <trkpt lat="43.58532" lon="3.678">
        <ele>177</ele>
        <time>2021-04-15T13:54:09Z</time>
      </trkpt>
      <trkpt lat="43.58534" lon="3.678">
        <ele>177.7</ele>
        <time>2021-04-15T13:54:10Z</time>
      </trkpt>
      <trkpt lat="43.58534" lon="3.678">
        <ele>177</ele>
        <time>2021-04-15T13:54:10Z</time>
      </trkpt>
      <trkpt lat="43.58536" lon="3.678">
        <ele>177.5</ele>
        <time>2021-04-15T13:54:12Z</time>
      </trkpt>
      <trkpt lat="43.58536" lon="3.678">
        <ele>177</ele>
        <time>2021-04-15T13:54:12Z</time>
      </trkpt>
      <trkpt lat="43.58538" lon="3.678">
        <ele>177.4</ele>
        <time>2021-04-15T13:54:13Z</time>
      </trkpt>
      <trkpt lat="43.58538" lon="3.678">
        <ele>177</ele>
        <time>2021-04-15T13:54:13Z</time>
      </trkpt>
      <trkpt lat="43.5854" lon="3.678">
        <ele>177.3</ele>
        <time>2021-04-15T13:54:15Z</time>
      </trkpt>
      <trkpt lat="43.5854" lon="3.678">
        <ele>177</ele>
        <time>2021-04-15T13:54:15Z</time>
      </trkpt>
      <trkpt lat="43.58542" lon="3.67799">
        <ele>177.3</ele>
        <time>2021-04-15T13:54:16Z</time>
      </trkpt>
      <trkpt lat="43.58542" lon="3.67799">
        <ele>177</ele>
        <time>2021-04-15T13:54:16Z</time>
      </trkpt>
      <trkpt lat="43.58544" lon="3.67799">
        <ele>177.2</ele>
        <time>2021-04-15T13:54:18Z</time>
      </trkpt>
      <trkpt lat="43.58544" lon="3.67799">
        <ele>177</ele>
        <time>2021-04-15T13:54:18Z</time>
      </trkpt>
      <trkpt lat="43.58546" lon="3.67798">
        <ele>177.1</ele>
        <time>2021-04-15T13:54:20Z</time>
      </trkpt>
      <trkpt lat="43.58546" lon="3.67798">
        <ele>177</ele>
        <time>2021-04-15T13:54:20Z</time>
      </trkpt>
      <trkpt lat="43.58548" lon="3.67798">
        <ele>177.1</ele>
        <time>2021-04-15T13:54:21Z</time>
      </trkpt>
      <trkpt lat="43.58548" lon="3.67798">
        <ele>177</ele>
        <time>2021-04-15T13:54:21Z</time>
      </trkpt>
      <trkpt lat="43.5855" lon="3.67797">
        <ele>177.1</ele>
        <time>2021-04-15T13:54:23Z</time>
      </trkpt>
      <trkpt lat="43.5855" lon="3.67797">
        <ele>177</ele>
        <time>2021-04-15T13:54:23Z</time>
      </trkpt>
      <trkpt lat="43.58552" lon="3.67796">
        <ele>177.1</ele>
        <time>2021-04-15T13:54:24Z</time>
      </trkpt>
      <trkpt lat="43.58552" lon="3.67796">
        <ele>177</ele>
        <time>2021-04-15T13:54:24Z</time>
      </trkpt>
      <trkpt lat="43.58553" lon="3.67794">
        <ele>177.2</ele>
        <time>2021-04-15T13:54:26Z</time>
      </trkpt>
      <trkpt lat="43.58553" lon="3.67794">
        <ele>177</ele>
        <time>2021-04-15T13:54:26Z</time>
      </trkpt>
      <trkpt lat="43.58555" lon="3.67793">
        <ele>177.3</ele>
        <time>2021-04-15T13:54:28Z</time>
      </trkpt>
      <trkpt lat="43.58555" lon="3.67793">
        <ele>177</ele>
        <time>2021-04-15T13:54:28Z</time>
      </trkpt>
      <trkpt lat="43.58557" lon="3.67791">
        <ele>177.4</ele>
        <time>2021-04-15T13:54:30Z</time>
      </trkpt>
      <trkpt lat="43.58557" lon="3.67791">
        <ele>177</ele>
        <time>2021-04-15T13:54:30Z</time>
      </trkpt>
      <trkpt lat="43.58558" lon="3.67789">
        <ele>177.4</ele>
        <time>2021-04-15T13:54:32Z</time>
      </trkpt>
      <trkpt lat="43.58558" lon="3.67789">
        <ele>177</ele>
        <time>2021-04-15T13:54:32Z</time>
      </trkpt>
      <trkpt lat="43.5856" lon="3.67787">
        <ele>177.3</ele>
        <time>2021-04-15T13:54:34Z</time>
      </trkpt>
      <trkpt lat="43.5856" lon="3.67787">
        <ele>177</ele>
        <time>2021-04-15T13:54:34Z</time>
      </trkpt>
      <trkpt lat="43.58562" lon="3.67785">
        <ele>177.3</ele>
        <time>2021-04-15T13:54:35Z</time>
      </trkpt>
      <trkpt lat="43.58562" lon="3.67785">
        <ele>177</ele>
        <time>2021-04-15T13:54:35Z</time>
      </trkpt>
      <trkpt lat="43.58563" lon="3.67783">
        <ele>177.2</ele>
        <time>2021-04-15T13:54:37Z</time>
      </trkpt>
      <trkpt lat="43.58563" lon="3.67783">
        <ele>177</ele>
        <time>2021-04-15T13:54:37Z</time>
      </trkpt>
      <trkpt lat="43.58565" lon="3.67781">
        <ele>177.2</ele>
        <time>2021-04-15T13:54:38Z</time>
      </trkpt>
      <trkpt lat="43.58565" lon="3.67781">
        <ele>177</ele>
        <time>2021-04-15T13:54:38Z</time>
      </trkpt>
      <trkpt lat="43.58566" lon="3.67779">
        <ele>177.2</ele>
        <time>2021-04-15T13:54:40Z</time>
      </trkpt>
      <trkpt lat="43.58566" lon="3.67779">
        <ele>177</ele>
        <time>2021-04-15T13:54:40Z</time>
      </trkpt>
      <trkpt lat="43.58567" lon="3.67777">
        <ele>177.3</ele>
        <time>2021-04-15T13:54:41Z</time>
      </trkpt>
      <trkpt lat="43.58567" lon="3.67777">
        <ele>177</ele>
        <time>2021-04-15T13:54:41Z</time>
      </trkpt>
      <trkpt lat="43.58567" lon="3.67776">
        <ele>177.1</ele>
        <time>2021-04-15T13:54:42Z</time>
      </trkpt>
      <trkpt lat="43.58567" lon="3.67776">
        <ele>177</ele>
        <time>2021-04-15T13:54:42Z</time>
      </trkpt>
      <trkpt lat="43.58567" lon="3.67774">
        <ele>177.1</ele>
        <time>2021-04-15T13:54:44Z</time>
      </trkpt>
      <trkpt lat="43.58567" lon="3.67774">
        <ele>177</ele>
        <time>2021-04-15T13:54:44Z</time>
      </trkpt>
      <trkpt lat="43.58568" lon="3.67772">
        <ele>177</ele>
        <time>2021-04-15T13:54:45Z</time>
      </trkpt>
      <trkpt lat="43.58568" lon="3.67772">
        <ele>177</ele>
        <time>2021-04-15T13:54:45Z</time>
      </trkpt>
      <trkpt lat="43.58568" lon="3.6777">
        <ele>177</ele>
        <time>2021-04-15T13:54:47Z</time>
      </trkpt>
      <trkpt lat="43.58568" lon="3.6777">
        <ele>177</ele>
        <time>2021-04-15T13:54:47Z</time>
      </trkpt>
      <trkpt lat="43.58568" lon="3.67768">
        <ele>177</ele>
        <time>2021-04-15T13:54:49Z</time>
      </trkpt>
      <trkpt lat="43.58568" lon="3.67768">
        <ele>177</ele>
        <time>2021-04-15T13:54:49Z</time>
      </trkpt>
      <trkpt lat="43.58569" lon="3.67765">
        <ele>176.9</ele>
        <time>2021-04-15T13:54:51Z</time>
      </trkpt>
      <trkpt lat="43.58569" lon="3.67765">
        <ele>177</ele>
        <time>2021-04-15T13:54:51Z</time>
      </trkpt>
      <trkpt lat="43.58569" lon="3.67763">
        <ele>176.9</ele>
        <time>2021-04-15T13:54:52Z</time>
      </trkpt>
      <trkpt lat="43.58569" lon="3.67763">
        <ele>177</ele>
        <time>2021-04-15T13:54:52Z</time>
      </trkpt>
      <trkpt lat="43.58569" lon="3.6776">
        <ele>176.8</ele>
        <time>2021-04-15T13:54:54Z</time>
      </trkpt>
      <trkpt lat="43.58569" lon="3.6776">
        <ele>177</ele>
        <time>2021-04-15T13:54:54Z</time>
      </trkpt>
      <trkpt lat="43.58569" lon="3.67757">
        <ele>176.9</ele>
        <time>2021-04-15T13:54:56Z</time>
      </trkpt>
      <trkpt lat="43.58569" lon="3.67757">
        <ele>177</ele>
        <time>2021-04-15T13:54:56Z</time>
      </trkpt>
      <trkpt lat="43.58569" lon="3.67754">
        <ele>177</ele>
        <time>2021-04-15T13:54:57Z</time>
      </trkpt>
      <trkpt lat="43.58569" lon="3.67754">
        <ele>177</ele>
        <time>2021-04-15T13:54:57Z</time>
      </trkpt>
      <trkpt lat="43.58569" lon="3.67752">
        <ele>177.1</ele>
        <time>2021-04-15T13:54:59Z</time>
      </trkpt>
      <trkpt lat="43.58569" lon="3.67752">
        <ele>177</ele>
        <time>2021-04-15T13:54:59Z</time>
      </trkpt>
      <trkpt lat="43.58569" lon="3.67749">
        <ele>177.1</ele>
        <time>2021-04-15T13:55:00Z</time>
      </trkpt>
      <trkpt lat="43.58569" lon="3.67749">
        <ele>177</ele>
        <time>2021-04-15T13:55:00Z</time>
      </trkpt>
      <trkpt lat="43.58569" lon="3.67747">
        <ele>177</ele>
        <time>2021-04-15T13:55:01Z</time>
      </trkpt>
      <trkpt lat="43.58569" lon="3.67747">
        <ele>177</ele>
        <time>2021-04-15T13:55:01Z</time>
      </trkpt>
      <trkpt lat="43.58568" lon="3.67745">
        <ele>176.9</ele>
        <time>2021-04-15T13:55:03Z</time>
      </trkpt>
      <trkpt lat="43.58568" lon="3.67745">
        <ele>177</ele>
        <time>2021-04-15T13:55:03Z</time>
      </trkpt>
      <trkpt lat="43.58568" lon="3.67742">
        <ele>176.8</ele>
        <time>2021-04-15T13:55:05Z</time>
      </trkpt>
      <trkpt lat="43.58568" lon="3.67742">
        <ele>177</ele>
        <time>2021-04-15T13:55:05Z</time>
      </trkpt>
      <trkpt lat="43.58567" lon="3.6774">
        <ele>176.9</ele>
        <time>2021-04-15T13:55:07Z</time>
      </trkpt>
      <trkpt lat="43.58567" lon="3.6774">
        <ele>177</ele>
        <time>2021-04-15T13:55:07Z</time>
      </trkpt>
      <trkpt lat="43.58566" lon="3.67738">
        <ele>176.9</ele>
        <time>2021-04-15T13:55:08Z</time>
      </trkpt>
      <trkpt lat="43.58566" lon="3.67738">
        <ele>177</ele>
        <time>2021-04-15T13:55:08Z</time>
      </trkpt>
      <trkpt lat="43.58565" lon="3.67735">
        <ele>176.9</ele>
        <time>2021-04-15T13:55:10Z</time>
      </trkpt>
      <trkpt lat="43.58565" lon="3.67735">
        <ele>177</ele>
        <time>2021-04-15T13:55:10Z</time>
      </trkpt>
      <trkpt lat="43.58564" lon="3.67732">
        <ele>176.9</ele>
        <time>2021-04-15T13:55:12Z</time>
      </trkpt>
      <trkpt lat="43.58564" lon="3.67732">
        <ele>177</ele>
        <time>2021-04-15T13:55:12Z</time>
      </trkpt>
      <trkpt lat="43.58562" lon="3.67729">
        <ele>177</ele>
        <time>2021-04-15T13:55:14Z</time>
      </trkpt>
      <trkpt lat="43.58562" lon="3.67729">
        <ele>177</ele>
        <time>2021-04-15T13:55:14Z</time>
      </trkpt>
      <trkpt lat="43.5856" lon="3.67727">
        <ele>177.3</ele>
        <time>2021-04-15T13:55:16Z</time>
      </trkpt>
      <trkpt lat="43.5856" lon="3.67727">
        <ele>177</ele>
        <time>2021-04-15T13:55:16Z</time>
      </trkpt>
      <trkpt lat="43.58559" lon="3.67725">
        <ele>177.5</ele>
        <time>2021-04-15T13:55:18Z</time>
      </trkpt>
      <trkpt lat="43.58559" lon="3.67725">
        <ele>177</ele>
        <time>2021-04-15T13:55:18Z</time>
      </trkpt>
      <trkpt lat="43.58558" lon="3.67724">
        <ele>177.6</ele>
        <time>2021-04-15T13:55:19Z</time>
      </trkpt>
      <trkpt lat="43.58558" lon="3.67724">
        <ele>177</ele>
        <time>2021-04-15T13:55:19Z</time>
      </trkpt>
      <trkpt lat="43.58556" lon="3.67723">
        <ele>177.9</ele>
        <time>2021-04-15T13:55:21Z</time>
      </trkpt>
      <trkpt lat="43.58556" lon="3.67723">
        <ele>177</ele>
        <time>2021-04-15T13:55:21Z</time>
      </trkpt>
      <trkpt lat="43.58554" lon="3.67722">
        <ele>178</ele>
        <time>2021-04-15T13:55:22Z</time>
      </trkpt>
      <trkpt lat="43.58554" lon="3.67722">
        <ele>177</ele>
        <time>2021-04-15T13:55:22Z</time>
      </trkpt>
      <trkpt lat="43.58553" lon="3.6772">
        <ele>178.1</ele>
        <time>2021-04-15T13:55:24Z</time>
      </trkpt>
      <trkpt lat="43.58553" lon="3.6772">
        <ele>177</ele>
        <time>2021-04-15T13:55:24Z</time>
      </trkpt>
      <trkpt lat="43.58551" lon="3.67719">
        <ele>178.1</ele>
        <time>2021-04-15T13:55:25Z</time>
      </trkpt>
      <trkpt lat="43.58551" lon="3.67719">
        <ele>177</ele>
        <time>2021-04-15T13:55:25Z</time>
      </trkpt>
      <trkpt lat="43.58549" lon="3.67718">
        <ele>178.1</ele>
        <time>2021-04-15T13:55:27Z</time>
      </trkpt>
      <trkpt lat="43.58549" lon="3.67718">
        <ele>177</ele>
        <time>2021-04-15T13:55:27Z</time>
      </trkpt>
      <trkpt lat="43.58548" lon="3.67717">
        <ele>178.1</ele>
        <time>2021-04-15T13:55:28Z</time>
      </trkpt>
      <trkpt lat="43.58548" lon="3.67717">
        <ele>177</ele>
        <time>2021-04-15T13:55:28Z</time>
      </trkpt>
      <trkpt lat="43.58546" lon="3.67715">
        <ele>178.2</ele>
        <time>2021-04-15T13:55:29Z</time>
      </trkpt>
      <trkpt lat="43.58546" lon="3.67715">
        <ele>177</ele>
        <time>2021-04-15T13:55:29Z</time>
      </trkpt>
      <trkpt lat="43.58545" lon="3.67714">
        <ele>178.2</ele>
        <time>2021-04-15T13:55:31Z</time>
      </trkpt>
      <trkpt lat="43.58545" lon="3.67714">
        <ele>177</ele>
        <time>2021-04-15T13:55:31Z</time>
      </trkpt>
      <trkpt lat="43.58542" lon="3.67712">
        <ele>178.3</ele>
        <time>2021-04-15T13:55:33Z</time>
      </trkpt>
      <trkpt lat="43.58542" lon="3.67712">
        <ele>177</ele>
        <time>2021-04-15T13:55:33Z</time>
      </trkpt>
      <trkpt lat="43.5854" lon="3.67711">
        <ele>178.3</ele>
        <time>2021-04-15T13:55:35Z</time>
      </trkpt>
      <trkpt lat="43.5854" lon="3.67711">
        <ele>177</ele>
        <time>2021-04-15T13:55:35Z</time>
      </trkpt>
      <trkpt lat="43.58538" lon="3.67709">
        <ele>178.4</ele>
        <time>2021-04-15T13:55:37Z</time>
      </trkpt>
      <trkpt lat="43.58538" lon="3.67709">
        <ele>177</ele>
        <time>2021-04-15T13:55:37Z</time>
      </trkpt>
      <trkpt lat="43.58537" lon="3.67707">
        <ele>178.4</ele>
        <time>2021-04-15T13:55:39Z</time>
      </trkpt>
      <trkpt lat="43.58537" lon="3.67707">
        <ele>178</ele>
        <time>2021-04-15T13:55:39Z</time>
      </trkpt>
      <trkpt lat="43.58535" lon="3.67706">
        <ele>178.5</ele>
        <time>2021-04-15T13:55:40Z</time>
      </trkpt>
      <trkpt lat="43.58535" lon="3.67706">
        <ele>178</ele>
        <time>2021-04-15T13:55:40Z</time>
      </trkpt>
      <trkpt lat="43.58533" lon="3.67705">
        <ele>178.7</ele>
        <time>2021-04-15T13:55:42Z</time>
      </trkpt>
      <trkpt lat="43.58533" lon="3.67705">
        <ele>178</ele>
        <time>2021-04-15T13:55:42Z</time>
      </trkpt>
      <trkpt lat="43.58531" lon="3.67704">
        <ele>178.8</ele>
        <time>2021-04-15T13:55:43Z</time>
      </trkpt>
      <trkpt lat="43.58531" lon="3.67704">
        <ele>178</ele>
        <time>2021-04-15T13:55:43Z</time>
      </trkpt>
      <trkpt lat="43.5853" lon="3.67703">
        <ele>178.9</ele>
        <time>2021-04-15T13:55:44Z</time>
      </trkpt>
      <trkpt lat="43.5853" lon="3.67703">
        <ele>178</ele>
        <time>2021-04-15T13:55:44Z</time>
      </trkpt>
      <trkpt lat="43.58528" lon="3.67702">
        <ele>179</ele>
        <time>2021-04-15T13:55:46Z</time>
      </trkpt>
      <trkpt lat="43.58528" lon="3.67702">
        <ele>178</ele>
        <time>2021-04-15T13:55:46Z</time>
      </trkpt>
      <trkpt lat="43.58527" lon="3.67701">
        <ele>179.1</ele>
        <time>2021-04-15T13:55:48Z</time>
      </trkpt>
      <trkpt lat="43.58527" lon="3.67701">
        <ele>178</ele>
        <time>2021-04-15T13:55:48Z</time>
      </trkpt>
      <trkpt lat="43.58525" lon="3.67701">
        <ele>179.1</ele>
        <time>2021-04-15T13:55:49Z</time>
      </trkpt>
      <trkpt lat="43.58525" lon="3.67701">
        <ele>178</ele>
        <time>2021-04-15T13:55:49Z</time>
      </trkpt>
      <trkpt lat="43.58523" lon="3.67701">
        <ele>179.2</ele>
        <time>2021-04-15T13:55:50Z</time>
      </trkpt>
      <trkpt lat="43.58523" lon="3.67701">
        <ele>178</ele>
        <time>2021-04-15T13:55:50Z</time>
      </trkpt>
      <trkpt lat="43.58522" lon="3.677">
        <ele>179.3</ele>
        <time>2021-04-15T13:55:52Z</time>
      </trkpt>
      <trkpt lat="43.58522" lon="3.677">
        <ele>178</ele>
        <time>2021-04-15T13:55:52Z</time>
      </trkpt>
      <trkpt lat="43.5852" lon="3.67699">
        <ele>179.3</ele>
        <time>2021-04-15T13:55:54Z</time>
      </trkpt>
      <trkpt lat="43.5852" lon="3.67699">
        <ele>178</ele>
        <time>2021-04-15T13:55:54Z</time>
      </trkpt>
      <trkpt lat="43.58518" lon="3.67699">
        <ele>179.3</ele>
        <time>2021-04-15T13:55:55Z</time>
      </trkpt>
      <trkpt lat="43.58518" lon="3.67699">
        <ele>178</ele>
        <time>2021-04-15T13:55:55Z</time>
      </trkpt>
      <trkpt lat="43.58516" lon="3.67698">
        <ele>179.4</ele>
        <time>2021-04-15T13:55:57Z</time>
      </trkpt>
      <trkpt lat="43.58516" lon="3.67698">
        <ele>179</ele>
        <time>2021-04-15T13:55:57Z</time>
      </trkpt>
      <trkpt lat="43.58514" lon="3.67697">
        <ele>179.4</ele>
        <time>2021-04-15T13:55:59Z</time>
      </trkpt>
      <trkpt lat="43.58514" lon="3.67697">
        <ele>179</ele>
        <time>2021-04-15T13:55:59Z</time>
      </trkpt>
      <trkpt lat="43.58512" lon="3.67697">
        <ele>179.5</ele>
        <time>2021-04-15T13:56:01Z</time>
      </trkpt>
      <trkpt lat="43.58512" lon="3.67697">
        <ele>179</ele>
        <time>2021-04-15T13:56:01Z</time>
      </trkpt>
      <trkpt lat="43.58509" lon="3.67696">
        <ele>179.6</ele>
        <time>2021-04-15T13:56:03Z</time>
      </trkpt>
      <trkpt lat="43.58509" lon="3.67696">
        <ele>179</ele>
        <time>2021-04-15T13:56:03Z</time>
      </trkpt>
      <trkpt lat="43.58507" lon="3.67695">
        <ele>179.6</ele>
        <time>2021-04-15T13:56:05Z</time>
      </trkpt>
      <trkpt lat="43.58507" lon="3.67695">
        <ele>179</ele>
        <time>2021-04-15T13:56:05Z</time>
      </trkpt>
      <trkpt lat="43.58505" lon="3.67695">
        <ele>179.6</ele>
        <time>2021-04-15T13:56:06Z</time>
      </trkpt>
      <trkpt lat="43.58505" lon="3.67695">
        <ele>179</ele>
        <time>2021-04-15T13:56:06Z</time>
      </trkpt>
      <trkpt lat="43.58504" lon="3.67695">
        <ele>179.8</ele>
        <time>2021-04-15T13:56:07Z</time>
      </trkpt>
      <trkpt lat="43.58504" lon="3.67695">
        <ele>179</ele>
        <time>2021-04-15T13:56:07Z</time>
      </trkpt>
      <trkpt lat="43.58502" lon="3.67695">
        <ele>179.9</ele>
        <time>2021-04-15T13:56:09Z</time>
      </trkpt>
      <trkpt lat="43.58502" lon="3.67695">
        <ele>179</ele>
        <time>2021-04-15T13:56:09Z</time>
      </trkpt>
      <trkpt lat="43.585" lon="3.67694">
        <ele>180</ele>
        <time>2021-04-15T13:56:11Z</time>
      </trkpt>
      <trkpt lat="43.585" lon="3.67694">
        <ele>179</ele>
        <time>2021-04-15T13:56:11Z</time>
      </trkpt>
      <trkpt lat="43.58498" lon="3.67694">
        <ele>180.2</ele>
        <time>2021-04-15T13:56:13Z</time>
      </trkpt>
      <trkpt lat="43.58498" lon="3.67694">
        <ele>179</ele>
        <time>2021-04-15T13:56:13Z</time>
      </trkpt>
      <trkpt lat="43.58496" lon="3.67694">
        <ele>180.6</ele>
        <time>2021-04-15T13:56:15Z</time>
      </trkpt>
      <trkpt lat="43.58496" lon="3.67694">
        <ele>181</ele>
        <time>2021-04-15T13:56:15Z</time>
      </trkpt>
      <trkpt lat="43.58495" lon="3.67694">
        <ele>180.8</ele>
        <time>2021-04-15T13:56:17Z</time>
      </trkpt>
      <trkpt lat="43.58495" lon="3.67694">
        <ele>181</ele>
        <time>2021-04-15T13:56:17Z</time>
      </trkpt>
      <trkpt lat="43.58493" lon="3.67694">
        <ele>181.1</ele>
        <time>2021-04-15T13:56:19Z</time>
      </trkpt>
      <trkpt lat="43.58493" lon="3.67694">
        <ele>181</ele>
        <time>2021-04-15T13:56:19Z</time>
      </trkpt>
      <trkpt lat="43.58491" lon="3.67694">
        <ele>181.4</ele>
        <time>2021-04-15T13:56:21Z</time>
      </trkpt>
      <trkpt lat="43.58491" lon="3.67694">
        <ele>181</ele>
        <time>2021-04-15T13:56:21Z</time>
      </trkpt>
      <trkpt lat="43.58489" lon="3.67693">
        <ele>181.7</ele>
        <time>2021-04-15T13:56:22Z</time>
      </trkpt>
      <trkpt lat="43.58489" lon="3.67693">
        <ele>181</ele>
        <time>2021-04-15T13:56:22Z</time>
      </trkpt>
      <trkpt lat="43.58488" lon="3.67693">
        <ele>181.9</ele>
        <time>2021-04-15T13:56:24Z</time>
      </trkpt>
      <trkpt lat="43.58488" lon="3.67693">
        <ele>181</ele>
        <time>2021-04-15T13:56:24Z</time>
      </trkpt>
      <trkpt lat="43.58486" lon="3.67693">
        <ele>182.1</ele>
        <time>2021-04-15T13:56:25Z</time>
      </trkpt>
      <trkpt lat="43.58486" lon="3.67693">
        <ele>181</ele>
        <time>2021-04-15T13:56:25Z</time>
      </trkpt>
      <trkpt lat="43.58485" lon="3.67692">
        <ele>182.3</ele>
        <time>2021-04-15T13:56:27Z</time>
      </trkpt>
      <trkpt lat="43.58485" lon="3.67692">
        <ele>181</ele>
        <time>2021-04-15T13:56:27Z</time>
      </trkpt>
      <trkpt lat="43.58483" lon="3.67691">
        <ele>182.4</ele>
        <time>2021-04-15T13:56:29Z</time>
      </trkpt>
      <trkpt lat="43.58483" lon="3.67691">
        <ele>181</ele>
        <time>2021-04-15T13:56:29Z</time>
      </trkpt>
      <trkpt lat="43.58481" lon="3.6769">
        <ele>182.5</ele>
        <time>2021-04-15T13:56:30Z</time>
      </trkpt>
      <trkpt lat="43.58481" lon="3.6769">
        <ele>181</ele>
        <time>2021-04-15T13:56:30Z</time>
      </trkpt>
      <trkpt lat="43.5848" lon="3.67689">
        <ele>182.6</ele>
        <time>2021-04-15T13:56:31Z</time>
      </trkpt>
      <trkpt lat="43.5848" lon="3.67689">
        <ele>181</ele>
        <time>2021-04-15T13:56:31Z</time>
      </trkpt>
      <trkpt lat="43.58479" lon="3.67689">
        <ele>182.8</ele>
        <time>2021-04-15T13:56:33Z</time>
      </trkpt>
      <trkpt lat="43.58479" lon="3.67689">
        <ele>182</ele>
        <time>2021-04-15T13:56:33Z</time>
      </trkpt>
      <trkpt lat="43.58477" lon="3.67688">
        <ele>182.9</ele>
        <time>2021-04-15T13:56:35Z</time>
      </trkpt>
      <trkpt lat="43.58477" lon="3.67688">
        <ele>182</ele>
        <time>2021-04-15T13:56:35Z</time>
      </trkpt>
      <trkpt lat="43.58475" lon="3.67687">
        <ele>183.1</ele>
        <time>2021-04-15T13:56:37Z</time>
      </trkpt>
      <trkpt lat="43.58475" lon="3.67687">
        <ele>182</ele>
        <time>2021-04-15T13:56:37Z</time>
      </trkpt>
      <trkpt lat="43.58474" lon="3.67686">
        <ele>183.2</ele>
        <time>2021-04-15T13:56:38Z</time>
      </trkpt>
      <trkpt lat="43.58474" lon="3.67686">
        <ele>182</ele>
        <time>2021-04-15T13:56:38Z</time>
      </trkpt>
      <trkpt lat="43.58472" lon="3.67685">
        <ele>183.3</ele>
        <time>2021-04-15T13:56:40Z</time>
      </trkpt>
      <trkpt lat="43.58472" lon="3.67685">
        <ele>182</ele>
        <time>2021-04-15T13:56:40Z</time>
      </trkpt>
      <trkpt lat="43.5847" lon="3.67684">
        <ele>183.5</ele>
        <time>2021-04-15T13:56:42Z</time>
      </trkpt>
      <trkpt lat="43.5847" lon="3.67684">
        <ele>182</ele>
        <time>2021-04-15T13:56:42Z</time>
      </trkpt>
      <trkpt lat="43.58469" lon="3.67683">
        <ele>183.7</ele>
        <time>2021-04-15T13:56:44Z</time>
      </trkpt>
      <trkpt lat="43.58469" lon="3.67683">
        <ele>182</ele>
        <time>2021-04-15T13:56:44Z</time>
      </trkpt>
      <trkpt lat="43.58467" lon="3.67682">
        <ele>183.9</ele>
        <time>2021-04-15T13:56:45Z</time>
      </trkpt>
      <trkpt lat="43.58467" lon="3.67682">
        <ele>182</ele>
        <time>2021-04-15T13:56:45Z</time>
      </trkpt>
      <trkpt lat="43.58465" lon="3.67681">
        <ele>184.1</ele>
        <time>2021-04-15T13:56:47Z</time>
      </trkpt>
      <trkpt lat="43.58465" lon="3.67681">
        <ele>182</ele>
        <time>2021-04-15T13:56:47Z</time>
      </trkpt>
      <trkpt lat="43.58463" lon="3.6768">
        <ele>184.4</ele>
        <time>2021-04-15T13:56:49Z</time>
      </trkpt>
      <trkpt lat="43.58463" lon="3.6768">
        <ele>182</ele>
        <time>2021-04-15T13:56:49Z</time>
      </trkpt>
      <trkpt lat="43.58462" lon="3.6768">
        <ele>184.6</ele>
        <time>2021-04-15T13:56:50Z</time>
      </trkpt>
      <trkpt lat="43.58462" lon="3.6768">
        <ele>182</ele>
        <time>2021-04-15T13:56:50Z</time>
      </trkpt>
      <trkpt lat="43.58461" lon="3.67679">
        <ele>184.7</ele>
        <time>2021-04-15T13:56:52Z</time>
      </trkpt>
      <trkpt lat="43.58461" lon="3.67679">
        <ele>185</ele>
        <time>2021-04-15T13:56:52Z</time>
      </trkpt>
      <trkpt lat="43.58459" lon="3.67677">
        <ele>184.9</ele>
        <time>2021-04-15T13:56:54Z</time>
      </trkpt>
      <trkpt lat="43.58459" lon="3.67677">
        <ele>185</ele>
        <time>2021-04-15T13:56:54Z</time>
      </trkpt>
      <trkpt lat="43.58458" lon="3.67676">
        <ele>185.1</ele>
        <time>2021-04-15T13:56:55Z</time>
      </trkpt>
      <trkpt lat="43.58458" lon="3.67676">
        <ele>185</ele>
        <time>2021-04-15T13:56:55Z</time>
      </trkpt>
      <trkpt lat="43.58456" lon="3.67675">
        <ele>185.3</ele>
        <time>2021-04-15T13:56:57Z</time>
      </trkpt>
      <trkpt lat="43.58456" lon="3.67675">
        <ele>185</ele>
        <time>2021-04-15T13:56:57Z</time>
      </trkpt>
      <trkpt lat="43.58455" lon="3.67674">
        <ele>185.5</ele>
        <time>2021-04-15T13:56:58Z</time>
      </trkpt>
      <trkpt lat="43.58455" lon="3.67674">
        <ele>185</ele>
        <time>2021-04-15T13:56:58Z</time>
      </trkpt>
      <trkpt lat="43.58453" lon="3.67673">
        <ele>185.7</ele>
        <time>2021-04-15T13:56:59Z</time>
      </trkpt>
      <trkpt lat="43.58453" lon="3.67673">
        <ele>185</ele>
        <time>2021-04-15T13:56:59Z</time>
      </trkpt>
      <trkpt lat="43.58452" lon="3.67672">
        <ele>185.9</ele>
        <time>2021-04-15T13:57:01Z</time>
      </trkpt>
      <trkpt lat="43.58452" lon="3.67672">
        <ele>185</ele>
        <time>2021-04-15T13:57:01Z</time>
      </trkpt>
      <trkpt lat="43.5845" lon="3.67671">
        <ele>186.2</ele>
        <time>2021-04-15T13:57:03Z</time>
      </trkpt>
      <trkpt lat="43.5845" lon="3.67671">
        <ele>185</ele>
        <time>2021-04-15T13:57:03Z</time>
      </trkpt>
      <trkpt lat="43.58448" lon="3.6767">
        <ele>186.4</ele>
        <time>2021-04-15T13:57:05Z</time>
      </trkpt>
      <trkpt lat="43.58448" lon="3.6767">
        <ele>185</ele>
        <time>2021-04-15T13:57:05Z</time>
      </trkpt>
      <trkpt lat="43.58447" lon="3.67669">
        <ele>186.7</ele>
        <time>2021-04-15T13:57:07Z</time>
      </trkpt>
      <trkpt lat="43.58447" lon="3.67669">
        <ele>185</ele>
        <time>2021-04-15T13:57:07Z</time>
      </trkpt>
      <trkpt lat="43.58445" lon="3.67667">
        <ele>187</ele>
        <time>2021-04-15T13:57:09Z</time>
      </trkpt>
      <trkpt lat="43.58445" lon="3.67667">
        <ele>186</ele>
        <time>2021-04-15T13:57:09Z</time>
      </trkpt>
      <trkpt lat="43.58443" lon="3.67666">
        <ele>187.3</ele>
        <time>2021-04-15T13:57:11Z</time>
      </trkpt>
      <trkpt lat="43.58443" lon="3.67666">
        <ele>186</ele>
        <time>2021-04-15T13:57:11Z</time>
      </trkpt>
      <trkpt lat="43.58441" lon="3.67665">
        <ele>187.6</ele>
        <time>2021-04-15T13:57:12Z</time>
      </trkpt>
      <trkpt lat="43.58441" lon="3.67665">
        <ele>186</ele>
        <time>2021-04-15T13:57:12Z</time>
      </trkpt>
      <trkpt lat="43.5844" lon="3.67663">
        <ele>187.8</ele>
        <time>2021-04-15T13:57:13Z</time>
      </trkpt>
      <trkpt lat="43.5844" lon="3.67663">
        <ele>186</ele>
        <time>2021-04-15T13:57:13Z</time>
      </trkpt>
      <trkpt lat="43.58439" lon="3.67662">
        <ele>188.1</ele>
        <time>2021-04-15T13:57:15Z</time>
      </trkpt>
      <trkpt lat="43.58439" lon="3.67662">
        <ele>186</ele>
        <time>2021-04-15T13:57:15Z</time>
      </trkpt>
      <trkpt lat="43.58437" lon="3.67661">
        <ele>188.3</ele>
        <time>2021-04-15T13:57:16Z</time>
      </trkpt>
      <trkpt lat="43.58437" lon="3.67661">
        <ele>186</ele>
        <time>2021-04-15T13:57:16Z</time>
      </trkpt>
      <trkpt lat="43.58436" lon="3.67659">
        <ele>188.5</ele>
        <time>2021-04-15T13:57:18Z</time>
      </trkpt>
      <trkpt lat="43.58436" lon="3.67659">
        <ele>186</ele>
        <time>2021-04-15T13:57:18Z</time>
      </trkpt>
      <trkpt lat="43.58435" lon="3.67658">
        <ele>188.6</ele>
        <time>2021-04-15T13:57:19Z</time>
      </trkpt>
      <trkpt lat="43.58435" lon="3.67658">
        <ele>186</ele>
        <time>2021-04-15T13:57:19Z</time>
      </trkpt>
      <trkpt lat="43.58434" lon="3.67656">
        <ele>188.8</ele>
        <time>2021-04-15T13:57:21Z</time>
      </trkpt>
      <trkpt lat="43.58434" lon="3.67656">
        <ele>186</ele>
        <time>2021-04-15T13:57:21Z</time>
      </trkpt>
      <trkpt lat="43.58433" lon="3.67654">
        <ele>188.9</ele>
        <time>2021-04-15T13:57:23Z</time>
      </trkpt>
      <trkpt lat="43.58433" lon="3.67654">
        <ele>187</ele>
        <time>2021-04-15T13:57:23Z</time>
      </trkpt>
      <trkpt lat="43.58432" lon="3.67652">
        <ele>189</ele>
        <time>2021-04-15T13:57:25Z</time>
      </trkpt>
      <trkpt lat="43.58432" lon="3.67652">
        <ele>187</ele>
        <time>2021-04-15T13:57:25Z</time>
      </trkpt>
      <trkpt lat="43.58431" lon="3.6765">
        <ele>189.1</ele>
        <time>2021-04-15T13:57:27Z</time>
      </trkpt>
      <trkpt lat="43.58431" lon="3.6765">
        <ele>188</ele>
        <time>2021-04-15T13:57:27Z</time>
      </trkpt>
      <trkpt lat="43.5843" lon="3.67647">
        <ele>189.2</ele>
        <time>2021-04-15T13:57:28Z</time>
      </trkpt>
      <trkpt lat="43.5843" lon="3.67647">
        <ele>188</ele>
        <time>2021-04-15T13:57:28Z</time>
      </trkpt>
      <trkpt lat="43.5843" lon="3.67646">
        <ele>189.3</ele>
        <time>2021-04-15T13:57:29Z</time>
      </trkpt>
      <trkpt lat="43.5843" lon="3.67646">
        <ele>188</ele>
        <time>2021-04-15T13:57:29Z</time>
      </trkpt>
      <trkpt lat="43.58429" lon="3.67643">
        <ele>189.4</ele>
        <time>2021-04-15T13:57:31Z</time>
      </trkpt>
      <trkpt lat="43.58429" lon="3.67643">
        <ele>188</ele>
        <time>2021-04-15T13:57:31Z</time>
      </trkpt>
      <trkpt lat="43.58428" lon="3.67641">
        <ele>189.6</ele>
        <time>2021-04-15T13:57:32Z</time>
      </trkpt>
      <trkpt lat="43.58428" lon="3.67641">
        <ele>188</ele>
        <time>2021-04-15T13:57:32Z</time>
      </trkpt>
      <trkpt lat="43.58427" lon="3.6764">
        <ele>189.8</ele>
        <time>2021-04-15T13:57:33Z</time>
      </trkpt>
      <trkpt lat="43.58427" lon="3.6764">
        <ele>188</ele>
        <time>2021-04-15T13:57:33Z</time>
      </trkpt>
      <trkpt lat="43.58426" lon="3.67638">
        <ele>190</ele>
        <time>2021-04-15T13:57:35Z</time>
      </trkpt>
      <trkpt lat="43.58426" lon="3.67638">
        <ele>188</ele>
        <time>2021-04-15T13:57:35Z</time>
      </trkpt>
      <trkpt lat="43.58425" lon="3.67636">
        <ele>190.2</ele>
        <time>2021-04-15T13:57:36Z</time>
      </trkpt>
      <trkpt lat="43.58425" lon="3.67636">
        <ele>188</ele>
        <time>2021-04-15T13:57:36Z</time>
      </trkpt>
      <trkpt lat="43.58425" lon="3.67635">
        <ele>190.3</ele>
        <time>2021-04-15T13:57:37Z</time>
      </trkpt>
      <trkpt lat="43.58425" lon="3.67635">
        <ele>188</ele>
        <time>2021-04-15T13:57:37Z</time>
      </trkpt>
      <trkpt lat="43.58424" lon="3.67633">
        <ele>190.6</ele>
        <time>2021-04-15T13:57:39Z</time>
      </trkpt>
      <trkpt lat="43.58424" lon="3.67633">
        <ele>189</ele>
        <time>2021-04-15T13:57:39Z</time>
      </trkpt>
      <trkpt lat="43.58424" lon="3.67631">
        <ele>190.8</ele>
        <time>2021-04-15T13:57:40Z</time>
      </trkpt>
      <trkpt lat="43.58424" lon="3.67631">
        <ele>189</ele>
        <time>2021-04-15T13:57:40Z</time>
      </trkpt>
      <trkpt lat="43.58423" lon="3.67629">
        <ele>191.1</ele>
        <time>2021-04-15T13:57:42Z</time>
      </trkpt>
      <trkpt lat="43.58423" lon="3.67629">
        <ele>189</ele>
        <time>2021-04-15T13:57:42Z</time>
      </trkpt>
      <trkpt lat="43.58422" lon="3.67628">
        <ele>191.3</ele>
        <time>2021-04-15T13:57:43Z</time>
      </trkpt>
      <trkpt lat="43.58422" lon="3.67628">
        <ele>189</ele>
        <time>2021-04-15T13:57:43Z</time>
      </trkpt>
      <trkpt lat="43.58422" lon="3.67626">
        <ele>191.4</ele>
        <time>2021-04-15T13:57:44Z</time>
      </trkpt>
      <trkpt lat="43.58422" lon="3.67626">
        <ele>189</ele>
        <time>2021-04-15T13:57:44Z</time>
      </trkpt>
      <trkpt lat="43.58421" lon="3.67625">
        <ele>191.6</ele>
        <time>2021-04-15T13:57:45Z</time>
      </trkpt>
      <trkpt lat="43.58421" lon="3.67625">
        <ele>189</ele>
        <time>2021-04-15T13:57:45Z</time>
      </trkpt>
      <trkpt lat="43.58421" lon="3.67623">
        <ele>191.7</ele>
        <time>2021-04-15T13:57:47Z</time>
      </trkpt>
      <trkpt lat="43.58421" lon="3.67623">
        <ele>191</ele>
        <time>2021-04-15T13:57:47Z</time>
      </trkpt>
      <trkpt lat="43.5842" lon="3.67621">
        <ele>191.9</ele>
        <time>2021-04-15T13:57:48Z</time>
      </trkpt>
      <trkpt lat="43.5842" lon="3.67621">
        <ele>191</ele>
        <time>2021-04-15T13:57:48Z</time>
      </trkpt>
      <trkpt lat="43.5842" lon="3.67619">
        <ele>192.1</ele>
        <time>2021-04-15T13:57:50Z</time>
      </trkpt>
      <trkpt lat="43.5842" lon="3.67619">
        <ele>191</ele>
        <time>2021-04-15T13:57:50Z</time>
      </trkpt>
      <trkpt lat="43.58419" lon="3.67616">
        <ele>192.2</ele>
        <time>2021-04-15T13:57:52Z</time>
      </trkpt>
      <trkpt lat="43.58419" lon="3.67616">
        <ele>191</ele>
        <time>2021-04-15T13:57:52Z</time>
      </trkpt>
      <trkpt lat="43.58419" lon="3.67614">
        <ele>192.3</ele>
        <time>2021-04-15T13:57:53Z</time>
      </trkpt>
      <trkpt lat="43.58419" lon="3.67614">
        <ele>191</ele>
        <time>2021-04-15T13:57:53Z</time>
      </trkpt>
      <trkpt lat="43.58419" lon="3.67613">
        <ele>192.3</ele>
        <time>2021-04-15T13:57:54Z</time>
      </trkpt>
      <trkpt lat="43.58419" lon="3.67613">
        <ele>191</ele>
        <time>2021-04-15T13:57:54Z</time>
      </trkpt>
      <trkpt lat="43.58419" lon="3.67611">
        <ele>192.4</ele>
        <time>2021-04-15T13:57:56Z</time>
      </trkpt>
      <trkpt lat="43.58419" lon="3.67611">
        <ele>191</ele>
        <time>2021-04-15T13:57:56Z</time>
      </trkpt>
      <trkpt lat="43.58419" lon="3.67609">
        <ele>192.5</ele>
        <time>2021-04-15T13:57:57Z</time>
      </trkpt>
      <trkpt lat="43.58419" lon="3.67609">
        <ele>191</ele>
        <time>2021-04-15T13:57:57Z</time>
      </trkpt>
      <trkpt lat="43.58419" lon="3.67607">
        <ele>192.6</ele>
        <time>2021-04-15T13:57:59Z</time>
      </trkpt>
      <trkpt lat="43.58419" lon="3.67607">
        <ele>191</ele>
        <time>2021-04-15T13:57:59Z</time>
      </trkpt>
      <trkpt lat="43.58419" lon="3.67605">
        <ele>192.7</ele>
        <time>2021-04-15T13:58:00Z</time>
      </trkpt>
      <trkpt lat="43.58419" lon="3.67605">
        <ele>191</ele>
        <time>2021-04-15T13:58:00Z</time>
      </trkpt>
      <trkpt lat="43.5842" lon="3.67604">
        <ele>192.7</ele>
        <time>2021-04-15T13:58:01Z</time>
      </trkpt>
      <trkpt lat="43.5842" lon="3.67604">
        <ele>191</ele>
        <time>2021-04-15T13:58:01Z</time>
      </trkpt>
      <trkpt lat="43.5842" lon="3.67602">
        <ele>192.8</ele>
        <time>2021-04-15T13:58:02Z</time>
      </trkpt>
      <trkpt lat="43.5842" lon="3.67602">
        <ele>191</ele>
        <time>2021-04-15T13:58:02Z</time>
      </trkpt>
      <trkpt lat="43.5842" lon="3.676">
        <ele>192.9</ele>
        <time>2021-04-15T13:58:04Z</time>
      </trkpt>
      <trkpt lat="43.5842" lon="3.676">
        <ele>193</ele>
        <time>2021-04-15T13:58:04Z</time>
      </trkpt>
      <trkpt lat="43.5842" lon="3.67598">
        <ele>193</ele>
        <time>2021-04-15T13:58:05Z</time>
      </trkpt>
      <trkpt lat="43.5842" lon="3.67598">
        <ele>193</ele>
        <time>2021-04-15T13:58:05Z</time>
      </trkpt>
      <trkpt lat="43.5842" lon="3.67596">
        <ele>193.2</ele>
        <time>2021-04-15T13:58:07Z</time>
      </trkpt>
      <trkpt lat="43.5842" lon="3.67596">
        <ele>193</ele>
        <time>2021-04-15T13:58:07Z</time>
      </trkpt>
      <trkpt lat="43.5842" lon="3.67593">
        <ele>193.3</ele>
        <time>2021-04-15T13:58:09Z</time>
      </trkpt>
      <trkpt lat="43.5842" lon="3.67593">
        <ele>193</ele>
        <time>2021-04-15T13:58:09Z</time>
      </trkpt>
      <trkpt lat="43.58421" lon="3.67591">
        <ele>193.4</ele>
        <time>2021-04-15T13:58:10Z</time>
      </trkpt>
      <trkpt lat="43.58421" lon="3.67591">
        <ele>193</ele>
        <time>2021-04-15T13:58:10Z</time>
      </trkpt>
      <trkpt lat="43.58421" lon="3.67589">
        <ele>193.5</ele>
        <time>2021-04-15T13:58:11Z</time>
      </trkpt>
      <trkpt lat="43.58421" lon="3.67589">
        <ele>193</ele>
        <time>2021-04-15T13:58:11Z</time>
      </trkpt>
      <trkpt lat="43.58421" lon="3.67587">
        <ele>193.5</ele>
        <time>2021-04-15T13:58:13Z</time>
      </trkpt>
      <trkpt lat="43.58421" lon="3.67587">
        <ele>193</ele>
        <time>2021-04-15T13:58:13Z</time>
      </trkpt>
      <trkpt lat="43.58422" lon="3.67585">
        <ele>193.6</ele>
        <time>2021-04-15T13:58:15Z</time>
      </trkpt>
      <trkpt lat="43.58422" lon="3.67585">
        <ele>193</ele>
        <time>2021-04-15T13:58:15Z</time>
      </trkpt>
      <trkpt lat="43.58423" lon="3.67582">
        <ele>193.7</ele>
        <time>2021-04-15T13:58:17Z</time>
      </trkpt>
      <trkpt lat="43.58423" lon="3.67582">
        <ele>193</ele>
        <time>2021-04-15T13:58:17Z</time>
      </trkpt>
      <trkpt lat="43.58423" lon="3.67579">
        <ele>194</ele>
        <time>2021-04-15T13:58:19Z</time>
      </trkpt>
      <trkpt lat="43.58423" lon="3.67579">
        <ele>193</ele>
        <time>2021-04-15T13:58:19Z</time>
      </trkpt>
      <trkpt lat="43.58424" lon="3.67577">
        <ele>194.3</ele>
        <time>2021-04-15T13:58:21Z</time>
      </trkpt>
      <trkpt lat="43.58424" lon="3.67577">
        <ele>193</ele>
        <time>2021-04-15T13:58:21Z</time>
      </trkpt>
      <trkpt lat="43.58424" lon="3.67575">
        <ele>194.5</ele>
        <time>2021-04-15T13:58:22Z</time>
      </trkpt>
      <trkpt lat="43.58424" lon="3.67575">
        <ele>195</ele>
        <time>2021-04-15T13:58:22Z</time>
      </trkpt>
      <trkpt lat="43.58425" lon="3.67573">
        <ele>194.7</ele>
        <time>2021-04-15T13:58:24Z</time>
      </trkpt>
      <trkpt lat="43.58425" lon="3.67573">
        <ele>195</ele>
        <time>2021-04-15T13:58:24Z</time>
      </trkpt>
      <trkpt lat="43.58425" lon="3.67571">
        <ele>194.8</ele>
        <time>2021-04-15T13:58:25Z</time>
      </trkpt>
      <trkpt lat="43.58425" lon="3.67571">
        <ele>195</ele>
        <time>2021-04-15T13:58:25Z</time>
      </trkpt>
      <trkpt lat="43.58426" lon="3.67568">
        <ele>195</ele>
        <time>2021-04-15T13:58:27Z</time>
      </trkpt>
      <trkpt lat="43.58426" lon="3.67568">
        <ele>195</ele>
        <time>2021-04-15T13:58:27Z</time>
      </trkpt>
      <trkpt lat="43.58428" lon="3.67566">
        <ele>195.1</ele>
        <time>2021-04-15T13:58:29Z</time>
      </trkpt>
      <trkpt lat="43.58428" lon="3.67566">
        <ele>195</ele>
        <time>2021-04-15T13:58:29Z</time>
      </trkpt>
      <trkpt lat="43.58429" lon="3.67564">
        <ele>195.1</ele>
        <time>2021-04-15T13:58:30Z</time>
      </trkpt>
      <trkpt lat="43.58429" lon="3.67564">
        <ele>195</ele>
        <time>2021-04-15T13:58:30Z</time>
      </trkpt>
      <trkpt lat="43.58429" lon="3.67562">
        <ele>195.2</ele>
        <time>2021-04-15T13:58:31Z</time>
      </trkpt>
      <trkpt lat="43.58429" lon="3.67562">
        <ele>195</ele>
        <time>2021-04-15T13:58:31Z</time>
      </trkpt>
      <trkpt lat="43.5843" lon="3.6756">
        <ele>195.3</ele>
        <time>2021-04-15T13:58:33Z</time>
      </trkpt>
      <trkpt lat="43.5843" lon="3.6756">
        <ele>195</ele>
        <time>2021-04-15T13:58:33Z</time>
      </trkpt>
      <trkpt lat="43.58431" lon="3.67558">
        <ele>195.5</ele>
        <time>2021-04-15T13:58:35Z</time>
      </trkpt>
      <trkpt lat="43.58431" lon="3.67558">
        <ele>195</ele>
        <time>2021-04-15T13:58:35Z</time>
      </trkpt>
      <trkpt lat="43.58432" lon="3.67556">
        <ele>195.7</ele>
        <time>2021-04-15T13:58:36Z</time>
      </trkpt>
      <trkpt lat="43.58432" lon="3.67556">
        <ele>195</ele>
        <time>2021-04-15T13:58:36Z</time>
      </trkpt>
      <trkpt lat="43.58432" lon="3.67554">
        <ele>195.8</ele>
        <time>2021-04-15T13:58:38Z</time>
      </trkpt>
      <trkpt lat="43.58432" lon="3.67554">
        <ele>195</ele>
        <time>2021-04-15T13:58:38Z</time>
      </trkpt>
      <trkpt lat="43.58433" lon="3.67552">
        <ele>196.1</ele>
        <time>2021-04-15T13:58:40Z</time>
      </trkpt>
      <trkpt lat="43.58433" lon="3.67552">
        <ele>197</ele>
        <time>2021-04-15T13:58:40Z</time>
      </trkpt>
      <trkpt lat="43.58433" lon="3.6755">
        <ele>196.2</ele>
        <time>2021-04-15T13:58:41Z</time>
      </trkpt>
      <trkpt lat="43.58433" lon="3.6755">
        <ele>197</ele>
        <time>2021-04-15T13:58:41Z</time>
      </trkpt>
      <trkpt lat="43.58434" lon="3.67548">
        <ele>196.3</ele>
        <time>2021-04-15T13:58:43Z</time>
      </trkpt>
      <trkpt lat="43.58434" lon="3.67548">
        <ele>197</ele>
        <time>2021-04-15T13:58:43Z</time>
      </trkpt>
      <trkpt lat="43.58434" lon="3.67546">
        <ele>196.5</ele>
        <time>2021-04-15T13:58:44Z</time>
      </trkpt>
      <trkpt lat="43.58434" lon="3.67546">
        <ele>197</ele>
        <time>2021-04-15T13:58:44Z</time>
      </trkpt>
      <trkpt lat="43.58435" lon="3.67545">
        <ele>196.6</ele>
        <time>2021-04-15T13:58:46Z</time>
      </trkpt>
      <trkpt lat="43.58435" lon="3.67545">
        <ele>197</ele>
        <time>2021-04-15T13:58:46Z</time>
      </trkpt>
      <trkpt lat="43.58436" lon="3.67543">
        <ele>196.6</ele>
        <time>2021-04-15T13:58:47Z</time>
      </trkpt>
      <trkpt lat="43.58436" lon="3.67543">
        <ele>197</ele>
        <time>2021-04-15T13:58:47Z</time>
      </trkpt>
      <trkpt lat="43.58437" lon="3.67541">
        <ele>196.6</ele>
        <time>2021-04-15T13:58:49Z</time>
      </trkpt>
      <trkpt lat="43.58437" lon="3.67541">
        <ele>197</ele>
        <time>2021-04-15T13:58:49Z</time>
      </trkpt>
      <trkpt lat="43.58439" lon="3.67537">
        <ele>196.8</ele>
        <time>2021-04-15T13:58:51Z</time>
      </trkpt>
      <trkpt lat="43.58439" lon="3.67537">
        <ele>197</ele>
        <time>2021-04-15T13:58:51Z</time>
      </trkpt>
      <trkpt lat="43.58439" lon="3.67537">
        <ele>196.9</ele>
        <time>2021-04-15T13:58:52Z</time>
      </trkpt>
      <trkpt lat="43.58439" lon="3.67537">
        <ele>197</ele>
        <time>2021-04-15T13:58:52Z</time>
      </trkpt>
      <trkpt lat="43.58439" lon="3.67536">
        <ele>196.9</ele>
        <time>2021-04-15T13:58:53Z</time>
      </trkpt>
      <trkpt lat="43.58439" lon="3.67536">
        <ele>197</ele>
        <time>2021-04-15T13:58:53Z</time>
      </trkpt>
      <trkpt lat="43.5844" lon="3.67535">
        <ele>197</ele>
        <time>2021-04-15T13:58:55Z</time>
      </trkpt>
      <trkpt lat="43.5844" lon="3.67535">
        <ele>197</ele>
        <time>2021-04-15T13:58:55Z</time>
      </trkpt>
      <trkpt lat="43.58441" lon="3.67533">
        <ele>197.1</ele>
        <time>2021-04-15T13:58:57Z</time>
      </trkpt>
      <trkpt lat="43.58441" lon="3.67533">
        <ele>197</ele>
        <time>2021-04-15T13:58:57Z</time>
      </trkpt>
      <trkpt lat="43.58441" lon="3.67531">
        <ele>197.2</ele>
        <time>2021-04-15T13:58:59Z</time>
      </trkpt>
      <trkpt lat="43.58441" lon="3.67531">
        <ele>199</ele>
        <time>2021-04-15T13:58:59Z</time>
      </trkpt>
      <trkpt lat="43.58442" lon="3.67529">
        <ele>197.4</ele>
        <time>2021-04-15T13:59:00Z</time>
      </trkpt>
      <trkpt lat="43.58442" lon="3.67529">
        <ele>199</ele>
        <time>2021-04-15T13:59:00Z</time>
      </trkpt>
      <trkpt lat="43.58443" lon="3.67527">
        <ele>197.5</ele>
        <time>2021-04-15T13:59:02Z</time>
      </trkpt>
      <trkpt lat="43.58443" lon="3.67527">
        <ele>199</ele>
        <time>2021-04-15T13:59:02Z</time>
      </trkpt>
      <trkpt lat="43.58444" lon="3.67525">
        <ele>197.6</ele>
        <time>2021-04-15T13:59:03Z</time>
      </trkpt>
      <trkpt lat="43.58444" lon="3.67525">
        <ele>199</ele>
        <time>2021-04-15T13:59:03Z</time>
      </trkpt>
      <trkpt lat="43.58445" lon="3.67522">
        <ele>197.8</ele>
        <time>2021-04-15T13:59:05Z</time>
      </trkpt>
      <trkpt lat="43.58445" lon="3.67522">
        <ele>199</ele>
        <time>2021-04-15T13:59:05Z</time>
      </trkpt>
      <trkpt lat="43.58446" lon="3.67519">
        <ele>198</ele>
        <time>2021-04-15T13:59:06Z</time>
      </trkpt>
      <trkpt lat="43.58446" lon="3.67519">
        <ele>199</ele>
        <time>2021-04-15T13:59:06Z</time>
      </trkpt>
      <trkpt lat="43.58447" lon="3.67517">
        <ele>198.2</ele>
        <time>2021-04-15T13:59:08Z</time>
      </trkpt>
      <trkpt lat="43.58447" lon="3.67517">
        <ele>199</ele>
        <time>2021-04-15T13:59:08Z</time>
      </trkpt>
      <trkpt lat="43.58447" lon="3.67514">
        <ele>198.4</ele>
        <time>2021-04-15T13:59:10Z</time>
      </trkpt>
      <trkpt lat="43.58447" lon="3.67514">
        <ele>199</ele>
        <time>2021-04-15T13:59:10Z</time>
      </trkpt>
      <trkpt lat="43.58449" lon="3.67511">
        <ele>198.6</ele>
        <time>2021-04-15T13:59:12Z</time>
      </trkpt>
      <trkpt lat="43.58449" lon="3.67511">
        <ele>199</ele>
        <time>2021-04-15T13:59:12Z</time>
      </trkpt>
      <trkpt lat="43.5845" lon="3.67509">
        <ele>198.8</ele>
        <time>2021-04-15T13:59:13Z</time>
      </trkpt>
      <trkpt lat="43.5845" lon="3.67509">
        <ele>199</ele>
        <time>2021-04-15T13:59:13Z</time>
      </trkpt>
      <trkpt lat="43.58451" lon="3.67507">
        <ele>198.9</ele>
        <time>2021-04-15T13:59:15Z</time>
      </trkpt>
      <trkpt lat="43.58451" lon="3.67507">
        <ele>199</ele>
        <time>2021-04-15T13:59:15Z</time>
      </trkpt>
      <trkpt lat="43.58452" lon="3.67505">
        <ele>198.9</ele>
        <time>2021-04-15T13:59:16Z</time>
      </trkpt>
      <trkpt lat="43.58452" lon="3.67505">
        <ele>199</ele>
        <time>2021-04-15T13:59:16Z</time>
      </trkpt>
      <trkpt lat="43.58452" lon="3.67504">
        <ele>199</ele>
        <time>2021-04-15T13:59:17Z</time>
      </trkpt>
      <trkpt lat="43.58452" lon="3.67504">
        <ele>201</ele>
        <time>2021-04-15T13:59:17Z</time>
      </trkpt>
      <trkpt lat="43.58453" lon="3.67502">
        <ele>199.2</ele>
        <time>2021-04-15T13:59:19Z</time>
      </trkpt>
      <trkpt lat="43.58453" lon="3.67502">
        <ele>201</ele>
        <time>2021-04-15T13:59:19Z</time>
      </trkpt>
      <trkpt lat="43.58454" lon="3.67499">
        <ele>199.4</ele>
        <time>2021-04-15T13:59:21Z</time>
      </trkpt>
      <trkpt lat="43.58454" lon="3.67499">
        <ele>201</ele>
        <time>2021-04-15T13:59:21Z</time>
      </trkpt>
      <trkpt lat="43.58455" lon="3.67497">
        <ele>199.4</ele>
        <time>2021-04-15T13:59:22Z</time>
      </trkpt>
      <trkpt lat="43.58455" lon="3.67497">
        <ele>201</ele>
        <time>2021-04-15T13:59:22Z</time>
      </trkpt>
      <trkpt lat="43.58455" lon="3.67496">
        <ele>199.5</ele>
        <time>2021-04-15T13:59:23Z</time>
      </trkpt>
      <trkpt lat="43.58455" lon="3.67496">
        <ele>201</ele>
        <time>2021-04-15T13:59:23Z</time>
      </trkpt>
      <trkpt lat="43.58456" lon="3.67494">
        <ele>199.6</ele>
        <time>2021-04-15T13:59:25Z</time>
      </trkpt>
      <trkpt lat="43.58456" lon="3.67494">
        <ele>201</ele>
        <time>2021-04-15T13:59:25Z</time>
      </trkpt>
      <trkpt lat="43.58457" lon="3.67491">
        <ele>199.8</ele>
        <time>2021-04-15T13:59:27Z</time>
      </trkpt>
      <trkpt lat="43.58457" lon="3.67491">
        <ele>201</ele>
        <time>2021-04-15T13:59:27Z</time>
      </trkpt>
      <trkpt lat="43.58457" lon="3.67489">
        <ele>199.9</ele>
        <time>2021-04-15T13:59:29Z</time>
      </trkpt>
      <trkpt lat="43.58457" lon="3.67489">
        <ele>201</ele>
        <time>2021-04-15T13:59:29Z</time>
      </trkpt>
      <trkpt lat="43.58458" lon="3.67487">
        <ele>200</ele>
        <time>2021-04-15T13:59:30Z</time>
      </trkpt>
      <trkpt lat="43.58458" lon="3.67487">
        <ele>201</ele>
        <time>2021-04-15T13:59:30Z</time>
      </trkpt>
      <trkpt lat="43.58458" lon="3.67485">
        <ele>200.1</ele>
        <time>2021-04-15T13:59:31Z</time>
      </trkpt>
      <trkpt lat="43.58458" lon="3.67485">
        <ele>201</ele>
        <time>2021-04-15T13:59:31Z</time>
      </trkpt>
      <trkpt lat="43.58459" lon="3.67483">
        <ele>200.3</ele>
        <time>2021-04-15T13:59:33Z</time>
      </trkpt>
      <trkpt lat="43.58459" lon="3.67483">
        <ele>201</ele>
        <time>2021-04-15T13:59:33Z</time>
      </trkpt>
      <trkpt lat="43.58459" lon="3.6748">
        <ele>200.6</ele>
        <time>2021-04-15T13:59:35Z</time>
      </trkpt>
      <trkpt lat="43.58459" lon="3.6748">
        <ele>203</ele>
        <time>2021-04-15T13:59:35Z</time>
      </trkpt>
      <trkpt lat="43.58458" lon="3.67478">
        <ele>200.9</ele>
        <time>2021-04-15T13:59:36Z</time>
      </trkpt>
      <trkpt lat="43.58458" lon="3.67478">
        <ele>203</ele>
        <time>2021-04-15T13:59:36Z</time>
      </trkpt>
      <trkpt lat="43.58458" lon="3.67476">
        <ele>201.1</ele>
        <time>2021-04-15T13:59:38Z</time>
      </trkpt>
      <trkpt lat="43.58458" lon="3.67476">
        <ele>203</ele>
        <time>2021-04-15T13:59:38Z</time>
      </trkpt>
      <trkpt lat="43.58458" lon="3.67473">
        <ele>201.4</ele>
        <time>2021-04-15T13:59:40Z</time>
      </trkpt>
      <trkpt lat="43.58458" lon="3.67473">
        <ele>203</ele>
        <time>2021-04-15T13:59:40Z</time>
      </trkpt>
      <trkpt lat="43.58458" lon="3.6747">
        <ele>201.6</ele>
        <time>2021-04-15T13:59:42Z</time>
      </trkpt>
      <trkpt lat="43.58458" lon="3.6747">
        <ele>203</ele>
        <time>2021-04-15T13:59:42Z</time>
      </trkpt>
      <trkpt lat="43.58458" lon="3.67468">
        <ele>201.8</ele>
        <time>2021-04-15T13:59:43Z</time>
      </trkpt>
      <trkpt lat="43.58458" lon="3.67468">
        <ele>203</ele>
        <time>2021-04-15T13:59:43Z</time>
      </trkpt>
      <trkpt lat="43.58457" lon="3.67465">
        <ele>201.9</ele>
        <time>2021-04-15T13:59:45Z</time>
      </trkpt>
      <trkpt lat="43.58457" lon="3.67465">
        <ele>203</ele>
        <time>2021-04-15T13:59:45Z</time>
      </trkpt>
      <trkpt lat="43.58457" lon="3.67462">
        <ele>202.1</ele>
        <time>2021-04-15T13:59:47Z</time>
      </trkpt>
      <trkpt lat="43.58457" lon="3.67462">
        <ele>203</ele>
        <time>2021-04-15T13:59:47Z</time>
      </trkpt>
      <trkpt lat="43.58456" lon="3.6746">
        <ele>202.3</ele>
        <time>2021-04-15T13:59:49Z</time>
      </trkpt>
      <trkpt lat="43.58456" lon="3.6746">
        <ele>203</ele>
        <time>2021-04-15T13:59:49Z</time>
      </trkpt>
      <trkpt lat="43.58455" lon="3.67457">
        <ele>202.6</ele>
        <time>2021-04-15T13:59:51Z</time>
      </trkpt>
      <trkpt lat="43.58455" lon="3.67457">
        <ele>203</ele>
        <time>2021-04-15T13:59:51Z</time>
      </trkpt>
      <trkpt lat="43.58454" lon="3.67455">
        <ele>202.9</ele>
        <time>2021-04-15T13:59:53Z</time>
      </trkpt>
      <trkpt lat="43.58454" lon="3.67455">
        <ele>204</ele>
        <time>2021-04-15T13:59:53Z</time>
      </trkpt>
      <trkpt lat="43.58453" lon="3.67453">
        <ele>203.1</ele>
        <time>2021-04-15T13:59:55Z</time>
      </trkpt>
      <trkpt lat="43.58453" lon="3.67453">
        <ele>204</ele>
        <time>2021-04-15T13:59:55Z</time>
      </trkpt>
      <trkpt lat="43.58452" lon="3.67452">
        <ele>203.3</ele>
        <time>2021-04-15T13:59:56Z</time>
      </trkpt>
      <trkpt lat="43.58452" lon="3.67452">
        <ele>204</ele>
        <time>2021-04-15T13:59:56Z</time>
      </trkpt>
      <trkpt lat="43.58451" lon="3.6745">
        <ele>203.6</ele>
        <time>2021-04-15T13:59:57Z</time>
      </trkpt>
      <trkpt lat="43.58451" lon="3.6745">
        <ele>204</ele>
        <time>2021-04-15T13:59:57Z</time>
      </trkpt>
      <trkpt lat="43.5845" lon="3.67449">
        <ele>203.8</ele>
        <time>2021-04-15T13:59:59Z</time>
      </trkpt>
      <trkpt lat="43.5845" lon="3.67449">
        <ele>204</ele>
        <time>2021-04-15T13:59:59Z</time>
      </trkpt>
      <trkpt lat="43.58449" lon="3.67448">
        <ele>204.1</ele>
        <time>2021-04-15T14:00:01Z</time>
      </trkpt>
      <trkpt lat="43.58449" lon="3.67448">
        <ele>204</ele>
        <time>2021-04-15T14:00:01Z</time>
      </trkpt>
      <trkpt lat="43.58448" lon="3.67446">
        <ele>204.4</ele>
        <time>2021-04-15T14:00:03Z</time>
      </trkpt>
      <trkpt lat="43.58448" lon="3.67446">
        <ele>204</ele>
        <time>2021-04-15T14:00:03Z</time>
      </trkpt>
      <trkpt lat="43.58446" lon="3.67445">
        <ele>204.7</ele>
        <time>2021-04-15T14:00:04Z</time>
      </trkpt>
      <trkpt lat="43.58446" lon="3.67445">
        <ele>204</ele>
        <time>2021-04-15T14:00:04Z</time>
      </trkpt>
      <trkpt lat="43.58445" lon="3.67443">
        <ele>204.7</ele>
        <time>2021-04-15T14:00:06Z</time>
      </trkpt>
      <trkpt lat="43.58445" lon="3.67443">
        <ele>204</ele>
        <time>2021-04-15T14:00:06Z</time>
      </trkpt>
      <trkpt lat="43.58444" lon="3.67442">
        <ele>204.7</ele>
        <time>2021-04-15T14:00:07Z</time>
      </trkpt>
      <trkpt lat="43.58444" lon="3.67442">
        <ele>204</ele>
        <time>2021-04-15T14:00:07Z</time>
      </trkpt>
      <trkpt lat="43.58443" lon="3.67441">
        <ele>204.7</ele>
        <time>2021-04-15T14:00:08Z</time>
      </trkpt>
      <trkpt lat="43.58443" lon="3.67441">
        <ele>204</ele>
        <time>2021-04-15T14:00:08Z</time>
      </trkpt>
      <trkpt lat="43.58442" lon="3.67439">
        <ele>204.8</ele>
        <time>2021-04-15T14:00:10Z</time>
      </trkpt>
      <trkpt lat="43.58442" lon="3.67439">
        <ele>204</ele>
        <time>2021-04-15T14:00:10Z</time>
      </trkpt>
      <trkpt lat="43.58441" lon="3.67438">
        <ele>204.7</ele>
        <time>2021-04-15T14:00:11Z</time>
      </trkpt>
      <trkpt lat="43.58441" lon="3.67438">
        <ele>204</ele>
        <time>2021-04-15T14:00:11Z</time>
      </trkpt>
      <trkpt lat="43.5844" lon="3.67436">
        <ele>204.7</ele>
        <time>2021-04-15T14:00:13Z</time>
      </trkpt>
      <trkpt lat="43.5844" lon="3.67436">
        <ele>207</ele>
        <time>2021-04-15T14:00:13Z</time>
      </trkpt>
      <trkpt lat="43.58439" lon="3.67434">
        <ele>204.7</ele>
        <time>2021-04-15T14:00:15Z</time>
      </trkpt>
      <trkpt lat="43.58439" lon="3.67434">
        <ele>207</ele>
        <time>2021-04-15T14:00:15Z</time>
      </trkpt>
      <trkpt lat="43.58438" lon="3.67432">
        <ele>204.7</ele>
        <time>2021-04-15T14:00:16Z</time>
      </trkpt>
      <trkpt lat="43.58438" lon="3.67432">
        <ele>207</ele>
        <time>2021-04-15T14:00:16Z</time>
      </trkpt>
      <trkpt lat="43.58437" lon="3.67431">
        <ele>204.8</ele>
        <time>2021-04-15T14:00:18Z</time>
      </trkpt>
      <trkpt lat="43.58437" lon="3.67431">
        <ele>207</ele>
        <time>2021-04-15T14:00:18Z</time>
      </trkpt>
      <trkpt lat="43.58435" lon="3.6743">
        <ele>204.9</ele>
        <time>2021-04-15T14:00:20Z</time>
      </trkpt>
      <trkpt lat="43.58435" lon="3.6743">
        <ele>207</ele>
        <time>2021-04-15T14:00:20Z</time>
      </trkpt>
      <trkpt lat="43.58434" lon="3.67428">
        <ele>205</ele>
        <time>2021-04-15T14:00:22Z</time>
      </trkpt>
      <trkpt lat="43.58434" lon="3.67428">
        <ele>207</ele>
        <time>2021-04-15T14:00:22Z</time>
      </trkpt>
      <trkpt lat="43.58433" lon="3.67427">
        <ele>205.1</ele>
        <time>2021-04-15T14:00:23Z</time>
      </trkpt>
      <trkpt lat="43.58433" lon="3.67427">
        <ele>207</ele>
        <time>2021-04-15T14:00:23Z</time>
      </trkpt>
      <trkpt lat="43.58432" lon="3.67426">
        <ele>205.2</ele>
        <time>2021-04-15T14:00:24Z</time>
      </trkpt>
      <trkpt lat="43.58432" lon="3.67426">
        <ele>207</ele>
        <time>2021-04-15T14:00:24Z</time>
      </trkpt>
      <trkpt lat="43.5843" lon="3.67425">
        <ele>205.3</ele>
        <time>2021-04-15T14:00:26Z</time>
      </trkpt>
      <trkpt lat="43.5843" lon="3.67425">
        <ele>207</ele>
        <time>2021-04-15T14:00:26Z</time>
      </trkpt>
      <trkpt lat="43.58429" lon="3.67424">
        <ele>205.5</ele>
        <time>2021-04-15T14:00:28Z</time>
      </trkpt>
      <trkpt lat="43.58429" lon="3.67424">
        <ele>207</ele>
        <time>2021-04-15T14:00:28Z</time>
      </trkpt>
      <trkpt lat="43.58427" lon="3.67423">
        <ele>205.7</ele>
        <time>2021-04-15T14:00:30Z</time>
      </trkpt>
      <trkpt lat="43.58427" lon="3.67423">
        <ele>208</ele>
        <time>2021-04-15T14:00:30Z</time>
      </trkpt>
      <trkpt lat="43.58426" lon="3.67422">
        <ele>205.9</ele>
        <time>2021-04-15T14:00:31Z</time>
      </trkpt>
      <trkpt lat="43.58426" lon="3.67422">
        <ele>208</ele>
        <time>2021-04-15T14:00:31Z</time>
      </trkpt>
      <trkpt lat="43.58424" lon="3.67422">
        <ele>206.1</ele>
        <time>2021-04-15T14:00:33Z</time>
      </trkpt>
      <trkpt lat="43.58424" lon="3.67422">
        <ele>208</ele>
        <time>2021-04-15T14:00:33Z</time>
      </trkpt>
      <trkpt lat="43.58423" lon="3.67421">
        <ele>206.3</ele>
        <time>2021-04-15T14:00:35Z</time>
      </trkpt>
      <trkpt lat="43.58423" lon="3.67421">
        <ele>208</ele>
        <time>2021-04-15T14:00:35Z</time>
      </trkpt>
      <trkpt lat="43.58421" lon="3.6742">
        <ele>206.5</ele>
        <time>2021-04-15T14:00:37Z</time>
      </trkpt>
      <trkpt lat="43.58421" lon="3.6742">
        <ele>208</ele>
        <time>2021-04-15T14:00:37Z</time>
      </trkpt>
      <trkpt lat="43.58419" lon="3.67419">
        <ele>206.7</ele>
        <time>2021-04-15T14:00:39Z</time>
      </trkpt>
      <trkpt lat="43.58419" lon="3.67419">
        <ele>208</ele>
        <time>2021-04-15T14:00:39Z</time>
      </trkpt>
      <trkpt lat="43.58418" lon="3.67418">
        <ele>207</ele>
        <time>2021-04-15T14:00:41Z</time>
      </trkpt>
      <trkpt lat="43.58418" lon="3.67418">
        <ele>208</ele>
        <time>2021-04-15T14:00:41Z</time>
      </trkpt>
      <trkpt lat="43.58416" lon="3.67417">
        <ele>207.2</ele>
        <time>2021-04-15T14:00:43Z</time>
      </trkpt>
      <trkpt lat="43.58416" lon="3.67417">
        <ele>208</ele>
        <time>2021-04-15T14:00:43Z</time>
      </trkpt>
      <trkpt lat="43.58415" lon="3.67417">
        <ele>207.3</ele>
        <time>2021-04-15T14:00:44Z</time>
      </trkpt>
      <trkpt lat="43.58415" lon="3.67417">
        <ele>208</ele>
        <time>2021-04-15T14:00:44Z</time>
      </trkpt>
      <trkpt lat="43.58413" lon="3.67416">
        <ele>207.3</ele>
        <time>2021-04-15T14:00:46Z</time>
      </trkpt>
      <trkpt lat="43.58413" lon="3.67416">
        <ele>208</ele>
        <time>2021-04-15T14:00:46Z</time>
      </trkpt>
      <trkpt lat="43.58412" lon="3.67415">
        <ele>207.3</ele>
        <time>2021-04-15T14:00:48Z</time>
      </trkpt>
      <trkpt lat="43.58412" lon="3.67415">
        <ele>210</ele>
        <time>2021-04-15T14:00:48Z</time>
      </trkpt>
      <trkpt lat="43.5841" lon="3.67413">
        <ele>207.3</ele>
        <time>2021-04-15T14:00:49Z</time>
      </trkpt>
      <trkpt lat="43.5841" lon="3.67413">
        <ele>210</ele>
        <time>2021-04-15T14:00:49Z</time>
      </trkpt>
      <trkpt lat="43.58409" lon="3.67412">
        <ele>207.3</ele>
        <time>2021-04-15T14:00:50Z</time>
      </trkpt>
      <trkpt lat="43.58409" lon="3.67412">
        <ele>210</ele>
        <time>2021-04-15T14:00:50Z</time>
      </trkpt>
      <trkpt lat="43.58408" lon="3.67412">
        <ele>207.3</ele>
        <time>2021-04-15T14:00:51Z</time>
      </trkpt>
      <trkpt lat="43.58408" lon="3.67412">
        <ele>210</ele>
        <time>2021-04-15T14:00:51Z</time>
      </trkpt>
      <trkpt lat="43.58407" lon="3.67411">
        <ele>207.4</ele>
        <time>2021-04-15T14:00:52Z</time>
      </trkpt>
      <trkpt lat="43.58407" lon="3.67411">
        <ele>210</ele>
        <time>2021-04-15T14:00:52Z</time>
      </trkpt>
      <trkpt lat="43.58405" lon="3.6741">
        <ele>207.5</ele>
        <time>2021-04-15T14:00:54Z</time>
      </trkpt>
      <trkpt lat="43.58405" lon="3.6741">
        <ele>210</ele>
        <time>2021-04-15T14:00:54Z</time>
      </trkpt>
      <trkpt lat="43.58404" lon="3.67409">
        <ele>207.5</ele>
        <time>2021-04-15T14:00:56Z</time>
      </trkpt>
      <trkpt lat="43.58404" lon="3.67409">
        <ele>210</ele>
        <time>2021-04-15T14:00:56Z</time>
      </trkpt>
      <trkpt lat="43.58403" lon="3.67409">
        <ele>207.6</ele>
        <time>2021-04-15T14:00:57Z</time>
      </trkpt>
      <trkpt lat="43.58403" lon="3.67409">
        <ele>210</ele>
        <time>2021-04-15T14:00:57Z</time>
      </trkpt>
      <trkpt lat="43.58401" lon="3.67408">
        <ele>207.6</ele>
        <time>2021-04-15T14:00:59Z</time>
      </trkpt>
      <trkpt lat="43.58401" lon="3.67408">
        <ele>210</ele>
        <time>2021-04-15T14:00:59Z</time>
      </trkpt>
      <trkpt lat="43.58399" lon="3.67407">
        <ele>207.8</ele>
        <time>2021-04-15T14:01:00Z</time>
      </trkpt>
      <trkpt lat="43.58399" lon="3.67407">
        <ele>210</ele>
        <time>2021-04-15T14:01:00Z</time>
      </trkpt>
      <trkpt lat="43.58397" lon="3.67406">
        <ele>207.9</ele>
        <time>2021-04-15T14:01:02Z</time>
      </trkpt>
      <trkpt lat="43.58397" lon="3.67406">
        <ele>210</ele>
        <time>2021-04-15T14:01:02Z</time>
      </trkpt>
      <trkpt lat="43.58395" lon="3.67405">
        <ele>208</ele>
        <time>2021-04-15T14:01:04Z</time>
      </trkpt>
      <trkpt lat="43.58395" lon="3.67405">
        <ele>210</ele>
        <time>2021-04-15T14:01:04Z</time>
      </trkpt>
      <trkpt lat="43.58394" lon="3.67405">
        <ele>208.2</ele>
        <time>2021-04-15T14:01:05Z</time>
      </trkpt>
      <trkpt lat="43.58394" lon="3.67405">
        <ele>210</ele>
        <time>2021-04-15T14:01:05Z</time>
      </trkpt>
      <trkpt lat="43.58392" lon="3.67405">
        <ele>208.4</ele>
        <time>2021-04-15T14:01:07Z</time>
      </trkpt>
      <trkpt lat="43.58392" lon="3.67405">
        <ele>212</ele>
        <time>2021-04-15T14:01:07Z</time>
      </trkpt>
      <trkpt lat="43.5839" lon="3.67404">
        <ele>208.6</ele>
        <time>2021-04-15T14:01:09Z</time>
      </trkpt>
      <trkpt lat="43.5839" lon="3.67404">
        <ele>212</ele>
        <time>2021-04-15T14:01:09Z</time>
      </trkpt>
      <trkpt lat="43.58388" lon="3.67404">
        <ele>208.9</ele>
        <time>2021-04-15T14:01:11Z</time>
      </trkpt>
      <trkpt lat="43.58388" lon="3.67404">
        <ele>212</ele>
        <time>2021-04-15T14:01:11Z</time>
      </trkpt>
      <trkpt lat="43.58386" lon="3.67404">
        <ele>209.2</ele>
        <time>2021-04-15T14:01:13Z</time>
      </trkpt>
      <trkpt lat="43.58386" lon="3.67404">
        <ele>212</ele>
        <time>2021-04-15T14:01:13Z</time>
      </trkpt>
      <trkpt lat="43.58384" lon="3.67404">
        <ele>209.4</ele>
        <time>2021-04-15T14:01:15Z</time>
      </trkpt>
      <trkpt lat="43.58384" lon="3.67404">
        <ele>212</ele>
        <time>2021-04-15T14:01:15Z</time>
      </trkpt>
      <trkpt lat="43.58382" lon="3.67403">
        <ele>209.7</ele>
        <time>2021-04-15T14:01:17Z</time>
      </trkpt>
      <trkpt lat="43.58382" lon="3.67403">
        <ele>212</ele>
        <time>2021-04-15T14:01:17Z</time>
      </trkpt>
      <trkpt lat="43.58381" lon="3.67403">
        <ele>209.9</ele>
        <time>2021-04-15T14:01:18Z</time>
      </trkpt>
      <trkpt lat="43.58381" lon="3.67403">
        <ele>212</ele>
        <time>2021-04-15T14:01:18Z</time>
      </trkpt>
      <trkpt lat="43.58379" lon="3.67403">
        <ele>210.2</ele>
        <time>2021-04-15T14:01:19Z</time>
      </trkpt>
      <trkpt lat="43.58379" lon="3.67403">
        <ele>212</ele>
        <time>2021-04-15T14:01:19Z</time>
      </trkpt>
      <trkpt lat="43.58378" lon="3.67403">
        <ele>210.3</ele>
        <time>2021-04-15T14:01:20Z</time>
      </trkpt>
      <trkpt lat="43.58378" lon="3.67403">
        <ele>212</ele>
        <time>2021-04-15T14:01:20Z</time>
      </trkpt>
      <trkpt lat="43.58376" lon="3.67403">
        <ele>210.6</ele>
        <time>2021-04-15T14:01:22Z</time>
      </trkpt>
      <trkpt lat="43.58376" lon="3.67403">
        <ele>212</ele>
        <time>2021-04-15T14:01:22Z</time>
      </trkpt>
      <trkpt lat="43.58374" lon="3.67402">
        <ele>210.8</ele>
        <time>2021-04-15T14:01:23Z</time>
      </trkpt>
      <trkpt lat="43.58374" lon="3.67402">
        <ele>212</ele>
        <time>2021-04-15T14:01:23Z</time>
      </trkpt>
      <trkpt lat="43.58373" lon="3.67402">
        <ele>211</ele>
        <time>2021-04-15T14:01:25Z</time>
      </trkpt>
      <trkpt lat="43.58373" lon="3.67402">
        <ele>214</ele>
        <time>2021-04-15T14:01:25Z</time>
      </trkpt>
      <trkpt lat="43.58371" lon="3.67401">
        <ele>211.2</ele>
        <time>2021-04-15T14:01:27Z</time>
      </trkpt>
      <trkpt lat="43.58371" lon="3.67401">
        <ele>214</ele>
        <time>2021-04-15T14:01:27Z</time>
      </trkpt>
      <trkpt lat="43.58369" lon="3.674">
        <ele>211.3</ele>
        <time>2021-04-15T14:01:28Z</time>
      </trkpt>
      <trkpt lat="43.58369" lon="3.674">
        <ele>214</ele>
        <time>2021-04-15T14:01:28Z</time>
      </trkpt>
      <trkpt lat="43.58368" lon="3.674">
        <ele>211.5</ele>
        <time>2021-04-15T14:01:30Z</time>
      </trkpt>
      <trkpt lat="43.58368" lon="3.674">
        <ele>214</ele>
        <time>2021-04-15T14:01:30Z</time>
      </trkpt>
      <trkpt lat="43.58366" lon="3.67399">
        <ele>211.7</ele>
        <time>2021-04-15T14:01:31Z</time>
      </trkpt>
      <trkpt lat="43.58366" lon="3.67399">
        <ele>214</ele>
        <time>2021-04-15T14:01:31Z</time>
      </trkpt>
      <trkpt lat="43.58365" lon="3.67398">
        <ele>211.8</ele>
        <time>2021-04-15T14:01:33Z</time>
      </trkpt>
      <trkpt lat="43.58365" lon="3.67398">
        <ele>214</ele>
        <time>2021-04-15T14:01:33Z</time>
      </trkpt>
      <trkpt lat="43.58363" lon="3.67397">
        <ele>211.8</ele>
        <time>2021-04-15T14:01:34Z</time>
      </trkpt>
      <trkpt lat="43.58363" lon="3.67397">
        <ele>214</ele>
        <time>2021-04-15T14:01:34Z</time>
      </trkpt>
      <trkpt lat="43.58362" lon="3.67397">
        <ele>211.9</ele>
        <time>2021-04-15T14:01:35Z</time>
      </trkpt>
      <trkpt lat="43.58362" lon="3.67397">
        <ele>214</ele>
        <time>2021-04-15T14:01:35Z</time>
      </trkpt>
      <trkpt lat="43.5836" lon="3.67395">
        <ele>212.1</ele>
        <time>2021-04-15T14:01:37Z</time>
      </trkpt>
      <trkpt lat="43.5836" lon="3.67395">
        <ele>214</ele>
        <time>2021-04-15T14:01:37Z</time>
      </trkpt>
      <trkpt lat="43.58359" lon="3.67394">
        <ele>212.3</ele>
        <time>2021-04-15T14:01:38Z</time>
      </trkpt>
      <trkpt lat="43.58359" lon="3.67394">
        <ele>214</ele>
        <time>2021-04-15T14:01:38Z</time>
      </trkpt>
      <trkpt lat="43.58357" lon="3.67393">
        <ele>212.6</ele>
        <time>2021-04-15T14:01:40Z</time>
      </trkpt>
      <trkpt lat="43.58357" lon="3.67393">
        <ele>214</ele>
        <time>2021-04-15T14:01:40Z</time>
      </trkpt>
      <trkpt lat="43.58355" lon="3.67391">
        <ele>212.9</ele>
        <time>2021-04-15T14:01:42Z</time>
      </trkpt>
      <trkpt lat="43.58355" lon="3.67391">
        <ele>216</ele>
        <time>2021-04-15T14:01:42Z</time>
      </trkpt>
      <trkpt lat="43.58353" lon="3.6739">
        <ele>213.1</ele>
        <time>2021-04-15T14:01:43Z</time>
      </trkpt>
      <trkpt lat="43.58353" lon="3.6739">
        <ele>216</ele>
        <time>2021-04-15T14:01:43Z</time>
      </trkpt>
      <trkpt lat="43.58352" lon="3.67388">
        <ele>213.3</ele>
        <time>2021-04-15T14:01:45Z</time>
      </trkpt>
      <trkpt lat="43.58352" lon="3.67388">
        <ele>216</ele>
        <time>2021-04-15T14:01:45Z</time>
      </trkpt>
      <trkpt lat="43.5835" lon="3.67387">
        <ele>213.5</ele>
        <time>2021-04-15T14:01:47Z</time>
      </trkpt>
      <trkpt lat="43.5835" lon="3.67387">
        <ele>216</ele>
        <time>2021-04-15T14:01:47Z</time>
      </trkpt>
      <trkpt lat="43.58349" lon="3.67386">
        <ele>213.6</ele>
        <time>2021-04-15T14:01:49Z</time>
      </trkpt>
      <trkpt lat="43.58349" lon="3.67386">
        <ele>216</ele>
        <time>2021-04-15T14:01:49Z</time>
      </trkpt>
      <trkpt lat="43.58348" lon="3.67385">
        <ele>213.7</ele>
        <time>2021-04-15T14:01:50Z</time>
      </trkpt>
      <trkpt lat="43.58348" lon="3.67385">
        <ele>216</ele>
        <time>2021-04-15T14:01:50Z</time>
      </trkpt>
      <trkpt lat="43.58348" lon="3.67383">
        <ele>213.6</ele>
        <time>2021-04-15T14:01:52Z</time>
      </trkpt>
      <trkpt lat="43.58348" lon="3.67383">
        <ele>216</ele>
        <time>2021-04-15T14:01:52Z</time>
      </trkpt>
      <trkpt lat="43.58341" lon="3.67371">
        <ele>213.9</ele>
        <time>2021-04-15T14:04:05Z</time>
      </trkpt>
      <trkpt lat="43.58341" lon="3.67371">
        <ele>217</ele>
        <time>2021-04-15T14:04:05Z</time>
      </trkpt>
      <trkpt lat="43.5834" lon="3.6737">
        <ele>213.9</ele>
        <time>2021-04-15T14:04:07Z</time>
      </trkpt>
      <trkpt lat="43.5834" lon="3.6737">
        <ele>217</ele>
        <time>2021-04-15T14:04:07Z</time>
      </trkpt>
      <trkpt lat="43.5834" lon="3.67369">
        <ele>213.8</ele>
        <time>2021-04-15T14:04:09Z</time>
      </trkpt>
      <trkpt lat="43.5834" lon="3.67369">
        <ele>217</ele>
        <time>2021-04-15T14:04:09Z</time>
      </trkpt>
      <trkpt lat="43.5834" lon="3.67367">
        <ele>213.7</ele>
        <time>2021-04-15T14:04:11Z</time>
      </trkpt>
      <trkpt lat="43.5834" lon="3.67367">
        <ele>217</ele>
        <time>2021-04-15T14:04:11Z</time>
      </trkpt>
      <trkpt lat="43.58339" lon="3.67365">
        <ele>213.7</ele>
        <time>2021-04-15T14:04:12Z</time>
      </trkpt>
      <trkpt lat="43.58339" lon="3.67365">
        <ele>217</ele>
        <time>2021-04-15T14:04:12Z</time>
      </trkpt>
      <trkpt lat="43.58338" lon="3.67363">
        <ele>213.8</ele>
        <time>2021-04-15T14:04:14Z</time>
      </trkpt>
      <trkpt lat="43.58338" lon="3.67363">
        <ele>217</ele>
        <time>2021-04-15T14:04:14Z</time>
      </trkpt>
      <trkpt lat="43.58337" lon="3.67362">
        <ele>213.8</ele>
        <time>2021-04-15T14:04:15Z</time>
      </trkpt>
      <trkpt lat="43.58337" lon="3.67362">
        <ele>217</ele>
        <time>2021-04-15T14:04:15Z</time>
      </trkpt>
      <trkpt lat="43.58336" lon="3.6736">
        <ele>214.1</ele>
        <time>2021-04-15T14:04:16Z</time>
      </trkpt>
      <trkpt lat="43.58336" lon="3.6736">
        <ele>217</ele>
        <time>2021-04-15T14:04:16Z</time>
      </trkpt>
      <trkpt lat="43.58336" lon="3.67359">
        <ele>214.4</ele>
        <time>2021-04-15T14:04:17Z</time>
      </trkpt>
      <trkpt lat="43.58336" lon="3.67359">
        <ele>217</ele>
        <time>2021-04-15T14:04:17Z</time>
      </trkpt>
      <trkpt lat="43.58335" lon="3.67357">
        <ele>214.7</ele>
        <time>2021-04-15T14:04:19Z</time>
      </trkpt>
      <trkpt lat="43.58335" lon="3.67357">
        <ele>217</ele>
        <time>2021-04-15T14:04:19Z</time>
      </trkpt>
      <trkpt lat="43.58334" lon="3.67355">
        <ele>214.9</ele>
        <time>2021-04-15T14:04:20Z</time>
      </trkpt>
      <trkpt lat="43.58334" lon="3.67355">
        <ele>217</ele>
        <time>2021-04-15T14:04:20Z</time>
      </trkpt>
      <trkpt lat="43.58333" lon="3.67353">
        <ele>215.3</ele>
        <time>2021-04-15T14:04:22Z</time>
      </trkpt>
      <trkpt lat="43.58333" lon="3.67353">
        <ele>217</ele>
        <time>2021-04-15T14:04:22Z</time>
      </trkpt>
      <trkpt lat="43.58333" lon="3.67351">
        <ele>215.6</ele>
        <time>2021-04-15T14:04:24Z</time>
      </trkpt>
      <trkpt lat="43.58333" lon="3.67351">
        <ele>217</ele>
        <time>2021-04-15T14:04:24Z</time>
      </trkpt>
      <trkpt lat="43.58332" lon="3.67348">
        <ele>215.9</ele>
        <time>2021-04-15T14:04:26Z</time>
      </trkpt>
      <trkpt lat="43.58332" lon="3.67348">
        <ele>217</ele>
        <time>2021-04-15T14:04:26Z</time>
      </trkpt>
      <trkpt lat="43.58331" lon="3.67346">
        <ele>216.2</ele>
        <time>2021-04-15T14:04:28Z</time>
      </trkpt>
      <trkpt lat="43.58331" lon="3.67346">
        <ele>217</ele>
        <time>2021-04-15T14:04:28Z</time>
      </trkpt>
      <trkpt lat="43.58331" lon="3.67344">
        <ele>216.4</ele>
        <time>2021-04-15T14:04:29Z</time>
      </trkpt>
      <trkpt lat="43.58331" lon="3.67344">
        <ele>217</ele>
        <time>2021-04-15T14:04:29Z</time>
      </trkpt>
      <trkpt lat="43.5833" lon="3.67342">
        <ele>216.6</ele>
        <time>2021-04-15T14:04:31Z</time>
      </trkpt>
      <trkpt lat="43.5833" lon="3.67342">
        <ele>217</ele>
        <time>2021-04-15T14:04:31Z</time>
      </trkpt>
      <trkpt lat="43.5833" lon="3.6734">
        <ele>216.7</ele>
        <time>2021-04-15T14:04:33Z</time>
      </trkpt>
      <trkpt lat="43.5833" lon="3.6734">
        <ele>217</ele>
        <time>2021-04-15T14:04:33Z</time>
      </trkpt>
      <trkpt lat="43.5833" lon="3.67338">
        <ele>216.9</ele>
        <time>2021-04-15T14:04:35Z</time>
      </trkpt>
      <trkpt lat="43.5833" lon="3.67338">
        <ele>217</ele>
        <time>2021-04-15T14:04:35Z</time>
      </trkpt>
      <trkpt lat="43.5833" lon="3.67335">
        <ele>216.9</ele>
        <time>2021-04-15T14:04:37Z</time>
      </trkpt>
      <trkpt lat="43.5833" lon="3.67335">
        <ele>217</ele>
        <time>2021-04-15T14:04:37Z</time>
      </trkpt>
      <trkpt lat="43.5833" lon="3.67333">
        <ele>217.1</ele>
        <time>2021-04-15T14:04:39Z</time>
      </trkpt>
      <trkpt lat="43.5833" lon="3.67333">
        <ele>217</ele>
        <time>2021-04-15T14:04:39Z</time>
      </trkpt>
      <trkpt lat="43.5833" lon="3.67331">
        <ele>217.2</ele>
        <time>2021-04-15T14:04:41Z</time>
      </trkpt>
      <trkpt lat="43.5833" lon="3.67331">
        <ele>217</ele>
        <time>2021-04-15T14:04:41Z</time>
      </trkpt>
      <trkpt lat="43.5833" lon="3.67328">
        <ele>217.4</ele>
        <time>2021-04-15T14:04:43Z</time>
      </trkpt>
      <trkpt lat="43.5833" lon="3.67328">
        <ele>217</ele>
        <time>2021-04-15T14:04:43Z</time>
      </trkpt>
      <trkpt lat="43.58329" lon="3.67326">
        <ele>217.7</ele>
        <time>2021-04-15T14:04:45Z</time>
      </trkpt>
      <trkpt lat="43.58329" lon="3.67326">
        <ele>223</ele>
        <time>2021-04-15T14:04:45Z</time>
      </trkpt>
      <trkpt lat="43.58329" lon="3.67323">
        <ele>218</ele>
        <time>2021-04-15T14:04:47Z</time>
      </trkpt>
      <trkpt lat="43.58329" lon="3.67323">
        <ele>223</ele>
        <time>2021-04-15T14:04:47Z</time>
      </trkpt>
      <trkpt lat="43.58328" lon="3.67321">
        <ele>218.2</ele>
        <time>2021-04-15T14:04:48Z</time>
      </trkpt>
      <trkpt lat="43.58328" lon="3.67321">
        <ele>223</ele>
        <time>2021-04-15T14:04:48Z</time>
      </trkpt>
      <trkpt lat="43.58328" lon="3.67319">
        <ele>218.5</ele>
        <time>2021-04-15T14:04:50Z</time>
      </trkpt>
      <trkpt lat="43.58328" lon="3.67319">
        <ele>223</ele>
        <time>2021-04-15T14:04:50Z</time>
      </trkpt>
      <trkpt lat="43.58327" lon="3.67317">
        <ele>218.7</ele>
        <time>2021-04-15T14:04:51Z</time>
      </trkpt>
      <trkpt lat="43.58327" lon="3.67317">
        <ele>223</ele>
        <time>2021-04-15T14:04:51Z</time>
      </trkpt>
      <trkpt lat="43.58327" lon="3.67314">
        <ele>219</ele>
        <time>2021-04-15T14:04:53Z</time>
      </trkpt>
      <trkpt lat="43.58327" lon="3.67314">
        <ele>223</ele>
        <time>2021-04-15T14:04:53Z</time>
      </trkpt>
      <trkpt lat="43.58326" lon="3.67312">
        <ele>219.2</ele>
        <time>2021-04-15T14:04:54Z</time>
      </trkpt>
      <trkpt lat="43.58326" lon="3.67312">
        <ele>223</ele>
        <time>2021-04-15T14:04:54Z</time>
      </trkpt>
      <trkpt lat="43.58325" lon="3.67309">
        <ele>219.5</ele>
        <time>2021-04-15T14:04:56Z</time>
      </trkpt>
      <trkpt lat="43.58325" lon="3.67309">
        <ele>223</ele>
        <time>2021-04-15T14:04:56Z</time>
      </trkpt>
      <trkpt lat="43.58325" lon="3.67307">
        <ele>219.8</ele>
        <time>2021-04-15T14:04:58Z</time>
      </trkpt>
      <trkpt lat="43.58325" lon="3.67307">
        <ele>223</ele>
        <time>2021-04-15T14:04:58Z</time>
      </trkpt>
      <trkpt lat="43.58324" lon="3.67305">
        <ele>220</ele>
        <time>2021-04-15T14:04:59Z</time>
      </trkpt>
      <trkpt lat="43.58324" lon="3.67305">
        <ele>223</ele>
        <time>2021-04-15T14:04:59Z</time>
      </trkpt>
      <trkpt lat="43.58324" lon="3.67302">
        <ele>220.1</ele>
        <time>2021-04-15T14:05:01Z</time>
      </trkpt>
      <trkpt lat="43.58324" lon="3.67302">
        <ele>223</ele>
        <time>2021-04-15T14:05:01Z</time>
      </trkpt>
      <trkpt lat="43.58323" lon="3.673">
        <ele>220.3</ele>
        <time>2021-04-15T14:05:02Z</time>
      </trkpt>
      <trkpt lat="43.58323" lon="3.673">
        <ele>223</ele>
        <time>2021-04-15T14:05:02Z</time>
      </trkpt>
      <trkpt lat="43.58323" lon="3.67298">
        <ele>220.4</ele>
        <time>2021-04-15T14:05:04Z</time>
      </trkpt>
      <trkpt lat="43.58323" lon="3.67298">
        <ele>225</ele>
        <time>2021-04-15T14:05:04Z</time>
      </trkpt>
      <trkpt lat="43.58323" lon="3.67296">
        <ele>220.5</ele>
        <time>2021-04-15T14:05:06Z</time>
      </trkpt>
      <trkpt lat="43.58323" lon="3.67296">
        <ele>225</ele>
        <time>2021-04-15T14:05:06Z</time>
      </trkpt>
      <trkpt lat="43.58323" lon="3.67294">
        <ele>220.5</ele>
        <time>2021-04-15T14:05:07Z</time>
      </trkpt>
      <trkpt lat="43.58323" lon="3.67294">
        <ele>225</ele>
        <time>2021-04-15T14:05:07Z</time>
      </trkpt>
      <trkpt lat="43.58323" lon="3.67291">
        <ele>220.5</ele>
        <time>2021-04-15T14:05:09Z</time>
      </trkpt>
      <trkpt lat="43.58323" lon="3.67291">
        <ele>225</ele>
        <time>2021-04-15T14:05:09Z</time>
      </trkpt>
      <trkpt lat="43.58323" lon="3.67289">
        <ele>220.6</ele>
        <time>2021-04-15T14:05:10Z</time>
      </trkpt>
      <trkpt lat="43.58323" lon="3.67289">
        <ele>225</ele>
        <time>2021-04-15T14:05:10Z</time>
      </trkpt>
      <trkpt lat="43.58322" lon="3.67287">
        <ele>220.6</ele>
        <time>2021-04-15T14:05:12Z</time>
      </trkpt>
      <trkpt lat="43.58322" lon="3.67287">
        <ele>225</ele>
        <time>2021-04-15T14:05:12Z</time>
      </trkpt>
      <trkpt lat="43.58322" lon="3.67285">
        <ele>220.8</ele>
        <time>2021-04-15T14:05:14Z</time>
      </trkpt>
      <trkpt lat="43.58322" lon="3.67285">
        <ele>225</ele>
        <time>2021-04-15T14:05:14Z</time>
      </trkpt>
      <trkpt lat="43.58322" lon="3.67282">
        <ele>220.9</ele>
        <time>2021-04-15T14:05:15Z</time>
      </trkpt>
      <trkpt lat="43.58322" lon="3.67282">
        <ele>225</ele>
        <time>2021-04-15T14:05:15Z</time>
      </trkpt>
      <trkpt lat="43.58321" lon="3.6728">
        <ele>221</ele>
        <time>2021-04-15T14:05:17Z</time>
      </trkpt>
      <trkpt lat="43.58321" lon="3.6728">
        <ele>225</ele>
        <time>2021-04-15T14:05:17Z</time>
      </trkpt>
      <trkpt lat="43.58321" lon="3.67278">
        <ele>221.1</ele>
        <time>2021-04-15T14:05:18Z</time>
      </trkpt>
      <trkpt lat="43.58321" lon="3.67278">
        <ele>225</ele>
        <time>2021-04-15T14:05:18Z</time>
      </trkpt>
      <trkpt lat="43.58321" lon="3.67276">
        <ele>221.3</ele>
        <time>2021-04-15T14:05:20Z</time>
      </trkpt>
      <trkpt lat="43.58321" lon="3.67276">
        <ele>225</ele>
        <time>2021-04-15T14:05:20Z</time>
      </trkpt>
      <trkpt lat="43.5832" lon="3.67274">
        <ele>221.4</ele>
        <time>2021-04-15T14:05:21Z</time>
      </trkpt>
      <trkpt lat="43.5832" lon="3.67274">
        <ele>225</ele>
        <time>2021-04-15T14:05:21Z</time>
      </trkpt>
      <trkpt lat="43.5832" lon="3.67272">
        <ele>221.5</ele>
        <time>2021-04-15T14:05:23Z</time>
      </trkpt>
      <trkpt lat="43.5832" lon="3.67272">
        <ele>227</ele>
        <time>2021-04-15T14:05:23Z</time>
      </trkpt>
      <trkpt lat="43.5832" lon="3.67271">
        <ele>221.5</ele>
        <time>2021-04-15T14:05:24Z</time>
      </trkpt>
      <trkpt lat="43.5832" lon="3.67271">
        <ele>227</ele>
        <time>2021-04-15T14:05:24Z</time>
      </trkpt>
      <trkpt lat="43.5832" lon="3.67269">
        <ele>221.6</ele>
        <time>2021-04-15T14:05:26Z</time>
      </trkpt>
      <trkpt lat="43.5832" lon="3.67269">
        <ele>227</ele>
        <time>2021-04-15T14:05:26Z</time>
      </trkpt>
      <trkpt lat="43.5832" lon="3.67267">
        <ele>221.7</ele>
        <time>2021-04-15T14:05:27Z</time>
      </trkpt>
      <trkpt lat="43.5832" lon="3.67267">
        <ele>227</ele>
        <time>2021-04-15T14:05:27Z</time>
      </trkpt>
      <trkpt lat="43.5832" lon="3.67265">
        <ele>221.9</ele>
        <time>2021-04-15T14:05:29Z</time>
      </trkpt>
      <trkpt lat="43.5832" lon="3.67265">
        <ele>227</ele>
        <time>2021-04-15T14:05:29Z</time>
      </trkpt>
      <trkpt lat="43.58319" lon="3.67262">
        <ele>222.1</ele>
        <time>2021-04-15T14:05:31Z</time>
      </trkpt>
      <trkpt lat="43.58319" lon="3.67262">
        <ele>227</ele>
        <time>2021-04-15T14:05:31Z</time>
      </trkpt>
      <trkpt lat="43.58319" lon="3.6726">
        <ele>222.3</ele>
        <time>2021-04-15T14:05:33Z</time>
      </trkpt>
      <trkpt lat="43.58319" lon="3.6726">
        <ele>227</ele>
        <time>2021-04-15T14:05:33Z</time>
      </trkpt>
      <trkpt lat="43.58319" lon="3.67258">
        <ele>222.5</ele>
        <time>2021-04-15T14:05:35Z</time>
      </trkpt>
      <trkpt lat="43.58319" lon="3.67258">
        <ele>227</ele>
        <time>2021-04-15T14:05:35Z</time>
      </trkpt>
      <trkpt lat="43.58318" lon="3.67255">
        <ele>222.7</ele>
        <time>2021-04-15T14:05:37Z</time>
      </trkpt>
      <trkpt lat="43.58318" lon="3.67255">
        <ele>227</ele>
        <time>2021-04-15T14:05:37Z</time>
      </trkpt>
      <trkpt lat="43.58318" lon="3.67253">
        <ele>222.8</ele>
        <time>2021-04-15T14:05:38Z</time>
      </trkpt>
      <trkpt lat="43.58318" lon="3.67253">
        <ele>227</ele>
        <time>2021-04-15T14:05:38Z</time>
      </trkpt>
      <trkpt lat="43.58318" lon="3.6725">
        <ele>223</ele>
        <time>2021-04-15T14:05:40Z</time>
      </trkpt>
      <trkpt lat="43.58318" lon="3.6725">
        <ele>228</ele>
        <time>2021-04-15T14:05:40Z</time>
      </trkpt>
      <trkpt lat="43.58317" lon="3.67248">
        <ele>223.1</ele>
        <time>2021-04-15T14:05:41Z</time>
      </trkpt>
      <trkpt lat="43.58317" lon="3.67248">
        <ele>228</ele>
        <time>2021-04-15T14:05:41Z</time>
      </trkpt>
      <trkpt lat="43.58317" lon="3.67246">
        <ele>223.3</ele>
        <time>2021-04-15T14:05:43Z</time>
      </trkpt>
      <trkpt lat="43.58317" lon="3.67246">
        <ele>228</ele>
        <time>2021-04-15T14:05:43Z</time>
      </trkpt>
      <trkpt lat="43.58317" lon="3.67244">
        <ele>223.4</ele>
        <time>2021-04-15T14:05:44Z</time>
      </trkpt>
      <trkpt lat="43.58317" lon="3.67244">
        <ele>228</ele>
        <time>2021-04-15T14:05:44Z</time>
      </trkpt>
      <trkpt lat="43.58316" lon="3.67241">
        <ele>223.6</ele>
        <time>2021-04-15T14:05:46Z</time>
      </trkpt>
      <trkpt lat="43.58316" lon="3.67241">
        <ele>228</ele>
        <time>2021-04-15T14:05:46Z</time>
      </trkpt>
      <trkpt lat="43.58315" lon="3.67239">
        <ele>223.9</ele>
        <time>2021-04-15T14:05:48Z</time>
      </trkpt>
      <trkpt lat="43.58315" lon="3.67239">
        <ele>228</ele>
        <time>2021-04-15T14:05:48Z</time>
      </trkpt>
      <trkpt lat="43.58314" lon="3.67236">
        <ele>224.1</ele>
        <time>2021-04-15T14:05:49Z</time>
      </trkpt>
      <trkpt lat="43.58314" lon="3.67236">
        <ele>228</ele>
        <time>2021-04-15T14:05:49Z</time>
      </trkpt>
      <trkpt lat="43.58314" lon="3.67234">
        <ele>224.4</ele>
        <time>2021-04-15T14:05:51Z</time>
      </trkpt>
      <trkpt lat="43.58314" lon="3.67234">
        <ele>228</ele>
        <time>2021-04-15T14:05:51Z</time>
      </trkpt>
      <trkpt lat="43.58313" lon="3.67231">
        <ele>224.6</ele>
        <time>2021-04-15T14:05:53Z</time>
      </trkpt>
      <trkpt lat="43.58313" lon="3.67231">
        <ele>228</ele>
        <time>2021-04-15T14:05:53Z</time>
      </trkpt>
      <trkpt lat="43.58312" lon="3.67228">
        <ele>224.9</ele>
        <time>2021-04-15T14:05:55Z</time>
      </trkpt>
      <trkpt lat="43.58312" lon="3.67228">
        <ele>228</ele>
        <time>2021-04-15T14:05:55Z</time>
      </trkpt>
      <trkpt lat="43.58311" lon="3.67224">
        <ele>225.3</ele>
        <time>2021-04-15T14:05:57Z</time>
      </trkpt>
      <trkpt lat="43.58311" lon="3.67224">
        <ele>228</ele>
        <time>2021-04-15T14:05:57Z</time>
      </trkpt>
      <trkpt lat="43.58311" lon="3.67221">
        <ele>225.4</ele>
        <time>2021-04-15T14:05:59Z</time>
      </trkpt>
      <trkpt lat="43.58311" lon="3.67221">
        <ele>230</ele>
        <time>2021-04-15T14:05:59Z</time>
      </trkpt>
      <trkpt lat="43.58311" lon="3.67218">
        <ele>225.4</ele>
        <time>2021-04-15T14:06:01Z</time>
      </trkpt>
      <trkpt lat="43.58311" lon="3.67218">
        <ele>230</ele>
        <time>2021-04-15T14:06:01Z</time>
      </trkpt>
      <trkpt lat="43.58311" lon="3.67215">
        <ele>225.4</ele>
        <time>2021-04-15T14:06:03Z</time>
      </trkpt>
      <trkpt lat="43.58311" lon="3.67215">
        <ele>230</ele>
        <time>2021-04-15T14:06:03Z</time>
      </trkpt>
      <trkpt lat="43.58311" lon="3.67212">
        <ele>225.4</ele>
        <time>2021-04-15T14:06:04Z</time>
      </trkpt>
      <trkpt lat="43.58311" lon="3.67212">
        <ele>230</ele>
        <time>2021-04-15T14:06:04Z</time>
      </trkpt>
      <trkpt lat="43.5831" lon="3.67209">
        <ele>225.4</ele>
        <time>2021-04-15T14:06:06Z</time>
      </trkpt>
      <trkpt lat="43.5831" lon="3.67209">
        <ele>230</ele>
        <time>2021-04-15T14:06:06Z</time>
      </trkpt>
      <trkpt lat="43.5831" lon="3.67207">
        <ele>225.7</ele>
        <time>2021-04-15T14:06:08Z</time>
      </trkpt>
      <trkpt lat="43.5831" lon="3.67207">
        <ele>230</ele>
        <time>2021-04-15T14:06:08Z</time>
      </trkpt>
      <trkpt lat="43.58308" lon="3.67205">
        <ele>226.1</ele>
        <time>2021-04-15T14:06:10Z</time>
      </trkpt>
      <trkpt lat="43.58308" lon="3.67205">
        <ele>230</ele>
        <time>2021-04-15T14:06:10Z</time>
      </trkpt>
      <trkpt lat="43.58307" lon="3.67202">
        <ele>226.6</ele>
        <time>2021-04-15T14:06:11Z</time>
      </trkpt>
      <trkpt lat="43.58307" lon="3.67202">
        <ele>230</ele>
        <time>2021-04-15T14:06:11Z</time>
      </trkpt>
      <trkpt lat="43.58306" lon="3.672">
        <ele>227</ele>
        <time>2021-04-15T14:06:13Z</time>
      </trkpt>
      <trkpt lat="43.58306" lon="3.672">
        <ele>230</ele>
        <time>2021-04-15T14:06:13Z</time>
      </trkpt>
      <trkpt lat="43.58305" lon="3.67198">
        <ele>227.2</ele>
        <time>2021-04-15T14:06:14Z</time>
      </trkpt>
      <trkpt lat="43.58305" lon="3.67198">
        <ele>230</ele>
        <time>2021-04-15T14:06:14Z</time>
      </trkpt>
      <trkpt lat="43.58303" lon="3.67197">
        <ele>227.5</ele>
        <time>2021-04-15T14:06:16Z</time>
      </trkpt>
      <trkpt lat="43.58303" lon="3.67197">
        <ele>230</ele>
        <time>2021-04-15T14:06:16Z</time>
      </trkpt>
      <trkpt lat="43.58301" lon="3.67195">
        <ele>227.9</ele>
        <time>2021-04-15T14:06:18Z</time>
      </trkpt>
      <trkpt lat="43.58301" lon="3.67195">
        <ele>232</ele>
        <time>2021-04-15T14:06:18Z</time>
      </trkpt>
      <trkpt lat="43.583" lon="3.67193">
        <ele>228.1</ele>
        <time>2021-04-15T14:06:20Z</time>
      </trkpt>
      <trkpt lat="43.583" lon="3.67193">
        <ele>232</ele>
        <time>2021-04-15T14:06:20Z</time>
      </trkpt>
      <trkpt lat="43.58298" lon="3.67192">
        <ele>228.3</ele>
        <time>2021-04-15T14:06:21Z</time>
      </trkpt>
      <trkpt lat="43.58298" lon="3.67192">
        <ele>232</ele>
        <time>2021-04-15T14:06:21Z</time>
      </trkpt>
      <trkpt lat="43.58297" lon="3.67191">
        <ele>228.4</ele>
        <time>2021-04-15T14:06:23Z</time>
      </trkpt>
      <trkpt lat="43.58297" lon="3.67191">
        <ele>232</ele>
        <time>2021-04-15T14:06:23Z</time>
      </trkpt>
      <trkpt lat="43.58296" lon="3.6719">
        <ele>228.5</ele>
        <time>2021-04-15T14:06:25Z</time>
      </trkpt>
      <trkpt lat="43.58296" lon="3.6719">
        <ele>232</ele>
        <time>2021-04-15T14:06:25Z</time>
      </trkpt>
      <trkpt lat="43.58295" lon="3.67188">
        <ele>228.5</ele>
        <time>2021-04-15T14:06:27Z</time>
      </trkpt>
      <trkpt lat="43.58295" lon="3.67188">
        <ele>232</ele>
        <time>2021-04-15T14:06:27Z</time>
      </trkpt>
      <trkpt lat="43.58294" lon="3.67187">
        <ele>228.6</ele>
        <time>2021-04-15T14:06:28Z</time>
      </trkpt>
      <trkpt lat="43.58294" lon="3.67187">
        <ele>232</ele>
        <time>2021-04-15T14:06:28Z</time>
      </trkpt>
      <trkpt lat="43.58293" lon="3.67186">
        <ele>228.7</ele>
        <time>2021-04-15T14:06:29Z</time>
      </trkpt>
      <trkpt lat="43.58293" lon="3.67186">
        <ele>232</ele>
        <time>2021-04-15T14:06:29Z</time>
      </trkpt>
      <trkpt lat="43.58291" lon="3.67185">
        <ele>228.9</ele>
        <time>2021-04-15T14:06:31Z</time>
      </trkpt>
      <trkpt lat="43.58291" lon="3.67185">
        <ele>232</ele>
        <time>2021-04-15T14:06:31Z</time>
      </trkpt>
      <trkpt lat="43.5829" lon="3.67184">
        <ele>229</ele>
        <time>2021-04-15T14:06:32Z</time>
      </trkpt>
      <trkpt lat="43.5829" lon="3.67184">
        <ele>232</ele>
        <time>2021-04-15T14:06:32Z</time>
      </trkpt>
      <trkpt lat="43.58289" lon="3.67183">
        <ele>229.1</ele>
        <time>2021-04-15T14:06:33Z</time>
      </trkpt>
      <trkpt lat="43.58289" lon="3.67183">
        <ele>232</ele>
        <time>2021-04-15T14:06:33Z</time>
      </trkpt>
      <trkpt lat="43.58288" lon="3.67181">
        <ele>229.2</ele>
        <time>2021-04-15T14:06:35Z</time>
      </trkpt>
      <trkpt lat="43.58288" lon="3.67181">
        <ele>232</ele>
        <time>2021-04-15T14:06:35Z</time>
      </trkpt>
      <trkpt lat="43.58287" lon="3.6718">
        <ele>229.3</ele>
        <time>2021-04-15T14:06:36Z</time>
      </trkpt>
      <trkpt lat="43.58287" lon="3.6718">
        <ele>234</ele>
        <time>2021-04-15T14:06:36Z</time>
      </trkpt>
      <trkpt lat="43.58286" lon="3.67178">
        <ele>229.3</ele>
        <time>2021-04-15T14:06:38Z</time>
      </trkpt>
      <trkpt lat="43.58286" lon="3.67178">
        <ele>234</ele>
        <time>2021-04-15T14:06:38Z</time>
      </trkpt>
      <trkpt lat="43.58284" lon="3.67176">
        <ele>229.4</ele>
        <time>2021-04-15T14:06:40Z</time>
      </trkpt>
      <trkpt lat="43.58284" lon="3.67176">
        <ele>234</ele>
        <time>2021-04-15T14:06:40Z</time>
      </trkpt>
      <trkpt lat="43.58283" lon="3.67174">
        <ele>229.5</ele>
        <time>2021-04-15T14:06:41Z</time>
      </trkpt>
      <trkpt lat="43.58283" lon="3.67174">
        <ele>234</ele>
        <time>2021-04-15T14:06:41Z</time>
      </trkpt>
      <trkpt lat="43.58282" lon="3.67172">
        <ele>229.6</ele>
        <time>2021-04-15T14:06:42Z</time>
      </trkpt>
      <trkpt lat="43.58282" lon="3.67172">
        <ele>234</ele>
        <time>2021-04-15T14:06:42Z</time>
      </trkpt>
      <trkpt lat="43.58281" lon="3.6717">
        <ele>229.6</ele>
        <time>2021-04-15T14:06:44Z</time>
      </trkpt>
      <trkpt lat="43.58281" lon="3.6717">
        <ele>234</ele>
        <time>2021-04-15T14:06:44Z</time>
      </trkpt>
      <trkpt lat="43.5828" lon="3.67168">
        <ele>229.6</ele>
        <time>2021-04-15T14:06:46Z</time>
      </trkpt>
      <trkpt lat="43.5828" lon="3.67168">
        <ele>234</ele>
        <time>2021-04-15T14:06:46Z</time>
      </trkpt>
      <trkpt lat="43.58279" lon="3.67165">
        <ele>229.7</ele>
        <time>2021-04-15T14:06:48Z</time>
      </trkpt>
      <trkpt lat="43.58279" lon="3.67165">
        <ele>234</ele>
        <time>2021-04-15T14:06:48Z</time>
      </trkpt>
      <trkpt lat="43.58277" lon="3.67162">
        <ele>229.9</ele>
        <time>2021-04-15T14:06:50Z</time>
      </trkpt>
      <trkpt lat="43.58277" lon="3.67162">
        <ele>234</ele>
        <time>2021-04-15T14:06:50Z</time>
      </trkpt>
      <trkpt lat="43.58276" lon="3.67159">
        <ele>229.8</ele>
        <time>2021-04-15T14:06:52Z</time>
      </trkpt>
      <trkpt lat="43.58276" lon="3.67159">
        <ele>234</ele>
        <time>2021-04-15T14:06:52Z</time>
      </trkpt>
      <trkpt lat="43.58274" lon="3.67157">
        <ele>229.8</ele>
        <time>2021-04-15T14:06:54Z</time>
      </trkpt>
      <trkpt lat="43.58274" lon="3.67157">
        <ele>236</ele>
        <time>2021-04-15T14:06:54Z</time>
      </trkpt>
      <trkpt lat="43.58273" lon="3.67156">
        <ele>229.8</ele>
        <time>2021-04-15T14:06:56Z</time>
      </trkpt>
      <trkpt lat="43.58273" lon="3.67156">
        <ele>236</ele>
        <time>2021-04-15T14:06:56Z</time>
      </trkpt>
      <trkpt lat="43.58272" lon="3.67155">
        <ele>229.8</ele>
        <time>2021-04-15T14:06:58Z</time>
      </trkpt>
      <trkpt lat="43.58272" lon="3.67155">
        <ele>236</ele>
        <time>2021-04-15T14:06:58Z</time>
      </trkpt>
      <trkpt lat="43.58271" lon="3.67154">
        <ele>229.8</ele>
        <time>2021-04-15T14:06:59Z</time>
      </trkpt>
      <trkpt lat="43.58271" lon="3.67154">
        <ele>236</ele>
        <time>2021-04-15T14:06:59Z</time>
      </trkpt>
      <trkpt lat="43.58269" lon="3.67154">
        <ele>229.8</ele>
        <time>2021-04-15T14:07:01Z</time>
      </trkpt>
      <trkpt lat="43.58269" lon="3.67154">
        <ele>236</ele>
        <time>2021-04-15T14:07:01Z</time>
      </trkpt>
      <trkpt lat="43.58268" lon="3.67154">
        <ele>229.9</ele>
        <time>2021-04-15T14:07:03Z</time>
      </trkpt>
      <trkpt lat="43.58268" lon="3.67154">
        <ele>236</ele>
        <time>2021-04-15T14:07:03Z</time>
      </trkpt>
      <trkpt lat="43.58266" lon="3.67154">
        <ele>230</ele>
        <time>2021-04-15T14:07:04Z</time>
      </trkpt>
      <trkpt lat="43.58266" lon="3.67154">
        <ele>236</ele>
        <time>2021-04-15T14:07:04Z</time>
      </trkpt>
      <trkpt lat="43.58265" lon="3.67155">
        <ele>230.1</ele>
        <time>2021-04-15T14:07:06Z</time>
      </trkpt>
      <trkpt lat="43.58265" lon="3.67155">
        <ele>236</ele>
        <time>2021-04-15T14:07:06Z</time>
      </trkpt>
      <trkpt lat="43.58263" lon="3.67157">
        <ele>230.2</ele>
        <time>2021-04-15T14:07:08Z</time>
      </trkpt>
      <trkpt lat="43.58263" lon="3.67157">
        <ele>236</ele>
        <time>2021-04-15T14:07:08Z</time>
      </trkpt>
      <trkpt lat="43.58262" lon="3.67159">
        <ele>230.3</ele>
        <time>2021-04-15T14:07:09Z</time>
      </trkpt>
      <trkpt lat="43.58262" lon="3.67159">
        <ele>236</ele>
        <time>2021-04-15T14:07:09Z</time>
      </trkpt>
      <trkpt lat="43.58261" lon="3.6716">
        <ele>230.4</ele>
        <time>2021-04-15T14:07:11Z</time>
      </trkpt>
      <trkpt lat="43.58261" lon="3.6716">
        <ele>236</ele>
        <time>2021-04-15T14:07:11Z</time>
      </trkpt>
      <trkpt lat="43.5826" lon="3.67162">
        <ele>230.5</ele>
        <time>2021-04-15T14:07:12Z</time>
      </trkpt>
      <trkpt lat="43.5826" lon="3.67162">
        <ele>236</ele>
        <time>2021-04-15T14:07:12Z</time>
      </trkpt>
      <trkpt lat="43.58259" lon="3.67163">
        <ele>230.5</ele>
        <time>2021-04-15T14:07:13Z</time>
      </trkpt>
      <trkpt lat="43.58259" lon="3.67163">
        <ele>237</ele>
        <time>2021-04-15T14:07:13Z</time>
      </trkpt>
      <trkpt lat="43.58258" lon="3.67165">
        <ele>230.6</ele>
        <time>2021-04-15T14:07:15Z</time>
      </trkpt>
      <trkpt lat="43.58258" lon="3.67165">
        <ele>237</ele>
        <time>2021-04-15T14:07:15Z</time>
      </trkpt>
      <trkpt lat="43.58258" lon="3.67167">
        <ele>230.7</ele>
        <time>2021-04-15T14:07:17Z</time>
      </trkpt>
      <trkpt lat="43.58258" lon="3.67167">
        <ele>237</ele>
        <time>2021-04-15T14:07:17Z</time>
      </trkpt>
      <trkpt lat="43.58257" lon="3.67168">
        <ele>230.9</ele>
        <time>2021-04-15T14:07:18Z</time>
      </trkpt>
      <trkpt lat="43.58257" lon="3.67168">
        <ele>237</ele>
        <time>2021-04-15T14:07:18Z</time>
      </trkpt>
      <trkpt lat="43.58257" lon="3.67169">
        <ele>231</ele>
        <time>2021-04-15T14:07:20Z</time>
      </trkpt>
      <trkpt lat="43.58257" lon="3.67169">
        <ele>237</ele>
        <time>2021-04-15T14:07:20Z</time>
      </trkpt>
      <trkpt lat="43.58257" lon="3.67171">
        <ele>231.1</ele>
        <time>2021-04-15T14:07:22Z</time>
      </trkpt>
      <trkpt lat="43.58257" lon="3.67171">
        <ele>237</ele>
        <time>2021-04-15T14:07:22Z</time>
      </trkpt>
      <trkpt lat="43.58256" lon="3.67171">
        <ele>231.1</ele>
        <time>2021-04-15T14:07:24Z</time>
      </trkpt>
      <trkpt lat="43.58256" lon="3.67171">
        <ele>237</ele>
        <time>2021-04-15T14:07:24Z</time>
      </trkpt>
      <trkpt lat="43.58256" lon="3.67172">
        <ele>231.2</ele>
        <time>2021-04-15T14:07:25Z</time>
      </trkpt>
      <trkpt lat="43.58256" lon="3.67172">
        <ele>237</ele>
        <time>2021-04-15T14:07:25Z</time>
      </trkpt>
      <trkpt lat="43.58256" lon="3.67172">
        <ele>231.2</ele>
        <time>2021-04-15T14:07:27Z</time>
      </trkpt>
      <trkpt lat="43.58256" lon="3.67172">
        <ele>237</ele>
        <time>2021-04-15T14:07:27Z</time>
      </trkpt>
      <trkpt lat="43.58252" lon="3.67162">
        <ele>230.8</ele>
        <time>2021-04-15T14:11:12Z</time>
      </trkpt>
      <trkpt lat="43.58252" lon="3.67162">
        <ele>238</ele>
        <time>2021-04-15T14:11:12Z</time>
      </trkpt>
      <trkpt lat="43.58252" lon="3.67161">
        <ele>230.7</ele>
        <time>2021-04-15T14:11:14Z</time>
      </trkpt>
      <trkpt lat="43.58252" lon="3.67161">
        <ele>238</ele>
        <time>2021-04-15T14:11:14Z</time>
      </trkpt>
      <trkpt lat="43.58252" lon="3.6716">
        <ele>230.7</ele>
        <time>2021-04-15T14:11:15Z</time>
      </trkpt>
      <trkpt lat="43.58252" lon="3.6716">
        <ele>238</ele>
        <time>2021-04-15T14:11:15Z</time>
      </trkpt>
      <trkpt lat="43.58252" lon="3.67159">
        <ele>230.6</ele>
        <time>2021-04-15T14:11:17Z</time>
      </trkpt>
      <trkpt lat="43.58252" lon="3.67159">
        <ele>238</ele>
        <time>2021-04-15T14:11:17Z</time>
      </trkpt>
      <trkpt lat="43.58253" lon="3.67157">
        <ele>230.5</ele>
        <time>2021-04-15T14:11:19Z</time>
      </trkpt>
      <trkpt lat="43.58253" lon="3.67157">
        <ele>238</ele>
        <time>2021-04-15T14:11:19Z</time>
      </trkpt>
      <trkpt lat="43.58253" lon="3.67155">
        <ele>230.5</ele>
        <time>2021-04-15T14:11:20Z</time>
      </trkpt>
      <trkpt lat="43.58253" lon="3.67155">
        <ele>238</ele>
        <time>2021-04-15T14:11:20Z</time>
      </trkpt>
      <trkpt lat="43.58254" lon="3.67153">
        <ele>230.4</ele>
        <time>2021-04-15T14:11:21Z</time>
      </trkpt>
      <trkpt lat="43.58254" lon="3.67153">
        <ele>238</ele>
        <time>2021-04-15T14:11:21Z</time>
      </trkpt>
      <trkpt lat="43.58253" lon="3.67151">
        <ele>230.3</ele>
        <time>2021-04-15T14:11:23Z</time>
      </trkpt>
      <trkpt lat="43.58253" lon="3.67151">
        <ele>238</ele>
        <time>2021-04-15T14:11:23Z</time>
      </trkpt>
      <trkpt lat="43.58253" lon="3.6715">
        <ele>230.3</ele>
        <time>2021-04-15T14:11:24Z</time>
      </trkpt>
      <trkpt lat="43.58253" lon="3.6715">
        <ele>238</ele>
        <time>2021-04-15T14:11:24Z</time>
      </trkpt>
      <trkpt lat="43.58252" lon="3.67147">
        <ele>230.2</ele>
        <time>2021-04-15T14:11:26Z</time>
      </trkpt>
      <trkpt lat="43.58252" lon="3.67147">
        <ele>238</ele>
        <time>2021-04-15T14:11:26Z</time>
      </trkpt>
      <trkpt lat="43.58252" lon="3.67144">
        <ele>230.1</ele>
        <time>2021-04-15T14:11:28Z</time>
      </trkpt>
      <trkpt lat="43.58252" lon="3.67144">
        <ele>238</ele>
        <time>2021-04-15T14:11:28Z</time>
      </trkpt>
      <trkpt lat="43.58251" lon="3.67141">
        <ele>230</ele>
        <time>2021-04-15T14:11:29Z</time>
      </trkpt>
      <trkpt lat="43.58251" lon="3.67141">
        <ele>238</ele>
        <time>2021-04-15T14:11:29Z</time>
      </trkpt>
      <trkpt lat="43.58251" lon="3.67138">
        <ele>230</ele>
        <time>2021-04-15T14:11:31Z</time>
      </trkpt>
      <trkpt lat="43.58251" lon="3.67138">
        <ele>238</ele>
        <time>2021-04-15T14:11:31Z</time>
      </trkpt>
      <trkpt lat="43.5825" lon="3.67135">
        <ele>229.9</ele>
        <time>2021-04-15T14:11:32Z</time>
      </trkpt>
      <trkpt lat="43.5825" lon="3.67135">
        <ele>238</ele>
        <time>2021-04-15T14:11:32Z</time>
      </trkpt>
      <trkpt lat="43.5825" lon="3.67133">
        <ele>229.8</ele>
        <time>2021-04-15T14:11:34Z</time>
      </trkpt>
      <trkpt lat="43.5825" lon="3.67133">
        <ele>238</ele>
        <time>2021-04-15T14:11:34Z</time>
      </trkpt>
      <trkpt lat="43.5825" lon="3.6713">
        <ele>229.7</ele>
        <time>2021-04-15T14:11:35Z</time>
      </trkpt>
      <trkpt lat="43.5825" lon="3.6713">
        <ele>238</ele>
        <time>2021-04-15T14:11:35Z</time>
      </trkpt>
      <trkpt lat="43.5825" lon="3.67128">
        <ele>229.6</ele>
        <time>2021-04-15T14:11:37Z</time>
      </trkpt>
      <trkpt lat="43.5825" lon="3.67128">
        <ele>238</ele>
        <time>2021-04-15T14:11:37Z</time>
      </trkpt>
      <trkpt lat="43.58249" lon="3.67125">
        <ele>229.5</ele>
        <time>2021-04-15T14:11:38Z</time>
      </trkpt>
      <trkpt lat="43.58249" lon="3.67125">
        <ele>238</ele>
        <time>2021-04-15T14:11:38Z</time>
      </trkpt>
      <trkpt lat="43.5825" lon="3.67123">
        <ele>229.4</ele>
        <time>2021-04-15T14:11:39Z</time>
      </trkpt>
      <trkpt lat="43.5825" lon="3.67123">
        <ele>238</ele>
        <time>2021-04-15T14:11:39Z</time>
      </trkpt>
      <trkpt lat="43.5825" lon="3.67121">
        <ele>229.3</ele>
        <time>2021-04-15T14:11:41Z</time>
      </trkpt>
      <trkpt lat="43.5825" lon="3.67121">
        <ele>238</ele>
        <time>2021-04-15T14:11:41Z</time>
      </trkpt>
      <trkpt lat="43.5825" lon="3.67119">
        <ele>229.3</ele>
        <time>2021-04-15T14:11:42Z</time>
      </trkpt>
      <trkpt lat="43.5825" lon="3.67119">
        <ele>238</ele>
        <time>2021-04-15T14:11:42Z</time>
      </trkpt>
      <trkpt lat="43.5825" lon="3.67117">
        <ele>229.2</ele>
        <time>2021-04-15T14:11:43Z</time>
      </trkpt>
      <trkpt lat="43.5825" lon="3.67117">
        <ele>238</ele>
        <time>2021-04-15T14:11:43Z</time>
      </trkpt>
      <trkpt lat="43.58251" lon="3.67116">
        <ele>229.2</ele>
        <time>2021-04-15T14:11:45Z</time>
      </trkpt>
      <trkpt lat="43.58251" lon="3.67116">
        <ele>236</ele>
        <time>2021-04-15T14:11:45Z</time>
      </trkpt>
      <trkpt lat="43.58251" lon="3.67113">
        <ele>229.1</ele>
        <time>2021-04-15T14:11:47Z</time>
      </trkpt>
      <trkpt lat="43.58251" lon="3.67113">
        <ele>236</ele>
        <time>2021-04-15T14:11:47Z</time>
      </trkpt>
      <trkpt lat="43.58251" lon="3.67111">
        <ele>229</ele>
        <time>2021-04-15T14:11:48Z</time>
      </trkpt>
      <trkpt lat="43.58251" lon="3.67111">
        <ele>236</ele>
        <time>2021-04-15T14:11:48Z</time>
      </trkpt>
      <trkpt lat="43.58251" lon="3.67109">
        <ele>229</ele>
        <time>2021-04-15T14:11:49Z</time>
      </trkpt>
      <trkpt lat="43.58251" lon="3.67109">
        <ele>236</ele>
        <time>2021-04-15T14:11:49Z</time>
      </trkpt>
      <trkpt lat="43.58252" lon="3.67108">
        <ele>229</ele>
        <time>2021-04-15T14:11:50Z</time>
      </trkpt>
      <trkpt lat="43.58252" lon="3.67108">
        <ele>236</ele>
        <time>2021-04-15T14:11:50Z</time>
      </trkpt>
      <trkpt lat="43.58252" lon="3.67106">
        <ele>229</ele>
        <time>2021-04-15T14:11:52Z</time>
      </trkpt>
      <trkpt lat="43.58252" lon="3.67106">
        <ele>236</ele>
        <time>2021-04-15T14:11:52Z</time>
      </trkpt>
      <trkpt lat="43.58253" lon="3.67104">
        <ele>229</ele>
        <time>2021-04-15T14:11:53Z</time>
      </trkpt>
      <trkpt lat="43.58253" lon="3.67104">
        <ele>236</ele>
        <time>2021-04-15T14:11:53Z</time>
      </trkpt>
      <trkpt lat="43.58253" lon="3.67102">
        <ele>229</ele>
        <time>2021-04-15T14:11:55Z</time>
      </trkpt>
      <trkpt lat="43.58253" lon="3.67102">
        <ele>236</ele>
        <time>2021-04-15T14:11:55Z</time>
      </trkpt>
      <trkpt lat="43.58255" lon="3.67099">
        <ele>229</ele>
        <time>2021-04-15T14:11:57Z</time>
      </trkpt>
      <trkpt lat="43.58255" lon="3.67099">
        <ele>236</ele>
        <time>2021-04-15T14:11:57Z</time>
      </trkpt>
      <trkpt lat="43.58256" lon="3.67096">
        <ele>229</ele>
        <time>2021-04-15T14:11:59Z</time>
      </trkpt>
      <trkpt lat="43.58256" lon="3.67096">
        <ele>236</ele>
        <time>2021-04-15T14:11:59Z</time>
      </trkpt>
      <trkpt lat="43.58257" lon="3.67094">
        <ele>229</ele>
        <time>2021-04-15T14:12:00Z</time>
      </trkpt>
      <trkpt lat="43.58257" lon="3.67094">
        <ele>236</ele>
        <time>2021-04-15T14:12:00Z</time>
      </trkpt>
      <trkpt lat="43.58258" lon="3.67092">
        <ele>229</ele>
        <time>2021-04-15T14:12:01Z</time>
      </trkpt>
      <trkpt lat="43.58258" lon="3.67092">
        <ele>236</ele>
        <time>2021-04-15T14:12:01Z</time>
      </trkpt>
      <trkpt lat="43.5826" lon="3.6709">
        <ele>229</ele>
        <time>2021-04-15T14:12:03Z</time>
      </trkpt>
      <trkpt lat="43.5826" lon="3.6709">
        <ele>236</ele>
        <time>2021-04-15T14:12:03Z</time>
      </trkpt>
      <trkpt lat="43.58261" lon="3.67087">
        <ele>229</ele>
        <time>2021-04-15T14:12:05Z</time>
      </trkpt>
      <trkpt lat="43.58261" lon="3.67087">
        <ele>236</ele>
        <time>2021-04-15T14:12:05Z</time>
      </trkpt>
      <trkpt lat="43.58262" lon="3.67085">
        <ele>229</ele>
        <time>2021-04-15T14:12:07Z</time>
      </trkpt>
      <trkpt lat="43.58262" lon="3.67085">
        <ele>236</ele>
        <time>2021-04-15T14:12:07Z</time>
      </trkpt>
      <trkpt lat="43.58263" lon="3.67082">
        <ele>229</ele>
        <time>2021-04-15T14:12:09Z</time>
      </trkpt>
      <trkpt lat="43.58263" lon="3.67082">
        <ele>236</ele>
        <time>2021-04-15T14:12:09Z</time>
      </trkpt>
      <trkpt lat="43.58264" lon="3.6708">
        <ele>228.9</ele>
        <time>2021-04-15T14:12:10Z</time>
      </trkpt>
      <trkpt lat="43.58264" lon="3.6708">
        <ele>236</ele>
        <time>2021-04-15T14:12:10Z</time>
      </trkpt>
      <trkpt lat="43.58264" lon="3.67077">
        <ele>228.9</ele>
        <time>2021-04-15T14:12:11Z</time>
      </trkpt>
      <trkpt lat="43.58264" lon="3.67077">
        <ele>236</ele>
        <time>2021-04-15T14:12:11Z</time>
      </trkpt>
      <trkpt lat="43.58265" lon="3.67075">
        <ele>228.9</ele>
        <time>2021-04-15T14:12:13Z</time>
      </trkpt>
      <trkpt lat="43.58265" lon="3.67075">
        <ele>236</ele>
        <time>2021-04-15T14:12:13Z</time>
      </trkpt>
      <trkpt lat="43.58265" lon="3.67072">
        <ele>228.8</ele>
        <time>2021-04-15T14:12:15Z</time>
      </trkpt>
      <trkpt lat="43.58265" lon="3.67072">
        <ele>236</ele>
        <time>2021-04-15T14:12:15Z</time>
      </trkpt>
      <trkpt lat="43.58266" lon="3.67069">
        <ele>228.8</ele>
        <time>2021-04-15T14:12:16Z</time>
      </trkpt>
      <trkpt lat="43.58266" lon="3.67069">
        <ele>236</ele>
        <time>2021-04-15T14:12:16Z</time>
      </trkpt>
      <trkpt lat="43.58266" lon="3.67066">
        <ele>228.7</ele>
        <time>2021-04-15T14:12:18Z</time>
      </trkpt>
      <trkpt lat="43.58266" lon="3.67066">
        <ele>236</ele>
        <time>2021-04-15T14:12:18Z</time>
      </trkpt>
      <trkpt lat="43.58267" lon="3.67063">
        <ele>228.7</ele>
        <time>2021-04-15T14:12:20Z</time>
      </trkpt>
      <trkpt lat="43.58267" lon="3.67063">
        <ele>236</ele>
        <time>2021-04-15T14:12:20Z</time>
      </trkpt>
      <trkpt lat="43.58267" lon="3.6706">
        <ele>228.7</ele>
        <time>2021-04-15T14:12:22Z</time>
      </trkpt>
      <trkpt lat="43.58267" lon="3.6706">
        <ele>236</ele>
        <time>2021-04-15T14:12:22Z</time>
      </trkpt>
      <trkpt lat="43.58267" lon="3.67057">
        <ele>228.6</ele>
        <time>2021-04-15T14:12:23Z</time>
      </trkpt>
      <trkpt lat="43.58267" lon="3.67057">
        <ele>236</ele>
        <time>2021-04-15T14:12:23Z</time>
      </trkpt>
      <trkpt lat="43.58266" lon="3.67055">
        <ele>228.6</ele>
        <time>2021-04-15T14:12:25Z</time>
      </trkpt>
      <trkpt lat="43.58266" lon="3.67055">
        <ele>236</ele>
        <time>2021-04-15T14:12:25Z</time>
      </trkpt>
      <trkpt lat="43.58265" lon="3.67053">
        <ele>228.6</ele>
        <time>2021-04-15T14:12:26Z</time>
      </trkpt>
      <trkpt lat="43.58265" lon="3.67053">
        <ele>236</ele>
        <time>2021-04-15T14:12:26Z</time>
      </trkpt>
      <trkpt lat="43.58264" lon="3.67051">
        <ele>228.5</ele>
        <time>2021-04-15T14:12:28Z</time>
      </trkpt>
      <trkpt lat="43.58264" lon="3.67051">
        <ele>236</ele>
        <time>2021-04-15T14:12:28Z</time>
      </trkpt>
      <trkpt lat="43.58264" lon="3.67049">
        <ele>228.5</ele>
        <time>2021-04-15T14:12:29Z</time>
      </trkpt>
      <trkpt lat="43.58264" lon="3.67049">
        <ele>236</ele>
        <time>2021-04-15T14:12:29Z</time>
      </trkpt>
      <trkpt lat="43.58263" lon="3.67047">
        <ele>228.5</ele>
        <time>2021-04-15T14:12:31Z</time>
      </trkpt>
      <trkpt lat="43.58263" lon="3.67047">
        <ele>235</ele>
        <time>2021-04-15T14:12:31Z</time>
      </trkpt>
      <trkpt lat="43.58262" lon="3.67046">
        <ele>228.4</ele>
        <time>2021-04-15T14:12:32Z</time>
      </trkpt>
      <trkpt lat="43.58262" lon="3.67046">
        <ele>235</ele>
        <time>2021-04-15T14:12:32Z</time>
      </trkpt>
      <trkpt lat="43.5826" lon="3.67044">
        <ele>228.4</ele>
        <time>2021-04-15T14:12:34Z</time>
      </trkpt>
      <trkpt lat="43.5826" lon="3.67044">
        <ele>235</ele>
        <time>2021-04-15T14:12:34Z</time>
      </trkpt>
      <trkpt lat="43.58259" lon="3.67043">
        <ele>228.3</ele>
        <time>2021-04-15T14:12:35Z</time>
      </trkpt>
      <trkpt lat="43.58259" lon="3.67043">
        <ele>235</ele>
        <time>2021-04-15T14:12:35Z</time>
      </trkpt>
      <trkpt lat="43.58258" lon="3.67041">
        <ele>228.3</ele>
        <time>2021-04-15T14:12:37Z</time>
      </trkpt>
      <trkpt lat="43.58258" lon="3.67041">
        <ele>235</ele>
        <time>2021-04-15T14:12:37Z</time>
      </trkpt>
      <trkpt lat="43.58256" lon="3.6704">
        <ele>228.2</ele>
        <time>2021-04-15T14:12:38Z</time>
      </trkpt>
      <trkpt lat="43.58256" lon="3.6704">
        <ele>235</ele>
        <time>2021-04-15T14:12:38Z</time>
      </trkpt>
      <trkpt lat="43.58255" lon="3.6704">
        <ele>228.2</ele>
        <time>2021-04-15T14:12:40Z</time>
      </trkpt>
      <trkpt lat="43.58255" lon="3.6704">
        <ele>235</ele>
        <time>2021-04-15T14:12:40Z</time>
      </trkpt>
      <trkpt lat="43.58253" lon="3.6704">
        <ele>228.1</ele>
        <time>2021-04-15T14:12:41Z</time>
      </trkpt>
      <trkpt lat="43.58253" lon="3.6704">
        <ele>235</ele>
        <time>2021-04-15T14:12:41Z</time>
      </trkpt>
      <trkpt lat="43.58251" lon="3.67039">
        <ele>228</ele>
        <time>2021-04-15T14:12:43Z</time>
      </trkpt>
      <trkpt lat="43.58251" lon="3.67039">
        <ele>235</ele>
        <time>2021-04-15T14:12:43Z</time>
      </trkpt>
      <trkpt lat="43.58249" lon="3.67039">
        <ele>227.9</ele>
        <time>2021-04-15T14:12:45Z</time>
      </trkpt>
      <trkpt lat="43.58249" lon="3.67039">
        <ele>235</ele>
        <time>2021-04-15T14:12:45Z</time>
      </trkpt>
      <trkpt lat="43.58248" lon="3.67039">
        <ele>227.6</ele>
        <time>2021-04-15T14:12:46Z</time>
      </trkpt>
      <trkpt lat="43.58248" lon="3.67039">
        <ele>235</ele>
        <time>2021-04-15T14:12:46Z</time>
      </trkpt>
      <trkpt lat="43.58246" lon="3.67039">
        <ele>227.4</ele>
        <time>2021-04-15T14:12:47Z</time>
      </trkpt>
      <trkpt lat="43.58246" lon="3.67039">
        <ele>235</ele>
        <time>2021-04-15T14:12:47Z</time>
      </trkpt>
      <trkpt lat="43.58245" lon="3.67039">
        <ele>227.2</ele>
        <time>2021-04-15T14:12:48Z</time>
      </trkpt>
      <trkpt lat="43.58245" lon="3.67039">
        <ele>235</ele>
        <time>2021-04-15T14:12:48Z</time>
      </trkpt>
      <trkpt lat="43.58243" lon="3.67039">
        <ele>227</ele>
        <time>2021-04-15T14:12:50Z</time>
      </trkpt>
      <trkpt lat="43.58243" lon="3.67039">
        <ele>235</ele>
        <time>2021-04-15T14:12:50Z</time>
      </trkpt>
      <trkpt lat="43.58242" lon="3.67039">
        <ele>226.8</ele>
        <time>2021-04-15T14:12:51Z</time>
      </trkpt>
      <trkpt lat="43.58242" lon="3.67039">
        <ele>235</ele>
        <time>2021-04-15T14:12:51Z</time>
      </trkpt>
      <trkpt lat="43.5824" lon="3.67039">
        <ele>226.6</ele>
        <time>2021-04-15T14:12:53Z</time>
      </trkpt>
      <trkpt lat="43.5824" lon="3.67039">
        <ele>232</ele>
        <time>2021-04-15T14:12:53Z</time>
      </trkpt>
      <trkpt lat="43.58239" lon="3.67039">
        <ele>226.4</ele>
        <time>2021-04-15T14:12:55Z</time>
      </trkpt>
      <trkpt lat="43.58239" lon="3.67039">
        <ele>232</ele>
        <time>2021-04-15T14:12:55Z</time>
      </trkpt>
      <trkpt lat="43.58237" lon="3.67039">
        <ele>226.1</ele>
        <time>2021-04-15T14:12:57Z</time>
      </trkpt>
      <trkpt lat="43.58237" lon="3.67039">
        <ele>232</ele>
        <time>2021-04-15T14:12:57Z</time>
      </trkpt>
      <trkpt lat="43.58235" lon="3.67038">
        <ele>225.8</ele>
        <time>2021-04-15T14:12:59Z</time>
      </trkpt>
      <trkpt lat="43.58235" lon="3.67038">
        <ele>232</ele>
        <time>2021-04-15T14:12:59Z</time>
      </trkpt>
      <trkpt lat="43.58232" lon="3.67038">
        <ele>225.4</ele>
        <time>2021-04-15T14:13:01Z</time>
      </trkpt>
      <trkpt lat="43.58232" lon="3.67038">
        <ele>232</ele>
        <time>2021-04-15T14:13:01Z</time>
      </trkpt>
      <trkpt lat="43.5823" lon="3.67038">
        <ele>225.1</ele>
        <time>2021-04-15T14:13:02Z</time>
      </trkpt>
      <trkpt lat="43.5823" lon="3.67038">
        <ele>232</ele>
        <time>2021-04-15T14:13:02Z</time>
      </trkpt>
      <trkpt lat="43.58228" lon="3.67037">
        <ele>224.8</ele>
        <time>2021-04-15T14:13:04Z</time>
      </trkpt>
      <trkpt lat="43.58228" lon="3.67037">
        <ele>232</ele>
        <time>2021-04-15T14:13:04Z</time>
      </trkpt>
      <trkpt lat="43.58225" lon="3.67036">
        <ele>224.4</ele>
        <time>2021-04-15T14:13:06Z</time>
      </trkpt>
      <trkpt lat="43.58225" lon="3.67036">
        <ele>232</ele>
        <time>2021-04-15T14:13:06Z</time>
      </trkpt>
      <trkpt lat="43.58223" lon="3.67036">
        <ele>224.1</ele>
        <time>2021-04-15T14:13:07Z</time>
      </trkpt>
      <trkpt lat="43.58223" lon="3.67036">
        <ele>232</ele>
        <time>2021-04-15T14:13:07Z</time>
      </trkpt>
      <trkpt lat="43.58221" lon="3.67035">
        <ele>223.9</ele>
        <time>2021-04-15T14:13:09Z</time>
      </trkpt>
      <trkpt lat="43.58221" lon="3.67035">
        <ele>232</ele>
        <time>2021-04-15T14:13:09Z</time>
      </trkpt>
      <trkpt lat="43.58219" lon="3.67033">
        <ele>223.7</ele>
        <time>2021-04-15T14:13:11Z</time>
      </trkpt>
      <trkpt lat="43.58219" lon="3.67033">
        <ele>229</ele>
        <time>2021-04-15T14:13:11Z</time>
      </trkpt>
      <trkpt lat="43.58217" lon="3.67032">
        <ele>223.4</ele>
        <time>2021-04-15T14:13:13Z</time>
      </trkpt>
      <trkpt lat="43.58217" lon="3.67032">
        <ele>229</ele>
        <time>2021-04-15T14:13:13Z</time>
      </trkpt>
      <trkpt lat="43.58214" lon="3.6703">
        <ele>223.2</ele>
        <time>2021-04-15T14:13:15Z</time>
      </trkpt>
      <trkpt lat="43.58214" lon="3.6703">
        <ele>229</ele>
        <time>2021-04-15T14:13:15Z</time>
      </trkpt>
      <trkpt lat="43.58212" lon="3.67028">
        <ele>222.9</ele>
        <time>2021-04-15T14:13:17Z</time>
      </trkpt>
      <trkpt lat="43.58212" lon="3.67028">
        <ele>229</ele>
        <time>2021-04-15T14:13:17Z</time>
      </trkpt>
      <trkpt lat="43.5821" lon="3.67027">
        <ele>222.7</ele>
        <time>2021-04-15T14:13:18Z</time>
      </trkpt>
      <trkpt lat="43.5821" lon="3.67027">
        <ele>229</ele>
        <time>2021-04-15T14:13:18Z</time>
      </trkpt>
      <trkpt lat="43.58208" lon="3.67025">
        <ele>222.6</ele>
        <time>2021-04-15T14:13:20Z</time>
      </trkpt>
      <trkpt lat="43.58208" lon="3.67025">
        <ele>229</ele>
        <time>2021-04-15T14:13:20Z</time>
      </trkpt>
      <trkpt lat="43.58207" lon="3.67024">
        <ele>222.6</ele>
        <time>2021-04-15T14:13:21Z</time>
      </trkpt>
      <trkpt lat="43.58207" lon="3.67024">
        <ele>229</ele>
        <time>2021-04-15T14:13:21Z</time>
      </trkpt>
      <trkpt lat="43.58205" lon="3.67022">
        <ele>222.5</ele>
        <time>2021-04-15T14:13:22Z</time>
      </trkpt>
      <trkpt lat="43.58205" lon="3.67022">
        <ele>229</ele>
        <time>2021-04-15T14:13:22Z</time>
      </trkpt>
      <trkpt lat="43.58204" lon="3.67021">
        <ele>222.5</ele>
        <time>2021-04-15T14:13:24Z</time>
      </trkpt>
      <trkpt lat="43.58204" lon="3.67021">
        <ele>229</ele>
        <time>2021-04-15T14:13:24Z</time>
      </trkpt>
      <trkpt lat="43.58202" lon="3.67019">
        <ele>222.5</ele>
        <time>2021-04-15T14:13:25Z</time>
      </trkpt>
      <trkpt lat="43.58202" lon="3.67019">
        <ele>229</ele>
        <time>2021-04-15T14:13:25Z</time>
      </trkpt>
      <trkpt lat="43.58201" lon="3.67017">
        <ele>222.5</ele>
        <time>2021-04-15T14:13:27Z</time>
      </trkpt>
      <trkpt lat="43.58201" lon="3.67017">
        <ele>228</ele>
        <time>2021-04-15T14:13:27Z</time>
      </trkpt>
      <trkpt lat="43.58199" lon="3.67015">
        <ele>222.4</ele>
        <time>2021-04-15T14:13:28Z</time>
      </trkpt>
      <trkpt lat="43.58199" lon="3.67015">
        <ele>228</ele>
        <time>2021-04-15T14:13:28Z</time>
      </trkpt>
      <trkpt lat="43.58198" lon="3.67014">
        <ele>222.4</ele>
        <time>2021-04-15T14:13:29Z</time>
      </trkpt>
      <trkpt lat="43.58198" lon="3.67014">
        <ele>228</ele>
        <time>2021-04-15T14:13:29Z</time>
      </trkpt>
      <trkpt lat="43.58197" lon="3.67012">
        <ele>222.4</ele>
        <time>2021-04-15T14:13:30Z</time>
      </trkpt>
      <trkpt lat="43.58197" lon="3.67012">
        <ele>228</ele>
        <time>2021-04-15T14:13:30Z</time>
      </trkpt>
      <trkpt lat="43.58196" lon="3.6701">
        <ele>222.4</ele>
        <time>2021-04-15T14:13:32Z</time>
      </trkpt>
      <trkpt lat="43.58196" lon="3.6701">
        <ele>228</ele>
        <time>2021-04-15T14:13:32Z</time>
      </trkpt>
      <trkpt lat="43.58195" lon="3.67008">
        <ele>222.4</ele>
        <time>2021-04-15T14:13:33Z</time>
      </trkpt>
      <trkpt lat="43.58195" lon="3.67008">
        <ele>228</ele>
        <time>2021-04-15T14:13:33Z</time>
      </trkpt>
      <trkpt lat="43.58193" lon="3.67006">
        <ele>222.4</ele>
        <time>2021-04-15T14:13:35Z</time>
      </trkpt>
      <trkpt lat="43.58193" lon="3.67006">
        <ele>228</ele>
        <time>2021-04-15T14:13:35Z</time>
      </trkpt>
      <trkpt lat="43.58192" lon="3.67004">
        <ele>222.4</ele>
        <time>2021-04-15T14:13:36Z</time>
      </trkpt>
      <trkpt lat="43.58192" lon="3.67004">
        <ele>228</ele>
        <time>2021-04-15T14:13:36Z</time>
      </trkpt>
      <trkpt lat="43.58191" lon="3.67003">
        <ele>222.4</ele>
        <time>2021-04-15T14:13:38Z</time>
      </trkpt>
      <trkpt lat="43.58191" lon="3.67003">
        <ele>228</ele>
        <time>2021-04-15T14:13:38Z</time>
      </trkpt>
      <trkpt lat="43.5819" lon="3.67">
        <ele>222.5</ele>
        <time>2021-04-15T14:13:40Z</time>
      </trkpt>
      <trkpt lat="43.5819" lon="3.67">
        <ele>228</ele>
        <time>2021-04-15T14:13:40Z</time>
      </trkpt>
      <trkpt lat="43.58188" lon="3.66998">
        <ele>222.5</ele>
        <time>2021-04-15T14:13:41Z</time>
      </trkpt>
      <trkpt lat="43.58188" lon="3.66998">
        <ele>228</ele>
        <time>2021-04-15T14:13:41Z</time>
      </trkpt>
      <trkpt lat="43.58187" lon="3.66996">
        <ele>222.5</ele>
        <time>2021-04-15T14:13:43Z</time>
      </trkpt>
      <trkpt lat="43.58187" lon="3.66996">
        <ele>228</ele>
        <time>2021-04-15T14:13:43Z</time>
      </trkpt>
      <trkpt lat="43.58186" lon="3.66993">
        <ele>222.6</ele>
        <time>2021-04-15T14:13:45Z</time>
      </trkpt>
      <trkpt lat="43.58186" lon="3.66993">
        <ele>228</ele>
        <time>2021-04-15T14:13:45Z</time>
      </trkpt>
      <trkpt lat="43.58184" lon="3.6699">
        <ele>222.6</ele>
        <time>2021-04-15T14:13:47Z</time>
      </trkpt>
      <trkpt lat="43.58184" lon="3.6699">
        <ele>228</ele>
        <time>2021-04-15T14:13:47Z</time>
      </trkpt>
      <trkpt lat="43.58183" lon="3.66988">
        <ele>222.6</ele>
        <time>2021-04-15T14:13:49Z</time>
      </trkpt>
      <trkpt lat="43.58183" lon="3.66988">
        <ele>228</ele>
        <time>2021-04-15T14:13:49Z</time>
      </trkpt>
      <trkpt lat="43.58181" lon="3.66985">
        <ele>222.6</ele>
        <time>2021-04-15T14:13:51Z</time>
      </trkpt>
      <trkpt lat="43.58181" lon="3.66985">
        <ele>228</ele>
        <time>2021-04-15T14:13:51Z</time>
      </trkpt>
      <trkpt lat="43.5818" lon="3.66983">
        <ele>222.6</ele>
        <time>2021-04-15T14:13:53Z</time>
      </trkpt>
      <trkpt lat="43.5818" lon="3.66983">
        <ele>228</ele>
        <time>2021-04-15T14:13:53Z</time>
      </trkpt>
      <trkpt lat="43.58178" lon="3.6698">
        <ele>222.7</ele>
        <time>2021-04-15T14:13:55Z</time>
      </trkpt>
      <trkpt lat="43.58178" lon="3.6698">
        <ele>228</ele>
        <time>2021-04-15T14:13:55Z</time>
      </trkpt>
      <trkpt lat="43.58177" lon="3.66978">
        <ele>222.6</ele>
        <time>2021-04-15T14:13:56Z</time>
      </trkpt>
      <trkpt lat="43.58177" lon="3.66978">
        <ele>228</ele>
        <time>2021-04-15T14:13:56Z</time>
      </trkpt>
      <trkpt lat="43.58175" lon="3.66977">
        <ele>222.6</ele>
        <time>2021-04-15T14:13:57Z</time>
      </trkpt>
      <trkpt lat="43.58175" lon="3.66977">
        <ele>228</ele>
        <time>2021-04-15T14:13:57Z</time>
      </trkpt>
      <trkpt lat="43.58174" lon="3.66974">
        <ele>222.7</ele>
        <time>2021-04-15T14:13:59Z</time>
      </trkpt>
      <trkpt lat="43.58174" lon="3.66974">
        <ele>228</ele>
        <time>2021-04-15T14:13:59Z</time>
      </trkpt>
      <trkpt lat="43.58173" lon="3.66972">
        <ele>222.7</ele>
        <time>2021-04-15T14:14:00Z</time>
      </trkpt>
      <trkpt lat="43.58173" lon="3.66972">
        <ele>228</ele>
        <time>2021-04-15T14:14:00Z</time>
      </trkpt>
      <trkpt lat="43.58172" lon="3.6697">
        <ele>222.8</ele>
        <time>2021-04-15T14:14:02Z</time>
      </trkpt>
      <trkpt lat="43.58172" lon="3.6697">
        <ele>228</ele>
        <time>2021-04-15T14:14:02Z</time>
      </trkpt>
      <trkpt lat="43.58171" lon="3.66967">
        <ele>222.9</ele>
        <time>2021-04-15T14:14:04Z</time>
      </trkpt>
      <trkpt lat="43.58171" lon="3.66967">
        <ele>228</ele>
        <time>2021-04-15T14:14:04Z</time>
      </trkpt>
      <trkpt lat="43.5817" lon="3.66965">
        <ele>222.9</ele>
        <time>2021-04-15T14:14:06Z</time>
      </trkpt>
      <trkpt lat="43.5817" lon="3.66965">
        <ele>228</ele>
        <time>2021-04-15T14:14:06Z</time>
      </trkpt>
      <trkpt lat="43.58168" lon="3.66962">
        <ele>222.9</ele>
        <time>2021-04-15T14:14:08Z</time>
      </trkpt>
      <trkpt lat="43.58168" lon="3.66962">
        <ele>228</ele>
        <time>2021-04-15T14:14:08Z</time>
      </trkpt>
      <trkpt lat="43.58167" lon="3.66959">
        <ele>222.9</ele>
        <time>2021-04-15T14:14:10Z</time>
      </trkpt>
      <trkpt lat="43.58167" lon="3.66959">
        <ele>228</ele>
        <time>2021-04-15T14:14:10Z</time>
      </trkpt>
      <trkpt lat="43.58165" lon="3.66957">
        <ele>222.9</ele>
        <time>2021-04-15T14:14:12Z</time>
      </trkpt>
      <trkpt lat="43.58165" lon="3.66957">
        <ele>228</ele>
        <time>2021-04-15T14:14:12Z</time>
      </trkpt>
      <trkpt lat="43.58163" lon="3.66954">
        <ele>222.8</ele>
        <time>2021-04-15T14:14:13Z</time>
      </trkpt>
      <trkpt lat="43.58163" lon="3.66954">
        <ele>228</ele>
        <time>2021-04-15T14:14:13Z</time>
      </trkpt>
      <trkpt lat="43.58162" lon="3.66953">
        <ele>222.7</ele>
        <time>2021-04-15T14:14:14Z</time>
      </trkpt>
      <trkpt lat="43.58162" lon="3.66953">
        <ele>228</ele>
        <time>2021-04-15T14:14:14Z</time>
      </trkpt>
      <trkpt lat="43.5816" lon="3.66951">
        <ele>222.6</ele>
        <time>2021-04-15T14:14:16Z</time>
      </trkpt>
      <trkpt lat="43.5816" lon="3.66951">
        <ele>228</ele>
        <time>2021-04-15T14:14:16Z</time>
      </trkpt>
      <trkpt lat="43.58159" lon="3.66949">
        <ele>222.6</ele>
        <time>2021-04-15T14:14:18Z</time>
      </trkpt>
      <trkpt lat="43.58159" lon="3.66949">
        <ele>228</ele>
        <time>2021-04-15T14:14:18Z</time>
      </trkpt>
      <trkpt lat="43.58157" lon="3.66947">
        <ele>222.5</ele>
        <time>2021-04-15T14:14:20Z</time>
      </trkpt>
      <trkpt lat="43.58157" lon="3.66947">
        <ele>228</ele>
        <time>2021-04-15T14:14:20Z</time>
      </trkpt>
      <trkpt lat="43.58156" lon="3.66945">
        <ele>222.4</ele>
        <time>2021-04-15T14:14:21Z</time>
      </trkpt>
      <trkpt lat="43.58156" lon="3.66945">
        <ele>228</ele>
        <time>2021-04-15T14:14:21Z</time>
      </trkpt>
      <trkpt lat="43.58154" lon="3.66943">
        <ele>222.4</ele>
        <time>2021-04-15T14:14:23Z</time>
      </trkpt>
      <trkpt lat="43.58154" lon="3.66943">
        <ele>228</ele>
        <time>2021-04-15T14:14:23Z</time>
      </trkpt>
      <trkpt lat="43.58152" lon="3.66941">
        <ele>222.4</ele>
        <time>2021-04-15T14:14:25Z</time>
      </trkpt>
      <trkpt lat="43.58152" lon="3.66941">
        <ele>228</ele>
        <time>2021-04-15T14:14:25Z</time>
      </trkpt>
      <trkpt lat="43.58151" lon="3.66938">
        <ele>222.5</ele>
        <time>2021-04-15T14:14:27Z</time>
      </trkpt>
      <trkpt lat="43.58151" lon="3.66938">
        <ele>228</ele>
        <time>2021-04-15T14:14:27Z</time>
      </trkpt>
      <trkpt lat="43.5815" lon="3.66937">
        <ele>222.5</ele>
        <time>2021-04-15T14:14:28Z</time>
      </trkpt>
      <trkpt lat="43.5815" lon="3.66937">
        <ele>228</ele>
        <time>2021-04-15T14:14:28Z</time>
      </trkpt>
      <trkpt lat="43.58149" lon="3.66935">
        <ele>222.6</ele>
        <time>2021-04-15T14:14:30Z</time>
      </trkpt>
      <trkpt lat="43.58149" lon="3.66935">
        <ele>228</ele>
        <time>2021-04-15T14:14:30Z</time>
      </trkpt>
      <trkpt lat="43.58148" lon="3.66933">
        <ele>222.7</ele>
        <time>2021-04-15T14:14:32Z</time>
      </trkpt>
      <trkpt lat="43.58148" lon="3.66933">
        <ele>228</ele>
        <time>2021-04-15T14:14:32Z</time>
      </trkpt>
      <trkpt lat="43.58146" lon="3.66931">
        <ele>222.7</ele>
        <time>2021-04-15T14:14:33Z</time>
      </trkpt>
      <trkpt lat="43.58146" lon="3.66931">
        <ele>228</ele>
        <time>2021-04-15T14:14:33Z</time>
      </trkpt>
      <trkpt lat="43.58145" lon="3.66928">
        <ele>222.7</ele>
        <time>2021-04-15T14:14:35Z</time>
      </trkpt>
      <trkpt lat="43.58145" lon="3.66928">
        <ele>228</ele>
        <time>2021-04-15T14:14:35Z</time>
      </trkpt>
      <trkpt lat="43.58143" lon="3.66926">
        <ele>222.7</ele>
        <time>2021-04-15T14:14:37Z</time>
      </trkpt>
      <trkpt lat="43.58143" lon="3.66926">
        <ele>229</ele>
        <time>2021-04-15T14:14:37Z</time>
      </trkpt>
      <trkpt lat="43.58142" lon="3.66924">
        <ele>222.7</ele>
        <time>2021-04-15T14:14:39Z</time>
      </trkpt>
      <trkpt lat="43.58142" lon="3.66924">
        <ele>229</ele>
        <time>2021-04-15T14:14:39Z</time>
      </trkpt>
      <trkpt lat="43.5814" lon="3.66922">
        <ele>222.6</ele>
        <time>2021-04-15T14:14:40Z</time>
      </trkpt>
      <trkpt lat="43.5814" lon="3.66922">
        <ele>229</ele>
        <time>2021-04-15T14:14:40Z</time>
      </trkpt>
      <trkpt lat="43.58138" lon="3.6692">
        <ele>222.6</ele>
        <time>2021-04-15T14:14:42Z</time>
      </trkpt>
      <trkpt lat="43.58138" lon="3.6692">
        <ele>229</ele>
        <time>2021-04-15T14:14:42Z</time>
      </trkpt>
      <trkpt lat="43.58137" lon="3.66918">
        <ele>222.5</ele>
        <time>2021-04-15T14:14:43Z</time>
      </trkpt>
      <trkpt lat="43.58137" lon="3.66918">
        <ele>229</ele>
        <time>2021-04-15T14:14:43Z</time>
      </trkpt>
      <trkpt lat="43.58136" lon="3.66916">
        <ele>222.5</ele>
        <time>2021-04-15T14:14:45Z</time>
      </trkpt>
      <trkpt lat="43.58136" lon="3.66916">
        <ele>229</ele>
        <time>2021-04-15T14:14:45Z</time>
      </trkpt>
      <trkpt lat="43.58134" lon="3.66914">
        <ele>222.6</ele>
        <time>2021-04-15T14:14:47Z</time>
      </trkpt>
      <trkpt lat="43.58134" lon="3.66914">
        <ele>229</ele>
        <time>2021-04-15T14:14:47Z</time>
      </trkpt>
      <trkpt lat="43.58133" lon="3.66911">
        <ele>222.8</ele>
        <time>2021-04-15T14:14:49Z</time>
      </trkpt>
      <trkpt lat="43.58133" lon="3.66911">
        <ele>229</ele>
        <time>2021-04-15T14:14:49Z</time>
      </trkpt>
      <trkpt lat="43.58132" lon="3.66909">
        <ele>222.9</ele>
        <time>2021-04-15T14:14:50Z</time>
      </trkpt>
      <trkpt lat="43.58132" lon="3.66909">
        <ele>229</ele>
        <time>2021-04-15T14:14:50Z</time>
      </trkpt>
      <trkpt lat="43.58131" lon="3.66907">
        <ele>222.9</ele>
        <time>2021-04-15T14:14:52Z</time>
      </trkpt>
      <trkpt lat="43.58131" lon="3.66907">
        <ele>229</ele>
        <time>2021-04-15T14:14:52Z</time>
      </trkpt>
      <trkpt lat="43.5813" lon="3.66905">
        <ele>223</ele>
        <time>2021-04-15T14:14:54Z</time>
      </trkpt>
      <trkpt lat="43.5813" lon="3.66905">
        <ele>229</ele>
        <time>2021-04-15T14:14:54Z</time>
      </trkpt>
      <trkpt lat="43.58129" lon="3.66904">
        <ele>223</ele>
        <time>2021-04-15T14:14:55Z</time>
      </trkpt>
      <trkpt lat="43.58129" lon="3.66904">
        <ele>229</ele>
        <time>2021-04-15T14:14:55Z</time>
      </trkpt>
      <trkpt lat="43.58128" lon="3.66902">
        <ele>223.2</ele>
        <time>2021-04-15T14:14:57Z</time>
      </trkpt>
      <trkpt lat="43.58128" lon="3.66902">
        <ele>229</ele>
        <time>2021-04-15T14:14:57Z</time>
      </trkpt>
      <trkpt lat="43.58127" lon="3.669">
        <ele>223.3</ele>
        <time>2021-04-15T14:14:58Z</time>
      </trkpt>
      <trkpt lat="43.58127" lon="3.669">
        <ele>229</ele>
        <time>2021-04-15T14:14:58Z</time>
      </trkpt>
      <trkpt lat="43.58126" lon="3.66897">
        <ele>223.4</ele>
        <time>2021-04-15T14:15:00Z</time>
      </trkpt>
      <trkpt lat="43.58126" lon="3.66897">
        <ele>229</ele>
        <time>2021-04-15T14:15:00Z</time>
      </trkpt>
      <trkpt lat="43.58124" lon="3.66894">
        <ele>223.6</ele>
        <time>2021-04-15T14:15:02Z</time>
      </trkpt>
      <trkpt lat="43.58124" lon="3.66894">
        <ele>229</ele>
        <time>2021-04-15T14:15:02Z</time>
      </trkpt>
      <trkpt lat="43.58123" lon="3.66892">
        <ele>223.8</ele>
        <time>2021-04-15T14:15:03Z</time>
      </trkpt>
      <trkpt lat="43.58123" lon="3.66892">
        <ele>229</ele>
        <time>2021-04-15T14:15:03Z</time>
      </trkpt>
      <trkpt lat="43.58122" lon="3.66889">
        <ele>223.9</ele>
        <time>2021-04-15T14:15:05Z</time>
      </trkpt>
      <trkpt lat="43.58122" lon="3.66889">
        <ele>229</ele>
        <time>2021-04-15T14:15:05Z</time>
      </trkpt>
      <trkpt lat="43.58121" lon="3.66887">
        <ele>224</ele>
        <time>2021-04-15T14:15:06Z</time>
      </trkpt>
      <trkpt lat="43.58121" lon="3.66887">
        <ele>229</ele>
        <time>2021-04-15T14:15:06Z</time>
      </trkpt>
      <trkpt lat="43.5812" lon="3.66885">
        <ele>224.1</ele>
        <time>2021-04-15T14:15:08Z</time>
      </trkpt>
      <trkpt lat="43.5812" lon="3.66885">
        <ele>229</ele>
        <time>2021-04-15T14:15:08Z</time>
      </trkpt>
      <trkpt lat="43.58119" lon="3.66884">
        <ele>224.2</ele>
        <time>2021-04-15T14:15:09Z</time>
      </trkpt>
      <trkpt lat="43.58119" lon="3.66884">
        <ele>229</ele>
        <time>2021-04-15T14:15:09Z</time>
      </trkpt>
      <trkpt lat="43.58118" lon="3.66881">
        <ele>224.3</ele>
        <time>2021-04-15T14:15:11Z</time>
      </trkpt>
      <trkpt lat="43.58118" lon="3.66881">
        <ele>229</ele>
        <time>2021-04-15T14:15:11Z</time>
      </trkpt>
      <trkpt lat="43.58117" lon="3.6688">
        <ele>224.4</ele>
        <time>2021-04-15T14:15:13Z</time>
      </trkpt>
      <trkpt lat="43.58117" lon="3.6688">
        <ele>229</ele>
        <time>2021-04-15T14:15:13Z</time>
      </trkpt>
      <trkpt lat="43.58116" lon="3.66878">
        <ele>224.5</ele>
        <time>2021-04-15T14:15:15Z</time>
      </trkpt>
      <trkpt lat="43.58116" lon="3.66878">
        <ele>229</ele>
        <time>2021-04-15T14:15:15Z</time>
      </trkpt>
      <trkpt lat="43.5811" lon="3.66869">
        <ele>224.7</ele>
        <time>2021-04-15T14:15:45Z</time>
      </trkpt>
      <trkpt lat="43.5811" lon="3.66869">
        <ele>230</ele>
        <time>2021-04-15T14:15:45Z</time>
      </trkpt>
      <trkpt lat="43.5811" lon="3.66869">
        <ele>224.7</ele>
        <time>2021-04-15T14:15:46Z</time>
      </trkpt>
      <trkpt lat="43.5811" lon="3.66869">
        <ele>230</ele>
        <time>2021-04-15T14:15:46Z</time>
      </trkpt>
      <trkpt lat="43.5811" lon="3.66868">
        <ele>224.8</ele>
        <time>2021-04-15T14:15:48Z</time>
      </trkpt>
      <trkpt lat="43.5811" lon="3.66868">
        <ele>230</ele>
        <time>2021-04-15T14:15:48Z</time>
      </trkpt>
      <trkpt lat="43.58109" lon="3.66866">
        <ele>224.9</ele>
        <time>2021-04-15T14:15:49Z</time>
      </trkpt>
      <trkpt lat="43.58109" lon="3.66866">
        <ele>230</ele>
        <time>2021-04-15T14:15:49Z</time>
      </trkpt>
      <trkpt lat="43.58108" lon="3.66864">
        <ele>224.9</ele>
        <time>2021-04-15T14:15:51Z</time>
      </trkpt>
      <trkpt lat="43.58108" lon="3.66864">
        <ele>230</ele>
        <time>2021-04-15T14:15:51Z</time>
      </trkpt>
      <trkpt lat="43.58106" lon="3.66862">
        <ele>224.9</ele>
        <time>2021-04-15T14:15:53Z</time>
      </trkpt>
      <trkpt lat="43.58106" lon="3.66862">
        <ele>230</ele>
        <time>2021-04-15T14:15:53Z</time>
      </trkpt>
      <trkpt lat="43.58104" lon="3.6686">
        <ele>225</ele>
        <time>2021-04-15T14:15:54Z</time>
      </trkpt>
      <trkpt lat="43.58104" lon="3.6686">
        <ele>230</ele>
        <time>2021-04-15T14:15:54Z</time>
      </trkpt>
      <trkpt lat="43.58103" lon="3.66858">
        <ele>225.1</ele>
        <time>2021-04-15T14:15:56Z</time>
      </trkpt>
      <trkpt lat="43.58103" lon="3.66858">
        <ele>230</ele>
        <time>2021-04-15T14:15:56Z</time>
      </trkpt>
      <trkpt lat="43.58101" lon="3.66855">
        <ele>225.2</ele>
        <time>2021-04-15T14:15:58Z</time>
      </trkpt>
      <trkpt lat="43.58101" lon="3.66855">
        <ele>230</ele>
        <time>2021-04-15T14:15:58Z</time>
      </trkpt>
      <trkpt lat="43.581" lon="3.66854">
        <ele>225.3</ele>
        <time>2021-04-15T14:15:59Z</time>
      </trkpt>
      <trkpt lat="43.581" lon="3.66854">
        <ele>230</ele>
        <time>2021-04-15T14:15:59Z</time>
      </trkpt>
      <trkpt lat="43.58099" lon="3.66852">
        <ele>225.3</ele>
        <time>2021-04-15T14:16:01Z</time>
      </trkpt>
      <trkpt lat="43.58099" lon="3.66852">
        <ele>230</ele>
        <time>2021-04-15T14:16:01Z</time>
      </trkpt>
      <trkpt lat="43.58097" lon="3.6685">
        <ele>225.3</ele>
        <time>2021-04-15T14:16:03Z</time>
      </trkpt>
      <trkpt lat="43.58097" lon="3.6685">
        <ele>231</ele>
        <time>2021-04-15T14:16:03Z</time>
      </trkpt>
      <trkpt lat="43.58096" lon="3.66849">
        <ele>225.3</ele>
        <time>2021-04-15T14:16:04Z</time>
      </trkpt>
      <trkpt lat="43.58096" lon="3.66849">
        <ele>231</ele>
        <time>2021-04-15T14:16:04Z</time>
      </trkpt>
      <trkpt lat="43.58095" lon="3.66848">
        <ele>225.2</ele>
        <time>2021-04-15T14:16:05Z</time>
      </trkpt>
      <trkpt lat="43.58095" lon="3.66848">
        <ele>231</ele>
        <time>2021-04-15T14:16:05Z</time>
      </trkpt>
      <trkpt lat="43.58094" lon="3.66847">
        <ele>225.2</ele>
        <time>2021-04-15T14:16:06Z</time>
      </trkpt>
      <trkpt lat="43.58094" lon="3.66847">
        <ele>231</ele>
        <time>2021-04-15T14:16:06Z</time>
      </trkpt>
      <trkpt lat="43.58093" lon="3.66845">
        <ele>225.2</ele>
        <time>2021-04-15T14:16:08Z</time>
      </trkpt>
      <trkpt lat="43.58093" lon="3.66845">
        <ele>231</ele>
        <time>2021-04-15T14:16:08Z</time>
      </trkpt>
      <trkpt lat="43.58091" lon="3.66843">
        <ele>225.1</ele>
        <time>2021-04-15T14:16:10Z</time>
      </trkpt>
      <trkpt lat="43.58091" lon="3.66843">
        <ele>231</ele>
        <time>2021-04-15T14:16:10Z</time>
      </trkpt>
      <trkpt lat="43.58089" lon="3.66841">
        <ele>225.1</ele>
        <time>2021-04-15T14:16:12Z</time>
      </trkpt>
      <trkpt lat="43.58089" lon="3.66841">
        <ele>231</ele>
        <time>2021-04-15T14:16:12Z</time>
      </trkpt>
      <trkpt lat="43.58087" lon="3.66839">
        <ele>225</ele>
        <time>2021-04-15T14:16:14Z</time>
      </trkpt>
      <trkpt lat="43.58087" lon="3.66839">
        <ele>231</ele>
        <time>2021-04-15T14:16:14Z</time>
      </trkpt>
      <trkpt lat="43.58085" lon="3.66836">
        <ele>225</ele>
        <time>2021-04-15T14:16:16Z</time>
      </trkpt>
      <trkpt lat="43.58085" lon="3.66836">
        <ele>231</ele>
        <time>2021-04-15T14:16:16Z</time>
      </trkpt>
      <trkpt lat="43.58084" lon="3.66834">
        <ele>225</ele>
        <time>2021-04-15T14:16:17Z</time>
      </trkpt>
      <trkpt lat="43.58084" lon="3.66834">
        <ele>231</ele>
        <time>2021-04-15T14:16:17Z</time>
      </trkpt>
      <trkpt lat="43.58082" lon="3.66831">
        <ele>225.1</ele>
        <time>2021-04-15T14:16:19Z</time>
      </trkpt>
      <trkpt lat="43.58082" lon="3.66831">
        <ele>231</ele>
        <time>2021-04-15T14:16:19Z</time>
      </trkpt>
      <trkpt lat="43.5808" lon="3.66829">
        <ele>225.2</ele>
        <time>2021-04-15T14:16:21Z</time>
      </trkpt>
      <trkpt lat="43.5808" lon="3.66829">
        <ele>232</ele>
        <time>2021-04-15T14:16:21Z</time>
      </trkpt>
      <trkpt lat="43.58079" lon="3.66827">
        <ele>225.3</ele>
        <time>2021-04-15T14:16:22Z</time>
      </trkpt>
      <trkpt lat="43.58079" lon="3.66827">
        <ele>232</ele>
        <time>2021-04-15T14:16:22Z</time>
      </trkpt>
      <trkpt lat="43.58078" lon="3.66825">
        <ele>225.4</ele>
        <time>2021-04-15T14:16:23Z</time>
      </trkpt>
      <trkpt lat="43.58078" lon="3.66825">
        <ele>232</ele>
        <time>2021-04-15T14:16:23Z</time>
      </trkpt>
      <trkpt lat="43.58077" lon="3.66823">
        <ele>225.6</ele>
        <time>2021-04-15T14:16:25Z</time>
      </trkpt>
      <trkpt lat="43.58077" lon="3.66823">
        <ele>232</ele>
        <time>2021-04-15T14:16:25Z</time>
      </trkpt>
      <trkpt lat="43.58076" lon="3.66821">
        <ele>225.8</ele>
        <time>2021-04-15T14:16:27Z</time>
      </trkpt>
      <trkpt lat="43.58076" lon="3.66821">
        <ele>232</ele>
        <time>2021-04-15T14:16:27Z</time>
      </trkpt>
      <trkpt lat="43.58074" lon="3.66819">
        <ele>225.9</ele>
        <time>2021-04-15T14:16:29Z</time>
      </trkpt>
      <trkpt lat="43.58074" lon="3.66819">
        <ele>232</ele>
        <time>2021-04-15T14:16:29Z</time>
      </trkpt>
      <trkpt lat="43.58073" lon="3.66817">
        <ele>226.1</ele>
        <time>2021-04-15T14:16:30Z</time>
      </trkpt>
      <trkpt lat="43.58073" lon="3.66817">
        <ele>232</ele>
        <time>2021-04-15T14:16:30Z</time>
      </trkpt>
      <trkpt lat="43.58073" lon="3.66816">
        <ele>226.2</ele>
        <time>2021-04-15T14:16:31Z</time>
      </trkpt>
      <trkpt lat="43.58073" lon="3.66816">
        <ele>232</ele>
        <time>2021-04-15T14:16:31Z</time>
      </trkpt>
      <trkpt lat="43.58072" lon="3.66815">
        <ele>226.3</ele>
        <time>2021-04-15T14:16:32Z</time>
      </trkpt>
      <trkpt lat="43.58072" lon="3.66815">
        <ele>232</ele>
        <time>2021-04-15T14:16:32Z</time>
      </trkpt>
      <trkpt lat="43.58071" lon="3.66813">
        <ele>226.4</ele>
        <time>2021-04-15T14:16:34Z</time>
      </trkpt>
      <trkpt lat="43.58071" lon="3.66813">
        <ele>232</ele>
        <time>2021-04-15T14:16:34Z</time>
      </trkpt>
      <trkpt lat="43.58069" lon="3.66811">
        <ele>226.5</ele>
        <time>2021-04-15T14:16:35Z</time>
      </trkpt>
      <trkpt lat="43.58069" lon="3.66811">
        <ele>232</ele>
        <time>2021-04-15T14:16:35Z</time>
      </trkpt>
      <trkpt lat="43.58068" lon="3.6681">
        <ele>226.5</ele>
        <time>2021-04-15T14:16:37Z</time>
      </trkpt>
      <trkpt lat="43.58068" lon="3.6681">
        <ele>232</ele>
        <time>2021-04-15T14:16:37Z</time>
      </trkpt>
      <trkpt lat="43.58067" lon="3.66808">
        <ele>226.5</ele>
        <time>2021-04-15T14:16:38Z</time>
      </trkpt>
      <trkpt lat="43.58067" lon="3.66808">
        <ele>232</ele>
        <time>2021-04-15T14:16:38Z</time>
      </trkpt>
      <trkpt lat="43.58065" lon="3.66806">
        <ele>226.6</ele>
        <time>2021-04-15T14:16:40Z</time>
      </trkpt>
      <trkpt lat="43.58065" lon="3.66806">
        <ele>232</ele>
        <time>2021-04-15T14:16:40Z</time>
      </trkpt>
      <trkpt lat="43.58064" lon="3.66805">
        <ele>226.6</ele>
        <time>2021-04-15T14:16:41Z</time>
      </trkpt>
      <trkpt lat="43.58064" lon="3.66805">
        <ele>233</ele>
        <time>2021-04-15T14:16:41Z</time>
      </trkpt>
      <trkpt lat="43.58063" lon="3.66804">
        <ele>226.6</ele>
        <time>2021-04-15T14:16:42Z</time>
      </trkpt>
      <trkpt lat="43.58063" lon="3.66804">
        <ele>233</ele>
        <time>2021-04-15T14:16:42Z</time>
      </trkpt>
      <trkpt lat="43.58062" lon="3.66802">
        <ele>226.7</ele>
        <time>2021-04-15T14:16:44Z</time>
      </trkpt>
      <trkpt lat="43.58062" lon="3.66802">
        <ele>233</ele>
        <time>2021-04-15T14:16:44Z</time>
      </trkpt>
      <trkpt lat="43.58061" lon="3.66801">
        <ele>226.7</ele>
        <time>2021-04-15T14:16:45Z</time>
      </trkpt>
      <trkpt lat="43.58061" lon="3.66801">
        <ele>233</ele>
        <time>2021-04-15T14:16:45Z</time>
      </trkpt>
      <trkpt lat="43.5806" lon="3.66799">
        <ele>226.7</ele>
        <time>2021-04-15T14:16:47Z</time>
      </trkpt>
      <trkpt lat="43.5806" lon="3.66799">
        <ele>233</ele>
        <time>2021-04-15T14:16:47Z</time>
      </trkpt>
      <trkpt lat="43.58059" lon="3.66798">
        <ele>226.7</ele>
        <time>2021-04-15T14:16:48Z</time>
      </trkpt>
      <trkpt lat="43.58059" lon="3.66798">
        <ele>233</ele>
        <time>2021-04-15T14:16:48Z</time>
      </trkpt>
      <trkpt lat="43.58057" lon="3.66796">
        <ele>226.7</ele>
        <time>2021-04-15T14:16:50Z</time>
      </trkpt>
      <trkpt lat="43.58057" lon="3.66796">
        <ele>233</ele>
        <time>2021-04-15T14:16:50Z</time>
      </trkpt>
      <trkpt lat="43.58055" lon="3.66794">
        <ele>226.6</ele>
        <time>2021-04-15T14:16:52Z</time>
      </trkpt>
      <trkpt lat="43.58055" lon="3.66794">
        <ele>233</ele>
        <time>2021-04-15T14:16:52Z</time>
      </trkpt>
      <trkpt lat="43.58054" lon="3.66793">
        <ele>226.5</ele>
        <time>2021-04-15T14:16:53Z</time>
      </trkpt>
      <trkpt lat="43.58054" lon="3.66793">
        <ele>233</ele>
        <time>2021-04-15T14:16:53Z</time>
      </trkpt>
      <trkpt lat="43.58052" lon="3.66791">
        <ele>226.3</ele>
        <time>2021-04-15T14:16:55Z</time>
      </trkpt>
      <trkpt lat="43.58052" lon="3.66791">
        <ele>234</ele>
        <time>2021-04-15T14:16:55Z</time>
      </trkpt>
      <trkpt lat="43.58051" lon="3.6679">
        <ele>226.1</ele>
        <time>2021-04-15T14:16:56Z</time>
      </trkpt>
      <trkpt lat="43.58051" lon="3.6679">
        <ele>234</ele>
        <time>2021-04-15T14:16:56Z</time>
      </trkpt>
      <trkpt lat="43.58049" lon="3.66789">
        <ele>226</ele>
        <time>2021-04-15T14:16:58Z</time>
      </trkpt>
      <trkpt lat="43.58049" lon="3.66789">
        <ele>234</ele>
        <time>2021-04-15T14:16:58Z</time>
      </trkpt>
      <trkpt lat="43.58048" lon="3.66787">
        <ele>226</ele>
        <time>2021-04-15T14:16:59Z</time>
      </trkpt>
      <trkpt lat="43.58048" lon="3.66787">
        <ele>234</ele>
        <time>2021-04-15T14:16:59Z</time>
      </trkpt>
      <trkpt lat="43.58047" lon="3.66786">
        <ele>226</ele>
        <time>2021-04-15T14:17:01Z</time>
      </trkpt>
      <trkpt lat="43.58047" lon="3.66786">
        <ele>234</ele>
        <time>2021-04-15T14:17:01Z</time>
      </trkpt>
      <trkpt lat="43.58047" lon="3.66786">
        <ele>226</ele>
        <time>2021-04-15T14:17:02Z</time>
      </trkpt>
      <trkpt lat="43.58047" lon="3.66786">
        <ele>234</ele>
        <time>2021-04-15T14:17:02Z</time>
      </trkpt>
      <trkpt lat="43.58047" lon="3.66785">
        <ele>225.9</ele>
        <time>2021-04-15T14:17:04Z</time>
      </trkpt>
      <trkpt lat="43.58047" lon="3.66785">
        <ele>234</ele>
        <time>2021-04-15T14:17:04Z</time>
      </trkpt>
      <trkpt lat="43.58045" lon="3.66779">
        <ele>226.5</ele>
        <time>2021-04-15T14:17:15Z</time>
      </trkpt>
      <trkpt lat="43.58045" lon="3.66779">
        <ele>234</ele>
        <time>2021-04-15T14:17:15Z</time>
      </trkpt>
      <trkpt lat="43.58044" lon="3.66778">
        <ele>226.4</ele>
        <time>2021-04-15T14:17:17Z</time>
      </trkpt>
      <trkpt lat="43.58044" lon="3.66778">
        <ele>234</ele>
        <time>2021-04-15T14:17:17Z</time>
      </trkpt>
      <trkpt lat="43.58042" lon="3.66777">
        <ele>226.3</ele>
        <time>2021-04-15T14:17:19Z</time>
      </trkpt>
      <trkpt lat="43.58042" lon="3.66777">
        <ele>234</ele>
        <time>2021-04-15T14:17:19Z</time>
      </trkpt>
      <trkpt lat="43.58041" lon="3.66776">
        <ele>226.1</ele>
        <time>2021-04-15T14:17:21Z</time>
      </trkpt>
      <trkpt lat="43.58041" lon="3.66776">
        <ele>234</ele>
        <time>2021-04-15T14:17:21Z</time>
      </trkpt>
      <trkpt lat="43.58039" lon="3.66774">
        <ele>226</ele>
        <time>2021-04-15T14:17:22Z</time>
      </trkpt>
      <trkpt lat="43.58039" lon="3.66774">
        <ele>234</ele>
        <time>2021-04-15T14:17:22Z</time>
      </trkpt>
      <trkpt lat="43.58037" lon="3.66773">
        <ele>225.8</ele>
        <time>2021-04-15T14:17:24Z</time>
      </trkpt>
      <trkpt lat="43.58037" lon="3.66773">
        <ele>234</ele>
        <time>2021-04-15T14:17:24Z</time>
      </trkpt>
      <trkpt lat="43.58035" lon="3.66771">
        <ele>225.6</ele>
        <time>2021-04-15T14:17:25Z</time>
      </trkpt>
      <trkpt lat="43.58035" lon="3.66771">
        <ele>234</ele>
        <time>2021-04-15T14:17:25Z</time>
      </trkpt>
      <trkpt lat="43.58034" lon="3.6677">
        <ele>225.5</ele>
        <time>2021-04-15T14:17:27Z</time>
      </trkpt>
      <trkpt lat="43.58034" lon="3.6677">
        <ele>234</ele>
        <time>2021-04-15T14:17:27Z</time>
      </trkpt>
      <trkpt lat="43.58028" lon="3.66764">
        <ele>225.1</ele>
        <time>2021-04-15T14:17:36Z</time>
      </trkpt>
      <trkpt lat="43.58028" lon="3.66764">
        <ele>234</ele>
        <time>2021-04-15T14:17:36Z</time>
      </trkpt>
      <trkpt lat="43.58028" lon="3.66764">
        <ele>225.1</ele>
        <time>2021-04-15T14:17:38Z</time>
      </trkpt>
      <trkpt lat="43.58028" lon="3.66764">
        <ele>234</ele>
        <time>2021-04-15T14:17:38Z</time>
      </trkpt>
      <trkpt lat="43.58027" lon="3.66763">
        <ele>224.9</ele>
        <time>2021-04-15T14:17:39Z</time>
      </trkpt>
      <trkpt lat="43.58027" lon="3.66763">
        <ele>234</ele>
        <time>2021-04-15T14:17:39Z</time>
      </trkpt>
      <trkpt lat="43.58026" lon="3.66762">
        <ele>224.7</ele>
        <time>2021-04-15T14:17:41Z</time>
      </trkpt>
      <trkpt lat="43.58026" lon="3.66762">
        <ele>234</ele>
        <time>2021-04-15T14:17:41Z</time>
      </trkpt>
      <trkpt lat="43.58024" lon="3.6676">
        <ele>224.6</ele>
        <time>2021-04-15T14:17:43Z</time>
      </trkpt>
      <trkpt lat="43.58024" lon="3.6676">
        <ele>234</ele>
        <time>2021-04-15T14:17:43Z</time>
      </trkpt>
      <trkpt lat="43.58023" lon="3.66758">
        <ele>224.5</ele>
        <time>2021-04-15T14:17:44Z</time>
      </trkpt>
      <trkpt lat="43.58023" lon="3.66758">
        <ele>234</ele>
        <time>2021-04-15T14:17:44Z</time>
      </trkpt>
      <trkpt lat="43.58022" lon="3.66756">
        <ele>224.4</ele>
        <time>2021-04-15T14:17:46Z</time>
      </trkpt>
      <trkpt lat="43.58022" lon="3.66756">
        <ele>234</ele>
        <time>2021-04-15T14:17:46Z</time>
      </trkpt>
      <trkpt lat="43.5802" lon="3.66754">
        <ele>224.3</ele>
        <time>2021-04-15T14:17:48Z</time>
      </trkpt>
      <trkpt lat="43.5802" lon="3.66754">
        <ele>234</ele>
        <time>2021-04-15T14:17:48Z</time>
      </trkpt>
      <trkpt lat="43.58019" lon="3.66753">
        <ele>224.2</ele>
        <time>2021-04-15T14:17:49Z</time>
      </trkpt>
      <trkpt lat="43.58019" lon="3.66753">
        <ele>234</ele>
        <time>2021-04-15T14:17:49Z</time>
      </trkpt>
      <trkpt lat="43.58018" lon="3.66751">
        <ele>224</ele>
        <time>2021-04-15T14:17:50Z</time>
      </trkpt>
      <trkpt lat="43.58018" lon="3.66751">
        <ele>234</ele>
        <time>2021-04-15T14:17:50Z</time>
      </trkpt>
      <trkpt lat="43.58017" lon="3.6675">
        <ele>224</ele>
        <time>2021-04-15T14:17:51Z</time>
      </trkpt>
      <trkpt lat="43.58017" lon="3.6675">
        <ele>234</ele>
        <time>2021-04-15T14:17:51Z</time>
      </trkpt>
      <trkpt lat="43.58016" lon="3.66748">
        <ele>223.9</ele>
        <time>2021-04-15T14:17:53Z</time>
      </trkpt>
      <trkpt lat="43.58016" lon="3.66748">
        <ele>232</ele>
        <time>2021-04-15T14:17:53Z</time>
      </trkpt>
      <trkpt lat="43.58015" lon="3.66747">
        <ele>223.7</ele>
        <time>2021-04-15T14:17:55Z</time>
      </trkpt>
      <trkpt lat="43.58015" lon="3.66747">
        <ele>232</ele>
        <time>2021-04-15T14:17:55Z</time>
      </trkpt>
      <trkpt lat="43.58013" lon="3.66745">
        <ele>223.6</ele>
        <time>2021-04-15T14:17:56Z</time>
      </trkpt>
      <trkpt lat="43.58013" lon="3.66745">
        <ele>232</ele>
        <time>2021-04-15T14:17:56Z</time>
      </trkpt>
      <trkpt lat="43.58012" lon="3.66744">
        <ele>223.5</ele>
        <time>2021-04-15T14:17:57Z</time>
      </trkpt>
      <trkpt lat="43.58012" lon="3.66744">
        <ele>232</ele>
        <time>2021-04-15T14:17:57Z</time>
      </trkpt>
      <trkpt lat="43.58011" lon="3.66742">
        <ele>223.4</ele>
        <time>2021-04-15T14:17:59Z</time>
      </trkpt>
      <trkpt lat="43.58011" lon="3.66742">
        <ele>232</ele>
        <time>2021-04-15T14:17:59Z</time>
      </trkpt>
      <trkpt lat="43.5801" lon="3.66739">
        <ele>223.3</ele>
        <time>2021-04-15T14:18:01Z</time>
      </trkpt>
      <trkpt lat="43.5801" lon="3.66739">
        <ele>232</ele>
        <time>2021-04-15T14:18:01Z</time>
      </trkpt>
      <trkpt lat="43.58008" lon="3.66738">
        <ele>223.1</ele>
        <time>2021-04-15T14:18:03Z</time>
      </trkpt>
      <trkpt lat="43.58008" lon="3.66738">
        <ele>231</ele>
        <time>2021-04-15T14:18:03Z</time>
      </trkpt>
      <trkpt lat="43.58007" lon="3.66736">
        <ele>223</ele>
        <time>2021-04-15T14:18:04Z</time>
      </trkpt>
      <trkpt lat="43.58007" lon="3.66736">
        <ele>231</ele>
        <time>2021-04-15T14:18:04Z</time>
      </trkpt>
      <trkpt lat="43.58005" lon="3.66733">
        <ele>222.8</ele>
        <time>2021-04-15T14:18:06Z</time>
      </trkpt>
      <trkpt lat="43.58005" lon="3.66733">
        <ele>231</ele>
        <time>2021-04-15T14:18:06Z</time>
      </trkpt>
      <trkpt lat="43.58003" lon="3.66731">
        <ele>222.6</ele>
        <time>2021-04-15T14:18:07Z</time>
      </trkpt>
      <trkpt lat="43.58003" lon="3.66731">
        <ele>231</ele>
        <time>2021-04-15T14:18:07Z</time>
      </trkpt>
      <trkpt lat="43.58002" lon="3.66729">
        <ele>222.5</ele>
        <time>2021-04-15T14:18:08Z</time>
      </trkpt>
      <trkpt lat="43.58002" lon="3.66729">
        <ele>231</ele>
        <time>2021-04-15T14:18:08Z</time>
      </trkpt>
      <trkpt lat="43.58001" lon="3.66727">
        <ele>222.5</ele>
        <time>2021-04-15T14:18:10Z</time>
      </trkpt>
      <trkpt lat="43.58001" lon="3.66727">
        <ele>231</ele>
        <time>2021-04-15T14:18:10Z</time>
      </trkpt>
      <trkpt lat="43.58" lon="3.66725">
        <ele>222.5</ele>
        <time>2021-04-15T14:18:11Z</time>
      </trkpt>
      <trkpt lat="43.58" lon="3.66725">
        <ele>231</ele>
        <time>2021-04-15T14:18:11Z</time>
      </trkpt>
      <trkpt lat="43.57999" lon="3.66723">
        <ele>222.6</ele>
        <time>2021-04-15T14:18:13Z</time>
      </trkpt>
      <trkpt lat="43.57999" lon="3.66723">
        <ele>231</ele>
        <time>2021-04-15T14:18:13Z</time>
      </trkpt>
      <trkpt lat="43.57997" lon="3.6672">
        <ele>222.7</ele>
        <time>2021-04-15T14:18:14Z</time>
      </trkpt>
      <trkpt lat="43.57997" lon="3.6672">
        <ele>231</ele>
        <time>2021-04-15T14:18:14Z</time>
      </trkpt>
      <trkpt lat="43.57997" lon="3.66718">
        <ele>222.7</ele>
        <time>2021-04-15T14:18:15Z</time>
      </trkpt>
      <trkpt lat="43.57997" lon="3.66718">
        <ele>231</ele>
        <time>2021-04-15T14:18:15Z</time>
      </trkpt>
      <trkpt lat="43.57995" lon="3.66716">
        <ele>222.6</ele>
        <time>2021-04-15T14:18:17Z</time>
      </trkpt>
      <trkpt lat="43.57995" lon="3.66716">
        <ele>231</ele>
        <time>2021-04-15T14:18:17Z</time>
      </trkpt>
      <trkpt lat="43.57994" lon="3.66714">
        <ele>222.6</ele>
        <time>2021-04-15T14:18:18Z</time>
      </trkpt>
      <trkpt lat="43.57994" lon="3.66714">
        <ele>231</ele>
        <time>2021-04-15T14:18:18Z</time>
      </trkpt>
      <trkpt lat="43.57993" lon="3.66712">
        <ele>222.5</ele>
        <time>2021-04-15T14:18:20Z</time>
      </trkpt>
      <trkpt lat="43.57993" lon="3.66712">
        <ele>230</ele>
        <time>2021-04-15T14:18:20Z</time>
      </trkpt>
      <trkpt lat="43.57992" lon="3.66709">
        <ele>222.5</ele>
        <time>2021-04-15T14:18:22Z</time>
      </trkpt>
      <trkpt lat="43.57992" lon="3.66709">
        <ele>230</ele>
        <time>2021-04-15T14:18:22Z</time>
      </trkpt>
      <trkpt lat="43.57991" lon="3.66707">
        <ele>222.4</ele>
        <time>2021-04-15T14:18:24Z</time>
      </trkpt>
      <trkpt lat="43.57991" lon="3.66707">
        <ele>230</ele>
        <time>2021-04-15T14:18:24Z</time>
      </trkpt>
      <trkpt lat="43.5799" lon="3.66704">
        <ele>222.3</ele>
        <time>2021-04-15T14:18:25Z</time>
      </trkpt>
      <trkpt lat="43.5799" lon="3.66704">
        <ele>230</ele>
        <time>2021-04-15T14:18:25Z</time>
      </trkpt>
      <trkpt lat="43.57989" lon="3.66702">
        <ele>222.3</ele>
        <time>2021-04-15T14:18:27Z</time>
      </trkpt>
      <trkpt lat="43.57989" lon="3.66702">
        <ele>230</ele>
        <time>2021-04-15T14:18:27Z</time>
      </trkpt>
      <trkpt lat="43.57988" lon="3.667">
        <ele>222.2</ele>
        <time>2021-04-15T14:18:28Z</time>
      </trkpt>
      <trkpt lat="43.57988" lon="3.667">
        <ele>230</ele>
        <time>2021-04-15T14:18:28Z</time>
      </trkpt>
      <trkpt lat="43.57988" lon="3.66698">
        <ele>222.1</ele>
        <time>2021-04-15T14:18:29Z</time>
      </trkpt>
      <trkpt lat="43.57988" lon="3.66698">
        <ele>230</ele>
        <time>2021-04-15T14:18:29Z</time>
      </trkpt>
      <trkpt lat="43.57987" lon="3.66696">
        <ele>222.1</ele>
        <time>2021-04-15T14:18:31Z</time>
      </trkpt>
      <trkpt lat="43.57987" lon="3.66696">
        <ele>230</ele>
        <time>2021-04-15T14:18:31Z</time>
      </trkpt>
      <trkpt lat="43.57986" lon="3.66693">
        <ele>222.1</ele>
        <time>2021-04-15T14:18:33Z</time>
      </trkpt>
      <trkpt lat="43.57986" lon="3.66693">
        <ele>230</ele>
        <time>2021-04-15T14:18:33Z</time>
      </trkpt>
      <trkpt lat="43.57985" lon="3.66691">
        <ele>222.1</ele>
        <time>2021-04-15T14:18:34Z</time>
      </trkpt>
      <trkpt lat="43.57985" lon="3.66691">
        <ele>230</ele>
        <time>2021-04-15T14:18:34Z</time>
      </trkpt>
      <trkpt lat="43.57984" lon="3.66688">
        <ele>222.1</ele>
        <time>2021-04-15T14:18:36Z</time>
      </trkpt>
      <trkpt lat="43.57984" lon="3.66688">
        <ele>230</ele>
        <time>2021-04-15T14:18:36Z</time>
      </trkpt>
      <trkpt lat="43.57983" lon="3.66686">
        <ele>222.1</ele>
        <time>2021-04-15T14:18:37Z</time>
      </trkpt>
      <trkpt lat="43.57983" lon="3.66686">
        <ele>230</ele>
        <time>2021-04-15T14:18:37Z</time>
      </trkpt>
      <trkpt lat="43.57982" lon="3.66683">
        <ele>222.1</ele>
        <time>2021-04-15T14:18:39Z</time>
      </trkpt>
      <trkpt lat="43.57982" lon="3.66683">
        <ele>229</ele>
        <time>2021-04-15T14:18:39Z</time>
      </trkpt>
      <trkpt lat="43.57981" lon="3.66681">
        <ele>222.1</ele>
        <time>2021-04-15T14:18:40Z</time>
      </trkpt>
      <trkpt lat="43.57981" lon="3.66681">
        <ele>229</ele>
        <time>2021-04-15T14:18:40Z</time>
      </trkpt>
      <trkpt lat="43.5798" lon="3.66679">
        <ele>222.1</ele>
        <time>2021-04-15T14:18:41Z</time>
      </trkpt>
      <trkpt lat="43.5798" lon="3.66679">
        <ele>229</ele>
        <time>2021-04-15T14:18:41Z</time>
      </trkpt>
      <trkpt lat="43.57979" lon="3.66677">
        <ele>222.1</ele>
        <time>2021-04-15T14:18:43Z</time>
      </trkpt>
      <trkpt lat="43.57979" lon="3.66677">
        <ele>229</ele>
        <time>2021-04-15T14:18:43Z</time>
      </trkpt>
      <trkpt lat="43.57979" lon="3.66675">
        <ele>222.1</ele>
        <time>2021-04-15T14:18:44Z</time>
      </trkpt>
      <trkpt lat="43.57979" lon="3.66675">
        <ele>229</ele>
        <time>2021-04-15T14:18:44Z</time>
      </trkpt>
      <trkpt lat="43.57978" lon="3.66672">
        <ele>222.1</ele>
        <time>2021-04-15T14:18:46Z</time>
      </trkpt>
      <trkpt lat="43.57978" lon="3.66672">
        <ele>229</ele>
        <time>2021-04-15T14:18:46Z</time>
      </trkpt>
      <trkpt lat="43.57977" lon="3.6667">
        <ele>222.1</ele>
        <time>2021-04-15T14:18:48Z</time>
      </trkpt>
      <trkpt lat="43.57977" lon="3.6667">
        <ele>229</ele>
        <time>2021-04-15T14:18:48Z</time>
      </trkpt>
      <trkpt lat="43.57975" lon="3.66667">
        <ele>222</ele>
        <time>2021-04-15T14:18:50Z</time>
      </trkpt>
      <trkpt lat="43.57975" lon="3.66667">
        <ele>229</ele>
        <time>2021-04-15T14:18:50Z</time>
      </trkpt>
      <trkpt lat="43.57974" lon="3.66665">
        <ele>221.9</ele>
        <time>2021-04-15T14:18:52Z</time>
      </trkpt>
      <trkpt lat="43.57974" lon="3.66665">
        <ele>229</ele>
        <time>2021-04-15T14:18:52Z</time>
      </trkpt>
      <trkpt lat="43.57973" lon="3.66663">
        <ele>221.7</ele>
        <time>2021-04-15T14:18:53Z</time>
      </trkpt>
      <trkpt lat="43.57973" lon="3.66663">
        <ele>229</ele>
        <time>2021-04-15T14:18:53Z</time>
      </trkpt>
      <trkpt lat="43.57972" lon="3.66661">
        <ele>221.7</ele>
        <time>2021-04-15T14:18:54Z</time>
      </trkpt>
      <trkpt lat="43.57972" lon="3.66661">
        <ele>229</ele>
        <time>2021-04-15T14:18:54Z</time>
      </trkpt>
      <trkpt lat="43.57971" lon="3.66659">
        <ele>221.8</ele>
        <time>2021-04-15T14:18:55Z</time>
      </trkpt>
      <trkpt lat="43.57971" lon="3.66659">
        <ele>228</ele>
        <time>2021-04-15T14:18:55Z</time>
      </trkpt>
      <trkpt lat="43.5797" lon="3.66657">
        <ele>221.9</ele>
        <time>2021-04-15T14:18:57Z</time>
      </trkpt>
      <trkpt lat="43.5797" lon="3.66657">
        <ele>228</ele>
        <time>2021-04-15T14:18:57Z</time>
      </trkpt>
      <trkpt lat="43.57969" lon="3.66655">
        <ele>222</ele>
        <time>2021-04-15T14:18:59Z</time>
      </trkpt>
      <trkpt lat="43.57969" lon="3.66655">
        <ele>228</ele>
        <time>2021-04-15T14:18:59Z</time>
      </trkpt>
      <trkpt lat="43.57968" lon="3.66654">
        <ele>222.1</ele>
        <time>2021-04-15T14:19:00Z</time>
      </trkpt>
      <trkpt lat="43.57968" lon="3.66654">
        <ele>228</ele>
        <time>2021-04-15T14:19:00Z</time>
      </trkpt>
      <trkpt lat="43.57966" lon="3.66652">
        <ele>222.1</ele>
        <time>2021-04-15T14:19:02Z</time>
      </trkpt>
      <trkpt lat="43.57966" lon="3.66652">
        <ele>228</ele>
        <time>2021-04-15T14:19:02Z</time>
      </trkpt>
      <trkpt lat="43.57965" lon="3.66651">
        <ele>222.1</ele>
        <time>2021-04-15T14:19:03Z</time>
      </trkpt>
      <trkpt lat="43.57965" lon="3.66651">
        <ele>228</ele>
        <time>2021-04-15T14:19:03Z</time>
      </trkpt>
      <trkpt lat="43.57963" lon="3.66649">
        <ele>222.2</ele>
        <time>2021-04-15T14:19:05Z</time>
      </trkpt>
      <trkpt lat="43.57963" lon="3.66649">
        <ele>228</ele>
        <time>2021-04-15T14:19:05Z</time>
      </trkpt>
      <trkpt lat="43.57962" lon="3.66647">
        <ele>222.2</ele>
        <time>2021-04-15T14:19:07Z</time>
      </trkpt>
      <trkpt lat="43.57962" lon="3.66647">
        <ele>228</ele>
        <time>2021-04-15T14:19:07Z</time>
      </trkpt>
      <trkpt lat="43.5796" lon="3.66645">
        <ele>222.3</ele>
        <time>2021-04-15T14:19:09Z</time>
      </trkpt>
      <trkpt lat="43.5796" lon="3.66645">
        <ele>228</ele>
        <time>2021-04-15T14:19:09Z</time>
      </trkpt>
      <trkpt lat="43.57959" lon="3.66643">
        <ele>222.3</ele>
        <time>2021-04-15T14:19:10Z</time>
      </trkpt>
      <trkpt lat="43.57959" lon="3.66643">
        <ele>228</ele>
        <time>2021-04-15T14:19:10Z</time>
      </trkpt>
      <trkpt lat="43.57958" lon="3.66641">
        <ele>222.3</ele>
        <time>2021-04-15T14:19:11Z</time>
      </trkpt>
      <trkpt lat="43.57958" lon="3.66641">
        <ele>228</ele>
        <time>2021-04-15T14:19:11Z</time>
      </trkpt>
      <trkpt lat="43.57956" lon="3.66638">
        <ele>222.3</ele>
        <time>2021-04-15T14:19:13Z</time>
      </trkpt>
      <trkpt lat="43.57956" lon="3.66638">
        <ele>228</ele>
        <time>2021-04-15T14:19:13Z</time>
      </trkpt>
      <trkpt lat="43.57955" lon="3.66636">
        <ele>222.4</ele>
        <time>2021-04-15T14:19:15Z</time>
      </trkpt>
      <trkpt lat="43.57955" lon="3.66636">
        <ele>228</ele>
        <time>2021-04-15T14:19:15Z</time>
      </trkpt>
      <trkpt lat="43.57954" lon="3.66634">
        <ele>222.5</ele>
        <time>2021-04-15T14:19:17Z</time>
      </trkpt>
      <trkpt lat="43.57954" lon="3.66634">
        <ele>228</ele>
        <time>2021-04-15T14:19:17Z</time>
      </trkpt>
      <trkpt lat="43.57953" lon="3.66631">
        <ele>222.6</ele>
        <time>2021-04-15T14:19:19Z</time>
      </trkpt>
      <trkpt lat="43.57953" lon="3.66631">
        <ele>228</ele>
        <time>2021-04-15T14:19:19Z</time>
      </trkpt>
      <trkpt lat="43.57952" lon="3.66628">
        <ele>222.6</ele>
        <time>2021-04-15T14:19:21Z</time>
      </trkpt>
      <trkpt lat="43.57952" lon="3.66628">
        <ele>228</ele>
        <time>2021-04-15T14:19:21Z</time>
      </trkpt>
      <trkpt lat="43.57951" lon="3.66625">
        <ele>222.6</ele>
        <time>2021-04-15T14:19:23Z</time>
      </trkpt>
      <trkpt lat="43.57951" lon="3.66625">
        <ele>228</ele>
        <time>2021-04-15T14:19:23Z</time>
      </trkpt>
      <trkpt lat="43.5795" lon="3.66623">
        <ele>222.6</ele>
        <time>2021-04-15T14:19:25Z</time>
      </trkpt>
      <trkpt lat="43.5795" lon="3.66623">
        <ele>228</ele>
        <time>2021-04-15T14:19:25Z</time>
      </trkpt>
      <trkpt lat="43.57949" lon="3.6662">
        <ele>222.5</ele>
        <time>2021-04-15T14:19:27Z</time>
      </trkpt>
      <trkpt lat="43.57949" lon="3.6662">
        <ele>228</ele>
        <time>2021-04-15T14:19:27Z</time>
      </trkpt>
      <trkpt lat="43.57947" lon="3.66618">
        <ele>222.3</ele>
        <time>2021-04-15T14:19:29Z</time>
      </trkpt>
      <trkpt lat="43.57947" lon="3.66618">
        <ele>228</ele>
        <time>2021-04-15T14:19:29Z</time>
      </trkpt>
      <trkpt lat="43.57946" lon="3.66616">
        <ele>222.1</ele>
        <time>2021-04-15T14:19:31Z</time>
      </trkpt>
      <trkpt lat="43.57946" lon="3.66616">
        <ele>228</ele>
        <time>2021-04-15T14:19:31Z</time>
      </trkpt>
      <trkpt lat="43.57944" lon="3.66614">
        <ele>221.9</ele>
        <time>2021-04-15T14:19:33Z</time>
      </trkpt>
      <trkpt lat="43.57944" lon="3.66614">
        <ele>228</ele>
        <time>2021-04-15T14:19:33Z</time>
      </trkpt>
      <trkpt lat="43.57943" lon="3.66612">
        <ele>222</ele>
        <time>2021-04-15T14:19:34Z</time>
      </trkpt>
      <trkpt lat="43.57943" lon="3.66612">
        <ele>228</ele>
        <time>2021-04-15T14:19:34Z</time>
      </trkpt>
      <trkpt lat="43.57942" lon="3.6661">
        <ele>222.3</ele>
        <time>2021-04-15T14:19:35Z</time>
      </trkpt>
      <trkpt lat="43.57942" lon="3.6661">
        <ele>228</ele>
        <time>2021-04-15T14:19:35Z</time>
      </trkpt>
      <trkpt lat="43.5794" lon="3.66608">
        <ele>222.6</ele>
        <time>2021-04-15T14:19:37Z</time>
      </trkpt>
      <trkpt lat="43.5794" lon="3.66608">
        <ele>228</ele>
        <time>2021-04-15T14:19:37Z</time>
      </trkpt>
      <trkpt lat="43.57939" lon="3.66606">
        <ele>222.8</ele>
        <time>2021-04-15T14:19:38Z</time>
      </trkpt>
      <trkpt lat="43.57939" lon="3.66606">
        <ele>228</ele>
        <time>2021-04-15T14:19:38Z</time>
      </trkpt>
      <trkpt lat="43.57938" lon="3.66604">
        <ele>223.1</ele>
        <time>2021-04-15T14:19:40Z</time>
      </trkpt>
      <trkpt lat="43.57938" lon="3.66604">
        <ele>228</ele>
        <time>2021-04-15T14:19:40Z</time>
      </trkpt>
      <trkpt lat="43.57937" lon="3.66601">
        <ele>223.3</ele>
        <time>2021-04-15T14:19:41Z</time>
      </trkpt>
      <trkpt lat="43.57937" lon="3.66601">
        <ele>228</ele>
        <time>2021-04-15T14:19:41Z</time>
      </trkpt>
      <trkpt lat="43.57936" lon="3.666">
        <ele>223.5</ele>
        <time>2021-04-15T14:19:43Z</time>
      </trkpt>
      <trkpt lat="43.57936" lon="3.666">
        <ele>228</ele>
        <time>2021-04-15T14:19:43Z</time>
      </trkpt>
      <trkpt lat="43.57935" lon="3.66598">
        <ele>223.6</ele>
        <time>2021-04-15T14:19:44Z</time>
      </trkpt>
      <trkpt lat="43.57935" lon="3.66598">
        <ele>228</ele>
        <time>2021-04-15T14:19:44Z</time>
      </trkpt>
      <trkpt lat="43.57934" lon="3.66596">
        <ele>223.7</ele>
        <time>2021-04-15T14:19:46Z</time>
      </trkpt>
      <trkpt lat="43.57934" lon="3.66596">
        <ele>230</ele>
        <time>2021-04-15T14:19:46Z</time>
      </trkpt>
      <trkpt lat="43.57933" lon="3.66595">
        <ele>223.8</ele>
        <time>2021-04-15T14:19:47Z</time>
      </trkpt>
      <trkpt lat="43.57933" lon="3.66595">
        <ele>230</ele>
        <time>2021-04-15T14:19:47Z</time>
      </trkpt>
      <trkpt lat="43.57932" lon="3.66593">
        <ele>223.9</ele>
        <time>2021-04-15T14:19:49Z</time>
      </trkpt>
      <trkpt lat="43.57932" lon="3.66593">
        <ele>230</ele>
        <time>2021-04-15T14:19:49Z</time>
      </trkpt>
      <trkpt lat="43.57931" lon="3.66591">
        <ele>224</ele>
        <time>2021-04-15T14:19:50Z</time>
      </trkpt>
      <trkpt lat="43.57931" lon="3.66591">
        <ele>230</ele>
        <time>2021-04-15T14:19:50Z</time>
      </trkpt>
      <trkpt lat="43.5793" lon="3.6659">
        <ele>224</ele>
        <time>2021-04-15T14:19:52Z</time>
      </trkpt>
      <trkpt lat="43.5793" lon="3.6659">
        <ele>230</ele>
        <time>2021-04-15T14:19:52Z</time>
      </trkpt>
      <trkpt lat="43.57929" lon="3.66588">
        <ele>224.1</ele>
        <time>2021-04-15T14:19:54Z</time>
      </trkpt>
      <trkpt lat="43.57929" lon="3.66588">
        <ele>230</ele>
        <time>2021-04-15T14:19:54Z</time>
      </trkpt>
      <trkpt lat="43.57929" lon="3.66587">
        <ele>224.1</ele>
        <time>2021-04-15T14:19:55Z</time>
      </trkpt>
      <trkpt lat="43.57929" lon="3.66587">
        <ele>230</ele>
        <time>2021-04-15T14:19:55Z</time>
      </trkpt>
      <trkpt lat="43.57928" lon="3.66585">
        <ele>224.1</ele>
        <time>2021-04-15T14:19:57Z</time>
      </trkpt>
      <trkpt lat="43.57928" lon="3.66585">
        <ele>230</ele>
        <time>2021-04-15T14:19:57Z</time>
      </trkpt>
      <trkpt lat="43.57927" lon="3.66583">
        <ele>224.1</ele>
        <time>2021-04-15T14:19:58Z</time>
      </trkpt>
      <trkpt lat="43.57927" lon="3.66583">
        <ele>230</ele>
        <time>2021-04-15T14:19:58Z</time>
      </trkpt>
      <trkpt lat="43.57926" lon="3.66582">
        <ele>224.2</ele>
        <time>2021-04-15T14:20:00Z</time>
      </trkpt>
      <trkpt lat="43.57926" lon="3.66582">
        <ele>230</ele>
        <time>2021-04-15T14:20:00Z</time>
      </trkpt>
      <trkpt lat="43.57925" lon="3.66579">
        <ele>224.4</ele>
        <time>2021-04-15T14:20:02Z</time>
      </trkpt>
      <trkpt lat="43.57925" lon="3.66579">
        <ele>230</ele>
        <time>2021-04-15T14:20:02Z</time>
      </trkpt>
      <trkpt lat="43.57924" lon="3.66577">
        <ele>224.6</ele>
        <time>2021-04-15T14:20:04Z</time>
      </trkpt>
      <trkpt lat="43.57924" lon="3.66577">
        <ele>231</ele>
        <time>2021-04-15T14:20:04Z</time>
      </trkpt>
      <trkpt lat="43.57923" lon="3.66574">
        <ele>224.7</ele>
        <time>2021-04-15T14:20:06Z</time>
      </trkpt>
      <trkpt lat="43.57923" lon="3.66574">
        <ele>231</ele>
        <time>2021-04-15T14:20:06Z</time>
      </trkpt>
      <trkpt lat="43.57922" lon="3.66572">
        <ele>224.8</ele>
        <time>2021-04-15T14:20:08Z</time>
      </trkpt>
      <trkpt lat="43.57922" lon="3.66572">
        <ele>231</ele>
        <time>2021-04-15T14:20:08Z</time>
      </trkpt>
      <trkpt lat="43.57921" lon="3.66569">
        <ele>224.8</ele>
        <time>2021-04-15T14:20:09Z</time>
      </trkpt>
      <trkpt lat="43.57921" lon="3.66569">
        <ele>231</ele>
        <time>2021-04-15T14:20:09Z</time>
      </trkpt>
      <trkpt lat="43.5792" lon="3.66567">
        <ele>224.8</ele>
        <time>2021-04-15T14:20:11Z</time>
      </trkpt>
      <trkpt lat="43.5792" lon="3.66567">
        <ele>231</ele>
        <time>2021-04-15T14:20:11Z</time>
      </trkpt>
      <trkpt lat="43.57919" lon="3.66565">
        <ele>224.8</ele>
        <time>2021-04-15T14:20:12Z</time>
      </trkpt>
      <trkpt lat="43.57919" lon="3.66565">
        <ele>231</ele>
        <time>2021-04-15T14:20:12Z</time>
      </trkpt>
      <trkpt lat="43.57919" lon="3.66564">
        <ele>224.9</ele>
        <time>2021-04-15T14:20:14Z</time>
      </trkpt>
      <trkpt lat="43.57919" lon="3.66564">
        <ele>231</ele>
        <time>2021-04-15T14:20:14Z</time>
      </trkpt>
      <trkpt lat="43.57919" lon="3.66563">
        <ele>224.9</ele>
        <time>2021-04-15T14:20:16Z</time>
      </trkpt>
      <trkpt lat="43.57919" lon="3.66563">
        <ele>231</ele>
        <time>2021-04-15T14:20:16Z</time>
      </trkpt>
      <trkpt lat="43.57918" lon="3.66562">
        <ele>224.8</ele>
        <time>2021-04-15T14:20:17Z</time>
      </trkpt>
      <trkpt lat="43.57918" lon="3.66562">
        <ele>231</ele>
        <time>2021-04-15T14:20:17Z</time>
      </trkpt>
      <trkpt lat="43.57917" lon="3.66562">
        <ele>224.7</ele>
        <time>2021-04-15T14:20:19Z</time>
      </trkpt>
      <trkpt lat="43.57917" lon="3.66562">
        <ele>231</ele>
        <time>2021-04-15T14:20:19Z</time>
      </trkpt>
      <trkpt lat="43.57917" lon="3.66562">
        <ele>224.6</ele>
        <time>2021-04-15T14:20:20Z</time>
      </trkpt>
      <trkpt lat="43.57917" lon="3.66562">
        <ele>231</ele>
        <time>2021-04-15T14:20:20Z</time>
      </trkpt>
      <trkpt lat="43.57915" lon="3.66562">
        <ele>224.6</ele>
        <time>2021-04-15T14:20:22Z</time>
      </trkpt>
      <trkpt lat="43.57915" lon="3.66562">
        <ele>231</ele>
        <time>2021-04-15T14:20:22Z</time>
      </trkpt>
      <trkpt lat="43.57914" lon="3.66562">
        <ele>224.6</ele>
        <time>2021-04-15T14:20:23Z</time>
      </trkpt>
      <trkpt lat="43.57914" lon="3.66562">
        <ele>231</ele>
        <time>2021-04-15T14:20:23Z</time>
      </trkpt>
      <trkpt lat="43.57912" lon="3.66562">
        <ele>224.7</ele>
        <time>2021-04-15T14:20:25Z</time>
      </trkpt>
      <trkpt lat="43.57912" lon="3.66562">
        <ele>231</ele>
        <time>2021-04-15T14:20:25Z</time>
      </trkpt>
      <trkpt lat="43.57911" lon="3.66562">
        <ele>224.7</ele>
        <time>2021-04-15T14:20:26Z</time>
      </trkpt>
      <trkpt lat="43.57911" lon="3.66562">
        <ele>231</ele>
        <time>2021-04-15T14:20:26Z</time>
      </trkpt>
      <trkpt lat="43.57909" lon="3.66563">
        <ele>224.8</ele>
        <time>2021-04-15T14:20:28Z</time>
      </trkpt>
      <trkpt lat="43.57909" lon="3.66563">
        <ele>231</ele>
        <time>2021-04-15T14:20:28Z</time>
      </trkpt>
      <trkpt lat="43.57907" lon="3.66563">
        <ele>224.8</ele>
        <time>2021-04-15T14:20:30Z</time>
      </trkpt>
      <trkpt lat="43.57907" lon="3.66563">
        <ele>231</ele>
        <time>2021-04-15T14:20:30Z</time>
      </trkpt>
      <trkpt lat="43.57904" lon="3.66564">
        <ele>224.9</ele>
        <time>2021-04-15T14:20:31Z</time>
      </trkpt>
      <trkpt lat="43.57904" lon="3.66564">
        <ele>231</ele>
        <time>2021-04-15T14:20:31Z</time>
      </trkpt>
      <trkpt lat="43.57902" lon="3.66565">
        <ele>225</ele>
        <time>2021-04-15T14:20:33Z</time>
      </trkpt>
      <trkpt lat="43.57902" lon="3.66565">
        <ele>231</ele>
        <time>2021-04-15T14:20:33Z</time>
      </trkpt>
      <trkpt lat="43.57889" lon="3.66558">
        <ele>225.2</ele>
        <time>2021-04-15T14:20:53Z</time>
      </trkpt>
      <trkpt lat="43.57889" lon="3.66558">
        <ele>231</ele>
        <time>2021-04-15T14:20:53Z</time>
      </trkpt>
      <trkpt lat="43.57888" lon="3.66558">
        <ele>225.3</ele>
        <time>2021-04-15T14:20:55Z</time>
      </trkpt>
      <trkpt lat="43.57888" lon="3.66558">
        <ele>231</ele>
        <time>2021-04-15T14:20:55Z</time>
      </trkpt>
      <trkpt lat="43.57888" lon="3.66556">
        <ele>225.2</ele>
        <time>2021-04-15T14:20:57Z</time>
      </trkpt>
      <trkpt lat="43.57888" lon="3.66556">
        <ele>231</ele>
        <time>2021-04-15T14:20:57Z</time>
      </trkpt>
      <trkpt lat="43.57887" lon="3.66555">
        <ele>225.3</ele>
        <time>2021-04-15T14:20:58Z</time>
      </trkpt>
      <trkpt lat="43.57887" lon="3.66555">
        <ele>231</ele>
        <time>2021-04-15T14:20:58Z</time>
      </trkpt>
      <trkpt lat="43.57886" lon="3.66553">
        <ele>225.5</ele>
        <time>2021-04-15T14:21:00Z</time>
      </trkpt>
      <trkpt lat="43.57886" lon="3.66553">
        <ele>231</ele>
        <time>2021-04-15T14:21:00Z</time>
      </trkpt>
      <trkpt lat="43.57885" lon="3.6655">
        <ele>225.8</ele>
        <time>2021-04-15T14:21:02Z</time>
      </trkpt>
      <trkpt lat="43.57885" lon="3.6655">
        <ele>231</ele>
        <time>2021-04-15T14:21:02Z</time>
      </trkpt>
      <trkpt lat="43.57885" lon="3.66548">
        <ele>225.9</ele>
        <time>2021-04-15T14:21:03Z</time>
      </trkpt>
      <trkpt lat="43.57885" lon="3.66548">
        <ele>231</ele>
        <time>2021-04-15T14:21:03Z</time>
      </trkpt>
      <trkpt lat="43.57885" lon="3.66546">
        <ele>225.9</ele>
        <time>2021-04-15T14:21:05Z</time>
      </trkpt>
      <trkpt lat="43.57885" lon="3.66546">
        <ele>231</ele>
        <time>2021-04-15T14:21:05Z</time>
      </trkpt>
      <trkpt lat="43.57885" lon="3.66544">
        <ele>226</ele>
        <time>2021-04-15T14:21:07Z</time>
      </trkpt>
      <trkpt lat="43.57885" lon="3.66544">
        <ele>231</ele>
        <time>2021-04-15T14:21:07Z</time>
      </trkpt>
      <trkpt lat="43.57884" lon="3.66542">
        <ele>226.1</ele>
        <time>2021-04-15T14:21:08Z</time>
      </trkpt>
      <trkpt lat="43.57884" lon="3.66542">
        <ele>231</ele>
        <time>2021-04-15T14:21:08Z</time>
      </trkpt>
      <trkpt lat="43.57884" lon="3.6654">
        <ele>226.2</ele>
        <time>2021-04-15T14:21:10Z</time>
      </trkpt>
      <trkpt lat="43.57884" lon="3.6654">
        <ele>231</ele>
        <time>2021-04-15T14:21:10Z</time>
      </trkpt>
      <trkpt lat="43.57883" lon="3.66538">
        <ele>226.3</ele>
        <time>2021-04-15T14:21:11Z</time>
      </trkpt>
      <trkpt lat="43.57883" lon="3.66538">
        <ele>231</ele>
        <time>2021-04-15T14:21:11Z</time>
      </trkpt>
      <trkpt lat="43.57882" lon="3.66536">
        <ele>226.4</ele>
        <time>2021-04-15T14:21:13Z</time>
      </trkpt>
      <trkpt lat="43.57882" lon="3.66536">
        <ele>234</ele>
        <time>2021-04-15T14:21:13Z</time>
      </trkpt>
      <trkpt lat="43.57882" lon="3.66535">
        <ele>226.5</ele>
        <time>2021-04-15T14:21:14Z</time>
      </trkpt>
      <trkpt lat="43.57882" lon="3.66535">
        <ele>234</ele>
        <time>2021-04-15T14:21:14Z</time>
      </trkpt>
      <trkpt lat="43.5788" lon="3.66533">
        <ele>226.6</ele>
        <time>2021-04-15T14:21:16Z</time>
      </trkpt>
      <trkpt lat="43.5788" lon="3.66533">
        <ele>234</ele>
        <time>2021-04-15T14:21:16Z</time>
      </trkpt>
      <trkpt lat="43.57879" lon="3.6653">
        <ele>226.7</ele>
        <time>2021-04-15T14:21:18Z</time>
      </trkpt>
      <trkpt lat="43.57879" lon="3.6653">
        <ele>234</ele>
        <time>2021-04-15T14:21:18Z</time>
      </trkpt>
      <trkpt lat="43.57878" lon="3.66528">
        <ele>226.8</ele>
        <time>2021-04-15T14:21:20Z</time>
      </trkpt>
      <trkpt lat="43.57878" lon="3.66528">
        <ele>234</ele>
        <time>2021-04-15T14:21:20Z</time>
      </trkpt>
      <trkpt lat="43.57877" lon="3.66526">
        <ele>227</ele>
        <time>2021-04-15T14:21:21Z</time>
      </trkpt>
      <trkpt lat="43.57877" lon="3.66526">
        <ele>234</ele>
        <time>2021-04-15T14:21:21Z</time>
      </trkpt>
      <trkpt lat="43.57876" lon="3.66524">
        <ele>227.1</ele>
        <time>2021-04-15T14:21:22Z</time>
      </trkpt>
      <trkpt lat="43.57876" lon="3.66524">
        <ele>234</ele>
        <time>2021-04-15T14:21:22Z</time>
      </trkpt>
      <trkpt lat="43.57875" lon="3.66522">
        <ele>227.3</ele>
        <time>2021-04-15T14:21:24Z</time>
      </trkpt>
      <trkpt lat="43.57875" lon="3.66522">
        <ele>234</ele>
        <time>2021-04-15T14:21:24Z</time>
      </trkpt>
      <trkpt lat="43.57874" lon="3.66519">
        <ele>227.5</ele>
        <time>2021-04-15T14:21:26Z</time>
      </trkpt>
      <trkpt lat="43.57874" lon="3.66519">
        <ele>234</ele>
        <time>2021-04-15T14:21:26Z</time>
      </trkpt>
      <trkpt lat="43.57872" lon="3.66517">
        <ele>227.7</ele>
        <time>2021-04-15T14:21:28Z</time>
      </trkpt>
      <trkpt lat="43.57872" lon="3.66517">
        <ele>234</ele>
        <time>2021-04-15T14:21:28Z</time>
      </trkpt>
      <trkpt lat="43.57871" lon="3.66514">
        <ele>227.8</ele>
        <time>2021-04-15T14:21:30Z</time>
      </trkpt>
      <trkpt lat="43.57871" lon="3.66514">
        <ele>235</ele>
        <time>2021-04-15T14:21:30Z</time>
      </trkpt>
      <trkpt lat="43.57871" lon="3.66512">
        <ele>227.9</ele>
        <time>2021-04-15T14:21:31Z</time>
      </trkpt>
      <trkpt lat="43.57871" lon="3.66512">
        <ele>235</ele>
        <time>2021-04-15T14:21:31Z</time>
      </trkpt>
      <trkpt lat="43.5787" lon="3.6651">
        <ele>228</ele>
        <time>2021-04-15T14:21:33Z</time>
      </trkpt>
      <trkpt lat="43.5787" lon="3.6651">
        <ele>235</ele>
        <time>2021-04-15T14:21:33Z</time>
      </trkpt>
      <trkpt lat="43.57869" lon="3.66508">
        <ele>228</ele>
        <time>2021-04-15T14:21:34Z</time>
      </trkpt>
      <trkpt lat="43.57869" lon="3.66508">
        <ele>235</ele>
        <time>2021-04-15T14:21:34Z</time>
      </trkpt>
      <trkpt lat="43.57869" lon="3.66506">
        <ele>228.1</ele>
        <time>2021-04-15T14:21:36Z</time>
      </trkpt>
      <trkpt lat="43.57869" lon="3.66506">
        <ele>235</ele>
        <time>2021-04-15T14:21:36Z</time>
      </trkpt>
      <trkpt lat="43.57869" lon="3.66504">
        <ele>228.2</ele>
        <time>2021-04-15T14:21:37Z</time>
      </trkpt>
      <trkpt lat="43.57869" lon="3.66504">
        <ele>235</ele>
        <time>2021-04-15T14:21:37Z</time>
      </trkpt>
      <trkpt lat="43.57868" lon="3.66502">
        <ele>228.2</ele>
        <time>2021-04-15T14:21:38Z</time>
      </trkpt>
      <trkpt lat="43.57868" lon="3.66502">
        <ele>235</ele>
        <time>2021-04-15T14:21:38Z</time>
      </trkpt>
      <trkpt lat="43.57868" lon="3.665">
        <ele>228.3</ele>
        <time>2021-04-15T14:21:40Z</time>
      </trkpt>
      <trkpt lat="43.57868" lon="3.665">
        <ele>235</ele>
        <time>2021-04-15T14:21:40Z</time>
      </trkpt>
      <trkpt lat="43.57871" lon="3.66487">
        <ele>229.7</ele>
        <time>2021-04-15T14:22:11Z</time>
      </trkpt>
      <trkpt lat="43.57871" lon="3.66487">
        <ele>235</ele>
        <time>2021-04-15T14:22:11Z</time>
      </trkpt>
      <trkpt lat="43.57871" lon="3.66486">
        <ele>229.7</ele>
        <time>2021-04-15T14:22:13Z</time>
      </trkpt>
      <trkpt lat="43.57871" lon="3.66486">
        <ele>235</ele>
        <time>2021-04-15T14:22:13Z</time>
      </trkpt>
      <trkpt lat="43.57872" lon="3.66486">
        <ele>229.8</ele>
        <time>2021-04-15T14:22:15Z</time>
      </trkpt>
      <trkpt lat="43.57872" lon="3.66486">
        <ele>235</ele>
        <time>2021-04-15T14:22:15Z</time>
      </trkpt>
      <trkpt lat="43.57869" lon="3.66478">
        <ele>230.2</ele>
        <time>2021-04-15T14:22:42Z</time>
      </trkpt>
      <trkpt lat="43.57869" lon="3.66478">
        <ele>235</ele>
        <time>2021-04-15T14:22:42Z</time>
      </trkpt>
      <trkpt lat="43.57869" lon="3.66478">
        <ele>230.2</ele>
        <time>2021-04-15T14:22:43Z</time>
      </trkpt>
      <trkpt lat="43.57869" lon="3.66478">
        <ele>235</ele>
        <time>2021-04-15T14:22:43Z</time>
      </trkpt>
      <trkpt lat="43.57869" lon="3.66477">
        <ele>230.2</ele>
        <time>2021-04-15T14:22:45Z</time>
      </trkpt>
      <trkpt lat="43.57869" lon="3.66477">
        <ele>235</ele>
        <time>2021-04-15T14:22:45Z</time>
      </trkpt>
      <trkpt lat="43.57868" lon="3.66476">
        <ele>230.2</ele>
        <time>2021-04-15T14:22:47Z</time>
      </trkpt>
      <trkpt lat="43.57868" lon="3.66476">
        <ele>235</ele>
        <time>2021-04-15T14:22:47Z</time>
      </trkpt>
      <trkpt lat="43.57867" lon="3.66475">
        <ele>230.1</ele>
        <time>2021-04-15T14:22:49Z</time>
      </trkpt>
      <trkpt lat="43.57867" lon="3.66475">
        <ele>235</ele>
        <time>2021-04-15T14:22:49Z</time>
      </trkpt>
      <trkpt lat="43.57866" lon="3.66474">
        <ele>229.9</ele>
        <time>2021-04-15T14:22:50Z</time>
      </trkpt>
      <trkpt lat="43.57866" lon="3.66474">
        <ele>235</ele>
        <time>2021-04-15T14:22:50Z</time>
      </trkpt>
      <trkpt lat="43.57865" lon="3.66472">
        <ele>229.9</ele>
        <time>2021-04-15T14:22:52Z</time>
      </trkpt>
      <trkpt lat="43.57865" lon="3.66472">
        <ele>235</ele>
        <time>2021-04-15T14:22:52Z</time>
      </trkpt>
      <trkpt lat="43.57864" lon="3.66471">
        <ele>229.9</ele>
        <time>2021-04-15T14:22:53Z</time>
      </trkpt>
      <trkpt lat="43.57864" lon="3.66471">
        <ele>235</ele>
        <time>2021-04-15T14:22:53Z</time>
      </trkpt>
      <trkpt lat="43.57863" lon="3.6647">
        <ele>229.9</ele>
        <time>2021-04-15T14:22:55Z</time>
      </trkpt>
      <trkpt lat="43.57863" lon="3.6647">
        <ele>235</ele>
        <time>2021-04-15T14:22:55Z</time>
      </trkpt>
      <trkpt lat="43.57863" lon="3.66468">
        <ele>229.9</ele>
        <time>2021-04-15T14:22:56Z</time>
      </trkpt>
      <trkpt lat="43.57863" lon="3.66468">
        <ele>235</ele>
        <time>2021-04-15T14:22:56Z</time>
      </trkpt>
      <trkpt lat="43.57862" lon="3.66467">
        <ele>230</ele>
        <time>2021-04-15T14:22:57Z</time>
      </trkpt>
      <trkpt lat="43.57862" lon="3.66467">
        <ele>235</ele>
        <time>2021-04-15T14:22:57Z</time>
      </trkpt>
      <trkpt lat="43.57862" lon="3.66466">
        <ele>230.1</ele>
        <time>2021-04-15T14:22:59Z</time>
      </trkpt>
      <trkpt lat="43.57862" lon="3.66466">
        <ele>235</ele>
        <time>2021-04-15T14:22:59Z</time>
      </trkpt>
      <trkpt lat="43.57861" lon="3.66464">
        <ele>230.3</ele>
        <time>2021-04-15T14:23:01Z</time>
      </trkpt>
      <trkpt lat="43.57861" lon="3.66464">
        <ele>235</ele>
        <time>2021-04-15T14:23:01Z</time>
      </trkpt>
      <trkpt lat="43.57861" lon="3.66462">
        <ele>230.5</ele>
        <time>2021-04-15T14:23:02Z</time>
      </trkpt>
      <trkpt lat="43.57861" lon="3.66462">
        <ele>238</ele>
        <time>2021-04-15T14:23:02Z</time>
      </trkpt>
      <trkpt lat="43.5786" lon="3.66461">
        <ele>230.7</ele>
        <time>2021-04-15T14:23:04Z</time>
      </trkpt>
      <trkpt lat="43.5786" lon="3.66461">
        <ele>238</ele>
        <time>2021-04-15T14:23:04Z</time>
      </trkpt>
      <trkpt lat="43.5786" lon="3.66459">
        <ele>231</ele>
        <time>2021-04-15T14:23:06Z</time>
      </trkpt>
      <trkpt lat="43.5786" lon="3.66459">
        <ele>238</ele>
        <time>2021-04-15T14:23:06Z</time>
      </trkpt>
      <trkpt lat="43.57859" lon="3.66457">
        <ele>231.2</ele>
        <time>2021-04-15T14:23:08Z</time>
      </trkpt>
      <trkpt lat="43.57859" lon="3.66457">
        <ele>238</ele>
        <time>2021-04-15T14:23:08Z</time>
      </trkpt>
      <trkpt lat="43.57858" lon="3.66455">
        <ele>231.4</ele>
        <time>2021-04-15T14:23:10Z</time>
      </trkpt>
      <trkpt lat="43.57858" lon="3.66455">
        <ele>238</ele>
        <time>2021-04-15T14:23:10Z</time>
      </trkpt>
      <trkpt lat="43.57857" lon="3.66453">
        <ele>231.6</ele>
        <time>2021-04-15T14:23:11Z</time>
      </trkpt>
      <trkpt lat="43.57857" lon="3.66453">
        <ele>238</ele>
        <time>2021-04-15T14:23:11Z</time>
      </trkpt>
      <trkpt lat="43.57856" lon="3.66452">
        <ele>231.8</ele>
        <time>2021-04-15T14:23:12Z</time>
      </trkpt>
      <trkpt lat="43.57856" lon="3.66452">
        <ele>238</ele>
        <time>2021-04-15T14:23:12Z</time>
      </trkpt>
      <trkpt lat="43.57855" lon="3.6645">
        <ele>231.9</ele>
        <time>2021-04-15T14:23:14Z</time>
      </trkpt>
      <trkpt lat="43.57855" lon="3.6645">
        <ele>238</ele>
        <time>2021-04-15T14:23:14Z</time>
      </trkpt>
      <trkpt lat="43.57854" lon="3.66448">
        <ele>232</ele>
        <time>2021-04-15T14:23:15Z</time>
      </trkpt>
      <trkpt lat="43.57854" lon="3.66448">
        <ele>238</ele>
        <time>2021-04-15T14:23:15Z</time>
      </trkpt>
      <trkpt lat="43.57853" lon="3.66447">
        <ele>232.1</ele>
        <time>2021-04-15T14:23:17Z</time>
      </trkpt>
      <trkpt lat="43.57853" lon="3.66447">
        <ele>238</ele>
        <time>2021-04-15T14:23:17Z</time>
      </trkpt>
      <trkpt lat="43.57852" lon="3.66446">
        <ele>232.2</ele>
        <time>2021-04-15T14:23:19Z</time>
      </trkpt>
      <trkpt lat="43.57852" lon="3.66446">
        <ele>238</ele>
        <time>2021-04-15T14:23:19Z</time>
      </trkpt>
      <trkpt lat="43.57851" lon="3.66444">
        <ele>232.3</ele>
        <time>2021-04-15T14:23:20Z</time>
      </trkpt>
      <trkpt lat="43.57851" lon="3.66444">
        <ele>238</ele>
        <time>2021-04-15T14:23:20Z</time>
      </trkpt>
      <trkpt lat="43.5785" lon="3.66443">
        <ele>232.4</ele>
        <time>2021-04-15T14:23:21Z</time>
      </trkpt>
      <trkpt lat="43.5785" lon="3.66443">
        <ele>238</ele>
        <time>2021-04-15T14:23:21Z</time>
      </trkpt>
      <trkpt lat="43.57849" lon="3.6644">
        <ele>232.7</ele>
        <time>2021-04-15T14:23:23Z</time>
      </trkpt>
      <trkpt lat="43.57849" lon="3.6644">
        <ele>239</ele>
        <time>2021-04-15T14:23:23Z</time>
      </trkpt>
      <trkpt lat="43.57848" lon="3.66438">
        <ele>232.8</ele>
        <time>2021-04-15T14:23:24Z</time>
      </trkpt>
      <trkpt lat="43.57848" lon="3.66438">
        <ele>239</ele>
        <time>2021-04-15T14:23:24Z</time>
      </trkpt>
      <trkpt lat="43.57847" lon="3.66436">
        <ele>233.1</ele>
        <time>2021-04-15T14:23:26Z</time>
      </trkpt>
      <trkpt lat="43.57847" lon="3.66436">
        <ele>239</ele>
        <time>2021-04-15T14:23:26Z</time>
      </trkpt>
      <trkpt lat="43.57847" lon="3.66433">
        <ele>233.3</ele>
        <time>2021-04-15T14:23:28Z</time>
      </trkpt>
      <trkpt lat="43.57847" lon="3.66433">
        <ele>239</ele>
        <time>2021-04-15T14:23:28Z</time>
      </trkpt>
      <trkpt lat="43.57846" lon="3.66431">
        <ele>233.6</ele>
        <time>2021-04-15T14:23:30Z</time>
      </trkpt>
      <trkpt lat="43.57846" lon="3.66431">
        <ele>240</ele>
        <time>2021-04-15T14:23:30Z</time>
      </trkpt>
      <trkpt lat="43.57846" lon="3.66429">
        <ele>233.7</ele>
        <time>2021-04-15T14:23:31Z</time>
      </trkpt>
      <trkpt lat="43.57846" lon="3.66429">
        <ele>240</ele>
        <time>2021-04-15T14:23:31Z</time>
      </trkpt>
      <trkpt lat="43.57845" lon="3.66426">
        <ele>233.9</ele>
        <time>2021-04-15T14:23:33Z</time>
      </trkpt>
      <trkpt lat="43.57845" lon="3.66426">
        <ele>240</ele>
        <time>2021-04-15T14:23:33Z</time>
      </trkpt>
      <trkpt lat="43.57845" lon="3.66424">
        <ele>234</ele>
        <time>2021-04-15T14:23:34Z</time>
      </trkpt>
      <trkpt lat="43.57845" lon="3.66424">
        <ele>240</ele>
        <time>2021-04-15T14:23:34Z</time>
      </trkpt>
      <trkpt lat="43.57844" lon="3.66422">
        <ele>234.1</ele>
        <time>2021-04-15T14:23:36Z</time>
      </trkpt>
      <trkpt lat="43.57844" lon="3.66422">
        <ele>240</ele>
        <time>2021-04-15T14:23:36Z</time>
      </trkpt>
      <trkpt lat="43.57843" lon="3.6642">
        <ele>234.1</ele>
        <time>2021-04-15T14:23:37Z</time>
      </trkpt>
      <trkpt lat="43.57843" lon="3.6642">
        <ele>240</ele>
        <time>2021-04-15T14:23:37Z</time>
      </trkpt>
      <trkpt lat="43.57843" lon="3.66418">
        <ele>234.2</ele>
        <time>2021-04-15T14:23:39Z</time>
      </trkpt>
      <trkpt lat="43.57843" lon="3.66418">
        <ele>240</ele>
        <time>2021-04-15T14:23:39Z</time>
      </trkpt>
      <trkpt lat="43.57842" lon="3.66417">
        <ele>234.1</ele>
        <time>2021-04-15T14:23:41Z</time>
      </trkpt>
      <trkpt lat="43.57842" lon="3.66417">
        <ele>240</ele>
        <time>2021-04-15T14:23:41Z</time>
      </trkpt>
      <trkpt lat="43.57841" lon="3.66415">
        <ele>234.3</ele>
        <time>2021-04-15T14:23:43Z</time>
      </trkpt>
      <trkpt lat="43.57841" lon="3.66415">
        <ele>240</ele>
        <time>2021-04-15T14:23:43Z</time>
      </trkpt>
      <trkpt lat="43.5784" lon="3.66413">
        <ele>234.5</ele>
        <time>2021-04-15T14:23:44Z</time>
      </trkpt>
      <trkpt lat="43.5784" lon="3.66413">
        <ele>240</ele>
        <time>2021-04-15T14:23:44Z</time>
      </trkpt>
      <trkpt lat="43.57839" lon="3.66412">
        <ele>234.7</ele>
        <time>2021-04-15T14:23:46Z</time>
      </trkpt>
      <trkpt lat="43.57839" lon="3.66412">
        <ele>242</ele>
        <time>2021-04-15T14:23:46Z</time>
      </trkpt>
      <trkpt lat="43.57839" lon="3.6641">
        <ele>234.8</ele>
        <time>2021-04-15T14:23:47Z</time>
      </trkpt>
      <trkpt lat="43.57839" lon="3.6641">
        <ele>242</ele>
        <time>2021-04-15T14:23:47Z</time>
      </trkpt>
      <trkpt lat="43.57838" lon="3.66409">
        <ele>234.9</ele>
        <time>2021-04-15T14:23:48Z</time>
      </trkpt>
      <trkpt lat="43.57838" lon="3.66409">
        <ele>242</ele>
        <time>2021-04-15T14:23:48Z</time>
      </trkpt>
      <trkpt lat="43.57837" lon="3.66407">
        <ele>235</ele>
        <time>2021-04-15T14:23:50Z</time>
      </trkpt>
      <trkpt lat="43.57837" lon="3.66407">
        <ele>242</ele>
        <time>2021-04-15T14:23:50Z</time>
      </trkpt>
      <trkpt lat="43.57836" lon="3.66405">
        <ele>235.2</ele>
        <time>2021-04-15T14:23:52Z</time>
      </trkpt>
      <trkpt lat="43.57836" lon="3.66405">
        <ele>242</ele>
        <time>2021-04-15T14:23:52Z</time>
      </trkpt>
      <trkpt lat="43.57834" lon="3.66402">
        <ele>235.5</ele>
        <time>2021-04-15T14:23:54Z</time>
      </trkpt>
      <trkpt lat="43.57834" lon="3.66402">
        <ele>242</ele>
        <time>2021-04-15T14:23:54Z</time>
      </trkpt>
      <trkpt lat="43.57834" lon="3.664">
        <ele>235.7</ele>
        <time>2021-04-15T14:23:55Z</time>
      </trkpt>
      <trkpt lat="43.57834" lon="3.664">
        <ele>242</ele>
        <time>2021-04-15T14:23:55Z</time>
      </trkpt>
      <trkpt lat="43.57832" lon="3.66397">
        <ele>236.2</ele>
        <time>2021-04-15T14:23:57Z</time>
      </trkpt>
      <trkpt lat="43.57832" lon="3.66397">
        <ele>242</ele>
        <time>2021-04-15T14:23:57Z</time>
      </trkpt>
      <trkpt lat="43.57831" lon="3.66395">
        <ele>236.5</ele>
        <time>2021-04-15T14:23:59Z</time>
      </trkpt>
      <trkpt lat="43.57831" lon="3.66395">
        <ele>242</ele>
        <time>2021-04-15T14:23:59Z</time>
      </trkpt>
      <trkpt lat="43.5783" lon="3.66393">
        <ele>236.8</ele>
        <time>2021-04-15T14:24:00Z</time>
      </trkpt>
      <trkpt lat="43.5783" lon="3.66393">
        <ele>242</ele>
        <time>2021-04-15T14:24:00Z</time>
      </trkpt>
      <trkpt lat="43.57828" lon="3.66391">
        <ele>237</ele>
        <time>2021-04-15T14:24:02Z</time>
      </trkpt>
      <trkpt lat="43.57828" lon="3.66391">
        <ele>245</ele>
        <time>2021-04-15T14:24:02Z</time>
      </trkpt>
      <trkpt lat="43.57826" lon="3.66388">
        <ele>237.1</ele>
        <time>2021-04-15T14:24:04Z</time>
      </trkpt>
      <trkpt lat="43.57826" lon="3.66388">
        <ele>245</ele>
        <time>2021-04-15T14:24:04Z</time>
      </trkpt>
      <trkpt lat="43.57825" lon="3.66386">
        <ele>237.4</ele>
        <time>2021-04-15T14:24:06Z</time>
      </trkpt>
      <trkpt lat="43.57825" lon="3.66386">
        <ele>245</ele>
        <time>2021-04-15T14:24:06Z</time>
      </trkpt>
      <trkpt lat="43.57823" lon="3.66384">
        <ele>237.6</ele>
        <time>2021-04-15T14:24:07Z</time>
      </trkpt>
      <trkpt lat="43.57823" lon="3.66384">
        <ele>245</ele>
        <time>2021-04-15T14:24:07Z</time>
      </trkpt>
      <trkpt lat="43.57822" lon="3.66383">
        <ele>237.7</ele>
        <time>2021-04-15T14:24:08Z</time>
      </trkpt>
      <trkpt lat="43.57822" lon="3.66383">
        <ele>245</ele>
        <time>2021-04-15T14:24:08Z</time>
      </trkpt>
      <trkpt lat="43.5782" lon="3.6638">
        <ele>237.9</ele>
        <time>2021-04-15T14:24:10Z</time>
      </trkpt>
      <trkpt lat="43.5782" lon="3.6638">
        <ele>245</ele>
        <time>2021-04-15T14:24:10Z</time>
      </trkpt>
      <trkpt lat="43.57819" lon="3.66379">
        <ele>237.9</ele>
        <time>2021-04-15T14:24:11Z</time>
      </trkpt>
      <trkpt lat="43.57819" lon="3.66379">
        <ele>245</ele>
        <time>2021-04-15T14:24:11Z</time>
      </trkpt>
      <trkpt lat="43.57818" lon="3.66377">
        <ele>237.9</ele>
        <time>2021-04-15T14:24:13Z</time>
      </trkpt>
      <trkpt lat="43.57818" lon="3.66377">
        <ele>245</ele>
        <time>2021-04-15T14:24:13Z</time>
      </trkpt>
      <trkpt lat="43.57816" lon="3.66376">
        <ele>237.9</ele>
        <time>2021-04-15T14:24:14Z</time>
      </trkpt>
      <trkpt lat="43.57816" lon="3.66376">
        <ele>245</ele>
        <time>2021-04-15T14:24:14Z</time>
      </trkpt>
      <trkpt lat="43.57815" lon="3.66374">
        <ele>237.8</ele>
        <time>2021-04-15T14:24:16Z</time>
      </trkpt>
      <trkpt lat="43.57815" lon="3.66374">
        <ele>245</ele>
        <time>2021-04-15T14:24:16Z</time>
      </trkpt>
      <trkpt lat="43.57814" lon="3.66373">
        <ele>237.8</ele>
        <time>2021-04-15T14:24:18Z</time>
      </trkpt>
      <trkpt lat="43.57814" lon="3.66373">
        <ele>245</ele>
        <time>2021-04-15T14:24:18Z</time>
      </trkpt>
      <trkpt lat="43.57813" lon="3.66371">
        <ele>237.8</ele>
        <time>2021-04-15T14:24:19Z</time>
      </trkpt>
      <trkpt lat="43.57813" lon="3.66371">
        <ele>246</ele>
        <time>2021-04-15T14:24:19Z</time>
      </trkpt>
      <trkpt lat="43.57812" lon="3.66369">
        <ele>237.8</ele>
        <time>2021-04-15T14:24:20Z</time>
      </trkpt>
      <trkpt lat="43.57812" lon="3.66369">
        <ele>246</ele>
        <time>2021-04-15T14:24:20Z</time>
      </trkpt>
      <trkpt lat="43.57811" lon="3.66367">
        <ele>237.9</ele>
        <time>2021-04-15T14:24:22Z</time>
      </trkpt>
      <trkpt lat="43.57811" lon="3.66367">
        <ele>246</ele>
        <time>2021-04-15T14:24:22Z</time>
      </trkpt>
      <trkpt lat="43.5781" lon="3.66365">
        <ele>237.9</ele>
        <time>2021-04-15T14:24:23Z</time>
      </trkpt>
      <trkpt lat="43.5781" lon="3.66365">
        <ele>246</ele>
        <time>2021-04-15T14:24:23Z</time>
      </trkpt>
      <trkpt lat="43.57809" lon="3.66363">
        <ele>237.9</ele>
        <time>2021-04-15T14:24:25Z</time>
      </trkpt>
      <trkpt lat="43.57809" lon="3.66363">
        <ele>246</ele>
        <time>2021-04-15T14:24:25Z</time>
      </trkpt>
      <trkpt lat="43.57808" lon="3.66361">
        <ele>237.9</ele>
        <time>2021-04-15T14:24:27Z</time>
      </trkpt>
      <trkpt lat="43.57808" lon="3.66361">
        <ele>246</ele>
        <time>2021-04-15T14:24:27Z</time>
      </trkpt>
      <trkpt lat="43.57807" lon="3.66359">
        <ele>238.1</ele>
        <time>2021-04-15T14:24:28Z</time>
      </trkpt>
      <trkpt lat="43.57807" lon="3.66359">
        <ele>246</ele>
        <time>2021-04-15T14:24:28Z</time>
      </trkpt>
      <trkpt lat="43.57805" lon="3.66357">
        <ele>238.2</ele>
        <time>2021-04-15T14:24:30Z</time>
      </trkpt>
      <trkpt lat="43.57805" lon="3.66357">
        <ele>246</ele>
        <time>2021-04-15T14:24:30Z</time>
      </trkpt>
      <trkpt lat="43.57804" lon="3.66356">
        <ele>238.4</ele>
        <time>2021-04-15T14:24:31Z</time>
      </trkpt>
      <trkpt lat="43.57804" lon="3.66356">
        <ele>246</ele>
        <time>2021-04-15T14:24:31Z</time>
      </trkpt>
      <trkpt lat="43.57802" lon="3.66354">
        <ele>238.8</ele>
        <time>2021-04-15T14:24:33Z</time>
      </trkpt>
      <trkpt lat="43.57802" lon="3.66354">
        <ele>246</ele>
        <time>2021-04-15T14:24:33Z</time>
      </trkpt>
      <trkpt lat="43.578" lon="3.66352">
        <ele>239.2</ele>
        <time>2021-04-15T14:24:35Z</time>
      </trkpt>
      <trkpt lat="43.578" lon="3.66352">
        <ele>246</ele>
        <time>2021-04-15T14:24:35Z</time>
      </trkpt>
      <trkpt lat="43.57798" lon="3.66349">
        <ele>239.5</ele>
        <time>2021-04-15T14:24:37Z</time>
      </trkpt>
      <trkpt lat="43.57798" lon="3.66349">
        <ele>248</ele>
        <time>2021-04-15T14:24:37Z</time>
      </trkpt>
      <trkpt lat="43.57796" lon="3.66347">
        <ele>239.8</ele>
        <time>2021-04-15T14:24:39Z</time>
      </trkpt>
      <trkpt lat="43.57796" lon="3.66347">
        <ele>248</ele>
        <time>2021-04-15T14:24:39Z</time>
      </trkpt>
      <trkpt lat="43.57794" lon="3.66345">
        <ele>240</ele>
        <time>2021-04-15T14:24:40Z</time>
      </trkpt>
      <trkpt lat="43.57794" lon="3.66345">
        <ele>248</ele>
        <time>2021-04-15T14:24:40Z</time>
      </trkpt>
      <trkpt lat="43.57792" lon="3.66343">
        <ele>240</ele>
        <time>2021-04-15T14:24:42Z</time>
      </trkpt>
      <trkpt lat="43.57792" lon="3.66343">
        <ele>248</ele>
        <time>2021-04-15T14:24:42Z</time>
      </trkpt>
      <trkpt lat="43.57791" lon="3.66341">
        <ele>240.1</ele>
        <time>2021-04-15T14:24:44Z</time>
      </trkpt>
      <trkpt lat="43.57791" lon="3.66341">
        <ele>248</ele>
        <time>2021-04-15T14:24:44Z</time>
      </trkpt>
      <trkpt lat="43.57789" lon="3.66339">
        <ele>240.1</ele>
        <time>2021-04-15T14:24:45Z</time>
      </trkpt>
      <trkpt lat="43.57789" lon="3.66339">
        <ele>248</ele>
        <time>2021-04-15T14:24:45Z</time>
      </trkpt>
      <trkpt lat="43.57788" lon="3.66337">
        <ele>240.1</ele>
        <time>2021-04-15T14:24:47Z</time>
      </trkpt>
      <trkpt lat="43.57788" lon="3.66337">
        <ele>248</ele>
        <time>2021-04-15T14:24:47Z</time>
      </trkpt>
      <trkpt lat="43.57787" lon="3.66335">
        <ele>240</ele>
        <time>2021-04-15T14:24:48Z</time>
      </trkpt>
      <trkpt lat="43.57787" lon="3.66335">
        <ele>248</ele>
        <time>2021-04-15T14:24:48Z</time>
      </trkpt>
      <trkpt lat="43.57785" lon="3.66333">
        <ele>240</ele>
        <time>2021-04-15T14:24:50Z</time>
      </trkpt>
      <trkpt lat="43.57785" lon="3.66333">
        <ele>248</ele>
        <time>2021-04-15T14:24:50Z</time>
      </trkpt>
      <trkpt lat="43.57784" lon="3.66332">
        <ele>240.1</ele>
        <time>2021-04-15T14:24:51Z</time>
      </trkpt>
      <trkpt lat="43.57784" lon="3.66332">
        <ele>248</ele>
        <time>2021-04-15T14:24:51Z</time>
      </trkpt>
      <trkpt lat="43.57784" lon="3.6633">
        <ele>240.2</ele>
        <time>2021-04-15T14:24:53Z</time>
      </trkpt>
      <trkpt lat="43.57784" lon="3.6633">
        <ele>248</ele>
        <time>2021-04-15T14:24:53Z</time>
      </trkpt>
      <trkpt lat="43.57783" lon="3.66329">
        <ele>240.3</ele>
        <time>2021-04-15T14:24:54Z</time>
      </trkpt>
      <trkpt lat="43.57783" lon="3.66329">
        <ele>249</ele>
        <time>2021-04-15T14:24:54Z</time>
      </trkpt>
      <trkpt lat="43.57783" lon="3.66328">
        <ele>240.4</ele>
        <time>2021-04-15T14:24:55Z</time>
      </trkpt>
      <trkpt lat="43.57783" lon="3.66328">
        <ele>249</ele>
        <time>2021-04-15T14:24:55Z</time>
      </trkpt>
      <trkpt lat="43.57782" lon="3.66327">
        <ele>240.4</ele>
        <time>2021-04-15T14:24:57Z</time>
      </trkpt>
      <trkpt lat="43.57782" lon="3.66327">
        <ele>249</ele>
        <time>2021-04-15T14:24:57Z</time>
      </trkpt>
      <trkpt lat="43.57781" lon="3.66325">
        <ele>240.5</ele>
        <time>2021-04-15T14:24:59Z</time>
      </trkpt>
      <trkpt lat="43.57781" lon="3.66325">
        <ele>249</ele>
        <time>2021-04-15T14:24:59Z</time>
      </trkpt>
      <trkpt lat="43.5778" lon="3.66324">
        <ele>240.6</ele>
        <time>2021-04-15T14:25:01Z</time>
      </trkpt>
      <trkpt lat="43.5778" lon="3.66324">
        <ele>249</ele>
        <time>2021-04-15T14:25:01Z</time>
      </trkpt>
      <trkpt lat="43.57779" lon="3.66322">
        <ele>240.7</ele>
        <time>2021-04-15T14:25:03Z</time>
      </trkpt>
      <trkpt lat="43.57779" lon="3.66322">
        <ele>249</ele>
        <time>2021-04-15T14:25:03Z</time>
      </trkpt>
      <trkpt lat="43.57778" lon="3.66321">
        <ele>240.9</ele>
        <time>2021-04-15T14:25:04Z</time>
      </trkpt>
      <trkpt lat="43.57778" lon="3.66321">
        <ele>249</ele>
        <time>2021-04-15T14:25:04Z</time>
      </trkpt>
      <trkpt lat="43.57778" lon="3.66319">
        <ele>241.1</ele>
        <time>2021-04-15T14:25:06Z</time>
      </trkpt>
      <trkpt lat="43.57778" lon="3.66319">
        <ele>249</ele>
        <time>2021-04-15T14:25:06Z</time>
      </trkpt>
      <trkpt lat="43.57777" lon="3.66318">
        <ele>241.4</ele>
        <time>2021-04-15T14:25:07Z</time>
      </trkpt>
      <trkpt lat="43.57777" lon="3.66318">
        <ele>249</ele>
        <time>2021-04-15T14:25:07Z</time>
      </trkpt>
      <trkpt lat="43.57776" lon="3.66316">
        <ele>241.7</ele>
        <time>2021-04-15T14:25:09Z</time>
      </trkpt>
      <trkpt lat="43.57776" lon="3.66316">
        <ele>249</ele>
        <time>2021-04-15T14:25:09Z</time>
      </trkpt>
      <trkpt lat="43.57775" lon="3.66314">
        <ele>242</ele>
        <time>2021-04-15T14:25:11Z</time>
      </trkpt>
      <trkpt lat="43.57775" lon="3.66314">
        <ele>251</ele>
        <time>2021-04-15T14:25:11Z</time>
      </trkpt>
      <trkpt lat="43.57773" lon="3.66312">
        <ele>242.3</ele>
        <time>2021-04-15T14:25:13Z</time>
      </trkpt>
      <trkpt lat="43.57773" lon="3.66312">
        <ele>251</ele>
        <time>2021-04-15T14:25:13Z</time>
      </trkpt>
      <trkpt lat="43.57772" lon="3.66311">
        <ele>242.4</ele>
        <time>2021-04-15T14:25:14Z</time>
      </trkpt>
      <trkpt lat="43.57772" lon="3.66311">
        <ele>251</ele>
        <time>2021-04-15T14:25:14Z</time>
      </trkpt>
      <trkpt lat="43.57772" lon="3.66309">
        <ele>242.6</ele>
        <time>2021-04-15T14:25:15Z</time>
      </trkpt>
      <trkpt lat="43.57772" lon="3.66309">
        <ele>251</ele>
        <time>2021-04-15T14:25:15Z</time>
      </trkpt>
      <trkpt lat="43.57771" lon="3.66307">
        <ele>242.7</ele>
        <time>2021-04-15T14:25:17Z</time>
      </trkpt>
      <trkpt lat="43.57771" lon="3.66307">
        <ele>251</ele>
        <time>2021-04-15T14:25:17Z</time>
      </trkpt>
      <trkpt lat="43.5777" lon="3.66306">
        <ele>242.9</ele>
        <time>2021-04-15T14:25:18Z</time>
      </trkpt>
      <trkpt lat="43.5777" lon="3.66306">
        <ele>251</ele>
        <time>2021-04-15T14:25:18Z</time>
      </trkpt>
      <trkpt lat="43.57769" lon="3.66304">
        <ele>243.1</ele>
        <time>2021-04-15T14:25:20Z</time>
      </trkpt>
      <trkpt lat="43.57769" lon="3.66304">
        <ele>251</ele>
        <time>2021-04-15T14:25:20Z</time>
      </trkpt>
      <trkpt lat="43.57768" lon="3.66302">
        <ele>243.3</ele>
        <time>2021-04-15T14:25:21Z</time>
      </trkpt>
      <trkpt lat="43.57768" lon="3.66302">
        <ele>251</ele>
        <time>2021-04-15T14:25:21Z</time>
      </trkpt>
      <trkpt lat="43.57768" lon="3.66301">
        <ele>243.5</ele>
        <time>2021-04-15T14:25:22Z</time>
      </trkpt>
      <trkpt lat="43.57768" lon="3.66301">
        <ele>252</ele>
        <time>2021-04-15T14:25:22Z</time>
      </trkpt>
      <trkpt lat="43.57767" lon="3.663">
        <ele>243.7</ele>
        <time>2021-04-15T14:25:23Z</time>
      </trkpt>
      <trkpt lat="43.57767" lon="3.663">
        <ele>252</ele>
        <time>2021-04-15T14:25:23Z</time>
      </trkpt>
      <trkpt lat="43.57767" lon="3.66298">
        <ele>243.9</ele>
        <time>2021-04-15T14:25:25Z</time>
      </trkpt>
      <trkpt lat="43.57767" lon="3.66298">
        <ele>252</ele>
        <time>2021-04-15T14:25:25Z</time>
      </trkpt>
      <trkpt lat="43.57767" lon="3.66296">
        <ele>244.2</ele>
        <time>2021-04-15T14:25:26Z</time>
      </trkpt>
      <trkpt lat="43.57767" lon="3.66296">
        <ele>252</ele>
        <time>2021-04-15T14:25:26Z</time>
      </trkpt>
      <trkpt lat="43.57765" lon="3.66294">
        <ele>244.3</ele>
        <time>2021-04-15T14:25:28Z</time>
      </trkpt>
      <trkpt lat="43.57765" lon="3.66294">
        <ele>254</ele>
        <time>2021-04-15T14:25:28Z</time>
      </trkpt>
      <trkpt lat="43.57764" lon="3.66292">
        <ele>244.5</ele>
        <time>2021-04-15T14:25:29Z</time>
      </trkpt>
      <trkpt lat="43.57764" lon="3.66292">
        <ele>254</ele>
        <time>2021-04-15T14:25:29Z</time>
      </trkpt>
      <trkpt lat="43.57764" lon="3.66291">
        <ele>244.6</ele>
        <time>2021-04-15T14:25:30Z</time>
      </trkpt>
      <trkpt lat="43.57764" lon="3.66291">
        <ele>254</ele>
        <time>2021-04-15T14:25:30Z</time>
      </trkpt>
      <trkpt lat="43.57763" lon="3.66289">
        <ele>244.8</ele>
        <time>2021-04-15T14:25:31Z</time>
      </trkpt>
      <trkpt lat="43.57763" lon="3.66289">
        <ele>254</ele>
        <time>2021-04-15T14:25:31Z</time>
      </trkpt>
      <trkpt lat="43.57763" lon="3.66287">
        <ele>245</ele>
        <time>2021-04-15T14:25:33Z</time>
      </trkpt>
      <trkpt lat="43.57763" lon="3.66287">
        <ele>254</ele>
        <time>2021-04-15T14:25:33Z</time>
      </trkpt>
      <trkpt lat="43.57762" lon="3.66285">
        <ele>245.2</ele>
        <time>2021-04-15T14:25:35Z</time>
      </trkpt>
      <trkpt lat="43.57762" lon="3.66285">
        <ele>254</ele>
        <time>2021-04-15T14:25:35Z</time>
      </trkpt>
      <trkpt lat="43.57761" lon="3.66283">
        <ele>245.3</ele>
        <time>2021-04-15T14:25:37Z</time>
      </trkpt>
      <trkpt lat="43.57761" lon="3.66283">
        <ele>254</ele>
        <time>2021-04-15T14:25:37Z</time>
      </trkpt>
      <trkpt lat="43.5776" lon="3.66281">
        <ele>245.5</ele>
        <time>2021-04-15T14:25:39Z</time>
      </trkpt>
      <trkpt lat="43.5776" lon="3.66281">
        <ele>254</ele>
        <time>2021-04-15T14:25:39Z</time>
      </trkpt>
      <trkpt lat="43.57759" lon="3.66278">
        <ele>245.7</ele>
        <time>2021-04-15T14:25:41Z</time>
      </trkpt>
      <trkpt lat="43.57759" lon="3.66278">
        <ele>255</ele>
        <time>2021-04-15T14:25:41Z</time>
      </trkpt>
      <trkpt lat="43.57758" lon="3.66275">
        <ele>245.9</ele>
        <time>2021-04-15T14:25:42Z</time>
      </trkpt>
      <trkpt lat="43.57758" lon="3.66275">
        <ele>255</ele>
        <time>2021-04-15T14:25:42Z</time>
      </trkpt>
      <trkpt lat="43.57757" lon="3.66273">
        <ele>245.9</ele>
        <time>2021-04-15T14:25:44Z</time>
      </trkpt>
      <trkpt lat="43.57757" lon="3.66273">
        <ele>255</ele>
        <time>2021-04-15T14:25:44Z</time>
      </trkpt>
      <trkpt lat="43.57755" lon="3.66271">
        <ele>246.1</ele>
        <time>2021-04-15T14:25:46Z</time>
      </trkpt>
      <trkpt lat="43.57755" lon="3.66271">
        <ele>256</ele>
        <time>2021-04-15T14:25:46Z</time>
      </trkpt>
      <trkpt lat="43.57754" lon="3.66268">
        <ele>246.3</ele>
        <time>2021-04-15T14:25:47Z</time>
      </trkpt>
      <trkpt lat="43.57754" lon="3.66268">
        <ele>256</ele>
        <time>2021-04-15T14:25:47Z</time>
      </trkpt>
      <trkpt lat="43.57753" lon="3.66267">
        <ele>246.4</ele>
        <time>2021-04-15T14:25:48Z</time>
      </trkpt>
      <trkpt lat="43.57753" lon="3.66267">
        <ele>256</ele>
        <time>2021-04-15T14:25:48Z</time>
      </trkpt>
      <trkpt lat="43.57753" lon="3.66266">
        <ele>246.5</ele>
        <time>2021-04-15T14:25:49Z</time>
      </trkpt>
      <trkpt lat="43.57753" lon="3.66266">
        <ele>256</ele>
        <time>2021-04-15T14:25:49Z</time>
      </trkpt>
      <trkpt lat="43.57752" lon="3.66264">
        <ele>246.5</ele>
        <time>2021-04-15T14:25:51Z</time>
      </trkpt>
      <trkpt lat="43.57752" lon="3.66264">
        <ele>256</ele>
        <time>2021-04-15T14:25:51Z</time>
      </trkpt>
      <trkpt lat="43.57751" lon="3.66263">
        <ele>246.6</ele>
        <time>2021-04-15T14:25:52Z</time>
      </trkpt>
      <trkpt lat="43.57751" lon="3.66263">
        <ele>256</ele>
        <time>2021-04-15T14:25:52Z</time>
      </trkpt>
      <trkpt lat="43.5775" lon="3.66261">
        <ele>246.7</ele>
        <time>2021-04-15T14:25:54Z</time>
      </trkpt>
      <trkpt lat="43.5775" lon="3.66261">
        <ele>256</ele>
        <time>2021-04-15T14:25:54Z</time>
      </trkpt>
      <trkpt lat="43.57749" lon="3.6626">
        <ele>246.7</ele>
        <time>2021-04-15T14:25:56Z</time>
      </trkpt>
      <trkpt lat="43.57749" lon="3.6626">
        <ele>256</ele>
        <time>2021-04-15T14:25:56Z</time>
      </trkpt>
      <trkpt lat="43.57748" lon="3.66258">
        <ele>246.9</ele>
        <time>2021-04-15T14:25:58Z</time>
      </trkpt>
      <trkpt lat="43.57748" lon="3.66258">
        <ele>256</ele>
        <time>2021-04-15T14:25:58Z</time>
      </trkpt>
      <trkpt lat="43.57747" lon="3.66256">
        <ele>247.1</ele>
        <time>2021-04-15T14:26:00Z</time>
      </trkpt>
      <trkpt lat="43.57747" lon="3.66256">
        <ele>256</ele>
        <time>2021-04-15T14:26:00Z</time>
      </trkpt>
      <trkpt lat="43.57746" lon="3.66255">
        <ele>247.3</ele>
        <time>2021-04-15T14:26:01Z</time>
      </trkpt>
      <trkpt lat="43.57746" lon="3.66255">
        <ele>256</ele>
        <time>2021-04-15T14:26:01Z</time>
      </trkpt>
      <trkpt lat="43.57745" lon="3.66252">
        <ele>247.5</ele>
        <time>2021-04-15T14:26:03Z</time>
      </trkpt>
      <trkpt lat="43.57745" lon="3.66252">
        <ele>257</ele>
        <time>2021-04-15T14:26:03Z</time>
      </trkpt>
      <trkpt lat="43.57743" lon="3.6625">
        <ele>247.6</ele>
        <time>2021-04-15T14:26:05Z</time>
      </trkpt>
      <trkpt lat="43.57743" lon="3.6625">
        <ele>257</ele>
        <time>2021-04-15T14:26:05Z</time>
      </trkpt>
      <trkpt lat="43.57742" lon="3.66248">
        <ele>247.8</ele>
        <time>2021-04-15T14:26:06Z</time>
      </trkpt>
      <trkpt lat="43.57742" lon="3.66248">
        <ele>257</ele>
        <time>2021-04-15T14:26:06Z</time>
      </trkpt>
      <trkpt lat="43.5774" lon="3.66246">
        <ele>247.9</ele>
        <time>2021-04-15T14:26:07Z</time>
      </trkpt>
      <trkpt lat="43.5774" lon="3.66246">
        <ele>257</ele>
        <time>2021-04-15T14:26:07Z</time>
      </trkpt>
      <trkpt lat="43.57739" lon="3.66244">
        <ele>248</ele>
        <time>2021-04-15T14:26:08Z</time>
      </trkpt>
      <trkpt lat="43.57739" lon="3.66244">
        <ele>257</ele>
        <time>2021-04-15T14:26:08Z</time>
      </trkpt>
      <trkpt lat="43.57738" lon="3.66243">
        <ele>248.1</ele>
        <time>2021-04-15T14:26:09Z</time>
      </trkpt>
      <trkpt lat="43.57738" lon="3.66243">
        <ele>257</ele>
        <time>2021-04-15T14:26:09Z</time>
      </trkpt>
      <trkpt lat="43.57736" lon="3.66241">
        <ele>248.1</ele>
        <time>2021-04-15T14:26:11Z</time>
      </trkpt>
      <trkpt lat="43.57736" lon="3.66241">
        <ele>257</ele>
        <time>2021-04-15T14:26:11Z</time>
      </trkpt>
      <trkpt lat="43.57735" lon="3.6624">
        <ele>248.2</ele>
        <time>2021-04-15T14:26:12Z</time>
      </trkpt>
      <trkpt lat="43.57735" lon="3.6624">
        <ele>257</ele>
        <time>2021-04-15T14:26:12Z</time>
      </trkpt>
      <trkpt lat="43.57734" lon="3.66238">
        <ele>248.2</ele>
        <time>2021-04-15T14:26:14Z</time>
      </trkpt>
      <trkpt lat="43.57734" lon="3.66238">
        <ele>257</ele>
        <time>2021-04-15T14:26:14Z</time>
      </trkpt>
      <trkpt lat="43.57732" lon="3.66236">
        <ele>248.3</ele>
        <time>2021-04-15T14:26:16Z</time>
      </trkpt>
      <trkpt lat="43.57732" lon="3.66236">
        <ele>257</ele>
        <time>2021-04-15T14:26:16Z</time>
      </trkpt>
      <trkpt lat="43.57731" lon="3.66235">
        <ele>248.3</ele>
        <time>2021-04-15T14:26:17Z</time>
      </trkpt>
      <trkpt lat="43.57731" lon="3.66235">
        <ele>257</ele>
        <time>2021-04-15T14:26:17Z</time>
      </trkpt>
      <trkpt lat="43.5773" lon="3.66233">
        <ele>248.5</ele>
        <time>2021-04-15T14:26:19Z</time>
      </trkpt>
      <trkpt lat="43.5773" lon="3.66233">
        <ele>257</ele>
        <time>2021-04-15T14:26:19Z</time>
      </trkpt>
      <trkpt lat="43.57729" lon="3.66232">
        <ele>248.6</ele>
        <time>2021-04-15T14:26:20Z</time>
      </trkpt>
      <trkpt lat="43.57729" lon="3.66232">
        <ele>257</ele>
        <time>2021-04-15T14:26:20Z</time>
      </trkpt>
      <trkpt lat="43.57728" lon="3.6623">
        <ele>248.7</ele>
        <time>2021-04-15T14:26:21Z</time>
      </trkpt>
      <trkpt lat="43.57728" lon="3.6623">
        <ele>259</ele>
        <time>2021-04-15T14:26:21Z</time>
      </trkpt>
      <trkpt lat="43.57728" lon="3.66229">
        <ele>248.8</ele>
        <time>2021-04-15T14:26:22Z</time>
      </trkpt>
      <trkpt lat="43.57728" lon="3.66229">
        <ele>259</ele>
        <time>2021-04-15T14:26:22Z</time>
      </trkpt>
      <trkpt lat="43.57726" lon="3.66227">
        <ele>248.9</ele>
        <time>2021-04-15T14:26:24Z</time>
      </trkpt>
      <trkpt lat="43.57726" lon="3.66227">
        <ele>259</ele>
        <time>2021-04-15T14:26:24Z</time>
      </trkpt>
      <trkpt lat="43.57725" lon="3.66225">
        <ele>249.1</ele>
        <time>2021-04-15T14:26:25Z</time>
      </trkpt>
      <trkpt lat="43.57725" lon="3.66225">
        <ele>259</ele>
        <time>2021-04-15T14:26:25Z</time>
      </trkpt>
      <trkpt lat="43.57724" lon="3.66224">
        <ele>249.1</ele>
        <time>2021-04-15T14:26:27Z</time>
      </trkpt>
      <trkpt lat="43.57724" lon="3.66224">
        <ele>259</ele>
        <time>2021-04-15T14:26:27Z</time>
      </trkpt>
      <trkpt lat="43.57724" lon="3.66223">
        <ele>249.3</ele>
        <time>2021-04-15T14:26:28Z</time>
      </trkpt>
      <trkpt lat="43.57724" lon="3.66223">
        <ele>259</ele>
        <time>2021-04-15T14:26:28Z</time>
      </trkpt>
      <trkpt lat="43.57723" lon="3.66222">
        <ele>249.3</ele>
        <time>2021-04-15T14:26:29Z</time>
      </trkpt>
      <trkpt lat="43.57723" lon="3.66222">
        <ele>259</ele>
        <time>2021-04-15T14:26:29Z</time>
      </trkpt>
      <trkpt lat="43.57722" lon="3.6622">
        <ele>249.5</ele>
        <time>2021-04-15T14:26:31Z</time>
      </trkpt>
      <trkpt lat="43.57722" lon="3.6622">
        <ele>259</ele>
        <time>2021-04-15T14:26:31Z</time>
      </trkpt>
      <trkpt lat="43.57721" lon="3.66219">
        <ele>249.7</ele>
        <time>2021-04-15T14:26:32Z</time>
      </trkpt>
      <trkpt lat="43.57721" lon="3.66219">
        <ele>259</ele>
        <time>2021-04-15T14:26:32Z</time>
      </trkpt>
      <trkpt lat="43.5772" lon="3.66218">
        <ele>250</ele>
        <time>2021-04-15T14:26:34Z</time>
      </trkpt>
      <trkpt lat="43.5772" lon="3.66218">
        <ele>259</ele>
        <time>2021-04-15T14:26:34Z</time>
      </trkpt>
      <trkpt lat="43.57719" lon="3.66217">
        <ele>250.1</ele>
        <time>2021-04-15T14:26:36Z</time>
      </trkpt>
      <trkpt lat="43.57719" lon="3.66217">
        <ele>259</ele>
        <time>2021-04-15T14:26:36Z</time>
      </trkpt>
      <trkpt lat="43.57719" lon="3.66216">
        <ele>250.2</ele>
        <time>2021-04-15T14:26:37Z</time>
      </trkpt>
      <trkpt lat="43.57719" lon="3.66216">
        <ele>259</ele>
        <time>2021-04-15T14:26:37Z</time>
      </trkpt>
      <trkpt lat="43.57718" lon="3.66216">
        <ele>250.3</ele>
        <time>2021-04-15T14:26:39Z</time>
      </trkpt>
      <trkpt lat="43.57718" lon="3.66216">
        <ele>261</ele>
        <time>2021-04-15T14:26:39Z</time>
      </trkpt>
      <trkpt lat="43.57717" lon="3.66215">
        <ele>250.5</ele>
        <time>2021-04-15T14:26:41Z</time>
      </trkpt>
      <trkpt lat="43.57717" lon="3.66215">
        <ele>261</ele>
        <time>2021-04-15T14:26:41Z</time>
      </trkpt>
      <trkpt lat="43.57715" lon="3.66214">
        <ele>250.5</ele>
        <time>2021-04-15T14:26:42Z</time>
      </trkpt>
      <trkpt lat="43.57715" lon="3.66214">
        <ele>261</ele>
        <time>2021-04-15T14:26:42Z</time>
      </trkpt>
      <trkpt lat="43.57714" lon="3.66212">
        <ele>250.8</ele>
        <time>2021-04-15T14:26:44Z</time>
      </trkpt>
      <trkpt lat="43.57714" lon="3.66212">
        <ele>261</ele>
        <time>2021-04-15T14:26:44Z</time>
      </trkpt>
      <trkpt lat="43.57713" lon="3.66211">
        <ele>251.1</ele>
        <time>2021-04-15T14:26:46Z</time>
      </trkpt>
      <trkpt lat="43.57713" lon="3.66211">
        <ele>261</ele>
        <time>2021-04-15T14:26:46Z</time>
      </trkpt>
      <trkpt lat="43.57712" lon="3.66209">
        <ele>251.3</ele>
        <time>2021-04-15T14:26:47Z</time>
      </trkpt>
      <trkpt lat="43.57712" lon="3.66209">
        <ele>261</ele>
        <time>2021-04-15T14:26:47Z</time>
      </trkpt>
      <trkpt lat="43.57711" lon="3.66208">
        <ele>251.5</ele>
        <time>2021-04-15T14:26:48Z</time>
      </trkpt>
      <trkpt lat="43.57711" lon="3.66208">
        <ele>261</ele>
        <time>2021-04-15T14:26:48Z</time>
      </trkpt>
      <trkpt lat="43.57711" lon="3.66207">
        <ele>251.8</ele>
        <time>2021-04-15T14:26:49Z</time>
      </trkpt>
      <trkpt lat="43.57711" lon="3.66207">
        <ele>261</ele>
        <time>2021-04-15T14:26:49Z</time>
      </trkpt>
      <trkpt lat="43.5771" lon="3.66205">
        <ele>252</ele>
        <time>2021-04-15T14:26:51Z</time>
      </trkpt>
      <trkpt lat="43.5771" lon="3.66205">
        <ele>261</ele>
        <time>2021-04-15T14:26:51Z</time>
      </trkpt>
      <trkpt lat="43.57708" lon="3.66204">
        <ele>252</ele>
        <time>2021-04-15T14:26:53Z</time>
      </trkpt>
      <trkpt lat="43.57708" lon="3.66204">
        <ele>261</ele>
        <time>2021-04-15T14:26:53Z</time>
      </trkpt>
      <trkpt lat="43.57706" lon="3.66203">
        <ele>252</ele>
        <time>2021-04-15T14:26:55Z</time>
      </trkpt>
      <trkpt lat="43.57706" lon="3.66203">
        <ele>263</ele>
        <time>2021-04-15T14:26:55Z</time>
      </trkpt>
      <trkpt lat="43.57698" lon="3.66191">
        <ele>253.7</ele>
        <time>2021-04-15T14:27:12Z</time>
      </trkpt>
      <trkpt lat="43.57698" lon="3.66191">
        <ele>263</ele>
        <time>2021-04-15T14:27:12Z</time>
      </trkpt>
      <trkpt lat="43.57698" lon="3.6619">
        <ele>253.8</ele>
        <time>2021-04-15T14:27:14Z</time>
      </trkpt>
      <trkpt lat="43.57698" lon="3.6619">
        <ele>263</ele>
        <time>2021-04-15T14:27:14Z</time>
      </trkpt>
      <trkpt lat="43.57697" lon="3.66189">
        <ele>253.9</ele>
        <time>2021-04-15T14:27:15Z</time>
      </trkpt>
      <trkpt lat="43.57697" lon="3.66189">
        <ele>263</ele>
        <time>2021-04-15T14:27:15Z</time>
      </trkpt>
      <trkpt lat="43.57696" lon="3.66188">
        <ele>254</ele>
        <time>2021-04-15T14:27:17Z</time>
      </trkpt>
      <trkpt lat="43.57696" lon="3.66188">
        <ele>263</ele>
        <time>2021-04-15T14:27:17Z</time>
      </trkpt>
      <trkpt lat="43.57695" lon="3.66186">
        <ele>254.1</ele>
        <time>2021-04-15T14:27:19Z</time>
      </trkpt>
      <trkpt lat="43.57695" lon="3.66186">
        <ele>263</ele>
        <time>2021-04-15T14:27:19Z</time>
      </trkpt>
      <trkpt lat="43.57694" lon="3.66185">
        <ele>254.3</ele>
        <time>2021-04-15T14:27:20Z</time>
      </trkpt>
      <trkpt lat="43.57694" lon="3.66185">
        <ele>263</ele>
        <time>2021-04-15T14:27:20Z</time>
      </trkpt>
      <trkpt lat="43.57692" lon="3.66183">
        <ele>254.4</ele>
        <time>2021-04-15T14:27:22Z</time>
      </trkpt>
      <trkpt lat="43.57692" lon="3.66183">
        <ele>263</ele>
        <time>2021-04-15T14:27:22Z</time>
      </trkpt>
      <trkpt lat="43.57691" lon="3.66182">
        <ele>254.6</ele>
        <time>2021-04-15T14:27:23Z</time>
      </trkpt>
      <trkpt lat="43.57691" lon="3.66182">
        <ele>263</ele>
        <time>2021-04-15T14:27:23Z</time>
      </trkpt>
      <trkpt lat="43.5769" lon="3.66181">
        <ele>254.7</ele>
        <time>2021-04-15T14:27:25Z</time>
      </trkpt>
      <trkpt lat="43.5769" lon="3.66181">
        <ele>263</ele>
        <time>2021-04-15T14:27:25Z</time>
      </trkpt>
      <trkpt lat="43.57688" lon="3.66179">
        <ele>254.8</ele>
        <time>2021-04-15T14:27:27Z</time>
      </trkpt>
      <trkpt lat="43.57688" lon="3.66179">
        <ele>263</ele>
        <time>2021-04-15T14:27:27Z</time>
      </trkpt>
      <trkpt lat="43.57687" lon="3.66178">
        <ele>255</ele>
        <time>2021-04-15T14:27:29Z</time>
      </trkpt>
      <trkpt lat="43.57687" lon="3.66178">
        <ele>265</ele>
        <time>2021-04-15T14:27:29Z</time>
      </trkpt>
      <trkpt lat="43.57686" lon="3.66176">
        <ele>255.1</ele>
        <time>2021-04-15T14:27:30Z</time>
      </trkpt>
      <trkpt lat="43.57686" lon="3.66176">
        <ele>265</ele>
        <time>2021-04-15T14:27:30Z</time>
      </trkpt>
      <trkpt lat="43.57685" lon="3.66174">
        <ele>255.3</ele>
        <time>2021-04-15T14:27:32Z</time>
      </trkpt>
      <trkpt lat="43.57685" lon="3.66174">
        <ele>265</ele>
        <time>2021-04-15T14:27:32Z</time>
      </trkpt>
      <trkpt lat="43.57684" lon="3.66173">
        <ele>255.3</ele>
        <time>2021-04-15T14:27:34Z</time>
      </trkpt>
      <trkpt lat="43.57684" lon="3.66173">
        <ele>265</ele>
        <time>2021-04-15T14:27:34Z</time>
      </trkpt>
      <trkpt lat="43.57683" lon="3.66172">
        <ele>255.4</ele>
        <time>2021-04-15T14:27:35Z</time>
      </trkpt>
      <trkpt lat="43.57683" lon="3.66172">
        <ele>265</ele>
        <time>2021-04-15T14:27:35Z</time>
      </trkpt>
      <trkpt lat="43.57682" lon="3.6617">
        <ele>255.6</ele>
        <time>2021-04-15T14:27:37Z</time>
      </trkpt>
      <trkpt lat="43.57682" lon="3.6617">
        <ele>265</ele>
        <time>2021-04-15T14:27:37Z</time>
      </trkpt>
      <trkpt lat="43.57681" lon="3.66169">
        <ele>255.6</ele>
        <time>2021-04-15T14:27:38Z</time>
      </trkpt>
      <trkpt lat="43.57681" lon="3.66169">
        <ele>265</ele>
        <time>2021-04-15T14:27:38Z</time>
      </trkpt>
      <trkpt lat="43.5768" lon="3.66167">
        <ele>255.7</ele>
        <time>2021-04-15T14:27:40Z</time>
      </trkpt>
      <trkpt lat="43.5768" lon="3.66167">
        <ele>265</ele>
        <time>2021-04-15T14:27:40Z</time>
      </trkpt>
      <trkpt lat="43.57679" lon="3.66165">
        <ele>256</ele>
        <time>2021-04-15T14:27:41Z</time>
      </trkpt>
      <trkpt lat="43.57679" lon="3.66165">
        <ele>265</ele>
        <time>2021-04-15T14:27:41Z</time>
      </trkpt>
      <trkpt lat="43.57678" lon="3.66164">
        <ele>256.2</ele>
        <time>2021-04-15T14:27:42Z</time>
      </trkpt>
      <trkpt lat="43.57678" lon="3.66164">
        <ele>265</ele>
        <time>2021-04-15T14:27:42Z</time>
      </trkpt>
      <trkpt lat="43.57677" lon="3.66162">
        <ele>256.3</ele>
        <time>2021-04-15T14:27:44Z</time>
      </trkpt>
      <trkpt lat="43.57677" lon="3.66162">
        <ele>265</ele>
        <time>2021-04-15T14:27:44Z</time>
      </trkpt>
      <trkpt lat="43.57675" lon="3.66161">
        <ele>256.3</ele>
        <time>2021-04-15T14:27:46Z</time>
      </trkpt>
      <trkpt lat="43.57675" lon="3.66161">
        <ele>265</ele>
        <time>2021-04-15T14:27:46Z</time>
      </trkpt>
      <trkpt lat="43.57673" lon="3.66159">
        <ele>256.4</ele>
        <time>2021-04-15T14:27:47Z</time>
      </trkpt>
      <trkpt lat="43.57673" lon="3.66159">
        <ele>265</ele>
        <time>2021-04-15T14:27:47Z</time>
      </trkpt>
      <trkpt lat="43.57672" lon="3.66158">
        <ele>256.4</ele>
        <time>2021-04-15T14:27:48Z</time>
      </trkpt>
      <trkpt lat="43.57672" lon="3.66158">
        <ele>265</ele>
        <time>2021-04-15T14:27:48Z</time>
      </trkpt>
      <trkpt lat="43.57671" lon="3.66157">
        <ele>256.4</ele>
        <time>2021-04-15T14:27:49Z</time>
      </trkpt>
      <trkpt lat="43.57671" lon="3.66157">
        <ele>265</ele>
        <time>2021-04-15T14:27:49Z</time>
      </trkpt>
      <trkpt lat="43.5767" lon="3.66156">
        <ele>256.4</ele>
        <time>2021-04-15T14:27:50Z</time>
      </trkpt>
      <trkpt lat="43.5767" lon="3.66156">
        <ele>265</ele>
        <time>2021-04-15T14:27:50Z</time>
      </trkpt>
      <trkpt lat="43.57668" lon="3.66155">
        <ele>256.4</ele>
        <time>2021-04-15T14:27:52Z</time>
      </trkpt>
      <trkpt lat="43.57668" lon="3.66155">
        <ele>265</ele>
        <time>2021-04-15T14:27:52Z</time>
      </trkpt>
      <trkpt lat="43.57667" lon="3.66154">
        <ele>256.4</ele>
        <time>2021-04-15T14:27:53Z</time>
      </trkpt>
      <trkpt lat="43.57667" lon="3.66154">
        <ele>265</ele>
        <time>2021-04-15T14:27:53Z</time>
      </trkpt>
      <trkpt lat="43.57666" lon="3.66153">
        <ele>256.5</ele>
        <time>2021-04-15T14:27:55Z</time>
      </trkpt>
      <trkpt lat="43.57666" lon="3.66153">
        <ele>265</ele>
        <time>2021-04-15T14:27:55Z</time>
      </trkpt>
      <trkpt lat="43.57665" lon="3.66152">
        <ele>256.6</ele>
        <time>2021-04-15T14:27:57Z</time>
      </trkpt>
      <trkpt lat="43.57665" lon="3.66152">
        <ele>265</ele>
        <time>2021-04-15T14:27:57Z</time>
      </trkpt>
      <trkpt lat="43.57663" lon="3.6615">
        <ele>256.7</ele>
        <time>2021-04-15T14:27:58Z</time>
      </trkpt>
      <trkpt lat="43.57663" lon="3.6615">
        <ele>265</ele>
        <time>2021-04-15T14:27:58Z</time>
      </trkpt>
      <trkpt lat="43.57662" lon="3.66149">
        <ele>256.8</ele>
        <time>2021-04-15T14:27:59Z</time>
      </trkpt>
      <trkpt lat="43.57662" lon="3.66149">
        <ele>265</ele>
        <time>2021-04-15T14:27:59Z</time>
      </trkpt>
      <trkpt lat="43.57661" lon="3.66148">
        <ele>256.9</ele>
        <time>2021-04-15T14:28:01Z</time>
      </trkpt>
      <trkpt lat="43.57661" lon="3.66148">
        <ele>265</ele>
        <time>2021-04-15T14:28:01Z</time>
      </trkpt>
      <trkpt lat="43.57659" lon="3.66146">
        <ele>257</ele>
        <time>2021-04-15T14:28:02Z</time>
      </trkpt>
      <trkpt lat="43.57659" lon="3.66146">
        <ele>265</ele>
        <time>2021-04-15T14:28:02Z</time>
      </trkpt>
      <trkpt lat="43.57658" lon="3.66145">
        <ele>257.1</ele>
        <time>2021-04-15T14:28:03Z</time>
      </trkpt>
      <trkpt lat="43.57658" lon="3.66145">
        <ele>267</ele>
        <time>2021-04-15T14:28:03Z</time>
      </trkpt>
      <trkpt lat="43.57657" lon="3.66143">
        <ele>257.2</ele>
        <time>2021-04-15T14:28:05Z</time>
      </trkpt>
      <trkpt lat="43.57657" lon="3.66143">
        <ele>267</ele>
        <time>2021-04-15T14:28:05Z</time>
      </trkpt>
      <trkpt lat="43.57656" lon="3.66141">
        <ele>257.2</ele>
        <time>2021-04-15T14:28:07Z</time>
      </trkpt>
      <trkpt lat="43.57656" lon="3.66141">
        <ele>267</ele>
        <time>2021-04-15T14:28:07Z</time>
      </trkpt>
      <trkpt lat="43.57654" lon="3.66139">
        <ele>257.2</ele>
        <time>2021-04-15T14:28:09Z</time>
      </trkpt>
      <trkpt lat="43.57654" lon="3.66139">
        <ele>267</ele>
        <time>2021-04-15T14:28:09Z</time>
      </trkpt>
      <trkpt lat="43.57652" lon="3.66137">
        <ele>257.3</ele>
        <time>2021-04-15T14:28:11Z</time>
      </trkpt>
      <trkpt lat="43.57652" lon="3.66137">
        <ele>267</ele>
        <time>2021-04-15T14:28:11Z</time>
      </trkpt>
      <trkpt lat="43.57651" lon="3.66135">
        <ele>257.5</ele>
        <time>2021-04-15T14:28:12Z</time>
      </trkpt>
      <trkpt lat="43.57651" lon="3.66135">
        <ele>267</ele>
        <time>2021-04-15T14:28:12Z</time>
      </trkpt>
      <trkpt lat="43.5765" lon="3.66134">
        <ele>257.7</ele>
        <time>2021-04-15T14:28:14Z</time>
      </trkpt>
      <trkpt lat="43.5765" lon="3.66134">
        <ele>267</ele>
        <time>2021-04-15T14:28:14Z</time>
      </trkpt>
      <trkpt lat="43.57649" lon="3.66133">
        <ele>257.8</ele>
        <time>2021-04-15T14:28:15Z</time>
      </trkpt>
      <trkpt lat="43.57649" lon="3.66133">
        <ele>267</ele>
        <time>2021-04-15T14:28:15Z</time>
      </trkpt>
      <trkpt lat="43.57648" lon="3.66132">
        <ele>257.8</ele>
        <time>2021-04-15T14:28:17Z</time>
      </trkpt>
      <trkpt lat="43.57648" lon="3.66132">
        <ele>267</ele>
        <time>2021-04-15T14:28:17Z</time>
      </trkpt>
      <trkpt lat="43.57647" lon="3.66131">
        <ele>257.9</ele>
        <time>2021-04-15T14:28:18Z</time>
      </trkpt>
      <trkpt lat="43.57647" lon="3.66131">
        <ele>267</ele>
        <time>2021-04-15T14:28:18Z</time>
      </trkpt>
      <trkpt lat="43.57646" lon="3.6613">
        <ele>257.9</ele>
        <time>2021-04-15T14:28:20Z</time>
      </trkpt>
      <trkpt lat="43.57646" lon="3.6613">
        <ele>268</ele>
        <time>2021-04-15T14:28:20Z</time>
      </trkpt>
      <trkpt lat="43.57646" lon="3.66129">
        <ele>258</ele>
        <time>2021-04-15T14:28:22Z</time>
      </trkpt>
      <trkpt lat="43.57646" lon="3.66129">
        <ele>268</ele>
        <time>2021-04-15T14:28:22Z</time>
      </trkpt>
      <trkpt lat="43.57644" lon="3.66127">
        <ele>258.1</ele>
        <time>2021-04-15T14:28:24Z</time>
      </trkpt>
      <trkpt lat="43.57644" lon="3.66127">
        <ele>268</ele>
        <time>2021-04-15T14:28:24Z</time>
      </trkpt>
      <trkpt lat="43.57643" lon="3.66126">
        <ele>258.2</ele>
        <time>2021-04-15T14:28:25Z</time>
      </trkpt>
      <trkpt lat="43.57643" lon="3.66126">
        <ele>268</ele>
        <time>2021-04-15T14:28:25Z</time>
      </trkpt>
      <trkpt lat="43.57642" lon="3.66125">
        <ele>258.2</ele>
        <time>2021-04-15T14:28:27Z</time>
      </trkpt>
      <trkpt lat="43.57642" lon="3.66125">
        <ele>268</ele>
        <time>2021-04-15T14:28:27Z</time>
      </trkpt>
      <trkpt lat="43.5764" lon="3.66123">
        <ele>258.2</ele>
        <time>2021-04-15T14:28:29Z</time>
      </trkpt>
      <trkpt lat="43.5764" lon="3.66123">
        <ele>268</ele>
        <time>2021-04-15T14:28:29Z</time>
      </trkpt>
      <trkpt lat="43.57639" lon="3.66122">
        <ele>258.2</ele>
        <time>2021-04-15T14:28:30Z</time>
      </trkpt>
      <trkpt lat="43.57639" lon="3.66122">
        <ele>268</ele>
        <time>2021-04-15T14:28:30Z</time>
      </trkpt>
      <trkpt lat="43.57637" lon="3.66121">
        <ele>258.6</ele>
        <time>2021-04-15T14:28:32Z</time>
      </trkpt>
      <trkpt lat="43.57637" lon="3.66121">
        <ele>268</ele>
        <time>2021-04-15T14:28:32Z</time>
      </trkpt>
      <trkpt lat="43.57636" lon="3.66119">
        <ele>259</ele>
        <time>2021-04-15T14:28:33Z</time>
      </trkpt>
      <trkpt lat="43.57636" lon="3.66119">
        <ele>268</ele>
        <time>2021-04-15T14:28:33Z</time>
      </trkpt>
      <trkpt lat="43.57635" lon="3.66117">
        <ele>259.3</ele>
        <time>2021-04-15T14:28:35Z</time>
      </trkpt>
      <trkpt lat="43.57635" lon="3.66117">
        <ele>268</ele>
        <time>2021-04-15T14:28:35Z</time>
      </trkpt>
      <trkpt lat="43.57633" lon="3.66115">
        <ele>259.5</ele>
        <time>2021-04-15T14:28:37Z</time>
      </trkpt>
      <trkpt lat="43.57633" lon="3.66115">
        <ele>270</ele>
        <time>2021-04-15T14:28:37Z</time>
      </trkpt>
      <trkpt lat="43.57631" lon="3.66113">
        <ele>259.6</ele>
        <time>2021-04-15T14:28:38Z</time>
      </trkpt>
      <trkpt lat="43.57631" lon="3.66113">
        <ele>270</ele>
        <time>2021-04-15T14:28:38Z</time>
      </trkpt>
      <trkpt lat="43.5763" lon="3.66112">
        <ele>259.6</ele>
        <time>2021-04-15T14:28:40Z</time>
      </trkpt>
      <trkpt lat="43.5763" lon="3.66112">
        <ele>270</ele>
        <time>2021-04-15T14:28:40Z</time>
      </trkpt>
      <trkpt lat="43.57628" lon="3.6611">
        <ele>259.6</ele>
        <time>2021-04-15T14:28:41Z</time>
      </trkpt>
      <trkpt lat="43.57628" lon="3.6611">
        <ele>270</ele>
        <time>2021-04-15T14:28:41Z</time>
      </trkpt>
      <trkpt lat="43.57627" lon="3.66109">
        <ele>259.8</ele>
        <time>2021-04-15T14:28:43Z</time>
      </trkpt>
      <trkpt lat="43.57627" lon="3.66109">
        <ele>270</ele>
        <time>2021-04-15T14:28:43Z</time>
      </trkpt>
      <trkpt lat="43.57626" lon="3.66108">
        <ele>259.9</ele>
        <time>2021-04-15T14:28:44Z</time>
      </trkpt>
      <trkpt lat="43.57626" lon="3.66108">
        <ele>270</ele>
        <time>2021-04-15T14:28:44Z</time>
      </trkpt>
      <trkpt lat="43.57624" lon="3.66106">
        <ele>259.9</ele>
        <time>2021-04-15T14:28:46Z</time>
      </trkpt>
      <trkpt lat="43.57624" lon="3.66106">
        <ele>270</ele>
        <time>2021-04-15T14:28:46Z</time>
      </trkpt>
      <trkpt lat="43.57623" lon="3.66105">
        <ele>259.9</ele>
        <time>2021-04-15T14:28:47Z</time>
      </trkpt>
      <trkpt lat="43.57623" lon="3.66105">
        <ele>270</ele>
        <time>2021-04-15T14:28:47Z</time>
      </trkpt>
      <trkpt lat="43.57622" lon="3.66104">
        <ele>260</ele>
        <time>2021-04-15T14:28:49Z</time>
      </trkpt>
      <trkpt lat="43.57622" lon="3.66104">
        <ele>270</ele>
        <time>2021-04-15T14:28:49Z</time>
      </trkpt>
      <trkpt lat="43.5762" lon="3.66102">
        <ele>260.2</ele>
        <time>2021-04-15T14:28:51Z</time>
      </trkpt>
      <trkpt lat="43.5762" lon="3.66102">
        <ele>270</ele>
        <time>2021-04-15T14:28:51Z</time>
      </trkpt>
      <trkpt lat="43.57619" lon="3.661">
        <ele>260.3</ele>
        <time>2021-04-15T14:28:53Z</time>
      </trkpt>
      <trkpt lat="43.57619" lon="3.661">
        <ele>270</ele>
        <time>2021-04-15T14:28:53Z</time>
      </trkpt>
      <trkpt lat="43.57617" lon="3.66098">
        <ele>260.4</ele>
        <time>2021-04-15T14:28:55Z</time>
      </trkpt>
      <trkpt lat="43.57617" lon="3.66098">
        <ele>271</ele>
        <time>2021-04-15T14:28:55Z</time>
      </trkpt>
      <trkpt lat="43.57615" lon="3.66096">
        <ele>260.4</ele>
        <time>2021-04-15T14:28:57Z</time>
      </trkpt>
      <trkpt lat="43.57615" lon="3.66096">
        <ele>271</ele>
        <time>2021-04-15T14:28:57Z</time>
      </trkpt>
      <trkpt lat="43.57614" lon="3.66095">
        <ele>260.4</ele>
        <time>2021-04-15T14:28:59Z</time>
      </trkpt>
      <trkpt lat="43.57614" lon="3.66095">
        <ele>271</ele>
        <time>2021-04-15T14:28:59Z</time>
      </trkpt>
      <trkpt lat="43.57612" lon="3.66093">
        <ele>260.4</ele>
        <time>2021-04-15T14:29:01Z</time>
      </trkpt>
      <trkpt lat="43.57612" lon="3.66093">
        <ele>271</ele>
        <time>2021-04-15T14:29:01Z</time>
      </trkpt>
      <trkpt lat="43.57611" lon="3.66091">
        <ele>260.6</ele>
        <time>2021-04-15T14:29:03Z</time>
      </trkpt>
      <trkpt lat="43.57611" lon="3.66091">
        <ele>271</ele>
        <time>2021-04-15T14:29:03Z</time>
      </trkpt>
      <trkpt lat="43.5761" lon="3.6609">
        <ele>261</ele>
        <time>2021-04-15T14:29:05Z</time>
      </trkpt>
      <trkpt lat="43.5761" lon="3.6609">
        <ele>271</ele>
        <time>2021-04-15T14:29:05Z</time>
      </trkpt>
      <trkpt lat="43.57609" lon="3.66089">
        <ele>261.3</ele>
        <time>2021-04-15T14:29:07Z</time>
      </trkpt>
      <trkpt lat="43.57609" lon="3.66089">
        <ele>271</ele>
        <time>2021-04-15T14:29:07Z</time>
      </trkpt>
      <trkpt lat="43.57603" lon="3.66078">
        <ele>263.6</ele>
        <time>2021-04-15T14:29:57Z</time>
      </trkpt>
      <trkpt lat="43.57603" lon="3.66078">
        <ele>272</ele>
        <time>2021-04-15T14:29:57Z</time>
      </trkpt>
      <trkpt lat="43.57603" lon="3.66078">
        <ele>263.6</ele>
        <time>2021-04-15T14:29:59Z</time>
      </trkpt>
      <trkpt lat="43.57603" lon="3.66078">
        <ele>272</ele>
        <time>2021-04-15T14:29:59Z</time>
      </trkpt>
      <trkpt lat="43.57603" lon="3.66078">
        <ele>263.6</ele>
        <time>2021-04-15T14:30:00Z</time>
      </trkpt>
      <trkpt lat="43.57603" lon="3.66078">
        <ele>272</ele>
        <time>2021-04-15T14:30:00Z</time>
      </trkpt>
      <trkpt lat="43.57603" lon="3.66078">
        <ele>263.6</ele>
        <time>2021-04-15T14:30:02Z</time>
      </trkpt>
      <trkpt lat="43.57603" lon="3.66078">
        <ele>272</ele>
        <time>2021-04-15T14:30:02Z</time>
      </trkpt>
      <trkpt lat="43.57602" lon="3.66078">
        <ele>263.6</ele>
        <time>2021-04-15T14:30:03Z</time>
      </trkpt>
      <trkpt lat="43.57602" lon="3.66078">
        <ele>272</ele>
        <time>2021-04-15T14:30:03Z</time>
      </trkpt>
      <trkpt lat="43.57601" lon="3.66079">
        <ele>263.6</ele>
        <time>2021-04-15T14:30:05Z</time>
      </trkpt>
      <trkpt lat="43.57601" lon="3.66079">
        <ele>272</ele>
        <time>2021-04-15T14:30:05Z</time>
      </trkpt>
      <trkpt lat="43.576" lon="3.66078">
        <ele>263.7</ele>
        <time>2021-04-15T14:30:06Z</time>
      </trkpt>
      <trkpt lat="43.576" lon="3.66078">
        <ele>272</ele>
        <time>2021-04-15T14:30:06Z</time>
      </trkpt>
      <trkpt lat="43.57599" lon="3.66078">
        <ele>263.8</ele>
        <time>2021-04-15T14:30:08Z</time>
      </trkpt>
      <trkpt lat="43.57599" lon="3.66078">
        <ele>272</ele>
        <time>2021-04-15T14:30:08Z</time>
      </trkpt>
      <trkpt lat="43.57598" lon="3.66078">
        <ele>263.8</ele>
        <time>2021-04-15T14:30:10Z</time>
      </trkpt>
      <trkpt lat="43.57598" lon="3.66078">
        <ele>272</ele>
        <time>2021-04-15T14:30:10Z</time>
      </trkpt>
      <trkpt lat="43.57598" lon="3.66078">
        <ele>263.9</ele>
        <time>2021-04-15T14:30:12Z</time>
      </trkpt>
      <trkpt lat="43.57598" lon="3.66078">
        <ele>272</ele>
        <time>2021-04-15T14:30:12Z</time>
      </trkpt>
      <trkpt lat="43.57597" lon="3.66078">
        <ele>263.9</ele>
        <time>2021-04-15T14:30:13Z</time>
      </trkpt>
      <trkpt lat="43.57597" lon="3.66078">
        <ele>272</ele>
        <time>2021-04-15T14:30:13Z</time>
      </trkpt>
      <trkpt lat="43.57596" lon="3.66079">
        <ele>263.9</ele>
        <time>2021-04-15T14:30:15Z</time>
      </trkpt>
      <trkpt lat="43.57596" lon="3.66079">
        <ele>272</ele>
        <time>2021-04-15T14:30:15Z</time>
      </trkpt>
      <trkpt lat="43.57595" lon="3.6608">
        <ele>263.9</ele>
        <time>2021-04-15T14:30:16Z</time>
      </trkpt>
      <trkpt lat="43.57595" lon="3.6608">
        <ele>272</ele>
        <time>2021-04-15T14:30:16Z</time>
      </trkpt>
      <trkpt lat="43.57594" lon="3.6608">
        <ele>264</ele>
        <time>2021-04-15T14:30:17Z</time>
      </trkpt>
      <trkpt lat="43.57594" lon="3.6608">
        <ele>272</ele>
        <time>2021-04-15T14:30:17Z</time>
      </trkpt>
      <trkpt lat="43.57593" lon="3.66081">
        <ele>264.1</ele>
        <time>2021-04-15T14:30:19Z</time>
      </trkpt>
      <trkpt lat="43.57593" lon="3.66081">
        <ele>276</ele>
        <time>2021-04-15T14:30:19Z</time>
      </trkpt>
      <trkpt lat="43.57591" lon="3.66081">
        <ele>264.2</ele>
        <time>2021-04-15T14:30:21Z</time>
      </trkpt>
      <trkpt lat="43.57591" lon="3.66081">
        <ele>276</ele>
        <time>2021-04-15T14:30:21Z</time>
      </trkpt>
      <trkpt lat="43.5759" lon="3.66081">
        <ele>264.3</ele>
        <time>2021-04-15T14:30:23Z</time>
      </trkpt>
      <trkpt lat="43.5759" lon="3.66081">
        <ele>276</ele>
        <time>2021-04-15T14:30:23Z</time>
      </trkpt>
      <trkpt lat="43.57589" lon="3.66081">
        <ele>264.4</ele>
        <time>2021-04-15T14:30:24Z</time>
      </trkpt>
      <trkpt lat="43.57589" lon="3.66081">
        <ele>276</ele>
        <time>2021-04-15T14:30:24Z</time>
      </trkpt>
      <trkpt lat="43.57586" lon="3.66081">
        <ele>264.7</ele>
        <time>2021-04-15T14:30:29Z</time>
      </trkpt>
      <trkpt lat="43.57586" lon="3.66081">
        <ele>276</ele>
        <time>2021-04-15T14:30:29Z</time>
      </trkpt>
      <trkpt lat="43.57586" lon="3.66081">
        <ele>264.7</ele>
        <time>2021-04-15T14:30:30Z</time>
      </trkpt>
      <trkpt lat="43.57586" lon="3.66081">
        <ele>276</ele>
        <time>2021-04-15T14:30:30Z</time>
      </trkpt>
      <trkpt lat="43.57585" lon="3.66081">
        <ele>264.7</ele>
        <time>2021-04-15T14:30:32Z</time>
      </trkpt>
      <trkpt lat="43.57585" lon="3.66081">
        <ele>277</ele>
        <time>2021-04-15T14:30:32Z</time>
      </trkpt>
      <trkpt lat="43.57585" lon="3.66081">
        <ele>264.7</ele>
        <time>2021-04-15T14:30:34Z</time>
      </trkpt>
      <trkpt lat="43.57585" lon="3.66081">
        <ele>277</ele>
        <time>2021-04-15T14:30:34Z</time>
      </trkpt>
      <trkpt lat="43.57584" lon="3.66081">
        <ele>264.8</ele>
        <time>2021-04-15T14:30:36Z</time>
      </trkpt>
      <trkpt lat="43.57584" lon="3.66081">
        <ele>280</ele>
        <time>2021-04-15T14:30:36Z</time>
      </trkpt>
      <trkpt lat="43.57583" lon="3.66081">
        <ele>265</ele>
        <time>2021-04-15T14:30:38Z</time>
      </trkpt>
      <trkpt lat="43.57583" lon="3.66081">
        <ele>280</ele>
        <time>2021-04-15T14:30:38Z</time>
      </trkpt>
      <trkpt lat="43.57582" lon="3.66081">
        <ele>265.3</ele>
        <time>2021-04-15T14:30:39Z</time>
      </trkpt>
      <trkpt lat="43.57582" lon="3.66081">
        <ele>280</ele>
        <time>2021-04-15T14:30:39Z</time>
      </trkpt>
      <trkpt lat="43.57582" lon="3.66081">
        <ele>265.5</ele>
        <time>2021-04-15T14:30:40Z</time>
      </trkpt>
      <trkpt lat="43.57582" lon="3.66081">
        <ele>280</ele>
        <time>2021-04-15T14:30:40Z</time>
      </trkpt>
      <trkpt lat="43.57581" lon="3.66081">
        <ele>265.9</ele>
        <time>2021-04-15T14:30:42Z</time>
      </trkpt>
      <trkpt lat="43.57581" lon="3.66081">
        <ele>280</ele>
        <time>2021-04-15T14:30:42Z</time>
      </trkpt>
      <trkpt lat="43.57581" lon="3.66082">
        <ele>266.1</ele>
        <time>2021-04-15T14:30:43Z</time>
      </trkpt>
      <trkpt lat="43.57581" lon="3.66082">
        <ele>280</ele>
        <time>2021-04-15T14:30:43Z</time>
      </trkpt>
      <trkpt lat="43.5758" lon="3.66082">
        <ele>266.5</ele>
        <time>2021-04-15T14:30:44Z</time>
      </trkpt>
      <trkpt lat="43.5758" lon="3.66082">
        <ele>280</ele>
        <time>2021-04-15T14:30:44Z</time>
      </trkpt>
      <trkpt lat="43.57579" lon="3.66082">
        <ele>266.9</ele>
        <time>2021-04-15T14:30:45Z</time>
      </trkpt>
      <trkpt lat="43.57579" lon="3.66082">
        <ele>281</ele>
        <time>2021-04-15T14:30:45Z</time>
      </trkpt>
      <trkpt lat="43.57578" lon="3.66082">
        <ele>267.4</ele>
        <time>2021-04-15T14:30:47Z</time>
      </trkpt>
      <trkpt lat="43.57578" lon="3.66082">
        <ele>281</ele>
        <time>2021-04-15T14:30:47Z</time>
      </trkpt>
      <trkpt lat="43.57577" lon="3.66083">
        <ele>267.8</ele>
        <time>2021-04-15T14:30:48Z</time>
      </trkpt>
      <trkpt lat="43.57577" lon="3.66083">
        <ele>281</ele>
        <time>2021-04-15T14:30:48Z</time>
      </trkpt>
      <trkpt lat="43.57576" lon="3.66082">
        <ele>268.2</ele>
        <time>2021-04-15T14:30:50Z</time>
      </trkpt>
      <trkpt lat="43.57576" lon="3.66082">
        <ele>281</ele>
        <time>2021-04-15T14:30:50Z</time>
      </trkpt>
      <trkpt lat="43.57575" lon="3.66082">
        <ele>268.6</ele>
        <time>2021-04-15T14:30:51Z</time>
      </trkpt>
      <trkpt lat="43.57575" lon="3.66082">
        <ele>281</ele>
        <time>2021-04-15T14:30:51Z</time>
      </trkpt>
      <trkpt lat="43.57574" lon="3.66082">
        <ele>269.1</ele>
        <time>2021-04-15T14:30:53Z</time>
      </trkpt>
      <trkpt lat="43.57574" lon="3.66082">
        <ele>284</ele>
        <time>2021-04-15T14:30:53Z</time>
      </trkpt>
      <trkpt lat="43.57573" lon="3.66083">
        <ele>269.6</ele>
        <time>2021-04-15T14:30:55Z</time>
      </trkpt>
      <trkpt lat="43.57573" lon="3.66083">
        <ele>284</ele>
        <time>2021-04-15T14:30:55Z</time>
      </trkpt>
      <trkpt lat="43.57572" lon="3.66082">
        <ele>270.1</ele>
        <time>2021-04-15T14:30:57Z</time>
      </trkpt>
      <trkpt lat="43.57572" lon="3.66082">
        <ele>284</ele>
        <time>2021-04-15T14:30:57Z</time>
      </trkpt>
      <trkpt lat="43.57571" lon="3.66082">
        <ele>270.7</ele>
        <time>2021-04-15T14:30:59Z</time>
      </trkpt>
      <trkpt lat="43.57571" lon="3.66082">
        <ele>284</ele>
        <time>2021-04-15T14:30:59Z</time>
      </trkpt>
      <trkpt lat="43.5757" lon="3.66082">
        <ele>271.2</ele>
        <time>2021-04-15T14:31:00Z</time>
      </trkpt>
      <trkpt lat="43.5757" lon="3.66082">
        <ele>284</ele>
        <time>2021-04-15T14:31:00Z</time>
      </trkpt>
      <trkpt lat="43.57569" lon="3.66081">
        <ele>271.7</ele>
        <time>2021-04-15T14:31:01Z</time>
      </trkpt>
      <trkpt lat="43.57569" lon="3.66081">
        <ele>285</ele>
        <time>2021-04-15T14:31:01Z</time>
      </trkpt>
      <trkpt lat="43.57568" lon="3.6608">
        <ele>272.1</ele>
        <time>2021-04-15T14:31:03Z</time>
      </trkpt>
      <trkpt lat="43.57568" lon="3.6608">
        <ele>285</ele>
        <time>2021-04-15T14:31:03Z</time>
      </trkpt>
      <trkpt lat="43.57566" lon="3.6608">
        <ele>273</ele>
        <time>2021-04-15T14:31:06Z</time>
      </trkpt>
      <trkpt lat="43.57566" lon="3.6608">
        <ele>285</ele>
        <time>2021-04-15T14:31:06Z</time>
      </trkpt>
      <trkpt lat="43.57566" lon="3.6608">
        <ele>273.1</ele>
        <time>2021-04-15T14:31:08Z</time>
      </trkpt>
      <trkpt lat="43.57566" lon="3.6608">
        <ele>285</ele>
        <time>2021-04-15T14:31:08Z</time>
      </trkpt>
      <trkpt lat="43.57564" lon="3.66087">
        <ele>274.5</ele>
        <time>2021-04-15T14:31:26Z</time>
      </trkpt>
      <trkpt lat="43.57564" lon="3.66087">
        <ele>287</ele>
        <time>2021-04-15T14:31:26Z</time>
      </trkpt>
      <trkpt lat="43.57564" lon="3.66086">
        <ele>274.6</ele>
        <time>2021-04-15T14:31:27Z</time>
      </trkpt>
      <trkpt lat="43.57564" lon="3.66086">
        <ele>288</ele>
        <time>2021-04-15T14:31:27Z</time>
      </trkpt>
      <trkpt lat="43.57563" lon="3.66086">
        <ele>274.6</ele>
        <time>2021-04-15T14:31:29Z</time>
      </trkpt>
      <trkpt lat="43.57563" lon="3.66086">
        <ele>288</ele>
        <time>2021-04-15T14:31:29Z</time>
      </trkpt>
      <trkpt lat="43.57563" lon="3.66086">
        <ele>274.8</ele>
        <time>2021-04-15T14:31:30Z</time>
      </trkpt>
      <trkpt lat="43.57563" lon="3.66086">
        <ele>288</ele>
        <time>2021-04-15T14:31:30Z</time>
      </trkpt>
      <trkpt lat="43.57563" lon="3.66086">
        <ele>275</ele>
        <time>2021-04-15T14:31:32Z</time>
      </trkpt>
      <trkpt lat="43.57563" lon="3.66086">
        <ele>288</ele>
        <time>2021-04-15T14:31:32Z</time>
      </trkpt>
      <trkpt lat="43.57561" lon="3.66088">
        <ele>275.8</ele>
        <time>2021-04-15T14:31:35Z</time>
      </trkpt>
      <trkpt lat="43.57561" lon="3.66088">
        <ele>288</ele>
        <time>2021-04-15T14:31:35Z</time>
      </trkpt>
      <trkpt lat="43.57561" lon="3.66088">
        <ele>275.8</ele>
        <time>2021-04-15T14:31:37Z</time>
      </trkpt>
      <trkpt lat="43.57561" lon="3.66088">
        <ele>288</ele>
        <time>2021-04-15T14:31:37Z</time>
      </trkpt>
      <trkpt lat="43.57561" lon="3.66088">
        <ele>275.9</ele>
        <time>2021-04-15T14:31:40Z</time>
      </trkpt>
      <trkpt lat="43.57561" lon="3.66088">
        <ele>288</ele>
        <time>2021-04-15T14:31:40Z</time>
      </trkpt>
      <trkpt lat="43.57561" lon="3.66088">
        <ele>276</ele>
        <time>2021-04-15T14:31:41Z</time>
      </trkpt>
      <trkpt lat="43.57561" lon="3.66088">
        <ele>288</ele>
        <time>2021-04-15T14:31:41Z</time>
      </trkpt>
      <trkpt lat="43.57561" lon="3.66088">
        <ele>276.1</ele>
        <time>2021-04-15T14:31:42Z</time>
      </trkpt>
      <trkpt lat="43.57561" lon="3.66088">
        <ele>288</ele>
        <time>2021-04-15T14:31:42Z</time>
      </trkpt>
      <trkpt lat="43.5756" lon="3.66089">
        <ele>276.3</ele>
        <time>2021-04-15T14:31:43Z</time>
      </trkpt>
      <trkpt lat="43.5756" lon="3.66089">
        <ele>288</ele>
        <time>2021-04-15T14:31:43Z</time>
      </trkpt>
      <trkpt lat="43.57558" lon="3.66091">
        <ele>277.3</ele>
        <time>2021-04-15T14:31:47Z</time>
      </trkpt>
      <trkpt lat="43.57558" lon="3.66091">
        <ele>292</ele>
        <time>2021-04-15T14:31:47Z</time>
      </trkpt>
      <trkpt lat="43.57558" lon="3.66091">
        <ele>277.4</ele>
        <time>2021-04-15T14:31:48Z</time>
      </trkpt>
      <trkpt lat="43.57558" lon="3.66091">
        <ele>292</ele>
        <time>2021-04-15T14:31:48Z</time>
      </trkpt>
      <trkpt lat="43.57558" lon="3.66091">
        <ele>277.7</ele>
        <time>2021-04-15T14:31:49Z</time>
      </trkpt>
      <trkpt lat="43.57558" lon="3.66091">
        <ele>292</ele>
        <time>2021-04-15T14:31:49Z</time>
      </trkpt>
      <trkpt lat="43.57557" lon="3.66091">
        <ele>277.8</ele>
        <time>2021-04-15T14:31:51Z</time>
      </trkpt>
      <trkpt lat="43.57557" lon="3.66091">
        <ele>292</ele>
        <time>2021-04-15T14:31:51Z</time>
      </trkpt>
      <trkpt lat="43.57556" lon="3.66092">
        <ele>278.2</ele>
        <time>2021-04-15T14:31:53Z</time>
      </trkpt>
      <trkpt lat="43.57556" lon="3.66092">
        <ele>292</ele>
        <time>2021-04-15T14:31:53Z</time>
      </trkpt>
      <trkpt lat="43.57556" lon="3.66092">
        <ele>278.5</ele>
        <time>2021-04-15T14:31:54Z</time>
      </trkpt>
      <trkpt lat="43.57556" lon="3.66092">
        <ele>292</ele>
        <time>2021-04-15T14:31:54Z</time>
      </trkpt>
      <trkpt lat="43.57555" lon="3.66094">
        <ele>279</ele>
        <time>2021-04-15T14:31:55Z</time>
      </trkpt>
      <trkpt lat="43.57555" lon="3.66094">
        <ele>292</ele>
        <time>2021-04-15T14:31:55Z</time>
      </trkpt>
      <trkpt lat="43.57554" lon="3.66095">
        <ele>279.5</ele>
        <time>2021-04-15T14:31:57Z</time>
      </trkpt>
      <trkpt lat="43.57554" lon="3.66095">
        <ele>293</ele>
        <time>2021-04-15T14:31:57Z</time>
      </trkpt>
      <trkpt lat="43.57553" lon="3.66096">
        <ele>279.9</ele>
        <time>2021-04-15T14:31:58Z</time>
      </trkpt>
      <trkpt lat="43.57553" lon="3.66096">
        <ele>293</ele>
        <time>2021-04-15T14:31:58Z</time>
      </trkpt>
      <trkpt lat="43.57551" lon="3.66098">
        <ele>280.9</ele>
        <time>2021-04-15T14:32:01Z</time>
      </trkpt>
      <trkpt lat="43.57551" lon="3.66098">
        <ele>295</ele>
        <time>2021-04-15T14:32:01Z</time>
      </trkpt>
      <trkpt lat="43.57547" lon="3.66103">
        <ele>283</ele>
        <time>2021-04-15T14:32:17Z</time>
      </trkpt>
      <trkpt lat="43.57547" lon="3.66103">
        <ele>295</ele>
        <time>2021-04-15T14:32:17Z</time>
      </trkpt>
      <trkpt lat="43.57547" lon="3.66103">
        <ele>283.1</ele>
        <time>2021-04-15T14:32:18Z</time>
      </trkpt>
      <trkpt lat="43.57547" lon="3.66103">
        <ele>297</ele>
        <time>2021-04-15T14:32:18Z</time>
      </trkpt>
      <trkpt lat="43.57546" lon="3.66104">
        <ele>283.4</ele>
        <time>2021-04-15T14:32:20Z</time>
      </trkpt>
      <trkpt lat="43.57546" lon="3.66104">
        <ele>297</ele>
        <time>2021-04-15T14:32:20Z</time>
      </trkpt>
      <trkpt lat="43.57546" lon="3.66104">
        <ele>283.6</ele>
        <time>2021-04-15T14:32:21Z</time>
      </trkpt>
      <trkpt lat="43.57546" lon="3.66104">
        <ele>297</ele>
        <time>2021-04-15T14:32:21Z</time>
      </trkpt>
      <trkpt lat="43.57545" lon="3.66105">
        <ele>284</ele>
        <time>2021-04-15T14:32:23Z</time>
      </trkpt>
      <trkpt lat="43.57545" lon="3.66105">
        <ele>297</ele>
        <time>2021-04-15T14:32:23Z</time>
      </trkpt>
      <trkpt lat="43.57544" lon="3.66105">
        <ele>284.3</ele>
        <time>2021-04-15T14:32:24Z</time>
      </trkpt>
      <trkpt lat="43.57544" lon="3.66105">
        <ele>297</ele>
        <time>2021-04-15T14:32:24Z</time>
      </trkpt>
      <trkpt lat="43.57543" lon="3.66105">
        <ele>284.7</ele>
        <time>2021-04-15T14:32:26Z</time>
      </trkpt>
      <trkpt lat="43.57543" lon="3.66105">
        <ele>297</ele>
        <time>2021-04-15T14:32:26Z</time>
      </trkpt>
      <trkpt lat="43.57542" lon="3.66105">
        <ele>285.2</ele>
        <time>2021-04-15T14:32:28Z</time>
      </trkpt>
      <trkpt lat="43.57542" lon="3.66105">
        <ele>297</ele>
        <time>2021-04-15T14:32:28Z</time>
      </trkpt>
      <trkpt lat="43.57541" lon="3.66106">
        <ele>285.6</ele>
        <time>2021-04-15T14:32:29Z</time>
      </trkpt>
      <trkpt lat="43.57541" lon="3.66106">
        <ele>298</ele>
        <time>2021-04-15T14:32:29Z</time>
      </trkpt>
      <trkpt lat="43.5754" lon="3.66106">
        <ele>285.9</ele>
        <time>2021-04-15T14:32:30Z</time>
      </trkpt>
      <trkpt lat="43.5754" lon="3.66106">
        <ele>298</ele>
        <time>2021-04-15T14:32:30Z</time>
      </trkpt>
      <trkpt lat="43.5754" lon="3.66107">
        <ele>286.2</ele>
        <time>2021-04-15T14:32:31Z</time>
      </trkpt>
      <trkpt lat="43.5754" lon="3.66107">
        <ele>298</ele>
        <time>2021-04-15T14:32:31Z</time>
      </trkpt>
      <trkpt lat="43.57539" lon="3.66107">
        <ele>286.6</ele>
        <time>2021-04-15T14:32:33Z</time>
      </trkpt>
      <trkpt lat="43.57539" lon="3.66107">
        <ele>298</ele>
        <time>2021-04-15T14:32:33Z</time>
      </trkpt>
      <trkpt lat="43.57538" lon="3.66108">
        <ele>286.9</ele>
        <time>2021-04-15T14:32:35Z</time>
      </trkpt>
      <trkpt lat="43.57538" lon="3.66108">
        <ele>301</ele>
        <time>2021-04-15T14:32:35Z</time>
      </trkpt>
      <trkpt lat="43.57538" lon="3.66108">
        <ele>286.9</ele>
        <time>2021-04-15T14:32:36Z</time>
      </trkpt>
      <trkpt lat="43.57538" lon="3.66108">
        <ele>301</ele>
        <time>2021-04-15T14:32:36Z</time>
      </trkpt>
      <trkpt lat="43.57538" lon="3.66108">
        <ele>286.8</ele>
        <time>2021-04-15T14:32:37Z</time>
      </trkpt>
      <trkpt lat="43.57538" lon="3.66108">
        <ele>301</ele>
        <time>2021-04-15T14:32:37Z</time>
      </trkpt>
      <trkpt lat="43.57533" lon="3.66122">
        <ele>289.2</ele>
        <time>2021-04-15T14:32:57Z</time>
      </trkpt>
      <trkpt lat="43.57533" lon="3.66122">
        <ele>303</ele>
        <time>2021-04-15T14:32:57Z</time>
      </trkpt>
      <trkpt lat="43.57532" lon="3.66123">
        <ele>289.3</ele>
        <time>2021-04-15T14:32:59Z</time>
      </trkpt>
      <trkpt lat="43.57532" lon="3.66123">
        <ele>303</ele>
        <time>2021-04-15T14:32:59Z</time>
      </trkpt>
      <trkpt lat="43.57532" lon="3.66123">
        <ele>289.5</ele>
        <time>2021-04-15T14:33:00Z</time>
      </trkpt>
      <trkpt lat="43.57532" lon="3.66123">
        <ele>303</ele>
        <time>2021-04-15T14:33:00Z</time>
      </trkpt>
      <trkpt lat="43.57529" lon="3.66126">
        <ele>290.4</ele>
        <time>2021-04-15T14:33:03Z</time>
      </trkpt>
      <trkpt lat="43.57529" lon="3.66126">
        <ele>303</ele>
        <time>2021-04-15T14:33:03Z</time>
      </trkpt>
      <trkpt lat="43.57529" lon="3.66127">
        <ele>290.6</ele>
        <time>2021-04-15T14:33:05Z</time>
      </trkpt>
      <trkpt lat="43.57529" lon="3.66127">
        <ele>303</ele>
        <time>2021-04-15T14:33:05Z</time>
      </trkpt>
      <trkpt lat="43.57528" lon="3.66127">
        <ele>290.9</ele>
        <time>2021-04-15T14:33:07Z</time>
      </trkpt>
      <trkpt lat="43.57528" lon="3.66127">
        <ele>303</ele>
        <time>2021-04-15T14:33:07Z</time>
      </trkpt>
      <trkpt lat="43.57527" lon="3.66128">
        <ele>291.3</ele>
        <time>2021-04-15T14:33:09Z</time>
      </trkpt>
      <trkpt lat="43.57527" lon="3.66128">
        <ele>306</ele>
        <time>2021-04-15T14:33:09Z</time>
      </trkpt>
      <trkpt lat="43.57525" lon="3.66129">
        <ele>291.8</ele>
        <time>2021-04-15T14:33:10Z</time>
      </trkpt>
      <trkpt lat="43.57525" lon="3.66129">
        <ele>306</ele>
        <time>2021-04-15T14:33:10Z</time>
      </trkpt>
      <trkpt lat="43.57524" lon="3.6613">
        <ele>292.2</ele>
        <time>2021-04-15T14:33:11Z</time>
      </trkpt>
      <trkpt lat="43.57524" lon="3.6613">
        <ele>306</ele>
        <time>2021-04-15T14:33:11Z</time>
      </trkpt>
      <trkpt lat="43.57522" lon="3.66131">
        <ele>292.5</ele>
        <time>2021-04-15T14:33:12Z</time>
      </trkpt>
      <trkpt lat="43.57522" lon="3.66131">
        <ele>306</ele>
        <time>2021-04-15T14:33:12Z</time>
      </trkpt>
      <trkpt lat="43.57521" lon="3.66132">
        <ele>292.9</ele>
        <time>2021-04-15T14:33:14Z</time>
      </trkpt>
      <trkpt lat="43.57521" lon="3.66132">
        <ele>306</ele>
        <time>2021-04-15T14:33:14Z</time>
      </trkpt>
      <trkpt lat="43.5752" lon="3.66133">
        <ele>293.2</ele>
        <time>2021-04-15T14:33:16Z</time>
      </trkpt>
      <trkpt lat="43.5752" lon="3.66133">
        <ele>306</ele>
        <time>2021-04-15T14:33:16Z</time>
      </trkpt>
      <trkpt lat="43.57519" lon="3.66134">
        <ele>293.5</ele>
        <time>2021-04-15T14:33:17Z</time>
      </trkpt>
      <trkpt lat="43.57519" lon="3.66134">
        <ele>306</ele>
        <time>2021-04-15T14:33:17Z</time>
      </trkpt>
      <trkpt lat="43.57517" lon="3.66135">
        <ele>293.9</ele>
        <time>2021-04-15T14:33:19Z</time>
      </trkpt>
      <trkpt lat="43.57517" lon="3.66135">
        <ele>307</ele>
        <time>2021-04-15T14:33:19Z</time>
      </trkpt>
      <trkpt lat="43.57516" lon="3.66136">
        <ele>294.2</ele>
        <time>2021-04-15T14:33:20Z</time>
      </trkpt>
      <trkpt lat="43.57516" lon="3.66136">
        <ele>307</ele>
        <time>2021-04-15T14:33:20Z</time>
      </trkpt>
      <trkpt lat="43.57515" lon="3.66137">
        <ele>294.4</ele>
        <time>2021-04-15T14:33:21Z</time>
      </trkpt>
      <trkpt lat="43.57515" lon="3.66137">
        <ele>307</ele>
        <time>2021-04-15T14:33:21Z</time>
      </trkpt>
      <trkpt lat="43.57513" lon="3.66139">
        <ele>294.7</ele>
        <time>2021-04-15T14:33:23Z</time>
      </trkpt>
      <trkpt lat="43.57513" lon="3.66139">
        <ele>307</ele>
        <time>2021-04-15T14:33:23Z</time>
      </trkpt>
      <trkpt lat="43.57512" lon="3.66141">
        <ele>294.9</ele>
        <time>2021-04-15T14:33:25Z</time>
      </trkpt>
      <trkpt lat="43.57512" lon="3.66141">
        <ele>309</ele>
        <time>2021-04-15T14:33:25Z</time>
      </trkpt>
      <trkpt lat="43.57511" lon="3.66143">
        <ele>295.1</ele>
        <time>2021-04-15T14:33:27Z</time>
      </trkpt>
      <trkpt lat="43.57511" lon="3.66143">
        <ele>309</ele>
        <time>2021-04-15T14:33:27Z</time>
      </trkpt>
      <trkpt lat="43.57509" lon="3.66145">
        <ele>295.3</ele>
        <time>2021-04-15T14:33:29Z</time>
      </trkpt>
      <trkpt lat="43.57509" lon="3.66145">
        <ele>309</ele>
        <time>2021-04-15T14:33:29Z</time>
      </trkpt>
      <trkpt lat="43.57508" lon="3.66147">
        <ele>295.5</ele>
        <time>2021-04-15T14:33:31Z</time>
      </trkpt>
      <trkpt lat="43.57508" lon="3.66147">
        <ele>309</ele>
        <time>2021-04-15T14:33:31Z</time>
      </trkpt>
      <trkpt lat="43.57506" lon="3.66149">
        <ele>295.7</ele>
        <time>2021-04-15T14:33:33Z</time>
      </trkpt>
      <trkpt lat="43.57506" lon="3.66149">
        <ele>309</ele>
        <time>2021-04-15T14:33:33Z</time>
      </trkpt>
      <trkpt lat="43.57504" lon="3.66151">
        <ele>296</ele>
        <time>2021-04-15T14:33:35Z</time>
      </trkpt>
      <trkpt lat="43.57504" lon="3.66151">
        <ele>309</ele>
        <time>2021-04-15T14:33:35Z</time>
      </trkpt>
      <trkpt lat="43.57503" lon="3.66153">
        <ele>296.3</ele>
        <time>2021-04-15T14:33:37Z</time>
      </trkpt>
      <trkpt lat="43.57503" lon="3.66153">
        <ele>309</ele>
        <time>2021-04-15T14:33:37Z</time>
      </trkpt>
      <trkpt lat="43.575" lon="3.66156">
        <ele>296.7</ele>
        <time>2021-04-15T14:33:39Z</time>
      </trkpt>
      <trkpt lat="43.575" lon="3.66156">
        <ele>309</ele>
        <time>2021-04-15T14:33:39Z</time>
      </trkpt>
      <trkpt lat="43.57499" lon="3.66158">
        <ele>296.9</ele>
        <time>2021-04-15T14:33:40Z</time>
      </trkpt>
      <trkpt lat="43.57499" lon="3.66158">
        <ele>309</ele>
        <time>2021-04-15T14:33:40Z</time>
      </trkpt>
      <trkpt lat="43.57497" lon="3.66159">
        <ele>297</ele>
        <time>2021-04-15T14:33:41Z</time>
      </trkpt>
      <trkpt lat="43.57497" lon="3.66159">
        <ele>309</ele>
        <time>2021-04-15T14:33:41Z</time>
      </trkpt>
      <trkpt lat="43.57496" lon="3.66161">
        <ele>297.2</ele>
        <time>2021-04-15T14:33:43Z</time>
      </trkpt>
      <trkpt lat="43.57496" lon="3.66161">
        <ele>311</ele>
        <time>2021-04-15T14:33:43Z</time>
      </trkpt>
      <trkpt lat="43.57494" lon="3.66163">
        <ele>297.4</ele>
        <time>2021-04-15T14:33:44Z</time>
      </trkpt>
      <trkpt lat="43.57494" lon="3.66163">
        <ele>311</ele>
        <time>2021-04-15T14:33:44Z</time>
      </trkpt>
      <trkpt lat="43.57492" lon="3.66164">
        <ele>297.6</ele>
        <time>2021-04-15T14:33:46Z</time>
      </trkpt>
      <trkpt lat="43.57492" lon="3.66164">
        <ele>311</ele>
        <time>2021-04-15T14:33:46Z</time>
      </trkpt>
      <trkpt lat="43.57491" lon="3.66166">
        <ele>297.7</ele>
        <time>2021-04-15T14:33:47Z</time>
      </trkpt>
      <trkpt lat="43.57491" lon="3.66166">
        <ele>311</ele>
        <time>2021-04-15T14:33:47Z</time>
      </trkpt>
      <trkpt lat="43.5749" lon="3.66166">
        <ele>297.9</ele>
        <time>2021-04-15T14:33:48Z</time>
      </trkpt>
      <trkpt lat="43.5749" lon="3.66166">
        <ele>311</ele>
        <time>2021-04-15T14:33:48Z</time>
      </trkpt>
      <trkpt lat="43.57488" lon="3.66167">
        <ele>298.1</ele>
        <time>2021-04-15T14:33:50Z</time>
      </trkpt>
      <trkpt lat="43.57488" lon="3.66167">
        <ele>311</ele>
        <time>2021-04-15T14:33:50Z</time>
      </trkpt>
      <trkpt lat="43.57487" lon="3.66168">
        <ele>298.2</ele>
        <time>2021-04-15T14:33:51Z</time>
      </trkpt>
      <trkpt lat="43.57487" lon="3.66168">
        <ele>311</ele>
        <time>2021-04-15T14:33:51Z</time>
      </trkpt>
      <trkpt lat="43.57486" lon="3.66169">
        <ele>298.3</ele>
        <time>2021-04-15T14:33:53Z</time>
      </trkpt>
      <trkpt lat="43.57486" lon="3.66169">
        <ele>311</ele>
        <time>2021-04-15T14:33:53Z</time>
      </trkpt>
      <trkpt lat="43.57484" lon="3.6617">
        <ele>298.4</ele>
        <time>2021-04-15T14:33:55Z</time>
      </trkpt>
      <trkpt lat="43.57484" lon="3.6617">
        <ele>311</ele>
        <time>2021-04-15T14:33:55Z</time>
      </trkpt>
      <trkpt lat="43.57483" lon="3.66172">
        <ele>298.5</ele>
        <time>2021-04-15T14:33:57Z</time>
      </trkpt>
      <trkpt lat="43.57483" lon="3.66172">
        <ele>311</ele>
        <time>2021-04-15T14:33:57Z</time>
      </trkpt>
      <trkpt lat="43.57481" lon="3.66173">
        <ele>298.7</ele>
        <time>2021-04-15T14:33:59Z</time>
      </trkpt>
      <trkpt lat="43.57481" lon="3.66173">
        <ele>313</ele>
        <time>2021-04-15T14:33:59Z</time>
      </trkpt>
      <trkpt lat="43.5748" lon="3.66174">
        <ele>298.8</ele>
        <time>2021-04-15T14:34:00Z</time>
      </trkpt>
      <trkpt lat="43.5748" lon="3.66174">
        <ele>313</ele>
        <time>2021-04-15T14:34:00Z</time>
      </trkpt>
      <trkpt lat="43.57479" lon="3.66175">
        <ele>298.9</ele>
        <time>2021-04-15T14:34:02Z</time>
      </trkpt>
      <trkpt lat="43.57479" lon="3.66175">
        <ele>313</ele>
        <time>2021-04-15T14:34:02Z</time>
      </trkpt>
      <trkpt lat="43.57477" lon="3.66176">
        <ele>299.1</ele>
        <time>2021-04-15T14:34:04Z</time>
      </trkpt>
      <trkpt lat="43.57477" lon="3.66176">
        <ele>313</ele>
        <time>2021-04-15T14:34:04Z</time>
      </trkpt>
      <trkpt lat="43.57476" lon="3.66177">
        <ele>299.2</ele>
        <time>2021-04-15T14:34:05Z</time>
      </trkpt>
      <trkpt lat="43.57476" lon="3.66177">
        <ele>313</ele>
        <time>2021-04-15T14:34:05Z</time>
      </trkpt>
      <trkpt lat="43.57474" lon="3.66178">
        <ele>299.4</ele>
        <time>2021-04-15T14:34:07Z</time>
      </trkpt>
      <trkpt lat="43.57474" lon="3.66178">
        <ele>313</ele>
        <time>2021-04-15T14:34:07Z</time>
      </trkpt>
      <trkpt lat="43.57473" lon="3.66179">
        <ele>299.5</ele>
        <time>2021-04-15T14:34:09Z</time>
      </trkpt>
      <trkpt lat="43.57473" lon="3.66179">
        <ele>313</ele>
        <time>2021-04-15T14:34:09Z</time>
      </trkpt>
      <trkpt lat="43.57472" lon="3.6618">
        <ele>299.6</ele>
        <time>2021-04-15T14:34:11Z</time>
      </trkpt>
      <trkpt lat="43.57472" lon="3.6618">
        <ele>313</ele>
        <time>2021-04-15T14:34:11Z</time>
      </trkpt>
      <trkpt lat="43.57471" lon="3.66181">
        <ele>299.7</ele>
        <time>2021-04-15T14:34:12Z</time>
      </trkpt>
      <trkpt lat="43.57471" lon="3.66181">
        <ele>313</ele>
        <time>2021-04-15T14:34:12Z</time>
      </trkpt>
      <trkpt lat="43.5747" lon="3.66182">
        <ele>299.7</ele>
        <time>2021-04-15T14:34:14Z</time>
      </trkpt>
      <trkpt lat="43.5747" lon="3.66182">
        <ele>313</ele>
        <time>2021-04-15T14:34:14Z</time>
      </trkpt>
      <trkpt lat="43.57468" lon="3.66183">
        <ele>299.8</ele>
        <time>2021-04-15T14:34:16Z</time>
      </trkpt>
      <trkpt lat="43.57468" lon="3.66183">
        <ele>315</ele>
        <time>2021-04-15T14:34:16Z</time>
      </trkpt>
      <trkpt lat="43.57466" lon="3.66184">
        <ele>300</ele>
        <time>2021-04-15T14:34:17Z</time>
      </trkpt>
      <trkpt lat="43.57466" lon="3.66184">
        <ele>315</ele>
        <time>2021-04-15T14:34:17Z</time>
      </trkpt>
      <trkpt lat="43.57465" lon="3.66185">
        <ele>300.1</ele>
        <time>2021-04-15T14:34:19Z</time>
      </trkpt>
      <trkpt lat="43.57465" lon="3.66185">
        <ele>315</ele>
        <time>2021-04-15T14:34:19Z</time>
      </trkpt>
      <trkpt lat="43.57463" lon="3.66186">
        <ele>300.2</ele>
        <time>2021-04-15T14:34:21Z</time>
      </trkpt>
      <trkpt lat="43.57463" lon="3.66186">
        <ele>315</ele>
        <time>2021-04-15T14:34:21Z</time>
      </trkpt>
      <trkpt lat="43.57462" lon="3.66188">
        <ele>300.3</ele>
        <time>2021-04-15T14:34:23Z</time>
      </trkpt>
      <trkpt lat="43.57462" lon="3.66188">
        <ele>315</ele>
        <time>2021-04-15T14:34:23Z</time>
      </trkpt>
      <trkpt lat="43.5746" lon="3.6619">
        <ele>300.3</ele>
        <time>2021-04-15T14:34:25Z</time>
      </trkpt>
      <trkpt lat="43.5746" lon="3.6619">
        <ele>315</ele>
        <time>2021-04-15T14:34:25Z</time>
      </trkpt>
      <trkpt lat="43.57458" lon="3.66192">
        <ele>300.4</ele>
        <time>2021-04-15T14:34:26Z</time>
      </trkpt>
      <trkpt lat="43.57458" lon="3.66192">
        <ele>315</ele>
        <time>2021-04-15T14:34:26Z</time>
      </trkpt>
      <trkpt lat="43.57457" lon="3.66193">
        <ele>300.4</ele>
        <time>2021-04-15T14:34:27Z</time>
      </trkpt>
      <trkpt lat="43.57457" lon="3.66193">
        <ele>315</ele>
        <time>2021-04-15T14:34:27Z</time>
      </trkpt>
      <trkpt lat="43.57455" lon="3.66195">
        <ele>300.5</ele>
        <time>2021-04-15T14:34:29Z</time>
      </trkpt>
      <trkpt lat="43.57455" lon="3.66195">
        <ele>315</ele>
        <time>2021-04-15T14:34:29Z</time>
      </trkpt>
      <trkpt lat="43.57453" lon="3.66197">
        <ele>300.7</ele>
        <time>2021-04-15T14:34:31Z</time>
      </trkpt>
      <trkpt lat="43.57453" lon="3.66197">
        <ele>315</ele>
        <time>2021-04-15T14:34:31Z</time>
      </trkpt>
      <trkpt lat="43.57451" lon="3.66198">
        <ele>300.8</ele>
        <time>2021-04-15T14:34:32Z</time>
      </trkpt>
      <trkpt lat="43.57451" lon="3.66198">
        <ele>315</ele>
        <time>2021-04-15T14:34:32Z</time>
      </trkpt>
      <trkpt lat="43.5745" lon="3.66199">
        <ele>301</ele>
        <time>2021-04-15T14:34:33Z</time>
      </trkpt>
      <trkpt lat="43.5745" lon="3.66199">
        <ele>315</ele>
        <time>2021-04-15T14:34:33Z</time>
      </trkpt>
      <trkpt lat="43.57448" lon="3.66201">
        <ele>301.1</ele>
        <time>2021-04-15T14:34:35Z</time>
      </trkpt>
      <trkpt lat="43.57448" lon="3.66201">
        <ele>315</ele>
        <time>2021-04-15T14:34:35Z</time>
      </trkpt>
      <trkpt lat="43.57446" lon="3.66203">
        <ele>301.2</ele>
        <time>2021-04-15T14:34:37Z</time>
      </trkpt>
      <trkpt lat="43.57446" lon="3.66203">
        <ele>315</ele>
        <time>2021-04-15T14:34:37Z</time>
      </trkpt>
      <trkpt lat="43.57445" lon="3.66204">
        <ele>301.3</ele>
        <time>2021-04-15T14:34:38Z</time>
      </trkpt>
      <trkpt lat="43.57445" lon="3.66204">
        <ele>315</ele>
        <time>2021-04-15T14:34:38Z</time>
      </trkpt>
      <trkpt lat="43.57444" lon="3.66206">
        <ele>301.2</ele>
        <time>2021-04-15T14:34:40Z</time>
      </trkpt>
      <trkpt lat="43.57444" lon="3.66206">
        <ele>315</ele>
        <time>2021-04-15T14:34:40Z</time>
      </trkpt>
      <trkpt lat="43.57442" lon="3.66207">
        <ele>301.1</ele>
        <time>2021-04-15T14:34:41Z</time>
      </trkpt>
      <trkpt lat="43.57442" lon="3.66207">
        <ele>315</ele>
        <time>2021-04-15T14:34:41Z</time>
      </trkpt>
      <trkpt lat="43.57441" lon="3.66208">
        <ele>301.1</ele>
        <time>2021-04-15T14:34:43Z</time>
      </trkpt>
      <trkpt lat="43.57441" lon="3.66208">
        <ele>315</ele>
        <time>2021-04-15T14:34:43Z</time>
      </trkpt>
      <trkpt lat="43.57439" lon="3.66209">
        <ele>301</ele>
        <time>2021-04-15T14:34:45Z</time>
      </trkpt>
      <trkpt lat="43.57439" lon="3.66209">
        <ele>315</ele>
        <time>2021-04-15T14:34:45Z</time>
      </trkpt>
      <trkpt lat="43.57438" lon="3.6621">
        <ele>301</ele>
        <time>2021-04-15T14:34:47Z</time>
      </trkpt>
      <trkpt lat="43.57438" lon="3.6621">
        <ele>315</ele>
        <time>2021-04-15T14:34:47Z</time>
      </trkpt>
      <trkpt lat="43.57436" lon="3.66212">
        <ele>300.9</ele>
        <time>2021-04-15T14:34:48Z</time>
      </trkpt>
      <trkpt lat="43.57436" lon="3.66212">
        <ele>315</ele>
        <time>2021-04-15T14:34:48Z</time>
      </trkpt>
      <trkpt lat="43.57435" lon="3.66214">
        <ele>300.7</ele>
        <time>2021-04-15T14:34:50Z</time>
      </trkpt>
      <trkpt lat="43.57435" lon="3.66214">
        <ele>315</ele>
        <time>2021-04-15T14:34:50Z</time>
      </trkpt>
      <trkpt lat="43.57435" lon="3.66216">
        <ele>300.5</ele>
        <time>2021-04-15T14:34:52Z</time>
      </trkpt>
      <trkpt lat="43.57435" lon="3.66216">
        <ele>315</ele>
        <time>2021-04-15T14:34:52Z</time>
      </trkpt>
      <trkpt lat="43.57434" lon="3.66219">
        <ele>300.3</ele>
        <time>2021-04-15T14:34:54Z</time>
      </trkpt>
      <trkpt lat="43.57434" lon="3.66219">
        <ele>315</ele>
        <time>2021-04-15T14:34:54Z</time>
      </trkpt>
      <trkpt lat="43.57434" lon="3.6622">
        <ele>300.2</ele>
        <time>2021-04-15T14:34:55Z</time>
      </trkpt>
      <trkpt lat="43.57434" lon="3.6622">
        <ele>315</ele>
        <time>2021-04-15T14:34:55Z</time>
      </trkpt>
      <trkpt lat="43.57434" lon="3.66221">
        <ele>300.1</ele>
        <time>2021-04-15T14:34:56Z</time>
      </trkpt>
      <trkpt lat="43.57434" lon="3.66221">
        <ele>315</ele>
        <time>2021-04-15T14:34:56Z</time>
      </trkpt>
      <trkpt lat="43.57433" lon="3.66223">
        <ele>300</ele>
        <time>2021-04-15T14:34:58Z</time>
      </trkpt>
      <trkpt lat="43.57433" lon="3.66223">
        <ele>315</ele>
        <time>2021-04-15T14:34:58Z</time>
      </trkpt>
      <trkpt lat="43.57433" lon="3.66224">
        <ele>300</ele>
        <time>2021-04-15T14:34:59Z</time>
      </trkpt>
      <trkpt lat="43.57433" lon="3.66224">
        <ele>315</ele>
        <time>2021-04-15T14:34:59Z</time>
      </trkpt>
      <trkpt lat="43.57433" lon="3.66225">
        <ele>300</ele>
        <time>2021-04-15T14:35:01Z</time>
      </trkpt>
      <trkpt lat="43.57433" lon="3.66225">
        <ele>315</ele>
        <time>2021-04-15T14:35:01Z</time>
      </trkpt>
      <trkpt lat="43.57433" lon="3.66226">
        <ele>300</ele>
        <time>2021-04-15T14:35:03Z</time>
      </trkpt>
      <trkpt lat="43.57433" lon="3.66226">
        <ele>315</ele>
        <time>2021-04-15T14:35:03Z</time>
      </trkpt>
      <trkpt lat="43.57432" lon="3.66226">
        <ele>300</ele>
        <time>2021-04-15T14:35:04Z</time>
      </trkpt>
      <trkpt lat="43.57432" lon="3.66226">
        <ele>315</ele>
        <time>2021-04-15T14:35:04Z</time>
      </trkpt>
      <trkpt lat="43.57429" lon="3.66229">
        <ele>300</ele>
        <time>2021-04-15T14:36:01Z</time>
      </trkpt>
      <trkpt lat="43.57429" lon="3.66229">
        <ele>315</ele>
        <time>2021-04-15T14:36:01Z</time>
      </trkpt>
      <trkpt lat="43.57429" lon="3.6623">
        <ele>300</ele>
        <time>2021-04-15T14:36:03Z</time>
      </trkpt>
      <trkpt lat="43.57429" lon="3.6623">
        <ele>315</ele>
        <time>2021-04-15T14:36:03Z</time>
      </trkpt>
      <trkpt lat="43.57429" lon="3.66232">
        <ele>300</ele>
        <time>2021-04-15T14:36:05Z</time>
      </trkpt>
      <trkpt lat="43.57429" lon="3.66232">
        <ele>315</ele>
        <time>2021-04-15T14:36:05Z</time>
      </trkpt>
      <trkpt lat="43.57429" lon="3.66235">
        <ele>299.9</ele>
        <time>2021-04-15T14:36:07Z</time>
      </trkpt>
      <trkpt lat="43.57429" lon="3.66235">
        <ele>315</ele>
        <time>2021-04-15T14:36:07Z</time>
      </trkpt>
      <trkpt lat="43.57428" lon="3.66238">
        <ele>299.9</ele>
        <time>2021-04-15T14:36:09Z</time>
      </trkpt>
      <trkpt lat="43.57428" lon="3.66238">
        <ele>315</ele>
        <time>2021-04-15T14:36:09Z</time>
      </trkpt>
      <trkpt lat="43.57429" lon="3.66242">
        <ele>299.9</ele>
        <time>2021-04-15T14:36:11Z</time>
      </trkpt>
      <trkpt lat="43.57429" lon="3.66242">
        <ele>315</ele>
        <time>2021-04-15T14:36:11Z</time>
      </trkpt>
      <trkpt lat="43.57428" lon="3.66246">
        <ele>299.8</ele>
        <time>2021-04-15T14:36:13Z</time>
      </trkpt>
      <trkpt lat="43.57428" lon="3.66246">
        <ele>315</ele>
        <time>2021-04-15T14:36:13Z</time>
      </trkpt>
      <trkpt lat="43.57427" lon="3.66249">
        <ele>299.8</ele>
        <time>2021-04-15T14:36:15Z</time>
      </trkpt>
      <trkpt lat="43.57427" lon="3.66249">
        <ele>315</ele>
        <time>2021-04-15T14:36:15Z</time>
      </trkpt>
      <trkpt lat="43.57426" lon="3.66252">
        <ele>299.7</ele>
        <time>2021-04-15T14:36:17Z</time>
      </trkpt>
      <trkpt lat="43.57426" lon="3.66252">
        <ele>314</ele>
        <time>2021-04-15T14:36:17Z</time>
      </trkpt>
      <trkpt lat="43.57426" lon="3.66255">
        <ele>299.7</ele>
        <time>2021-04-15T14:36:19Z</time>
      </trkpt>
      <trkpt lat="43.57426" lon="3.66255">
        <ele>314</ele>
        <time>2021-04-15T14:36:19Z</time>
      </trkpt>
      <trkpt lat="43.57426" lon="3.66258">
        <ele>299.8</ele>
        <time>2021-04-15T14:36:21Z</time>
      </trkpt>
      <trkpt lat="43.57426" lon="3.66258">
        <ele>314</ele>
        <time>2021-04-15T14:36:21Z</time>
      </trkpt>
      <trkpt lat="43.57426" lon="3.66261">
        <ele>299.8</ele>
        <time>2021-04-15T14:36:22Z</time>
      </trkpt>
      <trkpt lat="43.57426" lon="3.66261">
        <ele>314</ele>
        <time>2021-04-15T14:36:22Z</time>
      </trkpt>
      <trkpt lat="43.57425" lon="3.66264">
        <ele>299.8</ele>
        <time>2021-04-15T14:36:23Z</time>
      </trkpt>
      <trkpt lat="43.57425" lon="3.66264">
        <ele>314</ele>
        <time>2021-04-15T14:36:23Z</time>
      </trkpt>
      <trkpt lat="43.57425" lon="3.66267">
        <ele>299.8</ele>
        <time>2021-04-15T14:36:25Z</time>
      </trkpt>
      <trkpt lat="43.57425" lon="3.66267">
        <ele>314</ele>
        <time>2021-04-15T14:36:25Z</time>
      </trkpt>
      <trkpt lat="43.57424" lon="3.66269">
        <ele>299.8</ele>
        <time>2021-04-15T14:36:26Z</time>
      </trkpt>
      <trkpt lat="43.57424" lon="3.66269">
        <ele>314</ele>
        <time>2021-04-15T14:36:26Z</time>
      </trkpt>
      <trkpt lat="43.57424" lon="3.66272">
        <ele>299.7</ele>
        <time>2021-04-15T14:36:28Z</time>
      </trkpt>
      <trkpt lat="43.57424" lon="3.66272">
        <ele>314</ele>
        <time>2021-04-15T14:36:28Z</time>
      </trkpt>
      <trkpt lat="43.57423" lon="3.66274">
        <ele>299.6</ele>
        <time>2021-04-15T14:36:30Z</time>
      </trkpt>
      <trkpt lat="43.57423" lon="3.66274">
        <ele>314</ele>
        <time>2021-04-15T14:36:30Z</time>
      </trkpt>
      <trkpt lat="43.57422" lon="3.66276">
        <ele>299.6</ele>
        <time>2021-04-15T14:36:31Z</time>
      </trkpt>
      <trkpt lat="43.57422" lon="3.66276">
        <ele>314</ele>
        <time>2021-04-15T14:36:31Z</time>
      </trkpt>
      <trkpt lat="43.57422" lon="3.66279">
        <ele>299.6</ele>
        <time>2021-04-15T14:36:33Z</time>
      </trkpt>
      <trkpt lat="43.57422" lon="3.66279">
        <ele>314</ele>
        <time>2021-04-15T14:36:33Z</time>
      </trkpt>
      <trkpt lat="43.57421" lon="3.66281">
        <ele>299.6</ele>
        <time>2021-04-15T14:36:35Z</time>
      </trkpt>
      <trkpt lat="43.57421" lon="3.66281">
        <ele>314</ele>
        <time>2021-04-15T14:36:35Z</time>
      </trkpt>
      <trkpt lat="43.57421" lon="3.66284">
        <ele>299.7</ele>
        <time>2021-04-15T14:36:37Z</time>
      </trkpt>
      <trkpt lat="43.57421" lon="3.66284">
        <ele>314</ele>
        <time>2021-04-15T14:36:37Z</time>
      </trkpt>
      <trkpt lat="43.5742" lon="3.66286">
        <ele>299.7</ele>
        <time>2021-04-15T14:36:39Z</time>
      </trkpt>
      <trkpt lat="43.5742" lon="3.66286">
        <ele>314</ele>
        <time>2021-04-15T14:36:39Z</time>
      </trkpt>
      <trkpt lat="43.57419" lon="3.66288">
        <ele>299.6</ele>
        <time>2021-04-15T14:36:40Z</time>
      </trkpt>
      <trkpt lat="43.57419" lon="3.66288">
        <ele>314</ele>
        <time>2021-04-15T14:36:40Z</time>
      </trkpt>
      <trkpt lat="43.57418" lon="3.6629">
        <ele>299.6</ele>
        <time>2021-04-15T14:36:41Z</time>
      </trkpt>
      <trkpt lat="43.57418" lon="3.6629">
        <ele>314</ele>
        <time>2021-04-15T14:36:41Z</time>
      </trkpt>
      <trkpt lat="43.57417" lon="3.66292">
        <ele>299.6</ele>
        <time>2021-04-15T14:36:42Z</time>
      </trkpt>
      <trkpt lat="43.57417" lon="3.66292">
        <ele>314</ele>
        <time>2021-04-15T14:36:42Z</time>
      </trkpt>
      <trkpt lat="43.57416" lon="3.66294">
        <ele>299.5</ele>
        <time>2021-04-15T14:36:44Z</time>
      </trkpt>
      <trkpt lat="43.57416" lon="3.66294">
        <ele>314</ele>
        <time>2021-04-15T14:36:44Z</time>
      </trkpt>
      <trkpt lat="43.57415" lon="3.66297">
        <ele>299.4</ele>
        <time>2021-04-15T14:36:45Z</time>
      </trkpt>
      <trkpt lat="43.57415" lon="3.66297">
        <ele>314</ele>
        <time>2021-04-15T14:36:45Z</time>
      </trkpt>
      <trkpt lat="43.57413" lon="3.66299">
        <ele>299.4</ele>
        <time>2021-04-15T14:36:47Z</time>
      </trkpt>
      <trkpt lat="43.57413" lon="3.66299">
        <ele>314</ele>
        <time>2021-04-15T14:36:47Z</time>
      </trkpt>
      <trkpt lat="43.57412" lon="3.66302">
        <ele>299.4</ele>
        <time>2021-04-15T14:36:49Z</time>
      </trkpt>
      <trkpt lat="43.57412" lon="3.66302">
        <ele>314</ele>
        <time>2021-04-15T14:36:49Z</time>
      </trkpt>
      <trkpt lat="43.57411" lon="3.66304">
        <ele>299.3</ele>
        <time>2021-04-15T14:36:50Z</time>
      </trkpt>
      <trkpt lat="43.57411" lon="3.66304">
        <ele>314</ele>
        <time>2021-04-15T14:36:50Z</time>
      </trkpt>
      <trkpt lat="43.5741" lon="3.66306">
        <ele>299.3</ele>
        <time>2021-04-15T14:36:51Z</time>
      </trkpt>
      <trkpt lat="43.5741" lon="3.66306">
        <ele>314</ele>
        <time>2021-04-15T14:36:51Z</time>
      </trkpt>
      <trkpt lat="43.57409" lon="3.66308">
        <ele>299.4</ele>
        <time>2021-04-15T14:36:52Z</time>
      </trkpt>
      <trkpt lat="43.57409" lon="3.66308">
        <ele>314</ele>
        <time>2021-04-15T14:36:52Z</time>
      </trkpt>
      <trkpt lat="43.57408" lon="3.6631">
        <ele>299.5</ele>
        <time>2021-04-15T14:36:54Z</time>
      </trkpt>
      <trkpt lat="43.57408" lon="3.6631">
        <ele>314</ele>
        <time>2021-04-15T14:36:54Z</time>
      </trkpt>
      <trkpt lat="43.57407" lon="3.66312">
        <ele>299.6</ele>
        <time>2021-04-15T14:36:55Z</time>
      </trkpt>
      <trkpt lat="43.57407" lon="3.66312">
        <ele>314</ele>
        <time>2021-04-15T14:36:55Z</time>
      </trkpt>
      <trkpt lat="43.57406" lon="3.66314">
        <ele>299.7</ele>
        <time>2021-04-15T14:36:57Z</time>
      </trkpt>
      <trkpt lat="43.57406" lon="3.66314">
        <ele>314</ele>
        <time>2021-04-15T14:36:57Z</time>
      </trkpt>
      <trkpt lat="43.57405" lon="3.66317">
        <ele>299.8</ele>
        <time>2021-04-15T14:36:59Z</time>
      </trkpt>
      <trkpt lat="43.57405" lon="3.66317">
        <ele>314</ele>
        <time>2021-04-15T14:36:59Z</time>
      </trkpt>
      <trkpt lat="43.57403" lon="3.6632">
        <ele>299.9</ele>
        <time>2021-04-15T14:37:01Z</time>
      </trkpt>
      <trkpt lat="43.57403" lon="3.6632">
        <ele>314</ele>
        <time>2021-04-15T14:37:01Z</time>
      </trkpt>
      <trkpt lat="43.57402" lon="3.66323">
        <ele>299.9</ele>
        <time>2021-04-15T14:37:03Z</time>
      </trkpt>
      <trkpt lat="43.57402" lon="3.66323">
        <ele>314</ele>
        <time>2021-04-15T14:37:03Z</time>
      </trkpt>
      <trkpt lat="43.574" lon="3.66326">
        <ele>300</ele>
        <time>2021-04-15T14:37:05Z</time>
      </trkpt>
      <trkpt lat="43.574" lon="3.66326">
        <ele>314</ele>
        <time>2021-04-15T14:37:05Z</time>
      </trkpt>
      <trkpt lat="43.57399" lon="3.66328">
        <ele>300</ele>
        <time>2021-04-15T14:37:07Z</time>
      </trkpt>
      <trkpt lat="43.57399" lon="3.66328">
        <ele>314</ele>
        <time>2021-04-15T14:37:07Z</time>
      </trkpt>
      <trkpt lat="43.57398" lon="3.66331">
        <ele>300</ele>
        <time>2021-04-15T14:37:09Z</time>
      </trkpt>
      <trkpt lat="43.57398" lon="3.66331">
        <ele>314</ele>
        <time>2021-04-15T14:37:09Z</time>
      </trkpt>
      <trkpt lat="43.57396" lon="3.66333">
        <ele>300</ele>
        <time>2021-04-15T14:37:11Z</time>
      </trkpt>
      <trkpt lat="43.57396" lon="3.66333">
        <ele>314</ele>
        <time>2021-04-15T14:37:11Z</time>
      </trkpt>
      <trkpt lat="43.57395" lon="3.66335">
        <ele>300</ele>
        <time>2021-04-15T14:37:13Z</time>
      </trkpt>
      <trkpt lat="43.57395" lon="3.66335">
        <ele>314</ele>
        <time>2021-04-15T14:37:13Z</time>
      </trkpt>
      <trkpt lat="43.57393" lon="3.66338">
        <ele>300</ele>
        <time>2021-04-15T14:37:15Z</time>
      </trkpt>
      <trkpt lat="43.57393" lon="3.66338">
        <ele>314</ele>
        <time>2021-04-15T14:37:15Z</time>
      </trkpt>
      <trkpt lat="43.57391" lon="3.66339">
        <ele>299.9</ele>
        <time>2021-04-15T14:37:17Z</time>
      </trkpt>
      <trkpt lat="43.57391" lon="3.66339">
        <ele>314</ele>
        <time>2021-04-15T14:37:17Z</time>
      </trkpt>
      <trkpt lat="43.57389" lon="3.6634">
        <ele>299.8</ele>
        <time>2021-04-15T14:37:19Z</time>
      </trkpt>
      <trkpt lat="43.57389" lon="3.6634">
        <ele>314</ele>
        <time>2021-04-15T14:37:19Z</time>
      </trkpt>
      <trkpt lat="43.57387" lon="3.66341">
        <ele>299.8</ele>
        <time>2021-04-15T14:37:20Z</time>
      </trkpt>
      <trkpt lat="43.57387" lon="3.66341">
        <ele>313</ele>
        <time>2021-04-15T14:37:20Z</time>
      </trkpt>
      <trkpt lat="43.57386" lon="3.66342">
        <ele>299.8</ele>
        <time>2021-04-15T14:37:22Z</time>
      </trkpt>
      <trkpt lat="43.57386" lon="3.66342">
        <ele>313</ele>
        <time>2021-04-15T14:37:22Z</time>
      </trkpt>
      <trkpt lat="43.57384" lon="3.66342">
        <ele>299.8</ele>
        <time>2021-04-15T14:37:24Z</time>
      </trkpt>
      <trkpt lat="43.57384" lon="3.66342">
        <ele>313</ele>
        <time>2021-04-15T14:37:24Z</time>
      </trkpt>
      <trkpt lat="43.57382" lon="3.66342">
        <ele>299.8</ele>
        <time>2021-04-15T14:37:25Z</time>
      </trkpt>
      <trkpt lat="43.57382" lon="3.66342">
        <ele>313</ele>
        <time>2021-04-15T14:37:25Z</time>
      </trkpt>
      <trkpt lat="43.5738" lon="3.66342">
        <ele>299.7</ele>
        <time>2021-04-15T14:37:26Z</time>
      </trkpt>
      <trkpt lat="43.5738" lon="3.66342">
        <ele>313</ele>
        <time>2021-04-15T14:37:26Z</time>
      </trkpt>
      <trkpt lat="43.57377" lon="3.66342">
        <ele>299.6</ele>
        <time>2021-04-15T14:37:28Z</time>
      </trkpt>
      <trkpt lat="43.57377" lon="3.66342">
        <ele>313</ele>
        <time>2021-04-15T14:37:28Z</time>
      </trkpt>
      <trkpt lat="43.57375" lon="3.66342">
        <ele>299.6</ele>
        <time>2021-04-15T14:37:29Z</time>
      </trkpt>
      <trkpt lat="43.57375" lon="3.66342">
        <ele>313</ele>
        <time>2021-04-15T14:37:29Z</time>
      </trkpt>
      <trkpt lat="43.57373" lon="3.66342">
        <ele>299.5</ele>
        <time>2021-04-15T14:37:30Z</time>
      </trkpt>
      <trkpt lat="43.57373" lon="3.66342">
        <ele>313</ele>
        <time>2021-04-15T14:37:30Z</time>
      </trkpt>
      <trkpt lat="43.57371" lon="3.66341">
        <ele>299.4</ele>
        <time>2021-04-15T14:37:32Z</time>
      </trkpt>
      <trkpt lat="43.57371" lon="3.66341">
        <ele>313</ele>
        <time>2021-04-15T14:37:32Z</time>
      </trkpt>
      <trkpt lat="43.57368" lon="3.66341">
        <ele>299.3</ele>
        <time>2021-04-15T14:37:33Z</time>
      </trkpt>
      <trkpt lat="43.57368" lon="3.66341">
        <ele>313</ele>
        <time>2021-04-15T14:37:33Z</time>
      </trkpt>
      <trkpt lat="43.57366" lon="3.6634">
        <ele>299.1</ele>
        <time>2021-04-15T14:37:35Z</time>
      </trkpt>
      <trkpt lat="43.57366" lon="3.6634">
        <ele>313</ele>
        <time>2021-04-15T14:37:35Z</time>
      </trkpt>
      <trkpt lat="43.57364" lon="3.66339">
        <ele>299</ele>
        <time>2021-04-15T14:37:36Z</time>
      </trkpt>
      <trkpt lat="43.57364" lon="3.66339">
        <ele>313</ele>
        <time>2021-04-15T14:37:36Z</time>
      </trkpt>
      <trkpt lat="43.57362" lon="3.66339">
        <ele>298.8</ele>
        <time>2021-04-15T14:37:38Z</time>
      </trkpt>
      <trkpt lat="43.57362" lon="3.66339">
        <ele>313</ele>
        <time>2021-04-15T14:37:38Z</time>
      </trkpt>
      <trkpt lat="43.5736" lon="3.66338">
        <ele>298.7</ele>
        <time>2021-04-15T14:37:40Z</time>
      </trkpt>
      <trkpt lat="43.5736" lon="3.66338">
        <ele>313</ele>
        <time>2021-04-15T14:37:40Z</time>
      </trkpt>
      <trkpt lat="43.57358" lon="3.66337">
        <ele>298.7</ele>
        <time>2021-04-15T14:37:41Z</time>
      </trkpt>
      <trkpt lat="43.57358" lon="3.66337">
        <ele>313</ele>
        <time>2021-04-15T14:37:41Z</time>
      </trkpt>
      <trkpt lat="43.57356" lon="3.66336">
        <ele>298.6</ele>
        <time>2021-04-15T14:37:43Z</time>
      </trkpt>
      <trkpt lat="43.57356" lon="3.66336">
        <ele>313</ele>
        <time>2021-04-15T14:37:43Z</time>
      </trkpt>
      <trkpt lat="43.57354" lon="3.66335">
        <ele>298.6</ele>
        <time>2021-04-15T14:37:45Z</time>
      </trkpt>
      <trkpt lat="43.57354" lon="3.66335">
        <ele>313</ele>
        <time>2021-04-15T14:37:45Z</time>
      </trkpt>
      <trkpt lat="43.57352" lon="3.66334">
        <ele>298.5</ele>
        <time>2021-04-15T14:37:47Z</time>
      </trkpt>
      <trkpt lat="43.57352" lon="3.66334">
        <ele>313</ele>
        <time>2021-04-15T14:37:47Z</time>
      </trkpt>
      <trkpt lat="43.57349" lon="3.66333">
        <ele>298.4</ele>
        <time>2021-04-15T14:37:49Z</time>
      </trkpt>
      <trkpt lat="43.57349" lon="3.66333">
        <ele>313</ele>
        <time>2021-04-15T14:37:49Z</time>
      </trkpt>
      <trkpt lat="43.57347" lon="3.66333">
        <ele>298.4</ele>
        <time>2021-04-15T14:37:50Z</time>
      </trkpt>
      <trkpt lat="43.57347" lon="3.66333">
        <ele>313</ele>
        <time>2021-04-15T14:37:50Z</time>
      </trkpt>
      <trkpt lat="43.57345" lon="3.66331">
        <ele>298.4</ele>
        <time>2021-04-15T14:37:52Z</time>
      </trkpt>
      <trkpt lat="43.57345" lon="3.66331">
        <ele>313</ele>
        <time>2021-04-15T14:37:52Z</time>
      </trkpt>
      <trkpt lat="43.57343" lon="3.6633">
        <ele>298.3</ele>
        <time>2021-04-15T14:37:53Z</time>
      </trkpt>
      <trkpt lat="43.57343" lon="3.6633">
        <ele>313</ele>
        <time>2021-04-15T14:37:53Z</time>
      </trkpt>
      <trkpt lat="43.57342" lon="3.66329">
        <ele>298.2</ele>
        <time>2021-04-15T14:37:54Z</time>
      </trkpt>
      <trkpt lat="43.57342" lon="3.66329">
        <ele>312</ele>
        <time>2021-04-15T14:37:54Z</time>
      </trkpt>
      <trkpt lat="43.5734" lon="3.66328">
        <ele>298.2</ele>
        <time>2021-04-15T14:37:55Z</time>
      </trkpt>
      <trkpt lat="43.5734" lon="3.66328">
        <ele>312</ele>
        <time>2021-04-15T14:37:55Z</time>
      </trkpt>
      <trkpt lat="43.57338" lon="3.66327">
        <ele>298.1</ele>
        <time>2021-04-15T14:37:57Z</time>
      </trkpt>
      <trkpt lat="43.57338" lon="3.66327">
        <ele>312</ele>
        <time>2021-04-15T14:37:57Z</time>
      </trkpt>
      <trkpt lat="43.57337" lon="3.66326">
        <ele>298.1</ele>
        <time>2021-04-15T14:37:58Z</time>
      </trkpt>
      <trkpt lat="43.57337" lon="3.66326">
        <ele>312</ele>
        <time>2021-04-15T14:37:58Z</time>
      </trkpt>
      <trkpt lat="43.57335" lon="3.66326">
        <ele>298.1</ele>
        <time>2021-04-15T14:37:59Z</time>
      </trkpt>
      <trkpt lat="43.57335" lon="3.66326">
        <ele>312</ele>
        <time>2021-04-15T14:37:59Z</time>
      </trkpt>
      <trkpt lat="43.57333" lon="3.66324">
        <ele>298</ele>
        <time>2021-04-15T14:38:01Z</time>
      </trkpt>
      <trkpt lat="43.57333" lon="3.66324">
        <ele>312</ele>
        <time>2021-04-15T14:38:01Z</time>
      </trkpt>
      <trkpt lat="43.57331" lon="3.66323">
        <ele>298</ele>
        <time>2021-04-15T14:38:03Z</time>
      </trkpt>
      <trkpt lat="43.57331" lon="3.66323">
        <ele>312</ele>
        <time>2021-04-15T14:38:03Z</time>
      </trkpt>
      <trkpt lat="43.57329" lon="3.66321">
        <ele>297.9</ele>
        <time>2021-04-15T14:38:05Z</time>
      </trkpt>
      <trkpt lat="43.57329" lon="3.66321">
        <ele>312</ele>
        <time>2021-04-15T14:38:05Z</time>
      </trkpt>
      <trkpt lat="43.57327" lon="3.6632">
        <ele>297.9</ele>
        <time>2021-04-15T14:38:06Z</time>
      </trkpt>
      <trkpt lat="43.57327" lon="3.6632">
        <ele>312</ele>
        <time>2021-04-15T14:38:06Z</time>
      </trkpt>
      <trkpt lat="43.57326" lon="3.66319">
        <ele>297.8</ele>
        <time>2021-04-15T14:38:07Z</time>
      </trkpt>
      <trkpt lat="43.57326" lon="3.66319">
        <ele>312</ele>
        <time>2021-04-15T14:38:07Z</time>
      </trkpt>
      <trkpt lat="43.57324" lon="3.66318">
        <ele>297.8</ele>
        <time>2021-04-15T14:38:08Z</time>
      </trkpt>
      <trkpt lat="43.57324" lon="3.66318">
        <ele>312</ele>
        <time>2021-04-15T14:38:08Z</time>
      </trkpt>
      <trkpt lat="43.57322" lon="3.66317">
        <ele>297.8</ele>
        <time>2021-04-15T14:38:10Z</time>
      </trkpt>
      <trkpt lat="43.57322" lon="3.66317">
        <ele>312</ele>
        <time>2021-04-15T14:38:10Z</time>
      </trkpt>
      <trkpt lat="43.57321" lon="3.66316">
        <ele>297.7</ele>
        <time>2021-04-15T14:38:12Z</time>
      </trkpt>
      <trkpt lat="43.57321" lon="3.66316">
        <ele>312</ele>
        <time>2021-04-15T14:38:12Z</time>
      </trkpt>
      <trkpt lat="43.57319" lon="3.66315">
        <ele>297.7</ele>
        <time>2021-04-15T14:38:13Z</time>
      </trkpt>
      <trkpt lat="43.57319" lon="3.66315">
        <ele>312</ele>
        <time>2021-04-15T14:38:13Z</time>
      </trkpt>
      <trkpt lat="43.57317" lon="3.66314">
        <ele>297.7</ele>
        <time>2021-04-15T14:38:15Z</time>
      </trkpt>
      <trkpt lat="43.57317" lon="3.66314">
        <ele>312</ele>
        <time>2021-04-15T14:38:15Z</time>
      </trkpt>
      <trkpt lat="43.57315" lon="3.66313">
        <ele>297.6</ele>
        <time>2021-04-15T14:38:17Z</time>
      </trkpt>
      <trkpt lat="43.57315" lon="3.66313">
        <ele>312</ele>
        <time>2021-04-15T14:38:17Z</time>
      </trkpt>
      <trkpt lat="43.57311" lon="3.6631">
        <ele>297.4</ele>
        <time>2021-04-15T14:38:21Z</time>
      </trkpt>
      <trkpt lat="43.57311" lon="3.6631">
        <ele>312</ele>
        <time>2021-04-15T14:38:21Z</time>
      </trkpt>
      <trkpt lat="43.57311" lon="3.6631">
        <ele>297.4</ele>
        <time>2021-04-15T14:38:22Z</time>
      </trkpt>
      <trkpt lat="43.57311" lon="3.6631">
        <ele>312</ele>
        <time>2021-04-15T14:38:22Z</time>
      </trkpt>
      <trkpt lat="43.57307" lon="3.66307">
        <ele>297.1</ele>
        <time>2021-04-15T14:38:25Z</time>
      </trkpt>
      <trkpt lat="43.57307" lon="3.66307">
        <ele>312</ele>
        <time>2021-04-15T14:38:25Z</time>
      </trkpt>
      <trkpt lat="43.57307" lon="3.66306">
        <ele>297.1</ele>
        <time>2021-04-15T14:38:26Z</time>
      </trkpt>
      <trkpt lat="43.57307" lon="3.66306">
        <ele>312</ele>
        <time>2021-04-15T14:38:26Z</time>
      </trkpt>
      <trkpt lat="43.57306" lon="3.66306">
        <ele>297</ele>
        <time>2021-04-15T14:38:28Z</time>
      </trkpt>
      <trkpt lat="43.57306" lon="3.66306">
        <ele>312</ele>
        <time>2021-04-15T14:38:28Z</time>
      </trkpt>
      <trkpt lat="43.57305" lon="3.66305">
        <ele>296.9</ele>
        <time>2021-04-15T14:38:30Z</time>
      </trkpt>
      <trkpt lat="43.57305" lon="3.66305">
        <ele>312</ele>
        <time>2021-04-15T14:38:30Z</time>
      </trkpt>
      <trkpt lat="43.57304" lon="3.66304">
        <ele>296.9</ele>
        <time>2021-04-15T14:38:32Z</time>
      </trkpt>
      <trkpt lat="43.57304" lon="3.66304">
        <ele>312</ele>
        <time>2021-04-15T14:38:32Z</time>
      </trkpt>
      <trkpt lat="43.57302" lon="3.66303">
        <ele>297</ele>
        <time>2021-04-15T14:38:33Z</time>
      </trkpt>
      <trkpt lat="43.57302" lon="3.66303">
        <ele>312</ele>
        <time>2021-04-15T14:38:33Z</time>
      </trkpt>
      <trkpt lat="43.573" lon="3.66302">
        <ele>297.1</ele>
        <time>2021-04-15T14:38:35Z</time>
      </trkpt>
      <trkpt lat="43.573" lon="3.66302">
        <ele>311</ele>
        <time>2021-04-15T14:38:35Z</time>
      </trkpt>
      <trkpt lat="43.57298" lon="3.66301">
        <ele>297.1</ele>
        <time>2021-04-15T14:38:36Z</time>
      </trkpt>
      <trkpt lat="43.57298" lon="3.66301">
        <ele>311</ele>
        <time>2021-04-15T14:38:36Z</time>
      </trkpt>
      <trkpt lat="43.57296" lon="3.663">
        <ele>297.2</ele>
        <time>2021-04-15T14:38:38Z</time>
      </trkpt>
      <trkpt lat="43.57296" lon="3.663">
        <ele>311</ele>
        <time>2021-04-15T14:38:38Z</time>
      </trkpt>
      <trkpt lat="43.57294" lon="3.66299">
        <ele>297.1</ele>
        <time>2021-04-15T14:38:40Z</time>
      </trkpt>
      <trkpt lat="43.57294" lon="3.66299">
        <ele>311</ele>
        <time>2021-04-15T14:38:40Z</time>
      </trkpt>
      <trkpt lat="43.57293" lon="3.66298">
        <ele>297.1</ele>
        <time>2021-04-15T14:38:41Z</time>
      </trkpt>
      <trkpt lat="43.57293" lon="3.66298">
        <ele>311</ele>
        <time>2021-04-15T14:38:41Z</time>
      </trkpt>
      <trkpt lat="43.57291" lon="3.66296">
        <ele>297</ele>
        <time>2021-04-15T14:38:43Z</time>
      </trkpt>
      <trkpt lat="43.57291" lon="3.66296">
        <ele>311</ele>
        <time>2021-04-15T14:38:43Z</time>
      </trkpt>
      <trkpt lat="43.5729" lon="3.66295">
        <ele>297</ele>
        <time>2021-04-15T14:38:44Z</time>
      </trkpt>
      <trkpt lat="43.5729" lon="3.66295">
        <ele>311</ele>
        <time>2021-04-15T14:38:44Z</time>
      </trkpt>
      <trkpt lat="43.57288" lon="3.66294">
        <ele>297</ele>
        <time>2021-04-15T14:38:46Z</time>
      </trkpt>
      <trkpt lat="43.57288" lon="3.66294">
        <ele>311</ele>
        <time>2021-04-15T14:38:46Z</time>
      </trkpt>
      <trkpt lat="43.57286" lon="3.66293">
        <ele>296.9</ele>
        <time>2021-04-15T14:38:47Z</time>
      </trkpt>
      <trkpt lat="43.57286" lon="3.66293">
        <ele>311</ele>
        <time>2021-04-15T14:38:47Z</time>
      </trkpt>
      <trkpt lat="43.57285" lon="3.66291">
        <ele>296.8</ele>
        <time>2021-04-15T14:38:49Z</time>
      </trkpt>
      <trkpt lat="43.57285" lon="3.66291">
        <ele>311</ele>
        <time>2021-04-15T14:38:49Z</time>
      </trkpt>
      <trkpt lat="43.57283" lon="3.66289">
        <ele>296.7</ele>
        <time>2021-04-15T14:38:51Z</time>
      </trkpt>
      <trkpt lat="43.57283" lon="3.66289">
        <ele>311</ele>
        <time>2021-04-15T14:38:51Z</time>
      </trkpt>
      <trkpt lat="43.5728" lon="3.66287">
        <ele>296.5</ele>
        <time>2021-04-15T14:38:53Z</time>
      </trkpt>
      <trkpt lat="43.5728" lon="3.66287">
        <ele>311</ele>
        <time>2021-04-15T14:38:53Z</time>
      </trkpt>
      <trkpt lat="43.57278" lon="3.66285">
        <ele>296.3</ele>
        <time>2021-04-15T14:38:55Z</time>
      </trkpt>
      <trkpt lat="43.57278" lon="3.66285">
        <ele>311</ele>
        <time>2021-04-15T14:38:55Z</time>
      </trkpt>
      <trkpt lat="43.57276" lon="3.66283">
        <ele>296.2</ele>
        <time>2021-04-15T14:38:56Z</time>
      </trkpt>
      <trkpt lat="43.57276" lon="3.66283">
        <ele>311</ele>
        <time>2021-04-15T14:38:56Z</time>
      </trkpt>
      <trkpt lat="43.57275" lon="3.66281">
        <ele>296</ele>
        <time>2021-04-15T14:38:58Z</time>
      </trkpt>
      <trkpt lat="43.57275" lon="3.66281">
        <ele>311</ele>
        <time>2021-04-15T14:38:58Z</time>
      </trkpt>
      <trkpt lat="43.57274" lon="3.6628">
        <ele>296</ele>
        <time>2021-04-15T14:38:59Z</time>
      </trkpt>
      <trkpt lat="43.57274" lon="3.6628">
        <ele>311</ele>
        <time>2021-04-15T14:38:59Z</time>
      </trkpt>
      <trkpt lat="43.57272" lon="3.66278">
        <ele>295.9</ele>
        <time>2021-04-15T14:39:01Z</time>
      </trkpt>
      <trkpt lat="43.57272" lon="3.66278">
        <ele>311</ele>
        <time>2021-04-15T14:39:01Z</time>
      </trkpt>
      <trkpt lat="43.5727" lon="3.66277">
        <ele>296</ele>
        <time>2021-04-15T14:39:03Z</time>
      </trkpt>
      <trkpt lat="43.5727" lon="3.66277">
        <ele>311</ele>
        <time>2021-04-15T14:39:03Z</time>
      </trkpt>
      <trkpt lat="43.57269" lon="3.66276">
        <ele>296</ele>
        <time>2021-04-15T14:39:04Z</time>
      </trkpt>
      <trkpt lat="43.57269" lon="3.66276">
        <ele>311</ele>
        <time>2021-04-15T14:39:04Z</time>
      </trkpt>
      <trkpt lat="43.57268" lon="3.66274">
        <ele>296</ele>
        <time>2021-04-15T14:39:06Z</time>
      </trkpt>
      <trkpt lat="43.57268" lon="3.66274">
        <ele>311</ele>
        <time>2021-04-15T14:39:06Z</time>
      </trkpt>
      <trkpt lat="43.57266" lon="3.66273">
        <ele>296.1</ele>
        <time>2021-04-15T14:39:08Z</time>
      </trkpt>
      <trkpt lat="43.57266" lon="3.66273">
        <ele>311</ele>
        <time>2021-04-15T14:39:08Z</time>
      </trkpt>
      <trkpt lat="43.57265" lon="3.66271">
        <ele>296</ele>
        <time>2021-04-15T14:39:09Z</time>
      </trkpt>
      <trkpt lat="43.57265" lon="3.66271">
        <ele>311</ele>
        <time>2021-04-15T14:39:09Z</time>
      </trkpt>
      <trkpt lat="43.57264" lon="3.6627">
        <ele>296</ele>
        <time>2021-04-15T14:39:10Z</time>
      </trkpt>
      <trkpt lat="43.57264" lon="3.6627">
        <ele>311</ele>
        <time>2021-04-15T14:39:10Z</time>
      </trkpt>
      <trkpt lat="43.57262" lon="3.66268">
        <ele>296</ele>
        <time>2021-04-15T14:39:12Z</time>
      </trkpt>
      <trkpt lat="43.57262" lon="3.66268">
        <ele>311</ele>
        <time>2021-04-15T14:39:12Z</time>
      </trkpt>
      <trkpt lat="43.57261" lon="3.66267">
        <ele>296</ele>
        <time>2021-04-15T14:39:13Z</time>
      </trkpt>
      <trkpt lat="43.57261" lon="3.66267">
        <ele>311</ele>
        <time>2021-04-15T14:39:13Z</time>
      </trkpt>
      <trkpt lat="43.5726" lon="3.66265">
        <ele>295.9</ele>
        <time>2021-04-15T14:39:14Z</time>
      </trkpt>
      <trkpt lat="43.5726" lon="3.66265">
        <ele>311</ele>
        <time>2021-04-15T14:39:14Z</time>
      </trkpt>
      <trkpt lat="43.57259" lon="3.66264">
        <ele>295.9</ele>
        <time>2021-04-15T14:39:15Z</time>
      </trkpt>
      <trkpt lat="43.57259" lon="3.66264">
        <ele>311</ele>
        <time>2021-04-15T14:39:15Z</time>
      </trkpt>
      <trkpt lat="43.57257" lon="3.66262">
        <ele>295.8</ele>
        <time>2021-04-15T14:39:16Z</time>
      </trkpt>
      <trkpt lat="43.57257" lon="3.66262">
        <ele>309</ele>
        <time>2021-04-15T14:39:16Z</time>
      </trkpt>
      <trkpt lat="43.57256" lon="3.6626">
        <ele>295.8</ele>
        <time>2021-04-15T14:39:18Z</time>
      </trkpt>
      <trkpt lat="43.57256" lon="3.6626">
        <ele>309</ele>
        <time>2021-04-15T14:39:18Z</time>
      </trkpt>
      <trkpt lat="43.57254" lon="3.66258">
        <ele>295.8</ele>
        <time>2021-04-15T14:39:20Z</time>
      </trkpt>
      <trkpt lat="43.57254" lon="3.66258">
        <ele>309</ele>
        <time>2021-04-15T14:39:20Z</time>
      </trkpt>
      <trkpt lat="43.57251" lon="3.66256">
        <ele>295.7</ele>
        <time>2021-04-15T14:39:22Z</time>
      </trkpt>
      <trkpt lat="43.57251" lon="3.66256">
        <ele>309</ele>
        <time>2021-04-15T14:39:22Z</time>
      </trkpt>
      <trkpt lat="43.57249" lon="3.66255">
        <ele>295.7</ele>
        <time>2021-04-15T14:39:24Z</time>
      </trkpt>
      <trkpt lat="43.57249" lon="3.66255">
        <ele>309</ele>
        <time>2021-04-15T14:39:24Z</time>
      </trkpt>
      <trkpt lat="43.57246" lon="3.66253">
        <ele>295.5</ele>
        <time>2021-04-15T14:39:26Z</time>
      </trkpt>
      <trkpt lat="43.57246" lon="3.66253">
        <ele>309</ele>
        <time>2021-04-15T14:39:26Z</time>
      </trkpt>
      <trkpt lat="43.57244" lon="3.66251">
        <ele>295.4</ele>
        <time>2021-04-15T14:39:27Z</time>
      </trkpt>
      <trkpt lat="43.57244" lon="3.66251">
        <ele>309</ele>
        <time>2021-04-15T14:39:27Z</time>
      </trkpt>
      <trkpt lat="43.57242" lon="3.6625">
        <ele>295.2</ele>
        <time>2021-04-15T14:39:28Z</time>
      </trkpt>
      <trkpt lat="43.57242" lon="3.6625">
        <ele>309</ele>
        <time>2021-04-15T14:39:28Z</time>
      </trkpt>
      <trkpt lat="43.57241" lon="3.66249">
        <ele>295.2</ele>
        <time>2021-04-15T14:39:29Z</time>
      </trkpt>
      <trkpt lat="43.57241" lon="3.66249">
        <ele>309</ele>
        <time>2021-04-15T14:39:29Z</time>
      </trkpt>
      <trkpt lat="43.57239" lon="3.66247">
        <ele>295.1</ele>
        <time>2021-04-15T14:39:31Z</time>
      </trkpt>
      <trkpt lat="43.57239" lon="3.66247">
        <ele>309</ele>
        <time>2021-04-15T14:39:31Z</time>
      </trkpt>
      <trkpt lat="43.57237" lon="3.66246">
        <ele>295.1</ele>
        <time>2021-04-15T14:39:33Z</time>
      </trkpt>
      <trkpt lat="43.57237" lon="3.66246">
        <ele>309</ele>
        <time>2021-04-15T14:39:33Z</time>
      </trkpt>
      <trkpt lat="43.57236" lon="3.66245">
        <ele>295</ele>
        <time>2021-04-15T14:39:35Z</time>
      </trkpt>
      <trkpt lat="43.57236" lon="3.66245">
        <ele>309</ele>
        <time>2021-04-15T14:39:35Z</time>
      </trkpt>
      <trkpt lat="43.57234" lon="3.66245">
        <ele>295.1</ele>
        <time>2021-04-15T14:39:36Z</time>
      </trkpt>
      <trkpt lat="43.57234" lon="3.66245">
        <ele>309</ele>
        <time>2021-04-15T14:39:36Z</time>
      </trkpt>
      <trkpt lat="43.57232" lon="3.66245">
        <ele>295.1</ele>
        <time>2021-04-15T14:39:37Z</time>
      </trkpt>
      <trkpt lat="43.57232" lon="3.66245">
        <ele>309</ele>
        <time>2021-04-15T14:39:37Z</time>
      </trkpt>
      <trkpt lat="43.5723" lon="3.66244">
        <ele>295.1</ele>
        <time>2021-04-15T14:39:39Z</time>
      </trkpt>
      <trkpt lat="43.5723" lon="3.66244">
        <ele>309</ele>
        <time>2021-04-15T14:39:39Z</time>
      </trkpt>
      <trkpt lat="43.57228" lon="3.66244">
        <ele>295.2</ele>
        <time>2021-04-15T14:39:40Z</time>
      </trkpt>
      <trkpt lat="43.57228" lon="3.66244">
        <ele>309</ele>
        <time>2021-04-15T14:39:40Z</time>
      </trkpt>
      <trkpt lat="43.57227" lon="3.66243">
        <ele>295.3</ele>
        <time>2021-04-15T14:39:41Z</time>
      </trkpt>
      <trkpt lat="43.57227" lon="3.66243">
        <ele>309</ele>
        <time>2021-04-15T14:39:41Z</time>
      </trkpt>
      <trkpt lat="43.57225" lon="3.66243">
        <ele>295.4</ele>
        <time>2021-04-15T14:39:43Z</time>
      </trkpt>
      <trkpt lat="43.57225" lon="3.66243">
        <ele>309</ele>
        <time>2021-04-15T14:39:43Z</time>
      </trkpt>
      <trkpt lat="43.57223" lon="3.66242">
        <ele>295.4</ele>
        <time>2021-04-15T14:39:44Z</time>
      </trkpt>
      <trkpt lat="43.57223" lon="3.66242">
        <ele>309</ele>
        <time>2021-04-15T14:39:44Z</time>
      </trkpt>
      <trkpt lat="43.57221" lon="3.66242">
        <ele>295.3</ele>
        <time>2021-04-15T14:39:46Z</time>
      </trkpt>
      <trkpt lat="43.57221" lon="3.66242">
        <ele>309</ele>
        <time>2021-04-15T14:39:46Z</time>
      </trkpt>
      <trkpt lat="43.57219" lon="3.66241">
        <ele>295.2</ele>
        <time>2021-04-15T14:39:48Z</time>
      </trkpt>
      <trkpt lat="43.57219" lon="3.66241">
        <ele>309</ele>
        <time>2021-04-15T14:39:48Z</time>
      </trkpt>
      <trkpt lat="43.57217" lon="3.66241">
        <ele>295.1</ele>
        <time>2021-04-15T14:39:49Z</time>
      </trkpt>
      <trkpt lat="43.57217" lon="3.66241">
        <ele>309</ele>
        <time>2021-04-15T14:39:49Z</time>
      </trkpt>
      <trkpt lat="43.57215" lon="3.66241">
        <ele>295</ele>
        <time>2021-04-15T14:39:50Z</time>
      </trkpt>
      <trkpt lat="43.57215" lon="3.66241">
        <ele>309</ele>
        <time>2021-04-15T14:39:50Z</time>
      </trkpt>
      <trkpt lat="43.57214" lon="3.66241">
        <ele>294.9</ele>
        <time>2021-04-15T14:39:52Z</time>
      </trkpt>
      <trkpt lat="43.57214" lon="3.66241">
        <ele>309</ele>
        <time>2021-04-15T14:39:52Z</time>
      </trkpt>
      <trkpt lat="43.57211" lon="3.66241">
        <ele>294.9</ele>
        <time>2021-04-15T14:39:54Z</time>
      </trkpt>
      <trkpt lat="43.57211" lon="3.66241">
        <ele>309</ele>
        <time>2021-04-15T14:39:54Z</time>
      </trkpt>
      <trkpt lat="43.57209" lon="3.66242">
        <ele>294.8</ele>
        <time>2021-04-15T14:39:56Z</time>
      </trkpt>
      <trkpt lat="43.57209" lon="3.66242">
        <ele>309</ele>
        <time>2021-04-15T14:39:56Z</time>
      </trkpt>
      <trkpt lat="43.57206" lon="3.66243">
        <ele>294.7</ele>
        <time>2021-04-15T14:39:58Z</time>
      </trkpt>
      <trkpt lat="43.57206" lon="3.66243">
        <ele>309</ele>
        <time>2021-04-15T14:39:58Z</time>
      </trkpt>
      <trkpt lat="43.57203" lon="3.66244">
        <ele>294.7</ele>
        <time>2021-04-15T14:40:00Z</time>
      </trkpt>
      <trkpt lat="43.57203" lon="3.66244">
        <ele>309</ele>
        <time>2021-04-15T14:40:00Z</time>
      </trkpt>
      <trkpt lat="43.572" lon="3.66245">
        <ele>294.7</ele>
        <time>2021-04-15T14:40:02Z</time>
      </trkpt>
      <trkpt lat="43.572" lon="3.66245">
        <ele>309</ele>
        <time>2021-04-15T14:40:02Z</time>
      </trkpt>
      <trkpt lat="43.57198" lon="3.66247">
        <ele>294.8</ele>
        <time>2021-04-15T14:40:04Z</time>
      </trkpt>
      <trkpt lat="43.57198" lon="3.66247">
        <ele>309</ele>
        <time>2021-04-15T14:40:04Z</time>
      </trkpt>
      <trkpt lat="43.57196" lon="3.66248">
        <ele>294.9</ele>
        <time>2021-04-15T14:40:05Z</time>
      </trkpt>
      <trkpt lat="43.57196" lon="3.66248">
        <ele>309</ele>
        <time>2021-04-15T14:40:05Z</time>
      </trkpt>
      <trkpt lat="43.57194" lon="3.6625">
        <ele>295</ele>
        <time>2021-04-15T14:40:07Z</time>
      </trkpt>
      <trkpt lat="43.57194" lon="3.6625">
        <ele>309</ele>
        <time>2021-04-15T14:40:07Z</time>
      </trkpt>
      <trkpt lat="43.57193" lon="3.66251">
        <ele>294.8</ele>
        <time>2021-04-15T14:40:08Z</time>
      </trkpt>
      <trkpt lat="43.57193" lon="3.66251">
        <ele>309</ele>
        <time>2021-04-15T14:40:08Z</time>
      </trkpt>
      <trkpt lat="43.57192" lon="3.66253">
        <ele>294.7</ele>
        <time>2021-04-15T14:40:10Z</time>
      </trkpt>
      <trkpt lat="43.57192" lon="3.66253">
        <ele>309</ele>
        <time>2021-04-15T14:40:10Z</time>
      </trkpt>
      <trkpt lat="43.5719" lon="3.66255">
        <ele>294.5</ele>
        <time>2021-04-15T14:40:12Z</time>
      </trkpt>
      <trkpt lat="43.5719" lon="3.66255">
        <ele>309</ele>
        <time>2021-04-15T14:40:12Z</time>
      </trkpt>
      <trkpt lat="43.57188" lon="3.66256">
        <ele>294.3</ele>
        <time>2021-04-15T14:40:13Z</time>
      </trkpt>
      <trkpt lat="43.57188" lon="3.66256">
        <ele>309</ele>
        <time>2021-04-15T14:40:13Z</time>
      </trkpt>
      <trkpt lat="43.57186" lon="3.66257">
        <ele>294</ele>
        <time>2021-04-15T14:40:15Z</time>
      </trkpt>
      <trkpt lat="43.57186" lon="3.66257">
        <ele>309</ele>
        <time>2021-04-15T14:40:15Z</time>
      </trkpt>
      <trkpt lat="43.57185" lon="3.66259">
        <ele>293.9</ele>
        <time>2021-04-15T14:40:16Z</time>
      </trkpt>
      <trkpt lat="43.57185" lon="3.66259">
        <ele>309</ele>
        <time>2021-04-15T14:40:16Z</time>
      </trkpt>
      <trkpt lat="43.57183" lon="3.6626">
        <ele>293.7</ele>
        <time>2021-04-15T14:40:18Z</time>
      </trkpt>
      <trkpt lat="43.57183" lon="3.6626">
        <ele>309</ele>
        <time>2021-04-15T14:40:18Z</time>
      </trkpt>
      <trkpt lat="43.57182" lon="3.66262">
        <ele>293.5</ele>
        <time>2021-04-15T14:40:20Z</time>
      </trkpt>
      <trkpt lat="43.57182" lon="3.66262">
        <ele>309</ele>
        <time>2021-04-15T14:40:20Z</time>
      </trkpt>
      <trkpt lat="43.5718" lon="3.66263">
        <ele>293.2</ele>
        <time>2021-04-15T14:40:22Z</time>
      </trkpt>
      <trkpt lat="43.5718" lon="3.66263">
        <ele>309</ele>
        <time>2021-04-15T14:40:22Z</time>
      </trkpt>
      <trkpt lat="43.57178" lon="3.66265">
        <ele>293.1</ele>
        <time>2021-04-15T14:40:24Z</time>
      </trkpt>
      <trkpt lat="43.57178" lon="3.66265">
        <ele>307</ele>
        <time>2021-04-15T14:40:24Z</time>
      </trkpt>
      <trkpt lat="43.57177" lon="3.66267">
        <ele>292.9</ele>
        <time>2021-04-15T14:40:25Z</time>
      </trkpt>
      <trkpt lat="43.57177" lon="3.66267">
        <ele>307</ele>
        <time>2021-04-15T14:40:25Z</time>
      </trkpt>
      <trkpt lat="43.57175" lon="3.66268">
        <ele>292.8</ele>
        <time>2021-04-15T14:40:26Z</time>
      </trkpt>
      <trkpt lat="43.57175" lon="3.66268">
        <ele>307</ele>
        <time>2021-04-15T14:40:26Z</time>
      </trkpt>
      <trkpt lat="43.57174" lon="3.6627">
        <ele>292.6</ele>
        <time>2021-04-15T14:40:28Z</time>
      </trkpt>
      <trkpt lat="43.57174" lon="3.6627">
        <ele>307</ele>
        <time>2021-04-15T14:40:28Z</time>
      </trkpt>
      <trkpt lat="43.57172" lon="3.66271">
        <ele>292.4</ele>
        <time>2021-04-15T14:40:30Z</time>
      </trkpt>
      <trkpt lat="43.57172" lon="3.66271">
        <ele>307</ele>
        <time>2021-04-15T14:40:30Z</time>
      </trkpt>
      <trkpt lat="43.5717" lon="3.66272">
        <ele>292.2</ele>
        <time>2021-04-15T14:40:32Z</time>
      </trkpt>
      <trkpt lat="43.5717" lon="3.66272">
        <ele>307</ele>
        <time>2021-04-15T14:40:32Z</time>
      </trkpt>
      <trkpt lat="43.57169" lon="3.66274">
        <ele>292</ele>
        <time>2021-04-15T14:40:33Z</time>
      </trkpt>
      <trkpt lat="43.57169" lon="3.66274">
        <ele>307</ele>
        <time>2021-04-15T14:40:33Z</time>
      </trkpt>
      <trkpt lat="43.57168" lon="3.66275">
        <ele>291.9</ele>
        <time>2021-04-15T14:40:35Z</time>
      </trkpt>
      <trkpt lat="43.57168" lon="3.66275">
        <ele>307</ele>
        <time>2021-04-15T14:40:35Z</time>
      </trkpt>
      <trkpt lat="43.57167" lon="3.66277">
        <ele>291.8</ele>
        <time>2021-04-15T14:40:36Z</time>
      </trkpt>
      <trkpt lat="43.57167" lon="3.66277">
        <ele>307</ele>
        <time>2021-04-15T14:40:36Z</time>
      </trkpt>
      <trkpt lat="43.57165" lon="3.66278">
        <ele>291.7</ele>
        <time>2021-04-15T14:40:38Z</time>
      </trkpt>
      <trkpt lat="43.57165" lon="3.66278">
        <ele>307</ele>
        <time>2021-04-15T14:40:38Z</time>
      </trkpt>
      <trkpt lat="43.57164" lon="3.6628">
        <ele>291.5</ele>
        <time>2021-04-15T14:40:40Z</time>
      </trkpt>
      <trkpt lat="43.57164" lon="3.6628">
        <ele>306</ele>
        <time>2021-04-15T14:40:40Z</time>
      </trkpt>
      <trkpt lat="43.57164" lon="3.66281">
        <ele>291.4</ele>
        <time>2021-04-15T14:40:41Z</time>
      </trkpt>
      <trkpt lat="43.57164" lon="3.66281">
        <ele>306</ele>
        <time>2021-04-15T14:40:41Z</time>
      </trkpt>
      <trkpt lat="43.57163" lon="3.66281">
        <ele>291.2</ele>
        <time>2021-04-15T14:40:43Z</time>
      </trkpt>
      <trkpt lat="43.57163" lon="3.66281">
        <ele>306</ele>
        <time>2021-04-15T14:40:43Z</time>
      </trkpt>
      <trkpt lat="43.57162" lon="3.66281">
        <ele>291.1</ele>
        <time>2021-04-15T14:40:45Z</time>
      </trkpt>
      <trkpt lat="43.57162" lon="3.66281">
        <ele>306</ele>
        <time>2021-04-15T14:40:45Z</time>
      </trkpt>
      <trkpt lat="43.57162" lon="3.66281">
        <ele>291</ele>
        <time>2021-04-15T14:40:46Z</time>
      </trkpt>
      <trkpt lat="43.57162" lon="3.66281">
        <ele>306</ele>
        <time>2021-04-15T14:40:46Z</time>
      </trkpt>
      <trkpt lat="43.57154" lon="3.66292">
        <ele>289.5</ele>
        <time>2021-04-15T14:40:59Z</time>
      </trkpt>
      <trkpt lat="43.57154" lon="3.66292">
        <ele>305</ele>
        <time>2021-04-15T14:40:59Z</time>
      </trkpt>
      <trkpt lat="43.57153" lon="3.66293">
        <ele>289.4</ele>
        <time>2021-04-15T14:41:01Z</time>
      </trkpt>
      <trkpt lat="43.57153" lon="3.66293">
        <ele>305</ele>
        <time>2021-04-15T14:41:01Z</time>
      </trkpt>
      <trkpt lat="43.57153" lon="3.66293">
        <ele>289.3</ele>
        <time>2021-04-15T14:41:03Z</time>
      </trkpt>
      <trkpt lat="43.57153" lon="3.66293">
        <ele>305</ele>
        <time>2021-04-15T14:41:03Z</time>
      </trkpt>
      <trkpt lat="43.57152" lon="3.66294">
        <ele>289.2</ele>
        <time>2021-04-15T14:41:04Z</time>
      </trkpt>
      <trkpt lat="43.57152" lon="3.66294">
        <ele>305</ele>
        <time>2021-04-15T14:41:04Z</time>
      </trkpt>
      <trkpt lat="43.57151" lon="3.66295">
        <ele>289.1</ele>
        <time>2021-04-15T14:41:06Z</time>
      </trkpt>
      <trkpt lat="43.57151" lon="3.66295">
        <ele>305</ele>
        <time>2021-04-15T14:41:06Z</time>
      </trkpt>
      <trkpt lat="43.5715" lon="3.66297">
        <ele>288.9</ele>
        <time>2021-04-15T14:41:08Z</time>
      </trkpt>
      <trkpt lat="43.5715" lon="3.66297">
        <ele>305</ele>
        <time>2021-04-15T14:41:08Z</time>
      </trkpt>
      <trkpt lat="43.57149" lon="3.66299">
        <ele>288.7</ele>
        <time>2021-04-15T14:41:10Z</time>
      </trkpt>
      <trkpt lat="43.57149" lon="3.66299">
        <ele>305</ele>
        <time>2021-04-15T14:41:10Z</time>
      </trkpt>
      <trkpt lat="43.57149" lon="3.66301">
        <ele>288.5</ele>
        <time>2021-04-15T14:41:11Z</time>
      </trkpt>
      <trkpt lat="43.57149" lon="3.66301">
        <ele>305</ele>
        <time>2021-04-15T14:41:11Z</time>
      </trkpt>
      <trkpt lat="43.57148" lon="3.66303">
        <ele>288.4</ele>
        <time>2021-04-15T14:41:13Z</time>
      </trkpt>
      <trkpt lat="43.57148" lon="3.66303">
        <ele>303</ele>
        <time>2021-04-15T14:41:13Z</time>
      </trkpt>
      <trkpt lat="43.57148" lon="3.66304">
        <ele>288.5</ele>
        <time>2021-04-15T14:41:15Z</time>
      </trkpt>
      <trkpt lat="43.57148" lon="3.66304">
        <ele>303</ele>
        <time>2021-04-15T14:41:15Z</time>
      </trkpt>
      <trkpt lat="43.57147" lon="3.66306">
        <ele>288.4</ele>
        <time>2021-04-15T14:41:17Z</time>
      </trkpt>
      <trkpt lat="43.57147" lon="3.66306">
        <ele>303</ele>
        <time>2021-04-15T14:41:17Z</time>
      </trkpt>
      <trkpt lat="43.57147" lon="3.66308">
        <ele>288.2</ele>
        <time>2021-04-15T14:41:19Z</time>
      </trkpt>
      <trkpt lat="43.57147" lon="3.66308">
        <ele>303</ele>
        <time>2021-04-15T14:41:19Z</time>
      </trkpt>
      <trkpt lat="43.57146" lon="3.6631">
        <ele>287.9</ele>
        <time>2021-04-15T14:41:21Z</time>
      </trkpt>
      <trkpt lat="43.57146" lon="3.6631">
        <ele>303</ele>
        <time>2021-04-15T14:41:21Z</time>
      </trkpt>
      <trkpt lat="43.57146" lon="3.66313">
        <ele>287.6</ele>
        <time>2021-04-15T14:41:23Z</time>
      </trkpt>
      <trkpt lat="43.57146" lon="3.66313">
        <ele>303</ele>
        <time>2021-04-15T14:41:23Z</time>
      </trkpt>
      <trkpt lat="43.57145" lon="3.66315">
        <ele>287.3</ele>
        <time>2021-04-15T14:41:25Z</time>
      </trkpt>
      <trkpt lat="43.57145" lon="3.66315">
        <ele>303</ele>
        <time>2021-04-15T14:41:25Z</time>
      </trkpt>
      <trkpt lat="43.57145" lon="3.66317">
        <ele>287</ele>
        <time>2021-04-15T14:41:26Z</time>
      </trkpt>
      <trkpt lat="43.57145" lon="3.66317">
        <ele>303</ele>
        <time>2021-04-15T14:41:26Z</time>
      </trkpt>
      <trkpt lat="43.57145" lon="3.66319">
        <ele>286.9</ele>
        <time>2021-04-15T14:41:28Z</time>
      </trkpt>
      <trkpt lat="43.57145" lon="3.66319">
        <ele>303</ele>
        <time>2021-04-15T14:41:28Z</time>
      </trkpt>
      <trkpt lat="43.57145" lon="3.66321">
        <ele>286.8</ele>
        <time>2021-04-15T14:41:30Z</time>
      </trkpt>
      <trkpt lat="43.57145" lon="3.66321">
        <ele>302</ele>
        <time>2021-04-15T14:41:30Z</time>
      </trkpt>
      <trkpt lat="43.57145" lon="3.66323">
        <ele>286.7</ele>
        <time>2021-04-15T14:41:31Z</time>
      </trkpt>
      <trkpt lat="43.57145" lon="3.66323">
        <ele>302</ele>
        <time>2021-04-15T14:41:31Z</time>
      </trkpt>
      <trkpt lat="43.57145" lon="3.66325">
        <ele>286.6</ele>
        <time>2021-04-15T14:41:33Z</time>
      </trkpt>
      <trkpt lat="43.57145" lon="3.66325">
        <ele>302</ele>
        <time>2021-04-15T14:41:33Z</time>
      </trkpt>
      <trkpt lat="43.57145" lon="3.66327">
        <ele>286.5</ele>
        <time>2021-04-15T14:41:35Z</time>
      </trkpt>
      <trkpt lat="43.57145" lon="3.66327">
        <ele>302</ele>
        <time>2021-04-15T14:41:35Z</time>
      </trkpt>
      <trkpt lat="43.57146" lon="3.66331">
        <ele>286.6</ele>
        <time>2021-04-15T14:41:39Z</time>
      </trkpt>
      <trkpt lat="43.57146" lon="3.66331">
        <ele>302</ele>
        <time>2021-04-15T14:41:39Z</time>
      </trkpt>
      <trkpt lat="43.57146" lon="3.66331">
        <ele>286.7</ele>
        <time>2021-04-15T14:41:41Z</time>
      </trkpt>
      <trkpt lat="43.57146" lon="3.66331">
        <ele>302</ele>
        <time>2021-04-15T14:41:41Z</time>
      </trkpt>
      <trkpt lat="43.57144" lon="3.66334">
        <ele>285.8</ele>
        <time>2021-04-15T14:43:19Z</time>
      </trkpt>
      <trkpt lat="43.57144" lon="3.66334">
        <ele>302</ele>
        <time>2021-04-15T14:43:19Z</time>
      </trkpt>
      <trkpt lat="43.57144" lon="3.66334">
        <ele>285.8</ele>
        <time>2021-04-15T14:43:20Z</time>
      </trkpt>
      <trkpt lat="43.57144" lon="3.66334">
        <ele>302</ele>
        <time>2021-04-15T14:43:20Z</time>
      </trkpt>
      <trkpt lat="43.57145" lon="3.66334">
        <ele>285.9</ele>
        <time>2021-04-15T14:43:22Z</time>
      </trkpt>
      <trkpt lat="43.57145" lon="3.66334">
        <ele>302</ele>
        <time>2021-04-15T14:43:22Z</time>
      </trkpt>
      <trkpt lat="43.57145" lon="3.66335">
        <ele>285.9</ele>
        <time>2021-04-15T14:43:23Z</time>
      </trkpt>
      <trkpt lat="43.57145" lon="3.66335">
        <ele>302</ele>
        <time>2021-04-15T14:43:23Z</time>
      </trkpt>
      <trkpt lat="43.57146" lon="3.66336">
        <ele>286</ele>
        <time>2021-04-15T14:43:24Z</time>
      </trkpt>
      <trkpt lat="43.57146" lon="3.66336">
        <ele>302</ele>
        <time>2021-04-15T14:43:24Z</time>
      </trkpt>
      <trkpt lat="43.57147" lon="3.66338">
        <ele>286</ele>
        <time>2021-04-15T14:43:26Z</time>
      </trkpt>
      <trkpt lat="43.57147" lon="3.66338">
        <ele>302</ele>
        <time>2021-04-15T14:43:26Z</time>
      </trkpt>
      <trkpt lat="43.57148" lon="3.6634">
        <ele>286</ele>
        <time>2021-04-15T14:43:28Z</time>
      </trkpt>
      <trkpt lat="43.57148" lon="3.6634">
        <ele>302</ele>
        <time>2021-04-15T14:43:28Z</time>
      </trkpt>
      <trkpt lat="43.57149" lon="3.66343">
        <ele>285.8</ele>
        <time>2021-04-15T14:43:30Z</time>
      </trkpt>
      <trkpt lat="43.57149" lon="3.66343">
        <ele>302</ele>
        <time>2021-04-15T14:43:30Z</time>
      </trkpt>
      <trkpt lat="43.5715" lon="3.66346">
        <ele>285.7</ele>
        <time>2021-04-15T14:43:32Z</time>
      </trkpt>
      <trkpt lat="43.5715" lon="3.66346">
        <ele>302</ele>
        <time>2021-04-15T14:43:32Z</time>
      </trkpt>
      <trkpt lat="43.57151" lon="3.66349">
        <ele>285.6</ele>
        <time>2021-04-15T14:43:33Z</time>
      </trkpt>
      <trkpt lat="43.57151" lon="3.66349">
        <ele>302</ele>
        <time>2021-04-15T14:43:33Z</time>
      </trkpt>
      <trkpt lat="43.57152" lon="3.66352">
        <ele>285.6</ele>
        <time>2021-04-15T14:43:35Z</time>
      </trkpt>
      <trkpt lat="43.57152" lon="3.66352">
        <ele>302</ele>
        <time>2021-04-15T14:43:35Z</time>
      </trkpt>
      <trkpt lat="43.57154" lon="3.66355">
        <ele>285.4</ele>
        <time>2021-04-15T14:43:37Z</time>
      </trkpt>
      <trkpt lat="43.57154" lon="3.66355">
        <ele>302</ele>
        <time>2021-04-15T14:43:37Z</time>
      </trkpt>
      <trkpt lat="43.57154" lon="3.66359">
        <ele>285</ele>
        <time>2021-04-15T14:43:39Z</time>
      </trkpt>
      <trkpt lat="43.57154" lon="3.66359">
        <ele>296</ele>
        <time>2021-04-15T14:43:39Z</time>
      </trkpt>
      <trkpt lat="43.57155" lon="3.66362">
        <ele>284.7</ele>
        <time>2021-04-15T14:43:40Z</time>
      </trkpt>
      <trkpt lat="43.57155" lon="3.66362">
        <ele>296</ele>
        <time>2021-04-15T14:43:40Z</time>
      </trkpt>
      <trkpt lat="43.57156" lon="3.66365">
        <ele>284.1</ele>
        <time>2021-04-15T14:43:42Z</time>
      </trkpt>
      <trkpt lat="43.57156" lon="3.66365">
        <ele>296</ele>
        <time>2021-04-15T14:43:42Z</time>
      </trkpt>
      <trkpt lat="43.57157" lon="3.66367">
        <ele>283.6</ele>
        <time>2021-04-15T14:43:43Z</time>
      </trkpt>
      <trkpt lat="43.57157" lon="3.66367">
        <ele>296</ele>
        <time>2021-04-15T14:43:43Z</time>
      </trkpt>
      <trkpt lat="43.57158" lon="3.6637">
        <ele>283.2</ele>
        <time>2021-04-15T14:43:45Z</time>
      </trkpt>
      <trkpt lat="43.57158" lon="3.6637">
        <ele>296</ele>
        <time>2021-04-15T14:43:45Z</time>
      </trkpt>
      <trkpt lat="43.57158" lon="3.66372">
        <ele>283</ele>
        <time>2021-04-15T14:43:46Z</time>
      </trkpt>
      <trkpt lat="43.57158" lon="3.66372">
        <ele>296</ele>
        <time>2021-04-15T14:43:46Z</time>
      </trkpt>
      <trkpt lat="43.57159" lon="3.66374">
        <ele>282.6</ele>
        <time>2021-04-15T14:43:48Z</time>
      </trkpt>
      <trkpt lat="43.57159" lon="3.66374">
        <ele>296</ele>
        <time>2021-04-15T14:43:48Z</time>
      </trkpt>
      <trkpt lat="43.5716" lon="3.66376">
        <ele>282.2</ele>
        <time>2021-04-15T14:43:50Z</time>
      </trkpt>
      <trkpt lat="43.5716" lon="3.66376">
        <ele>296</ele>
        <time>2021-04-15T14:43:50Z</time>
      </trkpt>
      <trkpt lat="43.57161" lon="3.66379">
        <ele>281.8</ele>
        <time>2021-04-15T14:43:52Z</time>
      </trkpt>
      <trkpt lat="43.57161" lon="3.66379">
        <ele>296</ele>
        <time>2021-04-15T14:43:52Z</time>
      </trkpt>
      <trkpt lat="43.57161" lon="3.66381">
        <ele>281.3</ele>
        <time>2021-04-15T14:43:54Z</time>
      </trkpt>
      <trkpt lat="43.57161" lon="3.66381">
        <ele>296</ele>
        <time>2021-04-15T14:43:54Z</time>
      </trkpt>
      <trkpt lat="43.57162" lon="3.66384">
        <ele>280.8</ele>
        <time>2021-04-15T14:43:56Z</time>
      </trkpt>
      <trkpt lat="43.57162" lon="3.66384">
        <ele>296</ele>
        <time>2021-04-15T14:43:56Z</time>
      </trkpt>
      <trkpt lat="43.57163" lon="3.66386">
        <ele>280.5</ele>
        <time>2021-04-15T14:43:57Z</time>
      </trkpt>
      <trkpt lat="43.57163" lon="3.66386">
        <ele>296</ele>
        <time>2021-04-15T14:43:57Z</time>
      </trkpt>
      <trkpt lat="43.57164" lon="3.66389">
        <ele>280.2</ele>
        <time>2021-04-15T14:43:59Z</time>
      </trkpt>
      <trkpt lat="43.57164" lon="3.66389">
        <ele>296</ele>
        <time>2021-04-15T14:43:59Z</time>
      </trkpt>
      <trkpt lat="43.57165" lon="3.6639">
        <ele>280.1</ele>
        <time>2021-04-15T14:44:00Z</time>
      </trkpt>
      <trkpt lat="43.57165" lon="3.6639">
        <ele>296</ele>
        <time>2021-04-15T14:44:00Z</time>
      </trkpt>
      <trkpt lat="43.57166" lon="3.66393">
        <ele>279.9</ele>
        <time>2021-04-15T14:44:02Z</time>
      </trkpt>
      <trkpt lat="43.57166" lon="3.66393">
        <ele>293</ele>
        <time>2021-04-15T14:44:02Z</time>
      </trkpt>
      <trkpt lat="43.57166" lon="3.66395">
        <ele>279.8</ele>
        <time>2021-04-15T14:44:04Z</time>
      </trkpt>
      <trkpt lat="43.57166" lon="3.66395">
        <ele>293</ele>
        <time>2021-04-15T14:44:04Z</time>
      </trkpt>
      <trkpt lat="43.57167" lon="3.66397">
        <ele>279.8</ele>
        <time>2021-04-15T14:44:05Z</time>
      </trkpt>
      <trkpt lat="43.57167" lon="3.66397">
        <ele>293</ele>
        <time>2021-04-15T14:44:05Z</time>
      </trkpt>
      <trkpt lat="43.57168" lon="3.66399">
        <ele>279.8</ele>
        <time>2021-04-15T14:44:07Z</time>
      </trkpt>
      <trkpt lat="43.57168" lon="3.66399">
        <ele>293</ele>
        <time>2021-04-15T14:44:07Z</time>
      </trkpt>
      <trkpt lat="43.57169" lon="3.66401">
        <ele>279.8</ele>
        <time>2021-04-15T14:44:08Z</time>
      </trkpt>
      <trkpt lat="43.57169" lon="3.66401">
        <ele>293</ele>
        <time>2021-04-15T14:44:08Z</time>
      </trkpt>
      <trkpt lat="43.57169" lon="3.66403">
        <ele>279.6</ele>
        <time>2021-04-15T14:44:10Z</time>
      </trkpt>
      <trkpt lat="43.57169" lon="3.66403">
        <ele>293</ele>
        <time>2021-04-15T14:44:10Z</time>
      </trkpt>
      <trkpt lat="43.5717" lon="3.66406">
        <ele>279.5</ele>
        <time>2021-04-15T14:44:12Z</time>
      </trkpt>
      <trkpt lat="43.5717" lon="3.66406">
        <ele>293</ele>
        <time>2021-04-15T14:44:12Z</time>
      </trkpt>
      <trkpt lat="43.57171" lon="3.66408">
        <ele>279.6</ele>
        <time>2021-04-15T14:44:13Z</time>
      </trkpt>
      <trkpt lat="43.57171" lon="3.66408">
        <ele>293</ele>
        <time>2021-04-15T14:44:13Z</time>
      </trkpt>
      <trkpt lat="43.57172" lon="3.6641">
        <ele>279.5</ele>
        <time>2021-04-15T14:44:15Z</time>
      </trkpt>
      <trkpt lat="43.57172" lon="3.6641">
        <ele>293</ele>
        <time>2021-04-15T14:44:15Z</time>
      </trkpt>
      <trkpt lat="43.57173" lon="3.66412">
        <ele>279.5</ele>
        <time>2021-04-15T14:44:16Z</time>
      </trkpt>
      <trkpt lat="43.57173" lon="3.66412">
        <ele>293</ele>
        <time>2021-04-15T14:44:16Z</time>
      </trkpt>
      <trkpt lat="43.57173" lon="3.66414">
        <ele>279.2</ele>
        <time>2021-04-15T14:44:18Z</time>
      </trkpt>
      <trkpt lat="43.57173" lon="3.66414">
        <ele>291</ele>
        <time>2021-04-15T14:44:18Z</time>
      </trkpt>
      <trkpt lat="43.57174" lon="3.66416">
        <ele>278.9</ele>
        <time>2021-04-15T14:44:20Z</time>
      </trkpt>
      <trkpt lat="43.57174" lon="3.66416">
        <ele>291</ele>
        <time>2021-04-15T14:44:20Z</time>
      </trkpt>
      <trkpt lat="43.57174" lon="3.66418">
        <ele>278.6</ele>
        <time>2021-04-15T14:44:21Z</time>
      </trkpt>
      <trkpt lat="43.57174" lon="3.66418">
        <ele>291</ele>
        <time>2021-04-15T14:44:21Z</time>
      </trkpt>
      <trkpt lat="43.57175" lon="3.6642">
        <ele>278.4</ele>
        <time>2021-04-15T14:44:22Z</time>
      </trkpt>
      <trkpt lat="43.57175" lon="3.6642">
        <ele>291</ele>
        <time>2021-04-15T14:44:22Z</time>
      </trkpt>
      <trkpt lat="43.57175" lon="3.66422">
        <ele>278.2</ele>
        <time>2021-04-15T14:44:23Z</time>
      </trkpt>
      <trkpt lat="43.57175" lon="3.66422">
        <ele>291</ele>
        <time>2021-04-15T14:44:23Z</time>
      </trkpt>
      <trkpt lat="43.57176" lon="3.66425">
        <ele>277.9</ele>
        <time>2021-04-15T14:44:25Z</time>
      </trkpt>
      <trkpt lat="43.57176" lon="3.66425">
        <ele>291</ele>
        <time>2021-04-15T14:44:25Z</time>
      </trkpt>
      <trkpt lat="43.57177" lon="3.66427">
        <ele>277.6</ele>
        <time>2021-04-15T14:44:27Z</time>
      </trkpt>
      <trkpt lat="43.57177" lon="3.66427">
        <ele>291</ele>
        <time>2021-04-15T14:44:27Z</time>
      </trkpt>
      <trkpt lat="43.57178" lon="3.6643">
        <ele>277.3</ele>
        <time>2021-04-15T14:44:28Z</time>
      </trkpt>
      <trkpt lat="43.57178" lon="3.6643">
        <ele>291</ele>
        <time>2021-04-15T14:44:28Z</time>
      </trkpt>
      <trkpt lat="43.57179" lon="3.66433">
        <ele>276.9</ele>
        <time>2021-04-15T14:44:30Z</time>
      </trkpt>
      <trkpt lat="43.57179" lon="3.66433">
        <ele>291</ele>
        <time>2021-04-15T14:44:30Z</time>
      </trkpt>
      <trkpt lat="43.5718" lon="3.66435">
        <ele>276.5</ele>
        <time>2021-04-15T14:44:32Z</time>
      </trkpt>
      <trkpt lat="43.5718" lon="3.66435">
        <ele>291</ele>
        <time>2021-04-15T14:44:32Z</time>
      </trkpt>
      <trkpt lat="43.57181" lon="3.66438">
        <ele>276.1</ele>
        <time>2021-04-15T14:44:34Z</time>
      </trkpt>
      <trkpt lat="43.57181" lon="3.66438">
        <ele>291</ele>
        <time>2021-04-15T14:44:34Z</time>
      </trkpt>
      <trkpt lat="43.57182" lon="3.66441">
        <ele>275.6</ele>
        <time>2021-04-15T14:44:35Z</time>
      </trkpt>
      <trkpt lat="43.57182" lon="3.66441">
        <ele>288</ele>
        <time>2021-04-15T14:44:35Z</time>
      </trkpt>
      <trkpt lat="43.57182" lon="3.66443">
        <ele>275.2</ele>
        <time>2021-04-15T14:44:36Z</time>
      </trkpt>
      <trkpt lat="43.57182" lon="3.66443">
        <ele>288</ele>
        <time>2021-04-15T14:44:36Z</time>
      </trkpt>
      <trkpt lat="43.57183" lon="3.66446">
        <ele>274.9</ele>
        <time>2021-04-15T14:44:38Z</time>
      </trkpt>
      <trkpt lat="43.57183" lon="3.66446">
        <ele>288</ele>
        <time>2021-04-15T14:44:38Z</time>
      </trkpt>
      <trkpt lat="43.57184" lon="3.66448">
        <ele>274.8</ele>
        <time>2021-04-15T14:44:39Z</time>
      </trkpt>
      <trkpt lat="43.57184" lon="3.66448">
        <ele>288</ele>
        <time>2021-04-15T14:44:39Z</time>
      </trkpt>
      <trkpt lat="43.57185" lon="3.6645">
        <ele>274.7</ele>
        <time>2021-04-15T14:44:41Z</time>
      </trkpt>
      <trkpt lat="43.57185" lon="3.6645">
        <ele>288</ele>
        <time>2021-04-15T14:44:41Z</time>
      </trkpt>
      <trkpt lat="43.57185" lon="3.66452">
        <ele>274.5</ele>
        <time>2021-04-15T14:44:42Z</time>
      </trkpt>
      <trkpt lat="43.57185" lon="3.66452">
        <ele>288</ele>
        <time>2021-04-15T14:44:42Z</time>
      </trkpt>
      <trkpt lat="43.57186" lon="3.66454">
        <ele>274.4</ele>
        <time>2021-04-15T14:44:44Z</time>
      </trkpt>
      <trkpt lat="43.57186" lon="3.66454">
        <ele>288</ele>
        <time>2021-04-15T14:44:44Z</time>
      </trkpt>
      <trkpt lat="43.57187" lon="3.66456">
        <ele>274.2</ele>
        <time>2021-04-15T14:44:46Z</time>
      </trkpt>
      <trkpt lat="43.57187" lon="3.66456">
        <ele>288</ele>
        <time>2021-04-15T14:44:46Z</time>
      </trkpt>
      <trkpt lat="43.57187" lon="3.66459">
        <ele>273.9</ele>
        <time>2021-04-15T14:44:48Z</time>
      </trkpt>
      <trkpt lat="43.57187" lon="3.66459">
        <ele>288</ele>
        <time>2021-04-15T14:44:48Z</time>
      </trkpt>
      <trkpt lat="43.57188" lon="3.66462">
        <ele>273.6</ele>
        <time>2021-04-15T14:44:50Z</time>
      </trkpt>
      <trkpt lat="43.57188" lon="3.66462">
        <ele>288</ele>
        <time>2021-04-15T14:44:50Z</time>
      </trkpt>
      <trkpt lat="43.57189" lon="3.66465">
        <ele>273.2</ele>
        <time>2021-04-15T14:44:52Z</time>
      </trkpt>
      <trkpt lat="43.57189" lon="3.66465">
        <ele>286</ele>
        <time>2021-04-15T14:44:52Z</time>
      </trkpt>
      <trkpt lat="43.5719" lon="3.66468">
        <ele>272.8</ele>
        <time>2021-04-15T14:44:54Z</time>
      </trkpt>
      <trkpt lat="43.5719" lon="3.66468">
        <ele>286</ele>
        <time>2021-04-15T14:44:54Z</time>
      </trkpt>
      <trkpt lat="43.5719" lon="3.66471">
        <ele>272.4</ele>
        <time>2021-04-15T14:44:56Z</time>
      </trkpt>
      <trkpt lat="43.5719" lon="3.66471">
        <ele>286</ele>
        <time>2021-04-15T14:44:56Z</time>
      </trkpt>
      <trkpt lat="43.57191" lon="3.66475">
        <ele>272.2</ele>
        <time>2021-04-15T14:44:58Z</time>
      </trkpt>
      <trkpt lat="43.57191" lon="3.66475">
        <ele>286</ele>
        <time>2021-04-15T14:44:58Z</time>
      </trkpt>
      <trkpt lat="43.57192" lon="3.66478">
        <ele>272</ele>
        <time>2021-04-15T14:45:00Z</time>
      </trkpt>
      <trkpt lat="43.57192" lon="3.66478">
        <ele>286</ele>
        <time>2021-04-15T14:45:00Z</time>
      </trkpt>
      <trkpt lat="43.57193" lon="3.6648">
        <ele>271.9</ele>
        <time>2021-04-15T14:45:01Z</time>
      </trkpt>
      <trkpt lat="43.57193" lon="3.6648">
        <ele>286</ele>
        <time>2021-04-15T14:45:01Z</time>
      </trkpt>
      <trkpt lat="43.57194" lon="3.66483">
        <ele>271.8</ele>
        <time>2021-04-15T14:45:02Z</time>
      </trkpt>
      <trkpt lat="43.57194" lon="3.66483">
        <ele>286</ele>
        <time>2021-04-15T14:45:02Z</time>
      </trkpt>
      <trkpt lat="43.57195" lon="3.66485">
        <ele>271.7</ele>
        <time>2021-04-15T14:45:04Z</time>
      </trkpt>
      <trkpt lat="43.57195" lon="3.66485">
        <ele>286</ele>
        <time>2021-04-15T14:45:04Z</time>
      </trkpt>
      <trkpt lat="43.57196" lon="3.66488">
        <ele>271.7</ele>
        <time>2021-04-15T14:45:06Z</time>
      </trkpt>
      <trkpt lat="43.57196" lon="3.66488">
        <ele>286</ele>
        <time>2021-04-15T14:45:06Z</time>
      </trkpt>
      <trkpt lat="43.57197" lon="3.6649">
        <ele>271.7</ele>
        <time>2021-04-15T14:45:07Z</time>
      </trkpt>
      <trkpt lat="43.57197" lon="3.6649">
        <ele>286</ele>
        <time>2021-04-15T14:45:07Z</time>
      </trkpt>
      <trkpt lat="43.57198" lon="3.66493">
        <ele>271.6</ele>
        <time>2021-04-15T14:45:09Z</time>
      </trkpt>
      <trkpt lat="43.57198" lon="3.66493">
        <ele>284</ele>
        <time>2021-04-15T14:45:09Z</time>
      </trkpt>
      <trkpt lat="43.57199" lon="3.66496">
        <ele>271.5</ele>
        <time>2021-04-15T14:45:11Z</time>
      </trkpt>
      <trkpt lat="43.57199" lon="3.66496">
        <ele>284</ele>
        <time>2021-04-15T14:45:11Z</time>
      </trkpt>
      <trkpt lat="43.572" lon="3.66498">
        <ele>271.4</ele>
        <time>2021-04-15T14:45:12Z</time>
      </trkpt>
      <trkpt lat="43.572" lon="3.66498">
        <ele>284</ele>
        <time>2021-04-15T14:45:12Z</time>
      </trkpt>
      <trkpt lat="43.57201" lon="3.66501">
        <ele>271.2</ele>
        <time>2021-04-15T14:45:14Z</time>
      </trkpt>
      <trkpt lat="43.57201" lon="3.66501">
        <ele>284</ele>
        <time>2021-04-15T14:45:14Z</time>
      </trkpt>
      <trkpt lat="43.57202" lon="3.66504">
        <ele>271.1</ele>
        <time>2021-04-15T14:45:16Z</time>
      </trkpt>
      <trkpt lat="43.57202" lon="3.66504">
        <ele>284</ele>
        <time>2021-04-15T14:45:16Z</time>
      </trkpt>
      <trkpt lat="43.57203" lon="3.66507">
        <ele>270.9</ele>
        <time>2021-04-15T14:45:18Z</time>
      </trkpt>
      <trkpt lat="43.57203" lon="3.66507">
        <ele>284</ele>
        <time>2021-04-15T14:45:18Z</time>
      </trkpt>
      <trkpt lat="43.57204" lon="3.66509">
        <ele>270.7</ele>
        <time>2021-04-15T14:45:19Z</time>
      </trkpt>
      <trkpt lat="43.57204" lon="3.66509">
        <ele>284</ele>
        <time>2021-04-15T14:45:19Z</time>
      </trkpt>
      <trkpt lat="43.57205" lon="3.66512">
        <ele>270.5</ele>
        <time>2021-04-15T14:45:21Z</time>
      </trkpt>
      <trkpt lat="43.57205" lon="3.66512">
        <ele>284</ele>
        <time>2021-04-15T14:45:21Z</time>
      </trkpt>
      <trkpt lat="43.57206" lon="3.66514">
        <ele>270.4</ele>
        <time>2021-04-15T14:45:22Z</time>
      </trkpt>
      <trkpt lat="43.57206" lon="3.66514">
        <ele>284</ele>
        <time>2021-04-15T14:45:22Z</time>
      </trkpt>
      <trkpt lat="43.57207" lon="3.66516">
        <ele>270.3</ele>
        <time>2021-04-15T14:45:23Z</time>
      </trkpt>
      <trkpt lat="43.57207" lon="3.66516">
        <ele>284</ele>
        <time>2021-04-15T14:45:23Z</time>
      </trkpt>
      <trkpt lat="43.57208" lon="3.66518">
        <ele>270.2</ele>
        <time>2021-04-15T14:45:25Z</time>
      </trkpt>
      <trkpt lat="43.57208" lon="3.66518">
        <ele>282</ele>
        <time>2021-04-15T14:45:25Z</time>
      </trkpt>
      <trkpt lat="43.57209" lon="3.66521">
        <ele>270.1</ele>
        <time>2021-04-15T14:45:26Z</time>
      </trkpt>
      <trkpt lat="43.57209" lon="3.66521">
        <ele>282</ele>
        <time>2021-04-15T14:45:26Z</time>
      </trkpt>
      <trkpt lat="43.57209" lon="3.66523">
        <ele>269.8</ele>
        <time>2021-04-15T14:45:28Z</time>
      </trkpt>
      <trkpt lat="43.57209" lon="3.66523">
        <ele>282</ele>
        <time>2021-04-15T14:45:28Z</time>
      </trkpt>
      <trkpt lat="43.5721" lon="3.66526">
        <ele>269.6</ele>
        <time>2021-04-15T14:45:29Z</time>
      </trkpt>
      <trkpt lat="43.5721" lon="3.66526">
        <ele>282</ele>
        <time>2021-04-15T14:45:29Z</time>
      </trkpt>
      <trkpt lat="43.5721" lon="3.66528">
        <ele>269.4</ele>
        <time>2021-04-15T14:45:31Z</time>
      </trkpt>
      <trkpt lat="43.5721" lon="3.66528">
        <ele>282</ele>
        <time>2021-04-15T14:45:31Z</time>
      </trkpt>
      <trkpt lat="43.57211" lon="3.66531">
        <ele>269.1</ele>
        <time>2021-04-15T14:45:33Z</time>
      </trkpt>
      <trkpt lat="43.57211" lon="3.66531">
        <ele>282</ele>
        <time>2021-04-15T14:45:33Z</time>
      </trkpt>
      <trkpt lat="43.57212" lon="3.66534">
        <ele>268.8</ele>
        <time>2021-04-15T14:45:34Z</time>
      </trkpt>
      <trkpt lat="43.57212" lon="3.66534">
        <ele>282</ele>
        <time>2021-04-15T14:45:34Z</time>
      </trkpt>
      <trkpt lat="43.57212" lon="3.66536">
        <ele>268.6</ele>
        <time>2021-04-15T14:45:36Z</time>
      </trkpt>
      <trkpt lat="43.57212" lon="3.66536">
        <ele>282</ele>
        <time>2021-04-15T14:45:36Z</time>
      </trkpt>
      <trkpt lat="43.57213" lon="3.66539">
        <ele>268.3</ele>
        <time>2021-04-15T14:45:38Z</time>
      </trkpt>
      <trkpt lat="43.57213" lon="3.66539">
        <ele>282</ele>
        <time>2021-04-15T14:45:38Z</time>
      </trkpt>
      <trkpt lat="43.57213" lon="3.66541">
        <ele>268</ele>
        <time>2021-04-15T14:45:40Z</time>
      </trkpt>
      <trkpt lat="43.57213" lon="3.66541">
        <ele>282</ele>
        <time>2021-04-15T14:45:40Z</time>
      </trkpt>
      <trkpt lat="43.57214" lon="3.66544">
        <ele>267.7</ele>
        <time>2021-04-15T14:45:42Z</time>
      </trkpt>
      <trkpt lat="43.57214" lon="3.66544">
        <ele>280</ele>
        <time>2021-04-15T14:45:42Z</time>
      </trkpt>
      <trkpt lat="43.57215" lon="3.66547">
        <ele>267.5</ele>
        <time>2021-04-15T14:45:43Z</time>
      </trkpt>
      <trkpt lat="43.57215" lon="3.66547">
        <ele>280</ele>
        <time>2021-04-15T14:45:43Z</time>
      </trkpt>
      <trkpt lat="43.57215" lon="3.66549">
        <ele>267.3</ele>
        <time>2021-04-15T14:45:44Z</time>
      </trkpt>
      <trkpt lat="43.57215" lon="3.66549">
        <ele>280</ele>
        <time>2021-04-15T14:45:44Z</time>
      </trkpt>
      <trkpt lat="43.57216" lon="3.66552">
        <ele>267.1</ele>
        <time>2021-04-15T14:45:46Z</time>
      </trkpt>
      <trkpt lat="43.57216" lon="3.66552">
        <ele>280</ele>
        <time>2021-04-15T14:45:46Z</time>
      </trkpt>
      <trkpt lat="43.57217" lon="3.66555">
        <ele>266.8</ele>
        <time>2021-04-15T14:45:48Z</time>
      </trkpt>
      <trkpt lat="43.57217" lon="3.66555">
        <ele>280</ele>
        <time>2021-04-15T14:45:48Z</time>
      </trkpt>
      <trkpt lat="43.57217" lon="3.66557">
        <ele>266.6</ele>
        <time>2021-04-15T14:45:49Z</time>
      </trkpt>
      <trkpt lat="43.57217" lon="3.66557">
        <ele>280</ele>
        <time>2021-04-15T14:45:49Z</time>
      </trkpt>
      <trkpt lat="43.57217" lon="3.66558">
        <ele>266.5</ele>
        <time>2021-04-15T14:45:50Z</time>
      </trkpt>
      <trkpt lat="43.57217" lon="3.66558">
        <ele>280</ele>
        <time>2021-04-15T14:45:50Z</time>
      </trkpt>
      <trkpt lat="43.57218" lon="3.66561">
        <ele>266.2</ele>
        <time>2021-04-15T14:45:52Z</time>
      </trkpt>
      <trkpt lat="43.57218" lon="3.66561">
        <ele>280</ele>
        <time>2021-04-15T14:45:52Z</time>
      </trkpt>
      <trkpt lat="43.57218" lon="3.66563">
        <ele>266</ele>
        <time>2021-04-15T14:45:53Z</time>
      </trkpt>
      <trkpt lat="43.57218" lon="3.66563">
        <ele>280</ele>
        <time>2021-04-15T14:45:53Z</time>
      </trkpt>
      <trkpt lat="43.57218" lon="3.66565">
        <ele>265.7</ele>
        <time>2021-04-15T14:45:55Z</time>
      </trkpt>
      <trkpt lat="43.57218" lon="3.66565">
        <ele>280</ele>
        <time>2021-04-15T14:45:55Z</time>
      </trkpt>
      <trkpt lat="43.57218" lon="3.66568">
        <ele>265.4</ele>
        <time>2021-04-15T14:45:57Z</time>
      </trkpt>
      <trkpt lat="43.57218" lon="3.66568">
        <ele>280</ele>
        <time>2021-04-15T14:45:57Z</time>
      </trkpt>
      <trkpt lat="43.57218" lon="3.6657">
        <ele>265.2</ele>
        <time>2021-04-15T14:45:58Z</time>
      </trkpt>
      <trkpt lat="43.57218" lon="3.6657">
        <ele>280</ele>
        <time>2021-04-15T14:45:58Z</time>
      </trkpt>
      <trkpt lat="43.57219" lon="3.66573">
        <ele>265</ele>
        <time>2021-04-15T14:46:00Z</time>
      </trkpt>
      <trkpt lat="43.57219" lon="3.66573">
        <ele>278</ele>
        <time>2021-04-15T14:46:00Z</time>
      </trkpt>
      <trkpt lat="43.57219" lon="3.66575">
        <ele>264.9</ele>
        <time>2021-04-15T14:46:01Z</time>
      </trkpt>
      <trkpt lat="43.57219" lon="3.66575">
        <ele>278</ele>
        <time>2021-04-15T14:46:01Z</time>
      </trkpt>
      <trkpt lat="43.5722" lon="3.66577">
        <ele>264.9</ele>
        <time>2021-04-15T14:46:03Z</time>
      </trkpt>
      <trkpt lat="43.5722" lon="3.66577">
        <ele>278</ele>
        <time>2021-04-15T14:46:03Z</time>
      </trkpt>
      <trkpt lat="43.5722" lon="3.66579">
        <ele>264.8</ele>
        <time>2021-04-15T14:46:04Z</time>
      </trkpt>
      <trkpt lat="43.5722" lon="3.66579">
        <ele>278</ele>
        <time>2021-04-15T14:46:04Z</time>
      </trkpt>
      <trkpt lat="43.57221" lon="3.66581">
        <ele>264.8</ele>
        <time>2021-04-15T14:46:05Z</time>
      </trkpt>
      <trkpt lat="43.57221" lon="3.66581">
        <ele>278</ele>
        <time>2021-04-15T14:46:05Z</time>
      </trkpt>
      <trkpt lat="43.57222" lon="3.66583">
        <ele>264.8</ele>
        <time>2021-04-15T14:46:07Z</time>
      </trkpt>
      <trkpt lat="43.57222" lon="3.66583">
        <ele>278</ele>
        <time>2021-04-15T14:46:07Z</time>
      </trkpt>
      <trkpt lat="43.57223" lon="3.66586">
        <ele>264.5</ele>
        <time>2021-04-15T14:46:09Z</time>
      </trkpt>
      <trkpt lat="43.57223" lon="3.66586">
        <ele>278</ele>
        <time>2021-04-15T14:46:09Z</time>
      </trkpt>
      <trkpt lat="43.57223" lon="3.66589">
        <ele>264.3</ele>
        <time>2021-04-15T14:46:10Z</time>
      </trkpt>
      <trkpt lat="43.57223" lon="3.66589">
        <ele>278</ele>
        <time>2021-04-15T14:46:10Z</time>
      </trkpt>
      <trkpt lat="43.57224" lon="3.66591">
        <ele>264.1</ele>
        <time>2021-04-15T14:46:12Z</time>
      </trkpt>
      <trkpt lat="43.57224" lon="3.66591">
        <ele>278</ele>
        <time>2021-04-15T14:46:12Z</time>
      </trkpt>
      <trkpt lat="43.57225" lon="3.66594">
        <ele>263.8</ele>
        <time>2021-04-15T14:46:14Z</time>
      </trkpt>
      <trkpt lat="43.57225" lon="3.66594">
        <ele>278</ele>
        <time>2021-04-15T14:46:14Z</time>
      </trkpt>
      <trkpt lat="43.57226" lon="3.66597">
        <ele>263.5</ele>
        <time>2021-04-15T14:46:16Z</time>
      </trkpt>
      <trkpt lat="43.57226" lon="3.66597">
        <ele>275</ele>
        <time>2021-04-15T14:46:16Z</time>
      </trkpt>
      <trkpt lat="43.57227" lon="3.666">
        <ele>263.3</ele>
        <time>2021-04-15T14:46:18Z</time>
      </trkpt>
      <trkpt lat="43.57227" lon="3.666">
        <ele>275</ele>
        <time>2021-04-15T14:46:18Z</time>
      </trkpt>
      <trkpt lat="43.57228" lon="3.66603">
        <ele>263</ele>
        <time>2021-04-15T14:46:20Z</time>
      </trkpt>
      <trkpt lat="43.57228" lon="3.66603">
        <ele>275</ele>
        <time>2021-04-15T14:46:20Z</time>
      </trkpt>
      <trkpt lat="43.57229" lon="3.66606">
        <ele>262.8</ele>
        <time>2021-04-15T14:46:21Z</time>
      </trkpt>
      <trkpt lat="43.57229" lon="3.66606">
        <ele>275</ele>
        <time>2021-04-15T14:46:21Z</time>
      </trkpt>
      <trkpt lat="43.57229" lon="3.66608">
        <ele>262.5</ele>
        <time>2021-04-15T14:46:22Z</time>
      </trkpt>
      <trkpt lat="43.57229" lon="3.66608">
        <ele>275</ele>
        <time>2021-04-15T14:46:22Z</time>
      </trkpt>
      <trkpt lat="43.5723" lon="3.66611">
        <ele>262.4</ele>
        <time>2021-04-15T14:46:24Z</time>
      </trkpt>
      <trkpt lat="43.5723" lon="3.66611">
        <ele>275</ele>
        <time>2021-04-15T14:46:24Z</time>
      </trkpt>
      <trkpt lat="43.57231" lon="3.66614">
        <ele>262.3</ele>
        <time>2021-04-15T14:46:26Z</time>
      </trkpt>
      <trkpt lat="43.57231" lon="3.66614">
        <ele>275</ele>
        <time>2021-04-15T14:46:26Z</time>
      </trkpt>
      <trkpt lat="43.57233" lon="3.66616">
        <ele>262.2</ele>
        <time>2021-04-15T14:46:28Z</time>
      </trkpt>
      <trkpt lat="43.57233" lon="3.66616">
        <ele>275</ele>
        <time>2021-04-15T14:46:28Z</time>
      </trkpt>
      <trkpt lat="43.57234" lon="3.66619">
        <ele>262</ele>
        <time>2021-04-15T14:46:29Z</time>
      </trkpt>
      <trkpt lat="43.57234" lon="3.66619">
        <ele>275</ele>
        <time>2021-04-15T14:46:29Z</time>
      </trkpt>
      <trkpt lat="43.57234" lon="3.66622">
        <ele>261.8</ele>
        <time>2021-04-15T14:46:31Z</time>
      </trkpt>
      <trkpt lat="43.57234" lon="3.66622">
        <ele>275</ele>
        <time>2021-04-15T14:46:31Z</time>
      </trkpt>
      <trkpt lat="43.57235" lon="3.66625">
        <ele>261.5</ele>
        <time>2021-04-15T14:46:33Z</time>
      </trkpt>
      <trkpt lat="43.57235" lon="3.66625">
        <ele>273</ele>
        <time>2021-04-15T14:46:33Z</time>
      </trkpt>
      <trkpt lat="43.57236" lon="3.66627">
        <ele>261.3</ele>
        <time>2021-04-15T14:46:34Z</time>
      </trkpt>
      <trkpt lat="43.57236" lon="3.66627">
        <ele>273</ele>
        <time>2021-04-15T14:46:34Z</time>
      </trkpt>
      <trkpt lat="43.57236" lon="3.6663">
        <ele>261.1</ele>
        <time>2021-04-15T14:46:36Z</time>
      </trkpt>
      <trkpt lat="43.57236" lon="3.6663">
        <ele>273</ele>
        <time>2021-04-15T14:46:36Z</time>
      </trkpt>
      <trkpt lat="43.57237" lon="3.66632">
        <ele>260.8</ele>
        <time>2021-04-15T14:46:37Z</time>
      </trkpt>
      <trkpt lat="43.57237" lon="3.66632">
        <ele>273</ele>
        <time>2021-04-15T14:46:37Z</time>
      </trkpt>
      <trkpt lat="43.57237" lon="3.66634">
        <ele>260.6</ele>
        <time>2021-04-15T14:46:38Z</time>
      </trkpt>
      <trkpt lat="43.57237" lon="3.66634">
        <ele>273</ele>
        <time>2021-04-15T14:46:38Z</time>
      </trkpt>
      <trkpt lat="43.57238" lon="3.66636">
        <ele>260.3</ele>
        <time>2021-04-15T14:46:40Z</time>
      </trkpt>
      <trkpt lat="43.57238" lon="3.66636">
        <ele>273</ele>
        <time>2021-04-15T14:46:40Z</time>
      </trkpt>
      <trkpt lat="43.57238" lon="3.66638">
        <ele>260</ele>
        <time>2021-04-15T14:46:41Z</time>
      </trkpt>
      <trkpt lat="43.57238" lon="3.66638">
        <ele>273</ele>
        <time>2021-04-15T14:46:41Z</time>
      </trkpt>
      <trkpt lat="43.57238" lon="3.66641">
        <ele>259.8</ele>
        <time>2021-04-15T14:46:43Z</time>
      </trkpt>
      <trkpt lat="43.57238" lon="3.66641">
        <ele>273</ele>
        <time>2021-04-15T14:46:43Z</time>
      </trkpt>
      <trkpt lat="43.57239" lon="3.66643">
        <ele>259.6</ele>
        <time>2021-04-15T14:46:44Z</time>
      </trkpt>
      <trkpt lat="43.57239" lon="3.66643">
        <ele>273</ele>
        <time>2021-04-15T14:46:44Z</time>
      </trkpt>
      <trkpt lat="43.57239" lon="3.66645">
        <ele>259.5</ele>
        <time>2021-04-15T14:46:46Z</time>
      </trkpt>
      <trkpt lat="43.57239" lon="3.66645">
        <ele>273</ele>
        <time>2021-04-15T14:46:46Z</time>
      </trkpt>
      <trkpt lat="43.5724" lon="3.66647">
        <ele>259.3</ele>
        <time>2021-04-15T14:46:47Z</time>
      </trkpt>
      <trkpt lat="43.5724" lon="3.66647">
        <ele>273</ele>
        <time>2021-04-15T14:46:47Z</time>
      </trkpt>
      <trkpt lat="43.5724" lon="3.66649">
        <ele>259.1</ele>
        <time>2021-04-15T14:46:48Z</time>
      </trkpt>
      <trkpt lat="43.5724" lon="3.66649">
        <ele>273</ele>
        <time>2021-04-15T14:46:48Z</time>
      </trkpt>
      <trkpt lat="43.5724" lon="3.66651">
        <ele>259</ele>
        <time>2021-04-15T14:46:49Z</time>
      </trkpt>
      <trkpt lat="43.5724" lon="3.66651">
        <ele>271</ele>
        <time>2021-04-15T14:46:49Z</time>
      </trkpt>
      <trkpt lat="43.57241" lon="3.66653">
        <ele>258.9</ele>
        <time>2021-04-15T14:46:51Z</time>
      </trkpt>
      <trkpt lat="43.57241" lon="3.66653">
        <ele>271</ele>
        <time>2021-04-15T14:46:51Z</time>
      </trkpt>
      <trkpt lat="43.57242" lon="3.66655">
        <ele>258.7</ele>
        <time>2021-04-15T14:46:52Z</time>
      </trkpt>
      <trkpt lat="43.57242" lon="3.66655">
        <ele>271</ele>
        <time>2021-04-15T14:46:52Z</time>
      </trkpt>
      <trkpt lat="43.57242" lon="3.66657">
        <ele>258.5</ele>
        <time>2021-04-15T14:46:54Z</time>
      </trkpt>
      <trkpt lat="43.57242" lon="3.66657">
        <ele>271</ele>
        <time>2021-04-15T14:46:54Z</time>
      </trkpt>
      <trkpt lat="43.57243" lon="3.6666">
        <ele>258.4</ele>
        <time>2021-04-15T14:46:56Z</time>
      </trkpt>
      <trkpt lat="43.57243" lon="3.6666">
        <ele>271</ele>
        <time>2021-04-15T14:46:56Z</time>
      </trkpt>
      <trkpt lat="43.57244" lon="3.66662">
        <ele>258.2</ele>
        <time>2021-04-15T14:46:57Z</time>
      </trkpt>
      <trkpt lat="43.57244" lon="3.66662">
        <ele>271</ele>
        <time>2021-04-15T14:46:57Z</time>
      </trkpt>
      <trkpt lat="43.57244" lon="3.66665">
        <ele>258</ele>
        <time>2021-04-15T14:46:59Z</time>
      </trkpt>
      <trkpt lat="43.57244" lon="3.66665">
        <ele>271</ele>
        <time>2021-04-15T14:46:59Z</time>
      </trkpt>
      <trkpt lat="43.57245" lon="3.66668">
        <ele>257.9</ele>
        <time>2021-04-15T14:47:01Z</time>
      </trkpt>
      <trkpt lat="43.57245" lon="3.66668">
        <ele>271</ele>
        <time>2021-04-15T14:47:01Z</time>
      </trkpt>
      <trkpt lat="43.57246" lon="3.6667">
        <ele>257.9</ele>
        <time>2021-04-15T14:47:03Z</time>
      </trkpt>
      <trkpt lat="43.57246" lon="3.6667">
        <ele>271</ele>
        <time>2021-04-15T14:47:03Z</time>
      </trkpt>
      <trkpt lat="43.57247" lon="3.66673">
        <ele>257.8</ele>
        <time>2021-04-15T14:47:05Z</time>
      </trkpt>
      <trkpt lat="43.57247" lon="3.66673">
        <ele>271</ele>
        <time>2021-04-15T14:47:05Z</time>
      </trkpt>
      <trkpt lat="43.57247" lon="3.66677">
        <ele>257.7</ele>
        <time>2021-04-15T14:47:07Z</time>
      </trkpt>
      <trkpt lat="43.57247" lon="3.66677">
        <ele>270</ele>
        <time>2021-04-15T14:47:07Z</time>
      </trkpt>
      <trkpt lat="43.57248" lon="3.66679">
        <ele>257.6</ele>
        <time>2021-04-15T14:47:08Z</time>
      </trkpt>
      <trkpt lat="43.57248" lon="3.66679">
        <ele>270</ele>
        <time>2021-04-15T14:47:08Z</time>
      </trkpt>
      <trkpt lat="43.57249" lon="3.66682">
        <ele>257.5</ele>
        <time>2021-04-15T14:47:10Z</time>
      </trkpt>
      <trkpt lat="43.57249" lon="3.66682">
        <ele>270</ele>
        <time>2021-04-15T14:47:10Z</time>
      </trkpt>
      <trkpt lat="43.57249" lon="3.66685">
        <ele>257.5</ele>
        <time>2021-04-15T14:47:12Z</time>
      </trkpt>
      <trkpt lat="43.57249" lon="3.66685">
        <ele>270</ele>
        <time>2021-04-15T14:47:12Z</time>
      </trkpt>
      <trkpt lat="43.5725" lon="3.66688">
        <ele>257.4</ele>
        <time>2021-04-15T14:47:14Z</time>
      </trkpt>
      <trkpt lat="43.5725" lon="3.66688">
        <ele>270</ele>
        <time>2021-04-15T14:47:14Z</time>
      </trkpt>
      <trkpt lat="43.5725" lon="3.66691">
        <ele>257.2</ele>
        <time>2021-04-15T14:47:16Z</time>
      </trkpt>
      <trkpt lat="43.5725" lon="3.66691">
        <ele>270</ele>
        <time>2021-04-15T14:47:16Z</time>
      </trkpt>
      <trkpt lat="43.5725" lon="3.66694">
        <ele>257</ele>
        <time>2021-04-15T14:47:18Z</time>
      </trkpt>
      <trkpt lat="43.5725" lon="3.66694">
        <ele>270</ele>
        <time>2021-04-15T14:47:18Z</time>
      </trkpt>
      <trkpt lat="43.5725" lon="3.66697">
        <ele>256.8</ele>
        <time>2021-04-15T14:47:20Z</time>
      </trkpt>
      <trkpt lat="43.5725" lon="3.66697">
        <ele>270</ele>
        <time>2021-04-15T14:47:20Z</time>
      </trkpt>
      <trkpt lat="43.5725" lon="3.667">
        <ele>256.6</ele>
        <time>2021-04-15T14:47:22Z</time>
      </trkpt>
      <trkpt lat="43.5725" lon="3.667">
        <ele>270</ele>
        <time>2021-04-15T14:47:22Z</time>
      </trkpt>
      <trkpt lat="43.5725" lon="3.66701">
        <ele>256.6</ele>
        <time>2021-04-15T14:47:23Z</time>
      </trkpt>
      <trkpt lat="43.5725" lon="3.66701">
        <ele>268</ele>
        <time>2021-04-15T14:47:23Z</time>
      </trkpt>
      <trkpt lat="43.5725" lon="3.66703">
        <ele>256.4</ele>
        <time>2021-04-15T14:47:24Z</time>
      </trkpt>
      <trkpt lat="43.5725" lon="3.66703">
        <ele>268</ele>
        <time>2021-04-15T14:47:24Z</time>
      </trkpt>
      <trkpt lat="43.57251" lon="3.66705">
        <ele>256.3</ele>
        <time>2021-04-15T14:47:25Z</time>
      </trkpt>
      <trkpt lat="43.57251" lon="3.66705">
        <ele>268</ele>
        <time>2021-04-15T14:47:25Z</time>
      </trkpt>
      <trkpt lat="43.57251" lon="3.66707">
        <ele>256.2</ele>
        <time>2021-04-15T14:47:26Z</time>
      </trkpt>
      <trkpt lat="43.57251" lon="3.66707">
        <ele>268</ele>
        <time>2021-04-15T14:47:26Z</time>
      </trkpt>
      <trkpt lat="43.57251" lon="3.66708">
        <ele>256.1</ele>
        <time>2021-04-15T14:47:28Z</time>
      </trkpt>
      <trkpt lat="43.57251" lon="3.66708">
        <ele>268</ele>
        <time>2021-04-15T14:47:28Z</time>
      </trkpt>
      <trkpt lat="43.57251" lon="3.66709">
        <ele>256</ele>
        <time>2021-04-15T14:47:29Z</time>
      </trkpt>
      <trkpt lat="43.57251" lon="3.66709">
        <ele>268</ele>
        <time>2021-04-15T14:47:29Z</time>
      </trkpt>
      <trkpt lat="43.57251" lon="3.6671">
        <ele>255.9</ele>
        <time>2021-04-15T14:47:31Z</time>
      </trkpt>
      <trkpt lat="43.57251" lon="3.6671">
        <ele>268</ele>
        <time>2021-04-15T14:47:31Z</time>
      </trkpt>
      <trkpt lat="43.57251" lon="3.6672">
        <ele>255.3</ele>
        <time>2021-04-15T14:47:48Z</time>
      </trkpt>
      <trkpt lat="43.57251" lon="3.6672">
        <ele>268</ele>
        <time>2021-04-15T14:47:48Z</time>
      </trkpt>
      <trkpt lat="43.57251" lon="3.6672">
        <ele>255.2</ele>
        <time>2021-04-15T14:47:50Z</time>
      </trkpt>
      <trkpt lat="43.57251" lon="3.6672">
        <ele>268</ele>
        <time>2021-04-15T14:47:50Z</time>
      </trkpt>
      <trkpt lat="43.57251" lon="3.66721">
        <ele>255.2</ele>
        <time>2021-04-15T14:47:52Z</time>
      </trkpt>
      <trkpt lat="43.57251" lon="3.66721">
        <ele>268</ele>
        <time>2021-04-15T14:47:52Z</time>
      </trkpt>
      <trkpt lat="43.57251" lon="3.66722">
        <ele>255.1</ele>
        <time>2021-04-15T14:47:53Z</time>
      </trkpt>
      <trkpt lat="43.57251" lon="3.66722">
        <ele>268</ele>
        <time>2021-04-15T14:47:53Z</time>
      </trkpt>
      <trkpt lat="43.57251" lon="3.66723">
        <ele>255</ele>
        <time>2021-04-15T14:47:55Z</time>
      </trkpt>
      <trkpt lat="43.57251" lon="3.66723">
        <ele>268</ele>
        <time>2021-04-15T14:47:55Z</time>
      </trkpt>
      <trkpt lat="43.5725" lon="3.66727">
        <ele>254.5</ele>
        <time>2021-04-15T14:47:59Z</time>
      </trkpt>
      <trkpt lat="43.5725" lon="3.66727">
        <ele>265</ele>
        <time>2021-04-15T14:47:59Z</time>
      </trkpt>
      <trkpt lat="43.5725" lon="3.66727">
        <ele>254.4</ele>
        <time>2021-04-15T14:48:00Z</time>
      </trkpt>
      <trkpt lat="43.5725" lon="3.66727">
        <ele>265</ele>
        <time>2021-04-15T14:48:00Z</time>
      </trkpt>
      <trkpt lat="43.5725" lon="3.66728">
        <ele>254.3</ele>
        <time>2021-04-15T14:48:02Z</time>
      </trkpt>
      <trkpt lat="43.5725" lon="3.66728">
        <ele>265</ele>
        <time>2021-04-15T14:48:02Z</time>
      </trkpt>
      <trkpt lat="43.57249" lon="3.66729">
        <ele>254.1</ele>
        <time>2021-04-15T14:48:03Z</time>
      </trkpt>
      <trkpt lat="43.57249" lon="3.66729">
        <ele>265</ele>
        <time>2021-04-15T14:48:03Z</time>
      </trkpt>
      <trkpt lat="43.57249" lon="3.66731">
        <ele>253.9</ele>
        <time>2021-04-15T14:48:04Z</time>
      </trkpt>
      <trkpt lat="43.57249" lon="3.66731">
        <ele>265</ele>
        <time>2021-04-15T14:48:04Z</time>
      </trkpt>
      <trkpt lat="43.57249" lon="3.66732">
        <ele>253.7</ele>
        <time>2021-04-15T14:48:06Z</time>
      </trkpt>
      <trkpt lat="43.57249" lon="3.66732">
        <ele>265</ele>
        <time>2021-04-15T14:48:06Z</time>
      </trkpt>
      <trkpt lat="43.57248" lon="3.66734">
        <ele>253.4</ele>
        <time>2021-04-15T14:48:07Z</time>
      </trkpt>
      <trkpt lat="43.57248" lon="3.66734">
        <ele>265</ele>
        <time>2021-04-15T14:48:07Z</time>
      </trkpt>
      <trkpt lat="43.57248" lon="3.66736">
        <ele>253.1</ele>
        <time>2021-04-15T14:48:08Z</time>
      </trkpt>
      <trkpt lat="43.57248" lon="3.66736">
        <ele>265</ele>
        <time>2021-04-15T14:48:08Z</time>
      </trkpt>
      <trkpt lat="43.57247" lon="3.66738">
        <ele>252.9</ele>
        <time>2021-04-15T14:48:09Z</time>
      </trkpt>
      <trkpt lat="43.57247" lon="3.66738">
        <ele>265</ele>
        <time>2021-04-15T14:48:09Z</time>
      </trkpt>
      <trkpt lat="43.57247" lon="3.66741">
        <ele>252.5</ele>
        <time>2021-04-15T14:48:11Z</time>
      </trkpt>
      <trkpt lat="43.57247" lon="3.66741">
        <ele>265</ele>
        <time>2021-04-15T14:48:11Z</time>
      </trkpt>
      <trkpt lat="43.57246" lon="3.66744">
        <ele>252.1</ele>
        <time>2021-04-15T14:48:13Z</time>
      </trkpt>
      <trkpt lat="43.57246" lon="3.66744">
        <ele>263</ele>
        <time>2021-04-15T14:48:13Z</time>
      </trkpt>
      <trkpt lat="43.57245" lon="3.66747">
        <ele>251.7</ele>
        <time>2021-04-15T14:48:15Z</time>
      </trkpt>
      <trkpt lat="43.57245" lon="3.66747">
        <ele>263</ele>
        <time>2021-04-15T14:48:15Z</time>
      </trkpt>
      <trkpt lat="43.57243" lon="3.66749">
        <ele>251.3</ele>
        <time>2021-04-15T14:48:16Z</time>
      </trkpt>
      <trkpt lat="43.57243" lon="3.66749">
        <ele>263</ele>
        <time>2021-04-15T14:48:16Z</time>
      </trkpt>
      <trkpt lat="43.57242" lon="3.66752">
        <ele>251</ele>
        <time>2021-04-15T14:48:18Z</time>
      </trkpt>
      <trkpt lat="43.57242" lon="3.66752">
        <ele>263</ele>
        <time>2021-04-15T14:48:18Z</time>
      </trkpt>
      <trkpt lat="43.57241" lon="3.66755">
        <ele>250.6</ele>
        <time>2021-04-15T14:48:20Z</time>
      </trkpt>
      <trkpt lat="43.57241" lon="3.66755">
        <ele>263</ele>
        <time>2021-04-15T14:48:20Z</time>
      </trkpt>
      <trkpt lat="43.5724" lon="3.66758">
        <ele>250.3</ele>
        <time>2021-04-15T14:48:21Z</time>
      </trkpt>
      <trkpt lat="43.5724" lon="3.66758">
        <ele>263</ele>
        <time>2021-04-15T14:48:21Z</time>
      </trkpt>
      <trkpt lat="43.5724" lon="3.6676">
        <ele>250</ele>
        <time>2021-04-15T14:48:23Z</time>
      </trkpt>
      <trkpt lat="43.5724" lon="3.6676">
        <ele>263</ele>
        <time>2021-04-15T14:48:23Z</time>
      </trkpt>
      <trkpt lat="43.57239" lon="3.66763">
        <ele>249.7</ele>
        <time>2021-04-15T14:48:25Z</time>
      </trkpt>
      <trkpt lat="43.57239" lon="3.66763">
        <ele>263</ele>
        <time>2021-04-15T14:48:25Z</time>
      </trkpt>
      <trkpt lat="43.57238" lon="3.66766">
        <ele>249.5</ele>
        <time>2021-04-15T14:48:26Z</time>
      </trkpt>
      <trkpt lat="43.57238" lon="3.66766">
        <ele>263</ele>
        <time>2021-04-15T14:48:26Z</time>
      </trkpt>
      <trkpt lat="43.57237" lon="3.66769">
        <ele>249.2</ele>
        <time>2021-04-15T14:48:28Z</time>
      </trkpt>
      <trkpt lat="43.57237" lon="3.66769">
        <ele>263</ele>
        <time>2021-04-15T14:48:28Z</time>
      </trkpt>
      <trkpt lat="43.57236" lon="3.66772">
        <ele>248.9</ele>
        <time>2021-04-15T14:48:30Z</time>
      </trkpt>
      <trkpt lat="43.57236" lon="3.66772">
        <ele>261</ele>
        <time>2021-04-15T14:48:30Z</time>
      </trkpt>
      <trkpt lat="43.57235" lon="3.66775">
        <ele>248.7</ele>
        <time>2021-04-15T14:48:31Z</time>
      </trkpt>
      <trkpt lat="43.57235" lon="3.66775">
        <ele>261</ele>
        <time>2021-04-15T14:48:31Z</time>
      </trkpt>
      <trkpt lat="43.57235" lon="3.66777">
        <ele>248.5</ele>
        <time>2021-04-15T14:48:32Z</time>
      </trkpt>
      <trkpt lat="43.57235" lon="3.66777">
        <ele>261</ele>
        <time>2021-04-15T14:48:32Z</time>
      </trkpt>
      <trkpt lat="43.57234" lon="3.66779">
        <ele>248.4</ele>
        <time>2021-04-15T14:48:33Z</time>
      </trkpt>
      <trkpt lat="43.57234" lon="3.66779">
        <ele>261</ele>
        <time>2021-04-15T14:48:33Z</time>
      </trkpt>
      <trkpt lat="43.57234" lon="3.66781">
        <ele>248.2</ele>
        <time>2021-04-15T14:48:35Z</time>
      </trkpt>
      <trkpt lat="43.57234" lon="3.66781">
        <ele>261</ele>
        <time>2021-04-15T14:48:35Z</time>
      </trkpt>
      <trkpt lat="43.57233" lon="3.66783">
        <ele>248</ele>
        <time>2021-04-15T14:48:36Z</time>
      </trkpt>
      <trkpt lat="43.57233" lon="3.66783">
        <ele>261</ele>
        <time>2021-04-15T14:48:36Z</time>
      </trkpt>
      <trkpt lat="43.57233" lon="3.66786">
        <ele>247.9</ele>
        <time>2021-04-15T14:48:38Z</time>
      </trkpt>
      <trkpt lat="43.57233" lon="3.66786">
        <ele>261</ele>
        <time>2021-04-15T14:48:38Z</time>
      </trkpt>
      <trkpt lat="43.57232" lon="3.66788">
        <ele>247.7</ele>
        <time>2021-04-15T14:48:39Z</time>
      </trkpt>
      <trkpt lat="43.57232" lon="3.66788">
        <ele>261</ele>
        <time>2021-04-15T14:48:39Z</time>
      </trkpt>
      <trkpt lat="43.57232" lon="3.6679">
        <ele>247.6</ele>
        <time>2021-04-15T14:48:40Z</time>
      </trkpt>
      <trkpt lat="43.57232" lon="3.6679">
        <ele>261</ele>
        <time>2021-04-15T14:48:40Z</time>
      </trkpt>
      <trkpt lat="43.57232" lon="3.66792">
        <ele>247.5</ele>
        <time>2021-04-15T14:48:42Z</time>
      </trkpt>
      <trkpt lat="43.57232" lon="3.66792">
        <ele>261</ele>
        <time>2021-04-15T14:48:42Z</time>
      </trkpt>
      <trkpt lat="43.57232" lon="3.66794">
        <ele>247.3</ele>
        <time>2021-04-15T14:48:43Z</time>
      </trkpt>
      <trkpt lat="43.57232" lon="3.66794">
        <ele>261</ele>
        <time>2021-04-15T14:48:43Z</time>
      </trkpt>
      <trkpt lat="43.57231" lon="3.66796">
        <ele>247.2</ele>
        <time>2021-04-15T14:48:44Z</time>
      </trkpt>
      <trkpt lat="43.57231" lon="3.66796">
        <ele>261</ele>
        <time>2021-04-15T14:48:44Z</time>
      </trkpt>
      <trkpt lat="43.57231" lon="3.66799">
        <ele>247.1</ele>
        <time>2021-04-15T14:48:46Z</time>
      </trkpt>
      <trkpt lat="43.57231" lon="3.66799">
        <ele>259</ele>
        <time>2021-04-15T14:48:46Z</time>
      </trkpt>
      <trkpt lat="43.57231" lon="3.668">
        <ele>247</ele>
        <time>2021-04-15T14:48:47Z</time>
      </trkpt>
      <trkpt lat="43.57231" lon="3.668">
        <ele>259</ele>
        <time>2021-04-15T14:48:47Z</time>
      </trkpt>
      <trkpt lat="43.57231" lon="3.66802">
        <ele>246.9</ele>
        <time>2021-04-15T14:48:49Z</time>
      </trkpt>
      <trkpt lat="43.57231" lon="3.66802">
        <ele>259</ele>
        <time>2021-04-15T14:48:49Z</time>
      </trkpt>
      <trkpt lat="43.57231" lon="3.66804">
        <ele>246.8</ele>
        <time>2021-04-15T14:48:50Z</time>
      </trkpt>
      <trkpt lat="43.57231" lon="3.66804">
        <ele>259</ele>
        <time>2021-04-15T14:48:50Z</time>
      </trkpt>
      <trkpt lat="43.57231" lon="3.66806">
        <ele>246.7</ele>
        <time>2021-04-15T14:48:52Z</time>
      </trkpt>
      <trkpt lat="43.57231" lon="3.66806">
        <ele>259</ele>
        <time>2021-04-15T14:48:52Z</time>
      </trkpt>
      <trkpt lat="43.57231" lon="3.66808">
        <ele>246.5</ele>
        <time>2021-04-15T14:48:54Z</time>
      </trkpt>
      <trkpt lat="43.57231" lon="3.66808">
        <ele>259</ele>
        <time>2021-04-15T14:48:54Z</time>
      </trkpt>
      <trkpt lat="43.57231" lon="3.66811">
        <ele>246.3</ele>
        <time>2021-04-15T14:48:55Z</time>
      </trkpt>
      <trkpt lat="43.57231" lon="3.66811">
        <ele>259</ele>
        <time>2021-04-15T14:48:55Z</time>
      </trkpt>
      <trkpt lat="43.5723" lon="3.66813">
        <ele>246.2</ele>
        <time>2021-04-15T14:48:57Z</time>
      </trkpt>
      <trkpt lat="43.5723" lon="3.66813">
        <ele>259</ele>
        <time>2021-04-15T14:48:57Z</time>
      </trkpt>
      <trkpt lat="43.5723" lon="3.66815">
        <ele>246</ele>
        <time>2021-04-15T14:48:59Z</time>
      </trkpt>
      <trkpt lat="43.5723" lon="3.66815">
        <ele>259</ele>
        <time>2021-04-15T14:48:59Z</time>
      </trkpt>
      <trkpt lat="43.5723" lon="3.66818">
        <ele>245.9</ele>
        <time>2021-04-15T14:49:01Z</time>
      </trkpt>
      <trkpt lat="43.5723" lon="3.66818">
        <ele>259</ele>
        <time>2021-04-15T14:49:01Z</time>
      </trkpt>
      <trkpt lat="43.57229" lon="3.6682">
        <ele>245.7</ele>
        <time>2021-04-15T14:49:02Z</time>
      </trkpt>
      <trkpt lat="43.57229" lon="3.6682">
        <ele>259</ele>
        <time>2021-04-15T14:49:02Z</time>
      </trkpt>
      <trkpt lat="43.57229" lon="3.66823">
        <ele>245.5</ele>
        <time>2021-04-15T14:49:04Z</time>
      </trkpt>
      <trkpt lat="43.57229" lon="3.66823">
        <ele>257</ele>
        <time>2021-04-15T14:49:04Z</time>
      </trkpt>
      <trkpt lat="43.57229" lon="3.66825">
        <ele>245.4</ele>
        <time>2021-04-15T14:49:06Z</time>
      </trkpt>
      <trkpt lat="43.57229" lon="3.66825">
        <ele>257</ele>
        <time>2021-04-15T14:49:06Z</time>
      </trkpt>
      <trkpt lat="43.57229" lon="3.66828">
        <ele>245.2</ele>
        <time>2021-04-15T14:49:08Z</time>
      </trkpt>
      <trkpt lat="43.57229" lon="3.66828">
        <ele>257</ele>
        <time>2021-04-15T14:49:08Z</time>
      </trkpt>
      <trkpt lat="43.57228" lon="3.6683">
        <ele>245</ele>
        <time>2021-04-15T14:49:10Z</time>
      </trkpt>
      <trkpt lat="43.57228" lon="3.6683">
        <ele>257</ele>
        <time>2021-04-15T14:49:10Z</time>
      </trkpt>
      <trkpt lat="43.57227" lon="3.66832">
        <ele>244.9</ele>
        <time>2021-04-15T14:49:11Z</time>
      </trkpt>
      <trkpt lat="43.57227" lon="3.66832">
        <ele>257</ele>
        <time>2021-04-15T14:49:11Z</time>
      </trkpt>
      <trkpt lat="43.57227" lon="3.66835">
        <ele>244.6</ele>
        <time>2021-04-15T14:49:13Z</time>
      </trkpt>
      <trkpt lat="43.57227" lon="3.66835">
        <ele>257</ele>
        <time>2021-04-15T14:49:13Z</time>
      </trkpt>
      <trkpt lat="43.57227" lon="3.66837">
        <ele>244.3</ele>
        <time>2021-04-15T14:49:15Z</time>
      </trkpt>
      <trkpt lat="43.57227" lon="3.66837">
        <ele>257</ele>
        <time>2021-04-15T14:49:15Z</time>
      </trkpt>
      <trkpt lat="43.57227" lon="3.6684">
        <ele>243.9</ele>
        <time>2021-04-15T14:49:16Z</time>
      </trkpt>
      <trkpt lat="43.57227" lon="3.6684">
        <ele>257</ele>
        <time>2021-04-15T14:49:16Z</time>
      </trkpt>
      <trkpt lat="43.57226" lon="3.66842">
        <ele>243.6</ele>
        <time>2021-04-15T14:49:18Z</time>
      </trkpt>
      <trkpt lat="43.57226" lon="3.66842">
        <ele>257</ele>
        <time>2021-04-15T14:49:18Z</time>
      </trkpt>
      <trkpt lat="43.57226" lon="3.66844">
        <ele>243.3</ele>
        <time>2021-04-15T14:49:19Z</time>
      </trkpt>
      <trkpt lat="43.57226" lon="3.66844">
        <ele>254</ele>
        <time>2021-04-15T14:49:19Z</time>
      </trkpt>
      <trkpt lat="43.57225" lon="3.66846">
        <ele>243.1</ele>
        <time>2021-04-15T14:49:20Z</time>
      </trkpt>
      <trkpt lat="43.57225" lon="3.66846">
        <ele>254</ele>
        <time>2021-04-15T14:49:20Z</time>
      </trkpt>
      <trkpt lat="43.57225" lon="3.66848">
        <ele>242.8</ele>
        <time>2021-04-15T14:49:22Z</time>
      </trkpt>
      <trkpt lat="43.57225" lon="3.66848">
        <ele>254</ele>
        <time>2021-04-15T14:49:22Z</time>
      </trkpt>
      <trkpt lat="43.57224" lon="3.6685">
        <ele>242.5</ele>
        <time>2021-04-15T14:49:24Z</time>
      </trkpt>
      <trkpt lat="43.57224" lon="3.6685">
        <ele>254</ele>
        <time>2021-04-15T14:49:24Z</time>
      </trkpt>
      <trkpt lat="43.57224" lon="3.66853">
        <ele>242.1</ele>
        <time>2021-04-15T14:49:26Z</time>
      </trkpt>
      <trkpt lat="43.57224" lon="3.66853">
        <ele>254</ele>
        <time>2021-04-15T14:49:26Z</time>
      </trkpt>
      <trkpt lat="43.57224" lon="3.66855">
        <ele>241.9</ele>
        <time>2021-04-15T14:49:27Z</time>
      </trkpt>
      <trkpt lat="43.57224" lon="3.66855">
        <ele>254</ele>
        <time>2021-04-15T14:49:27Z</time>
      </trkpt>
      <trkpt lat="43.57224" lon="3.66856">
        <ele>241.6</ele>
        <time>2021-04-15T14:49:29Z</time>
      </trkpt>
      <trkpt lat="43.57224" lon="3.66856">
        <ele>254</ele>
        <time>2021-04-15T14:49:29Z</time>
      </trkpt>
      <trkpt lat="43.57224" lon="3.66858">
        <ele>241.4</ele>
        <time>2021-04-15T14:49:31Z</time>
      </trkpt>
      <trkpt lat="43.57224" lon="3.66858">
        <ele>254</ele>
        <time>2021-04-15T14:49:31Z</time>
      </trkpt>
      <trkpt lat="43.57225" lon="3.66859">
        <ele>241.2</ele>
        <time>2021-04-15T14:49:32Z</time>
      </trkpt>
      <trkpt lat="43.57225" lon="3.66859">
        <ele>254</ele>
        <time>2021-04-15T14:49:32Z</time>
      </trkpt>
      <trkpt lat="43.57225" lon="3.66861">
        <ele>240.9</ele>
        <time>2021-04-15T14:49:34Z</time>
      </trkpt>
      <trkpt lat="43.57225" lon="3.66861">
        <ele>254</ele>
        <time>2021-04-15T14:49:34Z</time>
      </trkpt>
      <trkpt lat="43.57224" lon="3.66863">
        <ele>240.7</ele>
        <time>2021-04-15T14:49:36Z</time>
      </trkpt>
      <trkpt lat="43.57224" lon="3.66863">
        <ele>251</ele>
        <time>2021-04-15T14:49:36Z</time>
      </trkpt>
      <trkpt lat="43.57224" lon="3.66865">
        <ele>240.5</ele>
        <time>2021-04-15T14:49:38Z</time>
      </trkpt>
      <trkpt lat="43.57224" lon="3.66865">
        <ele>251</ele>
        <time>2021-04-15T14:49:38Z</time>
      </trkpt>
      <trkpt lat="43.57224" lon="3.66867">
        <ele>240.3</ele>
        <time>2021-04-15T14:49:40Z</time>
      </trkpt>
      <trkpt lat="43.57224" lon="3.66867">
        <ele>251</ele>
        <time>2021-04-15T14:49:40Z</time>
      </trkpt>
      <trkpt lat="43.57224" lon="3.66869">
        <ele>240</ele>
        <time>2021-04-15T14:49:41Z</time>
      </trkpt>
      <trkpt lat="43.57224" lon="3.66869">
        <ele>251</ele>
        <time>2021-04-15T14:49:41Z</time>
      </trkpt>
      <trkpt lat="43.57225" lon="3.66871">
        <ele>239.8</ele>
        <time>2021-04-15T14:49:43Z</time>
      </trkpt>
      <trkpt lat="43.57225" lon="3.66871">
        <ele>251</ele>
        <time>2021-04-15T14:49:43Z</time>
      </trkpt>
      <trkpt lat="43.57225" lon="3.66874">
        <ele>239.5</ele>
        <time>2021-04-15T14:49:45Z</time>
      </trkpt>
      <trkpt lat="43.57225" lon="3.66874">
        <ele>251</ele>
        <time>2021-04-15T14:49:45Z</time>
      </trkpt>
      <trkpt lat="43.57225" lon="3.66875">
        <ele>239.3</ele>
        <time>2021-04-15T14:49:46Z</time>
      </trkpt>
      <trkpt lat="43.57225" lon="3.66875">
        <ele>251</ele>
        <time>2021-04-15T14:49:46Z</time>
      </trkpt>
      <trkpt lat="43.57226" lon="3.66878">
        <ele>239</ele>
        <time>2021-04-15T14:49:48Z</time>
      </trkpt>
      <trkpt lat="43.57226" lon="3.66878">
        <ele>251</ele>
        <time>2021-04-15T14:49:48Z</time>
      </trkpt>
      <trkpt lat="43.57226" lon="3.66879">
        <ele>238.8</ele>
        <time>2021-04-15T14:49:50Z</time>
      </trkpt>
      <trkpt lat="43.57226" lon="3.66879">
        <ele>251</ele>
        <time>2021-04-15T14:49:50Z</time>
      </trkpt>
      <trkpt lat="43.57227" lon="3.66882">
        <ele>238.5</ele>
        <time>2021-04-15T14:49:52Z</time>
      </trkpt>
      <trkpt lat="43.57227" lon="3.66882">
        <ele>249</ele>
        <time>2021-04-15T14:49:52Z</time>
      </trkpt>
      <trkpt lat="43.57227" lon="3.66883">
        <ele>238.3</ele>
        <time>2021-04-15T14:49:53Z</time>
      </trkpt>
      <trkpt lat="43.57227" lon="3.66883">
        <ele>249</ele>
        <time>2021-04-15T14:49:53Z</time>
      </trkpt>
      <trkpt lat="43.57228" lon="3.66885">
        <ele>238</ele>
        <time>2021-04-15T14:49:55Z</time>
      </trkpt>
      <trkpt lat="43.57228" lon="3.66885">
        <ele>249</ele>
        <time>2021-04-15T14:49:55Z</time>
      </trkpt>
      <trkpt lat="43.57229" lon="3.66887">
        <ele>237.7</ele>
        <time>2021-04-15T14:49:56Z</time>
      </trkpt>
      <trkpt lat="43.57229" lon="3.66887">
        <ele>249</ele>
        <time>2021-04-15T14:49:56Z</time>
      </trkpt>
      <trkpt lat="43.57229" lon="3.66889">
        <ele>237.5</ele>
        <time>2021-04-15T14:49:58Z</time>
      </trkpt>
      <trkpt lat="43.57229" lon="3.66889">
        <ele>249</ele>
        <time>2021-04-15T14:49:58Z</time>
      </trkpt>
      <trkpt lat="43.5723" lon="3.66891">
        <ele>237.1</ele>
        <time>2021-04-15T14:50:00Z</time>
      </trkpt>
      <trkpt lat="43.5723" lon="3.66891">
        <ele>249</ele>
        <time>2021-04-15T14:50:00Z</time>
      </trkpt>
      <trkpt lat="43.5723" lon="3.66893">
        <ele>236.8</ele>
        <time>2021-04-15T14:50:01Z</time>
      </trkpt>
      <trkpt lat="43.5723" lon="3.66893">
        <ele>249</ele>
        <time>2021-04-15T14:50:01Z</time>
      </trkpt>
      <trkpt lat="43.5723" lon="3.66895">
        <ele>236.4</ele>
        <time>2021-04-15T14:50:03Z</time>
      </trkpt>
      <trkpt lat="43.5723" lon="3.66895">
        <ele>249</ele>
        <time>2021-04-15T14:50:03Z</time>
      </trkpt>
      <trkpt lat="43.57231" lon="3.66897">
        <ele>236</ele>
        <time>2021-04-15T14:50:04Z</time>
      </trkpt>
      <trkpt lat="43.57231" lon="3.66897">
        <ele>249</ele>
        <time>2021-04-15T14:50:04Z</time>
      </trkpt>
      <trkpt lat="43.57231" lon="3.66899">
        <ele>235.7</ele>
        <time>2021-04-15T14:50:05Z</time>
      </trkpt>
      <trkpt lat="43.57231" lon="3.66899">
        <ele>249</ele>
        <time>2021-04-15T14:50:05Z</time>
      </trkpt>
      <trkpt lat="43.57232" lon="3.66901">
        <ele>235.3</ele>
        <time>2021-04-15T14:50:07Z</time>
      </trkpt>
      <trkpt lat="43.57232" lon="3.66901">
        <ele>249</ele>
        <time>2021-04-15T14:50:07Z</time>
      </trkpt>
      <trkpt lat="43.57232" lon="3.66903">
        <ele>234.9</ele>
        <time>2021-04-15T14:50:08Z</time>
      </trkpt>
      <trkpt lat="43.57232" lon="3.66903">
        <ele>249</ele>
        <time>2021-04-15T14:50:08Z</time>
      </trkpt>
      <trkpt lat="43.57233" lon="3.66905">
        <ele>234.5</ele>
        <time>2021-04-15T14:50:10Z</time>
      </trkpt>
      <trkpt lat="43.57233" lon="3.66905">
        <ele>245</ele>
        <time>2021-04-15T14:50:10Z</time>
      </trkpt>
      <trkpt lat="43.57233" lon="3.66908">
        <ele>234.1</ele>
        <time>2021-04-15T14:50:12Z</time>
      </trkpt>
      <trkpt lat="43.57233" lon="3.66908">
        <ele>245</ele>
        <time>2021-04-15T14:50:12Z</time>
      </trkpt>
      <trkpt lat="43.57234" lon="3.6691">
        <ele>233.7</ele>
        <time>2021-04-15T14:50:13Z</time>
      </trkpt>
      <trkpt lat="43.57234" lon="3.6691">
        <ele>245</ele>
        <time>2021-04-15T14:50:13Z</time>
      </trkpt>
      <trkpt lat="43.57234" lon="3.66912">
        <ele>233.3</ele>
        <time>2021-04-15T14:50:15Z</time>
      </trkpt>
      <trkpt lat="43.57234" lon="3.66912">
        <ele>245</ele>
        <time>2021-04-15T14:50:15Z</time>
      </trkpt>
      <trkpt lat="43.57234" lon="3.66914">
        <ele>232.9</ele>
        <time>2021-04-15T14:50:16Z</time>
      </trkpt>
      <trkpt lat="43.57234" lon="3.66914">
        <ele>245</ele>
        <time>2021-04-15T14:50:16Z</time>
      </trkpt>
      <trkpt lat="43.57234" lon="3.66917">
        <ele>232.6</ele>
        <time>2021-04-15T14:50:18Z</time>
      </trkpt>
      <trkpt lat="43.57234" lon="3.66917">
        <ele>245</ele>
        <time>2021-04-15T14:50:18Z</time>
      </trkpt>
      <trkpt lat="43.57234" lon="3.66918">
        <ele>232.3</ele>
        <time>2021-04-15T14:50:19Z</time>
      </trkpt>
      <trkpt lat="43.57234" lon="3.66918">
        <ele>245</ele>
        <time>2021-04-15T14:50:19Z</time>
      </trkpt>
      <trkpt lat="43.57234" lon="3.6692">
        <ele>232</ele>
        <time>2021-04-15T14:50:21Z</time>
      </trkpt>
      <trkpt lat="43.57234" lon="3.6692">
        <ele>245</ele>
        <time>2021-04-15T14:50:21Z</time>
      </trkpt>
      <trkpt lat="43.57234" lon="3.66922">
        <ele>231.7</ele>
        <time>2021-04-15T14:50:23Z</time>
      </trkpt>
      <trkpt lat="43.57234" lon="3.66922">
        <ele>245</ele>
        <time>2021-04-15T14:50:23Z</time>
      </trkpt>
      <trkpt lat="43.57234" lon="3.66924">
        <ele>231.3</ele>
        <time>2021-04-15T14:50:25Z</time>
      </trkpt>
      <trkpt lat="43.57234" lon="3.66924">
        <ele>242</ele>
        <time>2021-04-15T14:50:25Z</time>
      </trkpt>
      <trkpt lat="43.57234" lon="3.66926">
        <ele>231</ele>
        <time>2021-04-15T14:50:26Z</time>
      </trkpt>
      <trkpt lat="43.57234" lon="3.66926">
        <ele>242</ele>
        <time>2021-04-15T14:50:26Z</time>
      </trkpt>
      <trkpt lat="43.57234" lon="3.66929">
        <ele>230.6</ele>
        <time>2021-04-15T14:50:28Z</time>
      </trkpt>
      <trkpt lat="43.57234" lon="3.66929">
        <ele>242</ele>
        <time>2021-04-15T14:50:28Z</time>
      </trkpt>
      <trkpt lat="43.57235" lon="3.66932">
        <ele>230.1</ele>
        <time>2021-04-15T14:50:30Z</time>
      </trkpt>
      <trkpt lat="43.57235" lon="3.66932">
        <ele>242</ele>
        <time>2021-04-15T14:50:30Z</time>
      </trkpt>
      <trkpt lat="43.57235" lon="3.66934">
        <ele>229.7</ele>
        <time>2021-04-15T14:50:32Z</time>
      </trkpt>
      <trkpt lat="43.57235" lon="3.66934">
        <ele>242</ele>
        <time>2021-04-15T14:50:32Z</time>
      </trkpt>
      <trkpt lat="43.57235" lon="3.66937">
        <ele>229.3</ele>
        <time>2021-04-15T14:50:33Z</time>
      </trkpt>
      <trkpt lat="43.57235" lon="3.66937">
        <ele>242</ele>
        <time>2021-04-15T14:50:33Z</time>
      </trkpt>
      <trkpt lat="43.57235" lon="3.66939">
        <ele>228.9</ele>
        <time>2021-04-15T14:50:35Z</time>
      </trkpt>
      <trkpt lat="43.57235" lon="3.66939">
        <ele>242</ele>
        <time>2021-04-15T14:50:35Z</time>
      </trkpt>
      <trkpt lat="43.57235" lon="3.66941">
        <ele>228.5</ele>
        <time>2021-04-15T14:50:37Z</time>
      </trkpt>
      <trkpt lat="43.57235" lon="3.66941">
        <ele>241</ele>
        <time>2021-04-15T14:50:37Z</time>
      </trkpt>
      <trkpt lat="43.57235" lon="3.66944">
        <ele>228.1</ele>
        <time>2021-04-15T14:50:39Z</time>
      </trkpt>
      <trkpt lat="43.57235" lon="3.66944">
        <ele>241</ele>
        <time>2021-04-15T14:50:39Z</time>
      </trkpt>
      <trkpt lat="43.57235" lon="3.66946">
        <ele>227.8</ele>
        <time>2021-04-15T14:50:40Z</time>
      </trkpt>
      <trkpt lat="43.57235" lon="3.66946">
        <ele>241</ele>
        <time>2021-04-15T14:50:40Z</time>
      </trkpt>
      <trkpt lat="43.57235" lon="3.66948">
        <ele>227.5</ele>
        <time>2021-04-15T14:50:41Z</time>
      </trkpt>
      <trkpt lat="43.57235" lon="3.66948">
        <ele>241</ele>
        <time>2021-04-15T14:50:41Z</time>
      </trkpt>
      <trkpt lat="43.57235" lon="3.6695">
        <ele>227.2</ele>
        <time>2021-04-15T14:50:43Z</time>
      </trkpt>
      <trkpt lat="43.57235" lon="3.6695">
        <ele>238</ele>
        <time>2021-04-15T14:50:43Z</time>
      </trkpt>
      <trkpt lat="43.57235" lon="3.66953">
        <ele>226.8</ele>
        <time>2021-04-15T14:50:45Z</time>
      </trkpt>
      <trkpt lat="43.57235" lon="3.66953">
        <ele>238</ele>
        <time>2021-04-15T14:50:45Z</time>
      </trkpt>
      <trkpt lat="43.57235" lon="3.66955">
        <ele>226.5</ele>
        <time>2021-04-15T14:50:46Z</time>
      </trkpt>
      <trkpt lat="43.57235" lon="3.66955">
        <ele>238</ele>
        <time>2021-04-15T14:50:46Z</time>
      </trkpt>
      <trkpt lat="43.57236" lon="3.66958">
        <ele>226.1</ele>
        <time>2021-04-15T14:50:48Z</time>
      </trkpt>
      <trkpt lat="43.57236" lon="3.66958">
        <ele>238</ele>
        <time>2021-04-15T14:50:48Z</time>
      </trkpt>
      <trkpt lat="43.57236" lon="3.6696">
        <ele>225.8</ele>
        <time>2021-04-15T14:50:49Z</time>
      </trkpt>
      <trkpt lat="43.57236" lon="3.6696">
        <ele>238</ele>
        <time>2021-04-15T14:50:49Z</time>
      </trkpt>
      <trkpt lat="43.57236" lon="3.66962">
        <ele>225.4</ele>
        <time>2021-04-15T14:50:51Z</time>
      </trkpt>
      <trkpt lat="43.57236" lon="3.66962">
        <ele>238</ele>
        <time>2021-04-15T14:50:51Z</time>
      </trkpt>
      <trkpt lat="43.57237" lon="3.66965">
        <ele>225</ele>
        <time>2021-04-15T14:50:53Z</time>
      </trkpt>
      <trkpt lat="43.57237" lon="3.66965">
        <ele>238</ele>
        <time>2021-04-15T14:50:53Z</time>
      </trkpt>
      <trkpt lat="43.57237" lon="3.66968">
        <ele>224.7</ele>
        <time>2021-04-15T14:50:54Z</time>
      </trkpt>
      <trkpt lat="43.57237" lon="3.66968">
        <ele>237</ele>
        <time>2021-04-15T14:50:54Z</time>
      </trkpt>
      <trkpt lat="43.57238" lon="3.6697">
        <ele>224.4</ele>
        <time>2021-04-15T14:50:55Z</time>
      </trkpt>
      <trkpt lat="43.57238" lon="3.6697">
        <ele>237</ele>
        <time>2021-04-15T14:50:55Z</time>
      </trkpt>
      <trkpt lat="43.57239" lon="3.66972">
        <ele>224</ele>
        <time>2021-04-15T14:50:57Z</time>
      </trkpt>
      <trkpt lat="43.57239" lon="3.66972">
        <ele>237</ele>
        <time>2021-04-15T14:50:57Z</time>
      </trkpt>
      <trkpt lat="43.57239" lon="3.66974">
        <ele>223.8</ele>
        <time>2021-04-15T14:50:58Z</time>
      </trkpt>
      <trkpt lat="43.57239" lon="3.66974">
        <ele>234</ele>
        <time>2021-04-15T14:50:58Z</time>
      </trkpt>
      <trkpt lat="43.57239" lon="3.66977">
        <ele>223.5</ele>
        <time>2021-04-15T14:51:00Z</time>
      </trkpt>
      <trkpt lat="43.57239" lon="3.66977">
        <ele>234</ele>
        <time>2021-04-15T14:51:00Z</time>
      </trkpt>
      <trkpt lat="43.5724" lon="3.66979">
        <ele>223.3</ele>
        <time>2021-04-15T14:51:01Z</time>
      </trkpt>
      <trkpt lat="43.5724" lon="3.66979">
        <ele>234</ele>
        <time>2021-04-15T14:51:01Z</time>
      </trkpt>
      <trkpt lat="43.5724" lon="3.6698">
        <ele>223.1</ele>
        <time>2021-04-15T14:51:02Z</time>
      </trkpt>
      <trkpt lat="43.5724" lon="3.6698">
        <ele>234</ele>
        <time>2021-04-15T14:51:02Z</time>
      </trkpt>
      <trkpt lat="43.5724" lon="3.66983">
        <ele>222.9</ele>
        <time>2021-04-15T14:51:04Z</time>
      </trkpt>
      <trkpt lat="43.5724" lon="3.66983">
        <ele>234</ele>
        <time>2021-04-15T14:51:04Z</time>
      </trkpt>
      <trkpt lat="43.5724" lon="3.66985">
        <ele>222.6</ele>
        <time>2021-04-15T14:51:06Z</time>
      </trkpt>
      <trkpt lat="43.5724" lon="3.66985">
        <ele>234</ele>
        <time>2021-04-15T14:51:06Z</time>
      </trkpt>
      <trkpt lat="43.57241" lon="3.66988">
        <ele>222.3</ele>
        <time>2021-04-15T14:51:08Z</time>
      </trkpt>
      <trkpt lat="43.57241" lon="3.66988">
        <ele>234</ele>
        <time>2021-04-15T14:51:08Z</time>
      </trkpt>
      <trkpt lat="43.57242" lon="3.66989">
        <ele>222.2</ele>
        <time>2021-04-15T14:51:09Z</time>
      </trkpt>
      <trkpt lat="43.57242" lon="3.66989">
        <ele>234</ele>
        <time>2021-04-15T14:51:09Z</time>
      </trkpt>
      <trkpt lat="43.57242" lon="3.66991">
        <ele>222</ele>
        <time>2021-04-15T14:51:11Z</time>
      </trkpt>
      <trkpt lat="43.57242" lon="3.66991">
        <ele>233</ele>
        <time>2021-04-15T14:51:11Z</time>
      </trkpt>
      <trkpt lat="43.57243" lon="3.66993">
        <ele>221.8</ele>
        <time>2021-04-15T14:51:12Z</time>
      </trkpt>
      <trkpt lat="43.57243" lon="3.66993">
        <ele>233</ele>
        <time>2021-04-15T14:51:12Z</time>
      </trkpt>
      <trkpt lat="43.57243" lon="3.66995">
        <ele>221.6</ele>
        <time>2021-04-15T14:51:13Z</time>
      </trkpt>
      <trkpt lat="43.57243" lon="3.66995">
        <ele>233</ele>
        <time>2021-04-15T14:51:13Z</time>
      </trkpt>
      <trkpt lat="43.57244" lon="3.66997">
        <ele>221.4</ele>
        <time>2021-04-15T14:51:15Z</time>
      </trkpt>
      <trkpt lat="43.57244" lon="3.66997">
        <ele>231</ele>
        <time>2021-04-15T14:51:15Z</time>
      </trkpt>
      <trkpt lat="43.57244" lon="3.67">
        <ele>221.1</ele>
        <time>2021-04-15T14:51:17Z</time>
      </trkpt>
      <trkpt lat="43.57244" lon="3.67">
        <ele>231</ele>
        <time>2021-04-15T14:51:17Z</time>
      </trkpt>
      <trkpt lat="43.57244" lon="3.67002">
        <ele>220.7</ele>
        <time>2021-04-15T14:51:19Z</time>
      </trkpt>
      <trkpt lat="43.57244" lon="3.67002">
        <ele>231</ele>
        <time>2021-04-15T14:51:19Z</time>
      </trkpt>
      <trkpt lat="43.57244" lon="3.67005">
        <ele>220.3</ele>
        <time>2021-04-15T14:51:21Z</time>
      </trkpt>
      <trkpt lat="43.57244" lon="3.67005">
        <ele>231</ele>
        <time>2021-04-15T14:51:21Z</time>
      </trkpt>
      <trkpt lat="43.57244" lon="3.67008">
        <ele>219.8</ele>
        <time>2021-04-15T14:51:23Z</time>
      </trkpt>
      <trkpt lat="43.57244" lon="3.67008">
        <ele>231</ele>
        <time>2021-04-15T14:51:23Z</time>
      </trkpt>
      <trkpt lat="43.57244" lon="3.6701">
        <ele>219.5</ele>
        <time>2021-04-15T14:51:24Z</time>
      </trkpt>
      <trkpt lat="43.57244" lon="3.6701">
        <ele>231</ele>
        <time>2021-04-15T14:51:24Z</time>
      </trkpt>
      <trkpt lat="43.57244" lon="3.67013">
        <ele>219.1</ele>
        <time>2021-04-15T14:51:26Z</time>
      </trkpt>
      <trkpt lat="43.57244" lon="3.67013">
        <ele>231</ele>
        <time>2021-04-15T14:51:26Z</time>
      </trkpt>
      <trkpt lat="43.57244" lon="3.67015">
        <ele>218.7</ele>
        <time>2021-04-15T14:51:28Z</time>
      </trkpt>
      <trkpt lat="43.57244" lon="3.67015">
        <ele>231</ele>
        <time>2021-04-15T14:51:28Z</time>
      </trkpt>
      <trkpt lat="43.57244" lon="3.67018">
        <ele>218.3</ele>
        <time>2021-04-15T14:51:30Z</time>
      </trkpt>
      <trkpt lat="43.57244" lon="3.67018">
        <ele>231</ele>
        <time>2021-04-15T14:51:30Z</time>
      </trkpt>
      <trkpt lat="43.57243" lon="3.6702">
        <ele>218</ele>
        <time>2021-04-15T14:51:31Z</time>
      </trkpt>
      <trkpt lat="43.57243" lon="3.6702">
        <ele>231</ele>
        <time>2021-04-15T14:51:31Z</time>
      </trkpt>
      <trkpt lat="43.57243" lon="3.67022">
        <ele>217.7</ele>
        <time>2021-04-15T14:51:33Z</time>
      </trkpt>
      <trkpt lat="43.57243" lon="3.67022">
        <ele>228</ele>
        <time>2021-04-15T14:51:33Z</time>
      </trkpt>
      <trkpt lat="43.57243" lon="3.67024">
        <ele>217.4</ele>
        <time>2021-04-15T14:51:35Z</time>
      </trkpt>
      <trkpt lat="43.57243" lon="3.67024">
        <ele>228</ele>
        <time>2021-04-15T14:51:35Z</time>
      </trkpt>
      <trkpt lat="43.57243" lon="3.67026">
        <ele>217.1</ele>
        <time>2021-04-15T14:51:36Z</time>
      </trkpt>
      <trkpt lat="43.57243" lon="3.67026">
        <ele>228</ele>
        <time>2021-04-15T14:51:36Z</time>
      </trkpt>
      <trkpt lat="43.57243" lon="3.67028">
        <ele>216.7</ele>
        <time>2021-04-15T14:51:38Z</time>
      </trkpt>
      <trkpt lat="43.57243" lon="3.67028">
        <ele>228</ele>
        <time>2021-04-15T14:51:38Z</time>
      </trkpt>
      <trkpt lat="43.57243" lon="3.67031">
        <ele>216.3</ele>
        <time>2021-04-15T14:51:40Z</time>
      </trkpt>
      <trkpt lat="43.57243" lon="3.67031">
        <ele>228</ele>
        <time>2021-04-15T14:51:40Z</time>
      </trkpt>
      <trkpt lat="43.57243" lon="3.67033">
        <ele>216</ele>
        <time>2021-04-15T14:51:41Z</time>
      </trkpt>
      <trkpt lat="43.57243" lon="3.67033">
        <ele>228</ele>
        <time>2021-04-15T14:51:41Z</time>
      </trkpt>
      <trkpt lat="43.57244" lon="3.67035">
        <ele>215.7</ele>
        <time>2021-04-15T14:51:43Z</time>
      </trkpt>
      <trkpt lat="43.57244" lon="3.67035">
        <ele>228</ele>
        <time>2021-04-15T14:51:43Z</time>
      </trkpt>
      <trkpt lat="43.57244" lon="3.67037">
        <ele>215.4</ele>
        <time>2021-04-15T14:51:44Z</time>
      </trkpt>
      <trkpt lat="43.57244" lon="3.67037">
        <ele>228</ele>
        <time>2021-04-15T14:51:44Z</time>
      </trkpt>
      <trkpt lat="43.57244" lon="3.67039">
        <ele>215.1</ele>
        <time>2021-04-15T14:51:46Z</time>
      </trkpt>
      <trkpt lat="43.57244" lon="3.67039">
        <ele>228</ele>
        <time>2021-04-15T14:51:46Z</time>
      </trkpt>
      <trkpt lat="43.57245" lon="3.6704">
        <ele>214.9</ele>
        <time>2021-04-15T14:51:47Z</time>
      </trkpt>
      <trkpt lat="43.57245" lon="3.6704">
        <ele>228</ele>
        <time>2021-04-15T14:51:47Z</time>
      </trkpt>
      <trkpt lat="43.57246" lon="3.67042">
        <ele>214.7</ele>
        <time>2021-04-15T14:51:49Z</time>
      </trkpt>
      <trkpt lat="43.57246" lon="3.67042">
        <ele>225</ele>
        <time>2021-04-15T14:51:49Z</time>
      </trkpt>
      <trkpt lat="43.57247" lon="3.67044">
        <ele>214.5</ele>
        <time>2021-04-15T14:51:51Z</time>
      </trkpt>
      <trkpt lat="43.57247" lon="3.67044">
        <ele>225</ele>
        <time>2021-04-15T14:51:51Z</time>
      </trkpt>
      <trkpt lat="43.57247" lon="3.67045">
        <ele>214.3</ele>
        <time>2021-04-15T14:51:52Z</time>
      </trkpt>
      <trkpt lat="43.57247" lon="3.67045">
        <ele>225</ele>
        <time>2021-04-15T14:51:52Z</time>
      </trkpt>
      <trkpt lat="43.57248" lon="3.67047">
        <ele>214.1</ele>
        <time>2021-04-15T14:51:54Z</time>
      </trkpt>
      <trkpt lat="43.57248" lon="3.67047">
        <ele>225</ele>
        <time>2021-04-15T14:51:54Z</time>
      </trkpt>
      <trkpt lat="43.57249" lon="3.67049">
        <ele>213.9</ele>
        <time>2021-04-15T14:51:55Z</time>
      </trkpt>
      <trkpt lat="43.57249" lon="3.67049">
        <ele>225</ele>
        <time>2021-04-15T14:51:55Z</time>
      </trkpt>
      <trkpt lat="43.57249" lon="3.6705">
        <ele>213.8</ele>
        <time>2021-04-15T14:51:56Z</time>
      </trkpt>
      <trkpt lat="43.57249" lon="3.6705">
        <ele>225</ele>
        <time>2021-04-15T14:51:56Z</time>
      </trkpt>
      <trkpt lat="43.5725" lon="3.67051">
        <ele>213.6</ele>
        <time>2021-04-15T14:51:58Z</time>
      </trkpt>
      <trkpt lat="43.5725" lon="3.67051">
        <ele>225</ele>
        <time>2021-04-15T14:51:58Z</time>
      </trkpt>
      <trkpt lat="43.5725" lon="3.67053">
        <ele>213.3</ele>
        <time>2021-04-15T14:52:00Z</time>
      </trkpt>
      <trkpt lat="43.5725" lon="3.67053">
        <ele>225</ele>
        <time>2021-04-15T14:52:00Z</time>
      </trkpt>
      <trkpt lat="43.57251" lon="3.67055">
        <ele>213.1</ele>
        <time>2021-04-15T14:52:01Z</time>
      </trkpt>
      <trkpt lat="43.57251" lon="3.67055">
        <ele>225</ele>
        <time>2021-04-15T14:52:01Z</time>
      </trkpt>
      <trkpt lat="43.57252" lon="3.67057">
        <ele>212.7</ele>
        <time>2021-04-15T14:52:03Z</time>
      </trkpt>
      <trkpt lat="43.57252" lon="3.67057">
        <ele>225</ele>
        <time>2021-04-15T14:52:03Z</time>
      </trkpt>
      <trkpt lat="43.57253" lon="3.67058">
        <ele>212.4</ele>
        <time>2021-04-15T14:52:04Z</time>
      </trkpt>
      <trkpt lat="43.57253" lon="3.67058">
        <ele>225</ele>
        <time>2021-04-15T14:52:04Z</time>
      </trkpt>
      <trkpt lat="43.57253" lon="3.6706">
        <ele>212.1</ele>
        <time>2021-04-15T14:52:06Z</time>
      </trkpt>
      <trkpt lat="43.57253" lon="3.6706">
        <ele>221</ele>
        <time>2021-04-15T14:52:06Z</time>
      </trkpt>
      <trkpt lat="43.57254" lon="3.67062">
        <ele>211.8</ele>
        <time>2021-04-15T14:52:07Z</time>
      </trkpt>
      <trkpt lat="43.57254" lon="3.67062">
        <ele>221</ele>
        <time>2021-04-15T14:52:07Z</time>
      </trkpt>
      <trkpt lat="43.57254" lon="3.67064">
        <ele>211.5</ele>
        <time>2021-04-15T14:52:09Z</time>
      </trkpt>
      <trkpt lat="43.57254" lon="3.67064">
        <ele>221</ele>
        <time>2021-04-15T14:52:09Z</time>
      </trkpt>
      <trkpt lat="43.57254" lon="3.67067">
        <ele>211.2</ele>
        <time>2021-04-15T14:52:11Z</time>
      </trkpt>
      <trkpt lat="43.57254" lon="3.67067">
        <ele>221</ele>
        <time>2021-04-15T14:52:11Z</time>
      </trkpt>
      <trkpt lat="43.57254" lon="3.67069">
        <ele>210.9</ele>
        <time>2021-04-15T14:52:12Z</time>
      </trkpt>
      <trkpt lat="43.57254" lon="3.67069">
        <ele>221</ele>
        <time>2021-04-15T14:52:12Z</time>
      </trkpt>
      <trkpt lat="43.57254" lon="3.6707">
        <ele>210.6</ele>
        <time>2021-04-15T14:52:13Z</time>
      </trkpt>
      <trkpt lat="43.57254" lon="3.6707">
        <ele>221</ele>
        <time>2021-04-15T14:52:13Z</time>
      </trkpt>
      <trkpt lat="43.57254" lon="3.67072">
        <ele>210.4</ele>
        <time>2021-04-15T14:52:15Z</time>
      </trkpt>
      <trkpt lat="43.57254" lon="3.67072">
        <ele>221</ele>
        <time>2021-04-15T14:52:15Z</time>
      </trkpt>
      <trkpt lat="43.57254" lon="3.67074">
        <ele>210.2</ele>
        <time>2021-04-15T14:52:16Z</time>
      </trkpt>
      <trkpt lat="43.57254" lon="3.67074">
        <ele>221</ele>
        <time>2021-04-15T14:52:16Z</time>
      </trkpt>
      <trkpt lat="43.57254" lon="3.67076">
        <ele>209.9</ele>
        <time>2021-04-15T14:52:18Z</time>
      </trkpt>
      <trkpt lat="43.57254" lon="3.67076">
        <ele>221</ele>
        <time>2021-04-15T14:52:18Z</time>
      </trkpt>
      <trkpt lat="43.57253" lon="3.67078">
        <ele>209.7</ele>
        <time>2021-04-15T14:52:19Z</time>
      </trkpt>
      <trkpt lat="43.57253" lon="3.67078">
        <ele>221</ele>
        <time>2021-04-15T14:52:19Z</time>
      </trkpt>
      <trkpt lat="43.57253" lon="3.6708">
        <ele>209.4</ele>
        <time>2021-04-15T14:52:21Z</time>
      </trkpt>
      <trkpt lat="43.57253" lon="3.6708">
        <ele>218</ele>
        <time>2021-04-15T14:52:21Z</time>
      </trkpt>
      <trkpt lat="43.57253" lon="3.67082">
        <ele>209.1</ele>
        <time>2021-04-15T14:52:22Z</time>
      </trkpt>
      <trkpt lat="43.57253" lon="3.67082">
        <ele>218</ele>
        <time>2021-04-15T14:52:22Z</time>
      </trkpt>
      <trkpt lat="43.57253" lon="3.67083">
        <ele>208.9</ele>
        <time>2021-04-15T14:52:24Z</time>
      </trkpt>
      <trkpt lat="43.57253" lon="3.67083">
        <ele>218</ele>
        <time>2021-04-15T14:52:24Z</time>
      </trkpt>
      <trkpt lat="43.57252" lon="3.67085">
        <ele>208.6</ele>
        <time>2021-04-15T14:52:26Z</time>
      </trkpt>
      <trkpt lat="43.57252" lon="3.67085">
        <ele>218</ele>
        <time>2021-04-15T14:52:26Z</time>
      </trkpt>
      <trkpt lat="43.57252" lon="3.67087">
        <ele>208.3</ele>
        <time>2021-04-15T14:52:27Z</time>
      </trkpt>
      <trkpt lat="43.57252" lon="3.67087">
        <ele>218</ele>
        <time>2021-04-15T14:52:27Z</time>
      </trkpt>
      <trkpt lat="43.57252" lon="3.67088">
        <ele>208.1</ele>
        <time>2021-04-15T14:52:28Z</time>
      </trkpt>
      <trkpt lat="43.57252" lon="3.67088">
        <ele>218</ele>
        <time>2021-04-15T14:52:28Z</time>
      </trkpt>
      <trkpt lat="43.57251" lon="3.6709">
        <ele>207.9</ele>
        <time>2021-04-15T14:52:30Z</time>
      </trkpt>
      <trkpt lat="43.57251" lon="3.6709">
        <ele>218</ele>
        <time>2021-04-15T14:52:30Z</time>
      </trkpt>
      <trkpt lat="43.57251" lon="3.6709">
        <ele>207.7</ele>
        <time>2021-04-15T14:52:32Z</time>
      </trkpt>
      <trkpt lat="43.57251" lon="3.6709">
        <ele>218</ele>
        <time>2021-04-15T14:52:32Z</time>
      </trkpt>
      <trkpt lat="43.5725" lon="3.67091">
        <ele>207.7</ele>
        <time>2021-04-15T14:52:33Z</time>
      </trkpt>
      <trkpt lat="43.5725" lon="3.67091">
        <ele>217</ele>
        <time>2021-04-15T14:52:33Z</time>
      </trkpt>
      <trkpt lat="43.57249" lon="3.67097">
        <ele>206.4</ele>
        <time>2021-04-15T14:52:40Z</time>
      </trkpt>
      <trkpt lat="43.57249" lon="3.67097">
        <ele>216</ele>
        <time>2021-04-15T14:52:40Z</time>
      </trkpt>
      <trkpt lat="43.57249" lon="3.67098">
        <ele>206.4</ele>
        <time>2021-04-15T14:52:41Z</time>
      </trkpt>
      <trkpt lat="43.57249" lon="3.67098">
        <ele>216</ele>
        <time>2021-04-15T14:52:41Z</time>
      </trkpt>
      <trkpt lat="43.57249" lon="3.67098">
        <ele>206.2</ele>
        <time>2021-04-15T14:52:42Z</time>
      </trkpt>
      <trkpt lat="43.57249" lon="3.67098">
        <ele>216</ele>
        <time>2021-04-15T14:52:42Z</time>
      </trkpt>
      <trkpt lat="43.57249" lon="3.671">
        <ele>206</ele>
        <time>2021-04-15T14:52:44Z</time>
      </trkpt>
      <trkpt lat="43.57249" lon="3.671">
        <ele>216</ele>
        <time>2021-04-15T14:52:44Z</time>
      </trkpt>
      <trkpt lat="43.57249" lon="3.67102">
        <ele>205.7</ele>
        <time>2021-04-15T14:52:46Z</time>
      </trkpt>
      <trkpt lat="43.57249" lon="3.67102">
        <ele>216</ele>
        <time>2021-04-15T14:52:46Z</time>
      </trkpt>
      <trkpt lat="43.57249" lon="3.67104">
        <ele>205.3</ele>
        <time>2021-04-15T14:52:48Z</time>
      </trkpt>
      <trkpt lat="43.57249" lon="3.67104">
        <ele>216</ele>
        <time>2021-04-15T14:52:48Z</time>
      </trkpt>
      <trkpt lat="43.57249" lon="3.67105">
        <ele>205</ele>
        <time>2021-04-15T14:52:50Z</time>
      </trkpt>
      <trkpt lat="43.57249" lon="3.67105">
        <ele>215</ele>
        <time>2021-04-15T14:52:50Z</time>
      </trkpt>
      <trkpt lat="43.57249" lon="3.67107">
        <ele>204.7</ele>
        <time>2021-04-15T14:52:52Z</time>
      </trkpt>
      <trkpt lat="43.57249" lon="3.67107">
        <ele>215</ele>
        <time>2021-04-15T14:52:52Z</time>
      </trkpt>
      <trkpt lat="43.57249" lon="3.67108">
        <ele>204.4</ele>
        <time>2021-04-15T14:52:53Z</time>
      </trkpt>
      <trkpt lat="43.57249" lon="3.67108">
        <ele>215</ele>
        <time>2021-04-15T14:52:53Z</time>
      </trkpt>
      <trkpt lat="43.57246" lon="3.67118">
        <ele>202.4</ele>
        <time>2021-04-15T14:53:10Z</time>
      </trkpt>
      <trkpt lat="43.57246" lon="3.67118">
        <ele>212</ele>
        <time>2021-04-15T14:53:10Z</time>
      </trkpt>
      <trkpt lat="43.57246" lon="3.67119">
        <ele>202.3</ele>
        <time>2021-04-15T14:53:11Z</time>
      </trkpt>
      <trkpt lat="43.57246" lon="3.67119">
        <ele>211</ele>
        <time>2021-04-15T14:53:11Z</time>
      </trkpt>
      <trkpt lat="43.57246" lon="3.6712">
        <ele>202.1</ele>
        <time>2021-04-15T14:53:13Z</time>
      </trkpt>
      <trkpt lat="43.57246" lon="3.6712">
        <ele>211</ele>
        <time>2021-04-15T14:53:13Z</time>
      </trkpt>
      <trkpt lat="43.57245" lon="3.67121">
        <ele>201.9</ele>
        <time>2021-04-15T14:53:15Z</time>
      </trkpt>
      <trkpt lat="43.57245" lon="3.67121">
        <ele>211</ele>
        <time>2021-04-15T14:53:15Z</time>
      </trkpt>
      <trkpt lat="43.57245" lon="3.67125">
        <ele>201</ele>
        <time>2021-04-15T14:53:19Z</time>
      </trkpt>
      <trkpt lat="43.57245" lon="3.67125">
        <ele>211</ele>
        <time>2021-04-15T14:53:19Z</time>
      </trkpt>
      <trkpt lat="43.57244" lon="3.67126">
        <ele>201</ele>
        <time>2021-04-15T14:53:20Z</time>
      </trkpt>
      <trkpt lat="43.57244" lon="3.67126">
        <ele>211</ele>
        <time>2021-04-15T14:53:20Z</time>
      </trkpt>
      <trkpt lat="43.57244" lon="3.67126">
        <ele>200.8</ele>
        <time>2021-04-15T14:53:22Z</time>
      </trkpt>
      <trkpt lat="43.57244" lon="3.67126">
        <ele>211</ele>
        <time>2021-04-15T14:53:22Z</time>
      </trkpt>
      <trkpt lat="43.57244" lon="3.67127">
        <ele>200.6</ele>
        <time>2021-04-15T14:53:24Z</time>
      </trkpt>
      <trkpt lat="43.57244" lon="3.67127">
        <ele>211</ele>
        <time>2021-04-15T14:53:24Z</time>
      </trkpt>
      <trkpt lat="43.57243" lon="3.67129">
        <ele>200.3</ele>
        <time>2021-04-15T14:53:26Z</time>
      </trkpt>
      <trkpt lat="43.57243" lon="3.67129">
        <ele>211</ele>
        <time>2021-04-15T14:53:26Z</time>
      </trkpt>
      <trkpt lat="43.57243" lon="3.67131">
        <ele>200</ele>
        <time>2021-04-15T14:53:27Z</time>
      </trkpt>
      <trkpt lat="43.57243" lon="3.67131">
        <ele>211</ele>
        <time>2021-04-15T14:53:27Z</time>
      </trkpt>
      <trkpt lat="43.57242" lon="3.67132">
        <ele>199.6</ele>
        <time>2021-04-15T14:53:29Z</time>
      </trkpt>
      <trkpt lat="43.57242" lon="3.67132">
        <ele>208</ele>
        <time>2021-04-15T14:53:29Z</time>
      </trkpt>
      <trkpt lat="43.57242" lon="3.67134">
        <ele>199.3</ele>
        <time>2021-04-15T14:53:30Z</time>
      </trkpt>
      <trkpt lat="43.57242" lon="3.67134">
        <ele>208</ele>
        <time>2021-04-15T14:53:30Z</time>
      </trkpt>
      <trkpt lat="43.57241" lon="3.67135">
        <ele>199</ele>
        <time>2021-04-15T14:53:31Z</time>
      </trkpt>
      <trkpt lat="43.57241" lon="3.67135">
        <ele>208</ele>
        <time>2021-04-15T14:53:31Z</time>
      </trkpt>
      <trkpt lat="43.57241" lon="3.67137">
        <ele>198.7</ele>
        <time>2021-04-15T14:53:33Z</time>
      </trkpt>
      <trkpt lat="43.57241" lon="3.67137">
        <ele>208</ele>
        <time>2021-04-15T14:53:33Z</time>
      </trkpt>
      <trkpt lat="43.57241" lon="3.67139">
        <ele>198.3</ele>
        <time>2021-04-15T14:53:35Z</time>
      </trkpt>
      <trkpt lat="43.57241" lon="3.67139">
        <ele>208</ele>
        <time>2021-04-15T14:53:35Z</time>
      </trkpt>
      <trkpt lat="43.57241" lon="3.67141">
        <ele>198</ele>
        <time>2021-04-15T14:53:36Z</time>
      </trkpt>
      <trkpt lat="43.57241" lon="3.67141">
        <ele>208</ele>
        <time>2021-04-15T14:53:36Z</time>
      </trkpt>
      <trkpt lat="43.57241" lon="3.67143">
        <ele>197.6</ele>
        <time>2021-04-15T14:53:38Z</time>
      </trkpt>
      <trkpt lat="43.57241" lon="3.67143">
        <ele>208</ele>
        <time>2021-04-15T14:53:38Z</time>
      </trkpt>
      <trkpt lat="43.57241" lon="3.67145">
        <ele>197.2</ele>
        <time>2021-04-15T14:53:40Z</time>
      </trkpt>
      <trkpt lat="43.57241" lon="3.67145">
        <ele>208</ele>
        <time>2021-04-15T14:53:40Z</time>
      </trkpt>
      <trkpt lat="43.5724" lon="3.67147">
        <ele>196.9</ele>
        <time>2021-04-15T14:53:41Z</time>
      </trkpt>
      <trkpt lat="43.5724" lon="3.67147">
        <ele>208</ele>
        <time>2021-04-15T14:53:41Z</time>
      </trkpt>
      <trkpt lat="43.5724" lon="3.67149">
        <ele>196.6</ele>
        <time>2021-04-15T14:53:43Z</time>
      </trkpt>
      <trkpt lat="43.5724" lon="3.67149">
        <ele>208</ele>
        <time>2021-04-15T14:53:43Z</time>
      </trkpt>
      <trkpt lat="43.5724" lon="3.6715">
        <ele>196.3</ele>
        <time>2021-04-15T14:53:44Z</time>
      </trkpt>
      <trkpt lat="43.5724" lon="3.6715">
        <ele>205</ele>
        <time>2021-04-15T14:53:44Z</time>
      </trkpt>
      <trkpt lat="43.5724" lon="3.67152">
        <ele>195.9</ele>
        <time>2021-04-15T14:53:46Z</time>
      </trkpt>
      <trkpt lat="43.5724" lon="3.67152">
        <ele>205</ele>
        <time>2021-04-15T14:53:46Z</time>
      </trkpt>
      <trkpt lat="43.5724" lon="3.67154">
        <ele>195.5</ele>
        <time>2021-04-15T14:53:48Z</time>
      </trkpt>
      <trkpt lat="43.5724" lon="3.67154">
        <ele>205</ele>
        <time>2021-04-15T14:53:48Z</time>
      </trkpt>
      <trkpt lat="43.5724" lon="3.67156">
        <ele>195.2</ele>
        <time>2021-04-15T14:53:49Z</time>
      </trkpt>
      <trkpt lat="43.5724" lon="3.67156">
        <ele>205</ele>
        <time>2021-04-15T14:53:49Z</time>
      </trkpt>
      <trkpt lat="43.5724" lon="3.67157">
        <ele>195</ele>
        <time>2021-04-15T14:53:50Z</time>
      </trkpt>
      <trkpt lat="43.5724" lon="3.67157">
        <ele>205</ele>
        <time>2021-04-15T14:53:50Z</time>
      </trkpt>
      <trkpt lat="43.5724" lon="3.67159">
        <ele>194.7</ele>
        <time>2021-04-15T14:53:52Z</time>
      </trkpt>
      <trkpt lat="43.5724" lon="3.67159">
        <ele>205</ele>
        <time>2021-04-15T14:53:52Z</time>
      </trkpt>
      <trkpt lat="43.5724" lon="3.6716">
        <ele>194.5</ele>
        <time>2021-04-15T14:53:53Z</time>
      </trkpt>
      <trkpt lat="43.5724" lon="3.6716">
        <ele>205</ele>
        <time>2021-04-15T14:53:53Z</time>
      </trkpt>
      <trkpt lat="43.5724" lon="3.67161">
        <ele>194.2</ele>
        <time>2021-04-15T14:53:55Z</time>
      </trkpt>
      <trkpt lat="43.5724" lon="3.67161">
        <ele>204</ele>
        <time>2021-04-15T14:53:55Z</time>
      </trkpt>
      <trkpt lat="43.5724" lon="3.67163">
        <ele>194</ele>
        <time>2021-04-15T14:53:56Z</time>
      </trkpt>
      <trkpt lat="43.5724" lon="3.67163">
        <ele>204</ele>
        <time>2021-04-15T14:53:56Z</time>
      </trkpt>
      <trkpt lat="43.5724" lon="3.67164">
        <ele>193.8</ele>
        <time>2021-04-15T14:53:57Z</time>
      </trkpt>
      <trkpt lat="43.5724" lon="3.67164">
        <ele>204</ele>
        <time>2021-04-15T14:53:57Z</time>
      </trkpt>
      <trkpt lat="43.5724" lon="3.67166">
        <ele>193.4</ele>
        <time>2021-04-15T14:53:59Z</time>
      </trkpt>
      <trkpt lat="43.5724" lon="3.67166">
        <ele>204</ele>
        <time>2021-04-15T14:53:59Z</time>
      </trkpt>
      <trkpt lat="43.5724" lon="3.67168">
        <ele>193.1</ele>
        <time>2021-04-15T14:54:00Z</time>
      </trkpt>
      <trkpt lat="43.5724" lon="3.67168">
        <ele>204</ele>
        <time>2021-04-15T14:54:00Z</time>
      </trkpt>
      <trkpt lat="43.5724" lon="3.67169">
        <ele>192.7</ele>
        <time>2021-04-15T14:54:02Z</time>
      </trkpt>
      <trkpt lat="43.5724" lon="3.67169">
        <ele>200</ele>
        <time>2021-04-15T14:54:02Z</time>
      </trkpt>
      <trkpt lat="43.5724" lon="3.67171">
        <ele>192.4</ele>
        <time>2021-04-15T14:54:03Z</time>
      </trkpt>
      <trkpt lat="43.5724" lon="3.67171">
        <ele>200</ele>
        <time>2021-04-15T14:54:03Z</time>
      </trkpt>
      <trkpt lat="43.57239" lon="3.67173">
        <ele>191.9</ele>
        <time>2021-04-15T14:54:05Z</time>
      </trkpt>
      <trkpt lat="43.57239" lon="3.67173">
        <ele>200</ele>
        <time>2021-04-15T14:54:05Z</time>
      </trkpt>
      <trkpt lat="43.57239" lon="3.67175">
        <ele>191.5</ele>
        <time>2021-04-15T14:54:06Z</time>
      </trkpt>
      <trkpt lat="43.57239" lon="3.67175">
        <ele>200</ele>
        <time>2021-04-15T14:54:06Z</time>
      </trkpt>
      <trkpt lat="43.57239" lon="3.67177">
        <ele>191.1</ele>
        <time>2021-04-15T14:54:07Z</time>
      </trkpt>
      <trkpt lat="43.57239" lon="3.67177">
        <ele>200</ele>
        <time>2021-04-15T14:54:07Z</time>
      </trkpt>
      <trkpt lat="43.57238" lon="3.67179">
        <ele>190.6</ele>
        <time>2021-04-15T14:54:09Z</time>
      </trkpt>
      <trkpt lat="43.57238" lon="3.67179">
        <ele>200</ele>
        <time>2021-04-15T14:54:09Z</time>
      </trkpt>
      <trkpt lat="43.57237" lon="3.67182">
        <ele>190.1</ele>
        <time>2021-04-15T14:54:11Z</time>
      </trkpt>
      <trkpt lat="43.57237" lon="3.67182">
        <ele>200</ele>
        <time>2021-04-15T14:54:11Z</time>
      </trkpt>
      <trkpt lat="43.57237" lon="3.67184">
        <ele>189.7</ele>
        <time>2021-04-15T14:54:12Z</time>
      </trkpt>
      <trkpt lat="43.57237" lon="3.67184">
        <ele>200</ele>
        <time>2021-04-15T14:54:12Z</time>
      </trkpt>
      <trkpt lat="43.57236" lon="3.67185">
        <ele>189.3</ele>
        <time>2021-04-15T14:54:14Z</time>
      </trkpt>
      <trkpt lat="43.57236" lon="3.67185">
        <ele>200</ele>
        <time>2021-04-15T14:54:14Z</time>
      </trkpt>
      <trkpt lat="43.57235" lon="3.67187">
        <ele>188.9</ele>
        <time>2021-04-15T14:54:16Z</time>
      </trkpt>
      <trkpt lat="43.57235" lon="3.67187">
        <ele>200</ele>
        <time>2021-04-15T14:54:16Z</time>
      </trkpt>
      <trkpt lat="43.57235" lon="3.67189">
        <ele>188.5</ele>
        <time>2021-04-15T14:54:17Z</time>
      </trkpt>
      <trkpt lat="43.57235" lon="3.67189">
        <ele>200</ele>
        <time>2021-04-15T14:54:17Z</time>
      </trkpt>
      <trkpt lat="43.57234" lon="3.6719">
        <ele>188.1</ele>
        <time>2021-04-15T14:54:19Z</time>
      </trkpt>
      <trkpt lat="43.57234" lon="3.6719">
        <ele>195</ele>
        <time>2021-04-15T14:54:19Z</time>
      </trkpt>
      <trkpt lat="43.57233" lon="3.67192">
        <ele>187.7</ele>
        <time>2021-04-15T14:54:20Z</time>
      </trkpt>
      <trkpt lat="43.57233" lon="3.67192">
        <ele>195</ele>
        <time>2021-04-15T14:54:20Z</time>
      </trkpt>
      <trkpt lat="43.57232" lon="3.67193">
        <ele>187.3</ele>
        <time>2021-04-15T14:54:22Z</time>
      </trkpt>
      <trkpt lat="43.57232" lon="3.67193">
        <ele>195</ele>
        <time>2021-04-15T14:54:22Z</time>
      </trkpt>
      <trkpt lat="43.57231" lon="3.67195">
        <ele>186.9</ele>
        <time>2021-04-15T14:54:23Z</time>
      </trkpt>
      <trkpt lat="43.57231" lon="3.67195">
        <ele>195</ele>
        <time>2021-04-15T14:54:23Z</time>
      </trkpt>
      <trkpt lat="43.5723" lon="3.67196">
        <ele>186.6</ele>
        <time>2021-04-15T14:54:24Z</time>
      </trkpt>
      <trkpt lat="43.5723" lon="3.67196">
        <ele>195</ele>
        <time>2021-04-15T14:54:24Z</time>
      </trkpt>
      <trkpt lat="43.57229" lon="3.67197">
        <ele>186.2</ele>
        <time>2021-04-15T14:54:26Z</time>
      </trkpt>
      <trkpt lat="43.57229" lon="3.67197">
        <ele>195</ele>
        <time>2021-04-15T14:54:26Z</time>
      </trkpt>
      <trkpt lat="43.57228" lon="3.67199">
        <ele>185.9</ele>
        <time>2021-04-15T14:54:28Z</time>
      </trkpt>
      <trkpt lat="43.57228" lon="3.67199">
        <ele>195</ele>
        <time>2021-04-15T14:54:28Z</time>
      </trkpt>
      <trkpt lat="43.57227" lon="3.672">
        <ele>185.6</ele>
        <time>2021-04-15T14:54:30Z</time>
      </trkpt>
      <trkpt lat="43.57227" lon="3.672">
        <ele>195</ele>
        <time>2021-04-15T14:54:30Z</time>
      </trkpt>
      <trkpt lat="43.57226" lon="3.67201">
        <ele>185.3</ele>
        <time>2021-04-15T14:54:31Z</time>
      </trkpt>
      <trkpt lat="43.57226" lon="3.67201">
        <ele>195</ele>
        <time>2021-04-15T14:54:31Z</time>
      </trkpt>
      <trkpt lat="43.57226" lon="3.67202">
        <ele>184.9</ele>
        <time>2021-04-15T14:54:33Z</time>
      </trkpt>
      <trkpt lat="43.57226" lon="3.67202">
        <ele>195</ele>
        <time>2021-04-15T14:54:33Z</time>
      </trkpt>
      <trkpt lat="43.57225" lon="3.67204">
        <ele>184.6</ele>
        <time>2021-04-15T14:54:34Z</time>
      </trkpt>
      <trkpt lat="43.57225" lon="3.67204">
        <ele>192</ele>
        <time>2021-04-15T14:54:34Z</time>
      </trkpt>
      <trkpt lat="43.57224" lon="3.67205">
        <ele>184.4</ele>
        <time>2021-04-15T14:54:35Z</time>
      </trkpt>
      <trkpt lat="43.57224" lon="3.67205">
        <ele>192</ele>
        <time>2021-04-15T14:54:35Z</time>
      </trkpt>
      <trkpt lat="43.57223" lon="3.67206">
        <ele>184.1</ele>
        <time>2021-04-15T14:54:37Z</time>
      </trkpt>
      <trkpt lat="43.57223" lon="3.67206">
        <ele>192</ele>
        <time>2021-04-15T14:54:37Z</time>
      </trkpt>
      <trkpt lat="43.57222" lon="3.67207">
        <ele>183.8</ele>
        <time>2021-04-15T14:54:39Z</time>
      </trkpt>
      <trkpt lat="43.57222" lon="3.67207">
        <ele>192</ele>
        <time>2021-04-15T14:54:39Z</time>
      </trkpt>
      <trkpt lat="43.57222" lon="3.67208">
        <ele>183.5</ele>
        <time>2021-04-15T14:54:40Z</time>
      </trkpt>
      <trkpt lat="43.57222" lon="3.67208">
        <ele>192</ele>
        <time>2021-04-15T14:54:40Z</time>
      </trkpt>
      <trkpt lat="43.57221" lon="3.67209">
        <ele>183.2</ele>
        <time>2021-04-15T14:54:42Z</time>
      </trkpt>
      <trkpt lat="43.57221" lon="3.67209">
        <ele>192</ele>
        <time>2021-04-15T14:54:42Z</time>
      </trkpt>
      <trkpt lat="43.5722" lon="3.6721">
        <ele>182.8</ele>
        <time>2021-04-15T14:54:43Z</time>
      </trkpt>
      <trkpt lat="43.5722" lon="3.6721">
        <ele>192</ele>
        <time>2021-04-15T14:54:43Z</time>
      </trkpt>
      <trkpt lat="43.57219" lon="3.67211">
        <ele>182.6</ele>
        <time>2021-04-15T14:54:44Z</time>
      </trkpt>
      <trkpt lat="43.57219" lon="3.67211">
        <ele>191</ele>
        <time>2021-04-15T14:54:44Z</time>
      </trkpt>
      <trkpt lat="43.57218" lon="3.67212">
        <ele>182.2</ele>
        <time>2021-04-15T14:54:46Z</time>
      </trkpt>
      <trkpt lat="43.57218" lon="3.67212">
        <ele>191</ele>
        <time>2021-04-15T14:54:46Z</time>
      </trkpt>
      <trkpt lat="43.57217" lon="3.67213">
        <ele>181.8</ele>
        <time>2021-04-15T14:54:48Z</time>
      </trkpt>
      <trkpt lat="43.57217" lon="3.67213">
        <ele>191</ele>
        <time>2021-04-15T14:54:48Z</time>
      </trkpt>
      <trkpt lat="43.57216" lon="3.67214">
        <ele>181.4</ele>
        <time>2021-04-15T14:54:49Z</time>
      </trkpt>
      <trkpt lat="43.57216" lon="3.67214">
        <ele>191</ele>
        <time>2021-04-15T14:54:49Z</time>
      </trkpt>
      <trkpt lat="43.57215" lon="3.67215">
        <ele>181.1</ele>
        <time>2021-04-15T14:54:51Z</time>
      </trkpt>
      <trkpt lat="43.57215" lon="3.67215">
        <ele>187</ele>
        <time>2021-04-15T14:54:51Z</time>
      </trkpt>
      <trkpt lat="43.57214" lon="3.67217">
        <ele>180.6</ele>
        <time>2021-04-15T14:54:53Z</time>
      </trkpt>
      <trkpt lat="43.57214" lon="3.67217">
        <ele>187</ele>
        <time>2021-04-15T14:54:53Z</time>
      </trkpt>
      <trkpt lat="43.57213" lon="3.67218">
        <ele>180.1</ele>
        <time>2021-04-15T14:54:55Z</time>
      </trkpt>
      <trkpt lat="43.57213" lon="3.67218">
        <ele>187</ele>
        <time>2021-04-15T14:54:55Z</time>
      </trkpt>
      <trkpt lat="43.57212" lon="3.6722">
        <ele>179.7</ele>
        <time>2021-04-15T14:54:56Z</time>
      </trkpt>
      <trkpt lat="43.57212" lon="3.6722">
        <ele>187</ele>
        <time>2021-04-15T14:54:56Z</time>
      </trkpt>
      <trkpt lat="43.57212" lon="3.67222">
        <ele>179.3</ele>
        <time>2021-04-15T14:54:58Z</time>
      </trkpt>
      <trkpt lat="43.57212" lon="3.67222">
        <ele>187</ele>
        <time>2021-04-15T14:54:58Z</time>
      </trkpt>
      <trkpt lat="43.57211" lon="3.67223">
        <ele>178.8</ele>
        <time>2021-04-15T14:55:00Z</time>
      </trkpt>
      <trkpt lat="43.57211" lon="3.67223">
        <ele>187</ele>
        <time>2021-04-15T14:55:00Z</time>
      </trkpt>
      <trkpt lat="43.5721" lon="3.67225">
        <ele>178.4</ele>
        <time>2021-04-15T14:55:02Z</time>
      </trkpt>
      <trkpt lat="43.5721" lon="3.67225">
        <ele>187</ele>
        <time>2021-04-15T14:55:02Z</time>
      </trkpt>
      <trkpt lat="43.57209" lon="3.67226">
        <ele>177.9</ele>
        <time>2021-04-15T14:55:04Z</time>
      </trkpt>
      <trkpt lat="43.57209" lon="3.67226">
        <ele>187</ele>
        <time>2021-04-15T14:55:04Z</time>
      </trkpt>
      <trkpt lat="43.57208" lon="3.67227">
        <ele>177.5</ele>
        <time>2021-04-15T14:55:05Z</time>
      </trkpt>
      <trkpt lat="43.57208" lon="3.67227">
        <ele>187</ele>
        <time>2021-04-15T14:55:05Z</time>
      </trkpt>
      <trkpt lat="43.57207" lon="3.67228">
        <ele>177.1</ele>
        <time>2021-04-15T14:55:06Z</time>
      </trkpt>
      <trkpt lat="43.57207" lon="3.67228">
        <ele>187</ele>
        <time>2021-04-15T14:55:06Z</time>
      </trkpt>
      <trkpt lat="43.57206" lon="3.67229">
        <ele>176.7</ele>
        <time>2021-04-15T14:55:08Z</time>
      </trkpt>
      <trkpt lat="43.57206" lon="3.67229">
        <ele>183</ele>
        <time>2021-04-15T14:55:08Z</time>
      </trkpt>
      <trkpt lat="43.57205" lon="3.67231">
        <ele>176.2</ele>
        <time>2021-04-15T14:55:10Z</time>
      </trkpt>
      <trkpt lat="43.57205" lon="3.67231">
        <ele>183</ele>
        <time>2021-04-15T14:55:10Z</time>
      </trkpt>
      <trkpt lat="43.57203" lon="3.67232">
        <ele>175.6</ele>
        <time>2021-04-15T14:55:12Z</time>
      </trkpt>
      <trkpt lat="43.57203" lon="3.67232">
        <ele>183</ele>
        <time>2021-04-15T14:55:12Z</time>
      </trkpt>
      <trkpt lat="43.57202" lon="3.67234">
        <ele>175.1</ele>
        <time>2021-04-15T14:55:14Z</time>
      </trkpt>
      <trkpt lat="43.57202" lon="3.67234">
        <ele>183</ele>
        <time>2021-04-15T14:55:14Z</time>
      </trkpt>
      <trkpt lat="43.57201" lon="3.67236">
        <ele>174.6</ele>
        <time>2021-04-15T14:55:15Z</time>
      </trkpt>
      <trkpt lat="43.57201" lon="3.67236">
        <ele>183</ele>
        <time>2021-04-15T14:55:15Z</time>
      </trkpt>
      <trkpt lat="43.572" lon="3.67237">
        <ele>174.2</ele>
        <time>2021-04-15T14:55:16Z</time>
      </trkpt>
      <trkpt lat="43.572" lon="3.67237">
        <ele>183</ele>
        <time>2021-04-15T14:55:16Z</time>
      </trkpt>
      <trkpt lat="43.57199" lon="3.67239">
        <ele>173.8</ele>
        <time>2021-04-15T14:55:18Z</time>
      </trkpt>
      <trkpt lat="43.57199" lon="3.67239">
        <ele>182</ele>
        <time>2021-04-15T14:55:18Z</time>
      </trkpt>
      <trkpt lat="43.57199" lon="3.6724">
        <ele>173.5</ele>
        <time>2021-04-15T14:55:19Z</time>
      </trkpt>
      <trkpt lat="43.57199" lon="3.6724">
        <ele>182</ele>
        <time>2021-04-15T14:55:19Z</time>
      </trkpt>
      <trkpt lat="43.57198" lon="3.67241">
        <ele>173.1</ele>
        <time>2021-04-15T14:55:20Z</time>
      </trkpt>
      <trkpt lat="43.57198" lon="3.67241">
        <ele>182</ele>
        <time>2021-04-15T14:55:20Z</time>
      </trkpt>
      <trkpt lat="43.57198" lon="3.67243">
        <ele>172.9</ele>
        <time>2021-04-15T14:55:22Z</time>
      </trkpt>
      <trkpt lat="43.57198" lon="3.67243">
        <ele>182</ele>
        <time>2021-04-15T14:55:22Z</time>
      </trkpt>
      <trkpt lat="43.57198" lon="3.67244">
        <ele>172.5</ele>
        <time>2021-04-15T14:55:24Z</time>
      </trkpt>
      <trkpt lat="43.57198" lon="3.67244">
        <ele>179</ele>
        <time>2021-04-15T14:55:24Z</time>
      </trkpt>
      <trkpt lat="43.57197" lon="3.67246">
        <ele>172.2</ele>
        <time>2021-04-15T14:55:25Z</time>
      </trkpt>
      <trkpt lat="43.57197" lon="3.67246">
        <ele>179</ele>
        <time>2021-04-15T14:55:25Z</time>
      </trkpt>
      <trkpt lat="43.57197" lon="3.67248">
        <ele>171.7</ele>
        <time>2021-04-15T14:55:27Z</time>
      </trkpt>
      <trkpt lat="43.57197" lon="3.67248">
        <ele>179</ele>
        <time>2021-04-15T14:55:27Z</time>
      </trkpt>
      <trkpt lat="43.57196" lon="3.6725">
        <ele>171.2</ele>
        <time>2021-04-15T14:55:29Z</time>
      </trkpt>
      <trkpt lat="43.57196" lon="3.6725">
        <ele>179</ele>
        <time>2021-04-15T14:55:29Z</time>
      </trkpt>
      <trkpt lat="43.57195" lon="3.67252">
        <ele>170.9</ele>
        <time>2021-04-15T14:55:30Z</time>
      </trkpt>
      <trkpt lat="43.57195" lon="3.67252">
        <ele>179</ele>
        <time>2021-04-15T14:55:30Z</time>
      </trkpt>
      <trkpt lat="43.57194" lon="3.67255">
        <ele>170.5</ele>
        <time>2021-04-15T14:55:32Z</time>
      </trkpt>
      <trkpt lat="43.57194" lon="3.67255">
        <ele>179</ele>
        <time>2021-04-15T14:55:32Z</time>
      </trkpt>
      <trkpt lat="43.57194" lon="3.67257">
        <ele>170.2</ele>
        <time>2021-04-15T14:55:33Z</time>
      </trkpt>
      <trkpt lat="43.57194" lon="3.67257">
        <ele>179</ele>
        <time>2021-04-15T14:55:33Z</time>
      </trkpt>
      <trkpt lat="43.57193" lon="3.6726">
        <ele>169.8</ele>
        <time>2021-04-15T14:55:35Z</time>
      </trkpt>
      <trkpt lat="43.57193" lon="3.6726">
        <ele>179</ele>
        <time>2021-04-15T14:55:35Z</time>
      </trkpt>
      <trkpt lat="43.57193" lon="3.67262">
        <ele>169.5</ele>
        <time>2021-04-15T14:55:36Z</time>
      </trkpt>
      <trkpt lat="43.57193" lon="3.67262">
        <ele>178</ele>
        <time>2021-04-15T14:55:36Z</time>
      </trkpt>
      <trkpt lat="43.57192" lon="3.67265">
        <ele>169.2</ele>
        <time>2021-04-15T14:55:38Z</time>
      </trkpt>
      <trkpt lat="43.57192" lon="3.67265">
        <ele>178</ele>
        <time>2021-04-15T14:55:38Z</time>
      </trkpt>
      <trkpt lat="43.57192" lon="3.67267">
        <ele>168.9</ele>
        <time>2021-04-15T14:55:39Z</time>
      </trkpt>
      <trkpt lat="43.57192" lon="3.67267">
        <ele>178</ele>
        <time>2021-04-15T14:55:39Z</time>
      </trkpt>
      <trkpt lat="43.57192" lon="3.67269">
        <ele>168.7</ele>
        <time>2021-04-15T14:55:40Z</time>
      </trkpt>
      <trkpt lat="43.57192" lon="3.67269">
        <ele>178</ele>
        <time>2021-04-15T14:55:40Z</time>
      </trkpt>
      <trkpt lat="43.57191" lon="3.6727">
        <ele>168.5</ele>
        <time>2021-04-15T14:55:41Z</time>
      </trkpt>
      <trkpt lat="43.57191" lon="3.6727">
        <ele>175</ele>
        <time>2021-04-15T14:55:41Z</time>
      </trkpt>
      <trkpt lat="43.57191" lon="3.67273">
        <ele>168.2</ele>
        <time>2021-04-15T14:55:43Z</time>
      </trkpt>
      <trkpt lat="43.57191" lon="3.67273">
        <ele>175</ele>
        <time>2021-04-15T14:55:43Z</time>
      </trkpt>
      <trkpt lat="43.57191" lon="3.67275">
        <ele>168</ele>
        <time>2021-04-15T14:55:44Z</time>
      </trkpt>
      <trkpt lat="43.57191" lon="3.67275">
        <ele>175</ele>
        <time>2021-04-15T14:55:44Z</time>
      </trkpt>
      <trkpt lat="43.57191" lon="3.67277">
        <ele>167.7</ele>
        <time>2021-04-15T14:55:46Z</time>
      </trkpt>
      <trkpt lat="43.57191" lon="3.67277">
        <ele>175</ele>
        <time>2021-04-15T14:55:46Z</time>
      </trkpt>
      <trkpt lat="43.57191" lon="3.67279">
        <ele>167.4</ele>
        <time>2021-04-15T14:55:48Z</time>
      </trkpt>
      <trkpt lat="43.57191" lon="3.67279">
        <ele>175</ele>
        <time>2021-04-15T14:55:48Z</time>
      </trkpt>
      <trkpt lat="43.57191" lon="3.67281">
        <ele>167</ele>
        <time>2021-04-15T14:55:49Z</time>
      </trkpt>
      <trkpt lat="43.57191" lon="3.67281">
        <ele>175</ele>
        <time>2021-04-15T14:55:49Z</time>
      </trkpt>
      <trkpt lat="43.57191" lon="3.67282">
        <ele>166.8</ele>
        <time>2021-04-15T14:55:50Z</time>
      </trkpt>
      <trkpt lat="43.57191" lon="3.67282">
        <ele>175</ele>
        <time>2021-04-15T14:55:50Z</time>
      </trkpt>
      <trkpt lat="43.57191" lon="3.67284">
        <ele>166.5</ele>
        <time>2021-04-15T14:55:52Z</time>
      </trkpt>
      <trkpt lat="43.57191" lon="3.67284">
        <ele>174</ele>
        <time>2021-04-15T14:55:52Z</time>
      </trkpt>
      <trkpt lat="43.5719" lon="3.67286">
        <ele>166.1</ele>
        <time>2021-04-15T14:55:54Z</time>
      </trkpt>
      <trkpt lat="43.5719" lon="3.67286">
        <ele>174</ele>
        <time>2021-04-15T14:55:54Z</time>
      </trkpt>
      <trkpt lat="43.5719" lon="3.67288">
        <ele>165.8</ele>
        <time>2021-04-15T14:55:55Z</time>
      </trkpt>
      <trkpt lat="43.5719" lon="3.67288">
        <ele>174</ele>
        <time>2021-04-15T14:55:55Z</time>
      </trkpt>
      <trkpt lat="43.57189" lon="3.6729">
        <ele>165.5</ele>
        <time>2021-04-15T14:55:57Z</time>
      </trkpt>
      <trkpt lat="43.57189" lon="3.6729">
        <ele>172</ele>
        <time>2021-04-15T14:55:57Z</time>
      </trkpt>
      <trkpt lat="43.57189" lon="3.67291">
        <ele>165.3</ele>
        <time>2021-04-15T14:55:58Z</time>
      </trkpt>
      <trkpt lat="43.57189" lon="3.67291">
        <ele>172</ele>
        <time>2021-04-15T14:55:58Z</time>
      </trkpt>
      <trkpt lat="43.57189" lon="3.67292">
        <ele>165</ele>
        <time>2021-04-15T14:56:00Z</time>
      </trkpt>
      <trkpt lat="43.57189" lon="3.67292">
        <ele>172</ele>
        <time>2021-04-15T14:56:00Z</time>
      </trkpt>
      <trkpt lat="43.57188" lon="3.67294">
        <ele>164.7</ele>
        <time>2021-04-15T14:56:01Z</time>
      </trkpt>
      <trkpt lat="43.57188" lon="3.67294">
        <ele>172</ele>
        <time>2021-04-15T14:56:01Z</time>
      </trkpt>
      <trkpt lat="43.57188" lon="3.67295">
        <ele>164.5</ele>
        <time>2021-04-15T14:56:03Z</time>
      </trkpt>
      <trkpt lat="43.57188" lon="3.67295">
        <ele>172</ele>
        <time>2021-04-15T14:56:03Z</time>
      </trkpt>
      <trkpt lat="43.57188" lon="3.67297">
        <ele>164.2</ele>
        <time>2021-04-15T14:56:04Z</time>
      </trkpt>
      <trkpt lat="43.57188" lon="3.67297">
        <ele>172</ele>
        <time>2021-04-15T14:56:04Z</time>
      </trkpt>
      <trkpt lat="43.57187" lon="3.67298">
        <ele>163.9</ele>
        <time>2021-04-15T14:56:06Z</time>
      </trkpt>
      <trkpt lat="43.57187" lon="3.67298">
        <ele>172</ele>
        <time>2021-04-15T14:56:06Z</time>
      </trkpt>
      <trkpt lat="43.57187" lon="3.673">
        <ele>163.6</ele>
        <time>2021-04-15T14:56:07Z</time>
      </trkpt>
      <trkpt lat="43.57187" lon="3.673">
        <ele>172</ele>
        <time>2021-04-15T14:56:07Z</time>
      </trkpt>
      <trkpt lat="43.57187" lon="3.67302">
        <ele>163.4</ele>
        <time>2021-04-15T14:56:08Z</time>
      </trkpt>
      <trkpt lat="43.57187" lon="3.67302">
        <ele>172</ele>
        <time>2021-04-15T14:56:08Z</time>
      </trkpt>
      <trkpt lat="43.57187" lon="3.67304">
        <ele>163</ele>
        <time>2021-04-15T14:56:10Z</time>
      </trkpt>
      <trkpt lat="43.57187" lon="3.67304">
        <ele>172</ele>
        <time>2021-04-15T14:56:10Z</time>
      </trkpt>
      <trkpt lat="43.57187" lon="3.67306">
        <ele>162.7</ele>
        <time>2021-04-15T14:56:12Z</time>
      </trkpt>
      <trkpt lat="43.57187" lon="3.67306">
        <ele>172</ele>
        <time>2021-04-15T14:56:12Z</time>
      </trkpt>
      <trkpt lat="43.57187" lon="3.67308">
        <ele>162.4</ele>
        <time>2021-04-15T14:56:13Z</time>
      </trkpt>
      <trkpt lat="43.57187" lon="3.67308">
        <ele>172</ele>
        <time>2021-04-15T14:56:13Z</time>
      </trkpt>
      <trkpt lat="43.57188" lon="3.6731">
        <ele>162.1</ele>
        <time>2021-04-15T14:56:15Z</time>
      </trkpt>
      <trkpt lat="43.57188" lon="3.6731">
        <ele>168</ele>
        <time>2021-04-15T14:56:15Z</time>
      </trkpt>
      <trkpt lat="43.57188" lon="3.67312">
        <ele>161.8</ele>
        <time>2021-04-15T14:56:16Z</time>
      </trkpt>
      <trkpt lat="43.57188" lon="3.67312">
        <ele>168</ele>
        <time>2021-04-15T14:56:16Z</time>
      </trkpt>
      <trkpt lat="43.57188" lon="3.67314">
        <ele>161.6</ele>
        <time>2021-04-15T14:56:18Z</time>
      </trkpt>
      <trkpt lat="43.57188" lon="3.67314">
        <ele>168</ele>
        <time>2021-04-15T14:56:18Z</time>
      </trkpt>
      <trkpt lat="43.57188" lon="3.67315">
        <ele>161.3</ele>
        <time>2021-04-15T14:56:19Z</time>
      </trkpt>
      <trkpt lat="43.57188" lon="3.67315">
        <ele>168</ele>
        <time>2021-04-15T14:56:19Z</time>
      </trkpt>
      <trkpt lat="43.57189" lon="3.67317">
        <ele>161.1</ele>
        <time>2021-04-15T14:56:20Z</time>
      </trkpt>
      <trkpt lat="43.57189" lon="3.67317">
        <ele>168</ele>
        <time>2021-04-15T14:56:20Z</time>
      </trkpt>
      <trkpt lat="43.57189" lon="3.67319">
        <ele>160.8</ele>
        <time>2021-04-15T14:56:22Z</time>
      </trkpt>
      <trkpt lat="43.57189" lon="3.67319">
        <ele>168</ele>
        <time>2021-04-15T14:56:22Z</time>
      </trkpt>
      <trkpt lat="43.57188" lon="3.67321">
        <ele>160.4</ele>
        <time>2021-04-15T14:56:23Z</time>
      </trkpt>
      <trkpt lat="43.57188" lon="3.67321">
        <ele>168</ele>
        <time>2021-04-15T14:56:23Z</time>
      </trkpt>
      <trkpt lat="43.57188" lon="3.67323">
        <ele>160.1</ele>
        <time>2021-04-15T14:56:25Z</time>
      </trkpt>
      <trkpt lat="43.57188" lon="3.67323">
        <ele>168</ele>
        <time>2021-04-15T14:56:25Z</time>
      </trkpt>
      <trkpt lat="43.57188" lon="3.67325">
        <ele>159.8</ele>
        <time>2021-04-15T14:56:26Z</time>
      </trkpt>
      <trkpt lat="43.57188" lon="3.67325">
        <ele>168</ele>
        <time>2021-04-15T14:56:26Z</time>
      </trkpt>
      <trkpt lat="43.57188" lon="3.67328">
        <ele>159.4</ele>
        <time>2021-04-15T14:56:28Z</time>
      </trkpt>
      <trkpt lat="43.57188" lon="3.67328">
        <ele>168</ele>
        <time>2021-04-15T14:56:28Z</time>
      </trkpt>
      <trkpt lat="43.57187" lon="3.6733">
        <ele>159.1</ele>
        <time>2021-04-15T14:56:29Z</time>
      </trkpt>
      <trkpt lat="43.57187" lon="3.6733">
        <ele>168</ele>
        <time>2021-04-15T14:56:29Z</time>
      </trkpt>
      <trkpt lat="43.57187" lon="3.67331">
        <ele>158.8</ele>
        <time>2021-04-15T14:56:31Z</time>
      </trkpt>
      <trkpt lat="43.57187" lon="3.67331">
        <ele>164</ele>
        <time>2021-04-15T14:56:31Z</time>
      </trkpt>
      <trkpt lat="43.57186" lon="3.67334">
        <ele>158.4</ele>
        <time>2021-04-15T14:56:33Z</time>
      </trkpt>
      <trkpt lat="43.57186" lon="3.67334">
        <ele>164</ele>
        <time>2021-04-15T14:56:33Z</time>
      </trkpt>
      <trkpt lat="43.57186" lon="3.67336">
        <ele>158.1</ele>
        <time>2021-04-15T14:56:35Z</time>
      </trkpt>
      <trkpt lat="43.57186" lon="3.67336">
        <ele>164</ele>
        <time>2021-04-15T14:56:35Z</time>
      </trkpt>
      <trkpt lat="43.57185" lon="3.67338">
        <ele>157.8</ele>
        <time>2021-04-15T14:56:36Z</time>
      </trkpt>
      <trkpt lat="43.57185" lon="3.67338">
        <ele>164</ele>
        <time>2021-04-15T14:56:36Z</time>
      </trkpt>
      <trkpt lat="43.57185" lon="3.67341">
        <ele>157.5</ele>
        <time>2021-04-15T14:56:38Z</time>
      </trkpt>
      <trkpt lat="43.57185" lon="3.67341">
        <ele>164</ele>
        <time>2021-04-15T14:56:38Z</time>
      </trkpt>
      <trkpt lat="43.57185" lon="3.67344">
        <ele>157.2</ele>
        <time>2021-04-15T14:56:39Z</time>
      </trkpt>
      <trkpt lat="43.57185" lon="3.67344">
        <ele>164</ele>
        <time>2021-04-15T14:56:39Z</time>
      </trkpt>
      <trkpt lat="43.57185" lon="3.67347">
        <ele>156.8</ele>
        <time>2021-04-15T14:56:41Z</time>
      </trkpt>
      <trkpt lat="43.57185" lon="3.67347">
        <ele>164</ele>
        <time>2021-04-15T14:56:41Z</time>
      </trkpt>
      <trkpt lat="43.57185" lon="3.6735">
        <ele>156.5</ele>
        <time>2021-04-15T14:56:43Z</time>
      </trkpt>
      <trkpt lat="43.57185" lon="3.6735">
        <ele>163</ele>
        <time>2021-04-15T14:56:43Z</time>
      </trkpt>
      <trkpt lat="43.57184" lon="3.67353">
        <ele>156.2</ele>
        <time>2021-04-15T14:56:45Z</time>
      </trkpt>
      <trkpt lat="43.57184" lon="3.67353">
        <ele>163</ele>
        <time>2021-04-15T14:56:45Z</time>
      </trkpt>
      <trkpt lat="43.57184" lon="3.67356">
        <ele>155.9</ele>
        <time>2021-04-15T14:56:46Z</time>
      </trkpt>
      <trkpt lat="43.57184" lon="3.67356">
        <ele>163</ele>
        <time>2021-04-15T14:56:46Z</time>
      </trkpt>
      <trkpt lat="43.57184" lon="3.67358">
        <ele>155.6</ele>
        <time>2021-04-15T14:56:48Z</time>
      </trkpt>
      <trkpt lat="43.57184" lon="3.67358">
        <ele>160</ele>
        <time>2021-04-15T14:56:48Z</time>
      </trkpt>
      <trkpt lat="43.57184" lon="3.67361">
        <ele>155.2</ele>
        <time>2021-04-15T14:56:50Z</time>
      </trkpt>
      <trkpt lat="43.57184" lon="3.67361">
        <ele>160</ele>
        <time>2021-04-15T14:56:50Z</time>
      </trkpt>
      <trkpt lat="43.57184" lon="3.67364">
        <ele>154.9</ele>
        <time>2021-04-15T14:56:52Z</time>
      </trkpt>
      <trkpt lat="43.57184" lon="3.67364">
        <ele>160</ele>
        <time>2021-04-15T14:56:52Z</time>
      </trkpt>
      <trkpt lat="43.57183" lon="3.67367">
        <ele>154.7</ele>
        <time>2021-04-15T14:56:53Z</time>
      </trkpt>
      <trkpt lat="43.57183" lon="3.67367">
        <ele>160</ele>
        <time>2021-04-15T14:56:53Z</time>
      </trkpt>
      <trkpt lat="43.57183" lon="3.6737">
        <ele>154.4</ele>
        <time>2021-04-15T14:56:55Z</time>
      </trkpt>
      <trkpt lat="43.57183" lon="3.6737">
        <ele>160</ele>
        <time>2021-04-15T14:56:55Z</time>
      </trkpt>
      <trkpt lat="43.57182" lon="3.67372">
        <ele>154.1</ele>
        <time>2021-04-15T14:56:57Z</time>
      </trkpt>
      <trkpt lat="43.57182" lon="3.67372">
        <ele>160</ele>
        <time>2021-04-15T14:56:57Z</time>
      </trkpt>
      <trkpt lat="43.57182" lon="3.67375">
        <ele>153.8</ele>
        <time>2021-04-15T14:56:58Z</time>
      </trkpt>
      <trkpt lat="43.57182" lon="3.67375">
        <ele>160</ele>
        <time>2021-04-15T14:56:58Z</time>
      </trkpt>
      <trkpt lat="43.57181" lon="3.67377">
        <ele>153.6</ele>
        <time>2021-04-15T14:57:00Z</time>
      </trkpt>
      <trkpt lat="43.57181" lon="3.67377">
        <ele>160</ele>
        <time>2021-04-15T14:57:00Z</time>
      </trkpt>
      <trkpt lat="43.5718" lon="3.6738">
        <ele>153.3</ele>
        <time>2021-04-15T14:57:01Z</time>
      </trkpt>
      <trkpt lat="43.5718" lon="3.6738">
        <ele>160</ele>
        <time>2021-04-15T14:57:01Z</time>
      </trkpt>
      <trkpt lat="43.5718" lon="3.67382">
        <ele>153.1</ele>
        <time>2021-04-15T14:57:03Z</time>
      </trkpt>
      <trkpt lat="43.5718" lon="3.67382">
        <ele>160</ele>
        <time>2021-04-15T14:57:03Z</time>
      </trkpt>
      <trkpt lat="43.57179" lon="3.67384">
        <ele>152.9</ele>
        <time>2021-04-15T14:57:05Z</time>
      </trkpt>
      <trkpt lat="43.57179" lon="3.67384">
        <ele>157</ele>
        <time>2021-04-15T14:57:05Z</time>
      </trkpt>
      <trkpt lat="43.57178" lon="3.67386">
        <ele>152.6</ele>
        <time>2021-04-15T14:57:06Z</time>
      </trkpt>
      <trkpt lat="43.57178" lon="3.67386">
        <ele>157</ele>
        <time>2021-04-15T14:57:06Z</time>
      </trkpt>
      <trkpt lat="43.57177" lon="3.67389">
        <ele>152.4</ele>
        <time>2021-04-15T14:57:08Z</time>
      </trkpt>
      <trkpt lat="43.57177" lon="3.67389">
        <ele>157</ele>
        <time>2021-04-15T14:57:08Z</time>
      </trkpt>
      <trkpt lat="43.57177" lon="3.67392">
        <ele>152.2</ele>
        <time>2021-04-15T14:57:09Z</time>
      </trkpt>
      <trkpt lat="43.57177" lon="3.67392">
        <ele>157</ele>
        <time>2021-04-15T14:57:09Z</time>
      </trkpt>
      <trkpt lat="43.57176" lon="3.67393">
        <ele>152.1</ele>
        <time>2021-04-15T14:57:10Z</time>
      </trkpt>
      <trkpt lat="43.57176" lon="3.67393">
        <ele>157</ele>
        <time>2021-04-15T14:57:10Z</time>
      </trkpt>
      <trkpt lat="43.57175" lon="3.67396">
        <ele>151.9</ele>
        <time>2021-04-15T14:57:12Z</time>
      </trkpt>
      <trkpt lat="43.57175" lon="3.67396">
        <ele>157</ele>
        <time>2021-04-15T14:57:12Z</time>
      </trkpt>
      <trkpt lat="43.57174" lon="3.67398">
        <ele>151.7</ele>
        <time>2021-04-15T14:57:13Z</time>
      </trkpt>
      <trkpt lat="43.57174" lon="3.67398">
        <ele>157</ele>
        <time>2021-04-15T14:57:13Z</time>
      </trkpt>
      <trkpt lat="43.57174" lon="3.67399">
        <ele>151.6</ele>
        <time>2021-04-15T14:57:14Z</time>
      </trkpt>
      <trkpt lat="43.57174" lon="3.67399">
        <ele>157</ele>
        <time>2021-04-15T14:57:14Z</time>
      </trkpt>
      <trkpt lat="43.57173" lon="3.67401">
        <ele>151.4</ele>
        <time>2021-04-15T14:57:16Z</time>
      </trkpt>
      <trkpt lat="43.57173" lon="3.67401">
        <ele>157</ele>
        <time>2021-04-15T14:57:16Z</time>
      </trkpt>
      <trkpt lat="43.57172" lon="3.67403">
        <ele>151.3</ele>
        <time>2021-04-15T14:57:18Z</time>
      </trkpt>
      <trkpt lat="43.57172" lon="3.67403">
        <ele>157</ele>
        <time>2021-04-15T14:57:18Z</time>
      </trkpt>
      <trkpt lat="43.57172" lon="3.67405">
        <ele>151.1</ele>
        <time>2021-04-15T14:57:19Z</time>
      </trkpt>
      <trkpt lat="43.57172" lon="3.67405">
        <ele>157</ele>
        <time>2021-04-15T14:57:19Z</time>
      </trkpt>
      <trkpt lat="43.57171" lon="3.67407">
        <ele>150.9</ele>
        <time>2021-04-15T14:57:21Z</time>
      </trkpt>
      <trkpt lat="43.57171" lon="3.67407">
        <ele>155</ele>
        <time>2021-04-15T14:57:21Z</time>
      </trkpt>
      <trkpt lat="43.5717" lon="3.67409">
        <ele>150.8</ele>
        <time>2021-04-15T14:57:23Z</time>
      </trkpt>
      <trkpt lat="43.5717" lon="3.67409">
        <ele>155</ele>
        <time>2021-04-15T14:57:23Z</time>
      </trkpt>
      <trkpt lat="43.57168" lon="3.67411">
        <ele>150.5</ele>
        <time>2021-04-15T14:57:25Z</time>
      </trkpt>
      <trkpt lat="43.57168" lon="3.67411">
        <ele>155</ele>
        <time>2021-04-15T14:57:25Z</time>
      </trkpt>
      <trkpt lat="43.57167" lon="3.67413">
        <ele>150.3</ele>
        <time>2021-04-15T14:57:26Z</time>
      </trkpt>
      <trkpt lat="43.57167" lon="3.67413">
        <ele>155</ele>
        <time>2021-04-15T14:57:26Z</time>
      </trkpt>
      <trkpt lat="43.57166" lon="3.67416">
        <ele>150</ele>
        <time>2021-04-15T14:57:28Z</time>
      </trkpt>
      <trkpt lat="43.57166" lon="3.67416">
        <ele>155</ele>
        <time>2021-04-15T14:57:28Z</time>
      </trkpt>
      <trkpt lat="43.57165" lon="3.67418">
        <ele>149.9</ele>
        <time>2021-04-15T14:57:29Z</time>
      </trkpt>
      <trkpt lat="43.57165" lon="3.67418">
        <ele>155</ele>
        <time>2021-04-15T14:57:29Z</time>
      </trkpt>
      <trkpt lat="43.57164" lon="3.6742">
        <ele>149.8</ele>
        <time>2021-04-15T14:57:30Z</time>
      </trkpt>
      <trkpt lat="43.57164" lon="3.6742">
        <ele>155</ele>
        <time>2021-04-15T14:57:30Z</time>
      </trkpt>
      <trkpt lat="43.57163" lon="3.67422">
        <ele>149.7</ele>
        <time>2021-04-15T14:57:32Z</time>
      </trkpt>
      <trkpt lat="43.57163" lon="3.67422">
        <ele>155</ele>
        <time>2021-04-15T14:57:32Z</time>
      </trkpt>
      <trkpt lat="43.57162" lon="3.67424">
        <ele>149.6</ele>
        <time>2021-04-15T14:57:34Z</time>
      </trkpt>
      <trkpt lat="43.57162" lon="3.67424">
        <ele>155</ele>
        <time>2021-04-15T14:57:34Z</time>
      </trkpt>
      <trkpt lat="43.57161" lon="3.67426">
        <ele>149.6</ele>
        <time>2021-04-15T14:57:35Z</time>
      </trkpt>
      <trkpt lat="43.57161" lon="3.67426">
        <ele>155</ele>
        <time>2021-04-15T14:57:35Z</time>
      </trkpt>
      <trkpt lat="43.5716" lon="3.67429">
        <ele>149.5</ele>
        <time>2021-04-15T14:57:37Z</time>
      </trkpt>
      <trkpt lat="43.5716" lon="3.67429">
        <ele>153</ele>
        <time>2021-04-15T14:57:37Z</time>
      </trkpt>
      <trkpt lat="43.57158" lon="3.67431">
        <ele>149.4</ele>
        <time>2021-04-15T14:57:39Z</time>
      </trkpt>
      <trkpt lat="43.57158" lon="3.67431">
        <ele>153</ele>
        <time>2021-04-15T14:57:39Z</time>
      </trkpt>
      <trkpt lat="43.57157" lon="3.67434">
        <ele>149.3</ele>
        <time>2021-04-15T14:57:41Z</time>
      </trkpt>
      <trkpt lat="43.57157" lon="3.67434">
        <ele>153</ele>
        <time>2021-04-15T14:57:41Z</time>
      </trkpt>
      <trkpt lat="43.57156" lon="3.67436">
        <ele>149.2</ele>
        <time>2021-04-15T14:57:42Z</time>
      </trkpt>
      <trkpt lat="43.57156" lon="3.67436">
        <ele>153</ele>
        <time>2021-04-15T14:57:42Z</time>
      </trkpt>
      <trkpt lat="43.57155" lon="3.67439">
        <ele>149.1</ele>
        <time>2021-04-15T14:57:44Z</time>
      </trkpt>
      <trkpt lat="43.57155" lon="3.67439">
        <ele>153</ele>
        <time>2021-04-15T14:57:44Z</time>
      </trkpt>
      <trkpt lat="43.57154" lon="3.67441">
        <ele>149.1</ele>
        <time>2021-04-15T14:57:46Z</time>
      </trkpt>
      <trkpt lat="43.57154" lon="3.67441">
        <ele>153</ele>
        <time>2021-04-15T14:57:46Z</time>
      </trkpt>
      <trkpt lat="43.57153" lon="3.67443">
        <ele>149</ele>
        <time>2021-04-15T14:57:48Z</time>
      </trkpt>
      <trkpt lat="43.57153" lon="3.67443">
        <ele>153</ele>
        <time>2021-04-15T14:57:48Z</time>
      </trkpt>
      <trkpt lat="43.57152" lon="3.67445">
        <ele>148.9</ele>
        <time>2021-04-15T14:57:50Z</time>
      </trkpt>
      <trkpt lat="43.57152" lon="3.67445">
        <ele>153</ele>
        <time>2021-04-15T14:57:50Z</time>
      </trkpt>
      <trkpt lat="43.5715" lon="3.67446">
        <ele>148.7</ele>
        <time>2021-04-15T14:57:52Z</time>
      </trkpt>
      <trkpt lat="43.5715" lon="3.67446">
        <ele>153</ele>
        <time>2021-04-15T14:57:52Z</time>
      </trkpt>
      <trkpt lat="43.57149" lon="3.67448">
        <ele>148.6</ele>
        <time>2021-04-15T14:57:54Z</time>
      </trkpt>
      <trkpt lat="43.57149" lon="3.67448">
        <ele>153</ele>
        <time>2021-04-15T14:57:54Z</time>
      </trkpt>
      <trkpt lat="43.57148" lon="3.67449">
        <ele>148.5</ele>
        <time>2021-04-15T14:57:56Z</time>
      </trkpt>
      <trkpt lat="43.57148" lon="3.67449">
        <ele>153</ele>
        <time>2021-04-15T14:57:56Z</time>
      </trkpt>
      <trkpt lat="43.57147" lon="3.6745">
        <ele>148.4</ele>
        <time>2021-04-15T14:57:57Z</time>
      </trkpt>
      <trkpt lat="43.57147" lon="3.6745">
        <ele>153</ele>
        <time>2021-04-15T14:57:57Z</time>
      </trkpt>
      <trkpt lat="43.57147" lon="3.67451">
        <ele>148.3</ele>
        <time>2021-04-15T14:57:58Z</time>
      </trkpt>
      <trkpt lat="43.57147" lon="3.67451">
        <ele>153</ele>
        <time>2021-04-15T14:57:58Z</time>
      </trkpt>
      <trkpt lat="43.57146" lon="3.67452">
        <ele>148.3</ele>
        <time>2021-04-15T14:57:59Z</time>
      </trkpt>
      <trkpt lat="43.57146" lon="3.67452">
        <ele>153</ele>
        <time>2021-04-15T14:57:59Z</time>
      </trkpt>
      <trkpt lat="43.57145" lon="3.67453">
        <ele>148.2</ele>
        <time>2021-04-15T14:58:01Z</time>
      </trkpt>
      <trkpt lat="43.57145" lon="3.67453">
        <ele>153</ele>
        <time>2021-04-15T14:58:01Z</time>
      </trkpt>
      <trkpt lat="43.57145" lon="3.67455">
        <ele>148.1</ele>
        <time>2021-04-15T14:58:02Z</time>
      </trkpt>
      <trkpt lat="43.57145" lon="3.67455">
        <ele>153</ele>
        <time>2021-04-15T14:58:02Z</time>
      </trkpt>
      <trkpt lat="43.57144" lon="3.67457">
        <ele>147.9</ele>
        <time>2021-04-15T14:58:04Z</time>
      </trkpt>
      <trkpt lat="43.57144" lon="3.67457">
        <ele>153</ele>
        <time>2021-04-15T14:58:04Z</time>
      </trkpt>
      <trkpt lat="43.57142" lon="3.67458">
        <ele>147.8</ele>
        <time>2021-04-15T14:58:05Z</time>
      </trkpt>
      <trkpt lat="43.57142" lon="3.67458">
        <ele>153</ele>
        <time>2021-04-15T14:58:05Z</time>
      </trkpt>
      <trkpt lat="43.57141" lon="3.6746">
        <ele>147.6</ele>
        <time>2021-04-15T14:58:07Z</time>
      </trkpt>
      <trkpt lat="43.57141" lon="3.6746">
        <ele>153</ele>
        <time>2021-04-15T14:58:07Z</time>
      </trkpt>
      <trkpt lat="43.5714" lon="3.67462">
        <ele>147.4</ele>
        <time>2021-04-15T14:58:08Z</time>
      </trkpt>
      <trkpt lat="43.5714" lon="3.67462">
        <ele>153</ele>
        <time>2021-04-15T14:58:08Z</time>
      </trkpt>
      <trkpt lat="43.57138" lon="3.67464">
        <ele>147.2</ele>
        <time>2021-04-15T14:58:10Z</time>
      </trkpt>
      <trkpt lat="43.57138" lon="3.67464">
        <ele>153</ele>
        <time>2021-04-15T14:58:10Z</time>
      </trkpt>
      <trkpt lat="43.57136" lon="3.67466">
        <ele>147.1</ele>
        <time>2021-04-15T14:58:12Z</time>
      </trkpt>
      <trkpt lat="43.57136" lon="3.67466">
        <ele>153</ele>
        <time>2021-04-15T14:58:12Z</time>
      </trkpt>
      <trkpt lat="43.57134" lon="3.67468">
        <ele>147</ele>
        <time>2021-04-15T14:58:13Z</time>
      </trkpt>
      <trkpt lat="43.57134" lon="3.67468">
        <ele>153</ele>
        <time>2021-04-15T14:58:13Z</time>
      </trkpt>
      <trkpt lat="43.57132" lon="3.67469">
        <ele>146.8</ele>
        <time>2021-04-15T14:58:15Z</time>
      </trkpt>
      <trkpt lat="43.57132" lon="3.67469">
        <ele>153</ele>
        <time>2021-04-15T14:58:15Z</time>
      </trkpt>
      <trkpt lat="43.57131" lon="3.67471">
        <ele>146.7</ele>
        <time>2021-04-15T14:58:16Z</time>
      </trkpt>
      <trkpt lat="43.57131" lon="3.67471">
        <ele>153</ele>
        <time>2021-04-15T14:58:16Z</time>
      </trkpt>
      <trkpt lat="43.57129" lon="3.67472">
        <ele>146.7</ele>
        <time>2021-04-15T14:58:17Z</time>
      </trkpt>
      <trkpt lat="43.57129" lon="3.67472">
        <ele>153</ele>
        <time>2021-04-15T14:58:17Z</time>
      </trkpt>
      <trkpt lat="43.57128" lon="3.67474">
        <ele>146.6</ele>
        <time>2021-04-15T14:58:19Z</time>
      </trkpt>
      <trkpt lat="43.57128" lon="3.67474">
        <ele>153</ele>
        <time>2021-04-15T14:58:19Z</time>
      </trkpt>
      <trkpt lat="43.57126" lon="3.67475">
        <ele>146.5</ele>
        <time>2021-04-15T14:58:21Z</time>
      </trkpt>
      <trkpt lat="43.57126" lon="3.67475">
        <ele>153</ele>
        <time>2021-04-15T14:58:21Z</time>
      </trkpt>
      <trkpt lat="43.57124" lon="3.67477">
        <ele>146.5</ele>
        <time>2021-04-15T14:58:23Z</time>
      </trkpt>
      <trkpt lat="43.57124" lon="3.67477">
        <ele>153</ele>
        <time>2021-04-15T14:58:23Z</time>
      </trkpt>
      <trkpt lat="43.57122" lon="3.67479">
        <ele>146.4</ele>
        <time>2021-04-15T14:58:24Z</time>
      </trkpt>
      <trkpt lat="43.57122" lon="3.67479">
        <ele>153</ele>
        <time>2021-04-15T14:58:24Z</time>
      </trkpt>
      <trkpt lat="43.57121" lon="3.6748">
        <ele>146.4</ele>
        <time>2021-04-15T14:58:25Z</time>
      </trkpt>
      <trkpt lat="43.57121" lon="3.6748">
        <ele>153</ele>
        <time>2021-04-15T14:58:25Z</time>
      </trkpt>
      <trkpt lat="43.5712" lon="3.67482">
        <ele>146.3</ele>
        <time>2021-04-15T14:58:27Z</time>
      </trkpt>
      <trkpt lat="43.5712" lon="3.67482">
        <ele>151</ele>
        <time>2021-04-15T14:58:27Z</time>
      </trkpt>
      <trkpt lat="43.57118" lon="3.67484">
        <ele>146.3</ele>
        <time>2021-04-15T14:58:29Z</time>
      </trkpt>
      <trkpt lat="43.57118" lon="3.67484">
        <ele>151</ele>
        <time>2021-04-15T14:58:29Z</time>
      </trkpt>
      <trkpt lat="43.57116" lon="3.67486">
        <ele>146.2</ele>
        <time>2021-04-15T14:58:31Z</time>
      </trkpt>
      <trkpt lat="43.57116" lon="3.67486">
        <ele>151</ele>
        <time>2021-04-15T14:58:31Z</time>
      </trkpt>
      <trkpt lat="43.57115" lon="3.67489">
        <ele>146.1</ele>
        <time>2021-04-15T14:58:33Z</time>
      </trkpt>
      <trkpt lat="43.57115" lon="3.67489">
        <ele>151</ele>
        <time>2021-04-15T14:58:33Z</time>
      </trkpt>
      <trkpt lat="43.57113" lon="3.67491">
        <ele>146.1</ele>
        <time>2021-04-15T14:58:34Z</time>
      </trkpt>
      <trkpt lat="43.57113" lon="3.67491">
        <ele>151</ele>
        <time>2021-04-15T14:58:34Z</time>
      </trkpt>
      <trkpt lat="43.57111" lon="3.67492">
        <ele>146</ele>
        <time>2021-04-15T14:58:36Z</time>
      </trkpt>
      <trkpt lat="43.57111" lon="3.67492">
        <ele>151</ele>
        <time>2021-04-15T14:58:36Z</time>
      </trkpt>
      <trkpt lat="43.57109" lon="3.67493">
        <ele>145.9</ele>
        <time>2021-04-15T14:58:38Z</time>
      </trkpt>
      <trkpt lat="43.57109" lon="3.67493">
        <ele>151</ele>
        <time>2021-04-15T14:58:38Z</time>
      </trkpt>
      <trkpt lat="43.57106" lon="3.67494">
        <ele>145.8</ele>
        <time>2021-04-15T14:58:40Z</time>
      </trkpt>
      <trkpt lat="43.57106" lon="3.67494">
        <ele>151</ele>
        <time>2021-04-15T14:58:40Z</time>
      </trkpt>
      <trkpt lat="43.57104" lon="3.67495">
        <ele>145.7</ele>
        <time>2021-04-15T14:58:42Z</time>
      </trkpt>
      <trkpt lat="43.57104" lon="3.67495">
        <ele>151</ele>
        <time>2021-04-15T14:58:42Z</time>
      </trkpt>
      <trkpt lat="43.57102" lon="3.67496">
        <ele>145.7</ele>
        <time>2021-04-15T14:58:43Z</time>
      </trkpt>
      <trkpt lat="43.57102" lon="3.67496">
        <ele>151</ele>
        <time>2021-04-15T14:58:43Z</time>
      </trkpt>
      <trkpt lat="43.571" lon="3.67497">
        <ele>145.6</ele>
        <time>2021-04-15T14:58:45Z</time>
      </trkpt>
      <trkpt lat="43.571" lon="3.67497">
        <ele>150</ele>
        <time>2021-04-15T14:58:45Z</time>
      </trkpt>
      <trkpt lat="43.57099" lon="3.67499">
        <ele>145.6</ele>
        <time>2021-04-15T14:58:47Z</time>
      </trkpt>
      <trkpt lat="43.57099" lon="3.67499">
        <ele>150</ele>
        <time>2021-04-15T14:58:47Z</time>
      </trkpt>
      <trkpt lat="43.57098" lon="3.67501">
        <ele>145.5</ele>
        <time>2021-04-15T14:58:48Z</time>
      </trkpt>
      <trkpt lat="43.57098" lon="3.67501">
        <ele>150</ele>
        <time>2021-04-15T14:58:48Z</time>
      </trkpt>
      <trkpt lat="43.57097" lon="3.67503">
        <ele>145.4</ele>
        <time>2021-04-15T14:58:50Z</time>
      </trkpt>
      <trkpt lat="43.57097" lon="3.67503">
        <ele>150</ele>
        <time>2021-04-15T14:58:50Z</time>
      </trkpt>
      <trkpt lat="43.57096" lon="3.67506">
        <ele>145.3</ele>
        <time>2021-04-15T14:58:51Z</time>
      </trkpt>
      <trkpt lat="43.57096" lon="3.67506">
        <ele>150</ele>
        <time>2021-04-15T14:58:51Z</time>
      </trkpt>
      <trkpt lat="43.57095" lon="3.67509">
        <ele>145.1</ele>
        <time>2021-04-15T14:58:53Z</time>
      </trkpt>
      <trkpt lat="43.57095" lon="3.67509">
        <ele>150</ele>
        <time>2021-04-15T14:58:53Z</time>
      </trkpt>
      <trkpt lat="43.57095" lon="3.67511">
        <ele>145</ele>
        <time>2021-04-15T14:58:55Z</time>
      </trkpt>
      <trkpt lat="43.57095" lon="3.67511">
        <ele>150</ele>
        <time>2021-04-15T14:58:55Z</time>
      </trkpt>
      <trkpt lat="43.57094" lon="3.67513">
        <ele>144.9</ele>
        <time>2021-04-15T14:58:56Z</time>
      </trkpt>
      <trkpt lat="43.57094" lon="3.67513">
        <ele>150</ele>
        <time>2021-04-15T14:58:56Z</time>
      </trkpt>
      <trkpt lat="43.57093" lon="3.67515">
        <ele>144.8</ele>
        <time>2021-04-15T14:58:58Z</time>
      </trkpt>
      <trkpt lat="43.57093" lon="3.67515">
        <ele>150</ele>
        <time>2021-04-15T14:58:58Z</time>
      </trkpt>
      <trkpt lat="43.57092" lon="3.67517">
        <ele>144.7</ele>
        <time>2021-04-15T14:58:59Z</time>
      </trkpt>
      <trkpt lat="43.57092" lon="3.67517">
        <ele>150</ele>
        <time>2021-04-15T14:58:59Z</time>
      </trkpt>
      <trkpt lat="43.57092" lon="3.67519">
        <ele>144.6</ele>
        <time>2021-04-15T14:59:00Z</time>
      </trkpt>
      <trkpt lat="43.57092" lon="3.67519">
        <ele>150</ele>
        <time>2021-04-15T14:59:00Z</time>
      </trkpt>
      <trkpt lat="43.57091" lon="3.67522">
        <ele>144.5</ele>
        <time>2021-04-15T14:59:02Z</time>
      </trkpt>
      <trkpt lat="43.57091" lon="3.67522">
        <ele>148</ele>
        <time>2021-04-15T14:59:02Z</time>
      </trkpt>
      <trkpt lat="43.5709" lon="3.67525">
        <ele>144.3</ele>
        <time>2021-04-15T14:59:04Z</time>
      </trkpt>
      <trkpt lat="43.5709" lon="3.67525">
        <ele>148</ele>
        <time>2021-04-15T14:59:04Z</time>
      </trkpt>
      <trkpt lat="43.57089" lon="3.67528">
        <ele>144.2</ele>
        <time>2021-04-15T14:59:06Z</time>
      </trkpt>
      <trkpt lat="43.57089" lon="3.67528">
        <ele>148</ele>
        <time>2021-04-15T14:59:06Z</time>
      </trkpt>
      <trkpt lat="43.57088" lon="3.67532">
        <ele>144</ele>
        <time>2021-04-15T14:59:08Z</time>
      </trkpt>
      <trkpt lat="43.57088" lon="3.67532">
        <ele>148</ele>
        <time>2021-04-15T14:59:08Z</time>
      </trkpt>
      <trkpt lat="43.57088" lon="3.67535">
        <ele>143.9</ele>
        <time>2021-04-15T14:59:09Z</time>
      </trkpt>
      <trkpt lat="43.57088" lon="3.67535">
        <ele>148</ele>
        <time>2021-04-15T14:59:09Z</time>
      </trkpt>
      <trkpt lat="43.57087" lon="3.67538">
        <ele>143.8</ele>
        <time>2021-04-15T14:59:11Z</time>
      </trkpt>
      <trkpt lat="43.57087" lon="3.67538">
        <ele>148</ele>
        <time>2021-04-15T14:59:11Z</time>
      </trkpt>
      <trkpt lat="43.57087" lon="3.6754">
        <ele>143.7</ele>
        <time>2021-04-15T14:59:12Z</time>
      </trkpt>
      <trkpt lat="43.57087" lon="3.6754">
        <ele>148</ele>
        <time>2021-04-15T14:59:12Z</time>
      </trkpt>
      <trkpt lat="43.57086" lon="3.67543">
        <ele>143.6</ele>
        <time>2021-04-15T14:59:14Z</time>
      </trkpt>
      <trkpt lat="43.57086" lon="3.67543">
        <ele>148</ele>
        <time>2021-04-15T14:59:14Z</time>
      </trkpt>
      <trkpt lat="43.57086" lon="3.67545">
        <ele>143.5</ele>
        <time>2021-04-15T14:59:16Z</time>
      </trkpt>
      <trkpt lat="43.57086" lon="3.67545">
        <ele>148</ele>
        <time>2021-04-15T14:59:16Z</time>
      </trkpt>
      <trkpt lat="43.57085" lon="3.67548">
        <ele>143.4</ele>
        <time>2021-04-15T14:59:17Z</time>
      </trkpt>
      <trkpt lat="43.57085" lon="3.67548">
        <ele>148</ele>
        <time>2021-04-15T14:59:17Z</time>
      </trkpt>
      <trkpt lat="43.57085" lon="3.6755">
        <ele>143.3</ele>
        <time>2021-04-15T14:59:18Z</time>
      </trkpt>
      <trkpt lat="43.57085" lon="3.6755">
        <ele>148</ele>
        <time>2021-04-15T14:59:18Z</time>
      </trkpt>
      <trkpt lat="43.57084" lon="3.67552">
        <ele>143.2</ele>
        <time>2021-04-15T14:59:20Z</time>
      </trkpt>
      <trkpt lat="43.57084" lon="3.67552">
        <ele>148</ele>
        <time>2021-04-15T14:59:20Z</time>
      </trkpt>
      <trkpt lat="43.57084" lon="3.67555">
        <ele>143</ele>
        <time>2021-04-15T14:59:22Z</time>
      </trkpt>
      <trkpt lat="43.57084" lon="3.67555">
        <ele>148</ele>
        <time>2021-04-15T14:59:22Z</time>
      </trkpt>
      <trkpt lat="43.57083" lon="3.67558">
        <ele>143</ele>
        <time>2021-04-15T14:59:24Z</time>
      </trkpt>
      <trkpt lat="43.57083" lon="3.67558">
        <ele>148</ele>
        <time>2021-04-15T14:59:24Z</time>
      </trkpt>
      <trkpt lat="43.57082" lon="3.67561">
        <ele>143</ele>
        <time>2021-04-15T14:59:25Z</time>
      </trkpt>
      <trkpt lat="43.57082" lon="3.67561">
        <ele>148</ele>
        <time>2021-04-15T14:59:25Z</time>
      </trkpt>
      <trkpt lat="43.57082" lon="3.67564">
        <ele>142.9</ele>
        <time>2021-04-15T14:59:27Z</time>
      </trkpt>
      <trkpt lat="43.57082" lon="3.67564">
        <ele>148</ele>
        <time>2021-04-15T14:59:27Z</time>
      </trkpt>
      <trkpt lat="43.57082" lon="3.67566">
        <ele>142.9</ele>
        <time>2021-04-15T14:59:28Z</time>
      </trkpt>
      <trkpt lat="43.57082" lon="3.67566">
        <ele>148</ele>
        <time>2021-04-15T14:59:28Z</time>
      </trkpt>
      <trkpt lat="43.57081" lon="3.67568">
        <ele>142.9</ele>
        <time>2021-04-15T14:59:29Z</time>
      </trkpt>
      <trkpt lat="43.57081" lon="3.67568">
        <ele>148</ele>
        <time>2021-04-15T14:59:29Z</time>
      </trkpt>
      <trkpt lat="43.57081" lon="3.67571">
        <ele>142.9</ele>
        <time>2021-04-15T14:59:31Z</time>
      </trkpt>
      <trkpt lat="43.57081" lon="3.67571">
        <ele>148</ele>
        <time>2021-04-15T14:59:31Z</time>
      </trkpt>
      <trkpt lat="43.5708" lon="3.67573">
        <ele>142.9</ele>
        <time>2021-04-15T14:59:33Z</time>
      </trkpt>
      <trkpt lat="43.5708" lon="3.67573">
        <ele>148</ele>
        <time>2021-04-15T14:59:33Z</time>
      </trkpt>
      <trkpt lat="43.57079" lon="3.67576">
        <ele>142.9</ele>
        <time>2021-04-15T14:59:35Z</time>
      </trkpt>
      <trkpt lat="43.57079" lon="3.67576">
        <ele>147</ele>
        <time>2021-04-15T14:59:35Z</time>
      </trkpt>
      <trkpt lat="43.57079" lon="3.67579">
        <ele>142.8</ele>
        <time>2021-04-15T14:59:36Z</time>
      </trkpt>
      <trkpt lat="43.57079" lon="3.67579">
        <ele>147</ele>
        <time>2021-04-15T14:59:36Z</time>
      </trkpt>
      <trkpt lat="43.57078" lon="3.67581">
        <ele>142.8</ele>
        <time>2021-04-15T14:59:37Z</time>
      </trkpt>
      <trkpt lat="43.57078" lon="3.67581">
        <ele>147</ele>
        <time>2021-04-15T14:59:37Z</time>
      </trkpt>
      <trkpt lat="43.57077" lon="3.67584">
        <ele>142.8</ele>
        <time>2021-04-15T14:59:39Z</time>
      </trkpt>
      <trkpt lat="43.57077" lon="3.67584">
        <ele>147</ele>
        <time>2021-04-15T14:59:39Z</time>
      </trkpt>
      <trkpt lat="43.57076" lon="3.67586">
        <ele>142.6</ele>
        <time>2021-04-15T14:59:40Z</time>
      </trkpt>
      <trkpt lat="43.57076" lon="3.67586">
        <ele>147</ele>
        <time>2021-04-15T14:59:40Z</time>
      </trkpt>
      <trkpt lat="43.57074" lon="3.67588">
        <ele>142.5</ele>
        <time>2021-04-15T14:59:42Z</time>
      </trkpt>
      <trkpt lat="43.57074" lon="3.67588">
        <ele>147</ele>
        <time>2021-04-15T14:59:42Z</time>
      </trkpt>
      <trkpt lat="43.57073" lon="3.67591">
        <ele>142.3</ele>
        <time>2021-04-15T14:59:44Z</time>
      </trkpt>
      <trkpt lat="43.57073" lon="3.67591">
        <ele>147</ele>
        <time>2021-04-15T14:59:44Z</time>
      </trkpt>
      <trkpt lat="43.57071" lon="3.67593">
        <ele>142.2</ele>
        <time>2021-04-15T14:59:46Z</time>
      </trkpt>
      <trkpt lat="43.57071" lon="3.67593">
        <ele>147</ele>
        <time>2021-04-15T14:59:46Z</time>
      </trkpt>
      <trkpt lat="43.5707" lon="3.67596">
        <ele>142.1</ele>
        <time>2021-04-15T14:59:48Z</time>
      </trkpt>
      <trkpt lat="43.5707" lon="3.67596">
        <ele>147</ele>
        <time>2021-04-15T14:59:48Z</time>
      </trkpt>
      <trkpt lat="43.57069" lon="3.67599">
        <ele>141.9</ele>
        <time>2021-04-15T14:59:50Z</time>
      </trkpt>
      <trkpt lat="43.57069" lon="3.67599">
        <ele>147</ele>
        <time>2021-04-15T14:59:50Z</time>
      </trkpt>
      <trkpt lat="43.57067" lon="3.67602">
        <ele>141.7</ele>
        <time>2021-04-15T14:59:52Z</time>
      </trkpt>
      <trkpt lat="43.57067" lon="3.67602">
        <ele>147</ele>
        <time>2021-04-15T14:59:52Z</time>
      </trkpt>
      <trkpt lat="43.57065" lon="3.67604">
        <ele>141.6</ele>
        <time>2021-04-15T14:59:53Z</time>
      </trkpt>
      <trkpt lat="43.57065" lon="3.67604">
        <ele>147</ele>
        <time>2021-04-15T14:59:53Z</time>
      </trkpt>
      <trkpt lat="43.57064" lon="3.67607">
        <ele>141.5</ele>
        <time>2021-04-15T14:59:55Z</time>
      </trkpt>
      <trkpt lat="43.57064" lon="3.67607">
        <ele>147</ele>
        <time>2021-04-15T14:59:55Z</time>
      </trkpt>
      <trkpt lat="43.57062" lon="3.67609">
        <ele>141.3</ele>
        <time>2021-04-15T14:59:57Z</time>
      </trkpt>
      <trkpt lat="43.57062" lon="3.67609">
        <ele>147</ele>
        <time>2021-04-15T14:59:57Z</time>
      </trkpt>
      <trkpt lat="43.5706" lon="3.67612">
        <ele>141.1</ele>
        <time>2021-04-15T14:59:59Z</time>
      </trkpt>
      <trkpt lat="43.5706" lon="3.67612">
        <ele>147</ele>
        <time>2021-04-15T14:59:59Z</time>
      </trkpt>
      <trkpt lat="43.57057" lon="3.67614">
        <ele>141.1</ele>
        <time>2021-04-15T15:00:01Z</time>
      </trkpt>
      <trkpt lat="43.57057" lon="3.67614">
        <ele>147</ele>
        <time>2021-04-15T15:00:01Z</time>
      </trkpt>
      <trkpt lat="43.57055" lon="3.67616">
        <ele>141</ele>
        <time>2021-04-15T15:00:02Z</time>
      </trkpt>
      <trkpt lat="43.57055" lon="3.67616">
        <ele>147</ele>
        <time>2021-04-15T15:00:02Z</time>
      </trkpt>
      <trkpt lat="43.57053" lon="3.67618">
        <ele>140.9</ele>
        <time>2021-04-15T15:00:04Z</time>
      </trkpt>
      <trkpt lat="43.57053" lon="3.67618">
        <ele>147</ele>
        <time>2021-04-15T15:00:04Z</time>
      </trkpt>
      <trkpt lat="43.57051" lon="3.67619">
        <ele>140.8</ele>
        <time>2021-04-15T15:00:05Z</time>
      </trkpt>
      <trkpt lat="43.57051" lon="3.67619">
        <ele>147</ele>
        <time>2021-04-15T15:00:05Z</time>
      </trkpt>
      <trkpt lat="43.57049" lon="3.67619">
        <ele>140.8</ele>
        <time>2021-04-15T15:00:07Z</time>
      </trkpt>
      <trkpt lat="43.57049" lon="3.67619">
        <ele>147</ele>
        <time>2021-04-15T15:00:07Z</time>
      </trkpt>
      <trkpt lat="43.57047" lon="3.6762">
        <ele>140.7</ele>
        <time>2021-04-15T15:00:09Z</time>
      </trkpt>
      <trkpt lat="43.57047" lon="3.6762">
        <ele>145</ele>
        <time>2021-04-15T15:00:09Z</time>
      </trkpt>
      <trkpt lat="43.57045" lon="3.6762">
        <ele>140.6</ele>
        <time>2021-04-15T15:00:10Z</time>
      </trkpt>
      <trkpt lat="43.57045" lon="3.6762">
        <ele>145</ele>
        <time>2021-04-15T15:00:10Z</time>
      </trkpt>
      <trkpt lat="43.57042" lon="3.67621">
        <ele>140.5</ele>
        <time>2021-04-15T15:00:12Z</time>
      </trkpt>
      <trkpt lat="43.57042" lon="3.67621">
        <ele>145</ele>
        <time>2021-04-15T15:00:12Z</time>
      </trkpt>
      <trkpt lat="43.5704" lon="3.67622">
        <ele>140.4</ele>
        <time>2021-04-15T15:00:14Z</time>
      </trkpt>
      <trkpt lat="43.5704" lon="3.67622">
        <ele>145</ele>
        <time>2021-04-15T15:00:14Z</time>
      </trkpt>
      <trkpt lat="43.57037" lon="3.67623">
        <ele>140.3</ele>
        <time>2021-04-15T15:00:16Z</time>
      </trkpt>
      <trkpt lat="43.57037" lon="3.67623">
        <ele>145</ele>
        <time>2021-04-15T15:00:16Z</time>
      </trkpt>
      <trkpt lat="43.57034" lon="3.67624">
        <ele>140.2</ele>
        <time>2021-04-15T15:00:18Z</time>
      </trkpt>
      <trkpt lat="43.57034" lon="3.67624">
        <ele>145</ele>
        <time>2021-04-15T15:00:18Z</time>
      </trkpt>
      <trkpt lat="43.57032" lon="3.67626">
        <ele>140.1</ele>
        <time>2021-04-15T15:00:20Z</time>
      </trkpt>
      <trkpt lat="43.57032" lon="3.67626">
        <ele>145</ele>
        <time>2021-04-15T15:00:20Z</time>
      </trkpt>
      <trkpt lat="43.5703" lon="3.67627">
        <ele>140.1</ele>
        <time>2021-04-15T15:00:21Z</time>
      </trkpt>
      <trkpt lat="43.5703" lon="3.67627">
        <ele>145</ele>
        <time>2021-04-15T15:00:21Z</time>
      </trkpt>
      <trkpt lat="43.57028" lon="3.67629">
        <ele>140</ele>
        <time>2021-04-15T15:00:23Z</time>
      </trkpt>
      <trkpt lat="43.57028" lon="3.67629">
        <ele>145</ele>
        <time>2021-04-15T15:00:23Z</time>
      </trkpt>
      <trkpt lat="43.57027" lon="3.67631">
        <ele>140</ele>
        <time>2021-04-15T15:00:24Z</time>
      </trkpt>
      <trkpt lat="43.57027" lon="3.67631">
        <ele>145</ele>
        <time>2021-04-15T15:00:24Z</time>
      </trkpt>
      <trkpt lat="43.57027" lon="3.67632">
        <ele>140</ele>
        <time>2021-04-15T15:00:26Z</time>
      </trkpt>
      <trkpt lat="43.57027" lon="3.67632">
        <ele>144</ele>
        <time>2021-04-15T15:00:26Z</time>
      </trkpt>
      <trkpt lat="43.57026" lon="3.67633">
        <ele>139.9</ele>
        <time>2021-04-15T15:00:27Z</time>
      </trkpt>
      <trkpt lat="43.57026" lon="3.67633">
        <ele>144</ele>
        <time>2021-04-15T15:00:27Z</time>
      </trkpt>
      <trkpt lat="43.57026" lon="3.67635">
        <ele>139.9</ele>
        <time>2021-04-15T15:00:28Z</time>
      </trkpt>
      <trkpt lat="43.57026" lon="3.67635">
        <ele>144</ele>
        <time>2021-04-15T15:00:28Z</time>
      </trkpt>
      <trkpt lat="43.57025" lon="3.67637">
        <ele>139.9</ele>
        <time>2021-04-15T15:00:30Z</time>
      </trkpt>
      <trkpt lat="43.57025" lon="3.67637">
        <ele>144</ele>
        <time>2021-04-15T15:00:30Z</time>
      </trkpt>
      <trkpt lat="43.57024" lon="3.67639">
        <ele>139.9</ele>
        <time>2021-04-15T15:00:31Z</time>
      </trkpt>
      <trkpt lat="43.57024" lon="3.67639">
        <ele>144</ele>
        <time>2021-04-15T15:00:31Z</time>
      </trkpt>
      <trkpt lat="43.57024" lon="3.67641">
        <ele>139.8</ele>
        <time>2021-04-15T15:00:33Z</time>
      </trkpt>
      <trkpt lat="43.57024" lon="3.67641">
        <ele>144</ele>
        <time>2021-04-15T15:00:33Z</time>
      </trkpt>
      <trkpt lat="43.57023" lon="3.67643">
        <ele>139.7</ele>
        <time>2021-04-15T15:00:34Z</time>
      </trkpt>
      <trkpt lat="43.57023" lon="3.67643">
        <ele>144</ele>
        <time>2021-04-15T15:00:34Z</time>
      </trkpt>
      <trkpt lat="43.57022" lon="3.67645">
        <ele>139.6</ele>
        <time>2021-04-15T15:00:35Z</time>
      </trkpt>
      <trkpt lat="43.57022" lon="3.67645">
        <ele>144</ele>
        <time>2021-04-15T15:00:35Z</time>
      </trkpt>
      <trkpt lat="43.57021" lon="3.67647">
        <ele>139.5</ele>
        <time>2021-04-15T15:00:37Z</time>
      </trkpt>
      <trkpt lat="43.57021" lon="3.67647">
        <ele>144</ele>
        <time>2021-04-15T15:00:37Z</time>
      </trkpt>
      <trkpt lat="43.5702" lon="3.67649">
        <ele>139.5</ele>
        <time>2021-04-15T15:00:39Z</time>
      </trkpt>
      <trkpt lat="43.5702" lon="3.67649">
        <ele>144</ele>
        <time>2021-04-15T15:00:39Z</time>
      </trkpt>
      <trkpt lat="43.5702" lon="3.67651">
        <ele>139.4</ele>
        <time>2021-04-15T15:00:40Z</time>
      </trkpt>
      <trkpt lat="43.5702" lon="3.67651">
        <ele>144</ele>
        <time>2021-04-15T15:00:40Z</time>
      </trkpt>
      <trkpt lat="43.57018" lon="3.67652">
        <ele>139.3</ele>
        <time>2021-04-15T15:00:42Z</time>
      </trkpt>
      <trkpt lat="43.57018" lon="3.67652">
        <ele>144</ele>
        <time>2021-04-15T15:00:42Z</time>
      </trkpt>
      <trkpt lat="43.57018" lon="3.67654">
        <ele>139.3</ele>
        <time>2021-04-15T15:00:43Z</time>
      </trkpt>
      <trkpt lat="43.57018" lon="3.67654">
        <ele>144</ele>
        <time>2021-04-15T15:00:43Z</time>
      </trkpt>
      <trkpt lat="43.57017" lon="3.67655">
        <ele>139.2</ele>
        <time>2021-04-15T15:00:45Z</time>
      </trkpt>
      <trkpt lat="43.57017" lon="3.67655">
        <ele>144</ele>
        <time>2021-04-15T15:00:45Z</time>
      </trkpt>
      <trkpt lat="43.57015" lon="3.67657">
        <ele>139.2</ele>
        <time>2021-04-15T15:00:47Z</time>
      </trkpt>
      <trkpt lat="43.57015" lon="3.67657">
        <ele>144</ele>
        <time>2021-04-15T15:00:47Z</time>
      </trkpt>
      <trkpt lat="43.57014" lon="3.67658">
        <ele>139.2</ele>
        <time>2021-04-15T15:00:49Z</time>
      </trkpt>
      <trkpt lat="43.57014" lon="3.67658">
        <ele>144</ele>
        <time>2021-04-15T15:00:49Z</time>
      </trkpt>
      <trkpt lat="43.57006" lon="3.67665">
        <ele>139</ele>
        <time>2021-04-15T15:01:03Z</time>
      </trkpt>
      <trkpt lat="43.57006" lon="3.67665">
        <ele>144</ele>
        <time>2021-04-15T15:01:03Z</time>
      </trkpt>
      <trkpt lat="43.57006" lon="3.67665">
        <ele>139</ele>
        <time>2021-04-15T15:01:04Z</time>
      </trkpt>
      <trkpt lat="43.57006" lon="3.67665">
        <ele>144</ele>
        <time>2021-04-15T15:01:04Z</time>
      </trkpt>
      <trkpt lat="43.57005" lon="3.67666">
        <ele>139</ele>
        <time>2021-04-15T15:01:05Z</time>
      </trkpt>
      <trkpt lat="43.57005" lon="3.67666">
        <ele>144</ele>
        <time>2021-04-15T15:01:05Z</time>
      </trkpt>
      <trkpt lat="43.57005" lon="3.67667">
        <ele>139</ele>
        <time>2021-04-15T15:01:07Z</time>
      </trkpt>
      <trkpt lat="43.57005" lon="3.67667">
        <ele>144</ele>
        <time>2021-04-15T15:01:07Z</time>
      </trkpt>
      <trkpt lat="43.57004" lon="3.67669">
        <ele>139</ele>
        <time>2021-04-15T15:01:09Z</time>
      </trkpt>
      <trkpt lat="43.57004" lon="3.67669">
        <ele>144</ele>
        <time>2021-04-15T15:01:09Z</time>
      </trkpt>
      <trkpt lat="43.57002" lon="3.67671">
        <ele>139</ele>
        <time>2021-04-15T15:01:10Z</time>
      </trkpt>
      <trkpt lat="43.57002" lon="3.67671">
        <ele>144</ele>
        <time>2021-04-15T15:01:10Z</time>
      </trkpt>
      <trkpt lat="43.57001" lon="3.67672">
        <ele>139</ele>
        <time>2021-04-15T15:01:12Z</time>
      </trkpt>
      <trkpt lat="43.57001" lon="3.67672">
        <ele>144</ele>
        <time>2021-04-15T15:01:12Z</time>
      </trkpt>
      <trkpt lat="43.57" lon="3.67675">
        <ele>139</ele>
        <time>2021-04-15T15:01:14Z</time>
      </trkpt>
      <trkpt lat="43.57" lon="3.67675">
        <ele>144</ele>
        <time>2021-04-15T15:01:14Z</time>
      </trkpt>
      <trkpt lat="43.56999" lon="3.67676">
        <ele>138.9</ele>
        <time>2021-04-15T15:01:15Z</time>
      </trkpt>
      <trkpt lat="43.56999" lon="3.67676">
        <ele>144</ele>
        <time>2021-04-15T15:01:15Z</time>
      </trkpt>
      <trkpt lat="43.56998" lon="3.67678">
        <ele>138.8</ele>
        <time>2021-04-15T15:01:17Z</time>
      </trkpt>
      <trkpt lat="43.56998" lon="3.67678">
        <ele>142</ele>
        <time>2021-04-15T15:01:17Z</time>
      </trkpt>
      <trkpt lat="43.56997" lon="3.6768">
        <ele>138.7</ele>
        <time>2021-04-15T15:01:18Z</time>
      </trkpt>
      <trkpt lat="43.56997" lon="3.6768">
        <ele>142</ele>
        <time>2021-04-15T15:01:18Z</time>
      </trkpt>
      <trkpt lat="43.56995" lon="3.67683">
        <ele>138.7</ele>
        <time>2021-04-15T15:01:20Z</time>
      </trkpt>
      <trkpt lat="43.56995" lon="3.67683">
        <ele>142</ele>
        <time>2021-04-15T15:01:20Z</time>
      </trkpt>
      <trkpt lat="43.56995" lon="3.67685">
        <ele>138.6</ele>
        <time>2021-04-15T15:01:21Z</time>
      </trkpt>
      <trkpt lat="43.56995" lon="3.67685">
        <ele>142</ele>
        <time>2021-04-15T15:01:21Z</time>
      </trkpt>
      <trkpt lat="43.56994" lon="3.67687">
        <ele>138.5</ele>
        <time>2021-04-15T15:01:23Z</time>
      </trkpt>
      <trkpt lat="43.56994" lon="3.67687">
        <ele>142</ele>
        <time>2021-04-15T15:01:23Z</time>
      </trkpt>
      <trkpt lat="43.56992" lon="3.67689">
        <ele>138.4</ele>
        <time>2021-04-15T15:01:24Z</time>
      </trkpt>
      <trkpt lat="43.56992" lon="3.67689">
        <ele>142</ele>
        <time>2021-04-15T15:01:24Z</time>
      </trkpt>
      <trkpt lat="43.56991" lon="3.67691">
        <ele>138.4</ele>
        <time>2021-04-15T15:01:26Z</time>
      </trkpt>
      <trkpt lat="43.56991" lon="3.67691">
        <ele>142</ele>
        <time>2021-04-15T15:01:26Z</time>
      </trkpt>
      <trkpt lat="43.5699" lon="3.67693">
        <ele>138.3</ele>
        <time>2021-04-15T15:01:27Z</time>
      </trkpt>
      <trkpt lat="43.5699" lon="3.67693">
        <ele>142</ele>
        <time>2021-04-15T15:01:27Z</time>
      </trkpt>
      <trkpt lat="43.56989" lon="3.67694">
        <ele>138.2</ele>
        <time>2021-04-15T15:01:28Z</time>
      </trkpt>
      <trkpt lat="43.56989" lon="3.67694">
        <ele>142</ele>
        <time>2021-04-15T15:01:28Z</time>
      </trkpt>
      <trkpt lat="43.56988" lon="3.67695">
        <ele>138.1</ele>
        <time>2021-04-15T15:01:29Z</time>
      </trkpt>
      <trkpt lat="43.56988" lon="3.67695">
        <ele>142</ele>
        <time>2021-04-15T15:01:29Z</time>
      </trkpt>
      <trkpt lat="43.56987" lon="3.67697">
        <ele>138.1</ele>
        <time>2021-04-15T15:01:31Z</time>
      </trkpt>
      <trkpt lat="43.56987" lon="3.67697">
        <ele>142</ele>
        <time>2021-04-15T15:01:31Z</time>
      </trkpt>
      <trkpt lat="43.56987" lon="3.67698">
        <ele>138.1</ele>
        <time>2021-04-15T15:01:32Z</time>
      </trkpt>
      <trkpt lat="43.56987" lon="3.67698">
        <ele>142</ele>
        <time>2021-04-15T15:01:32Z</time>
      </trkpt>
      <trkpt lat="43.56986" lon="3.677">
        <ele>138.1</ele>
        <time>2021-04-15T15:01:33Z</time>
      </trkpt>
      <trkpt lat="43.56986" lon="3.677">
        <ele>142</ele>
        <time>2021-04-15T15:01:33Z</time>
      </trkpt>
      <trkpt lat="43.56985" lon="3.67701">
        <ele>138.1</ele>
        <time>2021-04-15T15:01:35Z</time>
      </trkpt>
      <trkpt lat="43.56985" lon="3.67701">
        <ele>142</ele>
        <time>2021-04-15T15:01:35Z</time>
      </trkpt>
      <trkpt lat="43.56984" lon="3.67703">
        <ele>138</ele>
        <time>2021-04-15T15:01:36Z</time>
      </trkpt>
      <trkpt lat="43.56984" lon="3.67703">
        <ele>142</ele>
        <time>2021-04-15T15:01:36Z</time>
      </trkpt>
      <trkpt lat="43.56983" lon="3.67705">
        <ele>138</ele>
        <time>2021-04-15T15:01:38Z</time>
      </trkpt>
      <trkpt lat="43.56983" lon="3.67705">
        <ele>142</ele>
        <time>2021-04-15T15:01:38Z</time>
      </trkpt>
      <trkpt lat="43.56982" lon="3.67707">
        <ele>138</ele>
        <time>2021-04-15T15:01:40Z</time>
      </trkpt>
      <trkpt lat="43.56982" lon="3.67707">
        <ele>142</ele>
        <time>2021-04-15T15:01:40Z</time>
      </trkpt>
      <trkpt lat="43.56981" lon="3.67709">
        <ele>138</ele>
        <time>2021-04-15T15:01:41Z</time>
      </trkpt>
      <trkpt lat="43.56981" lon="3.67709">
        <ele>142</ele>
        <time>2021-04-15T15:01:41Z</time>
      </trkpt>
      <trkpt lat="43.5698" lon="3.67712">
        <ele>138</ele>
        <time>2021-04-15T15:01:43Z</time>
      </trkpt>
      <trkpt lat="43.5698" lon="3.67712">
        <ele>142</ele>
        <time>2021-04-15T15:01:43Z</time>
      </trkpt>
      <trkpt lat="43.56979" lon="3.67713">
        <ele>138</ele>
        <time>2021-04-15T15:01:45Z</time>
      </trkpt>
      <trkpt lat="43.56979" lon="3.67713">
        <ele>142</ele>
        <time>2021-04-15T15:01:45Z</time>
      </trkpt>
      <trkpt lat="43.56978" lon="3.67715">
        <ele>138</ele>
        <time>2021-04-15T15:01:46Z</time>
      </trkpt>
      <trkpt lat="43.56978" lon="3.67715">
        <ele>142</ele>
        <time>2021-04-15T15:01:46Z</time>
      </trkpt>
      <trkpt lat="43.56976" lon="3.67717">
        <ele>138</ele>
        <time>2021-04-15T15:01:48Z</time>
      </trkpt>
      <trkpt lat="43.56976" lon="3.67717">
        <ele>142</ele>
        <time>2021-04-15T15:01:48Z</time>
      </trkpt>
      <trkpt lat="43.56975" lon="3.67718">
        <ele>137.9</ele>
        <time>2021-04-15T15:01:49Z</time>
      </trkpt>
      <trkpt lat="43.56975" lon="3.67718">
        <ele>142</ele>
        <time>2021-04-15T15:01:49Z</time>
      </trkpt>
      <trkpt lat="43.56973" lon="3.67719">
        <ele>137.9</ele>
        <time>2021-04-15T15:01:50Z</time>
      </trkpt>
      <trkpt lat="43.56973" lon="3.67719">
        <ele>142</ele>
        <time>2021-04-15T15:01:50Z</time>
      </trkpt>
      <trkpt lat="43.56972" lon="3.6772">
        <ele>137.9</ele>
        <time>2021-04-15T15:01:52Z</time>
      </trkpt>
      <trkpt lat="43.56972" lon="3.6772">
        <ele>142</ele>
        <time>2021-04-15T15:01:52Z</time>
      </trkpt>
      <trkpt lat="43.5697" lon="3.67722">
        <ele>138</ele>
        <time>2021-04-15T15:01:53Z</time>
      </trkpt>
      <trkpt lat="43.5697" lon="3.67722">
        <ele>142</ele>
        <time>2021-04-15T15:01:53Z</time>
      </trkpt>
      <trkpt lat="43.56968" lon="3.67723">
        <ele>138</ele>
        <time>2021-04-15T15:01:55Z</time>
      </trkpt>
      <trkpt lat="43.56968" lon="3.67723">
        <ele>142</ele>
        <time>2021-04-15T15:01:55Z</time>
      </trkpt>
      <trkpt lat="43.56967" lon="3.67725">
        <ele>138.1</ele>
        <time>2021-04-15T15:01:56Z</time>
      </trkpt>
      <trkpt lat="43.56967" lon="3.67725">
        <ele>142</ele>
        <time>2021-04-15T15:01:56Z</time>
      </trkpt>
      <trkpt lat="43.56965" lon="3.67726">
        <ele>138.1</ele>
        <time>2021-04-15T15:01:58Z</time>
      </trkpt>
      <trkpt lat="43.56965" lon="3.67726">
        <ele>142</ele>
        <time>2021-04-15T15:01:58Z</time>
      </trkpt>
      <trkpt lat="43.56963" lon="3.67727">
        <ele>138.2</ele>
        <time>2021-04-15T15:02:00Z</time>
      </trkpt>
      <trkpt lat="43.56963" lon="3.67727">
        <ele>142</ele>
        <time>2021-04-15T15:02:00Z</time>
      </trkpt>
      <trkpt lat="43.56961" lon="3.67729">
        <ele>138.2</ele>
        <time>2021-04-15T15:02:02Z</time>
      </trkpt>
      <trkpt lat="43.56961" lon="3.67729">
        <ele>142</ele>
        <time>2021-04-15T15:02:02Z</time>
      </trkpt>
      <trkpt lat="43.56959" lon="3.67731">
        <ele>138.3</ele>
        <time>2021-04-15T15:02:03Z</time>
      </trkpt>
      <trkpt lat="43.56959" lon="3.67731">
        <ele>142</ele>
        <time>2021-04-15T15:02:03Z</time>
      </trkpt>
      <trkpt lat="43.56957" lon="3.67732">
        <ele>138.4</ele>
        <time>2021-04-15T15:02:04Z</time>
      </trkpt>
      <trkpt lat="43.56957" lon="3.67732">
        <ele>142</ele>
        <time>2021-04-15T15:02:04Z</time>
      </trkpt>
      <trkpt lat="43.56956" lon="3.67733">
        <ele>138.4</ele>
        <time>2021-04-15T15:02:05Z</time>
      </trkpt>
      <trkpt lat="43.56956" lon="3.67733">
        <ele>142</ele>
        <time>2021-04-15T15:02:05Z</time>
      </trkpt>
      <trkpt lat="43.56954" lon="3.67735">
        <ele>138.5</ele>
        <time>2021-04-15T15:02:07Z</time>
      </trkpt>
      <trkpt lat="43.56954" lon="3.67735">
        <ele>143</ele>
        <time>2021-04-15T15:02:07Z</time>
      </trkpt>
      <trkpt lat="43.56953" lon="3.67737">
        <ele>138.5</ele>
        <time>2021-04-15T15:02:09Z</time>
      </trkpt>
      <trkpt lat="43.56953" lon="3.67737">
        <ele>143</ele>
        <time>2021-04-15T15:02:09Z</time>
      </trkpt>
      <trkpt lat="43.56951" lon="3.67739">
        <ele>138.6</ele>
        <time>2021-04-15T15:02:10Z</time>
      </trkpt>
      <trkpt lat="43.56951" lon="3.67739">
        <ele>143</ele>
        <time>2021-04-15T15:02:10Z</time>
      </trkpt>
      <trkpt lat="43.5695" lon="3.67742">
        <ele>138.7</ele>
        <time>2021-04-15T15:02:12Z</time>
      </trkpt>
      <trkpt lat="43.5695" lon="3.67742">
        <ele>143</ele>
        <time>2021-04-15T15:02:12Z</time>
      </trkpt>
      <trkpt lat="43.56948" lon="3.67744">
        <ele>138.8</ele>
        <time>2021-04-15T15:02:14Z</time>
      </trkpt>
      <trkpt lat="43.56948" lon="3.67744">
        <ele>143</ele>
        <time>2021-04-15T15:02:14Z</time>
      </trkpt>
      <trkpt lat="43.56947" lon="3.67746">
        <ele>138.9</ele>
        <time>2021-04-15T15:02:16Z</time>
      </trkpt>
      <trkpt lat="43.56947" lon="3.67746">
        <ele>143</ele>
        <time>2021-04-15T15:02:16Z</time>
      </trkpt>
      <trkpt lat="43.56945" lon="3.67749">
        <ele>139</ele>
        <time>2021-04-15T15:02:18Z</time>
      </trkpt>
      <trkpt lat="43.56945" lon="3.67749">
        <ele>143</ele>
        <time>2021-04-15T15:02:18Z</time>
      </trkpt>
      <trkpt lat="43.56943" lon="3.67752">
        <ele>139.1</ele>
        <time>2021-04-15T15:02:20Z</time>
      </trkpt>
      <trkpt lat="43.56943" lon="3.67752">
        <ele>143</ele>
        <time>2021-04-15T15:02:20Z</time>
      </trkpt>
      <trkpt lat="43.56941" lon="3.67754">
        <ele>139.3</ele>
        <time>2021-04-15T15:02:22Z</time>
      </trkpt>
      <trkpt lat="43.56941" lon="3.67754">
        <ele>143</ele>
        <time>2021-04-15T15:02:22Z</time>
      </trkpt>
      <trkpt lat="43.56939" lon="3.67756">
        <ele>139.4</ele>
        <time>2021-04-15T15:02:23Z</time>
      </trkpt>
      <trkpt lat="43.56939" lon="3.67756">
        <ele>143</ele>
        <time>2021-04-15T15:02:23Z</time>
      </trkpt>
      <trkpt lat="43.56938" lon="3.67757">
        <ele>139.5</ele>
        <time>2021-04-15T15:02:24Z</time>
      </trkpt>
      <trkpt lat="43.56938" lon="3.67757">
        <ele>143</ele>
        <time>2021-04-15T15:02:24Z</time>
      </trkpt>
      <trkpt lat="43.56937" lon="3.67758">
        <ele>139.6</ele>
        <time>2021-04-15T15:02:26Z</time>
      </trkpt>
      <trkpt lat="43.56937" lon="3.67758">
        <ele>143</ele>
        <time>2021-04-15T15:02:26Z</time>
      </trkpt>
      <trkpt lat="43.56937" lon="3.67759">
        <ele>139.7</ele>
        <time>2021-04-15T15:02:28Z</time>
      </trkpt>
      <trkpt lat="43.56937" lon="3.67759">
        <ele>143</ele>
        <time>2021-04-15T15:02:28Z</time>
      </trkpt>
      <trkpt lat="43.56936" lon="3.67761">
        <ele>139.8</ele>
        <time>2021-04-15T15:02:29Z</time>
      </trkpt>
      <trkpt lat="43.56936" lon="3.67761">
        <ele>144</ele>
        <time>2021-04-15T15:02:29Z</time>
      </trkpt>
      <trkpt lat="43.56936" lon="3.67762">
        <ele>139.9</ele>
        <time>2021-04-15T15:02:31Z</time>
      </trkpt>
      <trkpt lat="43.56936" lon="3.67762">
        <ele>144</ele>
        <time>2021-04-15T15:02:31Z</time>
      </trkpt>
      <trkpt lat="43.56937" lon="3.67765">
        <ele>140.1</ele>
        <time>2021-04-15T15:02:33Z</time>
      </trkpt>
      <trkpt lat="43.56937" lon="3.67765">
        <ele>144</ele>
        <time>2021-04-15T15:02:33Z</time>
      </trkpt>
      <trkpt lat="43.56937" lon="3.67767">
        <ele>140.2</ele>
        <time>2021-04-15T15:02:35Z</time>
      </trkpt>
      <trkpt lat="43.56937" lon="3.67767">
        <ele>144</ele>
        <time>2021-04-15T15:02:35Z</time>
      </trkpt>
      <trkpt lat="43.56937" lon="3.67768">
        <ele>140.3</ele>
        <time>2021-04-15T15:02:36Z</time>
      </trkpt>
      <trkpt lat="43.56937" lon="3.67768">
        <ele>144</ele>
        <time>2021-04-15T15:02:36Z</time>
      </trkpt>
      <trkpt lat="43.56939" lon="3.67779">
        <ele>141</ele>
        <time>2021-04-15T15:02:50Z</time>
      </trkpt>
      <trkpt lat="43.56939" lon="3.67779">
        <ele>144</ele>
        <time>2021-04-15T15:02:50Z</time>
      </trkpt>
      <trkpt lat="43.5694" lon="3.67779">
        <ele>141.1</ele>
        <time>2021-04-15T15:02:52Z</time>
      </trkpt>
      <trkpt lat="43.5694" lon="3.67779">
        <ele>144</ele>
        <time>2021-04-15T15:02:52Z</time>
      </trkpt>
      <trkpt lat="43.5694" lon="3.6778">
        <ele>141.1</ele>
        <time>2021-04-15T15:02:53Z</time>
      </trkpt>
      <trkpt lat="43.5694" lon="3.6778">
        <ele>144</ele>
        <time>2021-04-15T15:02:53Z</time>
      </trkpt>
      <trkpt lat="43.56941" lon="3.67782">
        <ele>141.2</ele>
        <time>2021-04-15T15:02:55Z</time>
      </trkpt>
      <trkpt lat="43.56941" lon="3.67782">
        <ele>144</ele>
        <time>2021-04-15T15:02:55Z</time>
      </trkpt>
      <trkpt lat="43.56941" lon="3.67783">
        <ele>141.2</ele>
        <time>2021-04-15T15:02:56Z</time>
      </trkpt>
      <trkpt lat="43.56941" lon="3.67783">
        <ele>144</ele>
        <time>2021-04-15T15:02:56Z</time>
      </trkpt>
      <trkpt lat="43.56942" lon="3.67784">
        <ele>141.2</ele>
        <time>2021-04-15T15:02:58Z</time>
      </trkpt>
      <trkpt lat="43.56942" lon="3.67784">
        <ele>144</ele>
        <time>2021-04-15T15:02:58Z</time>
      </trkpt>
      <trkpt lat="43.56944" lon="3.67785">
        <ele>141.3</ele>
        <time>2021-04-15T15:02:59Z</time>
      </trkpt>
      <trkpt lat="43.56944" lon="3.67785">
        <ele>145</ele>
        <time>2021-04-15T15:02:59Z</time>
      </trkpt>
      <trkpt lat="43.56945" lon="3.67786">
        <ele>141.3</ele>
        <time>2021-04-15T15:03:00Z</time>
      </trkpt>
      <trkpt lat="43.56945" lon="3.67786">
        <ele>145</ele>
        <time>2021-04-15T15:03:00Z</time>
      </trkpt>
      <trkpt lat="43.56946" lon="3.67787">
        <ele>141.3</ele>
        <time>2021-04-15T15:03:02Z</time>
      </trkpt>
      <trkpt lat="43.56946" lon="3.67787">
        <ele>145</ele>
        <time>2021-04-15T15:03:02Z</time>
      </trkpt>
      <trkpt lat="43.56947" lon="3.67789">
        <ele>141.3</ele>
        <time>2021-04-15T15:03:03Z</time>
      </trkpt>
      <trkpt lat="43.56947" lon="3.67789">
        <ele>145</ele>
        <time>2021-04-15T15:03:03Z</time>
      </trkpt>
      <trkpt lat="43.56948" lon="3.6779">
        <ele>141.3</ele>
        <time>2021-04-15T15:03:05Z</time>
      </trkpt>
      <trkpt lat="43.56948" lon="3.6779">
        <ele>145</ele>
        <time>2021-04-15T15:03:05Z</time>
      </trkpt>
      <trkpt lat="43.56949" lon="3.67792">
        <ele>141.4</ele>
        <time>2021-04-15T15:03:07Z</time>
      </trkpt>
      <trkpt lat="43.56949" lon="3.67792">
        <ele>145</ele>
        <time>2021-04-15T15:03:07Z</time>
      </trkpt>
      <trkpt lat="43.5695" lon="3.67794">
        <ele>141.4</ele>
        <time>2021-04-15T15:03:08Z</time>
      </trkpt>
      <trkpt lat="43.5695" lon="3.67794">
        <ele>145</ele>
        <time>2021-04-15T15:03:08Z</time>
      </trkpt>
      <trkpt lat="43.56951" lon="3.67796">
        <ele>141.4</ele>
        <time>2021-04-15T15:03:10Z</time>
      </trkpt>
      <trkpt lat="43.56951" lon="3.67796">
        <ele>145</ele>
        <time>2021-04-15T15:03:10Z</time>
      </trkpt>
      <trkpt lat="43.56952" lon="3.67798">
        <ele>141.5</ele>
        <time>2021-04-15T15:03:12Z</time>
      </trkpt>
      <trkpt lat="43.56952" lon="3.67798">
        <ele>145</ele>
        <time>2021-04-15T15:03:12Z</time>
      </trkpt>
      <trkpt lat="43.56953" lon="3.678">
        <ele>141.5</ele>
        <time>2021-04-15T15:03:13Z</time>
      </trkpt>
      <trkpt lat="43.56953" lon="3.678">
        <ele>145</ele>
        <time>2021-04-15T15:03:13Z</time>
      </trkpt>
      <trkpt lat="43.56954" lon="3.67802">
        <ele>141.5</ele>
        <time>2021-04-15T15:03:15Z</time>
      </trkpt>
      <trkpt lat="43.56954" lon="3.67802">
        <ele>145</ele>
        <time>2021-04-15T15:03:15Z</time>
      </trkpt>
      <trkpt lat="43.56955" lon="3.67804">
        <ele>141.6</ele>
        <time>2021-04-15T15:03:16Z</time>
      </trkpt>
      <trkpt lat="43.56955" lon="3.67804">
        <ele>145</ele>
        <time>2021-04-15T15:03:16Z</time>
      </trkpt>
      <trkpt lat="43.56956" lon="3.67806">
        <ele>141.6</ele>
        <time>2021-04-15T15:03:18Z</time>
      </trkpt>
      <trkpt lat="43.56956" lon="3.67806">
        <ele>145</ele>
        <time>2021-04-15T15:03:18Z</time>
      </trkpt>
      <trkpt lat="43.56957" lon="3.67808">
        <ele>141.6</ele>
        <time>2021-04-15T15:03:19Z</time>
      </trkpt>
      <trkpt lat="43.56957" lon="3.67808">
        <ele>145</ele>
        <time>2021-04-15T15:03:19Z</time>
      </trkpt>
      <trkpt lat="43.56958" lon="3.6781">
        <ele>141.7</ele>
        <time>2021-04-15T15:03:21Z</time>
      </trkpt>
      <trkpt lat="43.56958" lon="3.6781">
        <ele>145</ele>
        <time>2021-04-15T15:03:21Z</time>
      </trkpt>
      <trkpt lat="43.56959" lon="3.67813">
        <ele>141.8</ele>
        <time>2021-04-15T15:03:23Z</time>
      </trkpt>
      <trkpt lat="43.56959" lon="3.67813">
        <ele>145</ele>
        <time>2021-04-15T15:03:23Z</time>
      </trkpt>
      <trkpt lat="43.5696" lon="3.67815">
        <ele>141.8</ele>
        <time>2021-04-15T15:03:24Z</time>
      </trkpt>
      <trkpt lat="43.5696" lon="3.67815">
        <ele>145</ele>
        <time>2021-04-15T15:03:24Z</time>
      </trkpt>
      <trkpt lat="43.5696" lon="3.67817">
        <ele>141.9</ele>
        <time>2021-04-15T15:03:25Z</time>
      </trkpt>
      <trkpt lat="43.5696" lon="3.67817">
        <ele>145</ele>
        <time>2021-04-15T15:03:25Z</time>
      </trkpt>
      <trkpt lat="43.56961" lon="3.6782">
        <ele>141.9</ele>
        <time>2021-04-15T15:03:27Z</time>
      </trkpt>
      <trkpt lat="43.56961" lon="3.6782">
        <ele>145</ele>
        <time>2021-04-15T15:03:27Z</time>
      </trkpt>
      <trkpt lat="43.56961" lon="3.67822">
        <ele>142</ele>
        <time>2021-04-15T15:03:29Z</time>
      </trkpt>
      <trkpt lat="43.56961" lon="3.67822">
        <ele>145</ele>
        <time>2021-04-15T15:03:29Z</time>
      </trkpt>
      <trkpt lat="43.56962" lon="3.67825">
        <ele>142.1</ele>
        <time>2021-04-15T15:03:31Z</time>
      </trkpt>
      <trkpt lat="43.56962" lon="3.67825">
        <ele>145</ele>
        <time>2021-04-15T15:03:31Z</time>
      </trkpt>
      <trkpt lat="43.56962" lon="3.67828">
        <ele>142.2</ele>
        <time>2021-04-15T15:03:33Z</time>
      </trkpt>
      <trkpt lat="43.56962" lon="3.67828">
        <ele>145</ele>
        <time>2021-04-15T15:03:33Z</time>
      </trkpt>
      <trkpt lat="43.56963" lon="3.6783">
        <ele>142.2</ele>
        <time>2021-04-15T15:03:34Z</time>
      </trkpt>
      <trkpt lat="43.56963" lon="3.6783">
        <ele>145</ele>
        <time>2021-04-15T15:03:34Z</time>
      </trkpt>
      <trkpt lat="43.56963" lon="3.67833">
        <ele>142.3</ele>
        <time>2021-04-15T15:03:35Z</time>
      </trkpt>
      <trkpt lat="43.56963" lon="3.67833">
        <ele>145</ele>
        <time>2021-04-15T15:03:35Z</time>
      </trkpt>
      <trkpt lat="43.56963" lon="3.67836">
        <ele>142.3</ele>
        <time>2021-04-15T15:03:37Z</time>
      </trkpt>
      <trkpt lat="43.56963" lon="3.67836">
        <ele>145</ele>
        <time>2021-04-15T15:03:37Z</time>
      </trkpt>
      <trkpt lat="43.56963" lon="3.67839">
        <ele>142.3</ele>
        <time>2021-04-15T15:03:38Z</time>
      </trkpt>
      <trkpt lat="43.56963" lon="3.67839">
        <ele>145</ele>
        <time>2021-04-15T15:03:38Z</time>
      </trkpt>
      <trkpt lat="43.56962" lon="3.67842">
        <ele>142.4</ele>
        <time>2021-04-15T15:03:40Z</time>
      </trkpt>
      <trkpt lat="43.56962" lon="3.67842">
        <ele>147</ele>
        <time>2021-04-15T15:03:40Z</time>
      </trkpt>
      <trkpt lat="43.56962" lon="3.67845">
        <ele>142.4</ele>
        <time>2021-04-15T15:03:42Z</time>
      </trkpt>
      <trkpt lat="43.56962" lon="3.67845">
        <ele>147</ele>
        <time>2021-04-15T15:03:42Z</time>
      </trkpt>
      <trkpt lat="43.56961" lon="3.67847">
        <ele>142.4</ele>
        <time>2021-04-15T15:03:44Z</time>
      </trkpt>
      <trkpt lat="43.56961" lon="3.67847">
        <ele>147</ele>
        <time>2021-04-15T15:03:44Z</time>
      </trkpt>
      <trkpt lat="43.56961" lon="3.67849">
        <ele>142.4</ele>
        <time>2021-04-15T15:03:45Z</time>
      </trkpt>
      <trkpt lat="43.56961" lon="3.67849">
        <ele>147</ele>
        <time>2021-04-15T15:03:45Z</time>
      </trkpt>
      <trkpt lat="43.5696" lon="3.67851">
        <ele>142.4</ele>
        <time>2021-04-15T15:03:47Z</time>
      </trkpt>
      <trkpt lat="43.5696" lon="3.67851">
        <ele>147</ele>
        <time>2021-04-15T15:03:47Z</time>
      </trkpt>
      <trkpt lat="43.56959" lon="3.67853">
        <ele>142.5</ele>
        <time>2021-04-15T15:03:48Z</time>
      </trkpt>
      <trkpt lat="43.56959" lon="3.67853">
        <ele>147</ele>
        <time>2021-04-15T15:03:48Z</time>
      </trkpt>
      <trkpt lat="43.56959" lon="3.67855">
        <ele>142.5</ele>
        <time>2021-04-15T15:03:50Z</time>
      </trkpt>
      <trkpt lat="43.56959" lon="3.67855">
        <ele>147</ele>
        <time>2021-04-15T15:03:50Z</time>
      </trkpt>
      <trkpt lat="43.56958" lon="3.67857">
        <ele>142.5</ele>
        <time>2021-04-15T15:03:52Z</time>
      </trkpt>
      <trkpt lat="43.56958" lon="3.67857">
        <ele>147</ele>
        <time>2021-04-15T15:03:52Z</time>
      </trkpt>
      <trkpt lat="43.56957" lon="3.6786">
        <ele>142.6</ele>
        <time>2021-04-15T15:03:54Z</time>
      </trkpt>
      <trkpt lat="43.56957" lon="3.6786">
        <ele>147</ele>
        <time>2021-04-15T15:03:54Z</time>
      </trkpt>
      <trkpt lat="43.56956" lon="3.67862">
        <ele>142.6</ele>
        <time>2021-04-15T15:03:55Z</time>
      </trkpt>
      <trkpt lat="43.56956" lon="3.67862">
        <ele>147</ele>
        <time>2021-04-15T15:03:55Z</time>
      </trkpt>
      <trkpt lat="43.56954" lon="3.67864">
        <ele>142.7</ele>
        <time>2021-04-15T15:03:57Z</time>
      </trkpt>
      <trkpt lat="43.56954" lon="3.67864">
        <ele>147</ele>
        <time>2021-04-15T15:03:57Z</time>
      </trkpt>
      <trkpt lat="43.56953" lon="3.67866">
        <ele>142.7</ele>
        <time>2021-04-15T15:03:59Z</time>
      </trkpt>
      <trkpt lat="43.56953" lon="3.67866">
        <ele>147</ele>
        <time>2021-04-15T15:03:59Z</time>
      </trkpt>
      <trkpt lat="43.56952" lon="3.67868">
        <ele>142.7</ele>
        <time>2021-04-15T15:04:00Z</time>
      </trkpt>
      <trkpt lat="43.56952" lon="3.67868">
        <ele>147</ele>
        <time>2021-04-15T15:04:00Z</time>
      </trkpt>
      <trkpt lat="43.56951" lon="3.6787">
        <ele>142.8</ele>
        <time>2021-04-15T15:04:02Z</time>
      </trkpt>
      <trkpt lat="43.56951" lon="3.6787">
        <ele>147</ele>
        <time>2021-04-15T15:04:02Z</time>
      </trkpt>
      <trkpt lat="43.5695" lon="3.67871">
        <ele>142.8</ele>
        <time>2021-04-15T15:04:03Z</time>
      </trkpt>
      <trkpt lat="43.5695" lon="3.67871">
        <ele>147</ele>
        <time>2021-04-15T15:04:03Z</time>
      </trkpt>
      <trkpt lat="43.56949" lon="3.67873">
        <ele>142.8</ele>
        <time>2021-04-15T15:04:05Z</time>
      </trkpt>
      <trkpt lat="43.56949" lon="3.67873">
        <ele>147</ele>
        <time>2021-04-15T15:04:05Z</time>
      </trkpt>
      <trkpt lat="43.56948" lon="3.67875">
        <ele>142.9</ele>
        <time>2021-04-15T15:04:06Z</time>
      </trkpt>
      <trkpt lat="43.56948" lon="3.67875">
        <ele>148</ele>
        <time>2021-04-15T15:04:06Z</time>
      </trkpt>
      <trkpt lat="43.56947" lon="3.67877">
        <ele>142.9</ele>
        <time>2021-04-15T15:04:08Z</time>
      </trkpt>
      <trkpt lat="43.56947" lon="3.67877">
        <ele>148</ele>
        <time>2021-04-15T15:04:08Z</time>
      </trkpt>
      <trkpt lat="43.56945" lon="3.67879">
        <ele>143</ele>
        <time>2021-04-15T15:04:11Z</time>
      </trkpt>
      <trkpt lat="43.56945" lon="3.67879">
        <ele>148</ele>
        <time>2021-04-15T15:04:11Z</time>
      </trkpt>
      <trkpt lat="43.56943" lon="3.67882">
        <ele>143.1</ele>
        <time>2021-04-15T15:04:12Z</time>
      </trkpt>
      <trkpt lat="43.56943" lon="3.67882">
        <ele>148</ele>
        <time>2021-04-15T15:04:12Z</time>
      </trkpt>
      <trkpt lat="43.56941" lon="3.67884">
        <ele>143.1</ele>
        <time>2021-04-15T15:04:13Z</time>
      </trkpt>
      <trkpt lat="43.56941" lon="3.67884">
        <ele>148</ele>
        <time>2021-04-15T15:04:13Z</time>
      </trkpt>
      <trkpt lat="43.56939" lon="3.67887">
        <ele>143.2</ele>
        <time>2021-04-15T15:04:15Z</time>
      </trkpt>
      <trkpt lat="43.56939" lon="3.67887">
        <ele>148</ele>
        <time>2021-04-15T15:04:15Z</time>
      </trkpt>
      <trkpt lat="43.56936" lon="3.67889">
        <ele>143.3</ele>
        <time>2021-04-15T15:04:16Z</time>
      </trkpt>
      <trkpt lat="43.56936" lon="3.67889">
        <ele>148</ele>
        <time>2021-04-15T15:04:16Z</time>
      </trkpt>
      <trkpt lat="43.56935" lon="3.6789">
        <ele>143.4</ele>
        <time>2021-04-15T15:04:17Z</time>
      </trkpt>
      <trkpt lat="43.56935" lon="3.6789">
        <ele>148</ele>
        <time>2021-04-15T15:04:17Z</time>
      </trkpt>
      <trkpt lat="43.56933" lon="3.67891">
        <ele>143.4</ele>
        <time>2021-04-15T15:04:19Z</time>
      </trkpt>
      <trkpt lat="43.56933" lon="3.67891">
        <ele>148</ele>
        <time>2021-04-15T15:04:19Z</time>
      </trkpt>
      <trkpt lat="43.56932" lon="3.67892">
        <ele>143.5</ele>
        <time>2021-04-15T15:04:20Z</time>
      </trkpt>
      <trkpt lat="43.56932" lon="3.67892">
        <ele>148</ele>
        <time>2021-04-15T15:04:20Z</time>
      </trkpt>
      <trkpt lat="43.5693" lon="3.67893">
        <ele>143.5</ele>
        <time>2021-04-15T15:04:21Z</time>
      </trkpt>
      <trkpt lat="43.5693" lon="3.67893">
        <ele>148</ele>
        <time>2021-04-15T15:04:21Z</time>
      </trkpt>
      <trkpt lat="43.56929" lon="3.67895">
        <ele>143.6</ele>
        <time>2021-04-15T15:04:23Z</time>
      </trkpt>
      <trkpt lat="43.56929" lon="3.67895">
        <ele>148</ele>
        <time>2021-04-15T15:04:23Z</time>
      </trkpt>
      <trkpt lat="43.56927" lon="3.67895">
        <ele>143.6</ele>
        <time>2021-04-15T15:04:25Z</time>
      </trkpt>
      <trkpt lat="43.56927" lon="3.67895">
        <ele>148</ele>
        <time>2021-04-15T15:04:25Z</time>
      </trkpt>
      <trkpt lat="43.56925" lon="3.67896">
        <ele>143.7</ele>
        <time>2021-04-15T15:04:26Z</time>
      </trkpt>
      <trkpt lat="43.56925" lon="3.67896">
        <ele>148</ele>
        <time>2021-04-15T15:04:26Z</time>
      </trkpt>
      <trkpt lat="43.56924" lon="3.67897">
        <ele>143.7</ele>
        <time>2021-04-15T15:04:28Z</time>
      </trkpt>
      <trkpt lat="43.56924" lon="3.67897">
        <ele>148</ele>
        <time>2021-04-15T15:04:28Z</time>
      </trkpt>
      <trkpt lat="43.56919" lon="3.67903">
        <ele>143.9</ele>
        <time>2021-04-15T15:04:49Z</time>
      </trkpt>
      <trkpt lat="43.56919" lon="3.67903">
        <ele>148</ele>
        <time>2021-04-15T15:04:49Z</time>
      </trkpt>
      <trkpt lat="43.56919" lon="3.67904">
        <ele>143.9</ele>
        <time>2021-04-15T15:04:51Z</time>
      </trkpt>
      <trkpt lat="43.56919" lon="3.67904">
        <ele>148</ele>
        <time>2021-04-15T15:04:51Z</time>
      </trkpt>
      <trkpt lat="43.56917" lon="3.67905">
        <ele>144</ele>
        <time>2021-04-15T15:04:53Z</time>
      </trkpt>
      <trkpt lat="43.56917" lon="3.67905">
        <ele>148</ele>
        <time>2021-04-15T15:04:53Z</time>
      </trkpt>
      <trkpt lat="43.56916" lon="3.67907">
        <ele>144</ele>
        <time>2021-04-15T15:04:55Z</time>
      </trkpt>
      <trkpt lat="43.56916" lon="3.67907">
        <ele>148</ele>
        <time>2021-04-15T15:04:55Z</time>
      </trkpt>
      <trkpt lat="43.56915" lon="3.6791">
        <ele>144</ele>
        <time>2021-04-15T15:04:57Z</time>
      </trkpt>
      <trkpt lat="43.56915" lon="3.6791">
        <ele>148</ele>
        <time>2021-04-15T15:04:57Z</time>
      </trkpt>
      <trkpt lat="43.56914" lon="3.67912">
        <ele>144</ele>
        <time>2021-04-15T15:04:58Z</time>
      </trkpt>
      <trkpt lat="43.56914" lon="3.67912">
        <ele>148</ele>
        <time>2021-04-15T15:04:58Z</time>
      </trkpt>
      <trkpt lat="43.56913" lon="3.67914">
        <ele>144</ele>
        <time>2021-04-15T15:04:59Z</time>
      </trkpt>
      <trkpt lat="43.56913" lon="3.67914">
        <ele>148</ele>
        <time>2021-04-15T15:04:59Z</time>
      </trkpt>
      <trkpt lat="43.56912" lon="3.67915">
        <ele>144</ele>
        <time>2021-04-15T15:05:01Z</time>
      </trkpt>
      <trkpt lat="43.56912" lon="3.67915">
        <ele>148</ele>
        <time>2021-04-15T15:05:01Z</time>
      </trkpt>
      <trkpt lat="43.56911" lon="3.67917">
        <ele>144</ele>
        <time>2021-04-15T15:05:02Z</time>
      </trkpt>
      <trkpt lat="43.56911" lon="3.67917">
        <ele>148</ele>
        <time>2021-04-15T15:05:02Z</time>
      </trkpt>
      <trkpt lat="43.56911" lon="3.67918">
        <ele>144</ele>
        <time>2021-04-15T15:05:04Z</time>
      </trkpt>
      <trkpt lat="43.56911" lon="3.67918">
        <ele>148</ele>
        <time>2021-04-15T15:05:04Z</time>
      </trkpt>
      <trkpt lat="43.5691" lon="3.6792">
        <ele>143.9</ele>
        <time>2021-04-15T15:05:06Z</time>
      </trkpt>
      <trkpt lat="43.5691" lon="3.6792">
        <ele>148</ele>
        <time>2021-04-15T15:05:06Z</time>
      </trkpt>
      <trkpt lat="43.56909" lon="3.67923">
        <ele>143.8</ele>
        <time>2021-04-15T15:05:08Z</time>
      </trkpt>
      <trkpt lat="43.56909" lon="3.67923">
        <ele>148</ele>
        <time>2021-04-15T15:05:08Z</time>
      </trkpt>
      <trkpt lat="43.56908" lon="3.67925">
        <ele>143.8</ele>
        <time>2021-04-15T15:05:10Z</time>
      </trkpt>
      <trkpt lat="43.56908" lon="3.67925">
        <ele>148</ele>
        <time>2021-04-15T15:05:10Z</time>
      </trkpt>
      <trkpt lat="43.56907" lon="3.67927">
        <ele>143.8</ele>
        <time>2021-04-15T15:05:11Z</time>
      </trkpt>
      <trkpt lat="43.56907" lon="3.67927">
        <ele>148</ele>
        <time>2021-04-15T15:05:11Z</time>
      </trkpt>
      <trkpt lat="43.56906" lon="3.67929">
        <ele>143.7</ele>
        <time>2021-04-15T15:05:13Z</time>
      </trkpt>
      <trkpt lat="43.56906" lon="3.67929">
        <ele>148</ele>
        <time>2021-04-15T15:05:13Z</time>
      </trkpt>
      <trkpt lat="43.56905" lon="3.67931">
        <ele>143.7</ele>
        <time>2021-04-15T15:05:15Z</time>
      </trkpt>
      <trkpt lat="43.56905" lon="3.67931">
        <ele>148</ele>
        <time>2021-04-15T15:05:15Z</time>
      </trkpt>
      <trkpt lat="43.56904" lon="3.67934">
        <ele>143.7</ele>
        <time>2021-04-15T15:05:17Z</time>
      </trkpt>
      <trkpt lat="43.56904" lon="3.67934">
        <ele>148</ele>
        <time>2021-04-15T15:05:17Z</time>
      </trkpt>
      <trkpt lat="43.56903" lon="3.67936">
        <ele>143.6</ele>
        <time>2021-04-15T15:05:18Z</time>
      </trkpt>
      <trkpt lat="43.56903" lon="3.67936">
        <ele>148</ele>
        <time>2021-04-15T15:05:18Z</time>
      </trkpt>
      <trkpt lat="43.56902" lon="3.67939">
        <ele>143.6</ele>
        <time>2021-04-15T15:05:20Z</time>
      </trkpt>
      <trkpt lat="43.56902" lon="3.67939">
        <ele>148</ele>
        <time>2021-04-15T15:05:20Z</time>
      </trkpt>
      <trkpt lat="43.56901" lon="3.67941">
        <ele>143.6</ele>
        <time>2021-04-15T15:05:21Z</time>
      </trkpt>
      <trkpt lat="43.56901" lon="3.67941">
        <ele>148</ele>
        <time>2021-04-15T15:05:21Z</time>
      </trkpt>
      <trkpt lat="43.569" lon="3.67943">
        <ele>143.6</ele>
        <time>2021-04-15T15:05:23Z</time>
      </trkpt>
      <trkpt lat="43.569" lon="3.67943">
        <ele>148</ele>
        <time>2021-04-15T15:05:23Z</time>
      </trkpt>
      <trkpt lat="43.56899" lon="3.67946">
        <ele>143.6</ele>
        <time>2021-04-15T15:05:24Z</time>
      </trkpt>
      <trkpt lat="43.56899" lon="3.67946">
        <ele>148</ele>
        <time>2021-04-15T15:05:24Z</time>
      </trkpt>
      <trkpt lat="43.56898" lon="3.67948">
        <ele>143.6</ele>
        <time>2021-04-15T15:05:26Z</time>
      </trkpt>
      <trkpt lat="43.56898" lon="3.67948">
        <ele>148</ele>
        <time>2021-04-15T15:05:26Z</time>
      </trkpt>
      <trkpt lat="43.56897" lon="3.67951">
        <ele>143.6</ele>
        <time>2021-04-15T15:05:28Z</time>
      </trkpt>
      <trkpt lat="43.56897" lon="3.67951">
        <ele>148</ele>
        <time>2021-04-15T15:05:28Z</time>
      </trkpt>
      <trkpt lat="43.56896" lon="3.67953">
        <ele>143.5</ele>
        <time>2021-04-15T15:05:30Z</time>
      </trkpt>
      <trkpt lat="43.56896" lon="3.67953">
        <ele>148</ele>
        <time>2021-04-15T15:05:30Z</time>
      </trkpt>
      <trkpt lat="43.56895" lon="3.67956">
        <ele>143.5</ele>
        <time>2021-04-15T15:05:32Z</time>
      </trkpt>
      <trkpt lat="43.56895" lon="3.67956">
        <ele>148</ele>
        <time>2021-04-15T15:05:32Z</time>
      </trkpt>
      <trkpt lat="43.56894" lon="3.67958">
        <ele>143.4</ele>
        <time>2021-04-15T15:05:33Z</time>
      </trkpt>
      <trkpt lat="43.56894" lon="3.67958">
        <ele>148</ele>
        <time>2021-04-15T15:05:33Z</time>
      </trkpt>
      <trkpt lat="43.56893" lon="3.6796">
        <ele>143.4</ele>
        <time>2021-04-15T15:05:34Z</time>
      </trkpt>
      <trkpt lat="43.56893" lon="3.6796">
        <ele>148</ele>
        <time>2021-04-15T15:05:34Z</time>
      </trkpt>
      <trkpt lat="43.56892" lon="3.67962">
        <ele>143.3</ele>
        <time>2021-04-15T15:05:36Z</time>
      </trkpt>
      <trkpt lat="43.56892" lon="3.67962">
        <ele>148</ele>
        <time>2021-04-15T15:05:36Z</time>
      </trkpt>
      <trkpt lat="43.56891" lon="3.67963">
        <ele>143.3</ele>
        <time>2021-04-15T15:05:37Z</time>
      </trkpt>
      <trkpt lat="43.56891" lon="3.67963">
        <ele>148</ele>
        <time>2021-04-15T15:05:37Z</time>
      </trkpt>
      <trkpt lat="43.56891" lon="3.67965">
        <ele>143.3</ele>
        <time>2021-04-15T15:05:38Z</time>
      </trkpt>
      <trkpt lat="43.56891" lon="3.67965">
        <ele>148</ele>
        <time>2021-04-15T15:05:38Z</time>
      </trkpt>
      <trkpt lat="43.56889" lon="3.67967">
        <ele>143.2</ele>
        <time>2021-04-15T15:05:40Z</time>
      </trkpt>
      <trkpt lat="43.56889" lon="3.67967">
        <ele>148</ele>
        <time>2021-04-15T15:05:40Z</time>
      </trkpt>
      <trkpt lat="43.56888" lon="3.67969">
        <ele>143.2</ele>
        <time>2021-04-15T15:05:42Z</time>
      </trkpt>
      <trkpt lat="43.56888" lon="3.67969">
        <ele>148</ele>
        <time>2021-04-15T15:05:42Z</time>
      </trkpt>
      <trkpt lat="43.56887" lon="3.6797">
        <ele>143.1</ele>
        <time>2021-04-15T15:05:43Z</time>
      </trkpt>
      <trkpt lat="43.56887" lon="3.6797">
        <ele>148</ele>
        <time>2021-04-15T15:05:43Z</time>
      </trkpt>
      <trkpt lat="43.56886" lon="3.67971">
        <ele>143.1</ele>
        <time>2021-04-15T15:05:45Z</time>
      </trkpt>
      <trkpt lat="43.56886" lon="3.67971">
        <ele>148</ele>
        <time>2021-04-15T15:05:45Z</time>
      </trkpt>
      <trkpt lat="43.56885" lon="3.67973">
        <ele>143.1</ele>
        <time>2021-04-15T15:05:46Z</time>
      </trkpt>
      <trkpt lat="43.56885" lon="3.67973">
        <ele>148</ele>
        <time>2021-04-15T15:05:46Z</time>
      </trkpt>
      <trkpt lat="43.56884" lon="3.67975">
        <ele>143.2</ele>
        <time>2021-04-15T15:05:48Z</time>
      </trkpt>
      <trkpt lat="43.56884" lon="3.67975">
        <ele>148</ele>
        <time>2021-04-15T15:05:48Z</time>
      </trkpt>
      <trkpt lat="43.56883" lon="3.67977">
        <ele>143.2</ele>
        <time>2021-04-15T15:05:49Z</time>
      </trkpt>
      <trkpt lat="43.56883" lon="3.67977">
        <ele>148</ele>
        <time>2021-04-15T15:05:49Z</time>
      </trkpt>
      <trkpt lat="43.56882" lon="3.6798">
        <ele>143.2</ele>
        <time>2021-04-15T15:05:51Z</time>
      </trkpt>
      <trkpt lat="43.56882" lon="3.6798">
        <ele>147</ele>
        <time>2021-04-15T15:05:51Z</time>
      </trkpt>
      <trkpt lat="43.56881" lon="3.67982">
        <ele>143.2</ele>
        <time>2021-04-15T15:05:52Z</time>
      </trkpt>
      <trkpt lat="43.56881" lon="3.67982">
        <ele>147</ele>
        <time>2021-04-15T15:05:52Z</time>
      </trkpt>
      <trkpt lat="43.5688" lon="3.67985">
        <ele>143.2</ele>
        <time>2021-04-15T15:05:54Z</time>
      </trkpt>
      <trkpt lat="43.5688" lon="3.67985">
        <ele>147</ele>
        <time>2021-04-15T15:05:54Z</time>
      </trkpt>
      <trkpt lat="43.56879" lon="3.67986">
        <ele>143.2</ele>
        <time>2021-04-15T15:05:55Z</time>
      </trkpt>
      <trkpt lat="43.56879" lon="3.67986">
        <ele>147</ele>
        <time>2021-04-15T15:05:55Z</time>
      </trkpt>
      <trkpt lat="43.56878" lon="3.67989">
        <ele>143.2</ele>
        <time>2021-04-15T15:05:57Z</time>
      </trkpt>
      <trkpt lat="43.56878" lon="3.67989">
        <ele>147</ele>
        <time>2021-04-15T15:05:57Z</time>
      </trkpt>
      <trkpt lat="43.56877" lon="3.67991">
        <ele>143.1</ele>
        <time>2021-04-15T15:05:58Z</time>
      </trkpt>
      <trkpt lat="43.56877" lon="3.67991">
        <ele>147</ele>
        <time>2021-04-15T15:05:58Z</time>
      </trkpt>
      <trkpt lat="43.56876" lon="3.67992">
        <ele>143.1</ele>
        <time>2021-04-15T15:05:59Z</time>
      </trkpt>
      <trkpt lat="43.56876" lon="3.67992">
        <ele>147</ele>
        <time>2021-04-15T15:05:59Z</time>
      </trkpt>
      <trkpt lat="43.56875" lon="3.67994">
        <ele>143.1</ele>
        <time>2021-04-15T15:06:01Z</time>
      </trkpt>
      <trkpt lat="43.56875" lon="3.67994">
        <ele>147</ele>
        <time>2021-04-15T15:06:01Z</time>
      </trkpt>
      <trkpt lat="43.56873" lon="3.67996">
        <ele>143.1</ele>
        <time>2021-04-15T15:06:02Z</time>
      </trkpt>
      <trkpt lat="43.56873" lon="3.67996">
        <ele>147</ele>
        <time>2021-04-15T15:06:02Z</time>
      </trkpt>
      <trkpt lat="43.56872" lon="3.67998">
        <ele>143</ele>
        <time>2021-04-15T15:06:04Z</time>
      </trkpt>
      <trkpt lat="43.56872" lon="3.67998">
        <ele>147</ele>
        <time>2021-04-15T15:06:04Z</time>
      </trkpt>
      <trkpt lat="43.5687" lon="3.68001">
        <ele>143</ele>
        <time>2021-04-15T15:06:06Z</time>
      </trkpt>
      <trkpt lat="43.5687" lon="3.68001">
        <ele>147</ele>
        <time>2021-04-15T15:06:06Z</time>
      </trkpt>
      <trkpt lat="43.56869" lon="3.68004">
        <ele>143</ele>
        <time>2021-04-15T15:06:08Z</time>
      </trkpt>
      <trkpt lat="43.56869" lon="3.68004">
        <ele>147</ele>
        <time>2021-04-15T15:06:08Z</time>
      </trkpt>
      <trkpt lat="43.56868" lon="3.68007">
        <ele>142.9</ele>
        <time>2021-04-15T15:06:10Z</time>
      </trkpt>
      <trkpt lat="43.56868" lon="3.68007">
        <ele>147</ele>
        <time>2021-04-15T15:06:10Z</time>
      </trkpt>
      <trkpt lat="43.56866" lon="3.6801">
        <ele>142.9</ele>
        <time>2021-04-15T15:06:12Z</time>
      </trkpt>
      <trkpt lat="43.56866" lon="3.6801">
        <ele>147</ele>
        <time>2021-04-15T15:06:12Z</time>
      </trkpt>
      <trkpt lat="43.56865" lon="3.68012">
        <ele>142.9</ele>
        <time>2021-04-15T15:06:14Z</time>
      </trkpt>
      <trkpt lat="43.56865" lon="3.68012">
        <ele>147</ele>
        <time>2021-04-15T15:06:14Z</time>
      </trkpt>
      <trkpt lat="43.56863" lon="3.68016">
        <ele>143</ele>
        <time>2021-04-15T15:06:16Z</time>
      </trkpt>
      <trkpt lat="43.56863" lon="3.68016">
        <ele>147</ele>
        <time>2021-04-15T15:06:16Z</time>
      </trkpt>
      <trkpt lat="43.56862" lon="3.68019">
        <ele>143</ele>
        <time>2021-04-15T15:06:18Z</time>
      </trkpt>
      <trkpt lat="43.56862" lon="3.68019">
        <ele>147</ele>
        <time>2021-04-15T15:06:18Z</time>
      </trkpt>
      <trkpt lat="43.5686" lon="3.68021">
        <ele>143</ele>
        <time>2021-04-15T15:06:19Z</time>
      </trkpt>
      <trkpt lat="43.5686" lon="3.68021">
        <ele>147</ele>
        <time>2021-04-15T15:06:19Z</time>
      </trkpt>
      <trkpt lat="43.56859" lon="3.68023">
        <ele>142.9</ele>
        <time>2021-04-15T15:06:20Z</time>
      </trkpt>
      <trkpt lat="43.56859" lon="3.68023">
        <ele>147</ele>
        <time>2021-04-15T15:06:20Z</time>
      </trkpt>
      <trkpt lat="43.56858" lon="3.68025">
        <ele>142.9</ele>
        <time>2021-04-15T15:06:22Z</time>
      </trkpt>
      <trkpt lat="43.56858" lon="3.68025">
        <ele>147</ele>
        <time>2021-04-15T15:06:22Z</time>
      </trkpt>
      <trkpt lat="43.56856" lon="3.68027">
        <ele>142.8</ele>
        <time>2021-04-15T15:06:23Z</time>
      </trkpt>
      <trkpt lat="43.56856" lon="3.68027">
        <ele>147</ele>
        <time>2021-04-15T15:06:23Z</time>
      </trkpt>
      <trkpt lat="43.56855" lon="3.68029">
        <ele>142.8</ele>
        <time>2021-04-15T15:06:25Z</time>
      </trkpt>
      <trkpt lat="43.56855" lon="3.68029">
        <ele>147</ele>
        <time>2021-04-15T15:06:25Z</time>
      </trkpt>
      <trkpt lat="43.56853" lon="3.68031">
        <ele>142.7</ele>
        <time>2021-04-15T15:06:27Z</time>
      </trkpt>
      <trkpt lat="43.56853" lon="3.68031">
        <ele>147</ele>
        <time>2021-04-15T15:06:27Z</time>
      </trkpt>
      <trkpt lat="43.56852" lon="3.68033">
        <ele>142.6</ele>
        <time>2021-04-15T15:06:29Z</time>
      </trkpt>
      <trkpt lat="43.56852" lon="3.68033">
        <ele>147</ele>
        <time>2021-04-15T15:06:29Z</time>
      </trkpt>
      <trkpt lat="43.5685" lon="3.68035">
        <ele>142.5</ele>
        <time>2021-04-15T15:06:30Z</time>
      </trkpt>
      <trkpt lat="43.5685" lon="3.68035">
        <ele>147</ele>
        <time>2021-04-15T15:06:30Z</time>
      </trkpt>
      <trkpt lat="43.56849" lon="3.68036">
        <ele>142.4</ele>
        <time>2021-04-15T15:06:31Z</time>
      </trkpt>
      <trkpt lat="43.56849" lon="3.68036">
        <ele>147</ele>
        <time>2021-04-15T15:06:31Z</time>
      </trkpt>
      <trkpt lat="43.56847" lon="3.68037">
        <ele>142.3</ele>
        <time>2021-04-15T15:06:33Z</time>
      </trkpt>
      <trkpt lat="43.56847" lon="3.68037">
        <ele>147</ele>
        <time>2021-04-15T15:06:33Z</time>
      </trkpt>
      <trkpt lat="43.56842" lon="3.68038">
        <ele>142</ele>
        <time>2021-04-15T15:06:36Z</time>
      </trkpt>
      <trkpt lat="43.56842" lon="3.68038">
        <ele>147</ele>
        <time>2021-04-15T15:06:36Z</time>
      </trkpt>
      <trkpt lat="43.56837" lon="3.6804">
        <ele>141.7</ele>
        <time>2021-04-15T15:06:55Z</time>
      </trkpt>
      <trkpt lat="43.56837" lon="3.6804">
        <ele>147</ele>
        <time>2021-04-15T15:06:55Z</time>
      </trkpt>
      <trkpt lat="43.56837" lon="3.68041">
        <ele>141.7</ele>
        <time>2021-04-15T15:06:57Z</time>
      </trkpt>
      <trkpt lat="43.56837" lon="3.68041">
        <ele>147</ele>
        <time>2021-04-15T15:06:57Z</time>
      </trkpt>
      <trkpt lat="43.56836" lon="3.68042">
        <ele>141.6</ele>
        <time>2021-04-15T15:06:59Z</time>
      </trkpt>
      <trkpt lat="43.56836" lon="3.68042">
        <ele>147</ele>
        <time>2021-04-15T15:06:59Z</time>
      </trkpt>
      <trkpt lat="43.56836" lon="3.68043">
        <ele>141.6</ele>
        <time>2021-04-15T15:07:01Z</time>
      </trkpt>
      <trkpt lat="43.56836" lon="3.68043">
        <ele>147</ele>
        <time>2021-04-15T15:07:01Z</time>
      </trkpt>
      <trkpt lat="43.56835" lon="3.68045">
        <ele>141.4</ele>
        <time>2021-04-15T15:07:03Z</time>
      </trkpt>
      <trkpt lat="43.56835" lon="3.68045">
        <ele>147</ele>
        <time>2021-04-15T15:07:03Z</time>
      </trkpt>
      <trkpt lat="43.56834" lon="3.68047">
        <ele>141.3</ele>
        <time>2021-04-15T15:07:04Z</time>
      </trkpt>
      <trkpt lat="43.56834" lon="3.68047">
        <ele>147</ele>
        <time>2021-04-15T15:07:04Z</time>
      </trkpt>
      <trkpt lat="43.56833" lon="3.68048">
        <ele>141.2</ele>
        <time>2021-04-15T15:07:05Z</time>
      </trkpt>
      <trkpt lat="43.56833" lon="3.68048">
        <ele>147</ele>
        <time>2021-04-15T15:07:05Z</time>
      </trkpt>
      <trkpt lat="43.56832" lon="3.68049">
        <ele>141.1</ele>
        <time>2021-04-15T15:07:06Z</time>
      </trkpt>
      <trkpt lat="43.56832" lon="3.68049">
        <ele>147</ele>
        <time>2021-04-15T15:07:06Z</time>
      </trkpt>
      <trkpt lat="43.56831" lon="3.68051">
        <ele>141</ele>
        <time>2021-04-15T15:07:08Z</time>
      </trkpt>
      <trkpt lat="43.56831" lon="3.68051">
        <ele>147</ele>
        <time>2021-04-15T15:07:08Z</time>
      </trkpt>
      <trkpt lat="43.56829" lon="3.68053">
        <ele>140.8</ele>
        <time>2021-04-15T15:07:10Z</time>
      </trkpt>
      <trkpt lat="43.56829" lon="3.68053">
        <ele>147</ele>
        <time>2021-04-15T15:07:10Z</time>
      </trkpt>
      <trkpt lat="43.56828" lon="3.68055">
        <ele>140.6</ele>
        <time>2021-04-15T15:07:12Z</time>
      </trkpt>
      <trkpt lat="43.56828" lon="3.68055">
        <ele>147</ele>
        <time>2021-04-15T15:07:12Z</time>
      </trkpt>
      <trkpt lat="43.56827" lon="3.68057">
        <ele>140.5</ele>
        <time>2021-04-15T15:07:13Z</time>
      </trkpt>
      <trkpt lat="43.56827" lon="3.68057">
        <ele>147</ele>
        <time>2021-04-15T15:07:13Z</time>
      </trkpt>
      <trkpt lat="43.56826" lon="3.68059">
        <ele>140.5</ele>
        <time>2021-04-15T15:07:14Z</time>
      </trkpt>
      <trkpt lat="43.56826" lon="3.68059">
        <ele>147</ele>
        <time>2021-04-15T15:07:14Z</time>
      </trkpt>
      <trkpt lat="43.56825" lon="3.68061">
        <ele>140.5</ele>
        <time>2021-04-15T15:07:16Z</time>
      </trkpt>
      <trkpt lat="43.56825" lon="3.68061">
        <ele>147</ele>
        <time>2021-04-15T15:07:16Z</time>
      </trkpt>
      <trkpt lat="43.56825" lon="3.68063">
        <ele>140.5</ele>
        <time>2021-04-15T15:07:17Z</time>
      </trkpt>
      <trkpt lat="43.56825" lon="3.68063">
        <ele>147</ele>
        <time>2021-04-15T15:07:17Z</time>
      </trkpt>
      <trkpt lat="43.56824" lon="3.68066">
        <ele>140.4</ele>
        <time>2021-04-15T15:07:19Z</time>
      </trkpt>
      <trkpt lat="43.56824" lon="3.68066">
        <ele>147</ele>
        <time>2021-04-15T15:07:19Z</time>
      </trkpt>
      <trkpt lat="43.56823" lon="3.68068">
        <ele>140.4</ele>
        <time>2021-04-15T15:07:21Z</time>
      </trkpt>
      <trkpt lat="43.56823" lon="3.68068">
        <ele>147</ele>
        <time>2021-04-15T15:07:21Z</time>
      </trkpt>
      <trkpt lat="43.56821" lon="3.6807">
        <ele>140.3</ele>
        <time>2021-04-15T15:07:23Z</time>
      </trkpt>
      <trkpt lat="43.56821" lon="3.6807">
        <ele>147</ele>
        <time>2021-04-15T15:07:23Z</time>
      </trkpt>
      <trkpt lat="43.56819" lon="3.68072">
        <ele>140.3</ele>
        <time>2021-04-15T15:07:25Z</time>
      </trkpt>
      <trkpt lat="43.56819" lon="3.68072">
        <ele>145</ele>
        <time>2021-04-15T15:07:25Z</time>
      </trkpt>
      <trkpt lat="43.56817" lon="3.68074">
        <ele>140.2</ele>
        <time>2021-04-15T15:07:26Z</time>
      </trkpt>
      <trkpt lat="43.56817" lon="3.68074">
        <ele>145</ele>
        <time>2021-04-15T15:07:26Z</time>
      </trkpt>
      <trkpt lat="43.56816" lon="3.68076">
        <ele>140.2</ele>
        <time>2021-04-15T15:07:27Z</time>
      </trkpt>
      <trkpt lat="43.56816" lon="3.68076">
        <ele>145</ele>
        <time>2021-04-15T15:07:27Z</time>
      </trkpt>
      <trkpt lat="43.56815" lon="3.68078">
        <ele>140.2</ele>
        <time>2021-04-15T15:07:29Z</time>
      </trkpt>
      <trkpt lat="43.56815" lon="3.68078">
        <ele>145</ele>
        <time>2021-04-15T15:07:29Z</time>
      </trkpt>
      <trkpt lat="43.56813" lon="3.6808">
        <ele>140.2</ele>
        <time>2021-04-15T15:07:31Z</time>
      </trkpt>
      <trkpt lat="43.56813" lon="3.6808">
        <ele>145</ele>
        <time>2021-04-15T15:07:31Z</time>
      </trkpt>
      <trkpt lat="43.56812" lon="3.68082">
        <ele>140.2</ele>
        <time>2021-04-15T15:07:33Z</time>
      </trkpt>
      <trkpt lat="43.56812" lon="3.68082">
        <ele>145</ele>
        <time>2021-04-15T15:07:33Z</time>
      </trkpt>
      <trkpt lat="43.56811" lon="3.68084">
        <ele>140.2</ele>
        <time>2021-04-15T15:07:34Z</time>
      </trkpt>
      <trkpt lat="43.56811" lon="3.68084">
        <ele>145</ele>
        <time>2021-04-15T15:07:34Z</time>
      </trkpt>
      <trkpt lat="43.5681" lon="3.68086">
        <ele>140.1</ele>
        <time>2021-04-15T15:07:36Z</time>
      </trkpt>
      <trkpt lat="43.5681" lon="3.68086">
        <ele>145</ele>
        <time>2021-04-15T15:07:36Z</time>
      </trkpt>
      <trkpt lat="43.56809" lon="3.68088">
        <ele>140</ele>
        <time>2021-04-15T15:07:37Z</time>
      </trkpt>
      <trkpt lat="43.56809" lon="3.68088">
        <ele>145</ele>
        <time>2021-04-15T15:07:37Z</time>
      </trkpt>
      <trkpt lat="43.56808" lon="3.6809">
        <ele>139.9</ele>
        <time>2021-04-15T15:07:38Z</time>
      </trkpt>
      <trkpt lat="43.56808" lon="3.6809">
        <ele>145</ele>
        <time>2021-04-15T15:07:38Z</time>
      </trkpt>
      <trkpt lat="43.56807" lon="3.68092">
        <ele>139.7</ele>
        <time>2021-04-15T15:07:40Z</time>
      </trkpt>
      <trkpt lat="43.56807" lon="3.68092">
        <ele>145</ele>
        <time>2021-04-15T15:07:40Z</time>
      </trkpt>
      <trkpt lat="43.56805" lon="3.68095">
        <ele>139.6</ele>
        <time>2021-04-15T15:07:42Z</time>
      </trkpt>
      <trkpt lat="43.56805" lon="3.68095">
        <ele>143</ele>
        <time>2021-04-15T15:07:42Z</time>
      </trkpt>
      <trkpt lat="43.56804" lon="3.68098">
        <ele>139.3</ele>
        <time>2021-04-15T15:07:43Z</time>
      </trkpt>
      <trkpt lat="43.56804" lon="3.68098">
        <ele>143</ele>
        <time>2021-04-15T15:07:43Z</time>
      </trkpt>
      <trkpt lat="43.56803" lon="3.68101">
        <ele>139.1</ele>
        <time>2021-04-15T15:07:45Z</time>
      </trkpt>
      <trkpt lat="43.56803" lon="3.68101">
        <ele>143</ele>
        <time>2021-04-15T15:07:45Z</time>
      </trkpt>
      <trkpt lat="43.56803" lon="3.68104">
        <ele>138.8</ele>
        <time>2021-04-15T15:07:47Z</time>
      </trkpt>
      <trkpt lat="43.56803" lon="3.68104">
        <ele>143</ele>
        <time>2021-04-15T15:07:47Z</time>
      </trkpt>
      <trkpt lat="43.56802" lon="3.68106">
        <ele>138.6</ele>
        <time>2021-04-15T15:07:49Z</time>
      </trkpt>
      <trkpt lat="43.56802" lon="3.68106">
        <ele>143</ele>
        <time>2021-04-15T15:07:49Z</time>
      </trkpt>
      <trkpt lat="43.56801" lon="3.68109">
        <ele>138.5</ele>
        <time>2021-04-15T15:07:50Z</time>
      </trkpt>
      <trkpt lat="43.56801" lon="3.68109">
        <ele>143</ele>
        <time>2021-04-15T15:07:50Z</time>
      </trkpt>
      <trkpt lat="43.56801" lon="3.68111">
        <ele>138.3</ele>
        <time>2021-04-15T15:07:51Z</time>
      </trkpt>
      <trkpt lat="43.56801" lon="3.68111">
        <ele>143</ele>
        <time>2021-04-15T15:07:51Z</time>
      </trkpt>
      <trkpt lat="43.568" lon="3.68113">
        <ele>138.3</ele>
        <time>2021-04-15T15:07:53Z</time>
      </trkpt>
      <trkpt lat="43.568" lon="3.68113">
        <ele>143</ele>
        <time>2021-04-15T15:07:53Z</time>
      </trkpt>
      <trkpt lat="43.568" lon="3.68116">
        <ele>138.2</ele>
        <time>2021-04-15T15:07:55Z</time>
      </trkpt>
      <trkpt lat="43.568" lon="3.68116">
        <ele>143</ele>
        <time>2021-04-15T15:07:55Z</time>
      </trkpt>
      <trkpt lat="43.56799" lon="3.68119">
        <ele>138.2</ele>
        <time>2021-04-15T15:07:57Z</time>
      </trkpt>
      <trkpt lat="43.56799" lon="3.68119">
        <ele>143</ele>
        <time>2021-04-15T15:07:57Z</time>
      </trkpt>
      <trkpt lat="43.56799" lon="3.68121">
        <ele>138.1</ele>
        <time>2021-04-15T15:07:58Z</time>
      </trkpt>
      <trkpt lat="43.56799" lon="3.68121">
        <ele>142</ele>
        <time>2021-04-15T15:07:58Z</time>
      </trkpt>
      <trkpt lat="43.56799" lon="3.68124">
        <ele>138.1</ele>
        <time>2021-04-15T15:08:00Z</time>
      </trkpt>
      <trkpt lat="43.56799" lon="3.68124">
        <ele>142</ele>
        <time>2021-04-15T15:08:00Z</time>
      </trkpt>
      <trkpt lat="43.56798" lon="3.68126">
        <ele>138</ele>
        <time>2021-04-15T15:08:02Z</time>
      </trkpt>
      <trkpt lat="43.56798" lon="3.68126">
        <ele>142</ele>
        <time>2021-04-15T15:08:02Z</time>
      </trkpt>
      <trkpt lat="43.56797" lon="3.68129">
        <ele>138</ele>
        <time>2021-04-15T15:08:04Z</time>
      </trkpt>
      <trkpt lat="43.56797" lon="3.68129">
        <ele>142</ele>
        <time>2021-04-15T15:08:04Z</time>
      </trkpt>
      <trkpt lat="43.56796" lon="3.68132">
        <ele>137.9</ele>
        <time>2021-04-15T15:08:06Z</time>
      </trkpt>
      <trkpt lat="43.56796" lon="3.68132">
        <ele>142</ele>
        <time>2021-04-15T15:08:06Z</time>
      </trkpt>
      <trkpt lat="43.56795" lon="3.68135">
        <ele>137.8</ele>
        <time>2021-04-15T15:08:08Z</time>
      </trkpt>
      <trkpt lat="43.56795" lon="3.68135">
        <ele>142</ele>
        <time>2021-04-15T15:08:08Z</time>
      </trkpt>
      <trkpt lat="43.56794" lon="3.68138">
        <ele>137.7</ele>
        <time>2021-04-15T15:08:09Z</time>
      </trkpt>
      <trkpt lat="43.56794" lon="3.68138">
        <ele>142</ele>
        <time>2021-04-15T15:08:09Z</time>
      </trkpt>
      <trkpt lat="43.56792" lon="3.68142">
        <ele>137.7</ele>
        <time>2021-04-15T15:08:11Z</time>
      </trkpt>
      <trkpt lat="43.56792" lon="3.68142">
        <ele>142</ele>
        <time>2021-04-15T15:08:11Z</time>
      </trkpt>
      <trkpt lat="43.56791" lon="3.68145">
        <ele>137.6</ele>
        <time>2021-04-15T15:08:13Z</time>
      </trkpt>
      <trkpt lat="43.56791" lon="3.68145">
        <ele>142</ele>
        <time>2021-04-15T15:08:13Z</time>
      </trkpt>
      <trkpt lat="43.5679" lon="3.68149">
        <ele>137.6</ele>
        <time>2021-04-15T15:08:15Z</time>
      </trkpt>
      <trkpt lat="43.5679" lon="3.68149">
        <ele>142</ele>
        <time>2021-04-15T15:08:15Z</time>
      </trkpt>
      <trkpt lat="43.56788" lon="3.68152">
        <ele>137.6</ele>
        <time>2021-04-15T15:08:16Z</time>
      </trkpt>
      <trkpt lat="43.56788" lon="3.68152">
        <ele>142</ele>
        <time>2021-04-15T15:08:16Z</time>
      </trkpt>
      <trkpt lat="43.56787" lon="3.68155">
        <ele>137.6</ele>
        <time>2021-04-15T15:08:17Z</time>
      </trkpt>
      <trkpt lat="43.56787" lon="3.68155">
        <ele>142</ele>
        <time>2021-04-15T15:08:17Z</time>
      </trkpt>
      <trkpt lat="43.56786" lon="3.68157">
        <ele>137.6</ele>
        <time>2021-04-15T15:08:19Z</time>
      </trkpt>
      <trkpt lat="43.56786" lon="3.68157">
        <ele>142</ele>
        <time>2021-04-15T15:08:19Z</time>
      </trkpt>
      <trkpt lat="43.56785" lon="3.6816">
        <ele>137.5</ele>
        <time>2021-04-15T15:08:20Z</time>
      </trkpt>
      <trkpt lat="43.56785" lon="3.6816">
        <ele>142</ele>
        <time>2021-04-15T15:08:20Z</time>
      </trkpt>
      <trkpt lat="43.56784" lon="3.68162">
        <ele>137.5</ele>
        <time>2021-04-15T15:08:22Z</time>
      </trkpt>
      <trkpt lat="43.56784" lon="3.68162">
        <ele>142</ele>
        <time>2021-04-15T15:08:22Z</time>
      </trkpt>
      <trkpt lat="43.56783" lon="3.68165">
        <ele>137.5</ele>
        <time>2021-04-15T15:08:24Z</time>
      </trkpt>
      <trkpt lat="43.56783" lon="3.68165">
        <ele>142</ele>
        <time>2021-04-15T15:08:24Z</time>
      </trkpt>
      <trkpt lat="43.56782" lon="3.68167">
        <ele>137.4</ele>
        <time>2021-04-15T15:08:25Z</time>
      </trkpt>
      <trkpt lat="43.56782" lon="3.68167">
        <ele>142</ele>
        <time>2021-04-15T15:08:25Z</time>
      </trkpt>
      <trkpt lat="43.5678" lon="3.6817">
        <ele>137.4</ele>
        <time>2021-04-15T15:08:27Z</time>
      </trkpt>
      <trkpt lat="43.5678" lon="3.6817">
        <ele>142</ele>
        <time>2021-04-15T15:08:27Z</time>
      </trkpt>
      <trkpt lat="43.56779" lon="3.68172">
        <ele>137.3</ele>
        <time>2021-04-15T15:08:29Z</time>
      </trkpt>
      <trkpt lat="43.56779" lon="3.68172">
        <ele>142</ele>
        <time>2021-04-15T15:08:29Z</time>
      </trkpt>
      <trkpt lat="43.56778" lon="3.68175">
        <ele>137.3</ele>
        <time>2021-04-15T15:08:30Z</time>
      </trkpt>
      <trkpt lat="43.56778" lon="3.68175">
        <ele>142</ele>
        <time>2021-04-15T15:08:30Z</time>
      </trkpt>
      <trkpt lat="43.56777" lon="3.68178">
        <ele>137.2</ele>
        <time>2021-04-15T15:08:32Z</time>
      </trkpt>
      <trkpt lat="43.56777" lon="3.68178">
        <ele>141</ele>
        <time>2021-04-15T15:08:32Z</time>
      </trkpt>
      <trkpt lat="43.56776" lon="3.6818">
        <ele>137.1</ele>
        <time>2021-04-15T15:08:33Z</time>
      </trkpt>
      <trkpt lat="43.56776" lon="3.6818">
        <ele>141</ele>
        <time>2021-04-15T15:08:33Z</time>
      </trkpt>
      <trkpt lat="43.56775" lon="3.68183">
        <ele>136.9</ele>
        <time>2021-04-15T15:08:35Z</time>
      </trkpt>
      <trkpt lat="43.56775" lon="3.68183">
        <ele>141</ele>
        <time>2021-04-15T15:08:35Z</time>
      </trkpt>
      <trkpt lat="43.56774" lon="3.68185">
        <ele>136.7</ele>
        <time>2021-04-15T15:08:36Z</time>
      </trkpt>
      <trkpt lat="43.56774" lon="3.68185">
        <ele>141</ele>
        <time>2021-04-15T15:08:36Z</time>
      </trkpt>
      <trkpt lat="43.56774" lon="3.68187">
        <ele>136.7</ele>
        <time>2021-04-15T15:08:38Z</time>
      </trkpt>
      <trkpt lat="43.56774" lon="3.68187">
        <ele>141</ele>
        <time>2021-04-15T15:08:38Z</time>
      </trkpt>
      <trkpt lat="43.56773" lon="3.68189">
        <ele>136.6</ele>
        <time>2021-04-15T15:08:40Z</time>
      </trkpt>
      <trkpt lat="43.56773" lon="3.68189">
        <ele>141</ele>
        <time>2021-04-15T15:08:40Z</time>
      </trkpt>
      <trkpt lat="43.56772" lon="3.68191">
        <ele>136.5</ele>
        <time>2021-04-15T15:08:41Z</time>
      </trkpt>
      <trkpt lat="43.56772" lon="3.68191">
        <ele>141</ele>
        <time>2021-04-15T15:08:41Z</time>
      </trkpt>
      <trkpt lat="43.56772" lon="3.68193">
        <ele>136.5</ele>
        <time>2021-04-15T15:08:42Z</time>
      </trkpt>
      <trkpt lat="43.56772" lon="3.68193">
        <ele>141</ele>
        <time>2021-04-15T15:08:42Z</time>
      </trkpt>
      <trkpt lat="43.56771" lon="3.68194">
        <ele>136.3</ele>
        <time>2021-04-15T15:08:43Z</time>
      </trkpt>
      <trkpt lat="43.56771" lon="3.68194">
        <ele>141</ele>
        <time>2021-04-15T15:08:43Z</time>
      </trkpt>
      <trkpt lat="43.5677" lon="3.68196">
        <ele>136.2</ele>
        <time>2021-04-15T15:08:45Z</time>
      </trkpt>
      <trkpt lat="43.5677" lon="3.68196">
        <ele>141</ele>
        <time>2021-04-15T15:08:45Z</time>
      </trkpt>
      <trkpt lat="43.5677" lon="3.68199">
        <ele>136</ele>
        <time>2021-04-15T15:08:46Z</time>
      </trkpt>
      <trkpt lat="43.5677" lon="3.68199">
        <ele>141</ele>
        <time>2021-04-15T15:08:46Z</time>
      </trkpt>
      <trkpt lat="43.56769" lon="3.68201">
        <ele>136</ele>
        <time>2021-04-15T15:08:48Z</time>
      </trkpt>
      <trkpt lat="43.56769" lon="3.68201">
        <ele>140</ele>
        <time>2021-04-15T15:08:48Z</time>
      </trkpt>
      <trkpt lat="43.56769" lon="3.68203">
        <ele>136</ele>
        <time>2021-04-15T15:08:49Z</time>
      </trkpt>
      <trkpt lat="43.56769" lon="3.68203">
        <ele>140</ele>
        <time>2021-04-15T15:08:49Z</time>
      </trkpt>
      <trkpt lat="43.56769" lon="3.68206">
        <ele>135.9</ele>
        <time>2021-04-15T15:08:51Z</time>
      </trkpt>
      <trkpt lat="43.56769" lon="3.68206">
        <ele>140</ele>
        <time>2021-04-15T15:08:51Z</time>
      </trkpt>
      <trkpt lat="43.56768" lon="3.68208">
        <ele>135.9</ele>
        <time>2021-04-15T15:08:52Z</time>
      </trkpt>
      <trkpt lat="43.56768" lon="3.68208">
        <ele>140</ele>
        <time>2021-04-15T15:08:52Z</time>
      </trkpt>
      <trkpt lat="43.56768" lon="3.68211">
        <ele>135.9</ele>
        <time>2021-04-15T15:08:54Z</time>
      </trkpt>
      <trkpt lat="43.56768" lon="3.68211">
        <ele>140</ele>
        <time>2021-04-15T15:08:54Z</time>
      </trkpt>
      <trkpt lat="43.56767" lon="3.68214">
        <ele>135.8</ele>
        <time>2021-04-15T15:08:56Z</time>
      </trkpt>
      <trkpt lat="43.56767" lon="3.68214">
        <ele>140</ele>
        <time>2021-04-15T15:08:56Z</time>
      </trkpt>
      <trkpt lat="43.56766" lon="3.68216">
        <ele>135.8</ele>
        <time>2021-04-15T15:08:57Z</time>
      </trkpt>
      <trkpt lat="43.56766" lon="3.68216">
        <ele>140</ele>
        <time>2021-04-15T15:08:57Z</time>
      </trkpt>
      <trkpt lat="43.56766" lon="3.68218">
        <ele>135.8</ele>
        <time>2021-04-15T15:08:59Z</time>
      </trkpt>
      <trkpt lat="43.56766" lon="3.68218">
        <ele>140</ele>
        <time>2021-04-15T15:08:59Z</time>
      </trkpt>
      <trkpt lat="43.56766" lon="3.68221">
        <ele>135.7</ele>
        <time>2021-04-15T15:09:00Z</time>
      </trkpt>
      <trkpt lat="43.56766" lon="3.68221">
        <ele>140</ele>
        <time>2021-04-15T15:09:00Z</time>
      </trkpt>
      <trkpt lat="43.56765" lon="3.68223">
        <ele>135.7</ele>
        <time>2021-04-15T15:09:02Z</time>
      </trkpt>
      <trkpt lat="43.56765" lon="3.68223">
        <ele>140</ele>
        <time>2021-04-15T15:09:02Z</time>
      </trkpt>
      <trkpt lat="43.56765" lon="3.68225">
        <ele>135.7</ele>
        <time>2021-04-15T15:09:03Z</time>
      </trkpt>
      <trkpt lat="43.56765" lon="3.68225">
        <ele>140</ele>
        <time>2021-04-15T15:09:03Z</time>
      </trkpt>
      <trkpt lat="43.56764" lon="3.68227">
        <ele>135.6</ele>
        <time>2021-04-15T15:09:05Z</time>
      </trkpt>
      <trkpt lat="43.56764" lon="3.68227">
        <ele>140</ele>
        <time>2021-04-15T15:09:05Z</time>
      </trkpt>
      <trkpt lat="43.56763" lon="3.68229">
        <ele>135.6</ele>
        <time>2021-04-15T15:09:07Z</time>
      </trkpt>
      <trkpt lat="43.56763" lon="3.68229">
        <ele>140</ele>
        <time>2021-04-15T15:09:07Z</time>
      </trkpt>
      <trkpt lat="43.56762" lon="3.68231">
        <ele>135.5</ele>
        <time>2021-04-15T15:09:09Z</time>
      </trkpt>
      <trkpt lat="43.56762" lon="3.68231">
        <ele>140</ele>
        <time>2021-04-15T15:09:09Z</time>
      </trkpt>
      <trkpt lat="43.56762" lon="3.68233">
        <ele>135.5</ele>
        <time>2021-04-15T15:09:10Z</time>
      </trkpt>
      <trkpt lat="43.56762" lon="3.68233">
        <ele>140</ele>
        <time>2021-04-15T15:09:10Z</time>
      </trkpt>
      <trkpt lat="43.56761" lon="3.68235">
        <ele>135.4</ele>
        <time>2021-04-15T15:09:11Z</time>
      </trkpt>
      <trkpt lat="43.56761" lon="3.68235">
        <ele>140</ele>
        <time>2021-04-15T15:09:11Z</time>
      </trkpt>
      <trkpt lat="43.56761" lon="3.68237">
        <ele>135.4</ele>
        <time>2021-04-15T15:09:13Z</time>
      </trkpt>
      <trkpt lat="43.56761" lon="3.68237">
        <ele>140</ele>
        <time>2021-04-15T15:09:13Z</time>
      </trkpt>
      <trkpt lat="43.5676" lon="3.68239">
        <ele>135.4</ele>
        <time>2021-04-15T15:09:14Z</time>
      </trkpt>
      <trkpt lat="43.5676" lon="3.68239">
        <ele>140</ele>
        <time>2021-04-15T15:09:14Z</time>
      </trkpt>
      <trkpt lat="43.56759" lon="3.68241">
        <ele>135.4</ele>
        <time>2021-04-15T15:09:16Z</time>
      </trkpt>
      <trkpt lat="43.56759" lon="3.68241">
        <ele>140</ele>
        <time>2021-04-15T15:09:16Z</time>
      </trkpt>
      <trkpt lat="43.56759" lon="3.68243">
        <ele>135.4</ele>
        <time>2021-04-15T15:09:17Z</time>
      </trkpt>
      <trkpt lat="43.56759" lon="3.68243">
        <ele>140</ele>
        <time>2021-04-15T15:09:17Z</time>
      </trkpt>
      <trkpt lat="43.56758" lon="3.68245">
        <ele>135.3</ele>
        <time>2021-04-15T15:09:19Z</time>
      </trkpt>
      <trkpt lat="43.56758" lon="3.68245">
        <ele>140</ele>
        <time>2021-04-15T15:09:19Z</time>
      </trkpt>
      <trkpt lat="43.56758" lon="3.68247">
        <ele>135.3</ele>
        <time>2021-04-15T15:09:21Z</time>
      </trkpt>
      <trkpt lat="43.56758" lon="3.68247">
        <ele>140</ele>
        <time>2021-04-15T15:09:21Z</time>
      </trkpt>
      <trkpt lat="43.56757" lon="3.6825">
        <ele>135.3</ele>
        <time>2021-04-15T15:09:23Z</time>
      </trkpt>
      <trkpt lat="43.56757" lon="3.6825">
        <ele>138</ele>
        <time>2021-04-15T15:09:23Z</time>
      </trkpt>
      <trkpt lat="43.56756" lon="3.68253">
        <ele>135.1</ele>
        <time>2021-04-15T15:09:25Z</time>
      </trkpt>
      <trkpt lat="43.56756" lon="3.68253">
        <ele>138</ele>
        <time>2021-04-15T15:09:25Z</time>
      </trkpt>
      <trkpt lat="43.56756" lon="3.68256">
        <ele>135</ele>
        <time>2021-04-15T15:09:26Z</time>
      </trkpt>
      <trkpt lat="43.56756" lon="3.68256">
        <ele>138</ele>
        <time>2021-04-15T15:09:26Z</time>
      </trkpt>
      <trkpt lat="43.56756" lon="3.68258">
        <ele>135</ele>
        <time>2021-04-15T15:09:28Z</time>
      </trkpt>
      <trkpt lat="43.56756" lon="3.68258">
        <ele>138</ele>
        <time>2021-04-15T15:09:28Z</time>
      </trkpt>
      <trkpt lat="43.56756" lon="3.68261">
        <ele>134.9</ele>
        <time>2021-04-15T15:09:29Z</time>
      </trkpt>
      <trkpt lat="43.56756" lon="3.68261">
        <ele>138</ele>
        <time>2021-04-15T15:09:29Z</time>
      </trkpt>
      <trkpt lat="43.56756" lon="3.68264">
        <ele>134.9</ele>
        <time>2021-04-15T15:09:31Z</time>
      </trkpt>
      <trkpt lat="43.56756" lon="3.68264">
        <ele>138</ele>
        <time>2021-04-15T15:09:31Z</time>
      </trkpt>
      <trkpt lat="43.56756" lon="3.68266">
        <ele>134.9</ele>
        <time>2021-04-15T15:09:32Z</time>
      </trkpt>
      <trkpt lat="43.56756" lon="3.68266">
        <ele>138</ele>
        <time>2021-04-15T15:09:32Z</time>
      </trkpt>
      <trkpt lat="43.56756" lon="3.68268">
        <ele>135</ele>
        <time>2021-04-15T15:09:34Z</time>
      </trkpt>
      <trkpt lat="43.56756" lon="3.68268">
        <ele>138</ele>
        <time>2021-04-15T15:09:34Z</time>
      </trkpt>
      <trkpt lat="43.56757" lon="3.6827">
        <ele>135.1</ele>
        <time>2021-04-15T15:09:35Z</time>
      </trkpt>
      <trkpt lat="43.56757" lon="3.6827">
        <ele>138</ele>
        <time>2021-04-15T15:09:35Z</time>
      </trkpt>
      <trkpt lat="43.56757" lon="3.68272">
        <ele>135.1</ele>
        <time>2021-04-15T15:09:36Z</time>
      </trkpt>
      <trkpt lat="43.56757" lon="3.68272">
        <ele>138</ele>
        <time>2021-04-15T15:09:36Z</time>
      </trkpt>
      <trkpt lat="43.56758" lon="3.68275">
        <ele>135.1</ele>
        <time>2021-04-15T15:09:38Z</time>
      </trkpt>
      <trkpt lat="43.56758" lon="3.68275">
        <ele>138</ele>
        <time>2021-04-15T15:09:38Z</time>
      </trkpt>
      <trkpt lat="43.56758" lon="3.68277">
        <ele>135.1</ele>
        <time>2021-04-15T15:09:40Z</time>
      </trkpt>
      <trkpt lat="43.56758" lon="3.68277">
        <ele>137</ele>
        <time>2021-04-15T15:09:40Z</time>
      </trkpt>
      <trkpt lat="43.56757" lon="3.6828">
        <ele>135</ele>
        <time>2021-04-15T15:09:41Z</time>
      </trkpt>
      <trkpt lat="43.56757" lon="3.6828">
        <ele>137</ele>
        <time>2021-04-15T15:09:41Z</time>
      </trkpt>
      <trkpt lat="43.56757" lon="3.68282">
        <ele>134.9</ele>
        <time>2021-04-15T15:09:43Z</time>
      </trkpt>
      <trkpt lat="43.56757" lon="3.68282">
        <ele>137</ele>
        <time>2021-04-15T15:09:43Z</time>
      </trkpt>
      <trkpt lat="43.56757" lon="3.68286">
        <ele>134.8</ele>
        <time>2021-04-15T15:09:45Z</time>
      </trkpt>
      <trkpt lat="43.56757" lon="3.68286">
        <ele>137</ele>
        <time>2021-04-15T15:09:45Z</time>
      </trkpt>
      <trkpt lat="43.56756" lon="3.68289">
        <ele>134.7</ele>
        <time>2021-04-15T15:09:46Z</time>
      </trkpt>
      <trkpt lat="43.56756" lon="3.68289">
        <ele>137</ele>
        <time>2021-04-15T15:09:46Z</time>
      </trkpt>
      <trkpt lat="43.56756" lon="3.68291">
        <ele>134.5</ele>
        <time>2021-04-15T15:09:47Z</time>
      </trkpt>
      <trkpt lat="43.56756" lon="3.68291">
        <ele>137</ele>
        <time>2021-04-15T15:09:47Z</time>
      </trkpt>
      <trkpt lat="43.56755" lon="3.68295">
        <ele>134.3</ele>
        <time>2021-04-15T15:09:49Z</time>
      </trkpt>
      <trkpt lat="43.56755" lon="3.68295">
        <ele>137</ele>
        <time>2021-04-15T15:09:49Z</time>
      </trkpt>
      <trkpt lat="43.56754" lon="3.68298">
        <ele>134</ele>
        <time>2021-04-15T15:09:51Z</time>
      </trkpt>
      <trkpt lat="43.56754" lon="3.68298">
        <ele>137</ele>
        <time>2021-04-15T15:09:51Z</time>
      </trkpt>
      <trkpt lat="43.56753" lon="3.68302">
        <ele>133.7</ele>
        <time>2021-04-15T15:09:53Z</time>
      </trkpt>
      <trkpt lat="43.56753" lon="3.68302">
        <ele>137</ele>
        <time>2021-04-15T15:09:53Z</time>
      </trkpt>
      <trkpt lat="43.56751" lon="3.68305">
        <ele>133.3</ele>
        <time>2021-04-15T15:09:55Z</time>
      </trkpt>
      <trkpt lat="43.56751" lon="3.68305">
        <ele>137</ele>
        <time>2021-04-15T15:09:55Z</time>
      </trkpt>
      <trkpt lat="43.56751" lon="3.68308">
        <ele>133.1</ele>
        <time>2021-04-15T15:09:56Z</time>
      </trkpt>
      <trkpt lat="43.56751" lon="3.68308">
        <ele>137</ele>
        <time>2021-04-15T15:09:56Z</time>
      </trkpt>
      <trkpt lat="43.5675" lon="3.6831">
        <ele>133</ele>
        <time>2021-04-15T15:09:57Z</time>
      </trkpt>
      <trkpt lat="43.5675" lon="3.6831">
        <ele>137</ele>
        <time>2021-04-15T15:09:57Z</time>
      </trkpt>
      <trkpt lat="43.56749" lon="3.68313">
        <ele>132.9</ele>
        <time>2021-04-15T15:09:59Z</time>
      </trkpt>
      <trkpt lat="43.56749" lon="3.68313">
        <ele>137</ele>
        <time>2021-04-15T15:09:59Z</time>
      </trkpt>
      <trkpt lat="43.56748" lon="3.68316">
        <ele>132.8</ele>
        <time>2021-04-15T15:10:00Z</time>
      </trkpt>
      <trkpt lat="43.56748" lon="3.68316">
        <ele>137</ele>
        <time>2021-04-15T15:10:00Z</time>
      </trkpt>
      <trkpt lat="43.56748" lon="3.68318">
        <ele>132.7</ele>
        <time>2021-04-15T15:10:01Z</time>
      </trkpt>
      <trkpt lat="43.56748" lon="3.68318">
        <ele>137</ele>
        <time>2021-04-15T15:10:01Z</time>
      </trkpt>
      <trkpt lat="43.56747" lon="3.68321">
        <ele>132.7</ele>
        <time>2021-04-15T15:10:03Z</time>
      </trkpt>
      <trkpt lat="43.56747" lon="3.68321">
        <ele>137</ele>
        <time>2021-04-15T15:10:03Z</time>
      </trkpt>
      <trkpt lat="43.56747" lon="3.68323">
        <ele>132.6</ele>
        <time>2021-04-15T15:10:04Z</time>
      </trkpt>
      <trkpt lat="43.56747" lon="3.68323">
        <ele>137</ele>
        <time>2021-04-15T15:10:04Z</time>
      </trkpt>
      <trkpt lat="43.56746" lon="3.68326">
        <ele>132.6</ele>
        <time>2021-04-15T15:10:06Z</time>
      </trkpt>
      <trkpt lat="43.56746" lon="3.68326">
        <ele>137</ele>
        <time>2021-04-15T15:10:06Z</time>
      </trkpt>
      <trkpt lat="43.56746" lon="3.68328">
        <ele>132.5</ele>
        <time>2021-04-15T15:10:07Z</time>
      </trkpt>
      <trkpt lat="43.56746" lon="3.68328">
        <ele>137</ele>
        <time>2021-04-15T15:10:07Z</time>
      </trkpt>
      <trkpt lat="43.56745" lon="3.68331">
        <ele>132.5</ele>
        <time>2021-04-15T15:10:09Z</time>
      </trkpt>
      <trkpt lat="43.56745" lon="3.68331">
        <ele>137</ele>
        <time>2021-04-15T15:10:09Z</time>
      </trkpt>
      <trkpt lat="43.56745" lon="3.68333">
        <ele>132.4</ele>
        <time>2021-04-15T15:10:10Z</time>
      </trkpt>
      <trkpt lat="43.56745" lon="3.68333">
        <ele>137</ele>
        <time>2021-04-15T15:10:10Z</time>
      </trkpt>
      <trkpt lat="43.56744" lon="3.68335">
        <ele>132.4</ele>
        <time>2021-04-15T15:10:12Z</time>
      </trkpt>
      <trkpt lat="43.56744" lon="3.68335">
        <ele>136</ele>
        <time>2021-04-15T15:10:12Z</time>
      </trkpt>
      <trkpt lat="43.56742" lon="3.68338">
        <ele>132.3</ele>
        <time>2021-04-15T15:10:13Z</time>
      </trkpt>
      <trkpt lat="43.56742" lon="3.68338">
        <ele>136</ele>
        <time>2021-04-15T15:10:13Z</time>
      </trkpt>
      <trkpt lat="43.5674" lon="3.6834">
        <ele>132.2</ele>
        <time>2021-04-15T15:10:14Z</time>
      </trkpt>
      <trkpt lat="43.5674" lon="3.6834">
        <ele>136</ele>
        <time>2021-04-15T15:10:14Z</time>
      </trkpt>
      <trkpt lat="43.56739" lon="3.68342">
        <ele>132.1</ele>
        <time>2021-04-15T15:10:16Z</time>
      </trkpt>
      <trkpt lat="43.56739" lon="3.68342">
        <ele>136</ele>
        <time>2021-04-15T15:10:16Z</time>
      </trkpt>
      <trkpt lat="43.56737" lon="3.68344">
        <ele>132</ele>
        <time>2021-04-15T15:10:17Z</time>
      </trkpt>
      <trkpt lat="43.56737" lon="3.68344">
        <ele>136</ele>
        <time>2021-04-15T15:10:17Z</time>
      </trkpt>
      <trkpt lat="43.56736" lon="3.68346">
        <ele>132</ele>
        <time>2021-04-15T15:10:19Z</time>
      </trkpt>
      <trkpt lat="43.56736" lon="3.68346">
        <ele>136</ele>
        <time>2021-04-15T15:10:19Z</time>
      </trkpt>
      <trkpt lat="43.56735" lon="3.68348">
        <ele>131.9</ele>
        <time>2021-04-15T15:10:21Z</time>
      </trkpt>
      <trkpt lat="43.56735" lon="3.68348">
        <ele>136</ele>
        <time>2021-04-15T15:10:21Z</time>
      </trkpt>
      <trkpt lat="43.56733" lon="3.6835">
        <ele>131.8</ele>
        <time>2021-04-15T15:10:23Z</time>
      </trkpt>
      <trkpt lat="43.56733" lon="3.6835">
        <ele>136</ele>
        <time>2021-04-15T15:10:23Z</time>
      </trkpt>
      <trkpt lat="43.56732" lon="3.68352">
        <ele>131.7</ele>
        <time>2021-04-15T15:10:24Z</time>
      </trkpt>
      <trkpt lat="43.56732" lon="3.68352">
        <ele>136</ele>
        <time>2021-04-15T15:10:24Z</time>
      </trkpt>
      <trkpt lat="43.56731" lon="3.68354">
        <ele>131.6</ele>
        <time>2021-04-15T15:10:25Z</time>
      </trkpt>
      <trkpt lat="43.56731" lon="3.68354">
        <ele>136</ele>
        <time>2021-04-15T15:10:25Z</time>
      </trkpt>
      <trkpt lat="43.56729" lon="3.68356">
        <ele>131.6</ele>
        <time>2021-04-15T15:10:27Z</time>
      </trkpt>
      <trkpt lat="43.56729" lon="3.68356">
        <ele>136</ele>
        <time>2021-04-15T15:10:27Z</time>
      </trkpt>
      <trkpt lat="43.56728" lon="3.68359">
        <ele>131.5</ele>
        <time>2021-04-15T15:10:29Z</time>
      </trkpt>
      <trkpt lat="43.56728" lon="3.68359">
        <ele>136</ele>
        <time>2021-04-15T15:10:29Z</time>
      </trkpt>
      <trkpt lat="43.56726" lon="3.68361">
        <ele>131.4</ele>
        <time>2021-04-15T15:10:30Z</time>
      </trkpt>
      <trkpt lat="43.56726" lon="3.68361">
        <ele>136</ele>
        <time>2021-04-15T15:10:30Z</time>
      </trkpt>
      <trkpt lat="43.56725" lon="3.68364">
        <ele>131.3</ele>
        <time>2021-04-15T15:10:31Z</time>
      </trkpt>
      <trkpt lat="43.56725" lon="3.68364">
        <ele>136</ele>
        <time>2021-04-15T15:10:31Z</time>
      </trkpt>
      <trkpt lat="43.56723" lon="3.68367">
        <ele>131.3</ele>
        <time>2021-04-15T15:10:33Z</time>
      </trkpt>
      <trkpt lat="43.56723" lon="3.68367">
        <ele>136</ele>
        <time>2021-04-15T15:10:33Z</time>
      </trkpt>
      <trkpt lat="43.56721" lon="3.68369">
        <ele>131.1</ele>
        <time>2021-04-15T15:10:34Z</time>
      </trkpt>
      <trkpt lat="43.56721" lon="3.68369">
        <ele>136</ele>
        <time>2021-04-15T15:10:34Z</time>
      </trkpt>
      <trkpt lat="43.5672" lon="3.68371">
        <ele>131</ele>
        <time>2021-04-15T15:10:36Z</time>
      </trkpt>
      <trkpt lat="43.5672" lon="3.68371">
        <ele>136</ele>
        <time>2021-04-15T15:10:36Z</time>
      </trkpt>
      <trkpt lat="43.56718" lon="3.68374">
        <ele>131</ele>
        <time>2021-04-15T15:10:37Z</time>
      </trkpt>
      <trkpt lat="43.56718" lon="3.68374">
        <ele>136</ele>
        <time>2021-04-15T15:10:37Z</time>
      </trkpt>
      <trkpt lat="43.56717" lon="3.68376">
        <ele>130.9</ele>
        <time>2021-04-15T15:10:39Z</time>
      </trkpt>
      <trkpt lat="43.56717" lon="3.68376">
        <ele>136</ele>
        <time>2021-04-15T15:10:39Z</time>
      </trkpt>
      <trkpt lat="43.56716" lon="3.68378">
        <ele>130.8</ele>
        <time>2021-04-15T15:10:41Z</time>
      </trkpt>
      <trkpt lat="43.56716" lon="3.68378">
        <ele>136</ele>
        <time>2021-04-15T15:10:41Z</time>
      </trkpt>
      <trkpt lat="43.56714" lon="3.6838">
        <ele>130.7</ele>
        <time>2021-04-15T15:10:42Z</time>
      </trkpt>
      <trkpt lat="43.56714" lon="3.6838">
        <ele>136</ele>
        <time>2021-04-15T15:10:42Z</time>
      </trkpt>
      <trkpt lat="43.56713" lon="3.68382">
        <ele>130.7</ele>
        <time>2021-04-15T15:10:44Z</time>
      </trkpt>
      <trkpt lat="43.56713" lon="3.68382">
        <ele>136</ele>
        <time>2021-04-15T15:10:44Z</time>
      </trkpt>
      <trkpt lat="43.56712" lon="3.68385">
        <ele>130.7</ele>
        <time>2021-04-15T15:10:46Z</time>
      </trkpt>
      <trkpt lat="43.56712" lon="3.68385">
        <ele>134</ele>
        <time>2021-04-15T15:10:46Z</time>
      </trkpt>
      <trkpt lat="43.56711" lon="3.68388">
        <ele>130.7</ele>
        <time>2021-04-15T15:10:47Z</time>
      </trkpt>
      <trkpt lat="43.56711" lon="3.68388">
        <ele>134</ele>
        <time>2021-04-15T15:10:47Z</time>
      </trkpt>
      <trkpt lat="43.5671" lon="3.6839">
        <ele>130.7</ele>
        <time>2021-04-15T15:10:49Z</time>
      </trkpt>
      <trkpt lat="43.5671" lon="3.6839">
        <ele>134</ele>
        <time>2021-04-15T15:10:49Z</time>
      </trkpt>
      <trkpt lat="43.56708" lon="3.68393">
        <ele>130.7</ele>
        <time>2021-04-15T15:10:51Z</time>
      </trkpt>
      <trkpt lat="43.56708" lon="3.68393">
        <ele>134</ele>
        <time>2021-04-15T15:10:51Z</time>
      </trkpt>
      <trkpt lat="43.56707" lon="3.68395">
        <ele>130.7</ele>
        <time>2021-04-15T15:10:52Z</time>
      </trkpt>
      <trkpt lat="43.56707" lon="3.68395">
        <ele>134</ele>
        <time>2021-04-15T15:10:52Z</time>
      </trkpt>
      <trkpt lat="43.56706" lon="3.68397">
        <ele>130.7</ele>
        <time>2021-04-15T15:10:54Z</time>
      </trkpt>
      <trkpt lat="43.56706" lon="3.68397">
        <ele>134</ele>
        <time>2021-04-15T15:10:54Z</time>
      </trkpt>
      <trkpt lat="43.56706" lon="3.684">
        <ele>130.8</ele>
        <time>2021-04-15T15:10:56Z</time>
      </trkpt>
      <trkpt lat="43.56706" lon="3.684">
        <ele>134</ele>
        <time>2021-04-15T15:10:56Z</time>
      </trkpt>
      <trkpt lat="43.56705" lon="3.68402">
        <ele>130.8</ele>
        <time>2021-04-15T15:10:57Z</time>
      </trkpt>
      <trkpt lat="43.56705" lon="3.68402">
        <ele>134</ele>
        <time>2021-04-15T15:10:57Z</time>
      </trkpt>
      <trkpt lat="43.56703" lon="3.68405">
        <ele>130.7</ele>
        <time>2021-04-15T15:10:59Z</time>
      </trkpt>
      <trkpt lat="43.56703" lon="3.68405">
        <ele>134</ele>
        <time>2021-04-15T15:10:59Z</time>
      </trkpt>
      <trkpt lat="43.56702" lon="3.68406">
        <ele>130.6</ele>
        <time>2021-04-15T15:11:00Z</time>
      </trkpt>
      <trkpt lat="43.56702" lon="3.68406">
        <ele>134</ele>
        <time>2021-04-15T15:11:00Z</time>
      </trkpt>
      <trkpt lat="43.567" lon="3.68408">
        <ele>130.5</ele>
        <time>2021-04-15T15:11:02Z</time>
      </trkpt>
      <trkpt lat="43.567" lon="3.68408">
        <ele>133</ele>
        <time>2021-04-15T15:11:02Z</time>
      </trkpt>
      <trkpt lat="43.56699" lon="3.6841">
        <ele>130.3</ele>
        <time>2021-04-15T15:11:04Z</time>
      </trkpt>
      <trkpt lat="43.56699" lon="3.6841">
        <ele>133</ele>
        <time>2021-04-15T15:11:04Z</time>
      </trkpt>
      <trkpt lat="43.56697" lon="3.68412">
        <ele>130.2</ele>
        <time>2021-04-15T15:11:05Z</time>
      </trkpt>
      <trkpt lat="43.56697" lon="3.68412">
        <ele>133</ele>
        <time>2021-04-15T15:11:05Z</time>
      </trkpt>
      <trkpt lat="43.56696" lon="3.68415">
        <ele>130.2</ele>
        <time>2021-04-15T15:11:07Z</time>
      </trkpt>
      <trkpt lat="43.56696" lon="3.68415">
        <ele>133</ele>
        <time>2021-04-15T15:11:07Z</time>
      </trkpt>
      <trkpt lat="43.56695" lon="3.68418">
        <ele>130.1</ele>
        <time>2021-04-15T15:11:09Z</time>
      </trkpt>
      <trkpt lat="43.56695" lon="3.68418">
        <ele>133</ele>
        <time>2021-04-15T15:11:09Z</time>
      </trkpt>
      <trkpt lat="43.56694" lon="3.6842">
        <ele>129.9</ele>
        <time>2021-04-15T15:11:10Z</time>
      </trkpt>
      <trkpt lat="43.56694" lon="3.6842">
        <ele>133</ele>
        <time>2021-04-15T15:11:10Z</time>
      </trkpt>
      <trkpt lat="43.56692" lon="3.68423">
        <ele>129.8</ele>
        <time>2021-04-15T15:11:12Z</time>
      </trkpt>
      <trkpt lat="43.56692" lon="3.68423">
        <ele>133</ele>
        <time>2021-04-15T15:11:12Z</time>
      </trkpt>
      <trkpt lat="43.5669" lon="3.68426">
        <ele>129.6</ele>
        <time>2021-04-15T15:11:14Z</time>
      </trkpt>
      <trkpt lat="43.5669" lon="3.68426">
        <ele>133</ele>
        <time>2021-04-15T15:11:14Z</time>
      </trkpt>
      <trkpt lat="43.56689" lon="3.68429">
        <ele>129.4</ele>
        <time>2021-04-15T15:11:15Z</time>
      </trkpt>
      <trkpt lat="43.56689" lon="3.68429">
        <ele>133</ele>
        <time>2021-04-15T15:11:15Z</time>
      </trkpt>
      <trkpt lat="43.56687" lon="3.68432">
        <ele>129.2</ele>
        <time>2021-04-15T15:11:17Z</time>
      </trkpt>
      <trkpt lat="43.56687" lon="3.68432">
        <ele>133</ele>
        <time>2021-04-15T15:11:17Z</time>
      </trkpt>
      <trkpt lat="43.56686" lon="3.68434">
        <ele>129.1</ele>
        <time>2021-04-15T15:11:18Z</time>
      </trkpt>
      <trkpt lat="43.56686" lon="3.68434">
        <ele>133</ele>
        <time>2021-04-15T15:11:18Z</time>
      </trkpt>
      <trkpt lat="43.56684" lon="3.68436">
        <ele>128.9</ele>
        <time>2021-04-15T15:11:19Z</time>
      </trkpt>
      <trkpt lat="43.56684" lon="3.68436">
        <ele>132</ele>
        <time>2021-04-15T15:11:19Z</time>
      </trkpt>
      <trkpt lat="43.56683" lon="3.68439">
        <ele>128.8</ele>
        <time>2021-04-15T15:11:21Z</time>
      </trkpt>
      <trkpt lat="43.56683" lon="3.68439">
        <ele>132</ele>
        <time>2021-04-15T15:11:21Z</time>
      </trkpt>
      <trkpt lat="43.56682" lon="3.68442">
        <ele>128.7</ele>
        <time>2021-04-15T15:11:23Z</time>
      </trkpt>
      <trkpt lat="43.56682" lon="3.68442">
        <ele>132</ele>
        <time>2021-04-15T15:11:23Z</time>
      </trkpt>
      <trkpt lat="43.56681" lon="3.68445">
        <ele>128.5</ele>
        <time>2021-04-15T15:11:25Z</time>
      </trkpt>
      <trkpt lat="43.56681" lon="3.68445">
        <ele>132</ele>
        <time>2021-04-15T15:11:25Z</time>
      </trkpt>
      <trkpt lat="43.5668" lon="3.68448">
        <ele>128.4</ele>
        <time>2021-04-15T15:11:26Z</time>
      </trkpt>
      <trkpt lat="43.5668" lon="3.68448">
        <ele>132</ele>
        <time>2021-04-15T15:11:26Z</time>
      </trkpt>
      <trkpt lat="43.5668" lon="3.6845">
        <ele>128.4</ele>
        <time>2021-04-15T15:11:27Z</time>
      </trkpt>
      <trkpt lat="43.5668" lon="3.6845">
        <ele>132</ele>
        <time>2021-04-15T15:11:27Z</time>
      </trkpt>
      <trkpt lat="43.56679" lon="3.68452">
        <ele>128.4</ele>
        <time>2021-04-15T15:11:28Z</time>
      </trkpt>
      <trkpt lat="43.56679" lon="3.68452">
        <ele>132</ele>
        <time>2021-04-15T15:11:28Z</time>
      </trkpt>
      <trkpt lat="43.56679" lon="3.68455">
        <ele>128.3</ele>
        <time>2021-04-15T15:11:30Z</time>
      </trkpt>
      <trkpt lat="43.56679" lon="3.68455">
        <ele>132</ele>
        <time>2021-04-15T15:11:30Z</time>
      </trkpt>
      <trkpt lat="43.56678" lon="3.68457">
        <ele>128.3</ele>
        <time>2021-04-15T15:11:32Z</time>
      </trkpt>
      <trkpt lat="43.56678" lon="3.68457">
        <ele>132</ele>
        <time>2021-04-15T15:11:32Z</time>
      </trkpt>
      <trkpt lat="43.56678" lon="3.6846">
        <ele>128.2</ele>
        <time>2021-04-15T15:11:34Z</time>
      </trkpt>
      <trkpt lat="43.56678" lon="3.6846">
        <ele>132</ele>
        <time>2021-04-15T15:11:34Z</time>
      </trkpt>
      <trkpt lat="43.56677" lon="3.68462">
        <ele>128.1</ele>
        <time>2021-04-15T15:11:35Z</time>
      </trkpt>
      <trkpt lat="43.56677" lon="3.68462">
        <ele>132</ele>
        <time>2021-04-15T15:11:35Z</time>
      </trkpt>
      <trkpt lat="43.56676" lon="3.68464">
        <ele>128</ele>
        <time>2021-04-15T15:11:36Z</time>
      </trkpt>
      <trkpt lat="43.56676" lon="3.68464">
        <ele>131</ele>
        <time>2021-04-15T15:11:36Z</time>
      </trkpt>
      <trkpt lat="43.56675" lon="3.68466">
        <ele>127.9</ele>
        <time>2021-04-15T15:11:37Z</time>
      </trkpt>
      <trkpt lat="43.56675" lon="3.68466">
        <ele>131</ele>
        <time>2021-04-15T15:11:37Z</time>
      </trkpt>
      <trkpt lat="43.56674" lon="3.68467">
        <ele>127.8</ele>
        <time>2021-04-15T15:11:38Z</time>
      </trkpt>
      <trkpt lat="43.56674" lon="3.68467">
        <ele>131</ele>
        <time>2021-04-15T15:11:38Z</time>
      </trkpt>
      <trkpt lat="43.56673" lon="3.6847">
        <ele>127.7</ele>
        <time>2021-04-15T15:11:40Z</time>
      </trkpt>
      <trkpt lat="43.56673" lon="3.6847">
        <ele>131</ele>
        <time>2021-04-15T15:11:40Z</time>
      </trkpt>
      <trkpt lat="43.56672" lon="3.68472">
        <ele>127.6</ele>
        <time>2021-04-15T15:11:41Z</time>
      </trkpt>
      <trkpt lat="43.56672" lon="3.68472">
        <ele>131</ele>
        <time>2021-04-15T15:11:41Z</time>
      </trkpt>
      <trkpt lat="43.56671" lon="3.68475">
        <ele>127.4</ele>
        <time>2021-04-15T15:11:43Z</time>
      </trkpt>
      <trkpt lat="43.56671" lon="3.68475">
        <ele>131</ele>
        <time>2021-04-15T15:11:43Z</time>
      </trkpt>
      <trkpt lat="43.5667" lon="3.68478">
        <ele>127.3</ele>
        <time>2021-04-15T15:11:45Z</time>
      </trkpt>
      <trkpt lat="43.5667" lon="3.68478">
        <ele>131</ele>
        <time>2021-04-15T15:11:45Z</time>
      </trkpt>
      <trkpt lat="43.56669" lon="3.68481">
        <ele>127.2</ele>
        <time>2021-04-15T15:11:47Z</time>
      </trkpt>
      <trkpt lat="43.56669" lon="3.68481">
        <ele>131</ele>
        <time>2021-04-15T15:11:47Z</time>
      </trkpt>
      <trkpt lat="43.56668" lon="3.68484">
        <ele>127.1</ele>
        <time>2021-04-15T15:11:48Z</time>
      </trkpt>
      <trkpt lat="43.56668" lon="3.68484">
        <ele>131</ele>
        <time>2021-04-15T15:11:48Z</time>
      </trkpt>
      <trkpt lat="43.56668" lon="3.68487">
        <ele>127.1</ele>
        <time>2021-04-15T15:11:49Z</time>
      </trkpt>
      <trkpt lat="43.56668" lon="3.68487">
        <ele>131</ele>
        <time>2021-04-15T15:11:49Z</time>
      </trkpt>
      <trkpt lat="43.56667" lon="3.68489">
        <ele>127</ele>
        <time>2021-04-15T15:11:51Z</time>
      </trkpt>
      <trkpt lat="43.56667" lon="3.68489">
        <ele>131</ele>
        <time>2021-04-15T15:11:51Z</time>
      </trkpt>
      <trkpt lat="43.56666" lon="3.68492">
        <ele>127</ele>
        <time>2021-04-15T15:11:52Z</time>
      </trkpt>
      <trkpt lat="43.56666" lon="3.68492">
        <ele>131</ele>
        <time>2021-04-15T15:11:52Z</time>
      </trkpt>
      <trkpt lat="43.56665" lon="3.68494">
        <ele>126.9</ele>
        <time>2021-04-15T15:11:54Z</time>
      </trkpt>
      <trkpt lat="43.56665" lon="3.68494">
        <ele>130</ele>
        <time>2021-04-15T15:11:54Z</time>
      </trkpt>
      <trkpt lat="43.56664" lon="3.68496">
        <ele>126.9</ele>
        <time>2021-04-15T15:11:55Z</time>
      </trkpt>
      <trkpt lat="43.56664" lon="3.68496">
        <ele>130</ele>
        <time>2021-04-15T15:11:55Z</time>
      </trkpt>
      <trkpt lat="43.56663" lon="3.68498">
        <ele>126.9</ele>
        <time>2021-04-15T15:11:56Z</time>
      </trkpt>
      <trkpt lat="43.56663" lon="3.68498">
        <ele>130</ele>
        <time>2021-04-15T15:11:56Z</time>
      </trkpt>
      <trkpt lat="43.56662" lon="3.685">
        <ele>126.8</ele>
        <time>2021-04-15T15:11:57Z</time>
      </trkpt>
      <trkpt lat="43.56662" lon="3.685">
        <ele>130</ele>
        <time>2021-04-15T15:11:57Z</time>
      </trkpt>
      <trkpt lat="43.56661" lon="3.68502">
        <ele>126.7</ele>
        <time>2021-04-15T15:11:59Z</time>
      </trkpt>
      <trkpt lat="43.56661" lon="3.68502">
        <ele>130</ele>
        <time>2021-04-15T15:11:59Z</time>
      </trkpt>
      <trkpt lat="43.56659" lon="3.68504">
        <ele>126.6</ele>
        <time>2021-04-15T15:12:00Z</time>
      </trkpt>
      <trkpt lat="43.56659" lon="3.68504">
        <ele>130</ele>
        <time>2021-04-15T15:12:00Z</time>
      </trkpt>
      <trkpt lat="43.56658" lon="3.68506">
        <ele>126.5</ele>
        <time>2021-04-15T15:12:02Z</time>
      </trkpt>
      <trkpt lat="43.56658" lon="3.68506">
        <ele>130</ele>
        <time>2021-04-15T15:12:02Z</time>
      </trkpt>
      <trkpt lat="43.56657" lon="3.68508">
        <ele>126.5</ele>
        <time>2021-04-15T15:12:04Z</time>
      </trkpt>
      <trkpt lat="43.56657" lon="3.68508">
        <ele>130</ele>
        <time>2021-04-15T15:12:04Z</time>
      </trkpt>
      <trkpt lat="43.56656" lon="3.68509">
        <ele>126.4</ele>
        <time>2021-04-15T15:12:05Z</time>
      </trkpt>
      <trkpt lat="43.56656" lon="3.68509">
        <ele>130</ele>
        <time>2021-04-15T15:12:05Z</time>
      </trkpt>
      <trkpt lat="43.56654" lon="3.68511">
        <ele>126.3</ele>
        <time>2021-04-15T15:12:07Z</time>
      </trkpt>
      <trkpt lat="43.56654" lon="3.68511">
        <ele>130</ele>
        <time>2021-04-15T15:12:07Z</time>
      </trkpt>
      <trkpt lat="43.56653" lon="3.68513">
        <ele>126.3</ele>
        <time>2021-04-15T15:12:08Z</time>
      </trkpt>
      <trkpt lat="43.56653" lon="3.68513">
        <ele>130</ele>
        <time>2021-04-15T15:12:08Z</time>
      </trkpt>
      <trkpt lat="43.56651" lon="3.68515">
        <ele>126.2</ele>
        <time>2021-04-15T15:12:10Z</time>
      </trkpt>
      <trkpt lat="43.56651" lon="3.68515">
        <ele>129</ele>
        <time>2021-04-15T15:12:10Z</time>
      </trkpt>
      <trkpt lat="43.56648" lon="3.68516">
        <ele>126.1</ele>
        <time>2021-04-15T15:12:12Z</time>
      </trkpt>
      <trkpt lat="43.56648" lon="3.68516">
        <ele>129</ele>
        <time>2021-04-15T15:12:12Z</time>
      </trkpt>
      <trkpt lat="43.56646" lon="3.68517">
        <ele>126.1</ele>
        <time>2021-04-15T15:12:14Z</time>
      </trkpt>
      <trkpt lat="43.56646" lon="3.68517">
        <ele>129</ele>
        <time>2021-04-15T15:12:14Z</time>
      </trkpt>
      <trkpt lat="43.56644" lon="3.68518">
        <ele>126.1</ele>
        <time>2021-04-15T15:12:15Z</time>
      </trkpt>
      <trkpt lat="43.56644" lon="3.68518">
        <ele>129</ele>
        <time>2021-04-15T15:12:15Z</time>
      </trkpt>
      <trkpt lat="43.56642" lon="3.68518">
        <ele>126</ele>
        <time>2021-04-15T15:12:17Z</time>
      </trkpt>
      <trkpt lat="43.56642" lon="3.68518">
        <ele>129</ele>
        <time>2021-04-15T15:12:17Z</time>
      </trkpt>
      <trkpt lat="43.5664" lon="3.68519">
        <ele>126</ele>
        <time>2021-04-15T15:12:19Z</time>
      </trkpt>
      <trkpt lat="43.5664" lon="3.68519">
        <ele>129</ele>
        <time>2021-04-15T15:12:19Z</time>
      </trkpt>
      <trkpt lat="43.56638" lon="3.68519">
        <ele>126</ele>
        <time>2021-04-15T15:12:20Z</time>
      </trkpt>
      <trkpt lat="43.56638" lon="3.68519">
        <ele>129</ele>
        <time>2021-04-15T15:12:20Z</time>
      </trkpt>
      <trkpt lat="43.56636" lon="3.68519">
        <ele>126</ele>
        <time>2021-04-15T15:12:22Z</time>
      </trkpt>
      <trkpt lat="43.56636" lon="3.68519">
        <ele>129</ele>
        <time>2021-04-15T15:12:22Z</time>
      </trkpt>
      <trkpt lat="43.56634" lon="3.6852">
        <ele>126</ele>
        <time>2021-04-15T15:12:24Z</time>
      </trkpt>
      <trkpt lat="43.56634" lon="3.6852">
        <ele>129</ele>
        <time>2021-04-15T15:12:24Z</time>
      </trkpt>
      <trkpt lat="43.56632" lon="3.68521">
        <ele>126</ele>
        <time>2021-04-15T15:12:25Z</time>
      </trkpt>
      <trkpt lat="43.56632" lon="3.68521">
        <ele>129</ele>
        <time>2021-04-15T15:12:25Z</time>
      </trkpt>
      <trkpt lat="43.56631" lon="3.68523">
        <ele>126</ele>
        <time>2021-04-15T15:12:26Z</time>
      </trkpt>
      <trkpt lat="43.56631" lon="3.68523">
        <ele>129</ele>
        <time>2021-04-15T15:12:26Z</time>
      </trkpt>
      <trkpt lat="43.56629" lon="3.68524">
        <ele>126</ele>
        <time>2021-04-15T15:12:28Z</time>
      </trkpt>
      <trkpt lat="43.56629" lon="3.68524">
        <ele>129</ele>
        <time>2021-04-15T15:12:28Z</time>
      </trkpt>
      <trkpt lat="43.56628" lon="3.68526">
        <ele>126</ele>
        <time>2021-04-15T15:12:30Z</time>
      </trkpt>
      <trkpt lat="43.56628" lon="3.68526">
        <ele>129</ele>
        <time>2021-04-15T15:12:30Z</time>
      </trkpt>
      <trkpt lat="43.56626" lon="3.68527">
        <ele>126</ele>
        <time>2021-04-15T15:12:31Z</time>
      </trkpt>
      <trkpt lat="43.56626" lon="3.68527">
        <ele>129</ele>
        <time>2021-04-15T15:12:31Z</time>
      </trkpt>
      <trkpt lat="43.56625" lon="3.68528">
        <ele>126</ele>
        <time>2021-04-15T15:12:32Z</time>
      </trkpt>
      <trkpt lat="43.56625" lon="3.68528">
        <ele>129</ele>
        <time>2021-04-15T15:12:32Z</time>
      </trkpt>
      <trkpt lat="43.56624" lon="3.6853">
        <ele>125.9</ele>
        <time>2021-04-15T15:12:34Z</time>
      </trkpt>
      <trkpt lat="43.56624" lon="3.6853">
        <ele>129</ele>
        <time>2021-04-15T15:12:34Z</time>
      </trkpt>
      <trkpt lat="43.56622" lon="3.68531">
        <ele>125.9</ele>
        <time>2021-04-15T15:12:35Z</time>
      </trkpt>
      <trkpt lat="43.56622" lon="3.68531">
        <ele>129</ele>
        <time>2021-04-15T15:12:35Z</time>
      </trkpt>
      <trkpt lat="43.56621" lon="3.68532">
        <ele>125.8</ele>
        <time>2021-04-15T15:12:37Z</time>
      </trkpt>
      <trkpt lat="43.56621" lon="3.68532">
        <ele>129</ele>
        <time>2021-04-15T15:12:37Z</time>
      </trkpt>
      <trkpt lat="43.56619" lon="3.68534">
        <ele>125.8</ele>
        <time>2021-04-15T15:12:39Z</time>
      </trkpt>
      <trkpt lat="43.56619" lon="3.68534">
        <ele>129</ele>
        <time>2021-04-15T15:12:39Z</time>
      </trkpt>
      <trkpt lat="43.56618" lon="3.68536">
        <ele>125.7</ele>
        <time>2021-04-15T15:12:40Z</time>
      </trkpt>
      <trkpt lat="43.56618" lon="3.68536">
        <ele>129</ele>
        <time>2021-04-15T15:12:40Z</time>
      </trkpt>
      <trkpt lat="43.56617" lon="3.68537">
        <ele>125.7</ele>
        <time>2021-04-15T15:12:41Z</time>
      </trkpt>
      <trkpt lat="43.56617" lon="3.68537">
        <ele>129</ele>
        <time>2021-04-15T15:12:41Z</time>
      </trkpt>
      <trkpt lat="43.56616" lon="3.68538">
        <ele>125.6</ele>
        <time>2021-04-15T15:12:42Z</time>
      </trkpt>
      <trkpt lat="43.56616" lon="3.68538">
        <ele>129</ele>
        <time>2021-04-15T15:12:42Z</time>
      </trkpt>
      <trkpt lat="43.56614" lon="3.6854">
        <ele>125.6</ele>
        <time>2021-04-15T15:12:44Z</time>
      </trkpt>
      <trkpt lat="43.56614" lon="3.6854">
        <ele>129</ele>
        <time>2021-04-15T15:12:44Z</time>
      </trkpt>
      <trkpt lat="43.56613" lon="3.68541">
        <ele>125.5</ele>
        <time>2021-04-15T15:12:45Z</time>
      </trkpt>
      <trkpt lat="43.56613" lon="3.68541">
        <ele>129</ele>
        <time>2021-04-15T15:12:45Z</time>
      </trkpt>
      <trkpt lat="43.56611" lon="3.68542">
        <ele>125.5</ele>
        <time>2021-04-15T15:12:47Z</time>
      </trkpt>
      <trkpt lat="43.56611" lon="3.68542">
        <ele>129</ele>
        <time>2021-04-15T15:12:47Z</time>
      </trkpt>
      <trkpt lat="43.56609" lon="3.68543">
        <ele>125.4</ele>
        <time>2021-04-15T15:12:48Z</time>
      </trkpt>
      <trkpt lat="43.56609" lon="3.68543">
        <ele>128</ele>
        <time>2021-04-15T15:12:48Z</time>
      </trkpt>
      <trkpt lat="43.56607" lon="3.68545">
        <ele>125.3</ele>
        <time>2021-04-15T15:12:50Z</time>
      </trkpt>
      <trkpt lat="43.56607" lon="3.68545">
        <ele>128</ele>
        <time>2021-04-15T15:12:50Z</time>
      </trkpt>
      <trkpt lat="43.56605" lon="3.68546">
        <ele>125.3</ele>
        <time>2021-04-15T15:12:52Z</time>
      </trkpt>
      <trkpt lat="43.56605" lon="3.68546">
        <ele>128</ele>
        <time>2021-04-15T15:12:52Z</time>
      </trkpt>
      <trkpt lat="43.56603" lon="3.68548">
        <ele>125.2</ele>
        <time>2021-04-15T15:12:54Z</time>
      </trkpt>
      <trkpt lat="43.56603" lon="3.68548">
        <ele>128</ele>
        <time>2021-04-15T15:12:54Z</time>
      </trkpt>
      <trkpt lat="43.56602" lon="3.68549">
        <ele>125.1</ele>
        <time>2021-04-15T15:12:55Z</time>
      </trkpt>
      <trkpt lat="43.56602" lon="3.68549">
        <ele>128</ele>
        <time>2021-04-15T15:12:55Z</time>
      </trkpt>
      <trkpt lat="43.56601" lon="3.68551">
        <ele>125.1</ele>
        <time>2021-04-15T15:12:57Z</time>
      </trkpt>
      <trkpt lat="43.56601" lon="3.68551">
        <ele>128</ele>
        <time>2021-04-15T15:12:57Z</time>
      </trkpt>
      <trkpt lat="43.566" lon="3.68553">
        <ele>125</ele>
        <time>2021-04-15T15:12:59Z</time>
      </trkpt>
      <trkpt lat="43.566" lon="3.68553">
        <ele>128</ele>
        <time>2021-04-15T15:12:59Z</time>
      </trkpt>
      <trkpt lat="43.56599" lon="3.68556">
        <ele>125</ele>
        <time>2021-04-15T15:13:00Z</time>
      </trkpt>
      <trkpt lat="43.56599" lon="3.68556">
        <ele>128</ele>
        <time>2021-04-15T15:13:00Z</time>
      </trkpt>
      <trkpt lat="43.56597" lon="3.68558">
        <ele>124.9</ele>
        <time>2021-04-15T15:13:02Z</time>
      </trkpt>
      <trkpt lat="43.56597" lon="3.68558">
        <ele>128</ele>
        <time>2021-04-15T15:13:02Z</time>
      </trkpt>
      <trkpt lat="43.56597" lon="3.68561">
        <ele>124.8</ele>
        <time>2021-04-15T15:13:04Z</time>
      </trkpt>
      <trkpt lat="43.56597" lon="3.68561">
        <ele>128</ele>
        <time>2021-04-15T15:13:04Z</time>
      </trkpt>
      <trkpt lat="43.56595" lon="3.68564">
        <ele>124.7</ele>
        <time>2021-04-15T15:13:06Z</time>
      </trkpt>
      <trkpt lat="43.56595" lon="3.68564">
        <ele>128</ele>
        <time>2021-04-15T15:13:06Z</time>
      </trkpt>
      <trkpt lat="43.56594" lon="3.68567">
        <ele>124.6</ele>
        <time>2021-04-15T15:13:08Z</time>
      </trkpt>
      <trkpt lat="43.56594" lon="3.68567">
        <ele>128</ele>
        <time>2021-04-15T15:13:08Z</time>
      </trkpt>
      <trkpt lat="43.56593" lon="3.6857">
        <ele>124.5</ele>
        <time>2021-04-15T15:13:10Z</time>
      </trkpt>
      <trkpt lat="43.56593" lon="3.6857">
        <ele>128</ele>
        <time>2021-04-15T15:13:10Z</time>
      </trkpt>
      <trkpt lat="43.56592" lon="3.68573">
        <ele>124.4</ele>
        <time>2021-04-15T15:13:11Z</time>
      </trkpt>
      <trkpt lat="43.56592" lon="3.68573">
        <ele>128</ele>
        <time>2021-04-15T15:13:11Z</time>
      </trkpt>
      <trkpt lat="43.56591" lon="3.68576">
        <ele>124.3</ele>
        <time>2021-04-15T15:13:13Z</time>
      </trkpt>
      <trkpt lat="43.56591" lon="3.68576">
        <ele>128</ele>
        <time>2021-04-15T15:13:13Z</time>
      </trkpt>
      <trkpt lat="43.5659" lon="3.68579">
        <ele>124.2</ele>
        <time>2021-04-15T15:13:15Z</time>
      </trkpt>
      <trkpt lat="43.5659" lon="3.68579">
        <ele>128</ele>
        <time>2021-04-15T15:13:15Z</time>
      </trkpt>
      <trkpt lat="43.56589" lon="3.68581">
        <ele>124.1</ele>
        <time>2021-04-15T15:13:16Z</time>
      </trkpt>
      <trkpt lat="43.56589" lon="3.68581">
        <ele>128</ele>
        <time>2021-04-15T15:13:16Z</time>
      </trkpt>
      <trkpt lat="43.56588" lon="3.68584">
        <ele>124</ele>
        <time>2021-04-15T15:13:18Z</time>
      </trkpt>
      <trkpt lat="43.56588" lon="3.68584">
        <ele>127</ele>
        <time>2021-04-15T15:13:18Z</time>
      </trkpt>
      <trkpt lat="43.56587" lon="3.68586">
        <ele>123.8</ele>
        <time>2021-04-15T15:13:19Z</time>
      </trkpt>
      <trkpt lat="43.56587" lon="3.68586">
        <ele>127</ele>
        <time>2021-04-15T15:13:19Z</time>
      </trkpt>
      <trkpt lat="43.56586" lon="3.68588">
        <ele>123.7</ele>
        <time>2021-04-15T15:13:21Z</time>
      </trkpt>
      <trkpt lat="43.56586" lon="3.68588">
        <ele>127</ele>
        <time>2021-04-15T15:13:21Z</time>
      </trkpt>
      <trkpt lat="43.56585" lon="3.6859">
        <ele>123.5</ele>
        <time>2021-04-15T15:13:22Z</time>
      </trkpt>
      <trkpt lat="43.56585" lon="3.6859">
        <ele>127</ele>
        <time>2021-04-15T15:13:22Z</time>
      </trkpt>
      <trkpt lat="43.56585" lon="3.68592">
        <ele>123.4</ele>
        <time>2021-04-15T15:13:23Z</time>
      </trkpt>
      <trkpt lat="43.56585" lon="3.68592">
        <ele>127</ele>
        <time>2021-04-15T15:13:23Z</time>
      </trkpt>
      <trkpt lat="43.56584" lon="3.68595">
        <ele>123.2</ele>
        <time>2021-04-15T15:13:25Z</time>
      </trkpt>
      <trkpt lat="43.56584" lon="3.68595">
        <ele>127</ele>
        <time>2021-04-15T15:13:25Z</time>
      </trkpt>
      <trkpt lat="43.56583" lon="3.68598">
        <ele>123</ele>
        <time>2021-04-15T15:13:27Z</time>
      </trkpt>
      <trkpt lat="43.56583" lon="3.68598">
        <ele>127</ele>
        <time>2021-04-15T15:13:27Z</time>
      </trkpt>
      <trkpt lat="43.56581" lon="3.686">
        <ele>122.9</ele>
        <time>2021-04-15T15:13:28Z</time>
      </trkpt>
      <trkpt lat="43.56581" lon="3.686">
        <ele>127</ele>
        <time>2021-04-15T15:13:28Z</time>
      </trkpt>
      <trkpt lat="43.5658" lon="3.68602">
        <ele>122.8</ele>
        <time>2021-04-15T15:13:29Z</time>
      </trkpt>
      <trkpt lat="43.5658" lon="3.68602">
        <ele>127</ele>
        <time>2021-04-15T15:13:29Z</time>
      </trkpt>
      <trkpt lat="43.56579" lon="3.68604">
        <ele>122.7</ele>
        <time>2021-04-15T15:13:31Z</time>
      </trkpt>
      <trkpt lat="43.56579" lon="3.68604">
        <ele>127</ele>
        <time>2021-04-15T15:13:31Z</time>
      </trkpt>
      <trkpt lat="43.56578" lon="3.68607">
        <ele>122.5</ele>
        <time>2021-04-15T15:13:33Z</time>
      </trkpt>
      <trkpt lat="43.56578" lon="3.68607">
        <ele>127</ele>
        <time>2021-04-15T15:13:33Z</time>
      </trkpt>
      <trkpt lat="43.56577" lon="3.68609">
        <ele>122.4</ele>
        <time>2021-04-15T15:13:34Z</time>
      </trkpt>
      <trkpt lat="43.56577" lon="3.68609">
        <ele>127</ele>
        <time>2021-04-15T15:13:34Z</time>
      </trkpt>
      <trkpt lat="43.56576" lon="3.68611">
        <ele>122.3</ele>
        <time>2021-04-15T15:13:36Z</time>
      </trkpt>
      <trkpt lat="43.56576" lon="3.68611">
        <ele>127</ele>
        <time>2021-04-15T15:13:36Z</time>
      </trkpt>
      <trkpt lat="43.56575" lon="3.68613">
        <ele>122.2</ele>
        <time>2021-04-15T15:13:38Z</time>
      </trkpt>
      <trkpt lat="43.56575" lon="3.68613">
        <ele>127</ele>
        <time>2021-04-15T15:13:38Z</time>
      </trkpt>
      <trkpt lat="43.56574" lon="3.68615">
        <ele>122.2</ele>
        <time>2021-04-15T15:13:39Z</time>
      </trkpt>
      <trkpt lat="43.56574" lon="3.68615">
        <ele>127</ele>
        <time>2021-04-15T15:13:39Z</time>
      </trkpt>
      <trkpt lat="43.56573" lon="3.68617">
        <ele>122.2</ele>
        <time>2021-04-15T15:13:40Z</time>
      </trkpt>
      <trkpt lat="43.56573" lon="3.68617">
        <ele>127</ele>
        <time>2021-04-15T15:13:40Z</time>
      </trkpt>
      <trkpt lat="43.56571" lon="3.68619">
        <ele>122.2</ele>
        <time>2021-04-15T15:13:42Z</time>
      </trkpt>
      <trkpt lat="43.56571" lon="3.68619">
        <ele>127</ele>
        <time>2021-04-15T15:13:42Z</time>
      </trkpt>
      <trkpt lat="43.5657" lon="3.6862">
        <ele>122.2</ele>
        <time>2021-04-15T15:13:43Z</time>
      </trkpt>
      <trkpt lat="43.5657" lon="3.6862">
        <ele>127</ele>
        <time>2021-04-15T15:13:43Z</time>
      </trkpt>
      <trkpt lat="43.56569" lon="3.68622">
        <ele>122.2</ele>
        <time>2021-04-15T15:13:44Z</time>
      </trkpt>
      <trkpt lat="43.56569" lon="3.68622">
        <ele>127</ele>
        <time>2021-04-15T15:13:44Z</time>
      </trkpt>
      <trkpt lat="43.56567" lon="3.68624">
        <ele>122.1</ele>
        <time>2021-04-15T15:13:46Z</time>
      </trkpt>
      <trkpt lat="43.56567" lon="3.68624">
        <ele>127</ele>
        <time>2021-04-15T15:13:46Z</time>
      </trkpt>
      <trkpt lat="43.56566" lon="3.68625">
        <ele>122.1</ele>
        <time>2021-04-15T15:13:48Z</time>
      </trkpt>
      <trkpt lat="43.56566" lon="3.68625">
        <ele>127</ele>
        <time>2021-04-15T15:13:48Z</time>
      </trkpt>
      <trkpt lat="43.56565" lon="3.68628">
        <ele>122.1</ele>
        <time>2021-04-15T15:13:50Z</time>
      </trkpt>
      <trkpt lat="43.56565" lon="3.68628">
        <ele>127</ele>
        <time>2021-04-15T15:13:50Z</time>
      </trkpt>
      <trkpt lat="43.56563" lon="3.6863">
        <ele>122.1</ele>
        <time>2021-04-15T15:13:51Z</time>
      </trkpt>
      <trkpt lat="43.56563" lon="3.6863">
        <ele>127</ele>
        <time>2021-04-15T15:13:51Z</time>
      </trkpt>
      <trkpt lat="43.56561" lon="3.68632">
        <ele>122</ele>
        <time>2021-04-15T15:13:53Z</time>
      </trkpt>
      <trkpt lat="43.56561" lon="3.68632">
        <ele>125</ele>
        <time>2021-04-15T15:13:53Z</time>
      </trkpt>
      <trkpt lat="43.56559" lon="3.68635">
        <ele>122</ele>
        <time>2021-04-15T15:13:55Z</time>
      </trkpt>
      <trkpt lat="43.56559" lon="3.68635">
        <ele>125</ele>
        <time>2021-04-15T15:13:55Z</time>
      </trkpt>
      <trkpt lat="43.56557" lon="3.68638">
        <ele>122</ele>
        <time>2021-04-15T15:13:57Z</time>
      </trkpt>
      <trkpt lat="43.56557" lon="3.68638">
        <ele>125</ele>
        <time>2021-04-15T15:13:57Z</time>
      </trkpt>
      <trkpt lat="43.56554" lon="3.68641">
        <ele>121.9</ele>
        <time>2021-04-15T15:13:59Z</time>
      </trkpt>
      <trkpt lat="43.56554" lon="3.68641">
        <ele>125</ele>
        <time>2021-04-15T15:13:59Z</time>
      </trkpt>
      <trkpt lat="43.56552" lon="3.68644">
        <ele>121.8</ele>
        <time>2021-04-15T15:14:01Z</time>
      </trkpt>
      <trkpt lat="43.56552" lon="3.68644">
        <ele>125</ele>
        <time>2021-04-15T15:14:01Z</time>
      </trkpt>
      <trkpt lat="43.5655" lon="3.68646">
        <ele>121.7</ele>
        <time>2021-04-15T15:14:02Z</time>
      </trkpt>
      <trkpt lat="43.5655" lon="3.68646">
        <ele>125</ele>
        <time>2021-04-15T15:14:02Z</time>
      </trkpt>
      <trkpt lat="43.56547" lon="3.68648">
        <ele>121.6</ele>
        <time>2021-04-15T15:14:04Z</time>
      </trkpt>
      <trkpt lat="43.56547" lon="3.68648">
        <ele>125</ele>
        <time>2021-04-15T15:14:04Z</time>
      </trkpt>
      <trkpt lat="43.56546" lon="3.6865">
        <ele>121.5</ele>
        <time>2021-04-15T15:14:06Z</time>
      </trkpt>
      <trkpt lat="43.56546" lon="3.6865">
        <ele>125</ele>
        <time>2021-04-15T15:14:06Z</time>
      </trkpt>
      <trkpt lat="43.56544" lon="3.68653">
        <ele>121.4</ele>
        <time>2021-04-15T15:14:08Z</time>
      </trkpt>
      <trkpt lat="43.56544" lon="3.68653">
        <ele>125</ele>
        <time>2021-04-15T15:14:08Z</time>
      </trkpt>
      <trkpt lat="43.56542" lon="3.68654">
        <ele>121.4</ele>
        <time>2021-04-15T15:14:09Z</time>
      </trkpt>
      <trkpt lat="43.56542" lon="3.68654">
        <ele>125</ele>
        <time>2021-04-15T15:14:09Z</time>
      </trkpt>
      <trkpt lat="43.56541" lon="3.68657">
        <ele>121.2</ele>
        <time>2021-04-15T15:14:11Z</time>
      </trkpt>
      <trkpt lat="43.56541" lon="3.68657">
        <ele>125</ele>
        <time>2021-04-15T15:14:11Z</time>
      </trkpt>
      <trkpt lat="43.56539" lon="3.68659">
        <ele>121.1</ele>
        <time>2021-04-15T15:14:13Z</time>
      </trkpt>
      <trkpt lat="43.56539" lon="3.68659">
        <ele>125</ele>
        <time>2021-04-15T15:14:13Z</time>
      </trkpt>
      <trkpt lat="43.56537" lon="3.68662">
        <ele>121</ele>
        <time>2021-04-15T15:14:15Z</time>
      </trkpt>
      <trkpt lat="43.56537" lon="3.68662">
        <ele>125</ele>
        <time>2021-04-15T15:14:15Z</time>
      </trkpt>
      <trkpt lat="43.56536" lon="3.68665">
        <ele>120.8</ele>
        <time>2021-04-15T15:14:17Z</time>
      </trkpt>
      <trkpt lat="43.56536" lon="3.68665">
        <ele>125</ele>
        <time>2021-04-15T15:14:17Z</time>
      </trkpt>
      <trkpt lat="43.56534" lon="3.68668">
        <ele>120.7</ele>
        <time>2021-04-15T15:14:18Z</time>
      </trkpt>
      <trkpt lat="43.56534" lon="3.68668">
        <ele>125</ele>
        <time>2021-04-15T15:14:18Z</time>
      </trkpt>
      <trkpt lat="43.56533" lon="3.6867">
        <ele>120.7</ele>
        <time>2021-04-15T15:14:20Z</time>
      </trkpt>
      <trkpt lat="43.56533" lon="3.6867">
        <ele>125</ele>
        <time>2021-04-15T15:14:20Z</time>
      </trkpt>
      <trkpt lat="43.56532" lon="3.68673">
        <ele>120.6</ele>
        <time>2021-04-15T15:14:22Z</time>
      </trkpt>
      <trkpt lat="43.56532" lon="3.68673">
        <ele>125</ele>
        <time>2021-04-15T15:14:22Z</time>
      </trkpt>
      <trkpt lat="43.56531" lon="3.68675">
        <ele>120.5</ele>
        <time>2021-04-15T15:14:23Z</time>
      </trkpt>
      <trkpt lat="43.56531" lon="3.68675">
        <ele>125</ele>
        <time>2021-04-15T15:14:23Z</time>
      </trkpt>
      <trkpt lat="43.56531" lon="3.68678">
        <ele>120.5</ele>
        <time>2021-04-15T15:14:25Z</time>
      </trkpt>
      <trkpt lat="43.56531" lon="3.68678">
        <ele>124</ele>
        <time>2021-04-15T15:14:25Z</time>
      </trkpt>
      <trkpt lat="43.5653" lon="3.6868">
        <ele>120.4</ele>
        <time>2021-04-15T15:14:27Z</time>
      </trkpt>
      <trkpt lat="43.5653" lon="3.6868">
        <ele>124</ele>
        <time>2021-04-15T15:14:27Z</time>
      </trkpt>
      <trkpt lat="43.56529" lon="3.68682">
        <ele>120.4</ele>
        <time>2021-04-15T15:14:28Z</time>
      </trkpt>
      <trkpt lat="43.56529" lon="3.68682">
        <ele>124</ele>
        <time>2021-04-15T15:14:28Z</time>
      </trkpt>
      <trkpt lat="43.56528" lon="3.68684">
        <ele>120.4</ele>
        <time>2021-04-15T15:14:30Z</time>
      </trkpt>
      <trkpt lat="43.56528" lon="3.68684">
        <ele>124</ele>
        <time>2021-04-15T15:14:30Z</time>
      </trkpt>
      <trkpt lat="43.56527" lon="3.68686">
        <ele>120.3</ele>
        <time>2021-04-15T15:14:31Z</time>
      </trkpt>
      <trkpt lat="43.56527" lon="3.68686">
        <ele>124</ele>
        <time>2021-04-15T15:14:31Z</time>
      </trkpt>
      <trkpt lat="43.56526" lon="3.68688">
        <ele>120.3</ele>
        <time>2021-04-15T15:14:32Z</time>
      </trkpt>
      <trkpt lat="43.56526" lon="3.68688">
        <ele>124</ele>
        <time>2021-04-15T15:14:32Z</time>
      </trkpt>
      <trkpt lat="43.56525" lon="3.68691">
        <ele>120.2</ele>
        <time>2021-04-15T15:14:34Z</time>
      </trkpt>
      <trkpt lat="43.56525" lon="3.68691">
        <ele>124</ele>
        <time>2021-04-15T15:14:34Z</time>
      </trkpt>
      <trkpt lat="43.56525" lon="3.68693">
        <ele>120.2</ele>
        <time>2021-04-15T15:14:35Z</time>
      </trkpt>
      <trkpt lat="43.56525" lon="3.68693">
        <ele>124</ele>
        <time>2021-04-15T15:14:35Z</time>
      </trkpt>
      <trkpt lat="43.56524" lon="3.68696">
        <ele>120.1</ele>
        <time>2021-04-15T15:14:36Z</time>
      </trkpt>
      <trkpt lat="43.56524" lon="3.68696">
        <ele>124</ele>
        <time>2021-04-15T15:14:36Z</time>
      </trkpt>
      <trkpt lat="43.56523" lon="3.68698">
        <ele>120.1</ele>
        <time>2021-04-15T15:14:37Z</time>
      </trkpt>
      <trkpt lat="43.56523" lon="3.68698">
        <ele>124</ele>
        <time>2021-04-15T15:14:37Z</time>
      </trkpt>
      <trkpt lat="43.56522" lon="3.687">
        <ele>120</ele>
        <time>2021-04-15T15:14:39Z</time>
      </trkpt>
      <trkpt lat="43.56522" lon="3.687">
        <ele>124</ele>
        <time>2021-04-15T15:14:39Z</time>
      </trkpt>
      <trkpt lat="43.56521" lon="3.68702">
        <ele>120</ele>
        <time>2021-04-15T15:14:40Z</time>
      </trkpt>
      <trkpt lat="43.56521" lon="3.68702">
        <ele>124</ele>
        <time>2021-04-15T15:14:40Z</time>
      </trkpt>
      <trkpt lat="43.5652" lon="3.68705">
        <ele>120</ele>
        <time>2021-04-15T15:14:42Z</time>
      </trkpt>
      <trkpt lat="43.5652" lon="3.68705">
        <ele>124</ele>
        <time>2021-04-15T15:14:42Z</time>
      </trkpt>
      <trkpt lat="43.56519" lon="3.68708">
        <ele>120</ele>
        <time>2021-04-15T15:14:44Z</time>
      </trkpt>
      <trkpt lat="43.56519" lon="3.68708">
        <ele>124</ele>
        <time>2021-04-15T15:14:44Z</time>
      </trkpt>
      <trkpt lat="43.56519" lon="3.68711">
        <ele>119.9</ele>
        <time>2021-04-15T15:14:45Z</time>
      </trkpt>
      <trkpt lat="43.56519" lon="3.68711">
        <ele>124</ele>
        <time>2021-04-15T15:14:45Z</time>
      </trkpt>
      <trkpt lat="43.56518" lon="3.68714">
        <ele>119.9</ele>
        <time>2021-04-15T15:14:47Z</time>
      </trkpt>
      <trkpt lat="43.56518" lon="3.68714">
        <ele>124</ele>
        <time>2021-04-15T15:14:47Z</time>
      </trkpt>
      <trkpt lat="43.56518" lon="3.68717">
        <ele>119.9</ele>
        <time>2021-04-15T15:14:49Z</time>
      </trkpt>
      <trkpt lat="43.56518" lon="3.68717">
        <ele>124</ele>
        <time>2021-04-15T15:14:49Z</time>
      </trkpt>
      <trkpt lat="43.56517" lon="3.6872">
        <ele>119.8</ele>
        <time>2021-04-15T15:14:50Z</time>
      </trkpt>
      <trkpt lat="43.56517" lon="3.6872">
        <ele>124</ele>
        <time>2021-04-15T15:14:50Z</time>
      </trkpt>
      <trkpt lat="43.56517" lon="3.68722">
        <ele>119.8</ele>
        <time>2021-04-15T15:14:51Z</time>
      </trkpt>
      <trkpt lat="43.56517" lon="3.68722">
        <ele>124</ele>
        <time>2021-04-15T15:14:51Z</time>
      </trkpt>
      <trkpt lat="43.56517" lon="3.68726">
        <ele>119.7</ele>
        <time>2021-04-15T15:14:53Z</time>
      </trkpt>
      <trkpt lat="43.56517" lon="3.68726">
        <ele>124</ele>
        <time>2021-04-15T15:14:53Z</time>
      </trkpt>
      <trkpt lat="43.56516" lon="3.68729">
        <ele>119.6</ele>
        <time>2021-04-15T15:14:55Z</time>
      </trkpt>
      <trkpt lat="43.56516" lon="3.68729">
        <ele>124</ele>
        <time>2021-04-15T15:14:55Z</time>
      </trkpt>
      <trkpt lat="43.56516" lon="3.68733">
        <ele>119.5</ele>
        <time>2021-04-15T15:14:57Z</time>
      </trkpt>
      <trkpt lat="43.56516" lon="3.68733">
        <ele>122</ele>
        <time>2021-04-15T15:14:57Z</time>
      </trkpt>
      <trkpt lat="43.56515" lon="3.68737">
        <ele>119.4</ele>
        <time>2021-04-15T15:14:59Z</time>
      </trkpt>
      <trkpt lat="43.56515" lon="3.68737">
        <ele>122</ele>
        <time>2021-04-15T15:14:59Z</time>
      </trkpt>
      <trkpt lat="43.56514" lon="3.6874">
        <ele>119.3</ele>
        <time>2021-04-15T15:15:01Z</time>
      </trkpt>
      <trkpt lat="43.56514" lon="3.6874">
        <ele>122</ele>
        <time>2021-04-15T15:15:01Z</time>
      </trkpt>
      <trkpt lat="43.56514" lon="3.68743">
        <ele>119.3</ele>
        <time>2021-04-15T15:15:02Z</time>
      </trkpt>
      <trkpt lat="43.56514" lon="3.68743">
        <ele>122</ele>
        <time>2021-04-15T15:15:02Z</time>
      </trkpt>
      <trkpt lat="43.56513" lon="3.68746">
        <ele>119.2</ele>
        <time>2021-04-15T15:15:04Z</time>
      </trkpt>
      <trkpt lat="43.56513" lon="3.68746">
        <ele>122</ele>
        <time>2021-04-15T15:15:04Z</time>
      </trkpt>
      <trkpt lat="43.56513" lon="3.6875">
        <ele>119.1</ele>
        <time>2021-04-15T15:15:06Z</time>
      </trkpt>
      <trkpt lat="43.56513" lon="3.6875">
        <ele>122</ele>
        <time>2021-04-15T15:15:06Z</time>
      </trkpt>
      <trkpt lat="43.56513" lon="3.68752">
        <ele>119.1</ele>
        <time>2021-04-15T15:15:07Z</time>
      </trkpt>
      <trkpt lat="43.56513" lon="3.68752">
        <ele>122</ele>
        <time>2021-04-15T15:15:07Z</time>
      </trkpt>
      <trkpt lat="43.56512" lon="3.68755">
        <ele>119</ele>
        <time>2021-04-15T15:15:09Z</time>
      </trkpt>
      <trkpt lat="43.56512" lon="3.68755">
        <ele>122</ele>
        <time>2021-04-15T15:15:09Z</time>
      </trkpt>
      <trkpt lat="43.56512" lon="3.68757">
        <ele>119</ele>
        <time>2021-04-15T15:15:10Z</time>
      </trkpt>
      <trkpt lat="43.56512" lon="3.68757">
        <ele>122</ele>
        <time>2021-04-15T15:15:10Z</time>
      </trkpt>
      <trkpt lat="43.56512" lon="3.68761">
        <ele>119</ele>
        <time>2021-04-15T15:15:12Z</time>
      </trkpt>
      <trkpt lat="43.56512" lon="3.68761">
        <ele>122</ele>
        <time>2021-04-15T15:15:12Z</time>
      </trkpt>
      <trkpt lat="43.56512" lon="3.68764">
        <ele>118.9</ele>
        <time>2021-04-15T15:15:13Z</time>
      </trkpt>
      <trkpt lat="43.56512" lon="3.68764">
        <ele>122</ele>
        <time>2021-04-15T15:15:13Z</time>
      </trkpt>
      <trkpt lat="43.56512" lon="3.68768">
        <ele>118.9</ele>
        <time>2021-04-15T15:15:15Z</time>
      </trkpt>
      <trkpt lat="43.56512" lon="3.68768">
        <ele>122</ele>
        <time>2021-04-15T15:15:15Z</time>
      </trkpt>
      <trkpt lat="43.56512" lon="3.6877">
        <ele>118.8</ele>
        <time>2021-04-15T15:15:16Z</time>
      </trkpt>
      <trkpt lat="43.56512" lon="3.6877">
        <ele>122</ele>
        <time>2021-04-15T15:15:16Z</time>
      </trkpt>
      <trkpt lat="43.56512" lon="3.68774">
        <ele>118.8</ele>
        <time>2021-04-15T15:15:18Z</time>
      </trkpt>
      <trkpt lat="43.56512" lon="3.68774">
        <ele>122</ele>
        <time>2021-04-15T15:15:18Z</time>
      </trkpt>
      <trkpt lat="43.56511" lon="3.68777">
        <ele>118.8</ele>
        <time>2021-04-15T15:15:19Z</time>
      </trkpt>
      <trkpt lat="43.56511" lon="3.68777">
        <ele>122</ele>
        <time>2021-04-15T15:15:19Z</time>
      </trkpt>
      <trkpt lat="43.5651" lon="3.68779">
        <ele>118.9</ele>
        <time>2021-04-15T15:15:21Z</time>
      </trkpt>
      <trkpt lat="43.5651" lon="3.68779">
        <ele>122</ele>
        <time>2021-04-15T15:15:21Z</time>
      </trkpt>
      <trkpt lat="43.56509" lon="3.68781">
        <ele>118.9</ele>
        <time>2021-04-15T15:15:22Z</time>
      </trkpt>
      <trkpt lat="43.56509" lon="3.68781">
        <ele>122</ele>
        <time>2021-04-15T15:15:22Z</time>
      </trkpt>
      <trkpt lat="43.56508" lon="3.68784">
        <ele>119</ele>
        <time>2021-04-15T15:15:24Z</time>
      </trkpt>
      <trkpt lat="43.56508" lon="3.68784">
        <ele>122</ele>
        <time>2021-04-15T15:15:24Z</time>
      </trkpt>
      <trkpt lat="43.56508" lon="3.68786">
        <ele>119</ele>
        <time>2021-04-15T15:15:25Z</time>
      </trkpt>
      <trkpt lat="43.56508" lon="3.68786">
        <ele>122</ele>
        <time>2021-04-15T15:15:25Z</time>
      </trkpt>
      <trkpt lat="43.56507" lon="3.68788">
        <ele>119</ele>
        <time>2021-04-15T15:15:26Z</time>
      </trkpt>
      <trkpt lat="43.56507" lon="3.68788">
        <ele>122</ele>
        <time>2021-04-15T15:15:26Z</time>
      </trkpt>
      <trkpt lat="43.56507" lon="3.68789">
        <ele>119</ele>
        <time>2021-04-15T15:15:27Z</time>
      </trkpt>
      <trkpt lat="43.56507" lon="3.68789">
        <ele>122</ele>
        <time>2021-04-15T15:15:27Z</time>
      </trkpt>
      <trkpt lat="43.56506" lon="3.68792">
        <ele>119</ele>
        <time>2021-04-15T15:15:29Z</time>
      </trkpt>
      <trkpt lat="43.56506" lon="3.68792">
        <ele>122</ele>
        <time>2021-04-15T15:15:29Z</time>
      </trkpt>
      <trkpt lat="43.56505" lon="3.68794">
        <ele>119</ele>
        <time>2021-04-15T15:15:30Z</time>
      </trkpt>
      <trkpt lat="43.56505" lon="3.68794">
        <ele>122</ele>
        <time>2021-04-15T15:15:30Z</time>
      </trkpt>
      <trkpt lat="43.56504" lon="3.68796">
        <ele>119</ele>
        <time>2021-04-15T15:15:31Z</time>
      </trkpt>
      <trkpt lat="43.56504" lon="3.68796">
        <ele>122</ele>
        <time>2021-04-15T15:15:31Z</time>
      </trkpt>
      <trkpt lat="43.56504" lon="3.68798">
        <ele>119</ele>
        <time>2021-04-15T15:15:33Z</time>
      </trkpt>
      <trkpt lat="43.56504" lon="3.68798">
        <ele>122</ele>
        <time>2021-04-15T15:15:33Z</time>
      </trkpt>
      <trkpt lat="43.56503" lon="3.68801">
        <ele>119</ele>
        <time>2021-04-15T15:15:35Z</time>
      </trkpt>
      <trkpt lat="43.56503" lon="3.68801">
        <ele>122</ele>
        <time>2021-04-15T15:15:35Z</time>
      </trkpt>
      <trkpt lat="43.56502" lon="3.68803">
        <ele>118.9</ele>
        <time>2021-04-15T15:15:37Z</time>
      </trkpt>
      <trkpt lat="43.56502" lon="3.68803">
        <ele>122</ele>
        <time>2021-04-15T15:15:37Z</time>
      </trkpt>
      <trkpt lat="43.56501" lon="3.68805">
        <ele>118.9</ele>
        <time>2021-04-15T15:15:38Z</time>
      </trkpt>
      <trkpt lat="43.56501" lon="3.68805">
        <ele>122</ele>
        <time>2021-04-15T15:15:38Z</time>
      </trkpt>
      <trkpt lat="43.56501" lon="3.68807">
        <ele>118.9</ele>
        <time>2021-04-15T15:15:40Z</time>
      </trkpt>
      <trkpt lat="43.56501" lon="3.68807">
        <ele>122</ele>
        <time>2021-04-15T15:15:40Z</time>
      </trkpt>
      <trkpt lat="43.565" lon="3.68811">
        <ele>119</ele>
        <time>2021-04-15T15:15:43Z</time>
      </trkpt>
      <trkpt lat="43.565" lon="3.68811">
        <ele>122</ele>
        <time>2021-04-15T15:15:43Z</time>
      </trkpt>
      <trkpt lat="43.565" lon="3.68812">
        <ele>119</ele>
        <time>2021-04-15T15:15:44Z</time>
      </trkpt>
      <trkpt lat="43.565" lon="3.68812">
        <ele>122</ele>
        <time>2021-04-15T15:15:44Z</time>
      </trkpt>
      <trkpt lat="43.56499" lon="3.68813">
        <ele>119.1</ele>
        <time>2021-04-15T15:15:45Z</time>
      </trkpt>
      <trkpt lat="43.56499" lon="3.68813">
        <ele>122</ele>
        <time>2021-04-15T15:15:45Z</time>
      </trkpt>
      <trkpt lat="43.56498" lon="3.68815">
        <ele>119.1</ele>
        <time>2021-04-15T15:15:47Z</time>
      </trkpt>
      <trkpt lat="43.56498" lon="3.68815">
        <ele>122</ele>
        <time>2021-04-15T15:15:47Z</time>
      </trkpt>
      <trkpt lat="43.56497" lon="3.68818">
        <ele>119.2</ele>
        <time>2021-04-15T15:15:49Z</time>
      </trkpt>
      <trkpt lat="43.56497" lon="3.68818">
        <ele>122</ele>
        <time>2021-04-15T15:15:49Z</time>
      </trkpt>
      <trkpt lat="43.56496" lon="3.6882">
        <ele>119.3</ele>
        <time>2021-04-15T15:15:50Z</time>
      </trkpt>
      <trkpt lat="43.56496" lon="3.6882">
        <ele>122</ele>
        <time>2021-04-15T15:15:50Z</time>
      </trkpt>
      <trkpt lat="43.56495" lon="3.68822">
        <ele>119.3</ele>
        <time>2021-04-15T15:15:51Z</time>
      </trkpt>
      <trkpt lat="43.56495" lon="3.68822">
        <ele>122</ele>
        <time>2021-04-15T15:15:51Z</time>
      </trkpt>
      <trkpt lat="43.56494" lon="3.68825">
        <ele>119.4</ele>
        <time>2021-04-15T15:15:53Z</time>
      </trkpt>
      <trkpt lat="43.56494" lon="3.68825">
        <ele>122</ele>
        <time>2021-04-15T15:15:53Z</time>
      </trkpt>
      <trkpt lat="43.56494" lon="3.68827">
        <ele>119.5</ele>
        <time>2021-04-15T15:15:54Z</time>
      </trkpt>
      <trkpt lat="43.56494" lon="3.68827">
        <ele>122</ele>
        <time>2021-04-15T15:15:54Z</time>
      </trkpt>
      <trkpt lat="43.56493" lon="3.68829">
        <ele>119.5</ele>
        <time>2021-04-15T15:15:56Z</time>
      </trkpt>
      <trkpt lat="43.56493" lon="3.68829">
        <ele>122</ele>
        <time>2021-04-15T15:15:56Z</time>
      </trkpt>
      <trkpt lat="43.56492" lon="3.68832">
        <ele>119.6</ele>
        <time>2021-04-15T15:15:58Z</time>
      </trkpt>
      <trkpt lat="43.56492" lon="3.68832">
        <ele>122</ele>
        <time>2021-04-15T15:15:58Z</time>
      </trkpt>
      <trkpt lat="43.56491" lon="3.68835">
        <ele>119.7</ele>
        <time>2021-04-15T15:15:59Z</time>
      </trkpt>
      <trkpt lat="43.56491" lon="3.68835">
        <ele>122</ele>
        <time>2021-04-15T15:15:59Z</time>
      </trkpt>
      <trkpt lat="43.5649" lon="3.68837">
        <ele>119.7</ele>
        <time>2021-04-15T15:16:00Z</time>
      </trkpt>
      <trkpt lat="43.5649" lon="3.68837">
        <ele>122</ele>
        <time>2021-04-15T15:16:00Z</time>
      </trkpt>
      <trkpt lat="43.56489" lon="3.68839">
        <ele>119.7</ele>
        <time>2021-04-15T15:16:02Z</time>
      </trkpt>
      <trkpt lat="43.56489" lon="3.68839">
        <ele>122</ele>
        <time>2021-04-15T15:16:02Z</time>
      </trkpt>
      <trkpt lat="43.56488" lon="3.68842">
        <ele>119.7</ele>
        <time>2021-04-15T15:16:04Z</time>
      </trkpt>
      <trkpt lat="43.56488" lon="3.68842">
        <ele>122</ele>
        <time>2021-04-15T15:16:04Z</time>
      </trkpt>
      <trkpt lat="43.56487" lon="3.68846">
        <ele>119.7</ele>
        <time>2021-04-15T15:16:06Z</time>
      </trkpt>
      <trkpt lat="43.56487" lon="3.68846">
        <ele>122</ele>
        <time>2021-04-15T15:16:06Z</time>
      </trkpt>
      <trkpt lat="43.56487" lon="3.68849">
        <ele>119.7</ele>
        <time>2021-04-15T15:16:08Z</time>
      </trkpt>
      <trkpt lat="43.56487" lon="3.68849">
        <ele>122</ele>
        <time>2021-04-15T15:16:08Z</time>
      </trkpt>
      <trkpt lat="43.56486" lon="3.68852">
        <ele>119.7</ele>
        <time>2021-04-15T15:16:09Z</time>
      </trkpt>
      <trkpt lat="43.56486" lon="3.68852">
        <ele>122</ele>
        <time>2021-04-15T15:16:09Z</time>
      </trkpt>
      <trkpt lat="43.56486" lon="3.68855">
        <ele>119.6</ele>
        <time>2021-04-15T15:16:11Z</time>
      </trkpt>
      <trkpt lat="43.56486" lon="3.68855">
        <ele>122</ele>
        <time>2021-04-15T15:16:11Z</time>
      </trkpt>
      <trkpt lat="43.56485" lon="3.68858">
        <ele>119.6</ele>
        <time>2021-04-15T15:16:12Z</time>
      </trkpt>
      <trkpt lat="43.56485" lon="3.68858">
        <ele>122</ele>
        <time>2021-04-15T15:16:12Z</time>
      </trkpt>
      <trkpt lat="43.56485" lon="3.6886">
        <ele>119.6</ele>
        <time>2021-04-15T15:16:13Z</time>
      </trkpt>
      <trkpt lat="43.56485" lon="3.6886">
        <ele>122</ele>
        <time>2021-04-15T15:16:13Z</time>
      </trkpt>
      <trkpt lat="43.56484" lon="3.68862">
        <ele>119.6</ele>
        <time>2021-04-15T15:16:14Z</time>
      </trkpt>
      <trkpt lat="43.56484" lon="3.68862">
        <ele>122</ele>
        <time>2021-04-15T15:16:14Z</time>
      </trkpt>
      <trkpt lat="43.56483" lon="3.68864">
        <ele>119.6</ele>
        <time>2021-04-15T15:16:15Z</time>
      </trkpt>
      <trkpt lat="43.56483" lon="3.68864">
        <ele>122</ele>
        <time>2021-04-15T15:16:15Z</time>
      </trkpt>
      <trkpt lat="43.56482" lon="3.68866">
        <ele>119.6</ele>
        <time>2021-04-15T15:16:17Z</time>
      </trkpt>
      <trkpt lat="43.56482" lon="3.68866">
        <ele>122</ele>
        <time>2021-04-15T15:16:17Z</time>
      </trkpt>
      <trkpt lat="43.56481" lon="3.68869">
        <ele>119.6</ele>
        <time>2021-04-15T15:16:19Z</time>
      </trkpt>
      <trkpt lat="43.56481" lon="3.68869">
        <ele>122</ele>
        <time>2021-04-15T15:16:19Z</time>
      </trkpt>
      <trkpt lat="43.5648" lon="3.68872">
        <ele>119.6</ele>
        <time>2021-04-15T15:16:21Z</time>
      </trkpt>
      <trkpt lat="43.5648" lon="3.68872">
        <ele>122</ele>
        <time>2021-04-15T15:16:21Z</time>
      </trkpt>
      <trkpt lat="43.56479" lon="3.68874">
        <ele>119.6</ele>
        <time>2021-04-15T15:16:22Z</time>
      </trkpt>
      <trkpt lat="43.56479" lon="3.68874">
        <ele>122</ele>
        <time>2021-04-15T15:16:22Z</time>
      </trkpt>
      <trkpt lat="43.56479" lon="3.68877">
        <ele>119.6</ele>
        <time>2021-04-15T15:16:23Z</time>
      </trkpt>
      <trkpt lat="43.56479" lon="3.68877">
        <ele>122</ele>
        <time>2021-04-15T15:16:23Z</time>
      </trkpt>
      <trkpt lat="43.56478" lon="3.6888">
        <ele>119.6</ele>
        <time>2021-04-15T15:16:25Z</time>
      </trkpt>
      <trkpt lat="43.56478" lon="3.6888">
        <ele>122</ele>
        <time>2021-04-15T15:16:25Z</time>
      </trkpt>
      <trkpt lat="43.56477" lon="3.68882">
        <ele>119.7</ele>
        <time>2021-04-15T15:16:26Z</time>
      </trkpt>
      <trkpt lat="43.56477" lon="3.68882">
        <ele>122</ele>
        <time>2021-04-15T15:16:26Z</time>
      </trkpt>
      <trkpt lat="43.56477" lon="3.68884">
        <ele>119.7</ele>
        <time>2021-04-15T15:16:27Z</time>
      </trkpt>
      <trkpt lat="43.56477" lon="3.68884">
        <ele>122</ele>
        <time>2021-04-15T15:16:27Z</time>
      </trkpt>
      <trkpt lat="43.56476" lon="3.68887">
        <ele>119.7</ele>
        <time>2021-04-15T15:16:29Z</time>
      </trkpt>
      <trkpt lat="43.56476" lon="3.68887">
        <ele>122</ele>
        <time>2021-04-15T15:16:29Z</time>
      </trkpt>
      <trkpt lat="43.56476" lon="3.6889">
        <ele>119.7</ele>
        <time>2021-04-15T15:16:30Z</time>
      </trkpt>
      <trkpt lat="43.56476" lon="3.6889">
        <ele>122</ele>
        <time>2021-04-15T15:16:30Z</time>
      </trkpt>
      <trkpt lat="43.56476" lon="3.68893">
        <ele>119.6</ele>
        <time>2021-04-15T15:16:32Z</time>
      </trkpt>
      <trkpt lat="43.56476" lon="3.68893">
        <ele>122</ele>
        <time>2021-04-15T15:16:32Z</time>
      </trkpt>
      <trkpt lat="43.56475" lon="3.68896">
        <ele>119.5</ele>
        <time>2021-04-15T15:16:33Z</time>
      </trkpt>
      <trkpt lat="43.56475" lon="3.68896">
        <ele>122</ele>
        <time>2021-04-15T15:16:33Z</time>
      </trkpt>
      <trkpt lat="43.56475" lon="3.68898">
        <ele>119.5</ele>
        <time>2021-04-15T15:16:34Z</time>
      </trkpt>
      <trkpt lat="43.56475" lon="3.68898">
        <ele>122</ele>
        <time>2021-04-15T15:16:34Z</time>
      </trkpt>
      <trkpt lat="43.56474" lon="3.689">
        <ele>119.5</ele>
        <time>2021-04-15T15:16:36Z</time>
      </trkpt>
      <trkpt lat="43.56474" lon="3.689">
        <ele>122</ele>
        <time>2021-04-15T15:16:36Z</time>
      </trkpt>
      <trkpt lat="43.56474" lon="3.68902">
        <ele>119.4</ele>
        <time>2021-04-15T15:16:38Z</time>
      </trkpt>
      <trkpt lat="43.56474" lon="3.68902">
        <ele>122</ele>
        <time>2021-04-15T15:16:38Z</time>
      </trkpt>
      <trkpt lat="43.56473" lon="3.68904">
        <ele>119.4</ele>
        <time>2021-04-15T15:16:39Z</time>
      </trkpt>
      <trkpt lat="43.56473" lon="3.68904">
        <ele>122</ele>
        <time>2021-04-15T15:16:39Z</time>
      </trkpt>
      <trkpt lat="43.56472" lon="3.68906">
        <ele>119.4</ele>
        <time>2021-04-15T15:16:40Z</time>
      </trkpt>
      <trkpt lat="43.56472" lon="3.68906">
        <ele>122</ele>
        <time>2021-04-15T15:16:40Z</time>
      </trkpt>
      <trkpt lat="43.56472" lon="3.68909">
        <ele>119.3</ele>
        <time>2021-04-15T15:16:42Z</time>
      </trkpt>
      <trkpt lat="43.56472" lon="3.68909">
        <ele>122</ele>
        <time>2021-04-15T15:16:42Z</time>
      </trkpt>
      <trkpt lat="43.56471" lon="3.68911">
        <ele>119.3</ele>
        <time>2021-04-15T15:16:44Z</time>
      </trkpt>
      <trkpt lat="43.56471" lon="3.68911">
        <ele>122</ele>
        <time>2021-04-15T15:16:44Z</time>
      </trkpt>
      <trkpt lat="43.5647" lon="3.68913">
        <ele>119.2</ele>
        <time>2021-04-15T15:16:45Z</time>
      </trkpt>
      <trkpt lat="43.5647" lon="3.68913">
        <ele>122</ele>
        <time>2021-04-15T15:16:45Z</time>
      </trkpt>
      <trkpt lat="43.56469" lon="3.68915">
        <ele>119.2</ele>
        <time>2021-04-15T15:16:47Z</time>
      </trkpt>
      <trkpt lat="43.56469" lon="3.68915">
        <ele>122</ele>
        <time>2021-04-15T15:16:47Z</time>
      </trkpt>
      <trkpt lat="43.56468" lon="3.68918">
        <ele>119.1</ele>
        <time>2021-04-15T15:16:49Z</time>
      </trkpt>
      <trkpt lat="43.56468" lon="3.68918">
        <ele>122</ele>
        <time>2021-04-15T15:16:49Z</time>
      </trkpt>
      <trkpt lat="43.56467" lon="3.68921">
        <ele>119.1</ele>
        <time>2021-04-15T15:16:50Z</time>
      </trkpt>
      <trkpt lat="43.56467" lon="3.68921">
        <ele>122</ele>
        <time>2021-04-15T15:16:50Z</time>
      </trkpt>
      <trkpt lat="43.56466" lon="3.68923">
        <ele>119.1</ele>
        <time>2021-04-15T15:16:52Z</time>
      </trkpt>
      <trkpt lat="43.56466" lon="3.68923">
        <ele>122</ele>
        <time>2021-04-15T15:16:52Z</time>
      </trkpt>
      <trkpt lat="43.56465" lon="3.68925">
        <ele>119</ele>
        <time>2021-04-15T15:16:53Z</time>
      </trkpt>
      <trkpt lat="43.56465" lon="3.68925">
        <ele>122</ele>
        <time>2021-04-15T15:16:53Z</time>
      </trkpt>
      <trkpt lat="43.56464" lon="3.68928">
        <ele>119</ele>
        <time>2021-04-15T15:16:55Z</time>
      </trkpt>
      <trkpt lat="43.56464" lon="3.68928">
        <ele>122</ele>
        <time>2021-04-15T15:16:55Z</time>
      </trkpt>
      <trkpt lat="43.56463" lon="3.6893">
        <ele>119</ele>
        <time>2021-04-15T15:16:57Z</time>
      </trkpt>
      <trkpt lat="43.56463" lon="3.6893">
        <ele>122</ele>
        <time>2021-04-15T15:16:57Z</time>
      </trkpt>
      <trkpt lat="43.56462" lon="3.68933">
        <ele>119</ele>
        <time>2021-04-15T15:16:58Z</time>
      </trkpt>
      <trkpt lat="43.56462" lon="3.68933">
        <ele>122</ele>
        <time>2021-04-15T15:16:58Z</time>
      </trkpt>
      <trkpt lat="43.56461" lon="3.68935">
        <ele>119</ele>
        <time>2021-04-15T15:16:59Z</time>
      </trkpt>
      <trkpt lat="43.56461" lon="3.68935">
        <ele>122</ele>
        <time>2021-04-15T15:16:59Z</time>
      </trkpt>
      <trkpt lat="43.5646" lon="3.68938">
        <ele>119</ele>
        <time>2021-04-15T15:17:01Z</time>
      </trkpt>
      <trkpt lat="43.5646" lon="3.68938">
        <ele>122</ele>
        <time>2021-04-15T15:17:01Z</time>
      </trkpt>
      <trkpt lat="43.56459" lon="3.68941">
        <ele>119</ele>
        <time>2021-04-15T15:17:03Z</time>
      </trkpt>
      <trkpt lat="43.56459" lon="3.68941">
        <ele>122</ele>
        <time>2021-04-15T15:17:03Z</time>
      </trkpt>
      <trkpt lat="43.56458" lon="3.68944">
        <ele>119.1</ele>
        <time>2021-04-15T15:17:05Z</time>
      </trkpt>
      <trkpt lat="43.56458" lon="3.68944">
        <ele>122</ele>
        <time>2021-04-15T15:17:05Z</time>
      </trkpt>
      <trkpt lat="43.56457" lon="3.68947">
        <ele>119</ele>
        <time>2021-04-15T15:17:06Z</time>
      </trkpt>
      <trkpt lat="43.56457" lon="3.68947">
        <ele>122</ele>
        <time>2021-04-15T15:17:06Z</time>
      </trkpt>
      <trkpt lat="43.56456" lon="3.6895">
        <ele>119</ele>
        <time>2021-04-15T15:17:08Z</time>
      </trkpt>
      <trkpt lat="43.56456" lon="3.6895">
        <ele>122</ele>
        <time>2021-04-15T15:17:08Z</time>
      </trkpt>
      <trkpt lat="43.56455" lon="3.68953">
        <ele>119</ele>
        <time>2021-04-15T15:17:09Z</time>
      </trkpt>
      <trkpt lat="43.56455" lon="3.68953">
        <ele>122</ele>
        <time>2021-04-15T15:17:09Z</time>
      </trkpt>
      <trkpt lat="43.56454" lon="3.68956">
        <ele>118.9</ele>
        <time>2021-04-15T15:17:11Z</time>
      </trkpt>
      <trkpt lat="43.56454" lon="3.68956">
        <ele>122</ele>
        <time>2021-04-15T15:17:11Z</time>
      </trkpt>
      <trkpt lat="43.56453" lon="3.68959">
        <ele>118.8</ele>
        <time>2021-04-15T15:17:13Z</time>
      </trkpt>
      <trkpt lat="43.56453" lon="3.68959">
        <ele>122</ele>
        <time>2021-04-15T15:17:13Z</time>
      </trkpt>
      <trkpt lat="43.56452" lon="3.68962">
        <ele>118.8</ele>
        <time>2021-04-15T15:17:14Z</time>
      </trkpt>
      <trkpt lat="43.56452" lon="3.68962">
        <ele>122</ele>
        <time>2021-04-15T15:17:14Z</time>
      </trkpt>
      <trkpt lat="43.56452" lon="3.68965">
        <ele>118.7</ele>
        <time>2021-04-15T15:17:15Z</time>
      </trkpt>
      <trkpt lat="43.56452" lon="3.68965">
        <ele>122</ele>
        <time>2021-04-15T15:17:15Z</time>
      </trkpt>
      <trkpt lat="43.56451" lon="3.68967">
        <ele>118.7</ele>
        <time>2021-04-15T15:17:17Z</time>
      </trkpt>
      <trkpt lat="43.56451" lon="3.68967">
        <ele>122</ele>
        <time>2021-04-15T15:17:17Z</time>
      </trkpt>
      <trkpt lat="43.56451" lon="3.68969">
        <ele>118.7</ele>
        <time>2021-04-15T15:17:18Z</time>
      </trkpt>
      <trkpt lat="43.56451" lon="3.68969">
        <ele>122</ele>
        <time>2021-04-15T15:17:18Z</time>
      </trkpt>
      <trkpt lat="43.5645" lon="3.68972">
        <ele>118.6</ele>
        <time>2021-04-15T15:17:20Z</time>
      </trkpt>
      <trkpt lat="43.5645" lon="3.68972">
        <ele>122</ele>
        <time>2021-04-15T15:17:20Z</time>
      </trkpt>
      <trkpt lat="43.56449" lon="3.68974">
        <ele>118.7</ele>
        <time>2021-04-15T15:17:21Z</time>
      </trkpt>
      <trkpt lat="43.56449" lon="3.68974">
        <ele>122</ele>
        <time>2021-04-15T15:17:21Z</time>
      </trkpt>
      <trkpt lat="43.56449" lon="3.68977">
        <ele>118.7</ele>
        <time>2021-04-15T15:17:23Z</time>
      </trkpt>
      <trkpt lat="43.56449" lon="3.68977">
        <ele>122</ele>
        <time>2021-04-15T15:17:23Z</time>
      </trkpt>
      <trkpt lat="43.56448" lon="3.6898">
        <ele>118.7</ele>
        <time>2021-04-15T15:17:25Z</time>
      </trkpt>
      <trkpt lat="43.56448" lon="3.6898">
        <ele>122</ele>
        <time>2021-04-15T15:17:25Z</time>
      </trkpt>
      <trkpt lat="43.56447" lon="3.68983">
        <ele>118.8</ele>
        <time>2021-04-15T15:17:26Z</time>
      </trkpt>
      <trkpt lat="43.56447" lon="3.68983">
        <ele>122</ele>
        <time>2021-04-15T15:17:26Z</time>
      </trkpt>
      <trkpt lat="43.56447" lon="3.68986">
        <ele>118.8</ele>
        <time>2021-04-15T15:17:27Z</time>
      </trkpt>
      <trkpt lat="43.56447" lon="3.68986">
        <ele>122</ele>
        <time>2021-04-15T15:17:27Z</time>
      </trkpt>
      <trkpt lat="43.56446" lon="3.68989">
        <ele>118.9</ele>
        <time>2021-04-15T15:17:29Z</time>
      </trkpt>
      <trkpt lat="43.56446" lon="3.68989">
        <ele>122</ele>
        <time>2021-04-15T15:17:29Z</time>
      </trkpt>
      <trkpt lat="43.56446" lon="3.68992">
        <ele>118.9</ele>
        <time>2021-04-15T15:17:30Z</time>
      </trkpt>
      <trkpt lat="43.56446" lon="3.68992">
        <ele>122</ele>
        <time>2021-04-15T15:17:30Z</time>
      </trkpt>
      <trkpt lat="43.56445" lon="3.68995">
        <ele>118.9</ele>
        <time>2021-04-15T15:17:32Z</time>
      </trkpt>
      <trkpt lat="43.56445" lon="3.68995">
        <ele>122</ele>
        <time>2021-04-15T15:17:32Z</time>
      </trkpt>
      <trkpt lat="43.56445" lon="3.68998">
        <ele>119</ele>
        <time>2021-04-15T15:17:34Z</time>
      </trkpt>
      <trkpt lat="43.56445" lon="3.68998">
        <ele>122</ele>
        <time>2021-04-15T15:17:34Z</time>
      </trkpt>
      <trkpt lat="43.56445" lon="3.69002">
        <ele>118.9</ele>
        <time>2021-04-15T15:17:36Z</time>
      </trkpt>
      <trkpt lat="43.56445" lon="3.69002">
        <ele>122</ele>
        <time>2021-04-15T15:17:36Z</time>
      </trkpt>
      <trkpt lat="43.56445" lon="3.69005">
        <ele>118.8</ele>
        <time>2021-04-15T15:17:38Z</time>
      </trkpt>
      <trkpt lat="43.56445" lon="3.69005">
        <ele>122</ele>
        <time>2021-04-15T15:17:38Z</time>
      </trkpt>
      <trkpt lat="43.56444" lon="3.69008">
        <ele>118.7</ele>
        <time>2021-04-15T15:17:39Z</time>
      </trkpt>
      <trkpt lat="43.56444" lon="3.69008">
        <ele>122</ele>
        <time>2021-04-15T15:17:39Z</time>
      </trkpt>
      <trkpt lat="43.56444" lon="3.69011">
        <ele>118.6</ele>
        <time>2021-04-15T15:17:41Z</time>
      </trkpt>
      <trkpt lat="43.56444" lon="3.69011">
        <ele>122</ele>
        <time>2021-04-15T15:17:41Z</time>
      </trkpt>
      <trkpt lat="43.56444" lon="3.69014">
        <ele>118.6</ele>
        <time>2021-04-15T15:17:42Z</time>
      </trkpt>
      <trkpt lat="43.56444" lon="3.69014">
        <ele>122</ele>
        <time>2021-04-15T15:17:42Z</time>
      </trkpt>
      <trkpt lat="43.56443" lon="3.69016">
        <ele>118.5</ele>
        <time>2021-04-15T15:17:43Z</time>
      </trkpt>
      <trkpt lat="43.56443" lon="3.69016">
        <ele>122</ele>
        <time>2021-04-15T15:17:43Z</time>
      </trkpt>
      <trkpt lat="43.56443" lon="3.69018">
        <ele>118.5</ele>
        <time>2021-04-15T15:17:44Z</time>
      </trkpt>
      <trkpt lat="43.56443" lon="3.69018">
        <ele>122</ele>
        <time>2021-04-15T15:17:44Z</time>
      </trkpt>
      <trkpt lat="43.56443" lon="3.69021">
        <ele>118.4</ele>
        <time>2021-04-15T15:17:46Z</time>
      </trkpt>
      <trkpt lat="43.56443" lon="3.69021">
        <ele>121</ele>
        <time>2021-04-15T15:17:46Z</time>
      </trkpt>
      <trkpt lat="43.56443" lon="3.69024">
        <ele>118.3</ele>
        <time>2021-04-15T15:17:48Z</time>
      </trkpt>
      <trkpt lat="43.56443" lon="3.69024">
        <ele>121</ele>
        <time>2021-04-15T15:17:48Z</time>
      </trkpt>
      <trkpt lat="43.56443" lon="3.69027">
        <ele>118.2</ele>
        <time>2021-04-15T15:17:50Z</time>
      </trkpt>
      <trkpt lat="43.56443" lon="3.69027">
        <ele>121</ele>
        <time>2021-04-15T15:17:50Z</time>
      </trkpt>
      <trkpt lat="43.56442" lon="3.6903">
        <ele>118.3</ele>
        <time>2021-04-15T15:17:52Z</time>
      </trkpt>
      <trkpt lat="43.56442" lon="3.6903">
        <ele>121</ele>
        <time>2021-04-15T15:17:52Z</time>
      </trkpt>
      <trkpt lat="43.56442" lon="3.69033">
        <ele>118.3</ele>
        <time>2021-04-15T15:17:54Z</time>
      </trkpt>
      <trkpt lat="43.56442" lon="3.69033">
        <ele>121</ele>
        <time>2021-04-15T15:17:54Z</time>
      </trkpt>
      <trkpt lat="43.56441" lon="3.69036">
        <ele>118.4</ele>
        <time>2021-04-15T15:17:56Z</time>
      </trkpt>
      <trkpt lat="43.56441" lon="3.69036">
        <ele>121</ele>
        <time>2021-04-15T15:17:56Z</time>
      </trkpt>
      <trkpt lat="43.56441" lon="3.69038">
        <ele>118.4</ele>
        <time>2021-04-15T15:17:58Z</time>
      </trkpt>
      <trkpt lat="43.56441" lon="3.69038">
        <ele>121</ele>
        <time>2021-04-15T15:17:58Z</time>
      </trkpt>
      <trkpt lat="43.5644" lon="3.69041">
        <ele>118.4</ele>
        <time>2021-04-15T15:18:00Z</time>
      </trkpt>
      <trkpt lat="43.5644" lon="3.69041">
        <ele>121</ele>
        <time>2021-04-15T15:18:00Z</time>
      </trkpt>
      <trkpt lat="43.5644" lon="3.69044">
        <ele>118.5</ele>
        <time>2021-04-15T15:18:01Z</time>
      </trkpt>
      <trkpt lat="43.5644" lon="3.69044">
        <ele>121</ele>
        <time>2021-04-15T15:18:01Z</time>
      </trkpt>
      <trkpt lat="43.56439" lon="3.69047">
        <ele>118.6</ele>
        <time>2021-04-15T15:18:03Z</time>
      </trkpt>
      <trkpt lat="43.56439" lon="3.69047">
        <ele>121</ele>
        <time>2021-04-15T15:18:03Z</time>
      </trkpt>
      <trkpt lat="43.56439" lon="3.6905">
        <ele>118.6</ele>
        <time>2021-04-15T15:18:05Z</time>
      </trkpt>
      <trkpt lat="43.56439" lon="3.6905">
        <ele>121</ele>
        <time>2021-04-15T15:18:05Z</time>
      </trkpt>
      <trkpt lat="43.56438" lon="3.69053">
        <ele>118.7</ele>
        <time>2021-04-15T15:18:06Z</time>
      </trkpt>
      <trkpt lat="43.56438" lon="3.69053">
        <ele>121</ele>
        <time>2021-04-15T15:18:06Z</time>
      </trkpt>
      <trkpt lat="43.56438" lon="3.69056">
        <ele>118.7</ele>
        <time>2021-04-15T15:18:08Z</time>
      </trkpt>
      <trkpt lat="43.56438" lon="3.69056">
        <ele>121</ele>
        <time>2021-04-15T15:18:08Z</time>
      </trkpt>
      <trkpt lat="43.56437" lon="3.69059">
        <ele>118.8</ele>
        <time>2021-04-15T15:18:10Z</time>
      </trkpt>
      <trkpt lat="43.56437" lon="3.69059">
        <ele>121</ele>
        <time>2021-04-15T15:18:10Z</time>
      </trkpt>
      <trkpt lat="43.56436" lon="3.69062">
        <ele>118.8</ele>
        <time>2021-04-15T15:18:11Z</time>
      </trkpt>
      <trkpt lat="43.56436" lon="3.69062">
        <ele>121</ele>
        <time>2021-04-15T15:18:11Z</time>
      </trkpt>
      <trkpt lat="43.56436" lon="3.69066">
        <ele>118.8</ele>
        <time>2021-04-15T15:18:13Z</time>
      </trkpt>
      <trkpt lat="43.56436" lon="3.69066">
        <ele>121</ele>
        <time>2021-04-15T15:18:13Z</time>
      </trkpt>
      <trkpt lat="43.56435" lon="3.69069">
        <ele>118.8</ele>
        <time>2021-04-15T15:18:14Z</time>
      </trkpt>
      <trkpt lat="43.56435" lon="3.69069">
        <ele>121</ele>
        <time>2021-04-15T15:18:14Z</time>
      </trkpt>
      <trkpt lat="43.56435" lon="3.69072">
        <ele>118.8</ele>
        <time>2021-04-15T15:18:16Z</time>
      </trkpt>
      <trkpt lat="43.56435" lon="3.69072">
        <ele>121</ele>
        <time>2021-04-15T15:18:16Z</time>
      </trkpt>
      <trkpt lat="43.56435" lon="3.69076">
        <ele>118.8</ele>
        <time>2021-04-15T15:18:18Z</time>
      </trkpt>
      <trkpt lat="43.56435" lon="3.69076">
        <ele>121</ele>
        <time>2021-04-15T15:18:18Z</time>
      </trkpt>
      <trkpt lat="43.56434" lon="3.69079">
        <ele>118.8</ele>
        <time>2021-04-15T15:18:20Z</time>
      </trkpt>
      <trkpt lat="43.56434" lon="3.69079">
        <ele>121</ele>
        <time>2021-04-15T15:18:20Z</time>
      </trkpt>
      <trkpt lat="43.56434" lon="3.69083">
        <ele>118.8</ele>
        <time>2021-04-15T15:18:22Z</time>
      </trkpt>
      <trkpt lat="43.56434" lon="3.69083">
        <ele>121</ele>
        <time>2021-04-15T15:18:22Z</time>
      </trkpt>
      <trkpt lat="43.56434" lon="3.69086">
        <ele>118.8</ele>
        <time>2021-04-15T15:18:23Z</time>
      </trkpt>
      <trkpt lat="43.56434" lon="3.69086">
        <ele>121</ele>
        <time>2021-04-15T15:18:23Z</time>
      </trkpt>
      <trkpt lat="43.56434" lon="3.69088">
        <ele>118.8</ele>
        <time>2021-04-15T15:18:24Z</time>
      </trkpt>
      <trkpt lat="43.56434" lon="3.69088">
        <ele>121</ele>
        <time>2021-04-15T15:18:24Z</time>
      </trkpt>
      <trkpt lat="43.56434" lon="3.69091">
        <ele>118.9</ele>
        <time>2021-04-15T15:18:26Z</time>
      </trkpt>
      <trkpt lat="43.56434" lon="3.69091">
        <ele>121</ele>
        <time>2021-04-15T15:18:26Z</time>
      </trkpt>
      <trkpt lat="43.56434" lon="3.69094">
        <ele>118.9</ele>
        <time>2021-04-15T15:18:28Z</time>
      </trkpt>
      <trkpt lat="43.56434" lon="3.69094">
        <ele>121</ele>
        <time>2021-04-15T15:18:28Z</time>
      </trkpt>
      <trkpt lat="43.56434" lon="3.69097">
        <ele>118.9</ele>
        <time>2021-04-15T15:18:30Z</time>
      </trkpt>
      <trkpt lat="43.56434" lon="3.69097">
        <ele>121</ele>
        <time>2021-04-15T15:18:30Z</time>
      </trkpt>
      <trkpt lat="43.56434" lon="3.691">
        <ele>119</ele>
        <time>2021-04-15T15:18:31Z</time>
      </trkpt>
      <trkpt lat="43.56434" lon="3.691">
        <ele>121</ele>
        <time>2021-04-15T15:18:31Z</time>
      </trkpt>
      <trkpt lat="43.56434" lon="3.69102">
        <ele>119</ele>
        <time>2021-04-15T15:18:32Z</time>
      </trkpt>
      <trkpt lat="43.56434" lon="3.69102">
        <ele>121</ele>
        <time>2021-04-15T15:18:32Z</time>
      </trkpt>
      <trkpt lat="43.56434" lon="3.69104">
        <ele>119</ele>
        <time>2021-04-15T15:18:33Z</time>
      </trkpt>
      <trkpt lat="43.56434" lon="3.69104">
        <ele>121</ele>
        <time>2021-04-15T15:18:33Z</time>
      </trkpt>
      <trkpt lat="43.56434" lon="3.69107">
        <ele>119.1</ele>
        <time>2021-04-15T15:18:35Z</time>
      </trkpt>
      <trkpt lat="43.56434" lon="3.69107">
        <ele>121</ele>
        <time>2021-04-15T15:18:35Z</time>
      </trkpt>
      <trkpt lat="43.56434" lon="3.69109">
        <ele>119.1</ele>
        <time>2021-04-15T15:18:36Z</time>
      </trkpt>
      <trkpt lat="43.56434" lon="3.69109">
        <ele>121</ele>
        <time>2021-04-15T15:18:36Z</time>
      </trkpt>
      <trkpt lat="43.56434" lon="3.69111">
        <ele>119.1</ele>
        <time>2021-04-15T15:18:37Z</time>
      </trkpt>
      <trkpt lat="43.56434" lon="3.69111">
        <ele>121</ele>
        <time>2021-04-15T15:18:37Z</time>
      </trkpt>
      <trkpt lat="43.56434" lon="3.69114">
        <ele>119.1</ele>
        <time>2021-04-15T15:18:39Z</time>
      </trkpt>
      <trkpt lat="43.56434" lon="3.69114">
        <ele>121</ele>
        <time>2021-04-15T15:18:39Z</time>
      </trkpt>
      <trkpt lat="43.56434" lon="3.69116">
        <ele>119.1</ele>
        <time>2021-04-15T15:18:40Z</time>
      </trkpt>
      <trkpt lat="43.56434" lon="3.69116">
        <ele>121</ele>
        <time>2021-04-15T15:18:40Z</time>
      </trkpt>
      <trkpt lat="43.56434" lon="3.69118">
        <ele>119.1</ele>
        <time>2021-04-15T15:18:42Z</time>
      </trkpt>
      <trkpt lat="43.56434" lon="3.69118">
        <ele>121</ele>
        <time>2021-04-15T15:18:42Z</time>
      </trkpt>
      <trkpt lat="43.56434" lon="3.69121">
        <ele>119.1</ele>
        <time>2021-04-15T15:18:43Z</time>
      </trkpt>
      <trkpt lat="43.56434" lon="3.69121">
        <ele>121</ele>
        <time>2021-04-15T15:18:43Z</time>
      </trkpt>
      <trkpt lat="43.56434" lon="3.69123">
        <ele>119.1</ele>
        <time>2021-04-15T15:18:45Z</time>
      </trkpt>
      <trkpt lat="43.56434" lon="3.69123">
        <ele>121</ele>
        <time>2021-04-15T15:18:45Z</time>
      </trkpt>
      <trkpt lat="43.56434" lon="3.69126">
        <ele>119.1</ele>
        <time>2021-04-15T15:18:47Z</time>
      </trkpt>
      <trkpt lat="43.56434" lon="3.69126">
        <ele>121</ele>
        <time>2021-04-15T15:18:47Z</time>
      </trkpt>
      <trkpt lat="43.56434" lon="3.69129">
        <ele>119.1</ele>
        <time>2021-04-15T15:18:48Z</time>
      </trkpt>
      <trkpt lat="43.56434" lon="3.69129">
        <ele>121</ele>
        <time>2021-04-15T15:18:48Z</time>
      </trkpt>
      <trkpt lat="43.56435" lon="3.69131">
        <ele>119</ele>
        <time>2021-04-15T15:18:50Z</time>
      </trkpt>
      <trkpt lat="43.56435" lon="3.69131">
        <ele>121</ele>
        <time>2021-04-15T15:18:50Z</time>
      </trkpt>
      <trkpt lat="43.56435" lon="3.69134">
        <ele>119</ele>
        <time>2021-04-15T15:18:52Z</time>
      </trkpt>
      <trkpt lat="43.56435" lon="3.69134">
        <ele>121</ele>
        <time>2021-04-15T15:18:52Z</time>
      </trkpt>
      <trkpt lat="43.56435" lon="3.69136">
        <ele>119</ele>
        <time>2021-04-15T15:18:53Z</time>
      </trkpt>
      <trkpt lat="43.56435" lon="3.69136">
        <ele>121</ele>
        <time>2021-04-15T15:18:53Z</time>
      </trkpt>
      <trkpt lat="43.56435" lon="3.69139">
        <ele>119</ele>
        <time>2021-04-15T15:18:55Z</time>
      </trkpt>
      <trkpt lat="43.56435" lon="3.69139">
        <ele>121</ele>
        <time>2021-04-15T15:18:55Z</time>
      </trkpt>
      <trkpt lat="43.56435" lon="3.69142">
        <ele>119.1</ele>
        <time>2021-04-15T15:18:57Z</time>
      </trkpt>
      <trkpt lat="43.56435" lon="3.69142">
        <ele>121</ele>
        <time>2021-04-15T15:18:57Z</time>
      </trkpt>
      <trkpt lat="43.56435" lon="3.69145">
        <ele>119.2</ele>
        <time>2021-04-15T15:18:58Z</time>
      </trkpt>
      <trkpt lat="43.56435" lon="3.69145">
        <ele>121</ele>
        <time>2021-04-15T15:18:58Z</time>
      </trkpt>
      <trkpt lat="43.56435" lon="3.69148">
        <ele>119.3</ele>
        <time>2021-04-15T15:19:00Z</time>
      </trkpt>
      <trkpt lat="43.56435" lon="3.69148">
        <ele>121</ele>
        <time>2021-04-15T15:19:00Z</time>
      </trkpt>
      <trkpt lat="43.56435" lon="3.69151">
        <ele>119.3</ele>
        <time>2021-04-15T15:19:01Z</time>
      </trkpt>
      <trkpt lat="43.56435" lon="3.69151">
        <ele>121</ele>
        <time>2021-04-15T15:19:01Z</time>
      </trkpt>
      <trkpt lat="43.56435" lon="3.69153">
        <ele>119.4</ele>
        <time>2021-04-15T15:19:02Z</time>
      </trkpt>
      <trkpt lat="43.56435" lon="3.69153">
        <ele>121</ele>
        <time>2021-04-15T15:19:02Z</time>
      </trkpt>
      <trkpt lat="43.56434" lon="3.69156">
        <ele>119.5</ele>
        <time>2021-04-15T15:19:04Z</time>
      </trkpt>
      <trkpt lat="43.56434" lon="3.69156">
        <ele>121</ele>
        <time>2021-04-15T15:19:04Z</time>
      </trkpt>
      <trkpt lat="43.56434" lon="3.69158">
        <ele>119.6</ele>
        <time>2021-04-15T15:19:06Z</time>
      </trkpt>
      <trkpt lat="43.56434" lon="3.69158">
        <ele>121</ele>
        <time>2021-04-15T15:19:06Z</time>
      </trkpt>
      <trkpt lat="43.56434" lon="3.6916">
        <ele>119.6</ele>
        <time>2021-04-15T15:19:07Z</time>
      </trkpt>
      <trkpt lat="43.56434" lon="3.6916">
        <ele>121</ele>
        <time>2021-04-15T15:19:07Z</time>
      </trkpt>
      <trkpt lat="43.56433" lon="3.69163">
        <ele>119.7</ele>
        <time>2021-04-15T15:19:09Z</time>
      </trkpt>
      <trkpt lat="43.56433" lon="3.69163">
        <ele>121</ele>
        <time>2021-04-15T15:19:09Z</time>
      </trkpt>
      <trkpt lat="43.56433" lon="3.69166">
        <ele>119.8</ele>
        <time>2021-04-15T15:19:11Z</time>
      </trkpt>
      <trkpt lat="43.56433" lon="3.69166">
        <ele>121</ele>
        <time>2021-04-15T15:19:11Z</time>
      </trkpt>
      <trkpt lat="43.56433" lon="3.69169">
        <ele>119.8</ele>
        <time>2021-04-15T15:19:12Z</time>
      </trkpt>
      <trkpt lat="43.56433" lon="3.69169">
        <ele>121</ele>
        <time>2021-04-15T15:19:12Z</time>
      </trkpt>
      <trkpt lat="43.56432" lon="3.69172">
        <ele>119.8</ele>
        <time>2021-04-15T15:19:14Z</time>
      </trkpt>
      <trkpt lat="43.56432" lon="3.69172">
        <ele>121</ele>
        <time>2021-04-15T15:19:14Z</time>
      </trkpt>
      <trkpt lat="43.56432" lon="3.69175">
        <ele>119.8</ele>
        <time>2021-04-15T15:19:15Z</time>
      </trkpt>
      <trkpt lat="43.56432" lon="3.69175">
        <ele>121</ele>
        <time>2021-04-15T15:19:15Z</time>
      </trkpt>
      <trkpt lat="43.56432" lon="3.69177">
        <ele>119.7</ele>
        <time>2021-04-15T15:19:16Z</time>
      </trkpt>
      <trkpt lat="43.56432" lon="3.69177">
        <ele>121</ele>
        <time>2021-04-15T15:19:16Z</time>
      </trkpt>
      <trkpt lat="43.56432" lon="3.6918">
        <ele>119.7</ele>
        <time>2021-04-15T15:19:18Z</time>
      </trkpt>
      <trkpt lat="43.56432" lon="3.6918">
        <ele>121</ele>
        <time>2021-04-15T15:19:18Z</time>
      </trkpt>
      <trkpt lat="43.56431" lon="3.69184">
        <ele>119.7</ele>
        <time>2021-04-15T15:19:20Z</time>
      </trkpt>
      <trkpt lat="43.56431" lon="3.69184">
        <ele>121</ele>
        <time>2021-04-15T15:19:20Z</time>
      </trkpt>
      <trkpt lat="43.5643" lon="3.69187">
        <ele>119.6</ele>
        <time>2021-04-15T15:19:22Z</time>
      </trkpt>
      <trkpt lat="43.5643" lon="3.69187">
        <ele>121</ele>
        <time>2021-04-15T15:19:22Z</time>
      </trkpt>
      <trkpt lat="43.5643" lon="3.6919">
        <ele>119.6</ele>
        <time>2021-04-15T15:19:24Z</time>
      </trkpt>
      <trkpt lat="43.5643" lon="3.6919">
        <ele>121</ele>
        <time>2021-04-15T15:19:24Z</time>
      </trkpt>
      <trkpt lat="43.5643" lon="3.69194">
        <ele>119.5</ele>
        <time>2021-04-15T15:19:26Z</time>
      </trkpt>
      <trkpt lat="43.5643" lon="3.69194">
        <ele>122</ele>
        <time>2021-04-15T15:19:26Z</time>
      </trkpt>
      <trkpt lat="43.5643" lon="3.69197">
        <ele>119.4</ele>
        <time>2021-04-15T15:19:27Z</time>
      </trkpt>
      <trkpt lat="43.5643" lon="3.69197">
        <ele>122</ele>
        <time>2021-04-15T15:19:27Z</time>
      </trkpt>
      <trkpt lat="43.56429" lon="3.692">
        <ele>119.3</ele>
        <time>2021-04-15T15:19:29Z</time>
      </trkpt>
      <trkpt lat="43.56429" lon="3.692">
        <ele>122</ele>
        <time>2021-04-15T15:19:29Z</time>
      </trkpt>
      <trkpt lat="43.56429" lon="3.69202">
        <ele>119.3</ele>
        <time>2021-04-15T15:19:30Z</time>
      </trkpt>
      <trkpt lat="43.56429" lon="3.69202">
        <ele>122</ele>
        <time>2021-04-15T15:19:30Z</time>
      </trkpt>
      <trkpt lat="43.56429" lon="3.69205">
        <ele>119.2</ele>
        <time>2021-04-15T15:19:31Z</time>
      </trkpt>
      <trkpt lat="43.56429" lon="3.69205">
        <ele>122</ele>
        <time>2021-04-15T15:19:31Z</time>
      </trkpt>
      <trkpt lat="43.56428" lon="3.69207">
        <ele>119.1</ele>
        <time>2021-04-15T15:19:33Z</time>
      </trkpt>
      <trkpt lat="43.56428" lon="3.69207">
        <ele>122</ele>
        <time>2021-04-15T15:19:33Z</time>
      </trkpt>
      <trkpt lat="43.56427" lon="3.69209">
        <ele>119.1</ele>
        <time>2021-04-15T15:19:34Z</time>
      </trkpt>
      <trkpt lat="43.56427" lon="3.69209">
        <ele>122</ele>
        <time>2021-04-15T15:19:34Z</time>
      </trkpt>
      <trkpt lat="43.56426" lon="3.69211">
        <ele>119</ele>
        <time>2021-04-15T15:19:36Z</time>
      </trkpt>
      <trkpt lat="43.56426" lon="3.69211">
        <ele>122</ele>
        <time>2021-04-15T15:19:36Z</time>
      </trkpt>
      <trkpt lat="43.56426" lon="3.69214">
        <ele>119</ele>
        <time>2021-04-15T15:19:37Z</time>
      </trkpt>
      <trkpt lat="43.56426" lon="3.69214">
        <ele>122</ele>
        <time>2021-04-15T15:19:37Z</time>
      </trkpt>
      <trkpt lat="43.56425" lon="3.69216">
        <ele>118.9</ele>
        <time>2021-04-15T15:19:38Z</time>
      </trkpt>
      <trkpt lat="43.56425" lon="3.69216">
        <ele>122</ele>
        <time>2021-04-15T15:19:38Z</time>
      </trkpt>
      <trkpt lat="43.56424" lon="3.69218">
        <ele>118.9</ele>
        <time>2021-04-15T15:19:40Z</time>
      </trkpt>
      <trkpt lat="43.56424" lon="3.69218">
        <ele>122</ele>
        <time>2021-04-15T15:19:40Z</time>
      </trkpt>
      <trkpt lat="43.56423" lon="3.6922">
        <ele>118.8</ele>
        <time>2021-04-15T15:19:41Z</time>
      </trkpt>
      <trkpt lat="43.56423" lon="3.6922">
        <ele>122</ele>
        <time>2021-04-15T15:19:41Z</time>
      </trkpt>
      <trkpt lat="43.56423" lon="3.69223">
        <ele>118.8</ele>
        <time>2021-04-15T15:19:43Z</time>
      </trkpt>
      <trkpt lat="43.56423" lon="3.69223">
        <ele>122</ele>
        <time>2021-04-15T15:19:43Z</time>
      </trkpt>
      <trkpt lat="43.56422" lon="3.69225">
        <ele>118.8</ele>
        <time>2021-04-15T15:19:44Z</time>
      </trkpt>
      <trkpt lat="43.56422" lon="3.69225">
        <ele>122</ele>
        <time>2021-04-15T15:19:44Z</time>
      </trkpt>
      <trkpt lat="43.56422" lon="3.69227">
        <ele>118.8</ele>
        <time>2021-04-15T15:19:46Z</time>
      </trkpt>
      <trkpt lat="43.56422" lon="3.69227">
        <ele>122</ele>
        <time>2021-04-15T15:19:46Z</time>
      </trkpt>
      <trkpt lat="43.56421" lon="3.69229">
        <ele>118.8</ele>
        <time>2021-04-15T15:19:48Z</time>
      </trkpt>
      <trkpt lat="43.56421" lon="3.69229">
        <ele>122</ele>
        <time>2021-04-15T15:19:48Z</time>
      </trkpt>
      <trkpt lat="43.56421" lon="3.6923">
        <ele>118.9</ele>
        <time>2021-04-15T15:19:49Z</time>
      </trkpt>
      <trkpt lat="43.56421" lon="3.6923">
        <ele>122</ele>
        <time>2021-04-15T15:19:49Z</time>
      </trkpt>
      <trkpt lat="43.5642" lon="3.69233">
        <ele>118.9</ele>
        <time>2021-04-15T15:19:51Z</time>
      </trkpt>
      <trkpt lat="43.5642" lon="3.69233">
        <ele>122</ele>
        <time>2021-04-15T15:19:51Z</time>
      </trkpt>
      <trkpt lat="43.56419" lon="3.69235">
        <ele>118.9</ele>
        <time>2021-04-15T15:19:52Z</time>
      </trkpt>
      <trkpt lat="43.56419" lon="3.69235">
        <ele>122</ele>
        <time>2021-04-15T15:19:52Z</time>
      </trkpt>
      <trkpt lat="43.56419" lon="3.69237">
        <ele>118.9</ele>
        <time>2021-04-15T15:19:53Z</time>
      </trkpt>
      <trkpt lat="43.56419" lon="3.69237">
        <ele>122</ele>
        <time>2021-04-15T15:19:53Z</time>
      </trkpt>
      <trkpt lat="43.56418" lon="3.69239">
        <ele>118.9</ele>
        <time>2021-04-15T15:19:55Z</time>
      </trkpt>
      <trkpt lat="43.56418" lon="3.69239">
        <ele>122</ele>
        <time>2021-04-15T15:19:55Z</time>
      </trkpt>
      <trkpt lat="43.56418" lon="3.69241">
        <ele>119</ele>
        <time>2021-04-15T15:19:56Z</time>
      </trkpt>
      <trkpt lat="43.56418" lon="3.69241">
        <ele>122</ele>
        <time>2021-04-15T15:19:56Z</time>
      </trkpt>
      <trkpt lat="43.56417" lon="3.69244">
        <ele>119</ele>
        <time>2021-04-15T15:19:58Z</time>
      </trkpt>
      <trkpt lat="43.56417" lon="3.69244">
        <ele>122</ele>
        <time>2021-04-15T15:19:58Z</time>
      </trkpt>
      <trkpt lat="43.56416" lon="3.69245">
        <ele>119</ele>
        <time>2021-04-15T15:19:59Z</time>
      </trkpt>
      <trkpt lat="43.56416" lon="3.69245">
        <ele>122</ele>
        <time>2021-04-15T15:19:59Z</time>
      </trkpt>
      <trkpt lat="43.56416" lon="3.69247">
        <ele>119</ele>
        <time>2021-04-15T15:20:01Z</time>
      </trkpt>
      <trkpt lat="43.56416" lon="3.69247">
        <ele>122</ele>
        <time>2021-04-15T15:20:01Z</time>
      </trkpt>
      <trkpt lat="43.56415" lon="3.6925">
        <ele>119.1</ele>
        <time>2021-04-15T15:20:03Z</time>
      </trkpt>
      <trkpt lat="43.56415" lon="3.6925">
        <ele>122</ele>
        <time>2021-04-15T15:20:03Z</time>
      </trkpt>
      <trkpt lat="43.56415" lon="3.69253">
        <ele>119</ele>
        <time>2021-04-15T15:20:05Z</time>
      </trkpt>
      <trkpt lat="43.56415" lon="3.69253">
        <ele>122</ele>
        <time>2021-04-15T15:20:05Z</time>
      </trkpt>
      <trkpt lat="43.56414" lon="3.69256">
        <ele>118.9</ele>
        <time>2021-04-15T15:20:07Z</time>
      </trkpt>
      <trkpt lat="43.56414" lon="3.69256">
        <ele>122</ele>
        <time>2021-04-15T15:20:07Z</time>
      </trkpt>
      <trkpt lat="43.56414" lon="3.69258">
        <ele>118.8</ele>
        <time>2021-04-15T15:20:08Z</time>
      </trkpt>
      <trkpt lat="43.56414" lon="3.69258">
        <ele>122</ele>
        <time>2021-04-15T15:20:08Z</time>
      </trkpt>
      <trkpt lat="43.56413" lon="3.69261">
        <ele>118.7</ele>
        <time>2021-04-15T15:20:09Z</time>
      </trkpt>
      <trkpt lat="43.56413" lon="3.69261">
        <ele>122</ele>
        <time>2021-04-15T15:20:09Z</time>
      </trkpt>
      <trkpt lat="43.56412" lon="3.69263">
        <ele>118.7</ele>
        <time>2021-04-15T15:20:10Z</time>
      </trkpt>
      <trkpt lat="43.56412" lon="3.69263">
        <ele>122</ele>
        <time>2021-04-15T15:20:10Z</time>
      </trkpt>
      <trkpt lat="43.56412" lon="3.69265">
        <ele>118.7</ele>
        <time>2021-04-15T15:20:11Z</time>
      </trkpt>
      <trkpt lat="43.56412" lon="3.69265">
        <ele>122</ele>
        <time>2021-04-15T15:20:11Z</time>
      </trkpt>
      <trkpt lat="43.56411" lon="3.69267">
        <ele>118.6</ele>
        <time>2021-04-15T15:20:13Z</time>
      </trkpt>
      <trkpt lat="43.56411" lon="3.69267">
        <ele>122</ele>
        <time>2021-04-15T15:20:13Z</time>
      </trkpt>
      <trkpt lat="43.5641" lon="3.6927">
        <ele>118.5</ele>
        <time>2021-04-15T15:20:14Z</time>
      </trkpt>
      <trkpt lat="43.5641" lon="3.6927">
        <ele>122</ele>
        <time>2021-04-15T15:20:14Z</time>
      </trkpt>
      <trkpt lat="43.56409" lon="3.69272">
        <ele>118.5</ele>
        <time>2021-04-15T15:20:16Z</time>
      </trkpt>
      <trkpt lat="43.56409" lon="3.69272">
        <ele>121</ele>
        <time>2021-04-15T15:20:16Z</time>
      </trkpt>
      <trkpt lat="43.56409" lon="3.69274">
        <ele>118.4</ele>
        <time>2021-04-15T15:20:17Z</time>
      </trkpt>
      <trkpt lat="43.56409" lon="3.69274">
        <ele>121</ele>
        <time>2021-04-15T15:20:17Z</time>
      </trkpt>
      <trkpt lat="43.56408" lon="3.69276">
        <ele>118.4</ele>
        <time>2021-04-15T15:20:18Z</time>
      </trkpt>
      <trkpt lat="43.56408" lon="3.69276">
        <ele>121</ele>
        <time>2021-04-15T15:20:18Z</time>
      </trkpt>
      <trkpt lat="43.56407" lon="3.69277">
        <ele>118.4</ele>
        <time>2021-04-15T15:20:19Z</time>
      </trkpt>
      <trkpt lat="43.56407" lon="3.69277">
        <ele>121</ele>
        <time>2021-04-15T15:20:19Z</time>
      </trkpt>
      <trkpt lat="43.56407" lon="3.69279">
        <ele>118.4</ele>
        <time>2021-04-15T15:20:20Z</time>
      </trkpt>
      <trkpt lat="43.56407" lon="3.69279">
        <ele>121</ele>
        <time>2021-04-15T15:20:20Z</time>
      </trkpt>
      <trkpt lat="43.56406" lon="3.6928">
        <ele>118.4</ele>
        <time>2021-04-15T15:20:21Z</time>
      </trkpt>
      <trkpt lat="43.56406" lon="3.6928">
        <ele>121</ele>
        <time>2021-04-15T15:20:21Z</time>
      </trkpt>
      <trkpt lat="43.56405" lon="3.69282">
        <ele>118.3</ele>
        <time>2021-04-15T15:20:23Z</time>
      </trkpt>
      <trkpt lat="43.56405" lon="3.69282">
        <ele>121</ele>
        <time>2021-04-15T15:20:23Z</time>
      </trkpt>
      <trkpt lat="43.56405" lon="3.69284">
        <ele>118.3</ele>
        <time>2021-04-15T15:20:24Z</time>
      </trkpt>
      <trkpt lat="43.56405" lon="3.69284">
        <ele>121</ele>
        <time>2021-04-15T15:20:24Z</time>
      </trkpt>
      <trkpt lat="43.56405" lon="3.69286">
        <ele>118.3</ele>
        <time>2021-04-15T15:20:26Z</time>
      </trkpt>
      <trkpt lat="43.56405" lon="3.69286">
        <ele>121</ele>
        <time>2021-04-15T15:20:26Z</time>
      </trkpt>
      <trkpt lat="43.56405" lon="3.69288">
        <ele>118.3</ele>
        <time>2021-04-15T15:20:27Z</time>
      </trkpt>
      <trkpt lat="43.56405" lon="3.69288">
        <ele>121</ele>
        <time>2021-04-15T15:20:27Z</time>
      </trkpt>
      <trkpt lat="43.56404" lon="3.6929">
        <ele>118.3</ele>
        <time>2021-04-15T15:20:28Z</time>
      </trkpt>
      <trkpt lat="43.56404" lon="3.6929">
        <ele>121</ele>
        <time>2021-04-15T15:20:28Z</time>
      </trkpt>
      <trkpt lat="43.56404" lon="3.69292">
        <ele>118.2</ele>
        <time>2021-04-15T15:20:30Z</time>
      </trkpt>
      <trkpt lat="43.56404" lon="3.69292">
        <ele>121</ele>
        <time>2021-04-15T15:20:30Z</time>
      </trkpt>
      <trkpt lat="43.56403" lon="3.69295">
        <ele>118.2</ele>
        <time>2021-04-15T15:20:31Z</time>
      </trkpt>
      <trkpt lat="43.56403" lon="3.69295">
        <ele>121</ele>
        <time>2021-04-15T15:20:31Z</time>
      </trkpt>
      <trkpt lat="43.56403" lon="3.69297">
        <ele>118.2</ele>
        <time>2021-04-15T15:20:32Z</time>
      </trkpt>
      <trkpt lat="43.56403" lon="3.69297">
        <ele>121</ele>
        <time>2021-04-15T15:20:32Z</time>
      </trkpt>
      <trkpt lat="43.56402" lon="3.69299">
        <ele>118.1</ele>
        <time>2021-04-15T15:20:34Z</time>
      </trkpt>
      <trkpt lat="43.56402" lon="3.69299">
        <ele>121</ele>
        <time>2021-04-15T15:20:34Z</time>
      </trkpt>
      <trkpt lat="43.56402" lon="3.69301">
        <ele>118.1</ele>
        <time>2021-04-15T15:20:35Z</time>
      </trkpt>
      <trkpt lat="43.56402" lon="3.69301">
        <ele>121</ele>
        <time>2021-04-15T15:20:35Z</time>
      </trkpt>
      <trkpt lat="43.56401" lon="3.69303">
        <ele>118</ele>
        <time>2021-04-15T15:20:37Z</time>
      </trkpt>
      <trkpt lat="43.56401" lon="3.69303">
        <ele>121</ele>
        <time>2021-04-15T15:20:37Z</time>
      </trkpt>
      <trkpt lat="43.564" lon="3.69305">
        <ele>118</ele>
        <time>2021-04-15T15:20:38Z</time>
      </trkpt>
      <trkpt lat="43.564" lon="3.69305">
        <ele>121</ele>
        <time>2021-04-15T15:20:38Z</time>
      </trkpt>
      <trkpt lat="43.564" lon="3.69307">
        <ele>118</ele>
        <time>2021-04-15T15:20:39Z</time>
      </trkpt>
      <trkpt lat="43.564" lon="3.69307">
        <ele>121</ele>
        <time>2021-04-15T15:20:39Z</time>
      </trkpt>
      <trkpt lat="43.56399" lon="3.69309">
        <ele>117.9</ele>
        <time>2021-04-15T15:20:41Z</time>
      </trkpt>
      <trkpt lat="43.56399" lon="3.69309">
        <ele>121</ele>
        <time>2021-04-15T15:20:41Z</time>
      </trkpt>
      <trkpt lat="43.56398" lon="3.69311">
        <ele>117.8</ele>
        <time>2021-04-15T15:20:42Z</time>
      </trkpt>
      <trkpt lat="43.56398" lon="3.69311">
        <ele>121</ele>
        <time>2021-04-15T15:20:42Z</time>
      </trkpt>
      <trkpt lat="43.56397" lon="3.69313">
        <ele>117.7</ele>
        <time>2021-04-15T15:20:43Z</time>
      </trkpt>
      <trkpt lat="43.56397" lon="3.69313">
        <ele>121</ele>
        <time>2021-04-15T15:20:43Z</time>
      </trkpt>
      <trkpt lat="43.56396" lon="3.69316">
        <ele>117.6</ele>
        <time>2021-04-15T15:20:45Z</time>
      </trkpt>
      <trkpt lat="43.56396" lon="3.69316">
        <ele>121</ele>
        <time>2021-04-15T15:20:45Z</time>
      </trkpt>
      <trkpt lat="43.56395" lon="3.69318">
        <ele>117.5</ele>
        <time>2021-04-15T15:20:46Z</time>
      </trkpt>
      <trkpt lat="43.56395" lon="3.69318">
        <ele>121</ele>
        <time>2021-04-15T15:20:46Z</time>
      </trkpt>
      <trkpt lat="43.56394" lon="3.69321">
        <ele>117.4</ele>
        <time>2021-04-15T15:20:48Z</time>
      </trkpt>
      <trkpt lat="43.56394" lon="3.69321">
        <ele>121</ele>
        <time>2021-04-15T15:20:48Z</time>
      </trkpt>
      <trkpt lat="43.56393" lon="3.69324">
        <ele>117.3</ele>
        <time>2021-04-15T15:20:49Z</time>
      </trkpt>
      <trkpt lat="43.56393" lon="3.69324">
        <ele>121</ele>
        <time>2021-04-15T15:20:49Z</time>
      </trkpt>
      <trkpt lat="43.56392" lon="3.69327">
        <ele>117.2</ele>
        <time>2021-04-15T15:20:51Z</time>
      </trkpt>
      <trkpt lat="43.56392" lon="3.69327">
        <ele>121</ele>
        <time>2021-04-15T15:20:51Z</time>
      </trkpt>
      <trkpt lat="43.56391" lon="3.69329">
        <ele>117.2</ele>
        <time>2021-04-15T15:20:52Z</time>
      </trkpt>
      <trkpt lat="43.56391" lon="3.69329">
        <ele>121</ele>
        <time>2021-04-15T15:20:52Z</time>
      </trkpt>
      <trkpt lat="43.56391" lon="3.69331">
        <ele>117.1</ele>
        <time>2021-04-15T15:20:54Z</time>
      </trkpt>
      <trkpt lat="43.56391" lon="3.69331">
        <ele>120</ele>
        <time>2021-04-15T15:20:54Z</time>
      </trkpt>
      <trkpt lat="43.5639" lon="3.69333">
        <ele>117</ele>
        <time>2021-04-15T15:20:55Z</time>
      </trkpt>
      <trkpt lat="43.5639" lon="3.69333">
        <ele>120</ele>
        <time>2021-04-15T15:20:55Z</time>
      </trkpt>
      <trkpt lat="43.5639" lon="3.69336">
        <ele>116.9</ele>
        <time>2021-04-15T15:20:56Z</time>
      </trkpt>
      <trkpt lat="43.5639" lon="3.69336">
        <ele>120</ele>
        <time>2021-04-15T15:20:56Z</time>
      </trkpt>
      <trkpt lat="43.56389" lon="3.69338">
        <ele>116.8</ele>
        <time>2021-04-15T15:20:58Z</time>
      </trkpt>
      <trkpt lat="43.56389" lon="3.69338">
        <ele>120</ele>
        <time>2021-04-15T15:20:58Z</time>
      </trkpt>
      <trkpt lat="43.56389" lon="3.6934">
        <ele>116.7</ele>
        <time>2021-04-15T15:20:59Z</time>
      </trkpt>
      <trkpt lat="43.56389" lon="3.6934">
        <ele>120</ele>
        <time>2021-04-15T15:20:59Z</time>
      </trkpt>
      <trkpt lat="43.56389" lon="3.69343">
        <ele>116.7</ele>
        <time>2021-04-15T15:21:01Z</time>
      </trkpt>
      <trkpt lat="43.56389" lon="3.69343">
        <ele>120</ele>
        <time>2021-04-15T15:21:01Z</time>
      </trkpt>
      <trkpt lat="43.56388" lon="3.69346">
        <ele>116.5</ele>
        <time>2021-04-15T15:21:03Z</time>
      </trkpt>
      <trkpt lat="43.56388" lon="3.69346">
        <ele>119</ele>
        <time>2021-04-15T15:21:03Z</time>
      </trkpt>
      <trkpt lat="43.56387" lon="3.6935">
        <ele>116.4</ele>
        <time>2021-04-15T15:21:05Z</time>
      </trkpt>
      <trkpt lat="43.56387" lon="3.6935">
        <ele>119</ele>
        <time>2021-04-15T15:21:05Z</time>
      </trkpt>
      <trkpt lat="43.56386" lon="3.69354">
        <ele>116.3</ele>
        <time>2021-04-15T15:21:07Z</time>
      </trkpt>
      <trkpt lat="43.56386" lon="3.69354">
        <ele>119</ele>
        <time>2021-04-15T15:21:07Z</time>
      </trkpt>
      <trkpt lat="43.56385" lon="3.69357">
        <ele>116.1</ele>
        <time>2021-04-15T15:21:09Z</time>
      </trkpt>
      <trkpt lat="43.56385" lon="3.69357">
        <ele>119</ele>
        <time>2021-04-15T15:21:09Z</time>
      </trkpt>
      <trkpt lat="43.56383" lon="3.6936">
        <ele>116</ele>
        <time>2021-04-15T15:21:10Z</time>
      </trkpt>
      <trkpt lat="43.56383" lon="3.6936">
        <ele>119</ele>
        <time>2021-04-15T15:21:10Z</time>
      </trkpt>
      <trkpt lat="43.56385" lon="3.69368">
        <ele>116</ele>
        <time>2021-04-15T15:21:33Z</time>
      </trkpt>
      <trkpt lat="43.56385" lon="3.69368">
        <ele>119</ele>
        <time>2021-04-15T15:21:33Z</time>
      </trkpt>
      <trkpt lat="43.56385" lon="3.69368">
        <ele>116</ele>
        <time>2021-04-15T15:21:35Z</time>
      </trkpt>
      <trkpt lat="43.56385" lon="3.69368">
        <ele>119</ele>
        <time>2021-04-15T15:21:35Z</time>
      </trkpt>
      <trkpt lat="43.56386" lon="3.69369">
        <ele>116</ele>
        <time>2021-04-15T15:21:36Z</time>
      </trkpt>
      <trkpt lat="43.56386" lon="3.69369">
        <ele>119</ele>
        <time>2021-04-15T15:21:36Z</time>
      </trkpt>
      <trkpt lat="43.56388" lon="3.6937">
        <ele>116</ele>
        <time>2021-04-15T15:21:38Z</time>
      </trkpt>
      <trkpt lat="43.56388" lon="3.6937">
        <ele>119</ele>
        <time>2021-04-15T15:21:38Z</time>
      </trkpt>
      <trkpt lat="43.56389" lon="3.69371">
        <ele>116</ele>
        <time>2021-04-15T15:21:39Z</time>
      </trkpt>
      <trkpt lat="43.56389" lon="3.69371">
        <ele>119</ele>
        <time>2021-04-15T15:21:39Z</time>
      </trkpt>
      <trkpt lat="43.5639" lon="3.69371">
        <ele>116</ele>
        <time>2021-04-15T15:21:40Z</time>
      </trkpt>
      <trkpt lat="43.5639" lon="3.69371">
        <ele>119</ele>
        <time>2021-04-15T15:21:40Z</time>
      </trkpt>
      <trkpt lat="43.56392" lon="3.69372">
        <ele>116</ele>
        <time>2021-04-15T15:21:42Z</time>
      </trkpt>
      <trkpt lat="43.56392" lon="3.69372">
        <ele>119</ele>
        <time>2021-04-15T15:21:42Z</time>
      </trkpt>
      <trkpt lat="43.56393" lon="3.69374">
        <ele>115.9</ele>
        <time>2021-04-15T15:21:44Z</time>
      </trkpt>
      <trkpt lat="43.56393" lon="3.69374">
        <ele>119</ele>
        <time>2021-04-15T15:21:44Z</time>
      </trkpt>
      <trkpt lat="43.56395" lon="3.69376">
        <ele>115.9</ele>
        <time>2021-04-15T15:21:46Z</time>
      </trkpt>
      <trkpt lat="43.56395" lon="3.69376">
        <ele>119</ele>
        <time>2021-04-15T15:21:46Z</time>
      </trkpt>
      <trkpt lat="43.56397" lon="3.69378">
        <ele>115.8</ele>
        <time>2021-04-15T15:21:48Z</time>
      </trkpt>
      <trkpt lat="43.56397" lon="3.69378">
        <ele>119</ele>
        <time>2021-04-15T15:21:48Z</time>
      </trkpt>
      <trkpt lat="43.56399" lon="3.69379">
        <ele>115.8</ele>
        <time>2021-04-15T15:21:49Z</time>
      </trkpt>
      <trkpt lat="43.56399" lon="3.69379">
        <ele>119</ele>
        <time>2021-04-15T15:21:49Z</time>
      </trkpt>
      <trkpt lat="43.564" lon="3.69381">
        <ele>115.7</ele>
        <time>2021-04-15T15:21:51Z</time>
      </trkpt>
      <trkpt lat="43.564" lon="3.69381">
        <ele>119</ele>
        <time>2021-04-15T15:21:51Z</time>
      </trkpt>
      <trkpt lat="43.56402" lon="3.69383">
        <ele>115.6</ele>
        <time>2021-04-15T15:21:53Z</time>
      </trkpt>
      <trkpt lat="43.56402" lon="3.69383">
        <ele>119</ele>
        <time>2021-04-15T15:21:53Z</time>
      </trkpt>
      <trkpt lat="43.56403" lon="3.69385">
        <ele>115.5</ele>
        <time>2021-04-15T15:21:54Z</time>
      </trkpt>
      <trkpt lat="43.56403" lon="3.69385">
        <ele>119</ele>
        <time>2021-04-15T15:21:54Z</time>
      </trkpt>
      <trkpt lat="43.56405" lon="3.69388">
        <ele>115.5</ele>
        <time>2021-04-15T15:21:56Z</time>
      </trkpt>
      <trkpt lat="43.56405" lon="3.69388">
        <ele>119</ele>
        <time>2021-04-15T15:21:56Z</time>
      </trkpt>
      <trkpt lat="43.56407" lon="3.6939">
        <ele>115.4</ele>
        <time>2021-04-15T15:21:57Z</time>
      </trkpt>
      <trkpt lat="43.56407" lon="3.6939">
        <ele>119</ele>
        <time>2021-04-15T15:21:57Z</time>
      </trkpt>
      <trkpt lat="43.56408" lon="3.69391">
        <ele>115.3</ele>
        <time>2021-04-15T15:21:58Z</time>
      </trkpt>
      <trkpt lat="43.56408" lon="3.69391">
        <ele>119</ele>
        <time>2021-04-15T15:21:58Z</time>
      </trkpt>
      <trkpt lat="43.56409" lon="3.69393">
        <ele>115.2</ele>
        <time>2021-04-15T15:22:00Z</time>
      </trkpt>
      <trkpt lat="43.56409" lon="3.69393">
        <ele>119</ele>
        <time>2021-04-15T15:22:00Z</time>
      </trkpt>
      <trkpt lat="43.56411" lon="3.69395">
        <ele>115.2</ele>
        <time>2021-04-15T15:22:01Z</time>
      </trkpt>
      <trkpt lat="43.56411" lon="3.69395">
        <ele>119</ele>
        <time>2021-04-15T15:22:01Z</time>
      </trkpt>
      <trkpt lat="43.56412" lon="3.69397">
        <ele>115.1</ele>
        <time>2021-04-15T15:22:03Z</time>
      </trkpt>
      <trkpt lat="43.56412" lon="3.69397">
        <ele>119</ele>
        <time>2021-04-15T15:22:03Z</time>
      </trkpt>
      <trkpt lat="43.56413" lon="3.69399">
        <ele>115.1</ele>
        <time>2021-04-15T15:22:04Z</time>
      </trkpt>
      <trkpt lat="43.56413" lon="3.69399">
        <ele>119</ele>
        <time>2021-04-15T15:22:04Z</time>
      </trkpt>
      <trkpt lat="43.56414" lon="3.694">
        <ele>115.1</ele>
        <time>2021-04-15T15:22:05Z</time>
      </trkpt>
      <trkpt lat="43.56414" lon="3.694">
        <ele>119</ele>
        <time>2021-04-15T15:22:05Z</time>
      </trkpt>
      <trkpt lat="43.56415" lon="3.69401">
        <ele>115</ele>
        <time>2021-04-15T15:22:06Z</time>
      </trkpt>
      <trkpt lat="43.56415" lon="3.69401">
        <ele>119</ele>
        <time>2021-04-15T15:22:06Z</time>
      </trkpt>
      <trkpt lat="43.56417" lon="3.69403">
        <ele>115</ele>
        <time>2021-04-15T15:22:08Z</time>
      </trkpt>
      <trkpt lat="43.56417" lon="3.69403">
        <ele>118</ele>
        <time>2021-04-15T15:22:08Z</time>
      </trkpt>
      <trkpt lat="43.56418" lon="3.69405">
        <ele>115</ele>
        <time>2021-04-15T15:22:09Z</time>
      </trkpt>
      <trkpt lat="43.56418" lon="3.69405">
        <ele>118</ele>
        <time>2021-04-15T15:22:09Z</time>
      </trkpt>
      <trkpt lat="43.5642" lon="3.69407">
        <ele>114.9</ele>
        <time>2021-04-15T15:22:11Z</time>
      </trkpt>
      <trkpt lat="43.5642" lon="3.69407">
        <ele>118</ele>
        <time>2021-04-15T15:22:11Z</time>
      </trkpt>
      <trkpt lat="43.56422" lon="3.69408">
        <ele>114.9</ele>
        <time>2021-04-15T15:22:13Z</time>
      </trkpt>
      <trkpt lat="43.56422" lon="3.69408">
        <ele>118</ele>
        <time>2021-04-15T15:22:13Z</time>
      </trkpt>
      <trkpt lat="43.56424" lon="3.6941">
        <ele>114.8</ele>
        <time>2021-04-15T15:22:15Z</time>
      </trkpt>
      <trkpt lat="43.56424" lon="3.6941">
        <ele>118</ele>
        <time>2021-04-15T15:22:15Z</time>
      </trkpt>
      <trkpt lat="43.56425" lon="3.69412">
        <ele>114.7</ele>
        <time>2021-04-15T15:22:16Z</time>
      </trkpt>
      <trkpt lat="43.56425" lon="3.69412">
        <ele>118</ele>
        <time>2021-04-15T15:22:16Z</time>
      </trkpt>
      <trkpt lat="43.56427" lon="3.69413">
        <ele>114.7</ele>
        <time>2021-04-15T15:22:18Z</time>
      </trkpt>
      <trkpt lat="43.56427" lon="3.69413">
        <ele>118</ele>
        <time>2021-04-15T15:22:18Z</time>
      </trkpt>
      <trkpt lat="43.56428" lon="3.69415">
        <ele>114.6</ele>
        <time>2021-04-15T15:22:20Z</time>
      </trkpt>
      <trkpt lat="43.56428" lon="3.69415">
        <ele>118</ele>
        <time>2021-04-15T15:22:20Z</time>
      </trkpt>
      <trkpt lat="43.5643" lon="3.69417">
        <ele>114.5</ele>
        <time>2021-04-15T15:22:21Z</time>
      </trkpt>
      <trkpt lat="43.5643" lon="3.69417">
        <ele>118</ele>
        <time>2021-04-15T15:22:21Z</time>
      </trkpt>
      <trkpt lat="43.56432" lon="3.69419">
        <ele>114.4</ele>
        <time>2021-04-15T15:22:23Z</time>
      </trkpt>
      <trkpt lat="43.56432" lon="3.69419">
        <ele>118</ele>
        <time>2021-04-15T15:22:23Z</time>
      </trkpt>
      <trkpt lat="43.56433" lon="3.69421">
        <ele>114.3</ele>
        <time>2021-04-15T15:22:24Z</time>
      </trkpt>
      <trkpt lat="43.56433" lon="3.69421">
        <ele>118</ele>
        <time>2021-04-15T15:22:24Z</time>
      </trkpt>
      <trkpt lat="43.56435" lon="3.69423">
        <ele>114.1</ele>
        <time>2021-04-15T15:22:26Z</time>
      </trkpt>
      <trkpt lat="43.56435" lon="3.69423">
        <ele>118</ele>
        <time>2021-04-15T15:22:26Z</time>
      </trkpt>
      <trkpt lat="43.56436" lon="3.69424">
        <ele>114</ele>
        <time>2021-04-15T15:22:27Z</time>
      </trkpt>
      <trkpt lat="43.56436" lon="3.69424">
        <ele>118</ele>
        <time>2021-04-15T15:22:27Z</time>
      </trkpt>
      <trkpt lat="43.56438" lon="3.69426">
        <ele>113.9</ele>
        <time>2021-04-15T15:22:28Z</time>
      </trkpt>
      <trkpt lat="43.56438" lon="3.69426">
        <ele>118</ele>
        <time>2021-04-15T15:22:28Z</time>
      </trkpt>
      <trkpt lat="43.56439" lon="3.69427">
        <ele>113.8</ele>
        <time>2021-04-15T15:22:30Z</time>
      </trkpt>
      <trkpt lat="43.56439" lon="3.69427">
        <ele>118</ele>
        <time>2021-04-15T15:22:30Z</time>
      </trkpt>
      <trkpt lat="43.56441" lon="3.69429">
        <ele>113.7</ele>
        <time>2021-04-15T15:22:32Z</time>
      </trkpt>
      <trkpt lat="43.56441" lon="3.69429">
        <ele>118</ele>
        <time>2021-04-15T15:22:32Z</time>
      </trkpt>
      <trkpt lat="43.56442" lon="3.69431">
        <ele>113.6</ele>
        <time>2021-04-15T15:22:34Z</time>
      </trkpt>
      <trkpt lat="43.56442" lon="3.69431">
        <ele>118</ele>
        <time>2021-04-15T15:22:34Z</time>
      </trkpt>
      <trkpt lat="43.56443" lon="3.69432">
        <ele>113.5</ele>
        <time>2021-04-15T15:22:36Z</time>
      </trkpt>
      <trkpt lat="43.56443" lon="3.69432">
        <ele>118</ele>
        <time>2021-04-15T15:22:36Z</time>
      </trkpt>
      <trkpt lat="43.56446" lon="3.69444">
        <ele>112.9</ele>
        <time>2021-04-15T15:22:56Z</time>
      </trkpt>
      <trkpt lat="43.56446" lon="3.69444">
        <ele>118</ele>
        <time>2021-04-15T15:22:56Z</time>
      </trkpt>
      <trkpt lat="43.56446" lon="3.69444">
        <ele>112.9</ele>
        <time>2021-04-15T15:22:57Z</time>
      </trkpt>
      <trkpt lat="43.56446" lon="3.69444">
        <ele>116</ele>
        <time>2021-04-15T15:22:57Z</time>
      </trkpt>
      <trkpt lat="43.56447" lon="3.69445">
        <ele>112.8</ele>
        <time>2021-04-15T15:22:58Z</time>
      </trkpt>
      <trkpt lat="43.56447" lon="3.69445">
        <ele>116</ele>
        <time>2021-04-15T15:22:58Z</time>
      </trkpt>
      <trkpt lat="43.56447" lon="3.69446">
        <ele>112.8</ele>
        <time>2021-04-15T15:22:59Z</time>
      </trkpt>
      <trkpt lat="43.56447" lon="3.69446">
        <ele>116</ele>
        <time>2021-04-15T15:22:59Z</time>
      </trkpt>
      <trkpt lat="43.56447" lon="3.69448">
        <ele>112.6</ele>
        <time>2021-04-15T15:23:01Z</time>
      </trkpt>
      <trkpt lat="43.56447" lon="3.69448">
        <ele>116</ele>
        <time>2021-04-15T15:23:01Z</time>
      </trkpt>
      <trkpt lat="43.56447" lon="3.6945">
        <ele>112.5</ele>
        <time>2021-04-15T15:23:02Z</time>
      </trkpt>
      <trkpt lat="43.56447" lon="3.6945">
        <ele>116</ele>
        <time>2021-04-15T15:23:02Z</time>
      </trkpt>
      <trkpt lat="43.56447" lon="3.69453">
        <ele>112.3</ele>
        <time>2021-04-15T15:23:04Z</time>
      </trkpt>
      <trkpt lat="43.56447" lon="3.69453">
        <ele>116</ele>
        <time>2021-04-15T15:23:04Z</time>
      </trkpt>
      <trkpt lat="43.56447" lon="3.69455">
        <ele>112.1</ele>
        <time>2021-04-15T15:23:05Z</time>
      </trkpt>
      <trkpt lat="43.56447" lon="3.69455">
        <ele>116</ele>
        <time>2021-04-15T15:23:05Z</time>
      </trkpt>
      <trkpt lat="43.56447" lon="3.69457">
        <ele>112</ele>
        <time>2021-04-15T15:23:06Z</time>
      </trkpt>
      <trkpt lat="43.56447" lon="3.69457">
        <ele>116</ele>
        <time>2021-04-15T15:23:06Z</time>
      </trkpt>
      <trkpt lat="43.56447" lon="3.6946">
        <ele>111.8</ele>
        <time>2021-04-15T15:23:08Z</time>
      </trkpt>
      <trkpt lat="43.56447" lon="3.6946">
        <ele>116</ele>
        <time>2021-04-15T15:23:08Z</time>
      </trkpt>
      <trkpt lat="43.56447" lon="3.69462">
        <ele>111.6</ele>
        <time>2021-04-15T15:23:09Z</time>
      </trkpt>
      <trkpt lat="43.56447" lon="3.69462">
        <ele>116</ele>
        <time>2021-04-15T15:23:09Z</time>
      </trkpt>
      <trkpt lat="43.56447" lon="3.69464">
        <ele>111.5</ele>
        <time>2021-04-15T15:23:11Z</time>
      </trkpt>
      <trkpt lat="43.56447" lon="3.69464">
        <ele>114</ele>
        <time>2021-04-15T15:23:11Z</time>
      </trkpt>
      <trkpt lat="43.56447" lon="3.69467">
        <ele>111.3</ele>
        <time>2021-04-15T15:23:13Z</time>
      </trkpt>
      <trkpt lat="43.56447" lon="3.69467">
        <ele>114</ele>
        <time>2021-04-15T15:23:13Z</time>
      </trkpt>
      <trkpt lat="43.56448" lon="3.69469">
        <ele>111.1</ele>
        <time>2021-04-15T15:23:14Z</time>
      </trkpt>
      <trkpt lat="43.56448" lon="3.69469">
        <ele>114</ele>
        <time>2021-04-15T15:23:14Z</time>
      </trkpt>
      <trkpt lat="43.56448" lon="3.69471">
        <ele>110.9</ele>
        <time>2021-04-15T15:23:15Z</time>
      </trkpt>
      <trkpt lat="43.56448" lon="3.69471">
        <ele>114</ele>
        <time>2021-04-15T15:23:15Z</time>
      </trkpt>
      <trkpt lat="43.56449" lon="3.69473">
        <ele>110.8</ele>
        <time>2021-04-15T15:23:16Z</time>
      </trkpt>
      <trkpt lat="43.56449" lon="3.69473">
        <ele>114</ele>
        <time>2021-04-15T15:23:16Z</time>
      </trkpt>
      <trkpt lat="43.5645" lon="3.69475">
        <ele>110.7</ele>
        <time>2021-04-15T15:23:18Z</time>
      </trkpt>
      <trkpt lat="43.5645" lon="3.69475">
        <ele>114</ele>
        <time>2021-04-15T15:23:18Z</time>
      </trkpt>
      <trkpt lat="43.56451" lon="3.69477">
        <ele>110.6</ele>
        <time>2021-04-15T15:23:19Z</time>
      </trkpt>
      <trkpt lat="43.56451" lon="3.69477">
        <ele>114</ele>
        <time>2021-04-15T15:23:19Z</time>
      </trkpt>
      <trkpt lat="43.56452" lon="3.69479">
        <ele>110.4</ele>
        <time>2021-04-15T15:23:21Z</time>
      </trkpt>
      <trkpt lat="43.56452" lon="3.69479">
        <ele>114</ele>
        <time>2021-04-15T15:23:21Z</time>
      </trkpt>
      <trkpt lat="43.56453" lon="3.69481">
        <ele>110.3</ele>
        <time>2021-04-15T15:23:23Z</time>
      </trkpt>
      <trkpt lat="43.56453" lon="3.69481">
        <ele>114</ele>
        <time>2021-04-15T15:23:23Z</time>
      </trkpt>
      <trkpt lat="43.56455" lon="3.69483">
        <ele>110.1</ele>
        <time>2021-04-15T15:23:25Z</time>
      </trkpt>
      <trkpt lat="43.56455" lon="3.69483">
        <ele>114</ele>
        <time>2021-04-15T15:23:25Z</time>
      </trkpt>
      <trkpt lat="43.56457" lon="3.69485">
        <ele>109.9</ele>
        <time>2021-04-15T15:23:27Z</time>
      </trkpt>
      <trkpt lat="43.56457" lon="3.69485">
        <ele>112</ele>
        <time>2021-04-15T15:23:27Z</time>
      </trkpt>
      <trkpt lat="43.56458" lon="3.69486">
        <ele>109.8</ele>
        <time>2021-04-15T15:23:28Z</time>
      </trkpt>
      <trkpt lat="43.56458" lon="3.69486">
        <ele>112</ele>
        <time>2021-04-15T15:23:28Z</time>
      </trkpt>
      <trkpt lat="43.56459" lon="3.69488">
        <ele>109.6</ele>
        <time>2021-04-15T15:23:30Z</time>
      </trkpt>
      <trkpt lat="43.56459" lon="3.69488">
        <ele>112</ele>
        <time>2021-04-15T15:23:30Z</time>
      </trkpt>
      <trkpt lat="43.56461" lon="3.69489">
        <ele>109.4</ele>
        <time>2021-04-15T15:23:31Z</time>
      </trkpt>
      <trkpt lat="43.56461" lon="3.69489">
        <ele>112</ele>
        <time>2021-04-15T15:23:31Z</time>
      </trkpt>
      <trkpt lat="43.56462" lon="3.69491">
        <ele>109.3</ele>
        <time>2021-04-15T15:23:33Z</time>
      </trkpt>
      <trkpt lat="43.56462" lon="3.69491">
        <ele>112</ele>
        <time>2021-04-15T15:23:33Z</time>
      </trkpt>
      <trkpt lat="43.56463" lon="3.69492">
        <ele>109.1</ele>
        <time>2021-04-15T15:23:34Z</time>
      </trkpt>
      <trkpt lat="43.56463" lon="3.69492">
        <ele>112</ele>
        <time>2021-04-15T15:23:34Z</time>
      </trkpt>
      <trkpt lat="43.56465" lon="3.69494">
        <ele>108.9</ele>
        <time>2021-04-15T15:23:36Z</time>
      </trkpt>
      <trkpt lat="43.56465" lon="3.69494">
        <ele>112</ele>
        <time>2021-04-15T15:23:36Z</time>
      </trkpt>
      <trkpt lat="43.56466" lon="3.69497">
        <ele>108.7</ele>
        <time>2021-04-15T15:23:37Z</time>
      </trkpt>
      <trkpt lat="43.56466" lon="3.69497">
        <ele>112</ele>
        <time>2021-04-15T15:23:37Z</time>
      </trkpt>
      <trkpt lat="43.56467" lon="3.69499">
        <ele>108.5</ele>
        <time>2021-04-15T15:23:38Z</time>
      </trkpt>
      <trkpt lat="43.56467" lon="3.69499">
        <ele>112</ele>
        <time>2021-04-15T15:23:38Z</time>
      </trkpt>
      <trkpt lat="43.56468" lon="3.69501">
        <ele>108.2</ele>
        <time>2021-04-15T15:23:40Z</time>
      </trkpt>
      <trkpt lat="43.56468" lon="3.69501">
        <ele>112</ele>
        <time>2021-04-15T15:23:40Z</time>
      </trkpt>
      <trkpt lat="43.56469" lon="3.69503">
        <ele>108</ele>
        <time>2021-04-15T15:23:42Z</time>
      </trkpt>
      <trkpt lat="43.56469" lon="3.69503">
        <ele>112</ele>
        <time>2021-04-15T15:23:42Z</time>
      </trkpt>
      <trkpt lat="43.5647" lon="3.69505">
        <ele>107.8</ele>
        <time>2021-04-15T15:23:43Z</time>
      </trkpt>
      <trkpt lat="43.5647" lon="3.69505">
        <ele>110</ele>
        <time>2021-04-15T15:23:43Z</time>
      </trkpt>
      <trkpt lat="43.56471" lon="3.69507">
        <ele>107.6</ele>
        <time>2021-04-15T15:23:44Z</time>
      </trkpt>
      <trkpt lat="43.56471" lon="3.69507">
        <ele>110</ele>
        <time>2021-04-15T15:23:44Z</time>
      </trkpt>
      <trkpt lat="43.56472" lon="3.69509">
        <ele>107.4</ele>
        <time>2021-04-15T15:23:46Z</time>
      </trkpt>
      <trkpt lat="43.56472" lon="3.69509">
        <ele>110</ele>
        <time>2021-04-15T15:23:46Z</time>
      </trkpt>
      <trkpt lat="43.56473" lon="3.69511">
        <ele>107.2</ele>
        <time>2021-04-15T15:23:47Z</time>
      </trkpt>
      <trkpt lat="43.56473" lon="3.69511">
        <ele>110</ele>
        <time>2021-04-15T15:23:47Z</time>
      </trkpt>
      <trkpt lat="43.56474" lon="3.69512">
        <ele>107</ele>
        <time>2021-04-15T15:23:48Z</time>
      </trkpt>
      <trkpt lat="43.56474" lon="3.69512">
        <ele>110</ele>
        <time>2021-04-15T15:23:48Z</time>
      </trkpt>
      <trkpt lat="43.56474" lon="3.69513">
        <ele>106.8</ele>
        <time>2021-04-15T15:23:49Z</time>
      </trkpt>
      <trkpt lat="43.56474" lon="3.69513">
        <ele>110</ele>
        <time>2021-04-15T15:23:49Z</time>
      </trkpt>
      <trkpt lat="43.56476" lon="3.69515">
        <ele>106.5</ele>
        <time>2021-04-15T15:23:51Z</time>
      </trkpt>
      <trkpt lat="43.56476" lon="3.69515">
        <ele>110</ele>
        <time>2021-04-15T15:23:51Z</time>
      </trkpt>
      <trkpt lat="43.56477" lon="3.69517">
        <ele>106.2</ele>
        <time>2021-04-15T15:23:52Z</time>
      </trkpt>
      <trkpt lat="43.56477" lon="3.69517">
        <ele>110</ele>
        <time>2021-04-15T15:23:52Z</time>
      </trkpt>
      <trkpt lat="43.56479" lon="3.69518">
        <ele>105.9</ele>
        <time>2021-04-15T15:23:54Z</time>
      </trkpt>
      <trkpt lat="43.56479" lon="3.69518">
        <ele>110</ele>
        <time>2021-04-15T15:23:54Z</time>
      </trkpt>
      <trkpt lat="43.5648" lon="3.69519">
        <ele>105.7</ele>
        <time>2021-04-15T15:23:56Z</time>
      </trkpt>
      <trkpt lat="43.5648" lon="3.69519">
        <ele>110</ele>
        <time>2021-04-15T15:23:56Z</time>
      </trkpt>
      <trkpt lat="43.56482" lon="3.6952">
        <ele>105.4</ele>
        <time>2021-04-15T15:23:58Z</time>
      </trkpt>
      <trkpt lat="43.56482" lon="3.6952">
        <ele>110</ele>
        <time>2021-04-15T15:23:58Z</time>
      </trkpt>
      <trkpt lat="43.56484" lon="3.69519">
        <ele>105.2</ele>
        <time>2021-04-15T15:24:00Z</time>
      </trkpt>
      <trkpt lat="43.56484" lon="3.69519">
        <ele>107</ele>
        <time>2021-04-15T15:24:00Z</time>
      </trkpt>
      <trkpt lat="43.56486" lon="3.69519">
        <ele>105</ele>
        <time>2021-04-15T15:24:02Z</time>
      </trkpt>
      <trkpt lat="43.56486" lon="3.69519">
        <ele>107</ele>
        <time>2021-04-15T15:24:02Z</time>
      </trkpt>
      <trkpt lat="43.56488" lon="3.69518">
        <ele>104.9</ele>
        <time>2021-04-15T15:24:03Z</time>
      </trkpt>
      <trkpt lat="43.56488" lon="3.69518">
        <ele>107</ele>
        <time>2021-04-15T15:24:03Z</time>
      </trkpt>
      <trkpt lat="43.56489" lon="3.69517">
        <ele>104.7</ele>
        <time>2021-04-15T15:24:05Z</time>
      </trkpt>
      <trkpt lat="43.56489" lon="3.69517">
        <ele>107</ele>
        <time>2021-04-15T15:24:05Z</time>
      </trkpt>
      <trkpt lat="43.5649" lon="3.69516">
        <ele>104.6</ele>
        <time>2021-04-15T15:24:06Z</time>
      </trkpt>
      <trkpt lat="43.5649" lon="3.69516">
        <ele>107</ele>
        <time>2021-04-15T15:24:06Z</time>
      </trkpt>
      <trkpt lat="43.56492" lon="3.69515">
        <ele>104.5</ele>
        <time>2021-04-15T15:24:07Z</time>
      </trkpt>
      <trkpt lat="43.56492" lon="3.69515">
        <ele>107</ele>
        <time>2021-04-15T15:24:07Z</time>
      </trkpt>
      <trkpt lat="43.56493" lon="3.69514">
        <ele>104.3</ele>
        <time>2021-04-15T15:24:09Z</time>
      </trkpt>
      <trkpt lat="43.56493" lon="3.69514">
        <ele>107</ele>
        <time>2021-04-15T15:24:09Z</time>
      </trkpt>
      <trkpt lat="43.56495" lon="3.69513">
        <ele>104.1</ele>
        <time>2021-04-15T15:24:11Z</time>
      </trkpt>
      <trkpt lat="43.56495" lon="3.69513">
        <ele>107</ele>
        <time>2021-04-15T15:24:11Z</time>
      </trkpt>
      <trkpt lat="43.56497" lon="3.69513">
        <ele>103.9</ele>
        <time>2021-04-15T15:24:12Z</time>
      </trkpt>
      <trkpt lat="43.56497" lon="3.69513">
        <ele>107</ele>
        <time>2021-04-15T15:24:12Z</time>
      </trkpt>
      <trkpt lat="43.56499" lon="3.69512">
        <ele>103.7</ele>
        <time>2021-04-15T15:24:14Z</time>
      </trkpt>
      <trkpt lat="43.56499" lon="3.69512">
        <ele>107</ele>
        <time>2021-04-15T15:24:14Z</time>
      </trkpt>
      <trkpt lat="43.56501" lon="3.69511">
        <ele>103.3</ele>
        <time>2021-04-15T15:24:16Z</time>
      </trkpt>
      <trkpt lat="43.56501" lon="3.69511">
        <ele>105</ele>
        <time>2021-04-15T15:24:16Z</time>
      </trkpt>
      <trkpt lat="43.56503" lon="3.69511">
        <ele>103</ele>
        <time>2021-04-15T15:24:18Z</time>
      </trkpt>
      <trkpt lat="43.56503" lon="3.69511">
        <ele>105</ele>
        <time>2021-04-15T15:24:18Z</time>
      </trkpt>
      <trkpt lat="43.56505" lon="3.69511">
        <ele>102.6</ele>
        <time>2021-04-15T15:24:19Z</time>
      </trkpt>
      <trkpt lat="43.56505" lon="3.69511">
        <ele>105</ele>
        <time>2021-04-15T15:24:19Z</time>
      </trkpt>
      <trkpt lat="43.56507" lon="3.6951">
        <ele>102.3</ele>
        <time>2021-04-15T15:24:21Z</time>
      </trkpt>
      <trkpt lat="43.56507" lon="3.6951">
        <ele>105</ele>
        <time>2021-04-15T15:24:21Z</time>
      </trkpt>
      <trkpt lat="43.56509" lon="3.69509">
        <ele>102</ele>
        <time>2021-04-15T15:24:23Z</time>
      </trkpt>
      <trkpt lat="43.56509" lon="3.69509">
        <ele>105</ele>
        <time>2021-04-15T15:24:23Z</time>
      </trkpt>
      <trkpt lat="43.5651" lon="3.69509">
        <ele>101.7</ele>
        <time>2021-04-15T15:24:24Z</time>
      </trkpt>
      <trkpt lat="43.5651" lon="3.69509">
        <ele>105</ele>
        <time>2021-04-15T15:24:24Z</time>
      </trkpt>
      <trkpt lat="43.56512" lon="3.69509">
        <ele>101.5</ele>
        <time>2021-04-15T15:24:25Z</time>
      </trkpt>
      <trkpt lat="43.56512" lon="3.69509">
        <ele>105</ele>
        <time>2021-04-15T15:24:25Z</time>
      </trkpt>
      <trkpt lat="43.56513" lon="3.69508">
        <ele>101.3</ele>
        <time>2021-04-15T15:24:27Z</time>
      </trkpt>
      <trkpt lat="43.56513" lon="3.69508">
        <ele>105</ele>
        <time>2021-04-15T15:24:27Z</time>
      </trkpt>
      <trkpt lat="43.56514" lon="3.69508">
        <ele>101.1</ele>
        <time>2021-04-15T15:24:28Z</time>
      </trkpt>
      <trkpt lat="43.56514" lon="3.69508">
        <ele>104</ele>
        <time>2021-04-15T15:24:28Z</time>
      </trkpt>
      <trkpt lat="43.56515" lon="3.69508">
        <ele>100.9</ele>
        <time>2021-04-15T15:24:30Z</time>
      </trkpt>
      <trkpt lat="43.56515" lon="3.69508">
        <ele>104</ele>
        <time>2021-04-15T15:24:30Z</time>
      </trkpt>
      <trkpt lat="43.56517" lon="3.69509">
        <ele>100.5</ele>
        <time>2021-04-15T15:24:32Z</time>
      </trkpt>
      <trkpt lat="43.56517" lon="3.69509">
        <ele>102</ele>
        <time>2021-04-15T15:24:32Z</time>
      </trkpt>
      <trkpt lat="43.56518" lon="3.6951">
        <ele>100.2</ele>
        <time>2021-04-15T15:24:34Z</time>
      </trkpt>
      <trkpt lat="43.56518" lon="3.6951">
        <ele>102</ele>
        <time>2021-04-15T15:24:34Z</time>
      </trkpt>
      <trkpt lat="43.56519" lon="3.69511">
        <ele>99.9</ele>
        <time>2021-04-15T15:24:35Z</time>
      </trkpt>
      <trkpt lat="43.56519" lon="3.69511">
        <ele>102</ele>
        <time>2021-04-15T15:24:35Z</time>
      </trkpt>
      <trkpt lat="43.56521" lon="3.69512">
        <ele>99.5</ele>
        <time>2021-04-15T15:24:37Z</time>
      </trkpt>
      <trkpt lat="43.56521" lon="3.69512">
        <ele>102</ele>
        <time>2021-04-15T15:24:37Z</time>
      </trkpt>
      <trkpt lat="43.56522" lon="3.69514">
        <ele>99.1</ele>
        <time>2021-04-15T15:24:39Z</time>
      </trkpt>
      <trkpt lat="43.56522" lon="3.69514">
        <ele>102</ele>
        <time>2021-04-15T15:24:39Z</time>
      </trkpt>
      <trkpt lat="43.56524" lon="3.69515">
        <ele>98.7</ele>
        <time>2021-04-15T15:24:41Z</time>
      </trkpt>
      <trkpt lat="43.56524" lon="3.69515">
        <ele>102</ele>
        <time>2021-04-15T15:24:41Z</time>
      </trkpt>
      <trkpt lat="43.56526" lon="3.69517">
        <ele>98.2</ele>
        <time>2021-04-15T15:24:43Z</time>
      </trkpt>
      <trkpt lat="43.56526" lon="3.69517">
        <ele>102</ele>
        <time>2021-04-15T15:24:43Z</time>
      </trkpt>
      <trkpt lat="43.56527" lon="3.69518">
        <ele>97.8</ele>
        <time>2021-04-15T15:24:45Z</time>
      </trkpt>
      <trkpt lat="43.56527" lon="3.69518">
        <ele>102</ele>
        <time>2021-04-15T15:24:45Z</time>
      </trkpt>
      <trkpt lat="43.56529" lon="3.6952">
        <ele>97.7</ele>
        <time>2021-04-15T15:24:46Z</time>
      </trkpt>
      <trkpt lat="43.56529" lon="3.6952">
        <ele>102</ele>
        <time>2021-04-15T15:24:46Z</time>
      </trkpt>
      <trkpt lat="43.5653" lon="3.69521">
        <ele>97.7</ele>
        <time>2021-04-15T15:24:47Z</time>
      </trkpt>
      <trkpt lat="43.5653" lon="3.69521">
        <ele>102</ele>
        <time>2021-04-15T15:24:47Z</time>
      </trkpt>
      <trkpt lat="43.56531" lon="3.69523">
        <ele>97.8</ele>
        <time>2021-04-15T15:24:49Z</time>
      </trkpt>
      <trkpt lat="43.56531" lon="3.69523">
        <ele>99</ele>
        <time>2021-04-15T15:24:49Z</time>
      </trkpt>
      <trkpt lat="43.56532" lon="3.69525">
        <ele>97.8</ele>
        <time>2021-04-15T15:24:51Z</time>
      </trkpt>
      <trkpt lat="43.56532" lon="3.69525">
        <ele>99</ele>
        <time>2021-04-15T15:24:51Z</time>
      </trkpt>
      <trkpt lat="43.56534" lon="3.69527">
        <ele>97.9</ele>
        <time>2021-04-15T15:24:53Z</time>
      </trkpt>
      <trkpt lat="43.56534" lon="3.69527">
        <ele>99</ele>
        <time>2021-04-15T15:24:53Z</time>
      </trkpt>
      <trkpt lat="43.56535" lon="3.6953">
        <ele>98.1</ele>
        <time>2021-04-15T15:24:54Z</time>
      </trkpt>
      <trkpt lat="43.56535" lon="3.6953">
        <ele>99</ele>
        <time>2021-04-15T15:24:54Z</time>
      </trkpt>
      <trkpt lat="43.56537" lon="3.69532">
        <ele>98.3</ele>
        <time>2021-04-15T15:24:56Z</time>
      </trkpt>
      <trkpt lat="43.56537" lon="3.69532">
        <ele>99</ele>
        <time>2021-04-15T15:24:56Z</time>
      </trkpt>
      <trkpt lat="43.56538" lon="3.69535">
        <ele>98.5</ele>
        <time>2021-04-15T15:24:58Z</time>
      </trkpt>
      <trkpt lat="43.56538" lon="3.69535">
        <ele>99</ele>
        <time>2021-04-15T15:24:58Z</time>
      </trkpt>
      <trkpt lat="43.5654" lon="3.69537">
        <ele>98.7</ele>
        <time>2021-04-15T15:25:00Z</time>
      </trkpt>
      <trkpt lat="43.5654" lon="3.69537">
        <ele>99</ele>
        <time>2021-04-15T15:25:00Z</time>
      </trkpt>
      <trkpt lat="43.56541" lon="3.69539">
        <ele>98.9</ele>
        <time>2021-04-15T15:25:01Z</time>
      </trkpt>
      <trkpt lat="43.56541" lon="3.69539">
        <ele>99</ele>
        <time>2021-04-15T15:25:01Z</time>
      </trkpt>
      <trkpt lat="43.56543" lon="3.69541">
        <ele>99.2</ele>
        <time>2021-04-15T15:25:03Z</time>
      </trkpt>
      <trkpt lat="43.56543" lon="3.69541">
        <ele>99</ele>
        <time>2021-04-15T15:25:03Z</time>
      </trkpt>
      <trkpt lat="43.56545" lon="3.69543">
        <ele>99.5</ele>
        <time>2021-04-15T15:25:05Z</time>
      </trkpt>
      <trkpt lat="43.56545" lon="3.69543">
        <ele>102</ele>
        <time>2021-04-15T15:25:05Z</time>
      </trkpt>
      <trkpt lat="43.56546" lon="3.69544">
        <ele>99.7</ele>
        <time>2021-04-15T15:25:06Z</time>
      </trkpt>
      <trkpt lat="43.56546" lon="3.69544">
        <ele>102</ele>
        <time>2021-04-15T15:25:06Z</time>
      </trkpt>
      <trkpt lat="43.56548" lon="3.69546">
        <ele>99.9</ele>
        <time>2021-04-15T15:25:07Z</time>
      </trkpt>
      <trkpt lat="43.56548" lon="3.69546">
        <ele>102</ele>
        <time>2021-04-15T15:25:07Z</time>
      </trkpt>
      <trkpt lat="43.56549" lon="3.69548">
        <ele>100.1</ele>
        <time>2021-04-15T15:25:08Z</time>
      </trkpt>
      <trkpt lat="43.56549" lon="3.69548">
        <ele>102</ele>
        <time>2021-04-15T15:25:08Z</time>
      </trkpt>
      <trkpt lat="43.5655" lon="3.6955">
        <ele>100.3</ele>
        <time>2021-04-15T15:25:10Z</time>
      </trkpt>
      <trkpt lat="43.5655" lon="3.6955">
        <ele>102</ele>
        <time>2021-04-15T15:25:10Z</time>
      </trkpt>
      <trkpt lat="43.56552" lon="3.69552">
        <ele>100.5</ele>
        <time>2021-04-15T15:25:12Z</time>
      </trkpt>
      <trkpt lat="43.56552" lon="3.69552">
        <ele>102</ele>
        <time>2021-04-15T15:25:12Z</time>
      </trkpt>
      <trkpt lat="43.56553" lon="3.69554">
        <ele>100.6</ele>
        <time>2021-04-15T15:25:13Z</time>
      </trkpt>
      <trkpt lat="43.56553" lon="3.69554">
        <ele>102</ele>
        <time>2021-04-15T15:25:13Z</time>
      </trkpt>
      <trkpt lat="43.56554" lon="3.69556">
        <ele>100.8</ele>
        <time>2021-04-15T15:25:14Z</time>
      </trkpt>
      <trkpt lat="43.56554" lon="3.69556">
        <ele>102</ele>
        <time>2021-04-15T15:25:14Z</time>
      </trkpt>
      <trkpt lat="43.56556" lon="3.69558">
        <ele>101</ele>
        <time>2021-04-15T15:25:16Z</time>
      </trkpt>
      <trkpt lat="43.56556" lon="3.69558">
        <ele>103</ele>
        <time>2021-04-15T15:25:16Z</time>
      </trkpt>
      <trkpt lat="43.56557" lon="3.69559">
        <ele>101.2</ele>
        <time>2021-04-15T15:25:18Z</time>
      </trkpt>
      <trkpt lat="43.56557" lon="3.69559">
        <ele>103</ele>
        <time>2021-04-15T15:25:18Z</time>
      </trkpt>
      <trkpt lat="43.56559" lon="3.69561">
        <ele>101.4</ele>
        <time>2021-04-15T15:25:19Z</time>
      </trkpt>
      <trkpt lat="43.56559" lon="3.69561">
        <ele>103</ele>
        <time>2021-04-15T15:25:19Z</time>
      </trkpt>
      <trkpt lat="43.5656" lon="3.69562">
        <ele>101.6</ele>
        <time>2021-04-15T15:25:20Z</time>
      </trkpt>
      <trkpt lat="43.5656" lon="3.69562">
        <ele>103</ele>
        <time>2021-04-15T15:25:20Z</time>
      </trkpt>
      <trkpt lat="43.56562" lon="3.69563">
        <ele>101.8</ele>
        <time>2021-04-15T15:25:22Z</time>
      </trkpt>
      <trkpt lat="43.56562" lon="3.69563">
        <ele>104</ele>
        <time>2021-04-15T15:25:22Z</time>
      </trkpt>
      <trkpt lat="43.56563" lon="3.69565">
        <ele>102</ele>
        <time>2021-04-15T15:25:24Z</time>
      </trkpt>
      <trkpt lat="43.56563" lon="3.69565">
        <ele>104</ele>
        <time>2021-04-15T15:25:24Z</time>
      </trkpt>
      <trkpt lat="43.56565" lon="3.69567">
        <ele>102.3</ele>
        <time>2021-04-15T15:25:26Z</time>
      </trkpt>
      <trkpt lat="43.56565" lon="3.69567">
        <ele>104</ele>
        <time>2021-04-15T15:25:26Z</time>
      </trkpt>
      <trkpt lat="43.56567" lon="3.69568">
        <ele>102.5</ele>
        <time>2021-04-15T15:25:28Z</time>
      </trkpt>
      <trkpt lat="43.56567" lon="3.69568">
        <ele>104</ele>
        <time>2021-04-15T15:25:28Z</time>
      </trkpt>
      <trkpt lat="43.56569" lon="3.6957">
        <ele>102.7</ele>
        <time>2021-04-15T15:25:29Z</time>
      </trkpt>
      <trkpt lat="43.56569" lon="3.6957">
        <ele>104</ele>
        <time>2021-04-15T15:25:29Z</time>
      </trkpt>
      <trkpt lat="43.5657" lon="3.69571">
        <ele>102.8</ele>
        <time>2021-04-15T15:25:31Z</time>
      </trkpt>
      <trkpt lat="43.5657" lon="3.69571">
        <ele>104</ele>
        <time>2021-04-15T15:25:31Z</time>
      </trkpt>
      <trkpt lat="43.56572" lon="3.69573">
        <ele>103</ele>
        <time>2021-04-15T15:25:33Z</time>
      </trkpt>
      <trkpt lat="43.56572" lon="3.69573">
        <ele>104</ele>
        <time>2021-04-15T15:25:33Z</time>
      </trkpt>
      <trkpt lat="43.56574" lon="3.69574">
        <ele>103.2</ele>
        <time>2021-04-15T15:25:35Z</time>
      </trkpt>
      <trkpt lat="43.56574" lon="3.69574">
        <ele>104</ele>
        <time>2021-04-15T15:25:35Z</time>
      </trkpt>
      <trkpt lat="43.56576" lon="3.69575">
        <ele>103.4</ele>
        <time>2021-04-15T15:25:36Z</time>
      </trkpt>
      <trkpt lat="43.56576" lon="3.69575">
        <ele>104</ele>
        <time>2021-04-15T15:25:36Z</time>
      </trkpt>
      <trkpt lat="43.56578" lon="3.69577">
        <ele>103.6</ele>
        <time>2021-04-15T15:25:37Z</time>
      </trkpt>
      <trkpt lat="43.56578" lon="3.69577">
        <ele>106</ele>
        <time>2021-04-15T15:25:37Z</time>
      </trkpt>
      <trkpt lat="43.56579" lon="3.69577">
        <ele>103.8</ele>
        <time>2021-04-15T15:25:39Z</time>
      </trkpt>
      <trkpt lat="43.56579" lon="3.69577">
        <ele>106</ele>
        <time>2021-04-15T15:25:39Z</time>
      </trkpt>
      <trkpt lat="43.56581" lon="3.69578">
        <ele>103.9</ele>
        <time>2021-04-15T15:25:40Z</time>
      </trkpt>
      <trkpt lat="43.56581" lon="3.69578">
        <ele>106</ele>
        <time>2021-04-15T15:25:40Z</time>
      </trkpt>
      <trkpt lat="43.56583" lon="3.69578">
        <ele>104.2</ele>
        <time>2021-04-15T15:25:42Z</time>
      </trkpt>
      <trkpt lat="43.56583" lon="3.69578">
        <ele>106</ele>
        <time>2021-04-15T15:25:42Z</time>
      </trkpt>
      <trkpt lat="43.56585" lon="3.69578">
        <ele>104.3</ele>
        <time>2021-04-15T15:25:44Z</time>
      </trkpt>
      <trkpt lat="43.56585" lon="3.69578">
        <ele>106</ele>
        <time>2021-04-15T15:25:44Z</time>
      </trkpt>
      <trkpt lat="43.56587" lon="3.69578">
        <ele>104.5</ele>
        <time>2021-04-15T15:25:45Z</time>
      </trkpt>
      <trkpt lat="43.56587" lon="3.69578">
        <ele>106</ele>
        <time>2021-04-15T15:25:45Z</time>
      </trkpt>
      <trkpt lat="43.56588" lon="3.69578">
        <ele>104.6</ele>
        <time>2021-04-15T15:25:46Z</time>
      </trkpt>
      <trkpt lat="43.56588" lon="3.69578">
        <ele>106</ele>
        <time>2021-04-15T15:25:46Z</time>
      </trkpt>
      <trkpt lat="43.5659" lon="3.69578">
        <ele>104.7</ele>
        <time>2021-04-15T15:25:47Z</time>
      </trkpt>
      <trkpt lat="43.5659" lon="3.69578">
        <ele>106</ele>
        <time>2021-04-15T15:25:47Z</time>
      </trkpt>
      <trkpt lat="43.56591" lon="3.69577">
        <ele>104.8</ele>
        <time>2021-04-15T15:25:49Z</time>
      </trkpt>
      <trkpt lat="43.56591" lon="3.69577">
        <ele>106</ele>
        <time>2021-04-15T15:25:49Z</time>
      </trkpt>
      <trkpt lat="43.56593" lon="3.69577">
        <ele>104.9</ele>
        <time>2021-04-15T15:25:51Z</time>
      </trkpt>
      <trkpt lat="43.56593" lon="3.69577">
        <ele>106</ele>
        <time>2021-04-15T15:25:51Z</time>
      </trkpt>
      <trkpt lat="43.56595" lon="3.69576">
        <ele>105.1</ele>
        <time>2021-04-15T15:25:53Z</time>
      </trkpt>
      <trkpt lat="43.56595" lon="3.69576">
        <ele>108</ele>
        <time>2021-04-15T15:25:53Z</time>
      </trkpt>
      <trkpt lat="43.56597" lon="3.69576">
        <ele>105.2</ele>
        <time>2021-04-15T15:25:55Z</time>
      </trkpt>
      <trkpt lat="43.56597" lon="3.69576">
        <ele>108</ele>
        <time>2021-04-15T15:25:55Z</time>
      </trkpt>
      <trkpt lat="43.56599" lon="3.69576">
        <ele>105.4</ele>
        <time>2021-04-15T15:25:56Z</time>
      </trkpt>
      <trkpt lat="43.56599" lon="3.69576">
        <ele>108</ele>
        <time>2021-04-15T15:25:56Z</time>
      </trkpt>
      <trkpt lat="43.566" lon="3.69575">
        <ele>105.5</ele>
        <time>2021-04-15T15:25:57Z</time>
      </trkpt>
      <trkpt lat="43.566" lon="3.69575">
        <ele>108</ele>
        <time>2021-04-15T15:25:57Z</time>
      </trkpt>
      <trkpt lat="43.56602" lon="3.69575">
        <ele>105.7</ele>
        <time>2021-04-15T15:25:59Z</time>
      </trkpt>
      <trkpt lat="43.56602" lon="3.69575">
        <ele>108</ele>
        <time>2021-04-15T15:25:59Z</time>
      </trkpt>
      <trkpt lat="43.56604" lon="3.69574">
        <ele>105.9</ele>
        <time>2021-04-15T15:26:01Z</time>
      </trkpt>
      <trkpt lat="43.56604" lon="3.69574">
        <ele>108</ele>
        <time>2021-04-15T15:26:01Z</time>
      </trkpt>
      <trkpt lat="43.56607" lon="3.69574">
        <ele>106</ele>
        <time>2021-04-15T15:26:03Z</time>
      </trkpt>
      <trkpt lat="43.56607" lon="3.69574">
        <ele>108</ele>
        <time>2021-04-15T15:26:03Z</time>
      </trkpt>
      <trkpt lat="43.56609" lon="3.69574">
        <ele>106.2</ele>
        <time>2021-04-15T15:26:05Z</time>
      </trkpt>
      <trkpt lat="43.56609" lon="3.69574">
        <ele>108</ele>
        <time>2021-04-15T15:26:05Z</time>
      </trkpt>
      <trkpt lat="43.56611" lon="3.69574">
        <ele>106.4</ele>
        <time>2021-04-15T15:26:06Z</time>
      </trkpt>
      <trkpt lat="43.56611" lon="3.69574">
        <ele>108</ele>
        <time>2021-04-15T15:26:06Z</time>
      </trkpt>
      <trkpt lat="43.56614" lon="3.69574">
        <ele>106.5</ele>
        <time>2021-04-15T15:26:08Z</time>
      </trkpt>
      <trkpt lat="43.56614" lon="3.69574">
        <ele>108</ele>
        <time>2021-04-15T15:26:08Z</time>
      </trkpt>
      <trkpt lat="43.56616" lon="3.69574">
        <ele>106.7</ele>
        <time>2021-04-15T15:26:10Z</time>
      </trkpt>
      <trkpt lat="43.56616" lon="3.69574">
        <ele>109</ele>
        <time>2021-04-15T15:26:10Z</time>
      </trkpt>
      <trkpt lat="43.56617" lon="3.69574">
        <ele>106.8</ele>
        <time>2021-04-15T15:26:11Z</time>
      </trkpt>
      <trkpt lat="43.56617" lon="3.69574">
        <ele>109</ele>
        <time>2021-04-15T15:26:11Z</time>
      </trkpt>
      <trkpt lat="43.5662" lon="3.69574">
        <ele>107</ele>
        <time>2021-04-15T15:26:13Z</time>
      </trkpt>
      <trkpt lat="43.5662" lon="3.69574">
        <ele>109</ele>
        <time>2021-04-15T15:26:13Z</time>
      </trkpt>
      <trkpt lat="43.56622" lon="3.69575">
        <ele>107.1</ele>
        <time>2021-04-15T15:26:15Z</time>
      </trkpt>
      <trkpt lat="43.56622" lon="3.69575">
        <ele>109</ele>
        <time>2021-04-15T15:26:15Z</time>
      </trkpt>
      <trkpt lat="43.56624" lon="3.69575">
        <ele>107.2</ele>
        <time>2021-04-15T15:26:16Z</time>
      </trkpt>
      <trkpt lat="43.56624" lon="3.69575">
        <ele>109</ele>
        <time>2021-04-15T15:26:16Z</time>
      </trkpt>
      <trkpt lat="43.56626" lon="3.69576">
        <ele>107.4</ele>
        <time>2021-04-15T15:26:18Z</time>
      </trkpt>
      <trkpt lat="43.56626" lon="3.69576">
        <ele>109</ele>
        <time>2021-04-15T15:26:18Z</time>
      </trkpt>
      <trkpt lat="43.56628" lon="3.69576">
        <ele>107.5</ele>
        <time>2021-04-15T15:26:19Z</time>
      </trkpt>
      <trkpt lat="43.56628" lon="3.69576">
        <ele>109</ele>
        <time>2021-04-15T15:26:19Z</time>
      </trkpt>
      <trkpt lat="43.5663" lon="3.69577">
        <ele>107.6</ele>
        <time>2021-04-15T15:26:21Z</time>
      </trkpt>
      <trkpt lat="43.5663" lon="3.69577">
        <ele>109</ele>
        <time>2021-04-15T15:26:21Z</time>
      </trkpt>
      <trkpt lat="43.56631" lon="3.69577">
        <ele>107.7</ele>
        <time>2021-04-15T15:26:22Z</time>
      </trkpt>
      <trkpt lat="43.56631" lon="3.69577">
        <ele>109</ele>
        <time>2021-04-15T15:26:22Z</time>
      </trkpt>
      <trkpt lat="43.56633" lon="3.69577">
        <ele>107.8</ele>
        <time>2021-04-15T15:26:24Z</time>
      </trkpt>
      <trkpt lat="43.56633" lon="3.69577">
        <ele>109</ele>
        <time>2021-04-15T15:26:24Z</time>
      </trkpt>
      <trkpt lat="43.56635" lon="3.69578">
        <ele>107.9</ele>
        <time>2021-04-15T15:26:25Z</time>
      </trkpt>
      <trkpt lat="43.56635" lon="3.69578">
        <ele>109</ele>
        <time>2021-04-15T15:26:25Z</time>
      </trkpt>
      <trkpt lat="43.56637" lon="3.69578">
        <ele>108.1</ele>
        <time>2021-04-15T15:26:27Z</time>
      </trkpt>
      <trkpt lat="43.56637" lon="3.69578">
        <ele>111</ele>
        <time>2021-04-15T15:26:27Z</time>
      </trkpt>
      <trkpt lat="43.56639" lon="3.69578">
        <ele>108.2</ele>
        <time>2021-04-15T15:26:28Z</time>
      </trkpt>
      <trkpt lat="43.56639" lon="3.69578">
        <ele>111</ele>
        <time>2021-04-15T15:26:28Z</time>
      </trkpt>
      <trkpt lat="43.56641" lon="3.69578">
        <ele>108.3</ele>
        <time>2021-04-15T15:26:29Z</time>
      </trkpt>
      <trkpt lat="43.56641" lon="3.69578">
        <ele>111</ele>
        <time>2021-04-15T15:26:29Z</time>
      </trkpt>
      <trkpt lat="43.56642" lon="3.69578">
        <ele>108.3</ele>
        <time>2021-04-15T15:26:31Z</time>
      </trkpt>
      <trkpt lat="43.56642" lon="3.69578">
        <ele>111</ele>
        <time>2021-04-15T15:26:31Z</time>
      </trkpt>
      <trkpt lat="43.56644" lon="3.69579">
        <ele>108.3</ele>
        <time>2021-04-15T15:26:32Z</time>
      </trkpt>
      <trkpt lat="43.56644" lon="3.69579">
        <ele>111</ele>
        <time>2021-04-15T15:26:32Z</time>
      </trkpt>
      <trkpt lat="43.56645" lon="3.6958">
        <ele>108.4</ele>
        <time>2021-04-15T15:26:33Z</time>
      </trkpt>
      <trkpt lat="43.56645" lon="3.6958">
        <ele>111</ele>
        <time>2021-04-15T15:26:33Z</time>
      </trkpt>
      <trkpt lat="43.56647" lon="3.6958">
        <ele>108.4</ele>
        <time>2021-04-15T15:26:35Z</time>
      </trkpt>
      <trkpt lat="43.56647" lon="3.6958">
        <ele>111</ele>
        <time>2021-04-15T15:26:35Z</time>
      </trkpt>
      <trkpt lat="43.56649" lon="3.69581">
        <ele>108.5</ele>
        <time>2021-04-15T15:26:36Z</time>
      </trkpt>
      <trkpt lat="43.56649" lon="3.69581">
        <ele>111</ele>
        <time>2021-04-15T15:26:36Z</time>
      </trkpt>
      <trkpt lat="43.5665" lon="3.69581">
        <ele>108.5</ele>
        <time>2021-04-15T15:26:37Z</time>
      </trkpt>
      <trkpt lat="43.5665" lon="3.69581">
        <ele>111</ele>
        <time>2021-04-15T15:26:37Z</time>
      </trkpt>
      <trkpt lat="43.56652" lon="3.69582">
        <ele>108.5</ele>
        <time>2021-04-15T15:26:38Z</time>
      </trkpt>
      <trkpt lat="43.56652" lon="3.69582">
        <ele>111</ele>
        <time>2021-04-15T15:26:38Z</time>
      </trkpt>
      <trkpt lat="43.56653" lon="3.69582">
        <ele>108.6</ele>
        <time>2021-04-15T15:26:39Z</time>
      </trkpt>
      <trkpt lat="43.56653" lon="3.69582">
        <ele>111</ele>
        <time>2021-04-15T15:26:39Z</time>
      </trkpt>
      <trkpt lat="43.56655" lon="3.69582">
        <ele>108.6</ele>
        <time>2021-04-15T15:26:41Z</time>
      </trkpt>
      <trkpt lat="43.56655" lon="3.69582">
        <ele>111</ele>
        <time>2021-04-15T15:26:41Z</time>
      </trkpt>
      <trkpt lat="43.56657" lon="3.69582">
        <ele>108.7</ele>
        <time>2021-04-15T15:26:43Z</time>
      </trkpt>
      <trkpt lat="43.56657" lon="3.69582">
        <ele>112</ele>
        <time>2021-04-15T15:26:43Z</time>
      </trkpt>
      <trkpt lat="43.56659" lon="3.69582">
        <ele>108.8</ele>
        <time>2021-04-15T15:26:44Z</time>
      </trkpt>
      <trkpt lat="43.56659" lon="3.69582">
        <ele>112</ele>
        <time>2021-04-15T15:26:44Z</time>
      </trkpt>
      <trkpt lat="43.56661" lon="3.69581">
        <ele>108.9</ele>
        <time>2021-04-15T15:26:46Z</time>
      </trkpt>
      <trkpt lat="43.56661" lon="3.69581">
        <ele>112</ele>
        <time>2021-04-15T15:26:46Z</time>
      </trkpt>
      <trkpt lat="43.56662" lon="3.69581">
        <ele>108.9</ele>
        <time>2021-04-15T15:26:48Z</time>
      </trkpt>
      <trkpt lat="43.56662" lon="3.69581">
        <ele>112</ele>
        <time>2021-04-15T15:26:48Z</time>
      </trkpt>
      <trkpt lat="43.56664" lon="3.6958">
        <ele>109</ele>
        <time>2021-04-15T15:26:50Z</time>
      </trkpt>
      <trkpt lat="43.56664" lon="3.6958">
        <ele>112</ele>
        <time>2021-04-15T15:26:50Z</time>
      </trkpt>
      <trkpt lat="43.56666" lon="3.6958">
        <ele>109.1</ele>
        <time>2021-04-15T15:26:51Z</time>
      </trkpt>
      <trkpt lat="43.56666" lon="3.6958">
        <ele>112</ele>
        <time>2021-04-15T15:26:51Z</time>
      </trkpt>
      <trkpt lat="43.56668" lon="3.69579">
        <ele>109.2</ele>
        <time>2021-04-15T15:26:52Z</time>
      </trkpt>
      <trkpt lat="43.56668" lon="3.69579">
        <ele>112</ele>
        <time>2021-04-15T15:26:52Z</time>
      </trkpt>
      <trkpt lat="43.5667" lon="3.69578">
        <ele>109.4</ele>
        <time>2021-04-15T15:26:54Z</time>
      </trkpt>
      <trkpt lat="43.5667" lon="3.69578">
        <ele>112</ele>
        <time>2021-04-15T15:26:54Z</time>
      </trkpt>
      <trkpt lat="43.56672" lon="3.69578">
        <ele>109.6</ele>
        <time>2021-04-15T15:26:55Z</time>
      </trkpt>
      <trkpt lat="43.56672" lon="3.69578">
        <ele>112</ele>
        <time>2021-04-15T15:26:55Z</time>
      </trkpt>
      <trkpt lat="43.56674" lon="3.69577">
        <ele>109.7</ele>
        <time>2021-04-15T15:26:57Z</time>
      </trkpt>
      <trkpt lat="43.56674" lon="3.69577">
        <ele>112</ele>
        <time>2021-04-15T15:26:57Z</time>
      </trkpt>
      <trkpt lat="43.56675" lon="3.69576">
        <ele>109.9</ele>
        <time>2021-04-15T15:26:59Z</time>
      </trkpt>
      <trkpt lat="43.56675" lon="3.69576">
        <ele>113</ele>
        <time>2021-04-15T15:26:59Z</time>
      </trkpt>
      <trkpt lat="43.56677" lon="3.69575">
        <ele>110.1</ele>
        <time>2021-04-15T15:27:01Z</time>
      </trkpt>
      <trkpt lat="43.56677" lon="3.69575">
        <ele>113</ele>
        <time>2021-04-15T15:27:01Z</time>
      </trkpt>
      <trkpt lat="43.56679" lon="3.69574">
        <ele>110.2</ele>
        <time>2021-04-15T15:27:02Z</time>
      </trkpt>
      <trkpt lat="43.56679" lon="3.69574">
        <ele>113</ele>
        <time>2021-04-15T15:27:02Z</time>
      </trkpt>
      <trkpt lat="43.56681" lon="3.69574">
        <ele>110.4</ele>
        <time>2021-04-15T15:27:04Z</time>
      </trkpt>
      <trkpt lat="43.56681" lon="3.69574">
        <ele>113</ele>
        <time>2021-04-15T15:27:04Z</time>
      </trkpt>
      <trkpt lat="43.56683" lon="3.69573">
        <ele>110.5</ele>
        <time>2021-04-15T15:27:06Z</time>
      </trkpt>
      <trkpt lat="43.56683" lon="3.69573">
        <ele>113</ele>
        <time>2021-04-15T15:27:06Z</time>
      </trkpt>
      <trkpt lat="43.56684" lon="3.69572">
        <ele>110.7</ele>
        <time>2021-04-15T15:27:07Z</time>
      </trkpt>
      <trkpt lat="43.56684" lon="3.69572">
        <ele>113</ele>
        <time>2021-04-15T15:27:07Z</time>
      </trkpt>
      <trkpt lat="43.56686" lon="3.69571">
        <ele>110.8</ele>
        <time>2021-04-15T15:27:08Z</time>
      </trkpt>
      <trkpt lat="43.56686" lon="3.69571">
        <ele>113</ele>
        <time>2021-04-15T15:27:08Z</time>
      </trkpt>
      <trkpt lat="43.56688" lon="3.69571">
        <ele>111</ele>
        <time>2021-04-15T15:27:10Z</time>
      </trkpt>
      <trkpt lat="43.56688" lon="3.69571">
        <ele>113</ele>
        <time>2021-04-15T15:27:10Z</time>
      </trkpt>
      <trkpt lat="43.5669" lon="3.6957">
        <ele>111.1</ele>
        <time>2021-04-15T15:27:11Z</time>
      </trkpt>
      <trkpt lat="43.5669" lon="3.6957">
        <ele>113</ele>
        <time>2021-04-15T15:27:11Z</time>
      </trkpt>
      <trkpt lat="43.56692" lon="3.6957">
        <ele>111.3</ele>
        <time>2021-04-15T15:27:13Z</time>
      </trkpt>
      <trkpt lat="43.56692" lon="3.6957">
        <ele>113</ele>
        <time>2021-04-15T15:27:13Z</time>
      </trkpt>
      <trkpt lat="43.56694" lon="3.6957">
        <ele>111.4</ele>
        <time>2021-04-15T15:27:14Z</time>
      </trkpt>
      <trkpt lat="43.56694" lon="3.6957">
        <ele>113</ele>
        <time>2021-04-15T15:27:14Z</time>
      </trkpt>
      <trkpt lat="43.56695" lon="3.6957">
        <ele>111.5</ele>
        <time>2021-04-15T15:27:15Z</time>
      </trkpt>
      <trkpt lat="43.56695" lon="3.6957">
        <ele>115</ele>
        <time>2021-04-15T15:27:15Z</time>
      </trkpt>
      <trkpt lat="43.56697" lon="3.69569">
        <ele>111.5</ele>
        <time>2021-04-15T15:27:17Z</time>
      </trkpt>
      <trkpt lat="43.56697" lon="3.69569">
        <ele>115</ele>
        <time>2021-04-15T15:27:17Z</time>
      </trkpt>
      <trkpt lat="43.56699" lon="3.69568">
        <ele>111.5</ele>
        <time>2021-04-15T15:27:18Z</time>
      </trkpt>
      <trkpt lat="43.56699" lon="3.69568">
        <ele>115</ele>
        <time>2021-04-15T15:27:18Z</time>
      </trkpt>
      <trkpt lat="43.567" lon="3.69568">
        <ele>111.5</ele>
        <time>2021-04-15T15:27:20Z</time>
      </trkpt>
      <trkpt lat="43.567" lon="3.69568">
        <ele>115</ele>
        <time>2021-04-15T15:27:20Z</time>
      </trkpt>
      <trkpt lat="43.56702" lon="3.69568">
        <ele>111.5</ele>
        <time>2021-04-15T15:27:21Z</time>
      </trkpt>
      <trkpt lat="43.56702" lon="3.69568">
        <ele>115</ele>
        <time>2021-04-15T15:27:21Z</time>
      </trkpt>
      <trkpt lat="43.56704" lon="3.69569">
        <ele>111.5</ele>
        <time>2021-04-15T15:27:23Z</time>
      </trkpt>
      <trkpt lat="43.56704" lon="3.69569">
        <ele>115</ele>
        <time>2021-04-15T15:27:23Z</time>
      </trkpt>
      <trkpt lat="43.56706" lon="3.6957">
        <ele>111.5</ele>
        <time>2021-04-15T15:27:25Z</time>
      </trkpt>
      <trkpt lat="43.56706" lon="3.6957">
        <ele>115</ele>
        <time>2021-04-15T15:27:25Z</time>
      </trkpt>
      <trkpt lat="43.56708" lon="3.69571">
        <ele>111.4</ele>
        <time>2021-04-15T15:27:27Z</time>
      </trkpt>
      <trkpt lat="43.56708" lon="3.69571">
        <ele>115</ele>
        <time>2021-04-15T15:27:27Z</time>
      </trkpt>
      <trkpt lat="43.56709" lon="3.69573">
        <ele>111.4</ele>
        <time>2021-04-15T15:27:29Z</time>
      </trkpt>
      <trkpt lat="43.56709" lon="3.69573">
        <ele>115</ele>
        <time>2021-04-15T15:27:29Z</time>
      </trkpt>
      <trkpt lat="43.56711" lon="3.69575">
        <ele>111.3</ele>
        <time>2021-04-15T15:27:30Z</time>
      </trkpt>
      <trkpt lat="43.56711" lon="3.69575">
        <ele>115</ele>
        <time>2021-04-15T15:27:30Z</time>
      </trkpt>
      <trkpt lat="43.56712" lon="3.69576">
        <ele>111.2</ele>
        <time>2021-04-15T15:27:31Z</time>
      </trkpt>
      <trkpt lat="43.56712" lon="3.69576">
        <ele>115</ele>
        <time>2021-04-15T15:27:31Z</time>
      </trkpt>
      <trkpt lat="43.56713" lon="3.69579">
        <ele>111.2</ele>
        <time>2021-04-15T15:27:33Z</time>
      </trkpt>
      <trkpt lat="43.56713" lon="3.69579">
        <ele>115</ele>
        <time>2021-04-15T15:27:33Z</time>
      </trkpt>
      <trkpt lat="43.56715" lon="3.69582">
        <ele>111.1</ele>
        <time>2021-04-15T15:27:34Z</time>
      </trkpt>
      <trkpt lat="43.56715" lon="3.69582">
        <ele>115</ele>
        <time>2021-04-15T15:27:34Z</time>
      </trkpt>
      <trkpt lat="43.56716" lon="3.69584">
        <ele>111</ele>
        <time>2021-04-15T15:27:35Z</time>
      </trkpt>
      <trkpt lat="43.56716" lon="3.69584">
        <ele>115</ele>
        <time>2021-04-15T15:27:35Z</time>
      </trkpt>
      <trkpt lat="43.56717" lon="3.69586">
        <ele>110.9</ele>
        <time>2021-04-15T15:27:36Z</time>
      </trkpt>
      <trkpt lat="43.56717" lon="3.69586">
        <ele>115</ele>
        <time>2021-04-15T15:27:36Z</time>
      </trkpt>
      <trkpt lat="43.56719" lon="3.69587">
        <ele>110.9</ele>
        <time>2021-04-15T15:27:38Z</time>
      </trkpt>
      <trkpt lat="43.56719" lon="3.69587">
        <ele>115</ele>
        <time>2021-04-15T15:27:38Z</time>
      </trkpt>
      <trkpt lat="43.5672" lon="3.69589">
        <ele>110.8</ele>
        <time>2021-04-15T15:27:39Z</time>
      </trkpt>
      <trkpt lat="43.5672" lon="3.69589">
        <ele>115</ele>
        <time>2021-04-15T15:27:39Z</time>
      </trkpt>
      <trkpt lat="43.56721" lon="3.69591">
        <ele>110.7</ele>
        <time>2021-04-15T15:27:41Z</time>
      </trkpt>
      <trkpt lat="43.56721" lon="3.69591">
        <ele>115</ele>
        <time>2021-04-15T15:27:41Z</time>
      </trkpt>
      <trkpt lat="43.56722" lon="3.69592">
        <ele>110.7</ele>
        <time>2021-04-15T15:27:42Z</time>
      </trkpt>
      <trkpt lat="43.56722" lon="3.69592">
        <ele>115</ele>
        <time>2021-04-15T15:27:42Z</time>
      </trkpt>
      <trkpt lat="43.56723" lon="3.69594">
        <ele>110.7</ele>
        <time>2021-04-15T15:27:44Z</time>
      </trkpt>
      <trkpt lat="43.56723" lon="3.69594">
        <ele>115</ele>
        <time>2021-04-15T15:27:44Z</time>
      </trkpt>
      <trkpt lat="43.56725" lon="3.69596">
        <ele>110.6</ele>
        <time>2021-04-15T15:27:46Z</time>
      </trkpt>
      <trkpt lat="43.56725" lon="3.69596">
        <ele>115</ele>
        <time>2021-04-15T15:27:46Z</time>
      </trkpt>
      <trkpt lat="43.56727" lon="3.69598">
        <ele>110.6</ele>
        <time>2021-04-15T15:27:48Z</time>
      </trkpt>
      <trkpt lat="43.56727" lon="3.69598">
        <ele>115</ele>
        <time>2021-04-15T15:27:48Z</time>
      </trkpt>
      <trkpt lat="43.56729" lon="3.69599">
        <ele>110.7</ele>
        <time>2021-04-15T15:27:49Z</time>
      </trkpt>
      <trkpt lat="43.56729" lon="3.69599">
        <ele>115</ele>
        <time>2021-04-15T15:27:49Z</time>
      </trkpt>
      <trkpt lat="43.5673" lon="3.69601">
        <ele>110.7</ele>
        <time>2021-04-15T15:27:51Z</time>
      </trkpt>
      <trkpt lat="43.5673" lon="3.69601">
        <ele>115</ele>
        <time>2021-04-15T15:27:51Z</time>
      </trkpt>
      <trkpt lat="43.56732" lon="3.69603">
        <ele>110.6</ele>
        <time>2021-04-15T15:27:53Z</time>
      </trkpt>
      <trkpt lat="43.56732" lon="3.69603">
        <ele>115</ele>
        <time>2021-04-15T15:27:53Z</time>
      </trkpt>
      <trkpt lat="43.56734" lon="3.69604">
        <ele>110.7</ele>
        <time>2021-04-15T15:27:55Z</time>
      </trkpt>
      <trkpt lat="43.56734" lon="3.69604">
        <ele>115</ele>
        <time>2021-04-15T15:27:55Z</time>
      </trkpt>
      <trkpt lat="43.56735" lon="3.69606">
        <ele>110.7</ele>
        <time>2021-04-15T15:27:57Z</time>
      </trkpt>
      <trkpt lat="43.56735" lon="3.69606">
        <ele>115</ele>
        <time>2021-04-15T15:27:57Z</time>
      </trkpt>
      <trkpt lat="43.56737" lon="3.69607">
        <ele>110.7</ele>
        <time>2021-04-15T15:27:58Z</time>
      </trkpt>
      <trkpt lat="43.56737" lon="3.69607">
        <ele>115</ele>
        <time>2021-04-15T15:27:58Z</time>
      </trkpt>
      <trkpt lat="43.56738" lon="3.69609">
        <ele>110.7</ele>
        <time>2021-04-15T15:27:59Z</time>
      </trkpt>
      <trkpt lat="43.56738" lon="3.69609">
        <ele>115</ele>
        <time>2021-04-15T15:27:59Z</time>
      </trkpt>
      <trkpt lat="43.5674" lon="3.69611">
        <ele>110.6</ele>
        <time>2021-04-15T15:28:01Z</time>
      </trkpt>
      <trkpt lat="43.5674" lon="3.69611">
        <ele>115</ele>
        <time>2021-04-15T15:28:01Z</time>
      </trkpt>
      <trkpt lat="43.56741" lon="3.69613">
        <ele>110.7</ele>
        <time>2021-04-15T15:28:02Z</time>
      </trkpt>
      <trkpt lat="43.56741" lon="3.69613">
        <ele>115</ele>
        <time>2021-04-15T15:28:02Z</time>
      </trkpt>
      <trkpt lat="43.56742" lon="3.69615">
        <ele>110.7</ele>
        <time>2021-04-15T15:28:04Z</time>
      </trkpt>
      <trkpt lat="43.56742" lon="3.69615">
        <ele>115</ele>
        <time>2021-04-15T15:28:04Z</time>
      </trkpt>
      <trkpt lat="43.56744" lon="3.69617">
        <ele>110.8</ele>
        <time>2021-04-15T15:28:05Z</time>
      </trkpt>
      <trkpt lat="43.56744" lon="3.69617">
        <ele>115</ele>
        <time>2021-04-15T15:28:05Z</time>
      </trkpt>
      <trkpt lat="43.56745" lon="3.69619">
        <ele>110.8</ele>
        <time>2021-04-15T15:28:07Z</time>
      </trkpt>
      <trkpt lat="43.56745" lon="3.69619">
        <ele>115</ele>
        <time>2021-04-15T15:28:07Z</time>
      </trkpt>
      <trkpt lat="43.56747" lon="3.69621">
        <ele>110.9</ele>
        <time>2021-04-15T15:28:09Z</time>
      </trkpt>
      <trkpt lat="43.56747" lon="3.69621">
        <ele>115</ele>
        <time>2021-04-15T15:28:09Z</time>
      </trkpt>
      <trkpt lat="43.56748" lon="3.69623">
        <ele>110.9</ele>
        <time>2021-04-15T15:28:11Z</time>
      </trkpt>
      <trkpt lat="43.56748" lon="3.69623">
        <ele>115</ele>
        <time>2021-04-15T15:28:11Z</time>
      </trkpt>
      <trkpt lat="43.5675" lon="3.69625">
        <ele>111</ele>
        <time>2021-04-15T15:28:12Z</time>
      </trkpt>
      <trkpt lat="43.5675" lon="3.69625">
        <ele>115</ele>
        <time>2021-04-15T15:28:12Z</time>
      </trkpt>
      <trkpt lat="43.56751" lon="3.69627">
        <ele>111</ele>
        <time>2021-04-15T15:28:14Z</time>
      </trkpt>
      <trkpt lat="43.56751" lon="3.69627">
        <ele>115</ele>
        <time>2021-04-15T15:28:14Z</time>
      </trkpt>
      <trkpt lat="43.56752" lon="3.69629">
        <ele>111</ele>
        <time>2021-04-15T15:28:16Z</time>
      </trkpt>
      <trkpt lat="43.56752" lon="3.69629">
        <ele>115</ele>
        <time>2021-04-15T15:28:16Z</time>
      </trkpt>
      <trkpt lat="43.56753" lon="3.69631">
        <ele>111</ele>
        <time>2021-04-15T15:28:17Z</time>
      </trkpt>
      <trkpt lat="43.56753" lon="3.69631">
        <ele>115</ele>
        <time>2021-04-15T15:28:17Z</time>
      </trkpt>
      <trkpt lat="43.56754" lon="3.69632">
        <ele>111</ele>
        <time>2021-04-15T15:28:19Z</time>
      </trkpt>
      <trkpt lat="43.56754" lon="3.69632">
        <ele>115</ele>
        <time>2021-04-15T15:28:19Z</time>
      </trkpt>
      <trkpt lat="43.56748" lon="3.6964">
        <ele>110.9</ele>
        <time>2021-04-15T15:28:36Z</time>
      </trkpt>
      <trkpt lat="43.56748" lon="3.6964">
        <ele>115</ele>
        <time>2021-04-15T15:28:36Z</time>
      </trkpt>
      <trkpt lat="43.56748" lon="3.6964">
        <ele>110.9</ele>
        <time>2021-04-15T15:28:37Z</time>
      </trkpt>
      <trkpt lat="43.56748" lon="3.6964">
        <ele>115</ele>
        <time>2021-04-15T15:28:37Z</time>
      </trkpt>
      <trkpt lat="43.56747" lon="3.69641">
        <ele>110.8</ele>
        <time>2021-04-15T15:28:39Z</time>
      </trkpt>
      <trkpt lat="43.56747" lon="3.69641">
        <ele>114</ele>
        <time>2021-04-15T15:28:39Z</time>
      </trkpt>
      <trkpt lat="43.56746" lon="3.69642">
        <ele>110.8</ele>
        <time>2021-04-15T15:28:40Z</time>
      </trkpt>
      <trkpt lat="43.56746" lon="3.69642">
        <ele>114</ele>
        <time>2021-04-15T15:28:40Z</time>
      </trkpt>
      <trkpt lat="43.56746" lon="3.69644">
        <ele>110.7</ele>
        <time>2021-04-15T15:28:42Z</time>
      </trkpt>
      <trkpt lat="43.56746" lon="3.69644">
        <ele>114</ele>
        <time>2021-04-15T15:28:42Z</time>
      </trkpt>
      <trkpt lat="43.56745" lon="3.69645">
        <ele>110.6</ele>
        <time>2021-04-15T15:28:43Z</time>
      </trkpt>
      <trkpt lat="43.56745" lon="3.69645">
        <ele>114</ele>
        <time>2021-04-15T15:28:43Z</time>
      </trkpt>
      <trkpt lat="43.56745" lon="3.69646">
        <ele>110.5</ele>
        <time>2021-04-15T15:28:44Z</time>
      </trkpt>
      <trkpt lat="43.56745" lon="3.69646">
        <ele>114</ele>
        <time>2021-04-15T15:28:44Z</time>
      </trkpt>
      <trkpt lat="43.56744" lon="3.69648">
        <ele>110.5</ele>
        <time>2021-04-15T15:28:46Z</time>
      </trkpt>
      <trkpt lat="43.56744" lon="3.69648">
        <ele>114</ele>
        <time>2021-04-15T15:28:46Z</time>
      </trkpt>
      <trkpt lat="43.56743" lon="3.69651">
        <ele>110.3</ele>
        <time>2021-04-15T15:28:48Z</time>
      </trkpt>
      <trkpt lat="43.56743" lon="3.69651">
        <ele>114</ele>
        <time>2021-04-15T15:28:48Z</time>
      </trkpt>
      <trkpt lat="43.56742" lon="3.69653">
        <ele>110.2</ele>
        <time>2021-04-15T15:28:49Z</time>
      </trkpt>
      <trkpt lat="43.56742" lon="3.69653">
        <ele>114</ele>
        <time>2021-04-15T15:28:49Z</time>
      </trkpt>
      <trkpt lat="43.56742" lon="3.69655">
        <ele>110.1</ele>
        <time>2021-04-15T15:28:51Z</time>
      </trkpt>
      <trkpt lat="43.56742" lon="3.69655">
        <ele>114</ele>
        <time>2021-04-15T15:28:51Z</time>
      </trkpt>
      <trkpt lat="43.56742" lon="3.69664">
        <ele>109.8</ele>
        <time>2021-04-15T15:29:01Z</time>
      </trkpt>
      <trkpt lat="43.56742" lon="3.69664">
        <ele>113</ele>
        <time>2021-04-15T15:29:01Z</time>
      </trkpt>
      <trkpt lat="43.56742" lon="3.69664">
        <ele>109.8</ele>
        <time>2021-04-15T15:29:02Z</time>
      </trkpt>
      <trkpt lat="43.56742" lon="3.69664">
        <ele>113</ele>
        <time>2021-04-15T15:29:02Z</time>
      </trkpt>
      <trkpt lat="43.56742" lon="3.69665">
        <ele>109.8</ele>
        <time>2021-04-15T15:29:04Z</time>
      </trkpt>
      <trkpt lat="43.56742" lon="3.69665">
        <ele>113</ele>
        <time>2021-04-15T15:29:04Z</time>
      </trkpt>
      <trkpt lat="43.56741" lon="3.69666">
        <ele>109.7</ele>
        <time>2021-04-15T15:29:05Z</time>
      </trkpt>
      <trkpt lat="43.56741" lon="3.69666">
        <ele>113</ele>
        <time>2021-04-15T15:29:05Z</time>
      </trkpt>
      <trkpt lat="43.5674" lon="3.69667">
        <ele>109.6</ele>
        <time>2021-04-15T15:29:07Z</time>
      </trkpt>
      <trkpt lat="43.5674" lon="3.69667">
        <ele>113</ele>
        <time>2021-04-15T15:29:07Z</time>
      </trkpt>
      <trkpt lat="43.5674" lon="3.69669">
        <ele>109.6</ele>
        <time>2021-04-15T15:29:08Z</time>
      </trkpt>
      <trkpt lat="43.5674" lon="3.69669">
        <ele>113</ele>
        <time>2021-04-15T15:29:08Z</time>
      </trkpt>
      <trkpt lat="43.56739" lon="3.69672">
        <ele>109.5</ele>
        <time>2021-04-15T15:29:12Z</time>
      </trkpt>
      <trkpt lat="43.56739" lon="3.69672">
        <ele>113</ele>
        <time>2021-04-15T15:29:12Z</time>
      </trkpt>
      <trkpt lat="43.56739" lon="3.69671">
        <ele>109.6</ele>
        <time>2021-04-15T15:29:15Z</time>
      </trkpt>
      <trkpt lat="43.56739" lon="3.69671">
        <ele>113</ele>
        <time>2021-04-15T15:29:15Z</time>
      </trkpt>
      <trkpt lat="43.56734" lon="3.69677">
        <ele>109.2</ele>
        <time>2021-04-15T15:30:11Z</time>
      </trkpt>
      <trkpt lat="43.56734" lon="3.69677">
        <ele>113</ele>
        <time>2021-04-15T15:30:11Z</time>
      </trkpt>
      <trkpt lat="43.56734" lon="3.69677">
        <ele>109.2</ele>
        <time>2021-04-15T15:30:12Z</time>
      </trkpt>
      <trkpt lat="43.56734" lon="3.69677">
        <ele>113</ele>
        <time>2021-04-15T15:30:12Z</time>
      </trkpt>
      <trkpt lat="43.56734" lon="3.69678">
        <ele>109.2</ele>
        <time>2021-04-15T15:30:13Z</time>
      </trkpt>
      <trkpt lat="43.56734" lon="3.69678">
        <ele>113</ele>
        <time>2021-04-15T15:30:13Z</time>
      </trkpt>
      <trkpt lat="43.56735" lon="3.69678">
        <ele>109.2</ele>
        <time>2021-04-15T15:30:15Z</time>
      </trkpt>
      <trkpt lat="43.56735" lon="3.69678">
        <ele>113</ele>
        <time>2021-04-15T15:30:15Z</time>
      </trkpt>
      <trkpt lat="43.56735" lon="3.69678">
        <ele>109.2</ele>
        <time>2021-04-15T15:30:16Z</time>
      </trkpt>
      <trkpt lat="43.56735" lon="3.69678">
        <ele>113</ele>
        <time>2021-04-15T15:30:16Z</time>
      </trkpt>
      <trkpt lat="43.56735" lon="3.69678">
        <ele>109.2</ele>
        <time>2021-04-15T15:30:18Z</time>
      </trkpt>
      <trkpt lat="43.56735" lon="3.69678">
        <ele>113</ele>
        <time>2021-04-15T15:30:18Z</time>
      </trkpt>
      <trkpt lat="43.56735" lon="3.69677">
        <ele>109.3</ele>
        <time>2021-04-15T15:30:20Z</time>
      </trkpt>
      <trkpt lat="43.56735" lon="3.69677">
        <ele>113</ele>
        <time>2021-04-15T15:30:20Z</time>
      </trkpt>
      <trkpt lat="43.56735" lon="3.69677">
        <ele>109.3</ele>
        <time>2021-04-15T15:30:21Z</time>
      </trkpt>
      <trkpt lat="43.56735" lon="3.69677">
        <ele>113</ele>
        <time>2021-04-15T15:30:21Z</time>
      </trkpt>
      <trkpt lat="43.56735" lon="3.69676">
        <ele>109.3</ele>
        <time>2021-04-15T15:30:23Z</time>
      </trkpt>
      <trkpt lat="43.56735" lon="3.69676">
        <ele>113</ele>
        <time>2021-04-15T15:30:23Z</time>
      </trkpt>
      <trkpt lat="43.56737" lon="3.69675">
        <ele>109.4</ele>
        <time>2021-04-15T15:30:41Z</time>
      </trkpt>
      <trkpt lat="43.56737" lon="3.69675">
        <ele>113</ele>
        <time>2021-04-15T15:30:41Z</time>
      </trkpt>
      <trkpt lat="43.56737" lon="3.69676">
        <ele>109.4</ele>
        <time>2021-04-15T15:30:43Z</time>
      </trkpt>
      <trkpt lat="43.56737" lon="3.69676">
        <ele>113</ele>
        <time>2021-04-15T15:30:43Z</time>
      </trkpt>
      <trkpt lat="43.56737" lon="3.69677">
        <ele>109.4</ele>
        <time>2021-04-15T15:30:45Z</time>
      </trkpt>
      <trkpt lat="43.56737" lon="3.69677">
        <ele>113</ele>
        <time>2021-04-15T15:30:45Z</time>
      </trkpt>
      <trkpt lat="43.56737" lon="3.69678">
        <ele>109.3</ele>
        <time>2021-04-15T15:30:47Z</time>
      </trkpt>
      <trkpt lat="43.56737" lon="3.69678">
        <ele>113</ele>
        <time>2021-04-15T15:30:47Z</time>
      </trkpt>
      <trkpt lat="43.56736" lon="3.69679">
        <ele>109.3</ele>
        <time>2021-04-15T15:30:49Z</time>
      </trkpt>
      <trkpt lat="43.56736" lon="3.69679">
        <ele>113</ele>
        <time>2021-04-15T15:30:49Z</time>
      </trkpt>
      <trkpt lat="43.56736" lon="3.6968">
        <ele>109.2</ele>
        <time>2021-04-15T15:30:50Z</time>
      </trkpt>
      <trkpt lat="43.56736" lon="3.6968">
        <ele>113</ele>
        <time>2021-04-15T15:30:50Z</time>
      </trkpt>
      <trkpt lat="43.56736" lon="3.69681">
        <ele>109.2</ele>
        <time>2021-04-15T15:30:52Z</time>
      </trkpt>
      <trkpt lat="43.56736" lon="3.69681">
        <ele>113</ele>
        <time>2021-04-15T15:30:52Z</time>
      </trkpt>
      <trkpt lat="43.56736" lon="3.69683">
        <ele>109.2</ele>
        <time>2021-04-15T15:30:54Z</time>
      </trkpt>
      <trkpt lat="43.56736" lon="3.69683">
        <ele>113</ele>
        <time>2021-04-15T15:30:54Z</time>
      </trkpt>
      <trkpt lat="43.56736" lon="3.69685">
        <ele>109.1</ele>
        <time>2021-04-15T15:30:55Z</time>
      </trkpt>
      <trkpt lat="43.56736" lon="3.69685">
        <ele>113</ele>
        <time>2021-04-15T15:30:55Z</time>
      </trkpt>
      <trkpt lat="43.56736" lon="3.69687">
        <ele>109.1</ele>
        <time>2021-04-15T15:30:56Z</time>
      </trkpt>
      <trkpt lat="43.56736" lon="3.69687">
        <ele>113</ele>
        <time>2021-04-15T15:30:56Z</time>
      </trkpt>
      <trkpt lat="43.56736" lon="3.6969">
        <ele>109.1</ele>
        <time>2021-04-15T15:30:58Z</time>
      </trkpt>
      <trkpt lat="43.56736" lon="3.6969">
        <ele>113</ele>
        <time>2021-04-15T15:30:58Z</time>
      </trkpt>
      <trkpt lat="43.56735" lon="3.69693">
        <ele>109</ele>
        <time>2021-04-15T15:31:00Z</time>
      </trkpt>
      <trkpt lat="43.56735" lon="3.69693">
        <ele>113</ele>
        <time>2021-04-15T15:31:00Z</time>
      </trkpt>
      <trkpt lat="43.56735" lon="3.69696">
        <ele>108.9</ele>
        <time>2021-04-15T15:31:01Z</time>
      </trkpt>
      <trkpt lat="43.56735" lon="3.69696">
        <ele>113</ele>
        <time>2021-04-15T15:31:01Z</time>
      </trkpt>
      <trkpt lat="43.56735" lon="3.69699">
        <ele>108.9</ele>
        <time>2021-04-15T15:31:03Z</time>
      </trkpt>
      <trkpt lat="43.56735" lon="3.69699">
        <ele>113</ele>
        <time>2021-04-15T15:31:03Z</time>
      </trkpt>
      <trkpt lat="43.56734" lon="3.69702">
        <ele>108.9</ele>
        <time>2021-04-15T15:31:04Z</time>
      </trkpt>
      <trkpt lat="43.56734" lon="3.69702">
        <ele>113</ele>
        <time>2021-04-15T15:31:04Z</time>
      </trkpt>
      <trkpt lat="43.56734" lon="3.69705">
        <ele>108.8</ele>
        <time>2021-04-15T15:31:06Z</time>
      </trkpt>
      <trkpt lat="43.56734" lon="3.69705">
        <ele>113</ele>
        <time>2021-04-15T15:31:06Z</time>
      </trkpt>
      <trkpt lat="43.56733" lon="3.69709">
        <ele>108.8</ele>
        <time>2021-04-15T15:31:08Z</time>
      </trkpt>
      <trkpt lat="43.56733" lon="3.69709">
        <ele>113</ele>
        <time>2021-04-15T15:31:08Z</time>
      </trkpt>
      <trkpt lat="43.56732" lon="3.69712">
        <ele>108.7</ele>
        <time>2021-04-15T15:31:10Z</time>
      </trkpt>
      <trkpt lat="43.56732" lon="3.69712">
        <ele>113</ele>
        <time>2021-04-15T15:31:10Z</time>
      </trkpt>
      <trkpt lat="43.56731" lon="3.69716">
        <ele>108.7</ele>
        <time>2021-04-15T15:31:11Z</time>
      </trkpt>
      <trkpt lat="43.56731" lon="3.69716">
        <ele>113</ele>
        <time>2021-04-15T15:31:11Z</time>
      </trkpt>
      <trkpt lat="43.56731" lon="3.69718">
        <ele>108.6</ele>
        <time>2021-04-15T15:31:12Z</time>
      </trkpt>
      <trkpt lat="43.56731" lon="3.69718">
        <ele>113</ele>
        <time>2021-04-15T15:31:12Z</time>
      </trkpt>
      <trkpt lat="43.5673" lon="3.6972">
        <ele>108.5</ele>
        <time>2021-04-15T15:31:14Z</time>
      </trkpt>
      <trkpt lat="43.5673" lon="3.6972">
        <ele>113</ele>
        <time>2021-04-15T15:31:14Z</time>
      </trkpt>
      <trkpt lat="43.56729" lon="3.69723">
        <ele>108.5</ele>
        <time>2021-04-15T15:31:16Z</time>
      </trkpt>
      <trkpt lat="43.56729" lon="3.69723">
        <ele>113</ele>
        <time>2021-04-15T15:31:16Z</time>
      </trkpt>
      <trkpt lat="43.56728" lon="3.69726">
        <ele>108.4</ele>
        <time>2021-04-15T15:31:18Z</time>
      </trkpt>
      <trkpt lat="43.56728" lon="3.69726">
        <ele>111</ele>
        <time>2021-04-15T15:31:18Z</time>
      </trkpt>
      <trkpt lat="43.56727" lon="3.69728">
        <ele>108.3</ele>
        <time>2021-04-15T15:31:19Z</time>
      </trkpt>
      <trkpt lat="43.56727" lon="3.69728">
        <ele>111</ele>
        <time>2021-04-15T15:31:19Z</time>
      </trkpt>
      <trkpt lat="43.56727" lon="3.6973">
        <ele>108.3</ele>
        <time>2021-04-15T15:31:21Z</time>
      </trkpt>
      <trkpt lat="43.56727" lon="3.6973">
        <ele>111</ele>
        <time>2021-04-15T15:31:21Z</time>
      </trkpt>
      <trkpt lat="43.56726" lon="3.69733">
        <ele>108.2</ele>
        <time>2021-04-15T15:31:23Z</time>
      </trkpt>
      <trkpt lat="43.56726" lon="3.69733">
        <ele>111</ele>
        <time>2021-04-15T15:31:23Z</time>
      </trkpt>
      <trkpt lat="43.56725" lon="3.69736">
        <ele>108.2</ele>
        <time>2021-04-15T15:31:25Z</time>
      </trkpt>
      <trkpt lat="43.56725" lon="3.69736">
        <ele>111</ele>
        <time>2021-04-15T15:31:25Z</time>
      </trkpt>
      <trkpt lat="43.56724" lon="3.6974">
        <ele>108.1</ele>
        <time>2021-04-15T15:31:27Z</time>
      </trkpt>
      <trkpt lat="43.56724" lon="3.6974">
        <ele>111</ele>
        <time>2021-04-15T15:31:27Z</time>
      </trkpt>
      <trkpt lat="43.56724" lon="3.69743">
        <ele>108.1</ele>
        <time>2021-04-15T15:31:28Z</time>
      </trkpt>
      <trkpt lat="43.56724" lon="3.69743">
        <ele>111</ele>
        <time>2021-04-15T15:31:28Z</time>
      </trkpt>
      <trkpt lat="43.56723" lon="3.69746">
        <ele>108</ele>
        <time>2021-04-15T15:31:29Z</time>
      </trkpt>
      <trkpt lat="43.56723" lon="3.69746">
        <ele>111</ele>
        <time>2021-04-15T15:31:29Z</time>
      </trkpt>
      <trkpt lat="43.56723" lon="3.69749">
        <ele>108</ele>
        <time>2021-04-15T15:31:31Z</time>
      </trkpt>
      <trkpt lat="43.56723" lon="3.69749">
        <ele>111</ele>
        <time>2021-04-15T15:31:31Z</time>
      </trkpt>
      <trkpt lat="43.56722" lon="3.69752">
        <ele>107.9</ele>
        <time>2021-04-15T15:31:33Z</time>
      </trkpt>
      <trkpt lat="43.56722" lon="3.69752">
        <ele>111</ele>
        <time>2021-04-15T15:31:33Z</time>
      </trkpt>
      <trkpt lat="43.56722" lon="3.69754">
        <ele>107.8</ele>
        <time>2021-04-15T15:31:34Z</time>
      </trkpt>
      <trkpt lat="43.56722" lon="3.69754">
        <ele>111</ele>
        <time>2021-04-15T15:31:34Z</time>
      </trkpt>
      <trkpt lat="43.56722" lon="3.69757">
        <ele>107.7</ele>
        <time>2021-04-15T15:31:36Z</time>
      </trkpt>
      <trkpt lat="43.56722" lon="3.69757">
        <ele>111</ele>
        <time>2021-04-15T15:31:36Z</time>
      </trkpt>
      <trkpt lat="43.56722" lon="3.69759">
        <ele>107.7</ele>
        <time>2021-04-15T15:31:37Z</time>
      </trkpt>
      <trkpt lat="43.56722" lon="3.69759">
        <ele>111</ele>
        <time>2021-04-15T15:31:37Z</time>
      </trkpt>
      <trkpt lat="43.56721" lon="3.69761">
        <ele>107.6</ele>
        <time>2021-04-15T15:31:39Z</time>
      </trkpt>
      <trkpt lat="43.56721" lon="3.69761">
        <ele>111</ele>
        <time>2021-04-15T15:31:39Z</time>
      </trkpt>
      <trkpt lat="43.56721" lon="3.69764">
        <ele>107.5</ele>
        <time>2021-04-15T15:31:41Z</time>
      </trkpt>
      <trkpt lat="43.56721" lon="3.69764">
        <ele>111</ele>
        <time>2021-04-15T15:31:41Z</time>
      </trkpt>
      <trkpt lat="43.56721" lon="3.69767">
        <ele>107.4</ele>
        <time>2021-04-15T15:31:43Z</time>
      </trkpt>
      <trkpt lat="43.56721" lon="3.69767">
        <ele>111</ele>
        <time>2021-04-15T15:31:43Z</time>
      </trkpt>
      <trkpt lat="43.56721" lon="3.6977">
        <ele>107.3</ele>
        <time>2021-04-15T15:31:44Z</time>
      </trkpt>
      <trkpt lat="43.56721" lon="3.6977">
        <ele>111</ele>
        <time>2021-04-15T15:31:44Z</time>
      </trkpt>
      <trkpt lat="43.56721" lon="3.69773">
        <ele>107.2</ele>
        <time>2021-04-15T15:31:46Z</time>
      </trkpt>
      <trkpt lat="43.56721" lon="3.69773">
        <ele>111</ele>
        <time>2021-04-15T15:31:46Z</time>
      </trkpt>
      <trkpt lat="43.5672" lon="3.69776">
        <ele>107.1</ele>
        <time>2021-04-15T15:31:47Z</time>
      </trkpt>
      <trkpt lat="43.5672" lon="3.69776">
        <ele>111</ele>
        <time>2021-04-15T15:31:47Z</time>
      </trkpt>
      <trkpt lat="43.5672" lon="3.69778">
        <ele>107</ele>
        <time>2021-04-15T15:31:48Z</time>
      </trkpt>
      <trkpt lat="43.5672" lon="3.69778">
        <ele>111</ele>
        <time>2021-04-15T15:31:48Z</time>
      </trkpt>
      <trkpt lat="43.56719" lon="3.69781">
        <ele>107.1</ele>
        <time>2021-04-15T15:31:50Z</time>
      </trkpt>
      <trkpt lat="43.56719" lon="3.69781">
        <ele>111</ele>
        <time>2021-04-15T15:31:50Z</time>
      </trkpt>
      <trkpt lat="43.56718" lon="3.69783">
        <ele>107.2</ele>
        <time>2021-04-15T15:31:51Z</time>
      </trkpt>
      <trkpt lat="43.56718" lon="3.69783">
        <ele>111</ele>
        <time>2021-04-15T15:31:51Z</time>
      </trkpt>
      <trkpt lat="43.56718" lon="3.69785">
        <ele>107.2</ele>
        <time>2021-04-15T15:31:52Z</time>
      </trkpt>
      <trkpt lat="43.56718" lon="3.69785">
        <ele>111</ele>
        <time>2021-04-15T15:31:52Z</time>
      </trkpt>
      <trkpt lat="43.56717" lon="3.69787">
        <ele>107.3</ele>
        <time>2021-04-15T15:31:54Z</time>
      </trkpt>
      <trkpt lat="43.56717" lon="3.69787">
        <ele>111</ele>
        <time>2021-04-15T15:31:54Z</time>
      </trkpt>
      <trkpt lat="43.56716" lon="3.69789">
        <ele>107.3</ele>
        <time>2021-04-15T15:31:56Z</time>
      </trkpt>
      <trkpt lat="43.56716" lon="3.69789">
        <ele>110</ele>
        <time>2021-04-15T15:31:56Z</time>
      </trkpt>
      <trkpt lat="43.56716" lon="3.69792">
        <ele>107.4</ele>
        <time>2021-04-15T15:31:58Z</time>
      </trkpt>
      <trkpt lat="43.56716" lon="3.69792">
        <ele>110</ele>
        <time>2021-04-15T15:31:58Z</time>
      </trkpt>
      <trkpt lat="43.56715" lon="3.69795">
        <ele>107.4</ele>
        <time>2021-04-15T15:31:59Z</time>
      </trkpt>
      <trkpt lat="43.56715" lon="3.69795">
        <ele>110</ele>
        <time>2021-04-15T15:31:59Z</time>
      </trkpt>
      <trkpt lat="43.56714" lon="3.69797">
        <ele>107.5</ele>
        <time>2021-04-15T15:32:00Z</time>
      </trkpt>
      <trkpt lat="43.56714" lon="3.69797">
        <ele>110</ele>
        <time>2021-04-15T15:32:00Z</time>
      </trkpt>
      <trkpt lat="43.56714" lon="3.69799">
        <ele>107.5</ele>
        <time>2021-04-15T15:32:01Z</time>
      </trkpt>
      <trkpt lat="43.56714" lon="3.69799">
        <ele>110</ele>
        <time>2021-04-15T15:32:01Z</time>
      </trkpt>
      <trkpt lat="43.56713" lon="3.69802">
        <ele>107.6</ele>
        <time>2021-04-15T15:32:03Z</time>
      </trkpt>
      <trkpt lat="43.56713" lon="3.69802">
        <ele>110</ele>
        <time>2021-04-15T15:32:03Z</time>
      </trkpt>
      <trkpt lat="43.56713" lon="3.69805">
        <ele>107.7</ele>
        <time>2021-04-15T15:32:05Z</time>
      </trkpt>
      <trkpt lat="43.56713" lon="3.69805">
        <ele>110</ele>
        <time>2021-04-15T15:32:05Z</time>
      </trkpt>
      <trkpt lat="43.56712" lon="3.69808">
        <ele>107.6</ele>
        <time>2021-04-15T15:32:06Z</time>
      </trkpt>
      <trkpt lat="43.56712" lon="3.69808">
        <ele>110</ele>
        <time>2021-04-15T15:32:06Z</time>
      </trkpt>
      <trkpt lat="43.56711" lon="3.6981">
        <ele>107.5</ele>
        <time>2021-04-15T15:32:08Z</time>
      </trkpt>
      <trkpt lat="43.56711" lon="3.6981">
        <ele>110</ele>
        <time>2021-04-15T15:32:08Z</time>
      </trkpt>
      <trkpt lat="43.5671" lon="3.69812">
        <ele>107.4</ele>
        <time>2021-04-15T15:32:09Z</time>
      </trkpt>
      <trkpt lat="43.5671" lon="3.69812">
        <ele>110</ele>
        <time>2021-04-15T15:32:09Z</time>
      </trkpt>
      <trkpt lat="43.56709" lon="3.69815">
        <ele>107.4</ele>
        <time>2021-04-15T15:32:10Z</time>
      </trkpt>
      <trkpt lat="43.56709" lon="3.69815">
        <ele>110</ele>
        <time>2021-04-15T15:32:10Z</time>
      </trkpt>
      <trkpt lat="43.56709" lon="3.69816">
        <ele>107.3</ele>
        <time>2021-04-15T15:32:11Z</time>
      </trkpt>
      <trkpt lat="43.56709" lon="3.69816">
        <ele>110</ele>
        <time>2021-04-15T15:32:11Z</time>
      </trkpt>
      <trkpt lat="43.56708" lon="3.69818">
        <ele>107.3</ele>
        <time>2021-04-15T15:32:12Z</time>
      </trkpt>
      <trkpt lat="43.56708" lon="3.69818">
        <ele>110</ele>
        <time>2021-04-15T15:32:12Z</time>
      </trkpt>
      <trkpt lat="43.56707" lon="3.6982">
        <ele>107.2</ele>
        <time>2021-04-15T15:32:14Z</time>
      </trkpt>
      <trkpt lat="43.56707" lon="3.6982">
        <ele>110</ele>
        <time>2021-04-15T15:32:14Z</time>
      </trkpt>
      <trkpt lat="43.56706" lon="3.69822">
        <ele>107.2</ele>
        <time>2021-04-15T15:32:15Z</time>
      </trkpt>
      <trkpt lat="43.56706" lon="3.69822">
        <ele>110</ele>
        <time>2021-04-15T15:32:15Z</time>
      </trkpt>
      <trkpt lat="43.56705" lon="3.69824">
        <ele>107.1</ele>
        <time>2021-04-15T15:32:17Z</time>
      </trkpt>
      <trkpt lat="43.56705" lon="3.69824">
        <ele>110</ele>
        <time>2021-04-15T15:32:17Z</time>
      </trkpt>
      <trkpt lat="43.56704" lon="3.69826">
        <ele>107.1</ele>
        <time>2021-04-15T15:32:19Z</time>
      </trkpt>
      <trkpt lat="43.56704" lon="3.69826">
        <ele>110</ele>
        <time>2021-04-15T15:32:19Z</time>
      </trkpt>
      <trkpt lat="43.56704" lon="3.69828">
        <ele>107.1</ele>
        <time>2021-04-15T15:32:21Z</time>
      </trkpt>
      <trkpt lat="43.56704" lon="3.69828">
        <ele>110</ele>
        <time>2021-04-15T15:32:21Z</time>
      </trkpt>
      <trkpt lat="43.56704" lon="3.69831">
        <ele>107</ele>
        <time>2021-04-15T15:32:22Z</time>
      </trkpt>
      <trkpt lat="43.56704" lon="3.69831">
        <ele>110</ele>
        <time>2021-04-15T15:32:22Z</time>
      </trkpt>
      <trkpt lat="43.56703" lon="3.69833">
        <ele>107</ele>
        <time>2021-04-15T15:32:24Z</time>
      </trkpt>
      <trkpt lat="43.56703" lon="3.69833">
        <ele>110</ele>
        <time>2021-04-15T15:32:24Z</time>
      </trkpt>
      <trkpt lat="43.56703" lon="3.69835">
        <ele>107.1</ele>
        <time>2021-04-15T15:32:25Z</time>
      </trkpt>
      <trkpt lat="43.56703" lon="3.69835">
        <ele>110</ele>
        <time>2021-04-15T15:32:25Z</time>
      </trkpt>
      <trkpt lat="43.56703" lon="3.69837">
        <ele>107.1</ele>
        <time>2021-04-15T15:32:26Z</time>
      </trkpt>
      <trkpt lat="43.56703" lon="3.69837">
        <ele>110</ele>
        <time>2021-04-15T15:32:26Z</time>
      </trkpt>
      <trkpt lat="43.56702" lon="3.6984">
        <ele>107.2</ele>
        <time>2021-04-15T15:32:28Z</time>
      </trkpt>
      <trkpt lat="43.56702" lon="3.6984">
        <ele>110</ele>
        <time>2021-04-15T15:32:28Z</time>
      </trkpt>
      <trkpt lat="43.56702" lon="3.69842">
        <ele>107.2</ele>
        <time>2021-04-15T15:32:29Z</time>
      </trkpt>
      <trkpt lat="43.56702" lon="3.69842">
        <ele>110</ele>
        <time>2021-04-15T15:32:29Z</time>
      </trkpt>
      <trkpt lat="43.56701" lon="3.69844">
        <ele>107.3</ele>
        <time>2021-04-15T15:32:31Z</time>
      </trkpt>
      <trkpt lat="43.56701" lon="3.69844">
        <ele>110</ele>
        <time>2021-04-15T15:32:31Z</time>
      </trkpt>
      <trkpt lat="43.56701" lon="3.69846">
        <ele>107.4</ele>
        <time>2021-04-15T15:32:32Z</time>
      </trkpt>
      <trkpt lat="43.56701" lon="3.69846">
        <ele>110</ele>
        <time>2021-04-15T15:32:32Z</time>
      </trkpt>
      <trkpt lat="43.567" lon="3.69848">
        <ele>107.4</ele>
        <time>2021-04-15T15:32:33Z</time>
      </trkpt>
      <trkpt lat="43.567" lon="3.69848">
        <ele>110</ele>
        <time>2021-04-15T15:32:33Z</time>
      </trkpt>
      <trkpt lat="43.56699" lon="3.69851">
        <ele>107.5</ele>
        <time>2021-04-15T15:32:35Z</time>
      </trkpt>
      <trkpt lat="43.56699" lon="3.69851">
        <ele>110</ele>
        <time>2021-04-15T15:32:35Z</time>
      </trkpt>
      <trkpt lat="43.56698" lon="3.69854">
        <ele>107.6</ele>
        <time>2021-04-15T15:32:36Z</time>
      </trkpt>
      <trkpt lat="43.56698" lon="3.69854">
        <ele>110</ele>
        <time>2021-04-15T15:32:36Z</time>
      </trkpt>
      <trkpt lat="43.56698" lon="3.69857">
        <ele>107.7</ele>
        <time>2021-04-15T15:32:38Z</time>
      </trkpt>
      <trkpt lat="43.56698" lon="3.69857">
        <ele>110</ele>
        <time>2021-04-15T15:32:38Z</time>
      </trkpt>
      <trkpt lat="43.56697" lon="3.69859">
        <ele>107.8</ele>
        <time>2021-04-15T15:32:39Z</time>
      </trkpt>
      <trkpt lat="43.56697" lon="3.69859">
        <ele>110</ele>
        <time>2021-04-15T15:32:39Z</time>
      </trkpt>
      <trkpt lat="43.56697" lon="3.69862">
        <ele>107.9</ele>
        <time>2021-04-15T15:32:41Z</time>
      </trkpt>
      <trkpt lat="43.56697" lon="3.69862">
        <ele>110</ele>
        <time>2021-04-15T15:32:41Z</time>
      </trkpt>
      <trkpt lat="43.56697" lon="3.69864">
        <ele>107.9</ele>
        <time>2021-04-15T15:32:43Z</time>
      </trkpt>
      <trkpt lat="43.56697" lon="3.69864">
        <ele>110</ele>
        <time>2021-04-15T15:32:43Z</time>
      </trkpt>
      <trkpt lat="43.56698" lon="3.69867">
        <ele>107.9</ele>
        <time>2021-04-15T15:32:45Z</time>
      </trkpt>
      <trkpt lat="43.56698" lon="3.69867">
        <ele>110</ele>
        <time>2021-04-15T15:32:45Z</time>
      </trkpt>
      <trkpt lat="43.56698" lon="3.69871">
        <ele>107.9</ele>
        <time>2021-04-15T15:32:47Z</time>
      </trkpt>
      <trkpt lat="43.56698" lon="3.69871">
        <ele>110</ele>
        <time>2021-04-15T15:32:47Z</time>
      </trkpt>
      <trkpt lat="43.56698" lon="3.69873">
        <ele>107.9</ele>
        <time>2021-04-15T15:32:48Z</time>
      </trkpt>
      <trkpt lat="43.56698" lon="3.69873">
        <ele>110</ele>
        <time>2021-04-15T15:32:48Z</time>
      </trkpt>
      <trkpt lat="43.56698" lon="3.69876">
        <ele>107.9</ele>
        <time>2021-04-15T15:32:50Z</time>
      </trkpt>
      <trkpt lat="43.56698" lon="3.69876">
        <ele>110</ele>
        <time>2021-04-15T15:32:50Z</time>
      </trkpt>
      <trkpt lat="43.56698" lon="3.69878">
        <ele>107.9</ele>
        <time>2021-04-15T15:32:51Z</time>
      </trkpt>
      <trkpt lat="43.56698" lon="3.69878">
        <ele>110</ele>
        <time>2021-04-15T15:32:51Z</time>
      </trkpt>
      <trkpt lat="43.56698" lon="3.6988">
        <ele>107.9</ele>
        <time>2021-04-15T15:32:52Z</time>
      </trkpt>
      <trkpt lat="43.56698" lon="3.6988">
        <ele>110</ele>
        <time>2021-04-15T15:32:52Z</time>
      </trkpt>
      <trkpt lat="43.56698" lon="3.69882">
        <ele>107.9</ele>
        <time>2021-04-15T15:32:54Z</time>
      </trkpt>
      <trkpt lat="43.56698" lon="3.69882">
        <ele>110</ele>
        <time>2021-04-15T15:32:54Z</time>
      </trkpt>
      <trkpt lat="43.56698" lon="3.69885">
        <ele>107.9</ele>
        <time>2021-04-15T15:32:56Z</time>
      </trkpt>
      <trkpt lat="43.56698" lon="3.69885">
        <ele>110</ele>
        <time>2021-04-15T15:32:56Z</time>
      </trkpt>
      <trkpt lat="43.56698" lon="3.69887">
        <ele>107.9</ele>
        <time>2021-04-15T15:32:58Z</time>
      </trkpt>
      <trkpt lat="43.56698" lon="3.69887">
        <ele>110</ele>
        <time>2021-04-15T15:32:58Z</time>
      </trkpt>
      <trkpt lat="43.56699" lon="3.69889">
        <ele>107.9</ele>
        <time>2021-04-15T15:32:59Z</time>
      </trkpt>
      <trkpt lat="43.56699" lon="3.69889">
        <ele>110</ele>
        <time>2021-04-15T15:32:59Z</time>
      </trkpt>
      <trkpt lat="43.56699" lon="3.69892">
        <ele>107.8</ele>
        <time>2021-04-15T15:33:01Z</time>
      </trkpt>
      <trkpt lat="43.56699" lon="3.69892">
        <ele>110</ele>
        <time>2021-04-15T15:33:01Z</time>
      </trkpt>
      <trkpt lat="43.56699" lon="3.69894">
        <ele>107.8</ele>
        <time>2021-04-15T15:33:03Z</time>
      </trkpt>
      <trkpt lat="43.56699" lon="3.69894">
        <ele>110</ele>
        <time>2021-04-15T15:33:03Z</time>
      </trkpt>
      <trkpt lat="43.567" lon="3.69896">
        <ele>107.8</ele>
        <time>2021-04-15T15:33:05Z</time>
      </trkpt>
      <trkpt lat="43.567" lon="3.69896">
        <ele>110</ele>
        <time>2021-04-15T15:33:05Z</time>
      </trkpt>
      <trkpt lat="43.567" lon="3.69898">
        <ele>107.8</ele>
        <time>2021-04-15T15:33:06Z</time>
      </trkpt>
      <trkpt lat="43.567" lon="3.69898">
        <ele>110</ele>
        <time>2021-04-15T15:33:06Z</time>
      </trkpt>
      <trkpt lat="43.56701" lon="3.69899">
        <ele>107.8</ele>
        <time>2021-04-15T15:33:08Z</time>
      </trkpt>
      <trkpt lat="43.56701" lon="3.69899">
        <ele>110</ele>
        <time>2021-04-15T15:33:08Z</time>
      </trkpt>
      <trkpt lat="43.56701" lon="3.69901">
        <ele>107.8</ele>
        <time>2021-04-15T15:33:09Z</time>
      </trkpt>
      <trkpt lat="43.56701" lon="3.69901">
        <ele>110</ele>
        <time>2021-04-15T15:33:09Z</time>
      </trkpt>
      <trkpt lat="43.56702" lon="3.69903">
        <ele>107.7</ele>
        <time>2021-04-15T15:33:10Z</time>
      </trkpt>
      <trkpt lat="43.56702" lon="3.69903">
        <ele>110</ele>
        <time>2021-04-15T15:33:10Z</time>
      </trkpt>
      <trkpt lat="43.56702" lon="3.69905">
        <ele>107.7</ele>
        <time>2021-04-15T15:33:12Z</time>
      </trkpt>
      <trkpt lat="43.56702" lon="3.69905">
        <ele>110</ele>
        <time>2021-04-15T15:33:12Z</time>
      </trkpt>
      <trkpt lat="43.56703" lon="3.69908">
        <ele>107.7</ele>
        <time>2021-04-15T15:33:14Z</time>
      </trkpt>
      <trkpt lat="43.56703" lon="3.69908">
        <ele>110</ele>
        <time>2021-04-15T15:33:14Z</time>
      </trkpt>
      <trkpt lat="43.56703" lon="3.69911">
        <ele>107.7</ele>
        <time>2021-04-15T15:33:16Z</time>
      </trkpt>
      <trkpt lat="43.56703" lon="3.69911">
        <ele>110</ele>
        <time>2021-04-15T15:33:16Z</time>
      </trkpt>
      <trkpt lat="43.56704" lon="3.69914">
        <ele>107.7</ele>
        <time>2021-04-15T15:33:17Z</time>
      </trkpt>
      <trkpt lat="43.56704" lon="3.69914">
        <ele>110</ele>
        <time>2021-04-15T15:33:17Z</time>
      </trkpt>
      <trkpt lat="43.56704" lon="3.69917">
        <ele>107.7</ele>
        <time>2021-04-15T15:33:19Z</time>
      </trkpt>
      <trkpt lat="43.56704" lon="3.69917">
        <ele>110</ele>
        <time>2021-04-15T15:33:19Z</time>
      </trkpt>
      <trkpt lat="43.56704" lon="3.6992">
        <ele>107.5</ele>
        <time>2021-04-15T15:33:21Z</time>
      </trkpt>
      <trkpt lat="43.56704" lon="3.6992">
        <ele>110</ele>
        <time>2021-04-15T15:33:21Z</time>
      </trkpt>
      <trkpt lat="43.56704" lon="3.69923">
        <ele>107.4</ele>
        <time>2021-04-15T15:33:23Z</time>
      </trkpt>
      <trkpt lat="43.56704" lon="3.69923">
        <ele>110</ele>
        <time>2021-04-15T15:33:23Z</time>
      </trkpt>
      <trkpt lat="43.56705" lon="3.69926">
        <ele>107.3</ele>
        <time>2021-04-15T15:33:24Z</time>
      </trkpt>
      <trkpt lat="43.56705" lon="3.69926">
        <ele>110</ele>
        <time>2021-04-15T15:33:24Z</time>
      </trkpt>
      <trkpt lat="43.56704" lon="3.69929">
        <ele>107.2</ele>
        <time>2021-04-15T15:33:26Z</time>
      </trkpt>
      <trkpt lat="43.56704" lon="3.69929">
        <ele>110</ele>
        <time>2021-04-15T15:33:26Z</time>
      </trkpt>
      <trkpt lat="43.56704" lon="3.69932">
        <ele>107.1</ele>
        <time>2021-04-15T15:33:27Z</time>
      </trkpt>
      <trkpt lat="43.56704" lon="3.69932">
        <ele>110</ele>
        <time>2021-04-15T15:33:27Z</time>
      </trkpt>
      <trkpt lat="43.56704" lon="3.69935">
        <ele>107</ele>
        <time>2021-04-15T15:33:28Z</time>
      </trkpt>
      <trkpt lat="43.56704" lon="3.69935">
        <ele>110</ele>
        <time>2021-04-15T15:33:28Z</time>
      </trkpt>
      <trkpt lat="43.56704" lon="3.69937">
        <ele>106.9</ele>
        <time>2021-04-15T15:33:30Z</time>
      </trkpt>
      <trkpt lat="43.56704" lon="3.69937">
        <ele>110</ele>
        <time>2021-04-15T15:33:30Z</time>
      </trkpt>
      <trkpt lat="43.56704" lon="3.69939">
        <ele>106.8</ele>
        <time>2021-04-15T15:33:31Z</time>
      </trkpt>
      <trkpt lat="43.56704" lon="3.69939">
        <ele>110</ele>
        <time>2021-04-15T15:33:31Z</time>
      </trkpt>
      <trkpt lat="43.56704" lon="3.69942">
        <ele>106.7</ele>
        <time>2021-04-15T15:33:33Z</time>
      </trkpt>
      <trkpt lat="43.56704" lon="3.69942">
        <ele>110</ele>
        <time>2021-04-15T15:33:33Z</time>
      </trkpt>
      <trkpt lat="43.56704" lon="3.69946">
        <ele>106.7</ele>
        <time>2021-04-15T15:33:35Z</time>
      </trkpt>
      <trkpt lat="43.56704" lon="3.69946">
        <ele>110</ele>
        <time>2021-04-15T15:33:35Z</time>
      </trkpt>
      <trkpt lat="43.56704" lon="3.6995">
        <ele>106.7</ele>
        <time>2021-04-15T15:33:37Z</time>
      </trkpt>
      <trkpt lat="43.56704" lon="3.6995">
        <ele>110</ele>
        <time>2021-04-15T15:33:37Z</time>
      </trkpt>
      <trkpt lat="43.56703" lon="3.69953">
        <ele>106.7</ele>
        <time>2021-04-15T15:33:39Z</time>
      </trkpt>
      <trkpt lat="43.56703" lon="3.69953">
        <ele>110</ele>
        <time>2021-04-15T15:33:39Z</time>
      </trkpt>
      <trkpt lat="43.56703" lon="3.69956">
        <ele>106.7</ele>
        <time>2021-04-15T15:33:41Z</time>
      </trkpt>
      <trkpt lat="43.56703" lon="3.69956">
        <ele>110</ele>
        <time>2021-04-15T15:33:41Z</time>
      </trkpt>
      <trkpt lat="43.56703" lon="3.69959">
        <ele>106.7</ele>
        <time>2021-04-15T15:33:43Z</time>
      </trkpt>
      <trkpt lat="43.56703" lon="3.69959">
        <ele>110</ele>
        <time>2021-04-15T15:33:43Z</time>
      </trkpt>
      <trkpt lat="43.56702" lon="3.69962">
        <ele>106.7</ele>
        <time>2021-04-15T15:33:45Z</time>
      </trkpt>
      <trkpt lat="43.56702" lon="3.69962">
        <ele>110</ele>
        <time>2021-04-15T15:33:45Z</time>
      </trkpt>
      <trkpt lat="43.56702" lon="3.69964">
        <ele>106.7</ele>
        <time>2021-04-15T15:33:46Z</time>
      </trkpt>
      <trkpt lat="43.56702" lon="3.69964">
        <ele>110</ele>
        <time>2021-04-15T15:33:46Z</time>
      </trkpt>
      <trkpt lat="43.56701" lon="3.69967">
        <ele>106.7</ele>
        <time>2021-04-15T15:33:48Z</time>
      </trkpt>
      <trkpt lat="43.56701" lon="3.69967">
        <ele>110</ele>
        <time>2021-04-15T15:33:48Z</time>
      </trkpt>
      <trkpt lat="43.56701" lon="3.69971">
        <ele>106.8</ele>
        <time>2021-04-15T15:33:50Z</time>
      </trkpt>
      <trkpt lat="43.56701" lon="3.69971">
        <ele>110</ele>
        <time>2021-04-15T15:33:50Z</time>
      </trkpt>
      <trkpt lat="43.567" lon="3.69973">
        <ele>106.8</ele>
        <time>2021-04-15T15:33:51Z</time>
      </trkpt>
      <trkpt lat="43.567" lon="3.69973">
        <ele>110</ele>
        <time>2021-04-15T15:33:51Z</time>
      </trkpt>
      <trkpt lat="43.56699" lon="3.69976">
        <ele>106.7</ele>
        <time>2021-04-15T15:33:52Z</time>
      </trkpt>
      <trkpt lat="43.56699" lon="3.69976">
        <ele>110</ele>
        <time>2021-04-15T15:33:52Z</time>
      </trkpt>
      <trkpt lat="43.56698" lon="3.69979">
        <ele>106.6</ele>
        <time>2021-04-15T15:33:54Z</time>
      </trkpt>
      <trkpt lat="43.56698" lon="3.69979">
        <ele>110</ele>
        <time>2021-04-15T15:33:54Z</time>
      </trkpt>
      <trkpt lat="43.56697" lon="3.69982">
        <ele>106.6</ele>
        <time>2021-04-15T15:33:56Z</time>
      </trkpt>
      <trkpt lat="43.56697" lon="3.69982">
        <ele>110</ele>
        <time>2021-04-15T15:33:56Z</time>
      </trkpt>
      <trkpt lat="43.56697" lon="3.69984">
        <ele>106.5</ele>
        <time>2021-04-15T15:33:57Z</time>
      </trkpt>
      <trkpt lat="43.56697" lon="3.69984">
        <ele>110</ele>
        <time>2021-04-15T15:33:57Z</time>
      </trkpt>
      <trkpt lat="43.56696" lon="3.69987">
        <ele>106.4</ele>
        <time>2021-04-15T15:33:59Z</time>
      </trkpt>
      <trkpt lat="43.56696" lon="3.69987">
        <ele>110</ele>
        <time>2021-04-15T15:33:59Z</time>
      </trkpt>
      <trkpt lat="43.56695" lon="3.6999">
        <ele>106.4</ele>
        <time>2021-04-15T15:34:00Z</time>
      </trkpt>
      <trkpt lat="43.56695" lon="3.6999">
        <ele>110</ele>
        <time>2021-04-15T15:34:00Z</time>
      </trkpt>
      <trkpt lat="43.56694" lon="3.69992">
        <ele>106.3</ele>
        <time>2021-04-15T15:34:02Z</time>
      </trkpt>
      <trkpt lat="43.56694" lon="3.69992">
        <ele>110</ele>
        <time>2021-04-15T15:34:02Z</time>
      </trkpt>
      <trkpt lat="43.56693" lon="3.69995">
        <ele>106.2</ele>
        <time>2021-04-15T15:34:03Z</time>
      </trkpt>
      <trkpt lat="43.56693" lon="3.69995">
        <ele>110</ele>
        <time>2021-04-15T15:34:03Z</time>
      </trkpt>
      <trkpt lat="43.56693" lon="3.69997">
        <ele>106.2</ele>
        <time>2021-04-15T15:34:04Z</time>
      </trkpt>
      <trkpt lat="43.56693" lon="3.69997">
        <ele>110</ele>
        <time>2021-04-15T15:34:04Z</time>
      </trkpt>
      <trkpt lat="43.56692" lon="3.69999">
        <ele>106.1</ele>
        <time>2021-04-15T15:34:06Z</time>
      </trkpt>
      <trkpt lat="43.56692" lon="3.69999">
        <ele>110</ele>
        <time>2021-04-15T15:34:06Z</time>
      </trkpt>
      <trkpt lat="43.56691" lon="3.70002">
        <ele>106</ele>
        <time>2021-04-15T15:34:08Z</time>
      </trkpt>
      <trkpt lat="43.56691" lon="3.70002">
        <ele>110</ele>
        <time>2021-04-15T15:34:08Z</time>
      </trkpt>
      <trkpt lat="43.5669" lon="3.70005">
        <ele>105.8</ele>
        <time>2021-04-15T15:34:10Z</time>
      </trkpt>
      <trkpt lat="43.5669" lon="3.70005">
        <ele>110</ele>
        <time>2021-04-15T15:34:10Z</time>
      </trkpt>
      <trkpt lat="43.5669" lon="3.70007">
        <ele>105.7</ele>
        <time>2021-04-15T15:34:11Z</time>
      </trkpt>
      <trkpt lat="43.5669" lon="3.70007">
        <ele>110</ele>
        <time>2021-04-15T15:34:11Z</time>
      </trkpt>
      <trkpt lat="43.56689" lon="3.70009">
        <ele>105.6</ele>
        <time>2021-04-15T15:34:13Z</time>
      </trkpt>
      <trkpt lat="43.56689" lon="3.70009">
        <ele>110</ele>
        <time>2021-04-15T15:34:13Z</time>
      </trkpt>
      <trkpt lat="43.56688" lon="3.70012">
        <ele>105.5</ele>
        <time>2021-04-15T15:34:15Z</time>
      </trkpt>
      <trkpt lat="43.56688" lon="3.70012">
        <ele>108</ele>
        <time>2021-04-15T15:34:15Z</time>
      </trkpt>
      <trkpt lat="43.56687" lon="3.70014">
        <ele>105.4</ele>
        <time>2021-04-15T15:34:17Z</time>
      </trkpt>
      <trkpt lat="43.56687" lon="3.70014">
        <ele>108</ele>
        <time>2021-04-15T15:34:17Z</time>
      </trkpt>
      <trkpt lat="43.56687" lon="3.70017">
        <ele>105.3</ele>
        <time>2021-04-15T15:34:18Z</time>
      </trkpt>
      <trkpt lat="43.56687" lon="3.70017">
        <ele>108</ele>
        <time>2021-04-15T15:34:18Z</time>
      </trkpt>
      <trkpt lat="43.56686" lon="3.70019">
        <ele>105.2</ele>
        <time>2021-04-15T15:34:20Z</time>
      </trkpt>
      <trkpt lat="43.56686" lon="3.70019">
        <ele>108</ele>
        <time>2021-04-15T15:34:20Z</time>
      </trkpt>
      <trkpt lat="43.56685" lon="3.70022">
        <ele>105.1</ele>
        <time>2021-04-15T15:34:22Z</time>
      </trkpt>
      <trkpt lat="43.56685" lon="3.70022">
        <ele>108</ele>
        <time>2021-04-15T15:34:22Z</time>
      </trkpt>
      <trkpt lat="43.56684" lon="3.70025">
        <ele>104.9</ele>
        <time>2021-04-15T15:34:24Z</time>
      </trkpt>
      <trkpt lat="43.56684" lon="3.70025">
        <ele>108</ele>
        <time>2021-04-15T15:34:24Z</time>
      </trkpt>
      <trkpt lat="43.56683" lon="3.70028">
        <ele>104.8</ele>
        <time>2021-04-15T15:34:26Z</time>
      </trkpt>
      <trkpt lat="43.56683" lon="3.70028">
        <ele>108</ele>
        <time>2021-04-15T15:34:26Z</time>
      </trkpt>
      <trkpt lat="43.56682" lon="3.70031">
        <ele>104.7</ele>
        <time>2021-04-15T15:34:28Z</time>
      </trkpt>
      <trkpt lat="43.56682" lon="3.70031">
        <ele>108</ele>
        <time>2021-04-15T15:34:28Z</time>
      </trkpt>
      <trkpt lat="43.56681" lon="3.70033">
        <ele>104.6</ele>
        <time>2021-04-15T15:34:29Z</time>
      </trkpt>
      <trkpt lat="43.56681" lon="3.70033">
        <ele>108</ele>
        <time>2021-04-15T15:34:29Z</time>
      </trkpt>
      <trkpt lat="43.5668" lon="3.70035">
        <ele>104.5</ele>
        <time>2021-04-15T15:34:31Z</time>
      </trkpt>
      <trkpt lat="43.5668" lon="3.70035">
        <ele>107</ele>
        <time>2021-04-15T15:34:31Z</time>
      </trkpt>
      <trkpt lat="43.56679" lon="3.70037">
        <ele>104.4</ele>
        <time>2021-04-15T15:34:32Z</time>
      </trkpt>
      <trkpt lat="43.56679" lon="3.70037">
        <ele>107</ele>
        <time>2021-04-15T15:34:32Z</time>
      </trkpt>
      <trkpt lat="43.56678" lon="3.70039">
        <ele>104.3</ele>
        <time>2021-04-15T15:34:34Z</time>
      </trkpt>
      <trkpt lat="43.56678" lon="3.70039">
        <ele>107</ele>
        <time>2021-04-15T15:34:34Z</time>
      </trkpt>
      <trkpt lat="43.56677" lon="3.70041">
        <ele>104.3</ele>
        <time>2021-04-15T15:34:36Z</time>
      </trkpt>
      <trkpt lat="43.56677" lon="3.70041">
        <ele>107</ele>
        <time>2021-04-15T15:34:36Z</time>
      </trkpt>
      <trkpt lat="43.56676" lon="3.70043">
        <ele>104.2</ele>
        <time>2021-04-15T15:34:37Z</time>
      </trkpt>
      <trkpt lat="43.56676" lon="3.70043">
        <ele>107</ele>
        <time>2021-04-15T15:34:37Z</time>
      </trkpt>
      <trkpt lat="43.56675" lon="3.70045">
        <ele>104.2</ele>
        <time>2021-04-15T15:34:38Z</time>
      </trkpt>
      <trkpt lat="43.56675" lon="3.70045">
        <ele>107</ele>
        <time>2021-04-15T15:34:38Z</time>
      </trkpt>
      <trkpt lat="43.56674" lon="3.70046">
        <ele>104.1</ele>
        <time>2021-04-15T15:34:40Z</time>
      </trkpt>
      <trkpt lat="43.56674" lon="3.70046">
        <ele>107</ele>
        <time>2021-04-15T15:34:40Z</time>
      </trkpt>
      <trkpt lat="43.56673" lon="3.70048">
        <ele>104.1</ele>
        <time>2021-04-15T15:34:42Z</time>
      </trkpt>
      <trkpt lat="43.56673" lon="3.70048">
        <ele>107</ele>
        <time>2021-04-15T15:34:42Z</time>
      </trkpt>
      <trkpt lat="43.56672" lon="3.70049">
        <ele>104.1</ele>
        <time>2021-04-15T15:34:43Z</time>
      </trkpt>
      <trkpt lat="43.56672" lon="3.70049">
        <ele>107</ele>
        <time>2021-04-15T15:34:43Z</time>
      </trkpt>
      <trkpt lat="43.56671" lon="3.70051">
        <ele>104</ele>
        <time>2021-04-15T15:34:44Z</time>
      </trkpt>
      <trkpt lat="43.56671" lon="3.70051">
        <ele>107</ele>
        <time>2021-04-15T15:34:44Z</time>
      </trkpt>
      <trkpt lat="43.5667" lon="3.70053">
        <ele>103.9</ele>
        <time>2021-04-15T15:34:46Z</time>
      </trkpt>
      <trkpt lat="43.5667" lon="3.70053">
        <ele>107</ele>
        <time>2021-04-15T15:34:46Z</time>
      </trkpt>
      <trkpt lat="43.56669" lon="3.70056">
        <ele>103.9</ele>
        <time>2021-04-15T15:34:48Z</time>
      </trkpt>
      <trkpt lat="43.56669" lon="3.70056">
        <ele>107</ele>
        <time>2021-04-15T15:34:48Z</time>
      </trkpt>
      <trkpt lat="43.56668" lon="3.70058">
        <ele>103.7</ele>
        <time>2021-04-15T15:34:49Z</time>
      </trkpt>
      <trkpt lat="43.56668" lon="3.70058">
        <ele>107</ele>
        <time>2021-04-15T15:34:49Z</time>
      </trkpt>
      <trkpt lat="43.56666" lon="3.7006">
        <ele>103.6</ele>
        <time>2021-04-15T15:34:51Z</time>
      </trkpt>
      <trkpt lat="43.56666" lon="3.7006">
        <ele>107</ele>
        <time>2021-04-15T15:34:51Z</time>
      </trkpt>
      <trkpt lat="43.56665" lon="3.70062">
        <ele>103.5</ele>
        <time>2021-04-15T15:34:52Z</time>
      </trkpt>
      <trkpt lat="43.56665" lon="3.70062">
        <ele>107</ele>
        <time>2021-04-15T15:34:52Z</time>
      </trkpt>
      <trkpt lat="43.56664" lon="3.70063">
        <ele>103.4</ele>
        <time>2021-04-15T15:34:53Z</time>
      </trkpt>
      <trkpt lat="43.56664" lon="3.70063">
        <ele>107</ele>
        <time>2021-04-15T15:34:53Z</time>
      </trkpt>
      <trkpt lat="43.56663" lon="3.70065">
        <ele>103.3</ele>
        <time>2021-04-15T15:34:55Z</time>
      </trkpt>
      <trkpt lat="43.56663" lon="3.70065">
        <ele>107</ele>
        <time>2021-04-15T15:34:55Z</time>
      </trkpt>
      <trkpt lat="43.56661" lon="3.70067">
        <ele>103.2</ele>
        <time>2021-04-15T15:34:57Z</time>
      </trkpt>
      <trkpt lat="43.56661" lon="3.70067">
        <ele>107</ele>
        <time>2021-04-15T15:34:57Z</time>
      </trkpt>
      <trkpt lat="43.56659" lon="3.70069">
        <ele>103.1</ele>
        <time>2021-04-15T15:34:58Z</time>
      </trkpt>
      <trkpt lat="43.56659" lon="3.70069">
        <ele>107</ele>
        <time>2021-04-15T15:34:58Z</time>
      </trkpt>
      <trkpt lat="43.56658" lon="3.70071">
        <ele>103</ele>
        <time>2021-04-15T15:34:59Z</time>
      </trkpt>
      <trkpt lat="43.56658" lon="3.70071">
        <ele>107</ele>
        <time>2021-04-15T15:34:59Z</time>
      </trkpt>
      <trkpt lat="43.56657" lon="3.70072">
        <ele>102.9</ele>
        <time>2021-04-15T15:35:00Z</time>
      </trkpt>
      <trkpt lat="43.56657" lon="3.70072">
        <ele>107</ele>
        <time>2021-04-15T15:35:00Z</time>
      </trkpt>
      <trkpt lat="43.56656" lon="3.70074">
        <ele>102.8</ele>
        <time>2021-04-15T15:35:01Z</time>
      </trkpt>
      <trkpt lat="43.56656" lon="3.70074">
        <ele>107</ele>
        <time>2021-04-15T15:35:01Z</time>
      </trkpt>
      <trkpt lat="43.56655" lon="3.70075">
        <ele>102.7</ele>
        <time>2021-04-15T15:35:03Z</time>
      </trkpt>
      <trkpt lat="43.56655" lon="3.70075">
        <ele>107</ele>
        <time>2021-04-15T15:35:03Z</time>
      </trkpt>
      <trkpt lat="43.56654" lon="3.70077">
        <ele>102.6</ele>
        <time>2021-04-15T15:35:05Z</time>
      </trkpt>
      <trkpt lat="43.56654" lon="3.70077">
        <ele>105</ele>
        <time>2021-04-15T15:35:05Z</time>
      </trkpt>
      <trkpt lat="43.56653" lon="3.70079">
        <ele>102.5</ele>
        <time>2021-04-15T15:35:07Z</time>
      </trkpt>
      <trkpt lat="43.56653" lon="3.70079">
        <ele>105</ele>
        <time>2021-04-15T15:35:07Z</time>
      </trkpt>
      <trkpt lat="43.56651" lon="3.70081">
        <ele>102.4</ele>
        <time>2021-04-15T15:35:09Z</time>
      </trkpt>
      <trkpt lat="43.56651" lon="3.70081">
        <ele>105</ele>
        <time>2021-04-15T15:35:09Z</time>
      </trkpt>
      <trkpt lat="43.5665" lon="3.70082">
        <ele>102.3</ele>
        <time>2021-04-15T15:35:10Z</time>
      </trkpt>
      <trkpt lat="43.5665" lon="3.70082">
        <ele>105</ele>
        <time>2021-04-15T15:35:10Z</time>
      </trkpt>
      <trkpt lat="43.56649" lon="3.70084">
        <ele>102.3</ele>
        <time>2021-04-15T15:35:12Z</time>
      </trkpt>
      <trkpt lat="43.56649" lon="3.70084">
        <ele>105</ele>
        <time>2021-04-15T15:35:12Z</time>
      </trkpt>
      <trkpt lat="43.56648" lon="3.70086">
        <ele>102.2</ele>
        <time>2021-04-15T15:35:13Z</time>
      </trkpt>
      <trkpt lat="43.56648" lon="3.70086">
        <ele>105</ele>
        <time>2021-04-15T15:35:13Z</time>
      </trkpt>
      <trkpt lat="43.56647" lon="3.70087">
        <ele>102.2</ele>
        <time>2021-04-15T15:35:15Z</time>
      </trkpt>
      <trkpt lat="43.56647" lon="3.70087">
        <ele>105</ele>
        <time>2021-04-15T15:35:15Z</time>
      </trkpt>
      <trkpt lat="43.56646" lon="3.70089">
        <ele>102.1</ele>
        <time>2021-04-15T15:35:16Z</time>
      </trkpt>
      <trkpt lat="43.56646" lon="3.70089">
        <ele>105</ele>
        <time>2021-04-15T15:35:16Z</time>
      </trkpt>
      <trkpt lat="43.56645" lon="3.7009">
        <ele>102</ele>
        <time>2021-04-15T15:35:17Z</time>
      </trkpt>
      <trkpt lat="43.56645" lon="3.7009">
        <ele>105</ele>
        <time>2021-04-15T15:35:17Z</time>
      </trkpt>
      <trkpt lat="43.56644" lon="3.70092">
        <ele>102</ele>
        <time>2021-04-15T15:35:18Z</time>
      </trkpt>
      <trkpt lat="43.56644" lon="3.70092">
        <ele>105</ele>
        <time>2021-04-15T15:35:18Z</time>
      </trkpt>
      <trkpt lat="43.56644" lon="3.70093">
        <ele>101.9</ele>
        <time>2021-04-15T15:35:19Z</time>
      </trkpt>
      <trkpt lat="43.56644" lon="3.70093">
        <ele>105</ele>
        <time>2021-04-15T15:35:19Z</time>
      </trkpt>
      <trkpt lat="43.56643" lon="3.70095">
        <ele>101.8</ele>
        <time>2021-04-15T15:35:21Z</time>
      </trkpt>
      <trkpt lat="43.56643" lon="3.70095">
        <ele>105</ele>
        <time>2021-04-15T15:35:21Z</time>
      </trkpt>
      <trkpt lat="43.56642" lon="3.70098">
        <ele>101.7</ele>
        <time>2021-04-15T15:35:23Z</time>
      </trkpt>
      <trkpt lat="43.56642" lon="3.70098">
        <ele>105</ele>
        <time>2021-04-15T15:35:23Z</time>
      </trkpt>
      <trkpt lat="43.56641" lon="3.70101">
        <ele>101.6</ele>
        <time>2021-04-15T15:35:25Z</time>
      </trkpt>
      <trkpt lat="43.56641" lon="3.70101">
        <ele>105</ele>
        <time>2021-04-15T15:35:25Z</time>
      </trkpt>
      <trkpt lat="43.5664" lon="3.70103">
        <ele>101.5</ele>
        <time>2021-04-15T15:35:26Z</time>
      </trkpt>
      <trkpt lat="43.5664" lon="3.70103">
        <ele>105</ele>
        <time>2021-04-15T15:35:26Z</time>
      </trkpt>
      <trkpt lat="43.56639" lon="3.70105">
        <ele>101.5</ele>
        <time>2021-04-15T15:35:28Z</time>
      </trkpt>
      <trkpt lat="43.56639" lon="3.70105">
        <ele>105</ele>
        <time>2021-04-15T15:35:28Z</time>
      </trkpt>
      <trkpt lat="43.56638" lon="3.70107">
        <ele>101.5</ele>
        <time>2021-04-15T15:35:29Z</time>
      </trkpt>
      <trkpt lat="43.56638" lon="3.70107">
        <ele>105</ele>
        <time>2021-04-15T15:35:29Z</time>
      </trkpt>
      <trkpt lat="43.56637" lon="3.70109">
        <ele>101.4</ele>
        <time>2021-04-15T15:35:31Z</time>
      </trkpt>
      <trkpt lat="43.56637" lon="3.70109">
        <ele>105</ele>
        <time>2021-04-15T15:35:31Z</time>
      </trkpt>
      <trkpt lat="43.56635" lon="3.70111">
        <ele>101.4</ele>
        <time>2021-04-15T15:35:32Z</time>
      </trkpt>
      <trkpt lat="43.56635" lon="3.70111">
        <ele>105</ele>
        <time>2021-04-15T15:35:32Z</time>
      </trkpt>
      <trkpt lat="43.56634" lon="3.70113">
        <ele>101.4</ele>
        <time>2021-04-15T15:35:34Z</time>
      </trkpt>
      <trkpt lat="43.56634" lon="3.70113">
        <ele>105</ele>
        <time>2021-04-15T15:35:34Z</time>
      </trkpt>
      <trkpt lat="43.56632" lon="3.70115">
        <ele>101.4</ele>
        <time>2021-04-15T15:35:36Z</time>
      </trkpt>
      <trkpt lat="43.56632" lon="3.70115">
        <ele>104</ele>
        <time>2021-04-15T15:35:36Z</time>
      </trkpt>
      <trkpt lat="43.56631" lon="3.70117">
        <ele>101.4</ele>
        <time>2021-04-15T15:35:38Z</time>
      </trkpt>
      <trkpt lat="43.56631" lon="3.70117">
        <ele>104</ele>
        <time>2021-04-15T15:35:38Z</time>
      </trkpt>
      <trkpt lat="43.56629" lon="3.7012">
        <ele>101.4</ele>
        <time>2021-04-15T15:35:40Z</time>
      </trkpt>
      <trkpt lat="43.56629" lon="3.7012">
        <ele>104</ele>
        <time>2021-04-15T15:35:40Z</time>
      </trkpt>
      <trkpt lat="43.56627" lon="3.70121">
        <ele>101.4</ele>
        <time>2021-04-15T15:35:41Z</time>
      </trkpt>
      <trkpt lat="43.56627" lon="3.70121">
        <ele>104</ele>
        <time>2021-04-15T15:35:41Z</time>
      </trkpt>
      <trkpt lat="43.56626" lon="3.70123">
        <ele>101.4</ele>
        <time>2021-04-15T15:35:43Z</time>
      </trkpt>
      <trkpt lat="43.56626" lon="3.70123">
        <ele>104</ele>
        <time>2021-04-15T15:35:43Z</time>
      </trkpt>
      <trkpt lat="43.56624" lon="3.70125">
        <ele>101.4</ele>
        <time>2021-04-15T15:35:45Z</time>
      </trkpt>
      <trkpt lat="43.56624" lon="3.70125">
        <ele>104</ele>
        <time>2021-04-15T15:35:45Z</time>
      </trkpt>
      <trkpt lat="43.56623" lon="3.70126">
        <ele>101.3</ele>
        <time>2021-04-15T15:35:46Z</time>
      </trkpt>
      <trkpt lat="43.56623" lon="3.70126">
        <ele>104</ele>
        <time>2021-04-15T15:35:46Z</time>
      </trkpt>
      <trkpt lat="43.56622" lon="3.70128">
        <ele>101.2</ele>
        <time>2021-04-15T15:35:48Z</time>
      </trkpt>
      <trkpt lat="43.56622" lon="3.70128">
        <ele>104</ele>
        <time>2021-04-15T15:35:48Z</time>
      </trkpt>
      <trkpt lat="43.5662" lon="3.7013">
        <ele>101.2</ele>
        <time>2021-04-15T15:35:50Z</time>
      </trkpt>
      <trkpt lat="43.5662" lon="3.7013">
        <ele>104</ele>
        <time>2021-04-15T15:35:50Z</time>
      </trkpt>
      <trkpt lat="43.56618" lon="3.70133">
        <ele>101.1</ele>
        <time>2021-04-15T15:35:51Z</time>
      </trkpt>
      <trkpt lat="43.56618" lon="3.70133">
        <ele>104</ele>
        <time>2021-04-15T15:35:51Z</time>
      </trkpt>
      <trkpt lat="43.56617" lon="3.70134">
        <ele>101</ele>
        <time>2021-04-15T15:35:52Z</time>
      </trkpt>
      <trkpt lat="43.56617" lon="3.70134">
        <ele>104</ele>
        <time>2021-04-15T15:35:52Z</time>
      </trkpt>
      <trkpt lat="43.56616" lon="3.70137">
        <ele>100.9</ele>
        <time>2021-04-15T15:35:54Z</time>
      </trkpt>
      <trkpt lat="43.56616" lon="3.70137">
        <ele>104</ele>
        <time>2021-04-15T15:35:54Z</time>
      </trkpt>
      <trkpt lat="43.56615" lon="3.70139">
        <ele>100.7</ele>
        <time>2021-04-15T15:35:55Z</time>
      </trkpt>
      <trkpt lat="43.56615" lon="3.70139">
        <ele>104</ele>
        <time>2021-04-15T15:35:55Z</time>
      </trkpt>
      <trkpt lat="43.56614" lon="3.70141">
        <ele>100.6</ele>
        <time>2021-04-15T15:35:56Z</time>
      </trkpt>
      <trkpt lat="43.56614" lon="3.70141">
        <ele>104</ele>
        <time>2021-04-15T15:35:56Z</time>
      </trkpt>
      <trkpt lat="43.56613" lon="3.70143">
        <ele>100.5</ele>
        <time>2021-04-15T15:35:58Z</time>
      </trkpt>
      <trkpt lat="43.56613" lon="3.70143">
        <ele>104</ele>
        <time>2021-04-15T15:35:58Z</time>
      </trkpt>
      <trkpt lat="43.56612" lon="3.70146">
        <ele>100.5</ele>
        <time>2021-04-15T15:36:00Z</time>
      </trkpt>
      <trkpt lat="43.56612" lon="3.70146">
        <ele>104</ele>
        <time>2021-04-15T15:36:00Z</time>
      </trkpt>
      <trkpt lat="43.5661" lon="3.70148">
        <ele>100.4</ele>
        <time>2021-04-15T15:36:02Z</time>
      </trkpt>
      <trkpt lat="43.5661" lon="3.70148">
        <ele>104</ele>
        <time>2021-04-15T15:36:02Z</time>
      </trkpt>
      <trkpt lat="43.56609" lon="3.7015">
        <ele>100.4</ele>
        <time>2021-04-15T15:36:03Z</time>
      </trkpt>
      <trkpt lat="43.56609" lon="3.7015">
        <ele>104</ele>
        <time>2021-04-15T15:36:03Z</time>
      </trkpt>
      <trkpt lat="43.56607" lon="3.70153">
        <ele>100.4</ele>
        <time>2021-04-15T15:36:05Z</time>
      </trkpt>
      <trkpt lat="43.56607" lon="3.70153">
        <ele>104</ele>
        <time>2021-04-15T15:36:05Z</time>
      </trkpt>
      <trkpt lat="43.56606" lon="3.70155">
        <ele>100.3</ele>
        <time>2021-04-15T15:36:06Z</time>
      </trkpt>
      <trkpt lat="43.56606" lon="3.70155">
        <ele>104</ele>
        <time>2021-04-15T15:36:06Z</time>
      </trkpt>
      <trkpt lat="43.56605" lon="3.70157">
        <ele>100.2</ele>
        <time>2021-04-15T15:36:07Z</time>
      </trkpt>
      <trkpt lat="43.56605" lon="3.70157">
        <ele>104</ele>
        <time>2021-04-15T15:36:07Z</time>
      </trkpt>
      <trkpt lat="43.56604" lon="3.70159">
        <ele>100.1</ele>
        <time>2021-04-15T15:36:09Z</time>
      </trkpt>
      <trkpt lat="43.56604" lon="3.70159">
        <ele>102</ele>
        <time>2021-04-15T15:36:09Z</time>
      </trkpt>
      <trkpt lat="43.56603" lon="3.70161">
        <ele>100.1</ele>
        <time>2021-04-15T15:36:10Z</time>
      </trkpt>
      <trkpt lat="43.56603" lon="3.70161">
        <ele>102</ele>
        <time>2021-04-15T15:36:10Z</time>
      </trkpt>
      <trkpt lat="43.56602" lon="3.70163">
        <ele>100</ele>
        <time>2021-04-15T15:36:11Z</time>
      </trkpt>
      <trkpt lat="43.56602" lon="3.70163">
        <ele>102</ele>
        <time>2021-04-15T15:36:11Z</time>
      </trkpt>
      <trkpt lat="43.566" lon="3.70165">
        <ele>99.9</ele>
        <time>2021-04-15T15:36:13Z</time>
      </trkpt>
      <trkpt lat="43.566" lon="3.70165">
        <ele>102</ele>
        <time>2021-04-15T15:36:13Z</time>
      </trkpt>
      <trkpt lat="43.56599" lon="3.70167">
        <ele>99.9</ele>
        <time>2021-04-15T15:36:15Z</time>
      </trkpt>
      <trkpt lat="43.56599" lon="3.70167">
        <ele>102</ele>
        <time>2021-04-15T15:36:15Z</time>
      </trkpt>
      <trkpt lat="43.56597" lon="3.70169">
        <ele>99.9</ele>
        <time>2021-04-15T15:36:16Z</time>
      </trkpt>
      <trkpt lat="43.56597" lon="3.70169">
        <ele>102</ele>
        <time>2021-04-15T15:36:16Z</time>
      </trkpt>
      <trkpt lat="43.56596" lon="3.70171">
        <ele>99.8</ele>
        <time>2021-04-15T15:36:18Z</time>
      </trkpt>
      <trkpt lat="43.56596" lon="3.70171">
        <ele>102</ele>
        <time>2021-04-15T15:36:18Z</time>
      </trkpt>
      <trkpt lat="43.56594" lon="3.70173">
        <ele>99.8</ele>
        <time>2021-04-15T15:36:20Z</time>
      </trkpt>
      <trkpt lat="43.56594" lon="3.70173">
        <ele>102</ele>
        <time>2021-04-15T15:36:20Z</time>
      </trkpt>
      <trkpt lat="43.56593" lon="3.70175">
        <ele>99.7</ele>
        <time>2021-04-15T15:36:22Z</time>
      </trkpt>
      <trkpt lat="43.56593" lon="3.70175">
        <ele>102</ele>
        <time>2021-04-15T15:36:22Z</time>
      </trkpt>
      <trkpt lat="43.56592" lon="3.70177">
        <ele>99.7</ele>
        <time>2021-04-15T15:36:23Z</time>
      </trkpt>
      <trkpt lat="43.56592" lon="3.70177">
        <ele>102</ele>
        <time>2021-04-15T15:36:23Z</time>
      </trkpt>
      <trkpt lat="43.56591" lon="3.70178">
        <ele>99.7</ele>
        <time>2021-04-15T15:36:24Z</time>
      </trkpt>
      <trkpt lat="43.56591" lon="3.70178">
        <ele>102</ele>
        <time>2021-04-15T15:36:24Z</time>
      </trkpt>
      <trkpt lat="43.5659" lon="3.70178">
        <ele>99.6</ele>
        <time>2021-04-15T15:36:25Z</time>
      </trkpt>
      <trkpt lat="43.5659" lon="3.70178">
        <ele>102</ele>
        <time>2021-04-15T15:36:25Z</time>
      </trkpt>
      <trkpt lat="43.5659" lon="3.70179">
        <ele>99.6</ele>
        <time>2021-04-15T15:36:26Z</time>
      </trkpt>
      <trkpt lat="43.5659" lon="3.70179">
        <ele>102</ele>
        <time>2021-04-15T15:36:26Z</time>
      </trkpt>
      <trkpt lat="43.56589" lon="3.70182">
        <ele>99.5</ele>
        <time>2021-04-15T15:36:29Z</time>
      </trkpt>
      <trkpt lat="43.56589" lon="3.70182">
        <ele>102</ele>
        <time>2021-04-15T15:36:29Z</time>
      </trkpt>
      <trkpt lat="43.56589" lon="3.70183">
        <ele>99.5</ele>
        <time>2021-04-15T15:36:31Z</time>
      </trkpt>
      <trkpt lat="43.56589" lon="3.70183">
        <ele>102</ele>
        <time>2021-04-15T15:36:31Z</time>
      </trkpt>
      <trkpt lat="43.56589" lon="3.70185">
        <ele>99.3</ele>
        <time>2021-04-15T15:36:33Z</time>
      </trkpt>
      <trkpt lat="43.56589" lon="3.70185">
        <ele>102</ele>
        <time>2021-04-15T15:36:33Z</time>
      </trkpt>
      <trkpt lat="43.56588" lon="3.70187">
        <ele>99.2</ele>
        <time>2021-04-15T15:36:35Z</time>
      </trkpt>
      <trkpt lat="43.56588" lon="3.70187">
        <ele>102</ele>
        <time>2021-04-15T15:36:35Z</time>
      </trkpt>
      <trkpt lat="43.56588" lon="3.70189">
        <ele>99.1</ele>
        <time>2021-04-15T15:36:36Z</time>
      </trkpt>
      <trkpt lat="43.56588" lon="3.70189">
        <ele>102</ele>
        <time>2021-04-15T15:36:36Z</time>
      </trkpt>
      <trkpt lat="43.56587" lon="3.70191">
        <ele>99</ele>
        <time>2021-04-15T15:36:37Z</time>
      </trkpt>
      <trkpt lat="43.56587" lon="3.70191">
        <ele>102</ele>
        <time>2021-04-15T15:36:37Z</time>
      </trkpt>
      <trkpt lat="43.56586" lon="3.70192">
        <ele>99</ele>
        <time>2021-04-15T15:36:38Z</time>
      </trkpt>
      <trkpt lat="43.56586" lon="3.70192">
        <ele>102</ele>
        <time>2021-04-15T15:36:38Z</time>
      </trkpt>
      <trkpt lat="43.56585" lon="3.70194">
        <ele>98.9</ele>
        <time>2021-04-15T15:36:40Z</time>
      </trkpt>
      <trkpt lat="43.56585" lon="3.70194">
        <ele>102</ele>
        <time>2021-04-15T15:36:40Z</time>
      </trkpt>
      <trkpt lat="43.56584" lon="3.70195">
        <ele>98.9</ele>
        <time>2021-04-15T15:36:42Z</time>
      </trkpt>
      <trkpt lat="43.56584" lon="3.70195">
        <ele>101</ele>
        <time>2021-04-15T15:36:42Z</time>
      </trkpt>
      <trkpt lat="43.56584" lon="3.70197">
        <ele>98.8</ele>
        <time>2021-04-15T15:36:43Z</time>
      </trkpt>
      <trkpt lat="43.56584" lon="3.70197">
        <ele>101</ele>
        <time>2021-04-15T15:36:43Z</time>
      </trkpt>
      <trkpt lat="43.56583" lon="3.702">
        <ele>98.7</ele>
        <time>2021-04-15T15:36:45Z</time>
      </trkpt>
      <trkpt lat="43.56583" lon="3.702">
        <ele>101</ele>
        <time>2021-04-15T15:36:45Z</time>
      </trkpt>
      <trkpt lat="43.56582" lon="3.70202">
        <ele>98.6</ele>
        <time>2021-04-15T15:36:47Z</time>
      </trkpt>
      <trkpt lat="43.56582" lon="3.70202">
        <ele>101</ele>
        <time>2021-04-15T15:36:47Z</time>
      </trkpt>
      <trkpt lat="43.56581" lon="3.70204">
        <ele>98.5</ele>
        <time>2021-04-15T15:36:48Z</time>
      </trkpt>
      <trkpt lat="43.56581" lon="3.70204">
        <ele>101</ele>
        <time>2021-04-15T15:36:48Z</time>
      </trkpt>
      <trkpt lat="43.5658" lon="3.70206">
        <ele>98.4</ele>
        <time>2021-04-15T15:36:49Z</time>
      </trkpt>
      <trkpt lat="43.5658" lon="3.70206">
        <ele>101</ele>
        <time>2021-04-15T15:36:49Z</time>
      </trkpt>
      <trkpt lat="43.56579" lon="3.70208">
        <ele>98.3</ele>
        <time>2021-04-15T15:36:51Z</time>
      </trkpt>
      <trkpt lat="43.56579" lon="3.70208">
        <ele>101</ele>
        <time>2021-04-15T15:36:51Z</time>
      </trkpt>
      <trkpt lat="43.56578" lon="3.7021">
        <ele>98.3</ele>
        <time>2021-04-15T15:36:52Z</time>
      </trkpt>
      <trkpt lat="43.56578" lon="3.7021">
        <ele>101</ele>
        <time>2021-04-15T15:36:52Z</time>
      </trkpt>
      <trkpt lat="43.56577" lon="3.70211">
        <ele>98.2</ele>
        <time>2021-04-15T15:36:53Z</time>
      </trkpt>
      <trkpt lat="43.56577" lon="3.70211">
        <ele>101</ele>
        <time>2021-04-15T15:36:53Z</time>
      </trkpt>
      <trkpt lat="43.56576" lon="3.70213">
        <ele>98.2</ele>
        <time>2021-04-15T15:36:55Z</time>
      </trkpt>
      <trkpt lat="43.56576" lon="3.70213">
        <ele>101</ele>
        <time>2021-04-15T15:36:55Z</time>
      </trkpt>
      <trkpt lat="43.56575" lon="3.70215">
        <ele>98.1</ele>
        <time>2021-04-15T15:36:56Z</time>
      </trkpt>
      <trkpt lat="43.56575" lon="3.70215">
        <ele>101</ele>
        <time>2021-04-15T15:36:56Z</time>
      </trkpt>
      <trkpt lat="43.56574" lon="3.70217">
        <ele>98.1</ele>
        <time>2021-04-15T15:36:57Z</time>
      </trkpt>
      <trkpt lat="43.56574" lon="3.70217">
        <ele>101</ele>
        <time>2021-04-15T15:36:57Z</time>
      </trkpt>
      <trkpt lat="43.56573" lon="3.70218">
        <ele>98</ele>
        <time>2021-04-15T15:36:59Z</time>
      </trkpt>
      <trkpt lat="43.56573" lon="3.70218">
        <ele>100</ele>
        <time>2021-04-15T15:36:59Z</time>
      </trkpt>
      <trkpt lat="43.56572" lon="3.7022">
        <ele>98</ele>
        <time>2021-04-15T15:37:01Z</time>
      </trkpt>
      <trkpt lat="43.56572" lon="3.7022">
        <ele>100</ele>
        <time>2021-04-15T15:37:01Z</time>
      </trkpt>
      <trkpt lat="43.56571" lon="3.70222">
        <ele>97.9</ele>
        <time>2021-04-15T15:37:03Z</time>
      </trkpt>
      <trkpt lat="43.56571" lon="3.70222">
        <ele>100</ele>
        <time>2021-04-15T15:37:03Z</time>
      </trkpt>
      <trkpt lat="43.56569" lon="3.70225">
        <ele>97.8</ele>
        <time>2021-04-15T15:37:05Z</time>
      </trkpt>
      <trkpt lat="43.56569" lon="3.70225">
        <ele>100</ele>
        <time>2021-04-15T15:37:05Z</time>
      </trkpt>
      <trkpt lat="43.56568" lon="3.70227">
        <ele>97.7</ele>
        <time>2021-04-15T15:37:07Z</time>
      </trkpt>
      <trkpt lat="43.56568" lon="3.70227">
        <ele>100</ele>
        <time>2021-04-15T15:37:07Z</time>
      </trkpt>
      <trkpt lat="43.56567" lon="3.70229">
        <ele>97.6</ele>
        <time>2021-04-15T15:37:08Z</time>
      </trkpt>
      <trkpt lat="43.56567" lon="3.70229">
        <ele>100</ele>
        <time>2021-04-15T15:37:08Z</time>
      </trkpt>
      <trkpt lat="43.56566" lon="3.70231">
        <ele>97.5</ele>
        <time>2021-04-15T15:37:10Z</time>
      </trkpt>
      <trkpt lat="43.56566" lon="3.70231">
        <ele>100</ele>
        <time>2021-04-15T15:37:10Z</time>
      </trkpt>
      <trkpt lat="43.56565" lon="3.70233">
        <ele>97.5</ele>
        <time>2021-04-15T15:37:12Z</time>
      </trkpt>
      <trkpt lat="43.56565" lon="3.70233">
        <ele>100</ele>
        <time>2021-04-15T15:37:12Z</time>
      </trkpt>
      <trkpt lat="43.56563" lon="3.70234">
        <ele>97.5</ele>
        <time>2021-04-15T15:37:13Z</time>
      </trkpt>
      <trkpt lat="43.56563" lon="3.70234">
        <ele>100</ele>
        <time>2021-04-15T15:37:13Z</time>
      </trkpt>
      <trkpt lat="43.56562" lon="3.70236">
        <ele>97.5</ele>
        <time>2021-04-15T15:37:15Z</time>
      </trkpt>
      <trkpt lat="43.56562" lon="3.70236">
        <ele>100</ele>
        <time>2021-04-15T15:37:15Z</time>
      </trkpt>
      <trkpt lat="43.5656" lon="3.70238">
        <ele>97.4</ele>
        <time>2021-04-15T15:37:17Z</time>
      </trkpt>
      <trkpt lat="43.5656" lon="3.70238">
        <ele>100</ele>
        <time>2021-04-15T15:37:17Z</time>
      </trkpt>
      <trkpt lat="43.56559" lon="3.70239">
        <ele>97.4</ele>
        <time>2021-04-15T15:37:18Z</time>
      </trkpt>
      <trkpt lat="43.56559" lon="3.70239">
        <ele>100</ele>
        <time>2021-04-15T15:37:18Z</time>
      </trkpt>
      <trkpt lat="43.56558" lon="3.70241">
        <ele>97.4</ele>
        <time>2021-04-15T15:37:19Z</time>
      </trkpt>
      <trkpt lat="43.56558" lon="3.70241">
        <ele>100</ele>
        <time>2021-04-15T15:37:19Z</time>
      </trkpt>
      <trkpt lat="43.56557" lon="3.70243">
        <ele>97.4</ele>
        <time>2021-04-15T15:37:20Z</time>
      </trkpt>
      <trkpt lat="43.56557" lon="3.70243">
        <ele>100</ele>
        <time>2021-04-15T15:37:20Z</time>
      </trkpt>
      <trkpt lat="43.56556" lon="3.70245">
        <ele>97.3</ele>
        <time>2021-04-15T15:37:22Z</time>
      </trkpt>
      <trkpt lat="43.56556" lon="3.70245">
        <ele>100</ele>
        <time>2021-04-15T15:37:22Z</time>
      </trkpt>
      <trkpt lat="43.56555" lon="3.70247">
        <ele>97.3</ele>
        <time>2021-04-15T15:37:24Z</time>
      </trkpt>
      <trkpt lat="43.56555" lon="3.70247">
        <ele>100</ele>
        <time>2021-04-15T15:37:24Z</time>
      </trkpt>
      <trkpt lat="43.56554" lon="3.70249">
        <ele>97.1</ele>
        <time>2021-04-15T15:37:26Z</time>
      </trkpt>
      <trkpt lat="43.56554" lon="3.70249">
        <ele>100</ele>
        <time>2021-04-15T15:37:26Z</time>
      </trkpt>
      <trkpt lat="43.56553" lon="3.70251">
        <ele>97</ele>
        <time>2021-04-15T15:37:27Z</time>
      </trkpt>
      <trkpt lat="43.56553" lon="3.70251">
        <ele>100</ele>
        <time>2021-04-15T15:37:27Z</time>
      </trkpt>
      <trkpt lat="43.56552" lon="3.70253">
        <ele>96.8</ele>
        <time>2021-04-15T15:37:28Z</time>
      </trkpt>
      <trkpt lat="43.56552" lon="3.70253">
        <ele>100</ele>
        <time>2021-04-15T15:37:28Z</time>
      </trkpt>
      <trkpt lat="43.56551" lon="3.70255">
        <ele>96.7</ele>
        <time>2021-04-15T15:37:30Z</time>
      </trkpt>
      <trkpt lat="43.56551" lon="3.70255">
        <ele>100</ele>
        <time>2021-04-15T15:37:30Z</time>
      </trkpt>
      <trkpt lat="43.5655" lon="3.70257">
        <ele>96.5</ele>
        <time>2021-04-15T15:37:31Z</time>
      </trkpt>
      <trkpt lat="43.5655" lon="3.70257">
        <ele>98</ele>
        <time>2021-04-15T15:37:31Z</time>
      </trkpt>
      <trkpt lat="43.56549" lon="3.70258">
        <ele>96.4</ele>
        <time>2021-04-15T15:37:33Z</time>
      </trkpt>
      <trkpt lat="43.56549" lon="3.70258">
        <ele>98</ele>
        <time>2021-04-15T15:37:33Z</time>
      </trkpt>
      <trkpt lat="43.56548" lon="3.7026">
        <ele>96.3</ele>
        <time>2021-04-15T15:37:35Z</time>
      </trkpt>
      <trkpt lat="43.56548" lon="3.7026">
        <ele>98</ele>
        <time>2021-04-15T15:37:35Z</time>
      </trkpt>
      <trkpt lat="43.56547" lon="3.70262">
        <ele>96.1</ele>
        <time>2021-04-15T15:37:37Z</time>
      </trkpt>
      <trkpt lat="43.56547" lon="3.70262">
        <ele>98</ele>
        <time>2021-04-15T15:37:37Z</time>
      </trkpt>
      <trkpt lat="43.56545" lon="3.70264">
        <ele>96</ele>
        <time>2021-04-15T15:37:38Z</time>
      </trkpt>
      <trkpt lat="43.56545" lon="3.70264">
        <ele>98</ele>
        <time>2021-04-15T15:37:38Z</time>
      </trkpt>
      <trkpt lat="43.56544" lon="3.70266">
        <ele>95.9</ele>
        <time>2021-04-15T15:37:40Z</time>
      </trkpt>
      <trkpt lat="43.56544" lon="3.70266">
        <ele>98</ele>
        <time>2021-04-15T15:37:40Z</time>
      </trkpt>
      <trkpt lat="43.56542" lon="3.70269">
        <ele>95.8</ele>
        <time>2021-04-15T15:37:42Z</time>
      </trkpt>
      <trkpt lat="43.56542" lon="3.70269">
        <ele>98</ele>
        <time>2021-04-15T15:37:42Z</time>
      </trkpt>
      <trkpt lat="43.56541" lon="3.70271">
        <ele>95.7</ele>
        <time>2021-04-15T15:37:44Z</time>
      </trkpt>
      <trkpt lat="43.56541" lon="3.70271">
        <ele>98</ele>
        <time>2021-04-15T15:37:44Z</time>
      </trkpt>
      <trkpt lat="43.56539" lon="3.70273">
        <ele>95.6</ele>
        <time>2021-04-15T15:37:46Z</time>
      </trkpt>
      <trkpt lat="43.56539" lon="3.70273">
        <ele>98</ele>
        <time>2021-04-15T15:37:46Z</time>
      </trkpt>
      <trkpt lat="43.56538" lon="3.70275">
        <ele>95.5</ele>
        <time>2021-04-15T15:37:47Z</time>
      </trkpt>
      <trkpt lat="43.56538" lon="3.70275">
        <ele>97</ele>
        <time>2021-04-15T15:37:47Z</time>
      </trkpt>
      <trkpt lat="43.56536" lon="3.70278">
        <ele>95.5</ele>
        <time>2021-04-15T15:37:49Z</time>
      </trkpt>
      <trkpt lat="43.56536" lon="3.70278">
        <ele>97</ele>
        <time>2021-04-15T15:37:49Z</time>
      </trkpt>
      <trkpt lat="43.56534" lon="3.7028">
        <ele>95.3</ele>
        <time>2021-04-15T15:37:50Z</time>
      </trkpt>
      <trkpt lat="43.56534" lon="3.7028">
        <ele>97</ele>
        <time>2021-04-15T15:37:50Z</time>
      </trkpt>
      <trkpt lat="43.56532" lon="3.70282">
        <ele>95.1</ele>
        <time>2021-04-15T15:37:52Z</time>
      </trkpt>
      <trkpt lat="43.56532" lon="3.70282">
        <ele>97</ele>
        <time>2021-04-15T15:37:52Z</time>
      </trkpt>
      <trkpt lat="43.5653" lon="3.70284">
        <ele>95</ele>
        <time>2021-04-15T15:37:54Z</time>
      </trkpt>
      <trkpt lat="43.5653" lon="3.70284">
        <ele>97</ele>
        <time>2021-04-15T15:37:54Z</time>
      </trkpt>
      <trkpt lat="43.56529" lon="3.70286">
        <ele>94.8</ele>
        <time>2021-04-15T15:37:56Z</time>
      </trkpt>
      <trkpt lat="43.56529" lon="3.70286">
        <ele>97</ele>
        <time>2021-04-15T15:37:56Z</time>
      </trkpt>
      <trkpt lat="43.56527" lon="3.70288">
        <ele>94.6</ele>
        <time>2021-04-15T15:37:58Z</time>
      </trkpt>
      <trkpt lat="43.56527" lon="3.70288">
        <ele>97</ele>
        <time>2021-04-15T15:37:58Z</time>
      </trkpt>
      <trkpt lat="43.56525" lon="3.70291">
        <ele>94.3</ele>
        <time>2021-04-15T15:38:00Z</time>
      </trkpt>
      <trkpt lat="43.56525" lon="3.70291">
        <ele>97</ele>
        <time>2021-04-15T15:38:00Z</time>
      </trkpt>
      <trkpt lat="43.56523" lon="3.70293">
        <ele>94</ele>
        <time>2021-04-15T15:38:02Z</time>
      </trkpt>
      <trkpt lat="43.56523" lon="3.70293">
        <ele>97</ele>
        <time>2021-04-15T15:38:02Z</time>
      </trkpt>
      <trkpt lat="43.56522" lon="3.70296">
        <ele>93.8</ele>
        <time>2021-04-15T15:38:03Z</time>
      </trkpt>
      <trkpt lat="43.56522" lon="3.70296">
        <ele>96</ele>
        <time>2021-04-15T15:38:03Z</time>
      </trkpt>
      <trkpt lat="43.56521" lon="3.70298">
        <ele>93.6</ele>
        <time>2021-04-15T15:38:05Z</time>
      </trkpt>
      <trkpt lat="43.56521" lon="3.70298">
        <ele>96</ele>
        <time>2021-04-15T15:38:05Z</time>
      </trkpt>
      <trkpt lat="43.5652" lon="3.703">
        <ele>93.3</ele>
        <time>2021-04-15T15:38:06Z</time>
      </trkpt>
      <trkpt lat="43.5652" lon="3.703">
        <ele>96</ele>
        <time>2021-04-15T15:38:06Z</time>
      </trkpt>
      <trkpt lat="43.56519" lon="3.70302">
        <ele>93.2</ele>
        <time>2021-04-15T15:38:08Z</time>
      </trkpt>
      <trkpt lat="43.56519" lon="3.70302">
        <ele>96</ele>
        <time>2021-04-15T15:38:08Z</time>
      </trkpt>
      <trkpt lat="43.56517" lon="3.70303">
        <ele>93</ele>
        <time>2021-04-15T15:38:10Z</time>
      </trkpt>
      <trkpt lat="43.56517" lon="3.70303">
        <ele>96</ele>
        <time>2021-04-15T15:38:10Z</time>
      </trkpt>
      <trkpt lat="43.56516" lon="3.70305">
        <ele>92.9</ele>
        <time>2021-04-15T15:38:11Z</time>
      </trkpt>
      <trkpt lat="43.56516" lon="3.70305">
        <ele>96</ele>
        <time>2021-04-15T15:38:11Z</time>
      </trkpt>
      <trkpt lat="43.56515" lon="3.70307">
        <ele>92.8</ele>
        <time>2021-04-15T15:38:13Z</time>
      </trkpt>
      <trkpt lat="43.56515" lon="3.70307">
        <ele>96</ele>
        <time>2021-04-15T15:38:13Z</time>
      </trkpt>
      <trkpt lat="43.56513" lon="3.70309">
        <ele>92.7</ele>
        <time>2021-04-15T15:38:15Z</time>
      </trkpt>
      <trkpt lat="43.56513" lon="3.70309">
        <ele>96</ele>
        <time>2021-04-15T15:38:15Z</time>
      </trkpt>
      <trkpt lat="43.56512" lon="3.70312">
        <ele>92.6</ele>
        <time>2021-04-15T15:38:16Z</time>
      </trkpt>
      <trkpt lat="43.56512" lon="3.70312">
        <ele>96</ele>
        <time>2021-04-15T15:38:16Z</time>
      </trkpt>
      <trkpt lat="43.56511" lon="3.70313">
        <ele>92.5</ele>
        <time>2021-04-15T15:38:18Z</time>
      </trkpt>
      <trkpt lat="43.56511" lon="3.70313">
        <ele>96</ele>
        <time>2021-04-15T15:38:18Z</time>
      </trkpt>
      <trkpt lat="43.5651" lon="3.70315">
        <ele>92.4</ele>
        <time>2021-04-15T15:38:19Z</time>
      </trkpt>
      <trkpt lat="43.5651" lon="3.70315">
        <ele>96</ele>
        <time>2021-04-15T15:38:19Z</time>
      </trkpt>
      <trkpt lat="43.56508" lon="3.70317">
        <ele>92.3</ele>
        <time>2021-04-15T15:38:21Z</time>
      </trkpt>
      <trkpt lat="43.56508" lon="3.70317">
        <ele>94</ele>
        <time>2021-04-15T15:38:21Z</time>
      </trkpt>
      <trkpt lat="43.56507" lon="3.70318">
        <ele>92.2</ele>
        <time>2021-04-15T15:38:22Z</time>
      </trkpt>
      <trkpt lat="43.56507" lon="3.70318">
        <ele>94</ele>
        <time>2021-04-15T15:38:22Z</time>
      </trkpt>
      <trkpt lat="43.56505" lon="3.7032">
        <ele>92.2</ele>
        <time>2021-04-15T15:38:24Z</time>
      </trkpt>
      <trkpt lat="43.56505" lon="3.7032">
        <ele>94</ele>
        <time>2021-04-15T15:38:24Z</time>
      </trkpt>
      <trkpt lat="43.56503" lon="3.70322">
        <ele>92.1</ele>
        <time>2021-04-15T15:38:25Z</time>
      </trkpt>
      <trkpt lat="43.56503" lon="3.70322">
        <ele>94</ele>
        <time>2021-04-15T15:38:25Z</time>
      </trkpt>
      <trkpt lat="43.56501" lon="3.70324">
        <ele>92</ele>
        <time>2021-04-15T15:38:27Z</time>
      </trkpt>
      <trkpt lat="43.56501" lon="3.70324">
        <ele>94</ele>
        <time>2021-04-15T15:38:27Z</time>
      </trkpt>
      <trkpt lat="43.565" lon="3.70326">
        <ele>91.8</ele>
        <time>2021-04-15T15:38:29Z</time>
      </trkpt>
      <trkpt lat="43.565" lon="3.70326">
        <ele>94</ele>
        <time>2021-04-15T15:38:29Z</time>
      </trkpt>
      <trkpt lat="43.56499" lon="3.70328">
        <ele>91.7</ele>
        <time>2021-04-15T15:38:30Z</time>
      </trkpt>
      <trkpt lat="43.56499" lon="3.70328">
        <ele>94</ele>
        <time>2021-04-15T15:38:30Z</time>
      </trkpt>
      <trkpt lat="43.56497" lon="3.7033">
        <ele>91.5</ele>
        <time>2021-04-15T15:38:32Z</time>
      </trkpt>
      <trkpt lat="43.56497" lon="3.7033">
        <ele>94</ele>
        <time>2021-04-15T15:38:32Z</time>
      </trkpt>
      <trkpt lat="43.56496" lon="3.70333">
        <ele>91.3</ele>
        <time>2021-04-15T15:38:34Z</time>
      </trkpt>
      <trkpt lat="43.56496" lon="3.70333">
        <ele>94</ele>
        <time>2021-04-15T15:38:34Z</time>
      </trkpt>
      <trkpt lat="43.56495" lon="3.70335">
        <ele>91.3</ele>
        <time>2021-04-15T15:38:35Z</time>
      </trkpt>
      <trkpt lat="43.56495" lon="3.70335">
        <ele>94</ele>
        <time>2021-04-15T15:38:35Z</time>
      </trkpt>
      <trkpt lat="43.56494" lon="3.70337">
        <ele>91.2</ele>
        <time>2021-04-15T15:38:36Z</time>
      </trkpt>
      <trkpt lat="43.56494" lon="3.70337">
        <ele>92</ele>
        <time>2021-04-15T15:38:36Z</time>
      </trkpt>
      <trkpt lat="43.56492" lon="3.70338">
        <ele>91.2</ele>
        <time>2021-04-15T15:38:38Z</time>
      </trkpt>
      <trkpt lat="43.56492" lon="3.70338">
        <ele>92</ele>
        <time>2021-04-15T15:38:38Z</time>
      </trkpt>
      <trkpt lat="43.56491" lon="3.7034">
        <ele>91.1</ele>
        <time>2021-04-15T15:38:39Z</time>
      </trkpt>
      <trkpt lat="43.56491" lon="3.7034">
        <ele>92</ele>
        <time>2021-04-15T15:38:39Z</time>
      </trkpt>
      <trkpt lat="43.5649" lon="3.70342">
        <ele>91</ele>
        <time>2021-04-15T15:38:41Z</time>
      </trkpt>
      <trkpt lat="43.5649" lon="3.70342">
        <ele>92</ele>
        <time>2021-04-15T15:38:41Z</time>
      </trkpt>
      <trkpt lat="43.56488" lon="3.70344">
        <ele>90.9</ele>
        <time>2021-04-15T15:38:43Z</time>
      </trkpt>
      <trkpt lat="43.56488" lon="3.70344">
        <ele>92</ele>
        <time>2021-04-15T15:38:43Z</time>
      </trkpt>
      <trkpt lat="43.56487" lon="3.70346">
        <ele>90.8</ele>
        <time>2021-04-15T15:38:45Z</time>
      </trkpt>
      <trkpt lat="43.56487" lon="3.70346">
        <ele>92</ele>
        <time>2021-04-15T15:38:45Z</time>
      </trkpt>
      <trkpt lat="43.56486" lon="3.70348">
        <ele>90.7</ele>
        <time>2021-04-15T15:38:46Z</time>
      </trkpt>
      <trkpt lat="43.56486" lon="3.70348">
        <ele>92</ele>
        <time>2021-04-15T15:38:46Z</time>
      </trkpt>
      <trkpt lat="43.56485" lon="3.7035">
        <ele>90.6</ele>
        <time>2021-04-15T15:38:48Z</time>
      </trkpt>
      <trkpt lat="43.56485" lon="3.7035">
        <ele>92</ele>
        <time>2021-04-15T15:38:48Z</time>
      </trkpt>
      <trkpt lat="43.56484" lon="3.70351">
        <ele>90.5</ele>
        <time>2021-04-15T15:38:49Z</time>
      </trkpt>
      <trkpt lat="43.56484" lon="3.70351">
        <ele>92</ele>
        <time>2021-04-15T15:38:49Z</time>
      </trkpt>
      <trkpt lat="43.56482" lon="3.70353">
        <ele>90.4</ele>
        <time>2021-04-15T15:38:51Z</time>
      </trkpt>
      <trkpt lat="43.56482" lon="3.70353">
        <ele>92</ele>
        <time>2021-04-15T15:38:51Z</time>
      </trkpt>
      <trkpt lat="43.56481" lon="3.70355">
        <ele>90.3</ele>
        <time>2021-04-15T15:38:52Z</time>
      </trkpt>
      <trkpt lat="43.56481" lon="3.70355">
        <ele>92</ele>
        <time>2021-04-15T15:38:52Z</time>
      </trkpt>
      <trkpt lat="43.5648" lon="3.70357">
        <ele>90.1</ele>
        <time>2021-04-15T15:38:54Z</time>
      </trkpt>
      <trkpt lat="43.5648" lon="3.70357">
        <ele>91</ele>
        <time>2021-04-15T15:38:54Z</time>
      </trkpt>
      <trkpt lat="43.56479" lon="3.70359">
        <ele>89.9</ele>
        <time>2021-04-15T15:38:55Z</time>
      </trkpt>
      <trkpt lat="43.56479" lon="3.70359">
        <ele>91</ele>
        <time>2021-04-15T15:38:55Z</time>
      </trkpt>
      <trkpt lat="43.56478" lon="3.70362">
        <ele>89.8</ele>
        <time>2021-04-15T15:38:57Z</time>
      </trkpt>
      <trkpt lat="43.56478" lon="3.70362">
        <ele>91</ele>
        <time>2021-04-15T15:38:57Z</time>
      </trkpt>
      <trkpt lat="43.56477" lon="3.70363">
        <ele>89.7</ele>
        <time>2021-04-15T15:38:58Z</time>
      </trkpt>
      <trkpt lat="43.56477" lon="3.70363">
        <ele>91</ele>
        <time>2021-04-15T15:38:58Z</time>
      </trkpt>
      <trkpt lat="43.56476" lon="3.70365">
        <ele>89.7</ele>
        <time>2021-04-15T15:39:00Z</time>
      </trkpt>
      <trkpt lat="43.56476" lon="3.70365">
        <ele>91</ele>
        <time>2021-04-15T15:39:00Z</time>
      </trkpt>
      <trkpt lat="43.56476" lon="3.70367">
        <ele>89.7</ele>
        <time>2021-04-15T15:39:01Z</time>
      </trkpt>
      <trkpt lat="43.56476" lon="3.70367">
        <ele>91</ele>
        <time>2021-04-15T15:39:01Z</time>
      </trkpt>
      <trkpt lat="43.56475" lon="3.70369">
        <ele>89.6</ele>
        <time>2021-04-15T15:39:03Z</time>
      </trkpt>
      <trkpt lat="43.56475" lon="3.70369">
        <ele>91</ele>
        <time>2021-04-15T15:39:03Z</time>
      </trkpt>
      <trkpt lat="43.56473" lon="3.70371">
        <ele>89.6</ele>
        <time>2021-04-15T15:39:05Z</time>
      </trkpt>
      <trkpt lat="43.56473" lon="3.70371">
        <ele>91</ele>
        <time>2021-04-15T15:39:05Z</time>
      </trkpt>
      <trkpt lat="43.56472" lon="3.70372">
        <ele>89.6</ele>
        <time>2021-04-15T15:39:07Z</time>
      </trkpt>
      <trkpt lat="43.56472" lon="3.70372">
        <ele>91</ele>
        <time>2021-04-15T15:39:07Z</time>
      </trkpt>
      <trkpt lat="43.56471" lon="3.70374">
        <ele>89.6</ele>
        <time>2021-04-15T15:39:09Z</time>
      </trkpt>
      <trkpt lat="43.56471" lon="3.70374">
        <ele>90</ele>
        <time>2021-04-15T15:39:09Z</time>
      </trkpt>
      <trkpt lat="43.56471" lon="3.70376">
        <ele>89.5</ele>
        <time>2021-04-15T15:39:10Z</time>
      </trkpt>
      <trkpt lat="43.56471" lon="3.70376">
        <ele>90</ele>
        <time>2021-04-15T15:39:10Z</time>
      </trkpt>
      <trkpt lat="43.5647" lon="3.70377">
        <ele>89.5</ele>
        <time>2021-04-15T15:39:12Z</time>
      </trkpt>
      <trkpt lat="43.5647" lon="3.70377">
        <ele>90</ele>
        <time>2021-04-15T15:39:12Z</time>
      </trkpt>
      <trkpt lat="43.56469" lon="3.70378">
        <ele>89.4</ele>
        <time>2021-04-15T15:39:14Z</time>
      </trkpt>
      <trkpt lat="43.56469" lon="3.70378">
        <ele>90</ele>
        <time>2021-04-15T15:39:14Z</time>
      </trkpt>
      <trkpt lat="43.56469" lon="3.70379">
        <ele>89.4</ele>
        <time>2021-04-15T15:39:16Z</time>
      </trkpt>
      <trkpt lat="43.56469" lon="3.70379">
        <ele>90</ele>
        <time>2021-04-15T15:39:16Z</time>
      </trkpt>
      <trkpt lat="43.56464" lon="3.70389">
        <ele>89</ele>
        <time>2021-04-15T15:39:28Z</time>
      </trkpt>
      <trkpt lat="43.56464" lon="3.70389">
        <ele>90</ele>
        <time>2021-04-15T15:39:28Z</time>
      </trkpt>
      <trkpt lat="43.56464" lon="3.7039">
        <ele>89</ele>
        <time>2021-04-15T15:39:30Z</time>
      </trkpt>
      <trkpt lat="43.56464" lon="3.7039">
        <ele>90</ele>
        <time>2021-04-15T15:39:30Z</time>
      </trkpt>
      <trkpt lat="43.56463" lon="3.7039">
        <ele>88.9</ele>
        <time>2021-04-15T15:39:31Z</time>
      </trkpt>
      <trkpt lat="43.56463" lon="3.7039">
        <ele>90</ele>
        <time>2021-04-15T15:39:31Z</time>
      </trkpt>
      <trkpt lat="43.56462" lon="3.70392">
        <ele>88.8</ele>
        <time>2021-04-15T15:39:33Z</time>
      </trkpt>
      <trkpt lat="43.56462" lon="3.70392">
        <ele>90</ele>
        <time>2021-04-15T15:39:33Z</time>
      </trkpt>
      <trkpt lat="43.56461" lon="3.70393">
        <ele>88.8</ele>
        <time>2021-04-15T15:39:34Z</time>
      </trkpt>
      <trkpt lat="43.56461" lon="3.70393">
        <ele>90</ele>
        <time>2021-04-15T15:39:34Z</time>
      </trkpt>
      <trkpt lat="43.5646" lon="3.70395">
        <ele>88.7</ele>
        <time>2021-04-15T15:39:36Z</time>
      </trkpt>
      <trkpt lat="43.5646" lon="3.70395">
        <ele>90</ele>
        <time>2021-04-15T15:39:36Z</time>
      </trkpt>
      <trkpt lat="43.56458" lon="3.70397">
        <ele>88.6</ele>
        <time>2021-04-15T15:39:38Z</time>
      </trkpt>
      <trkpt lat="43.56458" lon="3.70397">
        <ele>90</ele>
        <time>2021-04-15T15:39:38Z</time>
      </trkpt>
      <trkpt lat="43.56456" lon="3.70399">
        <ele>88.5</ele>
        <time>2021-04-15T15:39:40Z</time>
      </trkpt>
      <trkpt lat="43.56456" lon="3.70399">
        <ele>90</ele>
        <time>2021-04-15T15:39:40Z</time>
      </trkpt>
      <trkpt lat="43.56455" lon="3.70401">
        <ele>88.4</ele>
        <time>2021-04-15T15:39:41Z</time>
      </trkpt>
      <trkpt lat="43.56455" lon="3.70401">
        <ele>90</ele>
        <time>2021-04-15T15:39:41Z</time>
      </trkpt>
      <trkpt lat="43.56453" lon="3.70403">
        <ele>88.3</ele>
        <time>2021-04-15T15:39:43Z</time>
      </trkpt>
      <trkpt lat="43.56453" lon="3.70403">
        <ele>90</ele>
        <time>2021-04-15T15:39:43Z</time>
      </trkpt>
      <trkpt lat="43.56452" lon="3.70406">
        <ele>88.2</ele>
        <time>2021-04-15T15:39:45Z</time>
      </trkpt>
      <trkpt lat="43.56452" lon="3.70406">
        <ele>90</ele>
        <time>2021-04-15T15:39:45Z</time>
      </trkpt>
      <trkpt lat="43.5645" lon="3.70408">
        <ele>88.2</ele>
        <time>2021-04-15T15:39:46Z</time>
      </trkpt>
      <trkpt lat="43.5645" lon="3.70408">
        <ele>90</ele>
        <time>2021-04-15T15:39:46Z</time>
      </trkpt>
      <trkpt lat="43.56449" lon="3.70411">
        <ele>88.1</ele>
        <time>2021-04-15T15:39:48Z</time>
      </trkpt>
      <trkpt lat="43.56449" lon="3.70411">
        <ele>90</ele>
        <time>2021-04-15T15:39:48Z</time>
      </trkpt>
      <trkpt lat="43.56448" lon="3.70414">
        <ele>88</ele>
        <time>2021-04-15T15:39:50Z</time>
      </trkpt>
      <trkpt lat="43.56448" lon="3.70414">
        <ele>90</ele>
        <time>2021-04-15T15:39:50Z</time>
      </trkpt>
      <trkpt lat="43.56447" lon="3.70416">
        <ele>87.9</ele>
        <time>2021-04-15T15:39:51Z</time>
      </trkpt>
      <trkpt lat="43.56447" lon="3.70416">
        <ele>90</ele>
        <time>2021-04-15T15:39:51Z</time>
      </trkpt>
      <trkpt lat="43.56446" lon="3.70418">
        <ele>87.9</ele>
        <time>2021-04-15T15:39:53Z</time>
      </trkpt>
      <trkpt lat="43.56446" lon="3.70418">
        <ele>90</ele>
        <time>2021-04-15T15:39:53Z</time>
      </trkpt>
      <trkpt lat="43.56445" lon="3.7042">
        <ele>87.7</ele>
        <time>2021-04-15T15:39:55Z</time>
      </trkpt>
      <trkpt lat="43.56445" lon="3.7042">
        <ele>90</ele>
        <time>2021-04-15T15:39:55Z</time>
      </trkpt>
      <trkpt lat="43.56445" lon="3.70422">
        <ele>87.6</ele>
        <time>2021-04-15T15:39:56Z</time>
      </trkpt>
      <trkpt lat="43.56445" lon="3.70422">
        <ele>90</ele>
        <time>2021-04-15T15:39:56Z</time>
      </trkpt>
      <trkpt lat="43.56444" lon="3.70425">
        <ele>87.4</ele>
        <time>2021-04-15T15:39:58Z</time>
      </trkpt>
      <trkpt lat="43.56444" lon="3.70425">
        <ele>88</ele>
        <time>2021-04-15T15:39:58Z</time>
      </trkpt>
      <trkpt lat="43.56443" lon="3.70427">
        <ele>87.3</ele>
        <time>2021-04-15T15:39:59Z</time>
      </trkpt>
      <trkpt lat="43.56443" lon="3.70427">
        <ele>88</ele>
        <time>2021-04-15T15:39:59Z</time>
      </trkpt>
      <trkpt lat="43.56442" lon="3.70429">
        <ele>87.1</ele>
        <time>2021-04-15T15:40:01Z</time>
      </trkpt>
      <trkpt lat="43.56442" lon="3.70429">
        <ele>88</ele>
        <time>2021-04-15T15:40:01Z</time>
      </trkpt>
      <trkpt lat="43.56441" lon="3.70431">
        <ele>86.9</ele>
        <time>2021-04-15T15:40:03Z</time>
      </trkpt>
      <trkpt lat="43.56441" lon="3.70431">
        <ele>88</ele>
        <time>2021-04-15T15:40:03Z</time>
      </trkpt>
      <trkpt lat="43.5644" lon="3.70433">
        <ele>86.7</ele>
        <time>2021-04-15T15:40:05Z</time>
      </trkpt>
      <trkpt lat="43.5644" lon="3.70433">
        <ele>88</ele>
        <time>2021-04-15T15:40:05Z</time>
      </trkpt>
      <trkpt lat="43.56439" lon="3.70435">
        <ele>86.6</ele>
        <time>2021-04-15T15:40:06Z</time>
      </trkpt>
      <trkpt lat="43.56439" lon="3.70435">
        <ele>88</ele>
        <time>2021-04-15T15:40:06Z</time>
      </trkpt>
      <trkpt lat="43.56439" lon="3.70437">
        <ele>86.5</ele>
        <time>2021-04-15T15:40:07Z</time>
      </trkpt>
      <trkpt lat="43.56439" lon="3.70437">
        <ele>88</ele>
        <time>2021-04-15T15:40:07Z</time>
      </trkpt>
      <trkpt lat="43.56438" lon="3.70439">
        <ele>86.3</ele>
        <time>2021-04-15T15:40:09Z</time>
      </trkpt>
      <trkpt lat="43.56438" lon="3.70439">
        <ele>88</ele>
        <time>2021-04-15T15:40:09Z</time>
      </trkpt>
      <trkpt lat="43.56437" lon="3.70441">
        <ele>86.2</ele>
        <time>2021-04-15T15:40:11Z</time>
      </trkpt>
      <trkpt lat="43.56437" lon="3.70441">
        <ele>88</ele>
        <time>2021-04-15T15:40:11Z</time>
      </trkpt>
      <trkpt lat="43.56437" lon="3.70443">
        <ele>86.1</ele>
        <time>2021-04-15T15:40:12Z</time>
      </trkpt>
      <trkpt lat="43.56437" lon="3.70443">
        <ele>88</ele>
        <time>2021-04-15T15:40:12Z</time>
      </trkpt>
      <trkpt lat="43.56436" lon="3.70445">
        <ele>86</ele>
        <time>2021-04-15T15:40:14Z</time>
      </trkpt>
      <trkpt lat="43.56436" lon="3.70445">
        <ele>87</ele>
        <time>2021-04-15T15:40:14Z</time>
      </trkpt>
      <trkpt lat="43.56436" lon="3.70447">
        <ele>85.9</ele>
        <time>2021-04-15T15:40:16Z</time>
      </trkpt>
      <trkpt lat="43.56436" lon="3.70447">
        <ele>87</ele>
        <time>2021-04-15T15:40:16Z</time>
      </trkpt>
      <trkpt lat="43.56436" lon="3.70449">
        <ele>85.8</ele>
        <time>2021-04-15T15:40:18Z</time>
      </trkpt>
      <trkpt lat="43.56436" lon="3.70449">
        <ele>87</ele>
        <time>2021-04-15T15:40:18Z</time>
      </trkpt>
      <trkpt lat="43.56435" lon="3.7045">
        <ele>85.8</ele>
        <time>2021-04-15T15:40:19Z</time>
      </trkpt>
      <trkpt lat="43.56435" lon="3.7045">
        <ele>87</ele>
        <time>2021-04-15T15:40:19Z</time>
      </trkpt>
      <trkpt lat="43.56434" lon="3.70452">
        <ele>85.7</ele>
        <time>2021-04-15T15:40:21Z</time>
      </trkpt>
      <trkpt lat="43.56434" lon="3.70452">
        <ele>87</ele>
        <time>2021-04-15T15:40:21Z</time>
      </trkpt>
      <trkpt lat="43.56433" lon="3.70455">
        <ele>85.6</ele>
        <time>2021-04-15T15:40:23Z</time>
      </trkpt>
      <trkpt lat="43.56433" lon="3.70455">
        <ele>87</ele>
        <time>2021-04-15T15:40:23Z</time>
      </trkpt>
      <trkpt lat="43.56432" lon="3.70457">
        <ele>85.6</ele>
        <time>2021-04-15T15:40:24Z</time>
      </trkpt>
      <trkpt lat="43.56432" lon="3.70457">
        <ele>87</ele>
        <time>2021-04-15T15:40:24Z</time>
      </trkpt>
      <trkpt lat="43.56431" lon="3.70459">
        <ele>85.5</ele>
        <time>2021-04-15T15:40:26Z</time>
      </trkpt>
      <trkpt lat="43.56431" lon="3.70459">
        <ele>87</ele>
        <time>2021-04-15T15:40:26Z</time>
      </trkpt>
      <trkpt lat="43.5643" lon="3.70461">
        <ele>85.4</ele>
        <time>2021-04-15T15:40:27Z</time>
      </trkpt>
      <trkpt lat="43.5643" lon="3.70461">
        <ele>87</ele>
        <time>2021-04-15T15:40:27Z</time>
      </trkpt>
      <trkpt lat="43.56429" lon="3.70463">
        <ele>85.3</ele>
        <time>2021-04-15T15:40:28Z</time>
      </trkpt>
      <trkpt lat="43.56429" lon="3.70463">
        <ele>87</ele>
        <time>2021-04-15T15:40:28Z</time>
      </trkpt>
      <trkpt lat="43.56429" lon="3.70465">
        <ele>85.3</ele>
        <time>2021-04-15T15:40:30Z</time>
      </trkpt>
      <trkpt lat="43.56429" lon="3.70465">
        <ele>87</ele>
        <time>2021-04-15T15:40:30Z</time>
      </trkpt>
      <trkpt lat="43.56428" lon="3.70467">
        <ele>85.2</ele>
        <time>2021-04-15T15:40:31Z</time>
      </trkpt>
      <trkpt lat="43.56428" lon="3.70467">
        <ele>86</ele>
        <time>2021-04-15T15:40:31Z</time>
      </trkpt>
      <trkpt lat="43.56427" lon="3.70468">
        <ele>85.1</ele>
        <time>2021-04-15T15:40:32Z</time>
      </trkpt>
      <trkpt lat="43.56427" lon="3.70468">
        <ele>86</ele>
        <time>2021-04-15T15:40:32Z</time>
      </trkpt>
      <trkpt lat="43.56426" lon="3.70471">
        <ele>85.1</ele>
        <time>2021-04-15T15:40:34Z</time>
      </trkpt>
      <trkpt lat="43.56426" lon="3.70471">
        <ele>86</ele>
        <time>2021-04-15T15:40:34Z</time>
      </trkpt>
      <trkpt lat="43.56425" lon="3.70472">
        <ele>85</ele>
        <time>2021-04-15T15:40:35Z</time>
      </trkpt>
      <trkpt lat="43.56425" lon="3.70472">
        <ele>86</ele>
        <time>2021-04-15T15:40:35Z</time>
      </trkpt>
      <trkpt lat="43.56424" lon="3.70474">
        <ele>84.9</ele>
        <time>2021-04-15T15:40:36Z</time>
      </trkpt>
      <trkpt lat="43.56424" lon="3.70474">
        <ele>86</ele>
        <time>2021-04-15T15:40:36Z</time>
      </trkpt>
      <trkpt lat="43.56422" lon="3.70475">
        <ele>84.8</ele>
        <time>2021-04-15T15:40:38Z</time>
      </trkpt>
      <trkpt lat="43.56422" lon="3.70475">
        <ele>86</ele>
        <time>2021-04-15T15:40:38Z</time>
      </trkpt>
      <trkpt lat="43.56421" lon="3.70477">
        <ele>84.7</ele>
        <time>2021-04-15T15:40:39Z</time>
      </trkpt>
      <trkpt lat="43.56421" lon="3.70477">
        <ele>86</ele>
        <time>2021-04-15T15:40:39Z</time>
      </trkpt>
      <trkpt lat="43.5642" lon="3.70478">
        <ele>84.6</ele>
        <time>2021-04-15T15:40:41Z</time>
      </trkpt>
      <trkpt lat="43.5642" lon="3.70478">
        <ele>86</ele>
        <time>2021-04-15T15:40:41Z</time>
      </trkpt>
      <trkpt lat="43.56418" lon="3.7048">
        <ele>84.4</ele>
        <time>2021-04-15T15:40:43Z</time>
      </trkpt>
      <trkpt lat="43.56418" lon="3.7048">
        <ele>86</ele>
        <time>2021-04-15T15:40:43Z</time>
      </trkpt>
      <trkpt lat="43.56416" lon="3.70482">
        <ele>84.3</ele>
        <time>2021-04-15T15:40:44Z</time>
      </trkpt>
      <trkpt lat="43.56416" lon="3.70482">
        <ele>86</ele>
        <time>2021-04-15T15:40:44Z</time>
      </trkpt>
      <trkpt lat="43.56415" lon="3.70483">
        <ele>84.2</ele>
        <time>2021-04-15T15:40:45Z</time>
      </trkpt>
      <trkpt lat="43.56415" lon="3.70483">
        <ele>86</ele>
        <time>2021-04-15T15:40:45Z</time>
      </trkpt>
      <trkpt lat="43.56413" lon="3.70484">
        <ele>84.1</ele>
        <time>2021-04-15T15:40:47Z</time>
      </trkpt>
      <trkpt lat="43.56413" lon="3.70484">
        <ele>84</ele>
        <time>2021-04-15T15:40:47Z</time>
      </trkpt>
      <trkpt lat="43.56412" lon="3.70485">
        <ele>84</ele>
        <time>2021-04-15T15:40:48Z</time>
      </trkpt>
      <trkpt lat="43.56412" lon="3.70485">
        <ele>84</ele>
        <time>2021-04-15T15:40:48Z</time>
      </trkpt>
      <trkpt lat="43.5641" lon="3.70487">
        <ele>83.8</ele>
        <time>2021-04-15T15:40:50Z</time>
      </trkpt>
      <trkpt lat="43.5641" lon="3.70487">
        <ele>84</ele>
        <time>2021-04-15T15:40:50Z</time>
      </trkpt>
      <trkpt lat="43.56409" lon="3.70488">
        <ele>83.8</ele>
        <time>2021-04-15T15:40:51Z</time>
      </trkpt>
      <trkpt lat="43.56409" lon="3.70488">
        <ele>84</ele>
        <time>2021-04-15T15:40:51Z</time>
      </trkpt>
      <trkpt lat="43.56408" lon="3.70489">
        <ele>83.7</ele>
        <time>2021-04-15T15:40:53Z</time>
      </trkpt>
      <trkpt lat="43.56408" lon="3.70489">
        <ele>84</ele>
        <time>2021-04-15T15:40:53Z</time>
      </trkpt>
      <trkpt lat="43.56407" lon="3.70491">
        <ele>83.6</ele>
        <time>2021-04-15T15:40:54Z</time>
      </trkpt>
      <trkpt lat="43.56407" lon="3.70491">
        <ele>84</ele>
        <time>2021-04-15T15:40:54Z</time>
      </trkpt>
      <trkpt lat="43.56406" lon="3.70492">
        <ele>83.5</ele>
        <time>2021-04-15T15:40:55Z</time>
      </trkpt>
      <trkpt lat="43.56406" lon="3.70492">
        <ele>84</ele>
        <time>2021-04-15T15:40:55Z</time>
      </trkpt>
      <trkpt lat="43.56404" lon="3.70493">
        <ele>83.4</ele>
        <time>2021-04-15T15:40:57Z</time>
      </trkpt>
      <trkpt lat="43.56404" lon="3.70493">
        <ele>84</ele>
        <time>2021-04-15T15:40:57Z</time>
      </trkpt>
      <trkpt lat="43.56403" lon="3.70495">
        <ele>83.3</ele>
        <time>2021-04-15T15:40:59Z</time>
      </trkpt>
      <trkpt lat="43.56403" lon="3.70495">
        <ele>84</ele>
        <time>2021-04-15T15:40:59Z</time>
      </trkpt>
      <trkpt lat="43.56402" lon="3.70496">
        <ele>83.2</ele>
        <time>2021-04-15T15:41:00Z</time>
      </trkpt>
      <trkpt lat="43.56402" lon="3.70496">
        <ele>84</ele>
        <time>2021-04-15T15:41:00Z</time>
      </trkpt>
      <trkpt lat="43.56401" lon="3.70497">
        <ele>83.2</ele>
        <time>2021-04-15T15:41:02Z</time>
      </trkpt>
      <trkpt lat="43.56401" lon="3.70497">
        <ele>84</ele>
        <time>2021-04-15T15:41:02Z</time>
      </trkpt>
      <trkpt lat="43.564" lon="3.70498">
        <ele>83.1</ele>
        <time>2021-04-15T15:41:04Z</time>
      </trkpt>
      <trkpt lat="43.564" lon="3.70498">
        <ele>84</ele>
        <time>2021-04-15T15:41:04Z</time>
      </trkpt>
      <trkpt lat="43.56398" lon="3.705">
        <ele>83</ele>
        <time>2021-04-15T15:41:06Z</time>
      </trkpt>
      <trkpt lat="43.56398" lon="3.705">
        <ele>84</ele>
        <time>2021-04-15T15:41:06Z</time>
      </trkpt>
      <trkpt lat="43.56396" lon="3.70501">
        <ele>83</ele>
        <time>2021-04-15T15:41:08Z</time>
      </trkpt>
      <trkpt lat="43.56396" lon="3.70501">
        <ele>84</ele>
        <time>2021-04-15T15:41:08Z</time>
      </trkpt>
      <trkpt lat="43.56395" lon="3.70502">
        <ele>82.9</ele>
        <time>2021-04-15T15:41:09Z</time>
      </trkpt>
      <trkpt lat="43.56395" lon="3.70502">
        <ele>84</ele>
        <time>2021-04-15T15:41:09Z</time>
      </trkpt>
      <trkpt lat="43.56393" lon="3.70503">
        <ele>82.9</ele>
        <time>2021-04-15T15:41:11Z</time>
      </trkpt>
      <trkpt lat="43.56393" lon="3.70503">
        <ele>84</ele>
        <time>2021-04-15T15:41:11Z</time>
      </trkpt>
      <trkpt lat="43.56392" lon="3.70504">
        <ele>82.9</ele>
        <time>2021-04-15T15:41:12Z</time>
      </trkpt>
      <trkpt lat="43.56392" lon="3.70504">
        <ele>84</ele>
        <time>2021-04-15T15:41:12Z</time>
      </trkpt>
      <trkpt lat="43.56391" lon="3.70505">
        <ele>82.8</ele>
        <time>2021-04-15T15:41:14Z</time>
      </trkpt>
      <trkpt lat="43.56391" lon="3.70505">
        <ele>84</ele>
        <time>2021-04-15T15:41:14Z</time>
      </trkpt>
      <trkpt lat="43.56389" lon="3.70506">
        <ele>82.8</ele>
        <time>2021-04-15T15:41:16Z</time>
      </trkpt>
      <trkpt lat="43.56389" lon="3.70506">
        <ele>84</ele>
        <time>2021-04-15T15:41:16Z</time>
      </trkpt>
      <trkpt lat="43.56388" lon="3.70508">
        <ele>82.7</ele>
        <time>2021-04-15T15:41:17Z</time>
      </trkpt>
      <trkpt lat="43.56388" lon="3.70508">
        <ele>84</ele>
        <time>2021-04-15T15:41:17Z</time>
      </trkpt>
      <trkpt lat="43.56387" lon="3.70509">
        <ele>82.6</ele>
        <time>2021-04-15T15:41:18Z</time>
      </trkpt>
      <trkpt lat="43.56387" lon="3.70509">
        <ele>84</ele>
        <time>2021-04-15T15:41:18Z</time>
      </trkpt>
      <trkpt lat="43.56386" lon="3.7051">
        <ele>82.5</ele>
        <time>2021-04-15T15:41:19Z</time>
      </trkpt>
      <trkpt lat="43.56386" lon="3.7051">
        <ele>84</ele>
        <time>2021-04-15T15:41:19Z</time>
      </trkpt>
      <trkpt lat="43.56384" lon="3.70511">
        <ele>82.3</ele>
        <time>2021-04-15T15:41:21Z</time>
      </trkpt>
      <trkpt lat="43.56384" lon="3.70511">
        <ele>82</ele>
        <time>2021-04-15T15:41:21Z</time>
      </trkpt>
      <trkpt lat="43.56383" lon="3.70513">
        <ele>82.2</ele>
        <time>2021-04-15T15:41:23Z</time>
      </trkpt>
      <trkpt lat="43.56383" lon="3.70513">
        <ele>82</ele>
        <time>2021-04-15T15:41:23Z</time>
      </trkpt>
      <trkpt lat="43.56381" lon="3.70513">
        <ele>82.1</ele>
        <time>2021-04-15T15:41:25Z</time>
      </trkpt>
      <trkpt lat="43.56381" lon="3.70513">
        <ele>82</ele>
        <time>2021-04-15T15:41:25Z</time>
      </trkpt>
      <trkpt lat="43.56379" lon="3.70514">
        <ele>82</ele>
        <time>2021-04-15T15:41:27Z</time>
      </trkpt>
      <trkpt lat="43.56379" lon="3.70514">
        <ele>82</ele>
        <time>2021-04-15T15:41:27Z</time>
      </trkpt>
      <trkpt lat="43.56377" lon="3.70516">
        <ele>81.8</ele>
        <time>2021-04-15T15:41:29Z</time>
      </trkpt>
      <trkpt lat="43.56377" lon="3.70516">
        <ele>82</ele>
        <time>2021-04-15T15:41:29Z</time>
      </trkpt>
      <trkpt lat="43.56376" lon="3.70517">
        <ele>81.6</ele>
        <time>2021-04-15T15:41:31Z</time>
      </trkpt>
      <trkpt lat="43.56376" lon="3.70517">
        <ele>82</ele>
        <time>2021-04-15T15:41:31Z</time>
      </trkpt>
      <trkpt lat="43.56374" lon="3.70519">
        <ele>81.4</ele>
        <time>2021-04-15T15:41:33Z</time>
      </trkpt>
      <trkpt lat="43.56374" lon="3.70519">
        <ele>82</ele>
        <time>2021-04-15T15:41:33Z</time>
      </trkpt>
      <trkpt lat="43.56372" lon="3.70521">
        <ele>81.2</ele>
        <time>2021-04-15T15:41:35Z</time>
      </trkpt>
      <trkpt lat="43.56372" lon="3.70521">
        <ele>82</ele>
        <time>2021-04-15T15:41:35Z</time>
      </trkpt>
      <trkpt lat="43.5637" lon="3.70522">
        <ele>81</ele>
        <time>2021-04-15T15:41:37Z</time>
      </trkpt>
      <trkpt lat="43.5637" lon="3.70522">
        <ele>80</ele>
        <time>2021-04-15T15:41:37Z</time>
      </trkpt>
      <trkpt lat="43.56368" lon="3.70524">
        <ele>80.8</ele>
        <time>2021-04-15T15:41:39Z</time>
      </trkpt>
      <trkpt lat="43.56368" lon="3.70524">
        <ele>80</ele>
        <time>2021-04-15T15:41:39Z</time>
      </trkpt>
      <trkpt lat="43.56367" lon="3.70525">
        <ele>80.6</ele>
        <time>2021-04-15T15:41:40Z</time>
      </trkpt>
      <trkpt lat="43.56367" lon="3.70525">
        <ele>80</ele>
        <time>2021-04-15T15:41:40Z</time>
      </trkpt>
      <trkpt lat="43.56365" lon="3.70526">
        <ele>80.4</ele>
        <time>2021-04-15T15:41:42Z</time>
      </trkpt>
      <trkpt lat="43.56365" lon="3.70526">
        <ele>80</ele>
        <time>2021-04-15T15:41:42Z</time>
      </trkpt>
      <trkpt lat="43.56363" lon="3.70527">
        <ele>80.2</ele>
        <time>2021-04-15T15:41:44Z</time>
      </trkpt>
      <trkpt lat="43.56363" lon="3.70527">
        <ele>80</ele>
        <time>2021-04-15T15:41:44Z</time>
      </trkpt>
      <trkpt lat="43.56362" lon="3.70529">
        <ele>80.1</ele>
        <time>2021-04-15T15:41:46Z</time>
      </trkpt>
      <trkpt lat="43.56362" lon="3.70529">
        <ele>80</ele>
        <time>2021-04-15T15:41:46Z</time>
      </trkpt>
      <trkpt lat="43.56361" lon="3.7053">
        <ele>80</ele>
        <time>2021-04-15T15:41:47Z</time>
      </trkpt>
      <trkpt lat="43.56361" lon="3.7053">
        <ele>80</ele>
        <time>2021-04-15T15:41:47Z</time>
      </trkpt>
      <trkpt lat="43.5636" lon="3.70531">
        <ele>79.9</ele>
        <time>2021-04-15T15:41:49Z</time>
      </trkpt>
      <trkpt lat="43.5636" lon="3.70531">
        <ele>80</ele>
        <time>2021-04-15T15:41:49Z</time>
      </trkpt>
      <trkpt lat="43.56358" lon="3.70532">
        <ele>79.8</ele>
        <time>2021-04-15T15:41:51Z</time>
      </trkpt>
      <trkpt lat="43.56358" lon="3.70532">
        <ele>80</ele>
        <time>2021-04-15T15:41:51Z</time>
      </trkpt>
      <trkpt lat="43.56357" lon="3.70533">
        <ele>79.7</ele>
        <time>2021-04-15T15:41:53Z</time>
      </trkpt>
      <trkpt lat="43.56357" lon="3.70533">
        <ele>79</ele>
        <time>2021-04-15T15:41:53Z</time>
      </trkpt>
      <trkpt lat="43.56355" lon="3.70535">
        <ele>79.6</ele>
        <time>2021-04-15T15:41:55Z</time>
      </trkpt>
      <trkpt lat="43.56355" lon="3.70535">
        <ele>79</ele>
        <time>2021-04-15T15:41:55Z</time>
      </trkpt>
      <trkpt lat="43.56354" lon="3.70536">
        <ele>79.6</ele>
        <time>2021-04-15T15:41:56Z</time>
      </trkpt>
      <trkpt lat="43.56354" lon="3.70536">
        <ele>79</ele>
        <time>2021-04-15T15:41:56Z</time>
      </trkpt>
      <trkpt lat="43.56353" lon="3.70537">
        <ele>79.5</ele>
        <time>2021-04-15T15:41:57Z</time>
      </trkpt>
      <trkpt lat="43.56353" lon="3.70537">
        <ele>79</ele>
        <time>2021-04-15T15:41:57Z</time>
      </trkpt>
      <trkpt lat="43.56352" lon="3.7054">
        <ele>79.5</ele>
        <time>2021-04-15T15:41:59Z</time>
      </trkpt>
      <trkpt lat="43.56352" lon="3.7054">
        <ele>79</ele>
        <time>2021-04-15T15:41:59Z</time>
      </trkpt>
      <trkpt lat="43.5635" lon="3.70541">
        <ele>79.4</ele>
        <time>2021-04-15T15:42:00Z</time>
      </trkpt>
      <trkpt lat="43.5635" lon="3.70541">
        <ele>79</ele>
        <time>2021-04-15T15:42:00Z</time>
      </trkpt>
      <trkpt lat="43.56349" lon="3.70543">
        <ele>79.4</ele>
        <time>2021-04-15T15:42:02Z</time>
      </trkpt>
      <trkpt lat="43.56349" lon="3.70543">
        <ele>79</ele>
        <time>2021-04-15T15:42:02Z</time>
      </trkpt>
      <trkpt lat="43.56348" lon="3.70545">
        <ele>79.3</ele>
        <time>2021-04-15T15:42:03Z</time>
      </trkpt>
      <trkpt lat="43.56348" lon="3.70545">
        <ele>79</ele>
        <time>2021-04-15T15:42:03Z</time>
      </trkpt>
      <trkpt lat="43.56347" lon="3.70546">
        <ele>79.3</ele>
        <time>2021-04-15T15:42:05Z</time>
      </trkpt>
      <trkpt lat="43.56347" lon="3.70546">
        <ele>79</ele>
        <time>2021-04-15T15:42:05Z</time>
      </trkpt>
      <trkpt lat="43.56346" lon="3.70548">
        <ele>79.3</ele>
        <time>2021-04-15T15:42:07Z</time>
      </trkpt>
      <trkpt lat="43.56346" lon="3.70548">
        <ele>79</ele>
        <time>2021-04-15T15:42:07Z</time>
      </trkpt>
      <trkpt lat="43.56345" lon="3.70549">
        <ele>79.3</ele>
        <time>2021-04-15T15:42:08Z</time>
      </trkpt>
      <trkpt lat="43.56345" lon="3.70549">
        <ele>79</ele>
        <time>2021-04-15T15:42:08Z</time>
      </trkpt>
      <trkpt lat="43.56343" lon="3.70551">
        <ele>79.2</ele>
        <time>2021-04-15T15:42:10Z</time>
      </trkpt>
      <trkpt lat="43.56343" lon="3.70551">
        <ele>79</ele>
        <time>2021-04-15T15:42:10Z</time>
      </trkpt>
      <trkpt lat="43.56342" lon="3.70552">
        <ele>79.2</ele>
        <time>2021-04-15T15:42:11Z</time>
      </trkpt>
      <trkpt lat="43.56342" lon="3.70552">
        <ele>79</ele>
        <time>2021-04-15T15:42:11Z</time>
      </trkpt>
      <trkpt lat="43.5634" lon="3.70554">
        <ele>79.2</ele>
        <time>2021-04-15T15:42:13Z</time>
      </trkpt>
      <trkpt lat="43.5634" lon="3.70554">
        <ele>79</ele>
        <time>2021-04-15T15:42:13Z</time>
      </trkpt>
      <trkpt lat="43.56338" lon="3.70556">
        <ele>79.2</ele>
        <time>2021-04-15T15:42:15Z</time>
      </trkpt>
      <trkpt lat="43.56338" lon="3.70556">
        <ele>79</ele>
        <time>2021-04-15T15:42:15Z</time>
      </trkpt>
      <trkpt lat="43.56337" lon="3.70557">
        <ele>79.2</ele>
        <time>2021-04-15T15:42:17Z</time>
      </trkpt>
      <trkpt lat="43.56337" lon="3.70557">
        <ele>79</ele>
        <time>2021-04-15T15:42:17Z</time>
      </trkpt>
      <trkpt lat="43.56335" lon="3.70559">
        <ele>79.2</ele>
        <time>2021-04-15T15:42:19Z</time>
      </trkpt>
      <trkpt lat="43.56335" lon="3.70559">
        <ele>79</ele>
        <time>2021-04-15T15:42:19Z</time>
      </trkpt>
      <trkpt lat="43.56334" lon="3.70561">
        <ele>79.2</ele>
        <time>2021-04-15T15:42:20Z</time>
      </trkpt>
      <trkpt lat="43.56334" lon="3.70561">
        <ele>79</ele>
        <time>2021-04-15T15:42:20Z</time>
      </trkpt>
      <trkpt lat="43.56333" lon="3.70563">
        <ele>79.2</ele>
        <time>2021-04-15T15:42:22Z</time>
      </trkpt>
      <trkpt lat="43.56333" lon="3.70563">
        <ele>79</ele>
        <time>2021-04-15T15:42:22Z</time>
      </trkpt>
      <trkpt lat="43.56332" lon="3.70564">
        <ele>79.1</ele>
        <time>2021-04-15T15:42:23Z</time>
      </trkpt>
      <trkpt lat="43.56332" lon="3.70564">
        <ele>79</ele>
        <time>2021-04-15T15:42:23Z</time>
      </trkpt>
      <trkpt lat="43.56331" lon="3.70566">
        <ele>79</ele>
        <time>2021-04-15T15:42:24Z</time>
      </trkpt>
      <trkpt lat="43.56331" lon="3.70566">
        <ele>79</ele>
        <time>2021-04-15T15:42:24Z</time>
      </trkpt>
      <trkpt lat="43.56329" lon="3.70568">
        <ele>79</ele>
        <time>2021-04-15T15:42:25Z</time>
      </trkpt>
      <trkpt lat="43.56329" lon="3.70568">
        <ele>79</ele>
        <time>2021-04-15T15:42:25Z</time>
      </trkpt>
      <trkpt lat="43.56328" lon="3.70569">
        <ele>78.9</ele>
        <time>2021-04-15T15:42:27Z</time>
      </trkpt>
      <trkpt lat="43.56328" lon="3.70569">
        <ele>79</ele>
        <time>2021-04-15T15:42:27Z</time>
      </trkpt>
      <trkpt lat="43.56327" lon="3.70571">
        <ele>78.9</ele>
        <time>2021-04-15T15:42:29Z</time>
      </trkpt>
      <trkpt lat="43.56327" lon="3.70571">
        <ele>79</ele>
        <time>2021-04-15T15:42:29Z</time>
      </trkpt>
      <trkpt lat="43.56326" lon="3.70573">
        <ele>78.8</ele>
        <time>2021-04-15T15:42:30Z</time>
      </trkpt>
      <trkpt lat="43.56326" lon="3.70573">
        <ele>79</ele>
        <time>2021-04-15T15:42:30Z</time>
      </trkpt>
      <trkpt lat="43.56325" lon="3.70575">
        <ele>78.9</ele>
        <time>2021-04-15T15:42:32Z</time>
      </trkpt>
      <trkpt lat="43.56325" lon="3.70575">
        <ele>79</ele>
        <time>2021-04-15T15:42:32Z</time>
      </trkpt>
      <trkpt lat="43.56323" lon="3.70577">
        <ele>78.9</ele>
        <time>2021-04-15T15:42:34Z</time>
      </trkpt>
      <trkpt lat="43.56323" lon="3.70577">
        <ele>79</ele>
        <time>2021-04-15T15:42:34Z</time>
      </trkpt>
      <trkpt lat="43.56322" lon="3.7058">
        <ele>79</ele>
        <time>2021-04-15T15:42:36Z</time>
      </trkpt>
      <trkpt lat="43.56322" lon="3.7058">
        <ele>79</ele>
        <time>2021-04-15T15:42:36Z</time>
      </trkpt>
      <trkpt lat="43.56321" lon="3.70582">
        <ele>79</ele>
        <time>2021-04-15T15:42:37Z</time>
      </trkpt>
      <trkpt lat="43.56321" lon="3.70582">
        <ele>79</ele>
        <time>2021-04-15T15:42:37Z</time>
      </trkpt>
      <trkpt lat="43.5632" lon="3.70583">
        <ele>79</ele>
        <time>2021-04-15T15:42:38Z</time>
      </trkpt>
      <trkpt lat="43.5632" lon="3.70583">
        <ele>79</ele>
        <time>2021-04-15T15:42:38Z</time>
      </trkpt>
      <trkpt lat="43.56318" lon="3.70585">
        <ele>79</ele>
        <time>2021-04-15T15:42:40Z</time>
      </trkpt>
      <trkpt lat="43.56318" lon="3.70585">
        <ele>79</ele>
        <time>2021-04-15T15:42:40Z</time>
      </trkpt>
      <trkpt lat="43.56317" lon="3.70586">
        <ele>79.1</ele>
        <time>2021-04-15T15:42:41Z</time>
      </trkpt>
      <trkpt lat="43.56317" lon="3.70586">
        <ele>79</ele>
        <time>2021-04-15T15:42:41Z</time>
      </trkpt>
      <trkpt lat="43.56316" lon="3.70588">
        <ele>79.2</ele>
        <time>2021-04-15T15:42:43Z</time>
      </trkpt>
      <trkpt lat="43.56316" lon="3.70588">
        <ele>79</ele>
        <time>2021-04-15T15:42:43Z</time>
      </trkpt>
      <trkpt lat="43.56314" lon="3.7059">
        <ele>79.3</ele>
        <time>2021-04-15T15:42:45Z</time>
      </trkpt>
      <trkpt lat="43.56314" lon="3.7059">
        <ele>79</ele>
        <time>2021-04-15T15:42:45Z</time>
      </trkpt>
      <trkpt lat="43.56313" lon="3.70592">
        <ele>79.4</ele>
        <time>2021-04-15T15:42:47Z</time>
      </trkpt>
      <trkpt lat="43.56313" lon="3.70592">
        <ele>79</ele>
        <time>2021-04-15T15:42:47Z</time>
      </trkpt>
      <trkpt lat="43.56312" lon="3.70595">
        <ele>79.6</ele>
        <time>2021-04-15T15:42:48Z</time>
      </trkpt>
      <trkpt lat="43.56312" lon="3.70595">
        <ele>79</ele>
        <time>2021-04-15T15:42:48Z</time>
      </trkpt>
      <trkpt lat="43.56311" lon="3.70597">
        <ele>79.8</ele>
        <time>2021-04-15T15:42:50Z</time>
      </trkpt>
      <trkpt lat="43.56311" lon="3.70597">
        <ele>79</ele>
        <time>2021-04-15T15:42:50Z</time>
      </trkpt>
      <trkpt lat="43.5631" lon="3.70599">
        <ele>80</ele>
        <time>2021-04-15T15:42:51Z</time>
      </trkpt>
      <trkpt lat="43.5631" lon="3.70599">
        <ele>79</ele>
        <time>2021-04-15T15:42:51Z</time>
      </trkpt>
      <trkpt lat="43.56309" lon="3.70601">
        <ele>80.1</ele>
        <time>2021-04-15T15:42:52Z</time>
      </trkpt>
      <trkpt lat="43.56309" lon="3.70601">
        <ele>79</ele>
        <time>2021-04-15T15:42:52Z</time>
      </trkpt>
      <trkpt lat="43.56308" lon="3.70603">
        <ele>80.3</ele>
        <time>2021-04-15T15:42:54Z</time>
      </trkpt>
      <trkpt lat="43.56308" lon="3.70603">
        <ele>79</ele>
        <time>2021-04-15T15:42:54Z</time>
      </trkpt>
      <trkpt lat="43.56308" lon="3.70605">
        <ele>80.4</ele>
        <time>2021-04-15T15:42:56Z</time>
      </trkpt>
      <trkpt lat="43.56308" lon="3.70605">
        <ele>79</ele>
        <time>2021-04-15T15:42:56Z</time>
      </trkpt>
      <trkpt lat="43.56307" lon="3.70607">
        <ele>80.6</ele>
        <time>2021-04-15T15:42:58Z</time>
      </trkpt>
      <trkpt lat="43.56307" lon="3.70607">
        <ele>79</ele>
        <time>2021-04-15T15:42:58Z</time>
      </trkpt>
      <trkpt lat="43.56306" lon="3.70609">
        <ele>80.8</ele>
        <time>2021-04-15T15:42:59Z</time>
      </trkpt>
      <trkpt lat="43.56306" lon="3.70609">
        <ele>80</ele>
        <time>2021-04-15T15:42:59Z</time>
      </trkpt>
      <trkpt lat="43.56304" lon="3.70611">
        <ele>80.9</ele>
        <time>2021-04-15T15:43:01Z</time>
      </trkpt>
      <trkpt lat="43.56304" lon="3.70611">
        <ele>80</ele>
        <time>2021-04-15T15:43:01Z</time>
      </trkpt>
      <trkpt lat="43.56303" lon="3.70614">
        <ele>80.8</ele>
        <time>2021-04-15T15:43:03Z</time>
      </trkpt>
      <trkpt lat="43.56303" lon="3.70614">
        <ele>80</ele>
        <time>2021-04-15T15:43:03Z</time>
      </trkpt>
      <trkpt lat="43.56301" lon="3.70617">
        <ele>80.7</ele>
        <time>2021-04-15T15:43:05Z</time>
      </trkpt>
      <trkpt lat="43.56301" lon="3.70617">
        <ele>80</ele>
        <time>2021-04-15T15:43:05Z</time>
      </trkpt>
      <trkpt lat="43.563" lon="3.70619">
        <ele>80.6</ele>
        <time>2021-04-15T15:43:06Z</time>
      </trkpt>
      <trkpt lat="43.563" lon="3.70619">
        <ele>80</ele>
        <time>2021-04-15T15:43:06Z</time>
      </trkpt>
      <trkpt lat="43.56299" lon="3.70621">
        <ele>80.5</ele>
        <time>2021-04-15T15:43:07Z</time>
      </trkpt>
      <trkpt lat="43.56299" lon="3.70621">
        <ele>80</ele>
        <time>2021-04-15T15:43:07Z</time>
      </trkpt>
      <trkpt lat="43.56297" lon="3.70623">
        <ele>80.4</ele>
        <time>2021-04-15T15:43:09Z</time>
      </trkpt>
      <trkpt lat="43.56297" lon="3.70623">
        <ele>80</ele>
        <time>2021-04-15T15:43:09Z</time>
      </trkpt>
      <trkpt lat="43.56296" lon="3.70625">
        <ele>80.3</ele>
        <time>2021-04-15T15:43:11Z</time>
      </trkpt>
      <trkpt lat="43.56296" lon="3.70625">
        <ele>80</ele>
        <time>2021-04-15T15:43:11Z</time>
      </trkpt>
      <trkpt lat="43.56294" lon="3.70627">
        <ele>80.2</ele>
        <time>2021-04-15T15:43:13Z</time>
      </trkpt>
      <trkpt lat="43.56294" lon="3.70627">
        <ele>80</ele>
        <time>2021-04-15T15:43:13Z</time>
      </trkpt>
      <trkpt lat="43.56293" lon="3.7063">
        <ele>80.1</ele>
        <time>2021-04-15T15:43:15Z</time>
      </trkpt>
      <trkpt lat="43.56293" lon="3.7063">
        <ele>80</ele>
        <time>2021-04-15T15:43:15Z</time>
      </trkpt>
      <trkpt lat="43.56291" lon="3.70632">
        <ele>80</ele>
        <time>2021-04-15T15:43:16Z</time>
      </trkpt>
      <trkpt lat="43.56291" lon="3.70632">
        <ele>80</ele>
        <time>2021-04-15T15:43:16Z</time>
      </trkpt>
      <trkpt lat="43.5629" lon="3.70633">
        <ele>79.9</ele>
        <time>2021-04-15T15:43:17Z</time>
      </trkpt>
      <trkpt lat="43.5629" lon="3.70633">
        <ele>80</ele>
        <time>2021-04-15T15:43:17Z</time>
      </trkpt>
      <trkpt lat="43.5629" lon="3.70635">
        <ele>79.8</ele>
        <time>2021-04-15T15:43:18Z</time>
      </trkpt>
      <trkpt lat="43.5629" lon="3.70635">
        <ele>80</ele>
        <time>2021-04-15T15:43:18Z</time>
      </trkpt>
      <trkpt lat="43.56289" lon="3.70637">
        <ele>79.8</ele>
        <time>2021-04-15T15:43:20Z</time>
      </trkpt>
      <trkpt lat="43.56289" lon="3.70637">
        <ele>80</ele>
        <time>2021-04-15T15:43:20Z</time>
      </trkpt>
      <trkpt lat="43.56288" lon="3.70639">
        <ele>79.7</ele>
        <time>2021-04-15T15:43:22Z</time>
      </trkpt>
      <trkpt lat="43.56288" lon="3.70639">
        <ele>80</ele>
        <time>2021-04-15T15:43:22Z</time>
      </trkpt>
      <trkpt lat="43.56287" lon="3.70641">
        <ele>79.7</ele>
        <time>2021-04-15T15:43:24Z</time>
      </trkpt>
      <trkpt lat="43.56287" lon="3.70641">
        <ele>80</ele>
        <time>2021-04-15T15:43:24Z</time>
      </trkpt>
      <trkpt lat="43.56286" lon="3.70643">
        <ele>79.6</ele>
        <time>2021-04-15T15:43:26Z</time>
      </trkpt>
      <trkpt lat="43.56286" lon="3.70643">
        <ele>80</ele>
        <time>2021-04-15T15:43:26Z</time>
      </trkpt>
      <trkpt lat="43.56284" lon="3.70646">
        <ele>79.5</ele>
        <time>2021-04-15T15:43:28Z</time>
      </trkpt>
      <trkpt lat="43.56284" lon="3.70646">
        <ele>80</ele>
        <time>2021-04-15T15:43:28Z</time>
      </trkpt>
      <trkpt lat="43.56283" lon="3.70648">
        <ele>79.4</ele>
        <time>2021-04-15T15:43:30Z</time>
      </trkpt>
      <trkpt lat="43.56283" lon="3.70648">
        <ele>80</ele>
        <time>2021-04-15T15:43:30Z</time>
      </trkpt>
      <trkpt lat="43.56281" lon="3.7065">
        <ele>79.3</ele>
        <time>2021-04-15T15:43:32Z</time>
      </trkpt>
      <trkpt lat="43.56281" lon="3.7065">
        <ele>80</ele>
        <time>2021-04-15T15:43:32Z</time>
      </trkpt>
      <trkpt lat="43.5628" lon="3.70652">
        <ele>79.2</ele>
        <time>2021-04-15T15:43:34Z</time>
      </trkpt>
      <trkpt lat="43.5628" lon="3.70652">
        <ele>80</ele>
        <time>2021-04-15T15:43:34Z</time>
      </trkpt>
      <trkpt lat="43.56278" lon="3.70655">
        <ele>79</ele>
        <time>2021-04-15T15:43:36Z</time>
      </trkpt>
      <trkpt lat="43.56278" lon="3.70655">
        <ele>80</ele>
        <time>2021-04-15T15:43:36Z</time>
      </trkpt>
      <trkpt lat="43.56277" lon="3.70657">
        <ele>79</ele>
        <time>2021-04-15T15:43:37Z</time>
      </trkpt>
      <trkpt lat="43.56277" lon="3.70657">
        <ele>80</ele>
        <time>2021-04-15T15:43:37Z</time>
      </trkpt>
      <trkpt lat="43.56276" lon="3.70659">
        <ele>79</ele>
        <time>2021-04-15T15:43:38Z</time>
      </trkpt>
      <trkpt lat="43.56276" lon="3.70659">
        <ele>80</ele>
        <time>2021-04-15T15:43:38Z</time>
      </trkpt>
      <trkpt lat="43.56274" lon="3.70661">
        <ele>79</ele>
        <time>2021-04-15T15:43:40Z</time>
      </trkpt>
      <trkpt lat="43.56274" lon="3.70661">
        <ele>80</ele>
        <time>2021-04-15T15:43:40Z</time>
      </trkpt>
      <trkpt lat="43.56273" lon="3.70663">
        <ele>79</ele>
        <time>2021-04-15T15:43:41Z</time>
      </trkpt>
      <trkpt lat="43.56273" lon="3.70663">
        <ele>80</ele>
        <time>2021-04-15T15:43:41Z</time>
      </trkpt>
      <trkpt lat="43.56272" lon="3.70664">
        <ele>79</ele>
        <time>2021-04-15T15:43:42Z</time>
      </trkpt>
      <trkpt lat="43.56272" lon="3.70664">
        <ele>80</ele>
        <time>2021-04-15T15:43:42Z</time>
      </trkpt>
      <trkpt lat="43.5627" lon="3.70666">
        <ele>79</ele>
        <time>2021-04-15T15:43:44Z</time>
      </trkpt>
      <trkpt lat="43.5627" lon="3.70666">
        <ele>80</ele>
        <time>2021-04-15T15:43:44Z</time>
      </trkpt>
      <trkpt lat="43.56269" lon="3.70668">
        <ele>79</ele>
        <time>2021-04-15T15:43:45Z</time>
      </trkpt>
      <trkpt lat="43.56269" lon="3.70668">
        <ele>80</ele>
        <time>2021-04-15T15:43:45Z</time>
      </trkpt>
      <trkpt lat="43.56268" lon="3.7067">
        <ele>79</ele>
        <time>2021-04-15T15:43:47Z</time>
      </trkpt>
      <trkpt lat="43.56268" lon="3.7067">
        <ele>80</ele>
        <time>2021-04-15T15:43:47Z</time>
      </trkpt>
      <trkpt lat="43.56267" lon="3.70672">
        <ele>78.9</ele>
        <time>2021-04-15T15:43:49Z</time>
      </trkpt>
      <trkpt lat="43.56267" lon="3.70672">
        <ele>79</ele>
        <time>2021-04-15T15:43:49Z</time>
      </trkpt>
      <trkpt lat="43.56267" lon="3.70674">
        <ele>78.9</ele>
        <time>2021-04-15T15:43:51Z</time>
      </trkpt>
      <trkpt lat="43.56267" lon="3.70674">
        <ele>79</ele>
        <time>2021-04-15T15:43:51Z</time>
      </trkpt>
      <trkpt lat="43.56265" lon="3.70677">
        <ele>78.8</ele>
        <time>2021-04-15T15:43:53Z</time>
      </trkpt>
      <trkpt lat="43.56265" lon="3.70677">
        <ele>79</ele>
        <time>2021-04-15T15:43:53Z</time>
      </trkpt>
      <trkpt lat="43.56265" lon="3.70678">
        <ele>78.8</ele>
        <time>2021-04-15T15:43:54Z</time>
      </trkpt>
      <trkpt lat="43.56265" lon="3.70678">
        <ele>79</ele>
        <time>2021-04-15T15:43:54Z</time>
      </trkpt>
      <trkpt lat="43.56264" lon="3.7068">
        <ele>78.8</ele>
        <time>2021-04-15T15:43:55Z</time>
      </trkpt>
      <trkpt lat="43.56264" lon="3.7068">
        <ele>79</ele>
        <time>2021-04-15T15:43:55Z</time>
      </trkpt>
      <trkpt lat="43.56264" lon="3.70681">
        <ele>78.7</ele>
        <time>2021-04-15T15:43:57Z</time>
      </trkpt>
      <trkpt lat="43.56264" lon="3.70681">
        <ele>79</ele>
        <time>2021-04-15T15:43:57Z</time>
      </trkpt>
      <trkpt lat="43.56262" lon="3.70682">
        <ele>78.7</ele>
        <time>2021-04-15T15:43:59Z</time>
      </trkpt>
      <trkpt lat="43.56262" lon="3.70682">
        <ele>79</ele>
        <time>2021-04-15T15:43:59Z</time>
      </trkpt>
      <trkpt lat="43.56262" lon="3.70684">
        <ele>78.6</ele>
        <time>2021-04-15T15:44:00Z</time>
      </trkpt>
      <trkpt lat="43.56262" lon="3.70684">
        <ele>79</ele>
        <time>2021-04-15T15:44:00Z</time>
      </trkpt>
      <trkpt lat="43.56261" lon="3.70685">
        <ele>78.6</ele>
        <time>2021-04-15T15:44:01Z</time>
      </trkpt>
      <trkpt lat="43.56261" lon="3.70685">
        <ele>79</ele>
        <time>2021-04-15T15:44:01Z</time>
      </trkpt>
      <trkpt lat="43.5626" lon="3.70687">
        <ele>78.5</ele>
        <time>2021-04-15T15:44:03Z</time>
      </trkpt>
      <trkpt lat="43.5626" lon="3.70687">
        <ele>79</ele>
        <time>2021-04-15T15:44:03Z</time>
      </trkpt>
      <trkpt lat="43.56258" lon="3.7069">
        <ele>78.4</ele>
        <time>2021-04-15T15:44:05Z</time>
      </trkpt>
      <trkpt lat="43.56258" lon="3.7069">
        <ele>79</ele>
        <time>2021-04-15T15:44:05Z</time>
      </trkpt>
      <trkpt lat="43.56257" lon="3.70692">
        <ele>78.3</ele>
        <time>2021-04-15T15:44:06Z</time>
      </trkpt>
      <trkpt lat="43.56257" lon="3.70692">
        <ele>79</ele>
        <time>2021-04-15T15:44:06Z</time>
      </trkpt>
      <trkpt lat="43.56256" lon="3.70694">
        <ele>78.2</ele>
        <time>2021-04-15T15:44:08Z</time>
      </trkpt>
      <trkpt lat="43.56256" lon="3.70694">
        <ele>79</ele>
        <time>2021-04-15T15:44:08Z</time>
      </trkpt>
      <trkpt lat="43.56254" lon="3.70696">
        <ele>78.2</ele>
        <time>2021-04-15T15:44:10Z</time>
      </trkpt>
      <trkpt lat="43.56254" lon="3.70696">
        <ele>79</ele>
        <time>2021-04-15T15:44:10Z</time>
      </trkpt>
      <trkpt lat="43.56253" lon="3.70698">
        <ele>78.1</ele>
        <time>2021-04-15T15:44:12Z</time>
      </trkpt>
      <trkpt lat="43.56253" lon="3.70698">
        <ele>79</ele>
        <time>2021-04-15T15:44:12Z</time>
      </trkpt>
      <trkpt lat="43.56252" lon="3.70701">
        <ele>78.1</ele>
        <time>2021-04-15T15:44:14Z</time>
      </trkpt>
      <trkpt lat="43.56252" lon="3.70701">
        <ele>79</ele>
        <time>2021-04-15T15:44:14Z</time>
      </trkpt>
      <trkpt lat="43.5625" lon="3.70703">
        <ele>78</ele>
        <time>2021-04-15T15:44:16Z</time>
      </trkpt>
      <trkpt lat="43.5625" lon="3.70703">
        <ele>79</ele>
        <time>2021-04-15T15:44:16Z</time>
      </trkpt>
      <trkpt lat="43.5625" lon="3.70705">
        <ele>78</ele>
        <time>2021-04-15T15:44:17Z</time>
      </trkpt>
      <trkpt lat="43.5625" lon="3.70705">
        <ele>79</ele>
        <time>2021-04-15T15:44:17Z</time>
      </trkpt>
      <trkpt lat="43.56249" lon="3.70707">
        <ele>78</ele>
        <time>2021-04-15T15:44:18Z</time>
      </trkpt>
      <trkpt lat="43.56249" lon="3.70707">
        <ele>79</ele>
        <time>2021-04-15T15:44:18Z</time>
      </trkpt>
      <trkpt lat="43.56248" lon="3.70708">
        <ele>78</ele>
        <time>2021-04-15T15:44:20Z</time>
      </trkpt>
      <trkpt lat="43.56248" lon="3.70708">
        <ele>79</ele>
        <time>2021-04-15T15:44:20Z</time>
      </trkpt>
      <trkpt lat="43.56247" lon="3.70711">
        <ele>77.9</ele>
        <time>2021-04-15T15:44:22Z</time>
      </trkpt>
      <trkpt lat="43.56247" lon="3.70711">
        <ele>79</ele>
        <time>2021-04-15T15:44:22Z</time>
      </trkpt>
      <trkpt lat="43.56246" lon="3.70713">
        <ele>77.9</ele>
        <time>2021-04-15T15:44:23Z</time>
      </trkpt>
      <trkpt lat="43.56246" lon="3.70713">
        <ele>79</ele>
        <time>2021-04-15T15:44:23Z</time>
      </trkpt>
      <trkpt lat="43.56245" lon="3.70714">
        <ele>77.9</ele>
        <time>2021-04-15T15:44:24Z</time>
      </trkpt>
      <trkpt lat="43.56245" lon="3.70714">
        <ele>79</ele>
        <time>2021-04-15T15:44:24Z</time>
      </trkpt>
      <trkpt lat="43.56244" lon="3.70716">
        <ele>77.9</ele>
        <time>2021-04-15T15:44:25Z</time>
      </trkpt>
      <trkpt lat="43.56244" lon="3.70716">
        <ele>79</ele>
        <time>2021-04-15T15:44:25Z</time>
      </trkpt>
      <trkpt lat="43.56243" lon="3.70718">
        <ele>78</ele>
        <time>2021-04-15T15:44:26Z</time>
      </trkpt>
      <trkpt lat="43.56243" lon="3.70718">
        <ele>79</ele>
        <time>2021-04-15T15:44:26Z</time>
      </trkpt>
      <trkpt lat="43.56241" lon="3.70719">
        <ele>78</ele>
        <time>2021-04-15T15:44:28Z</time>
      </trkpt>
      <trkpt lat="43.56241" lon="3.70719">
        <ele>79</ele>
        <time>2021-04-15T15:44:28Z</time>
      </trkpt>
      <trkpt lat="43.5624" lon="3.7072">
        <ele>78</ele>
        <time>2021-04-15T15:44:29Z</time>
      </trkpt>
      <trkpt lat="43.5624" lon="3.7072">
        <ele>79</ele>
        <time>2021-04-15T15:44:29Z</time>
      </trkpt>
      <trkpt lat="43.56239" lon="3.70722">
        <ele>78</ele>
        <time>2021-04-15T15:44:31Z</time>
      </trkpt>
      <trkpt lat="43.56239" lon="3.70722">
        <ele>78</ele>
        <time>2021-04-15T15:44:31Z</time>
      </trkpt>
      <trkpt lat="43.56238" lon="3.70724">
        <ele>78</ele>
        <time>2021-04-15T15:44:33Z</time>
      </trkpt>
      <trkpt lat="43.56238" lon="3.70724">
        <ele>78</ele>
        <time>2021-04-15T15:44:33Z</time>
      </trkpt>
      <trkpt lat="43.56237" lon="3.70726">
        <ele>77.9</ele>
        <time>2021-04-15T15:44:35Z</time>
      </trkpt>
      <trkpt lat="43.56237" lon="3.70726">
        <ele>78</ele>
        <time>2021-04-15T15:44:35Z</time>
      </trkpt>
      <trkpt lat="43.56236" lon="3.70727">
        <ele>77.9</ele>
        <time>2021-04-15T15:44:37Z</time>
      </trkpt>
      <trkpt lat="43.56236" lon="3.70727">
        <ele>78</ele>
        <time>2021-04-15T15:44:37Z</time>
      </trkpt>
      <trkpt lat="43.56235" lon="3.70729">
        <ele>77.9</ele>
        <time>2021-04-15T15:44:39Z</time>
      </trkpt>
      <trkpt lat="43.56235" lon="3.70729">
        <ele>78</ele>
        <time>2021-04-15T15:44:39Z</time>
      </trkpt>
      <trkpt lat="43.56234" lon="3.70731">
        <ele>77.8</ele>
        <time>2021-04-15T15:44:41Z</time>
      </trkpt>
      <trkpt lat="43.56234" lon="3.70731">
        <ele>78</ele>
        <time>2021-04-15T15:44:41Z</time>
      </trkpt>
      <trkpt lat="43.56233" lon="3.70733">
        <ele>77.8</ele>
        <time>2021-04-15T15:44:43Z</time>
      </trkpt>
      <trkpt lat="43.56233" lon="3.70733">
        <ele>78</ele>
        <time>2021-04-15T15:44:43Z</time>
      </trkpt>
      <trkpt lat="43.56232" lon="3.70735">
        <ele>77.7</ele>
        <time>2021-04-15T15:44:45Z</time>
      </trkpt>
      <trkpt lat="43.56232" lon="3.70735">
        <ele>78</ele>
        <time>2021-04-15T15:44:45Z</time>
      </trkpt>
      <trkpt lat="43.56231" lon="3.70736">
        <ele>77.7</ele>
        <time>2021-04-15T15:44:46Z</time>
      </trkpt>
      <trkpt lat="43.56231" lon="3.70736">
        <ele>78</ele>
        <time>2021-04-15T15:44:46Z</time>
      </trkpt>
      <trkpt lat="43.56231" lon="3.70737">
        <ele>77.6</ele>
        <time>2021-04-15T15:44:48Z</time>
      </trkpt>
      <trkpt lat="43.56231" lon="3.70737">
        <ele>78</ele>
        <time>2021-04-15T15:44:48Z</time>
      </trkpt>
      <trkpt lat="43.5623" lon="3.70739">
        <ele>77.6</ele>
        <time>2021-04-15T15:44:50Z</time>
      </trkpt>
      <trkpt lat="43.5623" lon="3.70739">
        <ele>77</ele>
        <time>2021-04-15T15:44:50Z</time>
      </trkpt>
      <trkpt lat="43.5623" lon="3.70741">
        <ele>77.5</ele>
        <time>2021-04-15T15:44:51Z</time>
      </trkpt>
      <trkpt lat="43.5623" lon="3.70741">
        <ele>77</ele>
        <time>2021-04-15T15:44:51Z</time>
      </trkpt>
      <trkpt lat="43.56229" lon="3.70743">
        <ele>77.4</ele>
        <time>2021-04-15T15:44:53Z</time>
      </trkpt>
      <trkpt lat="43.56229" lon="3.70743">
        <ele>77</ele>
        <time>2021-04-15T15:44:53Z</time>
      </trkpt>
      <trkpt lat="43.56229" lon="3.70745">
        <ele>77.4</ele>
        <time>2021-04-15T15:44:54Z</time>
      </trkpt>
      <trkpt lat="43.56229" lon="3.70745">
        <ele>77</ele>
        <time>2021-04-15T15:44:54Z</time>
      </trkpt>
      <trkpt lat="43.56228" lon="3.70747">
        <ele>77.3</ele>
        <time>2021-04-15T15:44:56Z</time>
      </trkpt>
      <trkpt lat="43.56228" lon="3.70747">
        <ele>77</ele>
        <time>2021-04-15T15:44:56Z</time>
      </trkpt>
      <trkpt lat="43.56227" lon="3.7075">
        <ele>77.2</ele>
        <time>2021-04-15T15:44:57Z</time>
      </trkpt>
      <trkpt lat="43.56227" lon="3.7075">
        <ele>77</ele>
        <time>2021-04-15T15:44:57Z</time>
      </trkpt>
      <trkpt lat="43.56227" lon="3.70752">
        <ele>77.2</ele>
        <time>2021-04-15T15:44:59Z</time>
      </trkpt>
      <trkpt lat="43.56227" lon="3.70752">
        <ele>77</ele>
        <time>2021-04-15T15:44:59Z</time>
      </trkpt>
      <trkpt lat="43.56226" lon="3.70754">
        <ele>77.1</ele>
        <time>2021-04-15T15:45:00Z</time>
      </trkpt>
      <trkpt lat="43.56226" lon="3.70754">
        <ele>77</ele>
        <time>2021-04-15T15:45:00Z</time>
      </trkpt>
      <trkpt lat="43.56226" lon="3.70757">
        <ele>77.1</ele>
        <time>2021-04-15T15:45:01Z</time>
      </trkpt>
      <trkpt lat="43.56226" lon="3.70757">
        <ele>77</ele>
        <time>2021-04-15T15:45:01Z</time>
      </trkpt>
      <trkpt lat="43.56225" lon="3.7076">
        <ele>77.1</ele>
        <time>2021-04-15T15:45:03Z</time>
      </trkpt>
      <trkpt lat="43.56225" lon="3.7076">
        <ele>77</ele>
        <time>2021-04-15T15:45:03Z</time>
      </trkpt>
      <trkpt lat="43.56225" lon="3.70764">
        <ele>77.1</ele>
        <time>2021-04-15T15:45:05Z</time>
      </trkpt>
      <trkpt lat="43.56225" lon="3.70764">
        <ele>77</ele>
        <time>2021-04-15T15:45:05Z</time>
      </trkpt>
      <trkpt lat="43.56225" lon="3.70768">
        <ele>77.1</ele>
        <time>2021-04-15T15:45:07Z</time>
      </trkpt>
      <trkpt lat="43.56225" lon="3.70768">
        <ele>77</ele>
        <time>2021-04-15T15:45:07Z</time>
      </trkpt>
      <trkpt lat="43.56224" lon="3.70771">
        <ele>77.1</ele>
        <time>2021-04-15T15:45:08Z</time>
      </trkpt>
      <trkpt lat="43.56224" lon="3.70771">
        <ele>77</ele>
        <time>2021-04-15T15:45:08Z</time>
      </trkpt>
      <trkpt lat="43.56224" lon="3.70774">
        <ele>77.1</ele>
        <time>2021-04-15T15:45:10Z</time>
      </trkpt>
      <trkpt lat="43.56224" lon="3.70774">
        <ele>77</ele>
        <time>2021-04-15T15:45:10Z</time>
      </trkpt>
      <trkpt lat="43.56224" lon="3.70777">
        <ele>77.1</ele>
        <time>2021-04-15T15:45:11Z</time>
      </trkpt>
      <trkpt lat="43.56224" lon="3.70777">
        <ele>77</ele>
        <time>2021-04-15T15:45:11Z</time>
      </trkpt>
      <trkpt lat="43.56224" lon="3.7078">
        <ele>77</ele>
        <time>2021-04-15T15:45:13Z</time>
      </trkpt>
      <trkpt lat="43.56224" lon="3.7078">
        <ele>77</ele>
        <time>2021-04-15T15:45:13Z</time>
      </trkpt>
      <trkpt lat="43.56223" lon="3.70782">
        <ele>77</ele>
        <time>2021-04-15T15:45:14Z</time>
      </trkpt>
      <trkpt lat="43.56223" lon="3.70782">
        <ele>77</ele>
        <time>2021-04-15T15:45:14Z</time>
      </trkpt>
      <trkpt lat="43.56222" lon="3.70784">
        <ele>77</ele>
        <time>2021-04-15T15:45:15Z</time>
      </trkpt>
      <trkpt lat="43.56222" lon="3.70784">
        <ele>77</ele>
        <time>2021-04-15T15:45:15Z</time>
      </trkpt>
      <trkpt lat="43.56222" lon="3.70786">
        <ele>77</ele>
        <time>2021-04-15T15:45:16Z</time>
      </trkpt>
      <trkpt lat="43.56222" lon="3.70786">
        <ele>77</ele>
        <time>2021-04-15T15:45:16Z</time>
      </trkpt>
      <trkpt lat="43.56221" lon="3.70788">
        <ele>77</ele>
        <time>2021-04-15T15:45:18Z</time>
      </trkpt>
      <trkpt lat="43.56221" lon="3.70788">
        <ele>77</ele>
        <time>2021-04-15T15:45:18Z</time>
      </trkpt>
      <trkpt lat="43.56221" lon="3.7079">
        <ele>77</ele>
        <time>2021-04-15T15:45:20Z</time>
      </trkpt>
      <trkpt lat="43.56221" lon="3.7079">
        <ele>77</ele>
        <time>2021-04-15T15:45:20Z</time>
      </trkpt>
      <trkpt lat="43.5622" lon="3.70794">
        <ele>77</ele>
        <time>2021-04-15T15:45:22Z</time>
      </trkpt>
      <trkpt lat="43.5622" lon="3.70794">
        <ele>77</ele>
        <time>2021-04-15T15:45:22Z</time>
      </trkpt>
      <trkpt lat="43.5622" lon="3.70796">
        <ele>77</ele>
        <time>2021-04-15T15:45:23Z</time>
      </trkpt>
      <trkpt lat="43.5622" lon="3.70796">
        <ele>77</ele>
        <time>2021-04-15T15:45:23Z</time>
      </trkpt>
      <trkpt lat="43.56219" lon="3.70799">
        <ele>77</ele>
        <time>2021-04-15T15:45:25Z</time>
      </trkpt>
      <trkpt lat="43.56219" lon="3.70799">
        <ele>77</ele>
        <time>2021-04-15T15:45:25Z</time>
      </trkpt>
      <trkpt lat="43.56218" lon="3.70801">
        <ele>77</ele>
        <time>2021-04-15T15:45:26Z</time>
      </trkpt>
      <trkpt lat="43.56218" lon="3.70801">
        <ele>77</ele>
        <time>2021-04-15T15:45:26Z</time>
      </trkpt>
      <trkpt lat="43.56218" lon="3.70804">
        <ele>77</ele>
        <time>2021-04-15T15:45:27Z</time>
      </trkpt>
      <trkpt lat="43.56218" lon="3.70804">
        <ele>77</ele>
        <time>2021-04-15T15:45:27Z</time>
      </trkpt>
      <trkpt lat="43.56217" lon="3.70806">
        <ele>77</ele>
        <time>2021-04-15T15:45:29Z</time>
      </trkpt>
      <trkpt lat="43.56217" lon="3.70806">
        <ele>76</ele>
        <time>2021-04-15T15:45:29Z</time>
      </trkpt>
      <trkpt lat="43.56215" lon="3.70809">
        <ele>76.9</ele>
        <time>2021-04-15T15:45:31Z</time>
      </trkpt>
      <trkpt lat="43.56215" lon="3.70809">
        <ele>76</ele>
        <time>2021-04-15T15:45:31Z</time>
      </trkpt>
      <trkpt lat="43.56214" lon="3.70811">
        <ele>76.8</ele>
        <time>2021-04-15T15:45:32Z</time>
      </trkpt>
      <trkpt lat="43.56214" lon="3.70811">
        <ele>76</ele>
        <time>2021-04-15T15:45:32Z</time>
      </trkpt>
      <trkpt lat="43.56213" lon="3.70813">
        <ele>76.7</ele>
        <time>2021-04-15T15:45:34Z</time>
      </trkpt>
      <trkpt lat="43.56213" lon="3.70813">
        <ele>76</ele>
        <time>2021-04-15T15:45:34Z</time>
      </trkpt>
      <trkpt lat="43.56212" lon="3.70815">
        <ele>76.6</ele>
        <time>2021-04-15T15:45:36Z</time>
      </trkpt>
      <trkpt lat="43.56212" lon="3.70815">
        <ele>76</ele>
        <time>2021-04-15T15:45:36Z</time>
      </trkpt>
      <trkpt lat="43.56212" lon="3.70817">
        <ele>76.6</ele>
        <time>2021-04-15T15:45:37Z</time>
      </trkpt>
      <trkpt lat="43.56212" lon="3.70817">
        <ele>76</ele>
        <time>2021-04-15T15:45:37Z</time>
      </trkpt>
      <trkpt lat="43.56211" lon="3.7082">
        <ele>76.5</ele>
        <time>2021-04-15T15:45:39Z</time>
      </trkpt>
      <trkpt lat="43.56211" lon="3.7082">
        <ele>76</ele>
        <time>2021-04-15T15:45:39Z</time>
      </trkpt>
      <trkpt lat="43.5621" lon="3.70823">
        <ele>76.4</ele>
        <time>2021-04-15T15:45:41Z</time>
      </trkpt>
      <trkpt lat="43.5621" lon="3.70823">
        <ele>76</ele>
        <time>2021-04-15T15:45:41Z</time>
      </trkpt>
      <trkpt lat="43.5621" lon="3.70826">
        <ele>76.3</ele>
        <time>2021-04-15T15:45:43Z</time>
      </trkpt>
      <trkpt lat="43.5621" lon="3.70826">
        <ele>76</ele>
        <time>2021-04-15T15:45:43Z</time>
      </trkpt>
      <trkpt lat="43.56209" lon="3.70828">
        <ele>76.2</ele>
        <time>2021-04-15T15:45:44Z</time>
      </trkpt>
      <trkpt lat="43.56209" lon="3.70828">
        <ele>76</ele>
        <time>2021-04-15T15:45:44Z</time>
      </trkpt>
      <trkpt lat="43.56208" lon="3.70829">
        <ele>76.2</ele>
        <time>2021-04-15T15:45:46Z</time>
      </trkpt>
      <trkpt lat="43.56208" lon="3.70829">
        <ele>76</ele>
        <time>2021-04-15T15:45:46Z</time>
      </trkpt>
      <trkpt lat="43.56207" lon="3.7083">
        <ele>76.1</ele>
        <time>2021-04-15T15:45:48Z</time>
      </trkpt>
      <trkpt lat="43.56207" lon="3.7083">
        <ele>76</ele>
        <time>2021-04-15T15:45:48Z</time>
      </trkpt>
      <trkpt lat="43.56206" lon="3.70832">
        <ele>76.1</ele>
        <time>2021-04-15T15:45:50Z</time>
      </trkpt>
      <trkpt lat="43.56206" lon="3.70832">
        <ele>76</ele>
        <time>2021-04-15T15:45:50Z</time>
      </trkpt>
      <trkpt lat="43.56205" lon="3.70833">
        <ele>76</ele>
        <time>2021-04-15T15:45:51Z</time>
      </trkpt>
      <trkpt lat="43.56205" lon="3.70833">
        <ele>76</ele>
        <time>2021-04-15T15:45:51Z</time>
      </trkpt>
      <trkpt lat="43.56204" lon="3.70834">
        <ele>76</ele>
        <time>2021-04-15T15:45:53Z</time>
      </trkpt>
      <trkpt lat="43.56204" lon="3.70834">
        <ele>76</ele>
        <time>2021-04-15T15:45:53Z</time>
      </trkpt>
      <trkpt lat="43.56202" lon="3.70835">
        <ele>76</ele>
        <time>2021-04-15T15:45:54Z</time>
      </trkpt>
      <trkpt lat="43.56202" lon="3.70835">
        <ele>76</ele>
        <time>2021-04-15T15:45:54Z</time>
      </trkpt>
      <trkpt lat="43.562" lon="3.70836">
        <ele>76</ele>
        <time>2021-04-15T15:45:56Z</time>
      </trkpt>
      <trkpt lat="43.562" lon="3.70836">
        <ele>76</ele>
        <time>2021-04-15T15:45:56Z</time>
      </trkpt>
      <trkpt lat="43.56199" lon="3.70837">
        <ele>76</ele>
        <time>2021-04-15T15:45:57Z</time>
      </trkpt>
      <trkpt lat="43.56199" lon="3.70837">
        <ele>76</ele>
        <time>2021-04-15T15:45:57Z</time>
      </trkpt>
      <trkpt lat="43.56197" lon="3.70839">
        <ele>76</ele>
        <time>2021-04-15T15:45:59Z</time>
      </trkpt>
      <trkpt lat="43.56197" lon="3.70839">
        <ele>76</ele>
        <time>2021-04-15T15:45:59Z</time>
      </trkpt>
      <trkpt lat="43.56196" lon="3.7084">
        <ele>76</ele>
        <time>2021-04-15T15:46:00Z</time>
      </trkpt>
      <trkpt lat="43.56196" lon="3.7084">
        <ele>76</ele>
        <time>2021-04-15T15:46:00Z</time>
      </trkpt>
      <trkpt lat="43.56194" lon="3.70842">
        <ele>75.9</ele>
        <time>2021-04-15T15:46:02Z</time>
      </trkpt>
      <trkpt lat="43.56194" lon="3.70842">
        <ele>76</ele>
        <time>2021-04-15T15:46:02Z</time>
      </trkpt>
      <trkpt lat="43.56192" lon="3.70843">
        <ele>75.9</ele>
        <time>2021-04-15T15:46:04Z</time>
      </trkpt>
      <trkpt lat="43.56192" lon="3.70843">
        <ele>76</ele>
        <time>2021-04-15T15:46:04Z</time>
      </trkpt>
      <trkpt lat="43.56191" lon="3.70844">
        <ele>75.8</ele>
        <time>2021-04-15T15:46:05Z</time>
      </trkpt>
      <trkpt lat="43.56191" lon="3.70844">
        <ele>76</ele>
        <time>2021-04-15T15:46:05Z</time>
      </trkpt>
      <trkpt lat="43.56189" lon="3.70846">
        <ele>75.7</ele>
        <time>2021-04-15T15:46:07Z</time>
      </trkpt>
      <trkpt lat="43.56189" lon="3.70846">
        <ele>76</ele>
        <time>2021-04-15T15:46:07Z</time>
      </trkpt>
      <trkpt lat="43.56188" lon="3.70847">
        <ele>75.6</ele>
        <time>2021-04-15T15:46:08Z</time>
      </trkpt>
      <trkpt lat="43.56188" lon="3.70847">
        <ele>76</ele>
        <time>2021-04-15T15:46:08Z</time>
      </trkpt>
      <trkpt lat="43.56187" lon="3.70848">
        <ele>75.6</ele>
        <time>2021-04-15T15:46:09Z</time>
      </trkpt>
      <trkpt lat="43.56187" lon="3.70848">
        <ele>76</ele>
        <time>2021-04-15T15:46:09Z</time>
      </trkpt>
      <trkpt lat="43.56185" lon="3.70849">
        <ele>75.5</ele>
        <time>2021-04-15T15:46:11Z</time>
      </trkpt>
      <trkpt lat="43.56185" lon="3.70849">
        <ele>76</ele>
        <time>2021-04-15T15:46:11Z</time>
      </trkpt>
      <trkpt lat="43.56183" lon="3.70851">
        <ele>75.5</ele>
        <time>2021-04-15T15:46:13Z</time>
      </trkpt>
      <trkpt lat="43.56183" lon="3.70851">
        <ele>76</ele>
        <time>2021-04-15T15:46:13Z</time>
      </trkpt>
      <trkpt lat="43.56181" lon="3.70853">
        <ele>75.4</ele>
        <time>2021-04-15T15:46:14Z</time>
      </trkpt>
      <trkpt lat="43.56181" lon="3.70853">
        <ele>76</ele>
        <time>2021-04-15T15:46:14Z</time>
      </trkpt>
      <trkpt lat="43.56179" lon="3.70854">
        <ele>75.3</ele>
        <time>2021-04-15T15:46:15Z</time>
      </trkpt>
      <trkpt lat="43.56179" lon="3.70854">
        <ele>76</ele>
        <time>2021-04-15T15:46:15Z</time>
      </trkpt>
      <trkpt lat="43.56177" lon="3.70856">
        <ele>75.3</ele>
        <time>2021-04-15T15:46:17Z</time>
      </trkpt>
      <trkpt lat="43.56177" lon="3.70856">
        <ele>76</ele>
        <time>2021-04-15T15:46:17Z</time>
      </trkpt>
      <trkpt lat="43.56175" lon="3.70858">
        <ele>75.2</ele>
        <time>2021-04-15T15:46:19Z</time>
      </trkpt>
      <trkpt lat="43.56175" lon="3.70858">
        <ele>75</ele>
        <time>2021-04-15T15:46:19Z</time>
      </trkpt>
      <trkpt lat="43.56173" lon="3.7086">
        <ele>75.2</ele>
        <time>2021-04-15T15:46:20Z</time>
      </trkpt>
      <trkpt lat="43.56173" lon="3.7086">
        <ele>75</ele>
        <time>2021-04-15T15:46:20Z</time>
      </trkpt>
      <trkpt lat="43.56171" lon="3.70862">
        <ele>75.1</ele>
        <time>2021-04-15T15:46:22Z</time>
      </trkpt>
      <trkpt lat="43.56171" lon="3.70862">
        <ele>75</ele>
        <time>2021-04-15T15:46:22Z</time>
      </trkpt>
      <trkpt lat="43.56169" lon="3.70864">
        <ele>75.1</ele>
        <time>2021-04-15T15:46:23Z</time>
      </trkpt>
      <trkpt lat="43.56169" lon="3.70864">
        <ele>75</ele>
        <time>2021-04-15T15:46:23Z</time>
      </trkpt>
      <trkpt lat="43.56167" lon="3.70865">
        <ele>75</ele>
        <time>2021-04-15T15:46:25Z</time>
      </trkpt>
      <trkpt lat="43.56167" lon="3.70865">
        <ele>75</ele>
        <time>2021-04-15T15:46:25Z</time>
      </trkpt>
      <trkpt lat="43.56165" lon="3.70866">
        <ele>74.9</ele>
        <time>2021-04-15T15:46:27Z</time>
      </trkpt>
      <trkpt lat="43.56165" lon="3.70866">
        <ele>75</ele>
        <time>2021-04-15T15:46:27Z</time>
      </trkpt>
      <trkpt lat="43.5616" lon="3.70868">
        <ele>74.6</ele>
        <time>2021-04-15T15:46:31Z</time>
      </trkpt>
      <trkpt lat="43.5616" lon="3.70868">
        <ele>75</ele>
        <time>2021-04-15T15:46:31Z</time>
      </trkpt>
      <trkpt lat="43.56155" lon="3.70881">
        <ele>74.5</ele>
        <time>2021-04-15T15:47:17Z</time>
      </trkpt>
      <trkpt lat="43.56155" lon="3.70881">
        <ele>75</ele>
        <time>2021-04-15T15:47:17Z</time>
      </trkpt>
      <trkpt lat="43.56155" lon="3.7088">
        <ele>74.5</ele>
        <time>2021-04-15T15:47:18Z</time>
      </trkpt>
      <trkpt lat="43.56155" lon="3.7088">
        <ele>75</ele>
        <time>2021-04-15T15:47:18Z</time>
      </trkpt>
      <trkpt lat="43.56155" lon="3.70881">
        <ele>74.5</ele>
        <time>2021-04-15T15:47:20Z</time>
      </trkpt>
      <trkpt lat="43.56155" lon="3.70881">
        <ele>75</ele>
        <time>2021-04-15T15:47:20Z</time>
      </trkpt>
      <trkpt lat="43.56155" lon="3.70881">
        <ele>74.5</ele>
        <time>2021-04-15T15:47:22Z</time>
      </trkpt>
      <trkpt lat="43.56155" lon="3.70881">
        <ele>75</ele>
        <time>2021-04-15T15:47:22Z</time>
      </trkpt>
      <trkpt lat="43.56156" lon="3.70882">
        <ele>74.5</ele>
        <time>2021-04-15T15:47:24Z</time>
      </trkpt>
      <trkpt lat="43.56156" lon="3.70882">
        <ele>75</ele>
        <time>2021-04-15T15:47:24Z</time>
      </trkpt>
      <trkpt lat="43.56156" lon="3.70882">
        <ele>74.5</ele>
        <time>2021-04-15T15:47:26Z</time>
      </trkpt>
      <trkpt lat="43.56156" lon="3.70882">
        <ele>75</ele>
        <time>2021-04-15T15:47:26Z</time>
      </trkpt>
    </trkseg>
  </trk>
</gpx>